<?xml version='1.0' encoding='UTF-8'?><gpx version="1.1" creator="JPX - https://github.com/jenetics/jpx" xmlns="http://www.topografix.com/GPX/1/1"><trk><trkseg><trkpt lat="45.30721724386214" lon="9.210380764349305"><ele>88.0</ele><time>2026-03-22T13:22:37Z</time></trkpt><trkpt lat="45.30722808795993" lon="9.210274670791144"><ele>88.0</ele><time>2026-03-22T13:22:38Z</time></trkpt><trkpt lat="45.307244387134766" lon="9.210178818569945"><ele>88.0</ele><time>2026-03-22T13:22:39Z</time></trkpt><trkpt lat="45.307262341947066" lon="9.210048313245167"><ele>88.0</ele><time>2026-03-22T13:22:40Z</time></trkpt><trkpt lat="45.30728222153395" lon="9.209906568635397"><ele>88.0</ele><time>2026-03-22T13:22:41Z</time></trkpt><trkpt lat="45.30731025551243" lon="9.209736208987279"><ele>88.0</ele><time>2026-03-22T13:22:42Z</time></trkpt><trkpt lat="45.30733823899572" lon="9.209566478379426"><ele>88.0</ele><time>2026-03-22T13:22:43Z</time></trkpt><trkpt lat="45.30736371049882" lon="9.209415570972626"><ele>88.0</ele><time>2026-03-22T13:22:44Z</time></trkpt><trkpt lat="45.3073972367534" lon="9.209255284369144"><ele>88.0</ele><time>2026-03-22T13:22:45Z</time></trkpt><trkpt lat="45.30740933735102" lon="9.209107004791512"><ele>87.80000000000001</ele><time>2026-03-22T13:22:46Z</time></trkpt><trkpt lat="45.30742227975129" lon="9.208977236925111"><ele>87.6</ele><time>2026-03-22T13:22:47Z</time></trkpt><trkpt lat="45.3074705718199" lon="9.208840774034085"><ele>87.4</ele><time>2026-03-22T13:22:48Z</time></trkpt><trkpt lat="45.30751960351799" lon="9.208740881188888"><ele>87.19999999999999</ele><time>2026-03-22T13:22:49Z</time></trkpt><trkpt lat="45.30757478016945" lon="9.20864938920063"><ele>87.0</ele><time>2026-03-22T13:22:50Z</time></trkpt><trkpt lat="45.30762844065477" lon="9.208554299944398"><ele>87.0</ele><time>2026-03-22T13:22:51Z</time></trkpt><trkpt lat="45.307680899338955" lon="9.208454374749945"><ele>87.0</ele><time>2026-03-22T13:22:52Z</time></trkpt><trkpt lat="45.30784107634279" lon="9.208472937661844"><ele>87.0</ele><time>2026-03-22T13:22:53Z</time></trkpt><trkpt lat="45.30792822642163" lon="9.208422503576314"><ele>87.0</ele><time>2026-03-22T13:22:54Z</time></trkpt><trkpt lat="45.30801153061258" lon="9.20837741441302"><ele>87.0</ele><time>2026-03-22T13:22:55Z</time></trkpt><trkpt lat="45.308097433609476" lon="9.208308335161915"><ele>87.0</ele><time>2026-03-22T13:22:56Z</time></trkpt><trkpt lat="45.30819146239392" lon="9.208230058952703"><ele>87.0</ele><time>2026-03-22T13:22:57Z</time></trkpt><trkpt lat="45.30829165007308" lon="9.208151722152575"><ele>87.0</ele><time>2026-03-22T13:22:58Z</time></trkpt><trkpt lat="45.30839468877048" lon="9.208079772978953"><ele>87.0</ele><time>2026-03-22T13:22:59Z</time></trkpt><trkpt lat="45.308502463491514" lon="9.208011535632785"><ele>87.0</ele><time>2026-03-22T13:23:00Z</time></trkpt><trkpt lat="45.30861515956577" lon="9.207945718044739"><ele>87.0</ele><time>2026-03-22T13:23:01Z</time></trkpt><trkpt lat="45.30873080481763" lon="9.207875569779114"><ele>87.0</ele><time>2026-03-22T13:23:02Z</time></trkpt><trkpt lat="45.30885582022153" lon="9.20781563147168"><ele>87.0</ele><time>2026-03-22T13:23:03Z</time></trkpt><trkpt lat="45.308982802773954" lon="9.207757944766733"><ele>87.25</ele><time>2026-03-22T13:23:04Z</time></trkpt><trkpt lat="45.30911501806574" lon="9.207714880443781"><ele>87.5</ele><time>2026-03-22T13:23:05Z</time></trkpt><trkpt lat="45.30924989126412" lon="9.207669950323387"><ele>87.75</ele><time>2026-03-22T13:23:06Z</time></trkpt><trkpt lat="45.30938773738865" lon="9.207633240279463"><ele>88.0</ele><time>2026-03-22T13:23:07Z</time></trkpt><trkpt lat="45.3095240703811" lon="9.207589066353483"><ele>88.0</ele><time>2026-03-22T13:23:08Z</time></trkpt><trkpt lat="45.309656855459096" lon="9.20754941494733"><ele>88.0</ele><time>2026-03-22T13:23:09Z</time></trkpt><trkpt lat="45.309790445866284" lon="9.207510113178348"><ele>88.0</ele><time>2026-03-22T13:23:10Z</time></trkpt><trkpt lat="45.3099200172374" lon="9.207468472406541"><ele>88.0</ele><time>2026-03-22T13:23:11Z</time></trkpt><trkpt lat="45.31004803069854" lon="9.207431270296537"><ele>88.0</ele><time>2026-03-22T13:23:12Z</time></trkpt><trkpt lat="45.3101692867601" lon="9.207397862677002"><ele>88.0</ele><time>2026-03-22T13:23:13Z</time></trkpt><trkpt lat="45.31027914865959" lon="9.207361876906367"><ele>88.0</ele><time>2026-03-22T13:23:14Z</time></trkpt><trkpt lat="45.3103813315378" lon="9.207323116112466"><ele>88.0</ele><time>2026-03-22T13:23:15Z</time></trkpt><trkpt lat="45.3104799797237" lon="9.207284810627302"><ele>88.0</ele><time>2026-03-22T13:23:16Z</time></trkpt><trkpt lat="45.31058150512846" lon="9.20724894781076"><ele>88.4</ele><time>2026-03-22T13:23:17Z</time></trkpt><trkpt lat="45.31068103260574" lon="9.207213675569921"><ele>88.80000000000001</ele><time>2026-03-22T13:23:18Z</time></trkpt><trkpt lat="45.31078288738984" lon="9.207175827896613"><ele>89.2</ele><time>2026-03-22T13:23:19Z</time></trkpt><trkpt lat="45.31088603118252" lon="9.207142408708112"><ele>89.6</ele><time>2026-03-22T13:23:20Z</time></trkpt><trkpt lat="45.310978098455756" lon="9.207113095192748"><ele>90.0</ele><time>2026-03-22T13:23:21Z</time></trkpt><trkpt lat="45.311076510768" lon="9.207108871491444"><ele>90.0</ele><time>2026-03-22T13:23:22Z</time></trkpt><trkpt lat="45.311175998788265" lon="9.207135475582138"><ele>90.0</ele><time>2026-03-22T13:23:23Z</time></trkpt><trkpt lat="45.3112659177564" lon="9.207157837526212"><ele>90.0</ele><time>2026-03-22T13:23:24Z</time></trkpt><trkpt lat="45.31136135345137" lon="9.207164066050336"><ele>90.0</ele><time>2026-03-22T13:23:25Z</time></trkpt><trkpt lat="45.31146340464626" lon="9.207207090980605"><ele>90.0</ele><time>2026-03-22T13:23:26Z</time></trkpt><trkpt lat="45.31156549356719" lon="9.20718279503091"><ele>89.75</ele><time>2026-03-22T13:23:27Z</time></trkpt><trkpt lat="45.31166505659281" lon="9.20709818493204"><ele>89.5</ele><time>2026-03-22T13:23:28Z</time></trkpt><trkpt lat="45.311755598350246" lon="9.206976710625357"><ele>89.25</ele><time>2026-03-22T13:23:29Z</time></trkpt><trkpt lat="45.31186575258756" lon="9.206872447211191"><ele>89.0</ele><time>2026-03-22T13:23:30Z</time></trkpt><trkpt lat="45.31202097181959" lon="9.206770168891708"><ele>89.0</ele><time>2026-03-22T13:23:31Z</time></trkpt><trkpt lat="45.31219810482754" lon="9.206685536851461"><ele>89.0</ele><time>2026-03-22T13:23:32Z</time></trkpt><trkpt lat="45.312386477652474" lon="9.206622632062404"><ele>89.0</ele><time>2026-03-22T13:23:33Z</time></trkpt><trkpt lat="45.31257316087999" lon="9.20656283918847"><ele>88.66666666666667</ele><time>2026-03-22T13:23:34Z</time></trkpt><trkpt lat="45.31275354935415" lon="9.206517821313327"><ele>88.33333333333333</ele><time>2026-03-22T13:23:35Z</time></trkpt><trkpt lat="45.31293357362828" lon="9.20647658910136"><ele>88.0</ele><time>2026-03-22T13:23:36Z</time></trkpt><trkpt lat="45.31311109598245" lon="9.206431609180969"><ele>87.66666666666666</ele><time>2026-03-22T13:23:37Z</time></trkpt><trkpt lat="45.31328909791469" lon="9.206382149209574"><ele>87.33333333333333</ele><time>2026-03-22T13:23:38Z</time></trkpt><trkpt lat="45.31346823819194" lon="9.206334198571824"><ele>87.0</ele><time>2026-03-22T13:23:39Z</time></trkpt><trkpt lat="45.313642769694226" lon="9.206276470959386"><ele>87.0</ele><time>2026-03-22T13:23:40Z</time></trkpt><trkpt lat="45.31381439887425" lon="9.206221116740661"><ele>87.0</ele><time>2026-03-22T13:23:41Z</time></trkpt><trkpt lat="45.31398494338795" lon="9.206164601806869"><ele>87.0</ele><time>2026-03-22T13:23:42Z</time></trkpt><trkpt lat="45.31414900889334" lon="9.206113824352414"><ele>87.25</ele><time>2026-03-22T13:23:43Z</time></trkpt><trkpt lat="45.31429850007885" lon="9.20606721403096"><ele>87.5</ele><time>2026-03-22T13:23:44Z</time></trkpt><trkpt lat="45.314436517788465" lon="9.206021440014666"><ele>87.75</ele><time>2026-03-22T13:23:45Z</time></trkpt><trkpt lat="45.31455733600295" lon="9.205971713778016"><ele>88.0</ele><time>2026-03-22T13:23:46Z</time></trkpt><trkpt lat="45.31466773050318" lon="9.205940624332916"><ele>88.25</ele><time>2026-03-22T13:23:47Z</time></trkpt><trkpt lat="45.31476645400227" lon="9.205919685146515"><ele>88.5</ele><time>2026-03-22T13:23:48Z</time></trkpt><trkpt lat="45.31487236935661" lon="9.205910846340684"><ele>88.75</ele><time>2026-03-22T13:23:49Z</time></trkpt><trkpt lat="45.31499004127128" lon="9.205865049281766"><ele>89.0</ele><time>2026-03-22T13:23:50Z</time></trkpt><trkpt lat="45.31510363386364" lon="9.20575136615366"><ele>89.0</ele><time>2026-03-22T13:23:51Z</time></trkpt><trkpt lat="45.315250324824525" lon="9.20572350755235"><ele>89.0</ele><time>2026-03-22T13:23:52Z</time></trkpt><trkpt lat="45.31539159319542" lon="9.205676259117766"><ele>89.0</ele><time>2026-03-22T13:23:53Z</time></trkpt><trkpt lat="45.31553606977683" lon="9.205636956506149"><ele>89.0</ele><time>2026-03-22T13:23:54Z</time></trkpt><trkpt lat="45.31568162008514" lon="9.205605222381106"><ele>89.25</ele><time>2026-03-22T13:23:55Z</time></trkpt><trkpt lat="45.31581973228007" lon="9.205565245843186"><ele>89.5</ele><time>2026-03-22T13:23:56Z</time></trkpt><trkpt lat="45.31595697053147" lon="9.205523017819615"><ele>89.75</ele><time>2026-03-22T13:23:57Z</time></trkpt><trkpt lat="45.316097677141585" lon="9.205484005753785"><ele>90.0</ele><time>2026-03-22T13:23:58Z</time></trkpt><trkpt lat="45.316252642993" lon="9.205418163657642"><ele>90.0</ele><time>2026-03-22T13:23:59Z</time></trkpt><trkpt lat="45.31642605678413" lon="9.205353361263375"><ele>90.0</ele><time>2026-03-22T13:24:00Z</time></trkpt><trkpt lat="45.31661263401766" lon="9.205293619485774"><ele>90.0</ele><time>2026-03-22T13:24:01Z</time></trkpt><trkpt lat="45.31682968984741" lon="9.205218027230055"><ele>90.0</ele><time>2026-03-22T13:24:02Z</time></trkpt><trkpt lat="45.31706244243561" lon="9.205137621303113"><ele>90.0</ele><time>2026-03-22T13:24:03Z</time></trkpt><trkpt lat="45.31731946035843" lon="9.20505583895069"><ele>89.5</ele><time>2026-03-22T13:24:04Z</time></trkpt><trkpt lat="45.31758290032047" lon="9.20494537412367"><ele>89.0</ele><time>2026-03-22T13:24:05Z</time></trkpt><trkpt lat="45.31785325306105" lon="9.204835152680303"><ele>87.5</ele><time>2026-03-22T13:24:06Z</time></trkpt><trkpt lat="45.318104685332045" lon="9.20471992551711"><ele>86.0</ele><time>2026-03-22T13:24:07Z</time></trkpt><trkpt lat="45.318342243672724" lon="9.204606792262386"><ele>86.0</ele><time>2026-03-22T13:24:08Z</time></trkpt><trkpt lat="45.318570543632106" lon="9.204495170508848"><ele>86.0</ele><time>2026-03-22T13:24:09Z</time></trkpt><trkpt lat="45.318785666931355" lon="9.204376860876309"><ele>86.66666666666667</ele><time>2026-03-22T13:24:10Z</time></trkpt><trkpt lat="45.31899740736236" lon="9.204265665218756"><ele>87.33333333333333</ele><time>2026-03-22T13:24:11Z</time></trkpt><trkpt lat="45.319198015750125" lon="9.204156051123656"><ele>88.0</ele><time>2026-03-22T13:24:12Z</time></trkpt><trkpt lat="45.31938397964014" lon="9.204036034977918"><ele>88.33333333333333</ele><time>2026-03-22T13:24:13Z</time></trkpt><trkpt lat="45.319583947487594" lon="9.203942541198652"><ele>88.66666666666667</ele><time>2026-03-22T13:24:14Z</time></trkpt><trkpt lat="45.319777525536246" lon="9.203846104218227"><ele>89.0</ele><time>2026-03-22T13:24:15Z</time></trkpt><trkpt lat="45.31997250645122" lon="9.203751448027306"><ele>89.66666666666667</ele><time>2026-03-22T13:24:16Z</time></trkpt><trkpt lat="45.32016458888233" lon="9.203656420007855"><ele>90.33333333333333</ele><time>2026-03-22T13:24:17Z</time></trkpt><trkpt lat="45.32036156120776" lon="9.203560557189158"><ele>91.0</ele><time>2026-03-22T13:24:18Z</time></trkpt><trkpt lat="45.32056224723288" lon="9.203456946080145"><ele>91.0</ele><time>2026-03-22T13:24:19Z</time></trkpt><trkpt lat="45.320767145316275" lon="9.203360724538626"><ele>91.0</ele><time>2026-03-22T13:24:20Z</time></trkpt><trkpt lat="45.320973332080285" lon="9.20325995272339"><ele>91.0</ele><time>2026-03-22T13:24:21Z</time></trkpt><trkpt lat="45.321176437731665" lon="9.203158776061862"><ele>91.0</ele><time>2026-03-22T13:24:22Z</time></trkpt><trkpt lat="45.32138321395563" lon="9.203072762143783"><ele>91.0</ele><time>2026-03-22T13:24:23Z</time></trkpt><trkpt lat="45.32159122520502" lon="9.202994059701993"><ele>91.0</ele><time>2026-03-22T13:24:24Z</time></trkpt><trkpt lat="45.321799147264684" lon="9.202909382259874"><ele>91.0</ele><time>2026-03-22T13:24:25Z</time></trkpt><trkpt lat="45.32200506751098" lon="9.202817210206682"><ele>91.0</ele><time>2026-03-22T13:24:26Z</time></trkpt><trkpt lat="45.32220420999513" lon="9.202705300469523"><ele>91.0</ele><time>2026-03-22T13:24:27Z</time></trkpt><trkpt lat="45.32239886943147" lon="9.202601910027045"><ele>91.0</ele><time>2026-03-22T13:24:28Z</time></trkpt><trkpt lat="45.32258746703064" lon="9.20249354276844"><ele>91.0</ele><time>2026-03-22T13:24:29Z</time></trkpt><trkpt lat="45.32277926411875" lon="9.202396066918125"><ele>91.0</ele><time>2026-03-22T13:24:30Z</time></trkpt><trkpt lat="45.32296944806912" lon="9.202300236035535"><ele>90.66666666666666</ele><time>2026-03-22T13:24:31Z</time></trkpt><trkpt lat="45.32315603044071" lon="9.20220323426291"><ele>90.33333333333333</ele><time>2026-03-22T13:24:32Z</time></trkpt><trkpt lat="45.32334633151595" lon="9.2021122738938"><ele>90.0</ele><time>2026-03-22T13:24:33Z</time></trkpt><trkpt lat="45.32352555025284" lon="9.202010207533863"><ele>90.0</ele><time>2026-03-22T13:24:34Z</time></trkpt><trkpt lat="45.3237051137385" lon="9.201938654255379"><ele>90.0</ele><time>2026-03-22T13:24:35Z</time></trkpt><trkpt lat="45.323872541277304" lon="9.201856443328301"><ele>90.0</ele><time>2026-03-22T13:24:36Z</time></trkpt><trkpt lat="45.32404090927126" lon="9.201746930223324"><ele>90.33333333333333</ele><time>2026-03-22T13:24:37Z</time></trkpt><trkpt lat="45.32421077731385" lon="9.201668770845023"><ele>90.66666666666666</ele><time>2026-03-22T13:24:38Z</time></trkpt><trkpt lat="45.324356439874975" lon="9.201591946913464"><ele>91.0</ele><time>2026-03-22T13:24:39Z</time></trkpt><trkpt lat="45.32449182861354" lon="9.201505194966646"><ele>91.0</ele><time>2026-03-22T13:24:40Z</time></trkpt><trkpt lat="45.324627746998324" lon="9.201441283507915"><ele>91.0</ele><time>2026-03-22T13:24:41Z</time></trkpt><trkpt lat="45.324754593974724" lon="9.20136934545685"><ele>91.0</ele><time>2026-03-22T13:24:42Z</time></trkpt><trkpt lat="45.324880083326775" lon="9.20130914245113"><ele>91.0</ele><time>2026-03-22T13:24:43Z</time></trkpt><trkpt lat="45.32499746804542" lon="9.201251572943324"><ele>91.0</ele><time>2026-03-22T13:24:44Z</time></trkpt><trkpt lat="45.325106250548274" lon="9.201193262404917"><ele>91.0</ele><time>2026-03-22T13:24:45Z</time></trkpt><trkpt lat="45.32520271759804" lon="9.201135156602877"><ele>91.0</ele><time>2026-03-22T13:24:46Z</time></trkpt><trkpt lat="45.3252899445336" lon="9.201103310163088"><ele>91.0</ele><time>2026-03-22T13:24:47Z</time></trkpt><trkpt lat="45.32537175194763" lon="9.201105461499965"><ele>91.0</ele><time>2026-03-22T13:24:48Z</time></trkpt><trkpt lat="45.32546200900206" lon="9.201131392477597"><ele>91.0</ele><time>2026-03-22T13:24:49Z</time></trkpt><trkpt lat="45.32555408656444" lon="9.201173315950623"><ele>91.0</ele><time>2026-03-22T13:24:50Z</time></trkpt><trkpt lat="45.32563621579811" lon="9.201196796361556"><ele>91.0</ele><time>2026-03-22T13:24:51Z</time></trkpt><trkpt lat="45.325716304618496" lon="9.201195412968827"><ele>91.0</ele><time>2026-03-22T13:24:52Z</time></trkpt><trkpt lat="45.32578372454222" lon="9.201103848919805"><ele>91.0</ele><time>2026-03-22T13:24:53Z</time></trkpt><trkpt lat="45.32580852162974" lon="9.200972621082254"><ele>91.0</ele><time>2026-03-22T13:24:54Z</time></trkpt><trkpt lat="45.32580075624348" lon="9.200840460068447"><ele>91.0</ele><time>2026-03-22T13:24:55Z</time></trkpt><trkpt lat="45.325732827296534" lon="9.200718674648671"><ele>91.0</ele><time>2026-03-22T13:24:56Z</time></trkpt><trkpt lat="45.325661730704404" lon="9.200632796552165"><ele>91.0</ele><time>2026-03-22T13:24:57Z</time></trkpt><trkpt lat="45.32566575863335" lon="9.200465615523816"><ele>91.0</ele><time>2026-03-22T13:24:58Z</time></trkpt><trkpt lat="45.32567620143738" lon="9.200303741958573"><ele>91.0</ele><time>2026-03-22T13:24:59Z</time></trkpt><trkpt lat="45.325684878509755" lon="9.200142710637664"><ele>90.75</ele><time>2026-03-22T13:25:00Z</time></trkpt><trkpt lat="45.325693272079405" lon="9.199977528076882"><ele>90.5</ele><time>2026-03-22T13:25:01Z</time></trkpt><trkpt lat="45.325703450830616" lon="9.199800775740808"><ele>90.25</ele><time>2026-03-22T13:25:02Z</time></trkpt><trkpt lat="45.32571589205513" lon="9.199576618977886"><ele>90.0</ele><time>2026-03-22T13:25:03Z</time></trkpt><trkpt lat="45.325750522030646" lon="9.199344701028018"><ele>90.0</ele><time>2026-03-22T13:25:04Z</time></trkpt><trkpt lat="45.32580411674836" lon="9.199096298242015"><ele>90.0</ele><time>2026-03-22T13:25:05Z</time></trkpt><trkpt lat="45.3258710998001" lon="9.198856650705622"><ele>90.0</ele><time>2026-03-22T13:25:06Z</time></trkpt><trkpt lat="45.32594371688056" lon="9.198634010856797"><ele>90.0</ele><time>2026-03-22T13:25:07Z</time></trkpt><trkpt lat="45.326017303760935" lon="9.198416095031904"><ele>90.0</ele><time>2026-03-22T13:25:08Z</time></trkpt><trkpt lat="45.32610261075603" lon="9.198209711384491"><ele>90.0</ele><time>2026-03-22T13:25:09Z</time></trkpt><trkpt lat="45.326199234237386" lon="9.19801072482938"><ele>90.33333333333333</ele><time>2026-03-22T13:25:10Z</time></trkpt><trkpt lat="45.326302529641694" lon="9.197822183949159"><ele>90.66666666666666</ele><time>2026-03-22T13:25:11Z</time></trkpt><trkpt lat="45.326408728040356" lon="9.19763253265852"><ele>91.0</ele><time>2026-03-22T13:25:12Z</time></trkpt><trkpt lat="45.326515042632344" lon="9.197441187332574"><ele>91.0</ele><time>2026-03-22T13:25:13Z</time></trkpt><trkpt lat="45.326622543143976" lon="9.197256427068707"><ele>91.0</ele><time>2026-03-22T13:25:14Z</time></trkpt><trkpt lat="45.32672843558669" lon="9.197072157398962"><ele>91.0</ele><time>2026-03-22T13:25:15Z</time></trkpt><trkpt lat="45.326836653951425" lon="9.196889026892283"><ele>91.0</ele><time>2026-03-22T13:25:16Z</time></trkpt><trkpt lat="45.32694381050334" lon="9.196704210440156"><ele>91.0</ele><time>2026-03-22T13:25:17Z</time></trkpt><trkpt lat="45.32704797770076" lon="9.196517378775612"><ele>91.0</ele><time>2026-03-22T13:25:18Z</time></trkpt><trkpt lat="45.32714882677027" lon="9.196332024193513"><ele>92.0</ele><time>2026-03-22T13:25:19Z</time></trkpt><trkpt lat="45.327252293099676" lon="9.196144389345283"><ele>93.0</ele><time>2026-03-22T13:25:20Z</time></trkpt><trkpt lat="45.32735821626565" lon="9.19596243566587"><ele>94.0</ele><time>2026-03-22T13:25:21Z</time></trkpt><trkpt lat="45.32746266070252" lon="9.195783270048297"><ele>94.0</ele><time>2026-03-22T13:25:22Z</time></trkpt><trkpt lat="45.327563240671424" lon="9.195601978232558"><ele>94.0</ele><time>2026-03-22T13:25:23Z</time></trkpt><trkpt lat="45.32766431278351" lon="9.195423449390146"><ele>94.0</ele><time>2026-03-22T13:25:24Z</time></trkpt><trkpt lat="45.32776198857747" lon="9.19524731382095"><ele>94.0</ele><time>2026-03-22T13:25:25Z</time></trkpt><trkpt lat="45.32786365244207" lon="9.195072640146314"><ele>94.0</ele><time>2026-03-22T13:25:26Z</time></trkpt><trkpt lat="45.327957707935695" lon="9.194902626162746"><ele>94.0</ele><time>2026-03-22T13:25:27Z</time></trkpt><trkpt lat="45.32805416909591" lon="9.19472645712128"><ele>93.66666666666666</ele><time>2026-03-22T13:25:28Z</time></trkpt><trkpt lat="45.32815352764773" lon="9.194541536643344"><ele>93.33333333333333</ele><time>2026-03-22T13:25:29Z</time></trkpt><trkpt lat="45.32825484213321" lon="9.194367001682243"><ele>93.0</ele><time>2026-03-22T13:25:30Z</time></trkpt><trkpt lat="45.32834718451905" lon="9.194205437997432"><ele>93.0</ele><time>2026-03-22T13:25:31Z</time></trkpt><trkpt lat="45.32843335327515" lon="9.19404848002444"><ele>93.0</ele><time>2026-03-22T13:25:32Z</time></trkpt><trkpt lat="45.32851941423089" lon="9.193894392076754"><ele>93.0</ele><time>2026-03-22T13:25:33Z</time></trkpt><trkpt lat="45.328605094530374" lon="9.19374069828882"><ele>93.0</ele><time>2026-03-22T13:25:34Z</time></trkpt><trkpt lat="45.32868927127891" lon="9.193595004100146"><ele>92.75</ele><time>2026-03-22T13:25:35Z</time></trkpt><trkpt lat="45.3287693236647" lon="9.193454382884118"><ele>92.5</ele><time>2026-03-22T13:25:36Z</time></trkpt><trkpt lat="45.32884624767749" lon="9.193309266465514"><ele>92.25</ele><time>2026-03-22T13:25:37Z</time></trkpt><trkpt lat="45.32892682090057" lon="9.193168991327514"><ele>92.0</ele><time>2026-03-22T13:25:38Z</time></trkpt><trkpt lat="45.329003613153624" lon="9.193031315859317"><ele>91.8</ele><time>2026-03-22T13:25:39Z</time></trkpt><trkpt lat="45.32907777856499" lon="9.192900213548633"><ele>91.6</ele><time>2026-03-22T13:25:40Z</time></trkpt><trkpt lat="45.32915249312668" lon="9.192774128997211"><ele>91.39999999999999</ele><time>2026-03-22T13:25:41Z</time></trkpt><trkpt lat="45.32922587626096" lon="9.192655280740322"><ele>91.19999999999999</ele><time>2026-03-22T13:25:42Z</time></trkpt><trkpt lat="45.329300999441976" lon="9.192557599031042"><ele>91.0</ele><time>2026-03-22T13:25:43Z</time></trkpt><trkpt lat="45.32935986029348" lon="9.192455861452448"><ele>91.0</ele><time>2026-03-22T13:25:44Z</time></trkpt><trkpt lat="45.329431056880495" lon="9.192414736274307"><ele>91.0</ele><time>2026-03-22T13:25:45Z</time></trkpt><trkpt lat="45.329492937681025" lon="9.19236781471086"><ele>91.0</ele><time>2026-03-22T13:25:46Z</time></trkpt><trkpt lat="45.32957202846048" lon="9.192308386875627"><ele>91.0</ele><time>2026-03-22T13:25:47Z</time></trkpt><trkpt lat="45.32964713922966" lon="9.192266036403831"><ele>91.0</ele><time>2026-03-22T13:25:48Z</time></trkpt><trkpt lat="45.32971767621504" lon="9.192234981449095"><ele>91.0</ele><time>2026-03-22T13:25:49Z</time></trkpt><trkpt lat="45.329781852625246" lon="9.192206177085584"><ele>91.0</ele><time>2026-03-22T13:25:50Z</time></trkpt><trkpt lat="45.329850531703066" lon="9.192176869471792"><ele>91.0</ele><time>2026-03-22T13:25:51Z</time></trkpt><trkpt lat="45.329917285508465" lon="9.192137060255494"><ele>91.0</ele><time>2026-03-22T13:25:52Z</time></trkpt><trkpt lat="45.32998065472795" lon="9.192065082907144"><ele>91.0</ele><time>2026-03-22T13:25:53Z</time></trkpt><trkpt lat="45.33004087742126" lon="9.191970936918183"><ele>91.0</ele><time>2026-03-22T13:25:54Z</time></trkpt><trkpt lat="45.33008799424996" lon="9.191858019824503"><ele>91.0</ele><time>2026-03-22T13:25:55Z</time></trkpt><trkpt lat="45.33010795447541" lon="9.191724372736156"><ele>91.0</ele><time>2026-03-22T13:25:56Z</time></trkpt><trkpt lat="45.33010409601727" lon="9.191586227864788"><ele>91.0</ele><time>2026-03-22T13:25:57Z</time></trkpt><trkpt lat="45.33007639782737" lon="9.191447116718972"><ele>91.0</ele><time>2026-03-22T13:25:58Z</time></trkpt><trkpt lat="45.330029749794434" lon="9.191328254201029"><ele>91.0</ele><time>2026-03-22T13:25:59Z</time></trkpt><trkpt lat="45.329949854768394" lon="9.191236359197484"><ele>91.0</ele><time>2026-03-22T13:26:00Z</time></trkpt><trkpt lat="45.329850719882145" lon="9.191171620440935"><ele>91.0</ele><time>2026-03-22T13:26:01Z</time></trkpt><trkpt lat="45.3297336474564" lon="9.191119175431625"><ele>91.0</ele><time>2026-03-22T13:26:02Z</time></trkpt><trkpt lat="45.329585610156144" lon="9.19115716683678"><ele>91.0</ele><time>2026-03-22T13:26:03Z</time></trkpt><trkpt lat="45.329442045215245" lon="9.191193259932646"><ele>91.0</ele><time>2026-03-22T13:26:04Z</time></trkpt><trkpt lat="45.32928042063642" lon="9.19121434016638"><ele>91.0</ele><time>2026-03-22T13:26:05Z</time></trkpt><trkpt lat="45.3291242261288" lon="9.191188210900066"><ele>91.0</ele><time>2026-03-22T13:26:06Z</time></trkpt><trkpt lat="45.32896314644975" lon="9.191127769031201"><ele>91.0</ele><time>2026-03-22T13:26:07Z</time></trkpt><trkpt lat="45.32881656284943" lon="9.19099013335078"><ele>91.0</ele><time>2026-03-22T13:26:08Z</time></trkpt><trkpt lat="45.32864982690576" lon="9.190877105200997"><ele>91.0</ele><time>2026-03-22T13:26:09Z</time></trkpt><trkpt lat="45.328488918622064" lon="9.190764363334086"><ele>91.0</ele><time>2026-03-22T13:26:10Z</time></trkpt><trkpt lat="45.32832666054028" lon="9.190648904162904"><ele>91.0</ele><time>2026-03-22T13:26:11Z</time></trkpt><trkpt lat="45.32816245283238" lon="9.19053080961381"><ele>91.0</ele><time>2026-03-22T13:26:12Z</time></trkpt><trkpt lat="45.32801626331874" lon="9.190424924054414"><ele>91.0</ele><time>2026-03-22T13:26:13Z</time></trkpt><trkpt lat="45.32787940113417" lon="9.190325794405918"><ele>90.5</ele><time>2026-03-22T13:26:14Z</time></trkpt><trkpt lat="45.327758981808095" lon="9.19023833329267"><ele>90.0</ele><time>2026-03-22T13:26:15Z</time></trkpt><trkpt lat="45.327653107390326" lon="9.190157565265446"><ele>89.5</ele><time>2026-03-22T13:26:16Z</time></trkpt><trkpt lat="45.327556420143004" lon="9.190083805809632"><ele>89.0</ele><time>2026-03-22T13:26:17Z</time></trkpt><trkpt lat="45.32747211217695" lon="9.189999407600599"><ele>89.0</ele><time>2026-03-22T13:26:18Z</time></trkpt><trkpt lat="45.32742870657565" lon="9.189843783110081"><ele>89.0</ele><time>2026-03-22T13:26:19Z</time></trkpt><trkpt lat="45.32737885537339" lon="9.1897134444527"><ele>89.0</ele><time>2026-03-22T13:26:20Z</time></trkpt><trkpt lat="45.3273145805053" lon="9.189603425741938"><ele>89.0</ele><time>2026-03-22T13:26:21Z</time></trkpt><trkpt lat="45.327196838747014" lon="9.189551261162553"><ele>89.0</ele><time>2026-03-22T13:26:22Z</time></trkpt><trkpt lat="45.32706752948405" lon="9.189669659365567"><ele>89.25</ele><time>2026-03-22T13:26:23Z</time></trkpt><trkpt lat="45.326931415370325" lon="9.189684837348013"><ele>89.5</ele><time>2026-03-22T13:26:24Z</time></trkpt><trkpt lat="45.3267926263947" lon="9.189631495714412"><ele>89.75</ele><time>2026-03-22T13:26:25Z</time></trkpt><trkpt lat="45.32664985276623" lon="9.189517367948492"><ele>90.0</ele><time>2026-03-22T13:26:26Z</time></trkpt><trkpt lat="45.3265106122647" lon="9.189337421313999"><ele>90.0</ele><time>2026-03-22T13:26:27Z</time></trkpt><trkpt lat="45.32635069391358" lon="9.189221529591524"><ele>90.0</ele><time>2026-03-22T13:26:28Z</time></trkpt><trkpt lat="45.326176492696206" lon="9.189096634528733"><ele>90.0</ele><time>2026-03-22T13:26:29Z</time></trkpt><trkpt lat="45.326005308686696" lon="9.188973741726318"><ele>90.0</ele><time>2026-03-22T13:26:30Z</time></trkpt><trkpt lat="45.32583242228422" lon="9.188848659850036"><ele>90.0</ele><time>2026-03-22T13:26:31Z</time></trkpt><trkpt lat="45.325652090377766" lon="9.188719330083194"><ele>90.0</ele><time>2026-03-22T13:26:32Z</time></trkpt><trkpt lat="45.325471773955215" lon="9.188589535713337"><ele>90.33333333333333</ele><time>2026-03-22T13:26:33Z</time></trkpt><trkpt lat="45.325297114194385" lon="9.188463066641408"><ele>90.66666666666666</ele><time>2026-03-22T13:26:34Z</time></trkpt><trkpt lat="45.32512804207961" lon="9.188340643500371"><ele>91.0</ele><time>2026-03-22T13:26:35Z</time></trkpt><trkpt lat="45.32496439214849" lon="9.188222146581712"><ele>91.33333333333333</ele><time>2026-03-22T13:26:36Z</time></trkpt><trkpt lat="45.324804995437475" lon="9.188106868029477"><ele>91.66666666666667</ele><time>2026-03-22T13:26:37Z</time></trkpt><trkpt lat="45.32464688154677" lon="9.187992554388162"><ele>92.0</ele><time>2026-03-22T13:26:38Z</time></trkpt><trkpt lat="45.32449366193661" lon="9.187882338235124"><ele>91.33333333333334</ele><time>2026-03-22T13:26:39Z</time></trkpt><trkpt lat="45.32434317379177" lon="9.187774437897975"><ele>90.66666666666667</ele><time>2026-03-22T13:26:40Z</time></trkpt><trkpt lat="45.32419562379178" lon="9.187668644321839"><ele>90.0</ele><time>2026-03-22T13:26:41Z</time></trkpt><trkpt lat="45.32405008382297" lon="9.187576907469554"><ele>90.0</ele><time>2026-03-22T13:26:42Z</time></trkpt><trkpt lat="45.32390386085548" lon="9.187474563641572"><ele>90.0</ele><time>2026-03-22T13:26:43Z</time></trkpt><trkpt lat="45.32376168314356" lon="9.187379617402259"><ele>90.0</ele><time>2026-03-22T13:26:44Z</time></trkpt><trkpt lat="45.32361753766126" lon="9.18728335703732"><ele>90.0</ele><time>2026-03-22T13:26:45Z</time></trkpt><trkpt lat="45.32346703549139" lon="9.187182851748846"><ele>90.0</ele><time>2026-03-22T13:26:46Z</time></trkpt><trkpt lat="45.32332471713948" lon="9.187089034428567"><ele>90.0</ele><time>2026-03-22T13:26:47Z</time></trkpt><trkpt lat="45.32319643825686" lon="9.187005067953184"><ele>90.0</ele><time>2026-03-22T13:26:48Z</time></trkpt><trkpt lat="45.323080675147814" lon="9.18692929425033"><ele>90.0</ele><time>2026-03-22T13:26:49Z</time></trkpt><trkpt lat="45.322977010011975" lon="9.186858606474443"><ele>90.0</ele><time>2026-03-22T13:26:50Z</time></trkpt><trkpt lat="45.32287672574975" lon="9.18679000045683"><ele>90.0</ele><time>2026-03-22T13:26:51Z</time></trkpt><trkpt lat="45.32277342506931" lon="9.186746616961425"><ele>90.2</ele><time>2026-03-22T13:26:52Z</time></trkpt><trkpt lat="45.3226809858747" lon="9.1866860486587"><ele>90.4</ele><time>2026-03-22T13:26:53Z</time></trkpt><trkpt lat="45.32259874343281" lon="9.186635761906706"><ele>90.6</ele><time>2026-03-22T13:26:54Z</time></trkpt><trkpt lat="45.322501546303755" lon="9.18658411239856"><ele>90.8</ele><time>2026-03-22T13:26:55Z</time></trkpt><trkpt lat="45.32238881619747" lon="9.186557542311679"><ele>91.0</ele><time>2026-03-22T13:26:56Z</time></trkpt><trkpt lat="45.32226380646842" lon="9.186555376575225"><ele>90.5</ele><time>2026-03-22T13:26:57Z</time></trkpt><trkpt lat="45.32213134835434" lon="9.186581566037415"><ele>90.0</ele><time>2026-03-22T13:26:58Z</time></trkpt><trkpt lat="45.3219815051399" lon="9.186565408343688"><ele>89.5</ele><time>2026-03-22T13:26:59Z</time></trkpt><trkpt lat="45.32184534258323" lon="9.186622767017989"><ele>89.0</ele><time>2026-03-22T13:27:00Z</time></trkpt><trkpt lat="45.3217205324894" lon="9.186675343576775"><ele>89.0</ele><time>2026-03-22T13:27:01Z</time></trkpt><trkpt lat="45.32160598731013" lon="9.18672401320368"><ele>89.0</ele><time>2026-03-22T13:27:02Z</time></trkpt><trkpt lat="45.32148613622733" lon="9.186782036163015"><ele>89.0</ele><time>2026-03-22T13:27:03Z</time></trkpt><trkpt lat="45.32137215559522" lon="9.186854090396272"><ele>89.0</ele><time>2026-03-22T13:27:04Z</time></trkpt><trkpt lat="45.3212641736924" lon="9.186967197327602"><ele>89.0</ele><time>2026-03-22T13:27:05Z</time></trkpt><trkpt lat="45.321176402025095" lon="9.1871028263235"><ele>89.0</ele><time>2026-03-22T13:27:06Z</time></trkpt><trkpt lat="45.32111338364122" lon="9.18723270826141"><ele>89.0</ele><time>2026-03-22T13:27:07Z</time></trkpt><trkpt lat="45.32107238519187" lon="9.1873342138671"><ele>89.0</ele><time>2026-03-22T13:27:08Z</time></trkpt><trkpt lat="45.321035394856395" lon="9.187413725608774"><ele>89.0</ele><time>2026-03-22T13:27:09Z</time></trkpt><trkpt lat="45.320996596830064" lon="9.187487475199786"><ele>89.0</ele><time>2026-03-22T13:27:10Z</time></trkpt><trkpt lat="45.320950862422855" lon="9.187549373138069"><ele>89.0</ele><time>2026-03-22T13:27:11Z</time></trkpt><trkpt lat="45.32088652199587" lon="9.187574910620476"><ele>89.0</ele><time>2026-03-22T13:27:12Z</time></trkpt><trkpt lat="45.32078501034548" lon="9.187627815062848"><ele>89.0</ele><time>2026-03-22T13:27:14Z</time></trkpt><trkpt lat="45.32072045278915" lon="9.187614017175742"><ele>89.0</ele><time>2026-03-22T13:27:16Z</time></trkpt><trkpt lat="45.32063761328861" lon="9.187819729057198"><ele>89.0</ele><time>2026-03-22T13:28:10Z</time></trkpt><trkpt lat="45.320591066004546" lon="9.187888581703431"><ele>89.0</ele><time>2026-03-22T13:28:11Z</time></trkpt><trkpt lat="45.32053884395272" lon="9.187955507818161"><ele>89.0</ele><time>2026-03-22T13:28:12Z</time></trkpt><trkpt lat="45.32042272508548" lon="9.18797950992417"><ele>89.0</ele><time>2026-03-22T13:28:13Z</time></trkpt><trkpt lat="45.32033002809909" lon="9.188104188869536"><ele>89.0</ele><time>2026-03-22T13:28:14Z</time></trkpt><trkpt lat="45.32022982548613" lon="9.188186421193343"><ele>88.80000000000001</ele><time>2026-03-22T13:28:15Z</time></trkpt><trkpt lat="45.32014618999263" lon="9.188284192857179"><ele>88.60000000000001</ele><time>2026-03-22T13:28:16Z</time></trkpt><trkpt lat="45.32007277349979" lon="9.188370018275597"><ele>88.4</ele><time>2026-03-22T13:28:17Z</time></trkpt><trkpt lat="45.32000740333" lon="9.188449227485892"><ele>88.2</ele><time>2026-03-22T13:28:18Z</time></trkpt><trkpt lat="45.31994275259369" lon="9.188528430265515"><ele>88.0</ele><time>2026-03-22T13:28:19Z</time></trkpt><trkpt lat="45.3198665780392" lon="9.188540269508781"><ele>88.0</ele><time>2026-03-22T13:28:20Z</time></trkpt><trkpt lat="45.319784553763036" lon="9.18855212827369"><ele>88.0</ele><time>2026-03-22T13:28:21Z</time></trkpt><trkpt lat="45.31971016522445" lon="9.188517556297136"><ele>88.0</ele><time>2026-03-22T13:28:22Z</time></trkpt><trkpt lat="45.31962525620783" lon="9.18849329772571"><ele>88.0</ele><time>2026-03-22T13:28:23Z</time></trkpt><trkpt lat="45.31953855289046" lon="9.18851171179279"><ele>88.0</ele><time>2026-03-22T13:28:24Z</time></trkpt><trkpt lat="45.319440432438874" lon="9.1886246490895"><ele>87.80000000000001</ele><time>2026-03-22T13:28:25Z</time></trkpt><trkpt lat="45.31940056650175" lon="9.188781804810178"><ele>87.6</ele><time>2026-03-22T13:28:26Z</time></trkpt><trkpt lat="45.31946953885615" lon="9.188928513101967"><ele>87.4</ele><time>2026-03-22T13:28:27Z</time></trkpt><trkpt lat="45.31951236514546" lon="9.189027362232913"><ele>87.19999999999999</ele><time>2026-03-22T13:28:28Z</time></trkpt><trkpt lat="45.31958569632175" lon="9.18909965675618"><ele>87.0</ele><time>2026-03-22T13:28:29Z</time></trkpt><trkpt lat="45.31967185917129" lon="9.189118739938387"><ele>87.19999999999999</ele><time>2026-03-22T13:28:30Z</time></trkpt><trkpt lat="45.31975566746536" lon="9.189087092941815"><ele>87.4</ele><time>2026-03-22T13:28:31Z</time></trkpt><trkpt lat="45.3198271749969" lon="9.18900173598561"><ele>87.6</ele><time>2026-03-22T13:28:32Z</time></trkpt><trkpt lat="45.319899849573574" lon="9.188861732158937"><ele>87.80000000000001</ele><time>2026-03-22T13:28:33Z</time></trkpt><trkpt lat="45.31993028333168" lon="9.188663661879348"><ele>88.0</ele><time>2026-03-22T13:28:34Z</time></trkpt><trkpt lat="45.31997378883653" lon="9.188521493240355"><ele>88.0</ele><time>2026-03-22T13:28:35Z</time></trkpt><trkpt lat="45.320119712030085" lon="9.188406899408283"><ele>88.0</ele><time>2026-03-22T13:28:36Z</time></trkpt><trkpt lat="45.32020260383646" lon="9.1883099970395"><ele>88.0</ele><time>2026-03-22T13:28:37Z</time></trkpt><trkpt lat="45.320289821676035" lon="9.188211011787262"><ele>88.0</ele><time>2026-03-22T13:28:38Z</time></trkpt><trkpt lat="45.32037554092446" lon="9.188127222002038"><ele>88.0</ele><time>2026-03-22T13:28:39Z</time></trkpt><trkpt lat="45.320503755386106" lon="9.188161119077721"><ele>88.0</ele><time>2026-03-22T13:28:40Z</time></trkpt><trkpt lat="45.320607548516065" lon="9.188193802097947"><ele>88.0</ele><time>2026-03-22T13:28:41Z</time></trkpt><trkpt lat="45.32070410019388" lon="9.188255768757145"><ele>88.0</ele><time>2026-03-22T13:28:42Z</time></trkpt><trkpt lat="45.320805054557866" lon="9.188302286809096"><ele>88.0</ele><time>2026-03-22T13:28:43Z</time></trkpt><trkpt lat="45.320903991937165" lon="9.188306818032858"><ele>88.2</ele><time>2026-03-22T13:28:44Z</time></trkpt><trkpt lat="45.32100760014877" lon="9.188288729765434"><ele>88.4</ele><time>2026-03-22T13:28:45Z</time></trkpt><trkpt lat="45.321106246427476" lon="9.188250516082231"><ele>88.60000000000001</ele><time>2026-03-22T13:28:46Z</time></trkpt><trkpt lat="45.321194326696755" lon="9.188195047377056"><ele>88.80000000000001</ele><time>2026-03-22T13:28:47Z</time></trkpt><trkpt lat="45.32126123067025" lon="9.188116597083987"><ele>89.0</ele><time>2026-03-22T13:28:48Z</time></trkpt><trkpt lat="45.321323004299344" lon="9.188064590662677"><ele>89.0</ele><time>2026-03-22T13:28:49Z</time></trkpt><trkpt lat="45.32130155759895" lon="9.187872193438688"><ele>89.0</ele><time>2026-03-22T13:28:50Z</time></trkpt><trkpt lat="45.32129379889062" lon="9.187750576288629"><ele>89.0</ele><time>2026-03-22T13:28:51Z</time></trkpt><trkpt lat="45.32124043612669" lon="9.1876462649172"><ele>89.0</ele><time>2026-03-22T13:28:52Z</time></trkpt><trkpt lat="45.32116805418548" lon="9.18758409965441"><ele>89.0</ele><time>2026-03-22T13:28:53Z</time></trkpt><trkpt lat="45.32109113282418" lon="9.187519776096947"><ele>89.0</ele><time>2026-03-22T13:28:54Z</time></trkpt><trkpt lat="45.32097310699215" lon="9.187512995500404"><ele>89.0</ele><time>2026-03-22T13:28:55Z</time></trkpt><trkpt lat="45.32087229875058" lon="9.187536105991168"><ele>89.0</ele><time>2026-03-22T13:28:56Z</time></trkpt><trkpt lat="45.320795717274265" lon="9.187563329416658"><ele>89.0</ele><time>2026-03-22T13:28:57Z</time></trkpt><trkpt lat="45.320736879279444" lon="9.187496234610908"><ele>89.0</ele><time>2026-03-22T13:28:58Z</time></trkpt><trkpt lat="45.32067952693975" lon="9.187434486213718"><ele>89.0</ele><time>2026-03-22T13:28:59Z</time></trkpt><trkpt lat="45.320649505277395" lon="9.187352852611216"><ele>89.0</ele><time>2026-03-22T13:29:00Z</time></trkpt><trkpt lat="45.32075325521887" lon="9.187123280192688"><ele>89.0</ele><time>2026-03-22T13:29:01Z</time></trkpt><trkpt lat="45.32080662239999" lon="9.186955747122264"><ele>89.0</ele><time>2026-03-22T13:29:02Z</time></trkpt><trkpt lat="45.320864572049565" lon="9.186769474739492"><ele>89.0</ele><time>2026-03-22T13:29:03Z</time></trkpt><trkpt lat="45.32092700826149" lon="9.186568251944188"><ele>89.0</ele><time>2026-03-22T13:29:04Z</time></trkpt><trkpt lat="45.32098771179263" lon="9.186371547982231"><ele>89.0</ele><time>2026-03-22T13:29:05Z</time></trkpt><trkpt lat="45.321045116692076" lon="9.186161300640853"><ele>89.0</ele><time>2026-03-22T13:29:06Z</time></trkpt><trkpt lat="45.321114994120855" lon="9.185992585069014"><ele>89.0</ele><time>2026-03-22T13:29:07Z</time></trkpt><trkpt lat="45.32116261919466" lon="9.185824214696224"><ele>89.0</ele><time>2026-03-22T13:29:08Z</time></trkpt><trkpt lat="45.321207379539835" lon="9.185683871232383"><ele>89.0</ele><time>2026-03-22T13:29:09Z</time></trkpt><trkpt lat="45.32124880403032" lon="9.185553845070237"><ele>89.2</ele><time>2026-03-22T13:29:10Z</time></trkpt><trkpt lat="45.32128723632455" lon="9.185414659125021"><ele>89.4</ele><time>2026-03-22T13:29:11Z</time></trkpt><trkpt lat="45.32133025186538" lon="9.18527585373559"><ele>89.6</ele><time>2026-03-22T13:29:12Z</time></trkpt><trkpt lat="45.32137311823003" lon="9.185144095171074"><ele>89.8</ele><time>2026-03-22T13:29:13Z</time></trkpt><trkpt lat="45.321402999404874" lon="9.185003146362652"><ele>90.0</ele><time>2026-03-22T13:29:14Z</time></trkpt><trkpt lat="45.321428262895694" lon="9.184860621828529"><ele>90.0</ele><time>2026-03-22T13:29:15Z</time></trkpt><trkpt lat="45.321387179533346" lon="9.184689370358821"><ele>90.0</ele><time>2026-03-22T13:29:16Z</time></trkpt><trkpt lat="45.321370254040275" lon="9.184522515301037"><ele>90.0</ele><time>2026-03-22T13:29:17Z</time></trkpt><trkpt lat="45.32135807972663" lon="9.18436040058908"><ele>90.0</ele><time>2026-03-22T13:29:18Z</time></trkpt><trkpt lat="45.32134200590805" lon="9.184209653788287"><ele>90.0</ele><time>2026-03-22T13:29:19Z</time></trkpt><trkpt lat="45.321316300159005" lon="9.184061714946456"><ele>90.0</ele><time>2026-03-22T13:29:20Z</time></trkpt><trkpt lat="45.321283264237906" lon="9.183920322623191"><ele>90.0</ele><time>2026-03-22T13:29:21Z</time></trkpt><trkpt lat="45.321241004233755" lon="9.183761516460356"><ele>90.0</ele><time>2026-03-22T13:29:22Z</time></trkpt><trkpt lat="45.321189573338806" lon="9.183604794486264"><ele>90.0</ele><time>2026-03-22T13:29:23Z</time></trkpt><trkpt lat="45.321132859266946" lon="9.18343792081189"><ele>90.0</ele><time>2026-03-22T13:29:24Z</time></trkpt><trkpt lat="45.32107790052622" lon="9.18327129795113"><ele>90.0</ele><time>2026-03-22T13:29:25Z</time></trkpt><trkpt lat="45.32100687971558" lon="9.183111920697126"><ele>90.0</ele><time>2026-03-22T13:29:26Z</time></trkpt><trkpt lat="45.320966335060206" lon="9.182947262211009"><ele>90.2</ele><time>2026-03-22T13:29:27Z</time></trkpt><trkpt lat="45.32089662919151" lon="9.182811394678241"><ele>90.4</ele><time>2026-03-22T13:29:28Z</time></trkpt><trkpt lat="45.320829911788586" lon="9.182693802710935"><ele>90.6</ele><time>2026-03-22T13:29:29Z</time></trkpt><trkpt lat="45.3207784695119" lon="9.182590084892665"><ele>90.8</ele><time>2026-03-22T13:29:30Z</time></trkpt><trkpt lat="45.32073943561911" lon="9.182503082973733"><ele>91.0</ele><time>2026-03-22T13:29:31Z</time></trkpt><trkpt lat="45.32067423484959" lon="9.18241516854125"><ele>90.83333333333333</ele><time>2026-03-22T13:29:33Z</time></trkpt><trkpt lat="45.32065342286323" lon="9.182326264783867"><ele>90.66666666666666</ele><time>2026-03-22T13:29:34Z</time></trkpt><trkpt lat="45.32062715588936" lon="9.182212644137891"><ele>90.5</ele><time>2026-03-22T13:29:36Z</time></trkpt><trkpt lat="45.32054850782142" lon="9.182149693882161"><ele>90.33333333333333</ele><time>2026-03-22T13:29:37Z</time></trkpt><trkpt lat="45.320494239454945" lon="9.182049305172093"><ele>90.16666666666667</ele><time>2026-03-22T13:29:38Z</time></trkpt><trkpt lat="45.320450032197826" lon="9.181949746952622"><ele>90.0</ele><time>2026-03-22T13:29:39Z</time></trkpt><trkpt lat="45.320403455651224" lon="9.181855977988693"><ele>89.66666666666667</ele><time>2026-03-22T13:29:40Z</time></trkpt><trkpt lat="45.32035260098627" lon="9.181764153151251"><ele>89.33333333333333</ele><time>2026-03-22T13:29:41Z</time></trkpt><trkpt lat="45.320305096917934" lon="9.181672344630899"><ele>89.0</ele><time>2026-03-22T13:29:42Z</time></trkpt><trkpt lat="45.32025554301752" lon="9.181592668953247"><ele>88.66666666666666</ele><time>2026-03-22T13:29:43Z</time></trkpt><trkpt lat="45.32021965456848" lon="9.181488809398006"><ele>88.33333333333333</ele><time>2026-03-22T13:29:44Z</time></trkpt><trkpt lat="45.32020315599771" lon="9.181365750744053"><ele>88.0</ele><time>2026-03-22T13:29:45Z</time></trkpt><trkpt lat="45.32020805586203" lon="9.181228873256813"><ele>88.0</ele><time>2026-03-22T13:29:46Z</time></trkpt><trkpt lat="45.32024161911712" lon="9.181101460554945"><ele>88.0</ele><time>2026-03-22T13:29:47Z</time></trkpt><trkpt lat="45.32028289438872" lon="9.180998068065408"><ele>88.0</ele><time>2026-03-22T13:29:48Z</time></trkpt><trkpt lat="45.32037126541495" lon="9.180895309320716"><ele>88.0</ele><time>2026-03-22T13:29:49Z</time></trkpt><trkpt lat="45.32047208144815" lon="9.18082803193126"><ele>88.0</ele><time>2026-03-22T13:29:50Z</time></trkpt><trkpt lat="45.32059382346233" lon="9.18079034790724"><ele>88.25</ele><time>2026-03-22T13:29:51Z</time></trkpt><trkpt lat="45.320721900140065" lon="9.180741401754428"><ele>88.5</ele><time>2026-03-22T13:29:52Z</time></trkpt><trkpt lat="45.32086125535145" lon="9.180687956620634"><ele>88.75</ele><time>2026-03-22T13:29:53Z</time></trkpt><trkpt lat="45.321015800620785" lon="9.18065013541656"><ele>89.0</ele><time>2026-03-22T13:29:54Z</time></trkpt><trkpt lat="45.32116571562818" lon="9.180582524114964"><ele>89.0</ele><time>2026-03-22T13:29:55Z</time></trkpt><trkpt lat="45.32131184933948" lon="9.18052183326249"><ele>89.0</ele><time>2026-03-22T13:29:56Z</time></trkpt><trkpt lat="45.32145231394713" lon="9.180470784040255"><ele>89.0</ele><time>2026-03-22T13:29:57Z</time></trkpt><trkpt lat="45.32158664070111" lon="9.18042462293341"><ele>89.0</ele><time>2026-03-22T13:29:58Z</time></trkpt><trkpt lat="45.32171815849795" lon="9.180399433531063"><ele>89.25</ele><time>2026-03-22T13:29:59Z</time></trkpt><trkpt lat="45.32186290312274" lon="9.180404414239842"><ele>89.5</ele><time>2026-03-22T13:30:00Z</time></trkpt><trkpt lat="45.32200058513191" lon="9.18042002243551"><ele>89.75</ele><time>2026-03-22T13:30:01Z</time></trkpt><trkpt lat="45.32212054615828" lon="9.18043816229714"><ele>90.0</ele><time>2026-03-22T13:30:02Z</time></trkpt><trkpt lat="45.32222850756871" lon="9.18045887886724"><ele>89.8</ele><time>2026-03-22T13:30:03Z</time></trkpt><trkpt lat="45.32233494008235" lon="9.180476943658075"><ele>89.6</ele><time>2026-03-22T13:30:04Z</time></trkpt><trkpt lat="45.322441656238624" lon="9.180492667210546"><ele>89.4</ele><time>2026-03-22T13:30:05Z</time></trkpt><trkpt lat="45.32254022316435" lon="9.180519381476104"><ele>89.2</ele><time>2026-03-22T13:30:06Z</time></trkpt><trkpt lat="45.322624064602955" lon="9.180558302979874"><ele>89.0</ele><time>2026-03-22T13:30:07Z</time></trkpt><trkpt lat="45.32269999387644" lon="9.180617122963389"><ele>89.0</ele><time>2026-03-22T13:30:08Z</time></trkpt><trkpt lat="45.32276718305632" lon="9.180677385989052"><ele>89.0</ele><time>2026-03-22T13:30:09Z</time></trkpt><trkpt lat="45.32283232614803" lon="9.180742938399623"><ele>89.0</ele><time>2026-03-22T13:30:10Z</time></trkpt><trkpt lat="45.322895512748445" lon="9.180802709106985"><ele>89.0</ele><time>2026-03-22T13:30:11Z</time></trkpt><trkpt lat="45.3229489248652" lon="9.180861858814286"><ele>89.0</ele><time>2026-03-22T13:30:12Z</time></trkpt><trkpt lat="45.323008112379554" lon="9.18091264561492"><ele>89.0</ele><time>2026-03-22T13:30:13Z</time></trkpt><trkpt lat="45.323114408203594" lon="9.181009362205176"><ele>89.0</ele><time>2026-03-22T13:30:15Z</time></trkpt><trkpt lat="45.323171564439626" lon="9.181056092578828"><ele>89.0</ele><time>2026-03-22T13:30:16Z</time></trkpt><trkpt lat="45.32325889253323" lon="9.181149001531717"><ele>89.0</ele><time>2026-03-22T13:30:18Z</time></trkpt><trkpt lat="45.323322188401924" lon="9.181209002529238"><ele>89.0</ele><time>2026-03-22T13:30:20Z</time></trkpt><trkpt lat="45.32335107516375" lon="9.181312384547317"><ele>89.0</ele><time>2026-03-22T13:30:22Z</time></trkpt><trkpt lat="45.323368162813345" lon="9.181420011153014"><ele>89.0</ele><time>2026-03-22T13:30:23Z</time></trkpt><trkpt lat="45.32338568952165" lon="9.181546121334614"><ele>89.0</ele><time>2026-03-22T13:30:24Z</time></trkpt><trkpt lat="45.32339623130872" lon="9.181645387010425"><ele>89.0</ele><time>2026-03-22T13:30:25Z</time></trkpt><trkpt lat="45.32338932908495" lon="9.181797749546991"><ele>89.0</ele><time>2026-03-22T13:30:27Z</time></trkpt><trkpt lat="45.323426806903186" lon="9.181943725639096"><ele>89.0</ele><time>2026-03-22T13:30:29Z</time></trkpt><trkpt lat="45.32352248683263" lon="9.18201963642026"><ele>89.0</ele><time>2026-03-22T13:30:31Z</time></trkpt><trkpt lat="45.32357807754953" lon="9.182067802978333"><ele>89.0</ele><time>2026-03-22T13:30:32Z</time></trkpt><trkpt lat="45.32363238225805" lon="9.182135540132442"><ele>89.0</ele><time>2026-03-22T13:30:33Z</time></trkpt><trkpt lat="45.323694176626894" lon="9.182220937754016"><ele>89.0</ele><time>2026-03-22T13:30:34Z</time></trkpt><trkpt lat="45.32375186011053" lon="9.182315905715528"><ele>89.0</ele><time>2026-03-22T13:30:35Z</time></trkpt><trkpt lat="45.323817545653206" lon="9.182414361722433"><ele>89.0</ele><time>2026-03-22T13:30:36Z</time></trkpt><trkpt lat="45.323890603528994" lon="9.182523722706383"><ele>89.0</ele><time>2026-03-22T13:30:37Z</time></trkpt><trkpt lat="45.32395005220682" lon="9.182660957801525"><ele>89.0</ele><time>2026-03-22T13:30:38Z</time></trkpt><trkpt lat="45.324020235977244" lon="9.182789910936366"><ele>89.0</ele><time>2026-03-22T13:30:39Z</time></trkpt><trkpt lat="45.324092319182625" lon="9.182937807710159"><ele>89.0</ele><time>2026-03-22T13:30:40Z</time></trkpt><trkpt lat="45.32419821384359" lon="9.183094790412746"><ele>89.0</ele><time>2026-03-22T13:30:41Z</time></trkpt><trkpt lat="45.32429948803104" lon="9.18326927903695"><ele>89.33333333333334</ele><time>2026-03-22T13:30:42Z</time></trkpt><trkpt lat="45.324399541398726" lon="9.18343632298552"><ele>89.66666666666667</ele><time>2026-03-22T13:30:43Z</time></trkpt><trkpt lat="45.324503705100184" lon="9.183614750805079"><ele>90.0</ele><time>2026-03-22T13:30:44Z</time></trkpt><trkpt lat="45.324608635956416" lon="9.183780232941148"><ele>90.0</ele><time>2026-03-22T13:30:45Z</time></trkpt><trkpt lat="45.32470934104123" lon="9.183930498001141"><ele>90.0</ele><time>2026-03-22T13:30:46Z</time></trkpt><trkpt lat="45.32481440298802" lon="9.184067414723996"><ele>90.0</ele><time>2026-03-22T13:30:47Z</time></trkpt><trkpt lat="45.324916754442214" lon="9.184188741315895"><ele>90.0</ele><time>2026-03-22T13:30:48Z</time></trkpt><trkpt lat="45.32501445026805" lon="9.184317120199003"><ele>90.25</ele><time>2026-03-22T13:30:49Z</time></trkpt><trkpt lat="45.325102932610086" lon="9.184458637582338"><ele>90.5</ele><time>2026-03-22T13:30:50Z</time></trkpt><trkpt lat="45.325186444053074" lon="9.184616295126816"><ele>90.75</ele><time>2026-03-22T13:30:51Z</time></trkpt><trkpt lat="45.32525772412864" lon="9.184795178827045"><ele>91.0</ele><time>2026-03-22T13:30:52Z</time></trkpt><trkpt lat="45.32532803714271" lon="9.18498341739161"><ele>91.0</ele><time>2026-03-22T13:30:53Z</time></trkpt><trkpt lat="45.32539878074193" lon="9.185169098903705"><ele>91.0</ele><time>2026-03-22T13:30:54Z</time></trkpt><trkpt lat="45.32547390499428" lon="9.185351274355865"><ele>91.0</ele><time>2026-03-22T13:30:55Z</time></trkpt><trkpt lat="45.32554305629915" lon="9.185540125057392"><ele>91.0</ele><time>2026-03-22T13:30:56Z</time></trkpt><trkpt lat="45.32561316321477" lon="9.18572759290269"><ele>90.33333333333333</ele><time>2026-03-22T13:30:57Z</time></trkpt><trkpt lat="45.32568422894129" lon="9.185913979117451"><ele>89.66666666666667</ele><time>2026-03-22T13:30:58Z</time></trkpt><trkpt lat="45.32575678370525" lon="9.18610269777276"><ele>89.0</ele><time>2026-03-22T13:30:59Z</time></trkpt><trkpt lat="45.32582723538976" lon="9.18629028740285"><ele>89.0</ele><time>2026-03-22T13:31:00Z</time></trkpt><trkpt lat="45.32589651030335" lon="9.186480566637474"><ele>89.0</ele><time>2026-03-22T13:31:01Z</time></trkpt><trkpt lat="45.32596507038535" lon="9.186670155113445"><ele>89.0</ele><time>2026-03-22T13:31:02Z</time></trkpt><trkpt lat="45.3260358885503" lon="9.186860564766517"><ele>89.25</ele><time>2026-03-22T13:31:03Z</time></trkpt><trkpt lat="45.32610385931946" lon="9.18704843139432"><ele>89.5</ele><time>2026-03-22T13:31:04Z</time></trkpt><trkpt lat="45.32616269620492" lon="9.187246584918508"><ele>89.75</ele><time>2026-03-22T13:31:05Z</time></trkpt><trkpt lat="45.32623137213221" lon="9.187430875594636"><ele>90.0</ele><time>2026-03-22T13:31:06Z</time></trkpt><trkpt lat="45.3263123283126" lon="9.187600738008468"><ele>90.0</ele><time>2026-03-22T13:31:07Z</time></trkpt><trkpt lat="45.32636548952173" lon="9.187790427242474"><ele>90.0</ele><time>2026-03-22T13:31:08Z</time></trkpt><trkpt lat="45.32643224203195" lon="9.18796938215866"><ele>90.0</ele><time>2026-03-22T13:31:09Z</time></trkpt><trkpt lat="45.32649740216381" lon="9.188142364998493"><ele>90.0</ele><time>2026-03-22T13:31:10Z</time></trkpt><trkpt lat="45.3265623296024" lon="9.188312417646216"><ele>90.0</ele><time>2026-03-22T13:31:11Z</time></trkpt><trkpt lat="45.326635708023815" lon="9.188471223135636"><ele>90.0</ele><time>2026-03-22T13:31:12Z</time></trkpt><trkpt lat="45.32670021404211" lon="9.188634974933407"><ele>90.0</ele><time>2026-03-22T13:31:13Z</time></trkpt><trkpt lat="45.32675647759054" lon="9.188789541615522"><ele>90.0</ele><time>2026-03-22T13:31:14Z</time></trkpt><trkpt lat="45.32679516976231" lon="9.188930436396864"><ele>90.0</ele><time>2026-03-22T13:31:15Z</time></trkpt><trkpt lat="45.326863350433186" lon="9.189025139070512"><ele>90.0</ele><time>2026-03-22T13:31:16Z</time></trkpt><trkpt lat="45.326925650854314" lon="9.189109079105997"><ele>90.0</ele><time>2026-03-22T13:31:17Z</time></trkpt><trkpt lat="45.32700817652399" lon="9.189155628926835"><ele>90.0</ele><time>2026-03-22T13:31:18Z</time></trkpt><trkpt lat="45.327093894214805" lon="9.189174009697737"><ele>90.0</ele><time>2026-03-22T13:31:19Z</time></trkpt><trkpt lat="45.32716524892599" lon="9.189206732282784"><ele>90.0</ele><time>2026-03-22T13:31:20Z</time></trkpt><trkpt lat="45.32721478802103" lon="9.189293200012951"><ele>90.0</ele><time>2026-03-22T13:31:21Z</time></trkpt><trkpt lat="45.32718931657254" lon="9.189408806658138"><ele>90.0</ele><time>2026-03-22T13:31:22Z</time></trkpt><trkpt lat="45.327184740645976" lon="9.189500211858276"><ele>90.0</ele><time>2026-03-22T13:31:23Z</time></trkpt><trkpt lat="45.327164457810134" lon="9.189591230083415"><ele>90.0</ele><time>2026-03-22T13:31:24Z</time></trkpt><trkpt lat="45.32710034416084" lon="9.189658611541859"><ele>90.0</ele><time>2026-03-22T13:31:25Z</time></trkpt><trkpt lat="45.32704467604914" lon="9.18973419786602"><ele>90.0</ele><time>2026-03-22T13:31:26Z</time></trkpt><trkpt lat="45.32702125054176" lon="9.189845823088298"><ele>90.0</ele><time>2026-03-22T13:31:27Z</time></trkpt><trkpt lat="45.326990368900354" lon="9.18997165771372"><ele>90.0</ele><time>2026-03-22T13:31:28Z</time></trkpt><trkpt lat="45.32703551511186" lon="9.19009234225923"><ele>90.0</ele><time>2026-03-22T13:31:29Z</time></trkpt><trkpt lat="45.32711822139107" lon="9.190166012982942"><ele>90.0</ele><time>2026-03-22T13:31:30Z</time></trkpt><trkpt lat="45.32720383555941" lon="9.190218633502887"><ele>90.0</ele><time>2026-03-22T13:31:31Z</time></trkpt><trkpt lat="45.32730730305211" lon="9.190220414889284"><ele>89.75</ele><time>2026-03-22T13:31:32Z</time></trkpt><trkpt lat="45.32743181240715" lon="9.190183599952263"><ele>89.5</ele><time>2026-03-22T13:31:33Z</time></trkpt><trkpt lat="45.327560186930256" lon="9.19018849479318"><ele>89.25</ele><time>2026-03-22T13:31:34Z</time></trkpt><trkpt lat="45.3276868829888" lon="9.19024733984714"><ele>89.0</ele><time>2026-03-22T13:31:35Z</time></trkpt><trkpt lat="45.32780433409295" lon="9.190350168743912"><ele>89.0</ele><time>2026-03-22T13:31:36Z</time></trkpt><trkpt lat="45.3279413163299" lon="9.190448616317536"><ele>89.0</ele><time>2026-03-22T13:31:37Z</time></trkpt><trkpt lat="45.3280771790769" lon="9.190539440308106"><ele>89.0</ele><time>2026-03-22T13:31:38Z</time></trkpt><trkpt lat="45.32821718834921" lon="9.190637291523254"><ele>89.75</ele><time>2026-03-22T13:31:39Z</time></trkpt><trkpt lat="45.328350668177485" lon="9.190732304631414"><ele>90.5</ele><time>2026-03-22T13:31:40Z</time></trkpt><trkpt lat="45.32848129118447" lon="9.190823668425356"><ele>91.25</ele><time>2026-03-22T13:31:41Z</time></trkpt><trkpt lat="45.328608289887214" lon="9.190910199224737"><ele>92.0</ele><time>2026-03-22T13:31:42Z</time></trkpt><trkpt lat="45.328736851039956" lon="9.190996508779355"><ele>92.0</ele><time>2026-03-22T13:31:43Z</time></trkpt><trkpt lat="45.32885783110673" lon="9.191079101007956"><ele>92.0</ele><time>2026-03-22T13:31:44Z</time></trkpt><trkpt lat="45.32897376621498" lon="9.191157472282322"><ele>92.0</ele><time>2026-03-22T13:31:45Z</time></trkpt><trkpt lat="45.32907278688491" lon="9.191238754121118"><ele>92.0</ele><time>2026-03-22T13:31:46Z</time></trkpt><trkpt lat="45.32915196161824" lon="9.191337401760736"><ele>91.83333333333334</ele><time>2026-03-22T13:31:47Z</time></trkpt><trkpt lat="45.32920414060794" lon="9.191431478075915"><ele>91.66666666666667</ele><time>2026-03-22T13:31:48Z</time></trkpt><trkpt lat="45.32923821254965" lon="9.191509565291998"><ele>91.5</ele><time>2026-03-22T13:31:49Z</time></trkpt><trkpt lat="45.329267849286786" lon="9.191595975766598"><ele>91.33333333333333</ele><time>2026-03-22T13:31:52Z</time></trkpt><trkpt lat="45.3293045720208" lon="9.191689268731889"><ele>91.16666666666666</ele><time>2026-03-22T13:31:54Z</time></trkpt><trkpt lat="45.32934484988051" lon="9.191800840186996"><ele>91.0</ele><time>2026-03-22T13:31:55Z</time></trkpt><trkpt lat="45.32939126736746" lon="9.191943811093125"><ele>91.0</ele><time>2026-03-22T13:31:56Z</time></trkpt><trkpt lat="45.329452944704194" lon="9.192089590688044"><ele>91.0</ele><time>2026-03-22T13:31:57Z</time></trkpt><trkpt lat="45.32954583960952" lon="9.192183849629128"><ele>91.0</ele><time>2026-03-22T13:31:58Z</time></trkpt><trkpt lat="45.32965344421681" lon="9.192231024247523"><ele>91.0</ele><time>2026-03-22T13:31:59Z</time></trkpt><trkpt lat="45.32976600399673" lon="9.192232242814278"><ele>91.0</ele><time>2026-03-22T13:32:00Z</time></trkpt><trkpt lat="45.32986029034051" lon="9.19219515658259"><ele>91.0</ele><time>2026-03-22T13:32:01Z</time></trkpt><trkpt lat="45.329944025672695" lon="9.192134697476986"><ele>91.0</ele><time>2026-03-22T13:32:02Z</time></trkpt><trkpt lat="45.329996724302966" lon="9.192038226654136"><ele>91.0</ele><time>2026-03-22T13:32:03Z</time></trkpt><trkpt lat="45.33004657758856" lon="9.191938611447476"><ele>91.0</ele><time>2026-03-22T13:32:04Z</time></trkpt><trkpt lat="45.33008247043722" lon="9.191821197629721"><ele>91.0</ele><time>2026-03-22T13:32:05Z</time></trkpt><trkpt lat="45.3300983977837" lon="9.191696029568112"><ele>91.0</ele><time>2026-03-22T13:32:06Z</time></trkpt><trkpt lat="45.33009648166475" lon="9.191562334051385"><ele>91.0</ele><time>2026-03-22T13:32:07Z</time></trkpt><trkpt lat="45.33009598829272" lon="9.191415763454735"><ele>91.0</ele><time>2026-03-22T13:32:08Z</time></trkpt><trkpt lat="45.33010685886942" lon="9.191289004262035"><ele>91.0</ele><time>2026-03-22T13:32:09Z</time></trkpt><trkpt lat="45.330123465298996" lon="9.191160462983257"><ele>91.0</ele><time>2026-03-22T13:32:10Z</time></trkpt><trkpt lat="45.33015135556212" lon="9.191022151932355"><ele>91.0</ele><time>2026-03-22T13:32:11Z</time></trkpt><trkpt lat="45.33018324191099" lon="9.190884300719551"><ele>91.0</ele><time>2026-03-22T13:32:12Z</time></trkpt><trkpt lat="45.33022973617962" lon="9.190738539075179"><ele>91.0</ele><time>2026-03-22T13:32:13Z</time></trkpt><trkpt lat="45.33027202558921" lon="9.190590935759072"><ele>91.0</ele><time>2026-03-22T13:32:14Z</time></trkpt><trkpt lat="45.33035282941384" lon="9.190433591959684"><ele>91.0</ele><time>2026-03-22T13:32:15Z</time></trkpt><trkpt lat="45.33041483609815" lon="9.190217604382216"><ele>91.0</ele><time>2026-03-22T13:32:16Z</time></trkpt><trkpt lat="45.33048934732317" lon="9.189952614971126"><ele>91.0</ele><time>2026-03-22T13:32:17Z</time></trkpt><trkpt lat="45.33055455166886" lon="9.189668216351562"><ele>90.66666666666666</ele><time>2026-03-22T13:32:18Z</time></trkpt><trkpt lat="45.33059064035413" lon="9.189362101752176"><ele>90.33333333333333</ele><time>2026-03-22T13:32:19Z</time></trkpt><trkpt lat="45.33060673030096" lon="9.189044535371039"><ele>90.0</ele><time>2026-03-22T13:32:20Z</time></trkpt><trkpt lat="45.33060429948736" lon="9.188746152741192"><ele>90.0</ele><time>2026-03-22T13:32:21Z</time></trkpt><trkpt lat="45.33059142827817" lon="9.18845166312439"><ele>90.0</ele><time>2026-03-22T13:32:22Z</time></trkpt><trkpt lat="45.33057532153746" lon="9.188164430522093"><ele>90.0</ele><time>2026-03-22T13:32:23Z</time></trkpt><trkpt lat="45.330557440862584" lon="9.187880218740611"><ele>90.0</ele><time>2026-03-22T13:32:24Z</time></trkpt><trkpt lat="45.33054126479194" lon="9.187599781770666"><ele>90.0</ele><time>2026-03-22T13:32:25Z</time></trkpt><trkpt lat="45.33052459328288" lon="9.187324220032558"><ele>90.0</ele><time>2026-03-22T13:32:26Z</time></trkpt><trkpt lat="45.33050866614511" lon="9.1870455340187"><ele>89.66666666666667</ele><time>2026-03-22T13:32:27Z</time></trkpt><trkpt lat="45.33049088975733" lon="9.186765318343337"><ele>89.33333333333334</ele><time>2026-03-22T13:32:28Z</time></trkpt><trkpt lat="45.33047202559987" lon="9.186490146450623"><ele>89.0</ele><time>2026-03-22T13:32:29Z</time></trkpt><trkpt lat="45.330451555916646" lon="9.18621600025931"><ele>89.0</ele><time>2026-03-22T13:32:30Z</time></trkpt><trkpt lat="45.33043509726484" lon="9.185947917417973"><ele>89.0</ele><time>2026-03-22T13:32:31Z</time></trkpt><trkpt lat="45.33042160299156" lon="9.185683228087136"><ele>89.0</ele><time>2026-03-22T13:32:32Z</time></trkpt><trkpt lat="45.33040765646485" lon="9.185417830406944"><ele>89.33333333333334</ele><time>2026-03-22T13:32:33Z</time></trkpt><trkpt lat="45.33038957622197" lon="9.185151123151869"><ele>89.66666666666667</ele><time>2026-03-22T13:32:34Z</time></trkpt><trkpt lat="45.33037332915862" lon="9.18488739559247"><ele>90.0</ele><time>2026-03-22T13:32:35Z</time></trkpt><trkpt lat="45.330360490119716" lon="9.184631839358957"><ele>90.33333333333333</ele><time>2026-03-22T13:32:36Z</time></trkpt><trkpt lat="45.33034555415892" lon="9.184373387974773"><ele>90.66666666666666</ele><time>2026-03-22T13:32:37Z</time></trkpt><trkpt lat="45.33032950414101" lon="9.184112025573791"><ele>91.0</ele><time>2026-03-22T13:32:38Z</time></trkpt><trkpt lat="45.33031536496466" lon="9.183849164058731"><ele>91.0</ele><time>2026-03-22T13:32:39Z</time></trkpt><trkpt lat="45.33030037142725" lon="9.183585763776934"><ele>91.0</ele><time>2026-03-22T13:32:40Z</time></trkpt><trkpt lat="45.33028508588407" lon="9.183326195664199"><ele>91.0</ele><time>2026-03-22T13:32:41Z</time></trkpt><trkpt lat="45.33027146716067" lon="9.183067452271722"><ele>91.33333333333333</ele><time>2026-03-22T13:32:42Z</time></trkpt><trkpt lat="45.33025574009535" lon="9.18281344893756"><ele>91.66666666666667</ele><time>2026-03-22T13:32:43Z</time></trkpt><trkpt lat="45.33024101233414" lon="9.182574156880243"><ele>92.0</ele><time>2026-03-22T13:32:44Z</time></trkpt><trkpt lat="45.33022707848157" lon="9.182349501753261"><ele>92.66666666666667</ele><time>2026-03-22T13:32:45Z</time></trkpt><trkpt lat="45.33021364342048" lon="9.182128730262622"><ele>93.33333333333333</ele><time>2026-03-22T13:32:46Z</time></trkpt><trkpt lat="45.33020176130908" lon="9.18191152810876"><ele>94.0</ele><time>2026-03-22T13:32:47Z</time></trkpt><trkpt lat="45.330188834379" lon="9.181690599272068"><ele>93.66666666666666</ele><time>2026-03-22T13:32:48Z</time></trkpt><trkpt lat="45.33017246708604" lon="9.181462890957366"><ele>93.33333333333333</ele><time>2026-03-22T13:32:49Z</time></trkpt><trkpt lat="45.33015788299835" lon="9.181230677106274"><ele>93.0</ele><time>2026-03-22T13:32:50Z</time></trkpt><trkpt lat="45.33014295651733" lon="9.180993661912936"><ele>93.0</ele><time>2026-03-22T13:32:51Z</time></trkpt><trkpt lat="45.330123842003964" lon="9.180741267260544"><ele>93.0</ele><time>2026-03-22T13:32:52Z</time></trkpt><trkpt lat="45.330100287252634" lon="9.180474823728474"><ele>93.0</ele><time>2026-03-22T13:32:53Z</time></trkpt><trkpt lat="45.330083007053474" lon="9.180199411644372"><ele>92.66666666666667</ele><time>2026-03-22T13:32:54Z</time></trkpt><trkpt lat="45.3300687134056" lon="9.179920662093682"><ele>92.33333333333334</ele><time>2026-03-22T13:32:55Z</time></trkpt><trkpt lat="45.330056435778324" lon="9.179646457145983"><ele>92.0</ele><time>2026-03-22T13:32:56Z</time></trkpt><trkpt lat="45.33003882063708" lon="9.17937053746855"><ele>92.0</ele><time>2026-03-22T13:32:57Z</time></trkpt><trkpt lat="45.330021457567966" lon="9.179071855511506"><ele>92.0</ele><time>2026-03-22T13:32:58Z</time></trkpt><trkpt lat="45.32999233423786" lon="9.178750412943666"><ele>92.0</ele><time>2026-03-22T13:32:59Z</time></trkpt><trkpt lat="45.329968303297385" lon="9.178396022355786"><ele>92.0</ele><time>2026-03-22T13:33:00Z</time></trkpt><trkpt lat="45.32994696028424" lon="9.17802347504911"><ele>92.0</ele><time>2026-03-22T13:33:01Z</time></trkpt><trkpt lat="45.32992157709019" lon="9.177636787744136"><ele>91.0</ele><time>2026-03-22T13:33:02Z</time></trkpt><trkpt lat="45.32989475589047" lon="9.177228876726975"><ele>90.0</ele><time>2026-03-22T13:33:03Z</time></trkpt><trkpt lat="45.32987348354605" lon="9.17682333408202"><ele>90.0</ele><time>2026-03-22T13:33:04Z</time></trkpt><trkpt lat="45.329855177177286" lon="9.176432396696407"><ele>90.0</ele><time>2026-03-22T13:33:05Z</time></trkpt><trkpt lat="45.329846672470666" lon="9.176055189815681"><ele>90.0</ele><time>2026-03-22T13:33:06Z</time></trkpt><trkpt lat="45.32983498288521" lon="9.175695396045874"><ele>90.0</ele><time>2026-03-22T13:33:07Z</time></trkpt><trkpt lat="45.329821444140514" lon="9.17535249006295"><ele>89.0</ele><time>2026-03-22T13:33:08Z</time></trkpt><trkpt lat="45.3298042254668" lon="9.175025706747146"><ele>88.0</ele><time>2026-03-22T13:33:09Z</time></trkpt><trkpt lat="45.32978527001122" lon="9.17471061654953"><ele>88.0</ele><time>2026-03-22T13:33:10Z</time></trkpt><trkpt lat="45.32976932034652" lon="9.174411011084114"><ele>88.0</ele><time>2026-03-22T13:33:11Z</time></trkpt><trkpt lat="45.32975267563911" lon="9.174117320038466"><ele>88.0</ele><time>2026-03-22T13:33:12Z</time></trkpt><trkpt lat="45.32973459600223" lon="9.173828610093834"><ele>89.0</ele><time>2026-03-22T13:33:13Z</time></trkpt><trkpt lat="45.32971538937575" lon="9.173540562946814"><ele>90.0</ele><time>2026-03-22T13:33:14Z</time></trkpt><trkpt lat="45.32969597493772" lon="9.173260918056437"><ele>91.0</ele><time>2026-03-22T13:33:15Z</time></trkpt><trkpt lat="45.32967603185502" lon="9.172977152747345"><ele>91.33333333333333</ele><time>2026-03-22T13:33:16Z</time></trkpt><trkpt lat="45.32966184231987" lon="9.172706150539998"><ele>91.66666666666667</ele><time>2026-03-22T13:33:17Z</time></trkpt><trkpt lat="45.329645907770285" lon="9.17244058362757"><ele>92.0</ele><time>2026-03-22T13:33:18Z</time></trkpt><trkpt lat="45.32963125004972" lon="9.172180078599418"><ele>92.33333333333334</ele><time>2026-03-22T13:33:19Z</time></trkpt><trkpt lat="45.32961819449797" lon="9.171931195839162"><ele>92.66666666666667</ele><time>2026-03-22T13:33:20Z</time></trkpt><trkpt lat="45.329604847771066" lon="9.171683458995417"><ele>93.0</ele><time>2026-03-22T13:33:21Z</time></trkpt><trkpt lat="45.329592624190695" lon="9.171448812376003"><ele>93.0</ele><time>2026-03-22T13:33:22Z</time></trkpt><trkpt lat="45.32957877363401" lon="9.171213600038131"><ele>93.0</ele><time>2026-03-22T13:33:23Z</time></trkpt><trkpt lat="45.329562085804724" lon="9.170978365856532"><ele>93.0</ele><time>2026-03-22T13:33:24Z</time></trkpt><trkpt lat="45.329550260699094" lon="9.170751779279941"><ele>93.66666666666667</ele><time>2026-03-22T13:33:25Z</time></trkpt><trkpt lat="45.32953698890121" lon="9.170526135864742"><ele>94.33333333333334</ele><time>2026-03-22T13:33:26Z</time></trkpt><trkpt lat="45.32952752036835" lon="9.170312866375419"><ele>95.0</ele><time>2026-03-22T13:33:27Z</time></trkpt><trkpt lat="45.329513190767905" lon="9.170102464475352"><ele>95.0</ele><time>2026-03-22T13:33:28Z</time></trkpt><trkpt lat="45.32950009951835" lon="9.169898182562113"><ele>95.0</ele><time>2026-03-22T13:33:29Z</time></trkpt><trkpt lat="45.32948677180749" lon="9.169694548582184"><ele>95.0</ele><time>2026-03-22T13:33:30Z</time></trkpt><trkpt lat="45.32947613393504" lon="9.169488951499474"><ele>95.0</ele><time>2026-03-22T13:33:31Z</time></trkpt><trkpt lat="45.3294680152445" lon="9.169291728232988"><ele>95.0</ele><time>2026-03-22T13:33:32Z</time></trkpt><trkpt lat="45.329453746677544" lon="9.169094103339397"><ele>95.0</ele><time>2026-03-22T13:33:33Z</time></trkpt><trkpt lat="45.32944155894453" lon="9.168895991241692"><ele>95.0</ele><time>2026-03-22T13:33:34Z</time></trkpt><trkpt lat="45.329433930305065" lon="9.168706466101824"><ele>95.0</ele><time>2026-03-22T13:33:35Z</time></trkpt><trkpt lat="45.32942319882876" lon="9.168524703257185"><ele>95.0</ele><time>2026-03-22T13:33:36Z</time></trkpt><trkpt lat="45.3294120847258" lon="9.168340429123006"><ele>95.0</ele><time>2026-03-22T13:33:37Z</time></trkpt><trkpt lat="45.32939992123768" lon="9.168135735666109"><ele>95.0</ele><time>2026-03-22T13:33:38Z</time></trkpt><trkpt lat="45.329380481699395" lon="9.167908049324799"><ele>95.0</ele><time>2026-03-22T13:33:39Z</time></trkpt><trkpt lat="45.3293591814387" lon="9.167668095813923"><ele>95.0</ele><time>2026-03-22T13:33:40Z</time></trkpt><trkpt lat="45.32932948060289" lon="9.167391247751725"><ele>95.0</ele><time>2026-03-22T13:33:41Z</time></trkpt><trkpt lat="45.329311325195754" lon="9.16711372986371"><ele>95.0</ele><time>2026-03-22T13:33:42Z</time></trkpt><trkpt lat="45.3292938695793" lon="9.16686700973587"><ele>94.75</ele><time>2026-03-22T13:33:43Z</time></trkpt><trkpt lat="45.32928716240782" lon="9.166639152959045"><ele>94.5</ele><time>2026-03-22T13:33:44Z</time></trkpt><trkpt lat="45.329276699101065" lon="9.166432219762354"><ele>94.25</ele><time>2026-03-22T13:33:45Z</time></trkpt><trkpt lat="45.329269776105406" lon="9.166239306793353"><ele>94.0</ele><time>2026-03-22T13:33:46Z</time></trkpt><trkpt lat="45.3292574409687" lon="9.166017811128125"><ele>94.0</ele><time>2026-03-22T13:33:47Z</time></trkpt><trkpt lat="45.329233353350034" lon="9.165749787027183"><ele>94.0</ele><time>2026-03-22T13:33:48Z</time></trkpt><trkpt lat="45.3292116847968" lon="9.165444965374647"><ele>94.0</ele><time>2026-03-22T13:33:49Z</time></trkpt><trkpt lat="45.329191527994254" lon="9.165117929364845"><ele>94.0</ele><time>2026-03-22T13:33:50Z</time></trkpt><trkpt lat="45.329181250667816" lon="9.16483493474942"><ele>94.0</ele><time>2026-03-22T13:33:51Z</time></trkpt><trkpt lat="45.32917148332278" lon="9.164578475394089"><ele>94.0</ele><time>2026-03-22T13:33:52Z</time></trkpt><trkpt lat="45.3291576675431" lon="9.164338586826315"><ele>94.0</ele><time>2026-03-22T13:33:53Z</time></trkpt><trkpt lat="45.32914231659031" lon="9.164094568989443"><ele>94.0</ele><time>2026-03-22T13:33:54Z</time></trkpt><trkpt lat="45.32912424332553" lon="9.163833171573021"><ele>94.0</ele><time>2026-03-22T13:33:55Z</time></trkpt><trkpt lat="45.32910143352308" lon="9.163541331723266"><ele>93.5</ele><time>2026-03-22T13:33:56Z</time></trkpt><trkpt lat="45.329067729599544" lon="9.163201594820457"><ele>93.0</ele><time>2026-03-22T13:33:57Z</time></trkpt><trkpt lat="45.3290509281615" lon="9.16285792144966"><ele>93.0</ele><time>2026-03-22T13:33:58Z</time></trkpt><trkpt lat="45.329040239795646" lon="9.162527040547026"><ele>93.0</ele><time>2026-03-22T13:33:59Z</time></trkpt><trkpt lat="45.32902344259526" lon="9.162195327276146"><ele>93.5</ele><time>2026-03-22T13:34:00Z</time></trkpt><trkpt lat="45.32900763272214" lon="9.161864959989655"><ele>94.0</ele><time>2026-03-22T13:34:01Z</time></trkpt><trkpt lat="45.3289924502873" lon="9.161550283949609"><ele>94.33333333333333</ele><time>2026-03-22T13:34:02Z</time></trkpt><trkpt lat="45.328968024918446" lon="9.161237947101013"><ele>94.66666666666667</ele><time>2026-03-22T13:34:03Z</time></trkpt><trkpt lat="45.32895100438489" lon="9.16094792833331"><ele>95.0</ele><time>2026-03-22T13:34:04Z</time></trkpt><trkpt lat="45.32893228364549" lon="9.160676327843234"><ele>95.0</ele><time>2026-03-22T13:34:05Z</time></trkpt><trkpt lat="45.32891104324878" lon="9.160404141693004"><ele>95.0</ele><time>2026-03-22T13:34:06Z</time></trkpt><trkpt lat="45.32889324277333" lon="9.160143863595161"><ele>95.0</ele><time>2026-03-22T13:34:07Z</time></trkpt><trkpt lat="45.32887726305359" lon="9.159888693155736"><ele>93.33333333333334</ele><time>2026-03-22T13:34:08Z</time></trkpt><trkpt lat="45.328862466677506" lon="9.159638001948426"><ele>91.66666666666667</ele><time>2026-03-22T13:34:09Z</time></trkpt><trkpt lat="45.32885056591698" lon="9.159386076433512"><ele>90.0</ele><time>2026-03-22T13:34:10Z</time></trkpt><trkpt lat="45.32882809954108" lon="9.159116626133613"><ele>90.33333333333333</ele><time>2026-03-22T13:34:11Z</time></trkpt><trkpt lat="45.328801422671376" lon="9.15880798817493"><ele>90.66666666666666</ele><time>2026-03-22T13:34:12Z</time></trkpt><trkpt lat="45.328786784378465" lon="9.15848061605587"><ele>91.0</ele><time>2026-03-22T13:34:13Z</time></trkpt><trkpt lat="45.32877703387831" lon="9.158135989088041"><ele>91.0</ele><time>2026-03-22T13:34:14Z</time></trkpt><trkpt lat="45.32876956818213" lon="9.157774279092408"><ele>91.0</ele><time>2026-03-22T13:34:15Z</time></trkpt><trkpt lat="45.328752663613244" lon="9.157402883729288"><ele>92.5</ele><time>2026-03-22T13:34:16Z</time></trkpt><trkpt lat="45.328731054737496" lon="9.157028311391954"><ele>94.0</ele><time>2026-03-22T13:34:17Z</time></trkpt><trkpt lat="45.32871113942657" lon="9.156655771560459"><ele>94.5</ele><time>2026-03-22T13:34:18Z</time></trkpt><trkpt lat="45.32868812859746" lon="9.15628385772718"><ele>95.0</ele><time>2026-03-22T13:34:19Z</time></trkpt><trkpt lat="45.3286680681174" lon="9.155919666507899"><ele>94.5</ele><time>2026-03-22T13:34:20Z</time></trkpt><trkpt lat="45.3286476215748" lon="9.155560829215387"><ele>94.0</ele><time>2026-03-22T13:34:21Z</time></trkpt><trkpt lat="45.32862713677635" lon="9.155207241003545"><ele>93.5</ele><time>2026-03-22T13:34:22Z</time></trkpt><trkpt lat="45.32860796057363" lon="9.154858205819387"><ele>93.0</ele><time>2026-03-22T13:34:23Z</time></trkpt><trkpt lat="45.328585289063454" lon="9.154509089138738"><ele>93.0</ele><time>2026-03-22T13:34:24Z</time></trkpt><trkpt lat="45.3285618972781" lon="9.154161455077224"><ele>93.0</ele><time>2026-03-22T13:34:25Z</time></trkpt><trkpt lat="45.32853962075069" lon="9.153815326238062"><ele>92.0</ele><time>2026-03-22T13:34:26Z</time></trkpt><trkpt lat="45.32852237088972" lon="9.153480409314252"><ele>91.0</ele><time>2026-03-22T13:34:27Z</time></trkpt><trkpt lat="45.32850193352852" lon="9.153143809594923"><ele>91.0</ele><time>2026-03-22T13:34:28Z</time></trkpt><trkpt lat="45.328480891945105" lon="9.152814110276136"><ele>91.0</ele><time>2026-03-22T13:34:29Z</time></trkpt><trkpt lat="45.3284619098873" lon="9.152484268778908"><ele>90.5</ele><time>2026-03-22T13:34:30Z</time></trkpt><trkpt lat="45.32843811671526" lon="9.152155380250546"><ele>90.0</ele><time>2026-03-22T13:34:31Z</time></trkpt><trkpt lat="45.32842195757776" lon="9.15183566702319"><ele>90.0</ele><time>2026-03-22T13:34:32Z</time></trkpt><trkpt lat="45.32840185464893" lon="9.151508033482786"><ele>90.0</ele><time>2026-03-22T13:34:33Z</time></trkpt><trkpt lat="45.32838620272812" lon="9.151187624151692"><ele>90.0</ele><time>2026-03-22T13:34:34Z</time></trkpt><trkpt lat="45.32836613518242" lon="9.15085989819271"><ele>90.0</ele><time>2026-03-22T13:34:35Z</time></trkpt><trkpt lat="45.32834450536217" lon="9.150529498985218"><ele>90.0</ele><time>2026-03-22T13:34:36Z</time></trkpt><trkpt lat="45.32832602705245" lon="9.150205368119295"><ele>90.0</ele><time>2026-03-22T13:34:37Z</time></trkpt><trkpt lat="45.32830623726089" lon="9.149876468426303"><ele>90.5</ele><time>2026-03-22T13:34:38Z</time></trkpt><trkpt lat="45.32828868841891" lon="9.149550848692943"><ele>91.0</ele><time>2026-03-22T13:34:39Z</time></trkpt><trkpt lat="45.328271140775946" lon="9.149229691143477"><ele>91.0</ele><time>2026-03-22T13:34:40Z</time></trkpt><trkpt lat="45.32825285986407" lon="9.148906990654073"><ele>91.0</ele><time>2026-03-22T13:34:41Z</time></trkpt><trkpt lat="45.32823485521378" lon="9.148584945878746"><ele>91.0</ele><time>2026-03-22T13:34:42Z</time></trkpt><trkpt lat="45.32822031855865" lon="9.148269608676419"><ele>91.0</ele><time>2026-03-22T13:34:43Z</time></trkpt><trkpt lat="45.32819951375026" lon="9.14795482155232"><ele>91.0</ele><time>2026-03-22T13:34:44Z</time></trkpt><trkpt lat="45.328178216533345" lon="9.14764020797509"><ele>91.33333333333333</ele><time>2026-03-22T13:34:45Z</time></trkpt><trkpt lat="45.32816135934268" lon="9.147335765223021"><ele>91.66666666666667</ele><time>2026-03-22T13:34:46Z</time></trkpt><trkpt lat="45.328142986653944" lon="9.14703426299039"><ele>92.0</ele><time>2026-03-22T13:34:47Z</time></trkpt><trkpt lat="45.32812756579958" lon="9.14673389934855"><ele>92.0</ele><time>2026-03-22T13:34:48Z</time></trkpt><trkpt lat="45.32811051769475" lon="9.146434477981519"><ele>92.0</ele><time>2026-03-22T13:34:49Z</time></trkpt><trkpt lat="45.32809571691522" lon="9.146132493012907"><ele>92.0</ele><time>2026-03-22T13:34:50Z</time></trkpt><trkpt lat="45.32807661733589" lon="9.145831187292215"><ele>91.66666666666667</ele><time>2026-03-22T13:34:51Z</time></trkpt><trkpt lat="45.328057625711004" lon="9.14552690644225"><ele>91.33333333333333</ele><time>2026-03-22T13:34:52Z</time></trkpt><trkpt lat="45.32803582634958" lon="9.145221105669185"><ele>91.0</ele><time>2026-03-22T13:34:53Z</time></trkpt><trkpt lat="45.328013594339495" lon="9.144920716605437"><ele>91.66666666666666</ele><time>2026-03-22T13:34:54Z</time></trkpt><trkpt lat="45.32799596051415" lon="9.144625181325578"><ele>92.33333333333333</ele><time>2026-03-22T13:34:55Z</time></trkpt><trkpt lat="45.32798061395794" lon="9.14433034865136"><ele>93.0</ele><time>2026-03-22T13:34:56Z</time></trkpt><trkpt lat="45.32796593255452" lon="9.144032250233492"><ele>93.0</ele><time>2026-03-22T13:34:57Z</time></trkpt><trkpt lat="45.327949404625265" lon="9.143730223054336"><ele>93.0</ele><time>2026-03-22T13:34:58Z</time></trkpt><trkpt lat="45.327931454777485" lon="9.143428324448392"><ele>93.0</ele><time>2026-03-22T13:34:59Z</time></trkpt><trkpt lat="45.32790998453032" lon="9.14312560325897"><ele>93.0</ele><time>2026-03-22T13:35:00Z</time></trkpt><trkpt lat="45.32789353164753" lon="9.142833302024835"><ele>93.0</ele><time>2026-03-22T13:35:01Z</time></trkpt><trkpt lat="45.32787299065566" lon="9.14253616285041"><ele>93.0</ele><time>2026-03-22T13:35:02Z</time></trkpt><trkpt lat="45.32785418370191" lon="9.142243723638042"><ele>93.0</ele><time>2026-03-22T13:35:03Z</time></trkpt><trkpt lat="45.32783576394559" lon="9.14195141948796"><ele>93.0</ele><time>2026-03-22T13:35:04Z</time></trkpt><trkpt lat="45.32781248897193" lon="9.141658624853138"><ele>93.0</ele><time>2026-03-22T13:35:05Z</time></trkpt><trkpt lat="45.32779045409116" lon="9.14136409916291"><ele>93.33333333333333</ele><time>2026-03-22T13:35:06Z</time></trkpt><trkpt lat="45.327777252002925" lon="9.141080358996417"><ele>93.66666666666666</ele><time>2026-03-22T13:35:07Z</time></trkpt><trkpt lat="45.32775884667528" lon="9.140795048817335"><ele>94.0</ele><time>2026-03-22T13:35:08Z</time></trkpt><trkpt lat="45.32773977839417" lon="9.140509700721829"><ele>94.0</ele><time>2026-03-22T13:35:09Z</time></trkpt><trkpt lat="45.327720570338776" lon="9.140226718560353"><ele>94.0</ele><time>2026-03-22T13:35:10Z</time></trkpt><trkpt lat="45.327699212552965" lon="9.139947495457614"><ele>94.0</ele><time>2026-03-22T13:35:11Z</time></trkpt><trkpt lat="45.32768315329331" lon="9.13966332624019"><ele>94.0</ele><time>2026-03-22T13:35:12Z</time></trkpt><trkpt lat="45.32766160752543" lon="9.139376249209386"><ele>94.0</ele><time>2026-03-22T13:35:13Z</time></trkpt><trkpt lat="45.32764447273905" lon="9.139096274540995"><ele>94.0</ele><time>2026-03-22T13:35:14Z</time></trkpt><trkpt lat="45.32762883780106" lon="9.138820580853766"><ele>94.0</ele><time>2026-03-22T13:35:15Z</time></trkpt><trkpt lat="45.3276160727634" lon="9.138543146196273"><ele>94.0</ele><time>2026-03-22T13:35:16Z</time></trkpt><trkpt lat="45.327605711936556" lon="9.138253132189062"><ele>94.0</ele><time>2026-03-22T13:35:17Z</time></trkpt><trkpt lat="45.32759183587837" lon="9.137978124767397"><ele>93.66666666666666</ele><time>2026-03-22T13:35:18Z</time></trkpt><trkpt lat="45.327577521270555" lon="9.137722001384995"><ele>93.33333333333333</ele><time>2026-03-22T13:35:19Z</time></trkpt><trkpt lat="45.32756861210439" lon="9.137482017161703"><ele>93.0</ele><time>2026-03-22T13:35:20Z</time></trkpt><trkpt lat="45.327556033350966" lon="9.13725316956327"><ele>93.0</ele><time>2026-03-22T13:35:21Z</time></trkpt><trkpt lat="45.327544054036316" lon="9.137030866371198"><ele>93.0</ele><time>2026-03-22T13:35:22Z</time></trkpt><trkpt lat="45.327540254962045" lon="9.136829368119523"><ele>93.0</ele><time>2026-03-22T13:35:23Z</time></trkpt><trkpt lat="45.32754381725682" lon="9.136647594565897"><ele>93.0</ele><time>2026-03-22T13:35:24Z</time></trkpt><trkpt lat="45.32754820655225" lon="9.136485454254004"><ele>93.4</ele><time>2026-03-22T13:35:25Z</time></trkpt><trkpt lat="45.3275536006006" lon="9.136343367395314"><ele>93.80000000000001</ele><time>2026-03-22T13:35:26Z</time></trkpt><trkpt lat="45.32755776047759" lon="9.13621615298167"><ele>94.2</ele><time>2026-03-22T13:35:27Z</time></trkpt><trkpt lat="45.32756401756552" lon="9.136063870473494"><ele>94.6</ele><time>2026-03-22T13:35:29Z</time></trkpt><trkpt lat="45.32756152651922" lon="9.13595689306989"><ele>95.0</ele><time>2026-03-22T13:35:31Z</time></trkpt><trkpt lat="45.3275916567938" lon="9.13585518966876"><ele>95.0</ele><time>2026-03-22T13:35:32Z</time></trkpt><trkpt lat="45.32764089696101" lon="9.135745151077034"><ele>95.0</ele><time>2026-03-22T13:35:33Z</time></trkpt><trkpt lat="45.32767047062087" lon="9.13561311094829"><ele>95.0</ele><time>2026-03-22T13:35:34Z</time></trkpt><trkpt lat="45.32765930792391" lon="9.135459235731632"><ele>95.0</ele><time>2026-03-22T13:35:35Z</time></trkpt><trkpt lat="45.32760078664943" lon="9.135272434174004"><ele>95.0</ele><time>2026-03-22T13:35:36Z</time></trkpt><trkpt lat="45.327525199007326" lon="9.135121782112678"><ele>95.0</ele><time>2026-03-22T13:35:37Z</time></trkpt><trkpt lat="45.327464339037576" lon="9.134965648057682"><ele>95.0</ele><time>2026-03-22T13:35:38Z</time></trkpt><trkpt lat="45.32741984844179" lon="9.134759947816695"><ele>95.0</ele><time>2026-03-22T13:35:39Z</time></trkpt><trkpt lat="45.3273926594315" lon="9.13451000763442"><ele>95.5</ele><time>2026-03-22T13:35:40Z</time></trkpt><trkpt lat="45.32739127659401" lon="9.134201675203906"><ele>96.0</ele><time>2026-03-22T13:35:41Z</time></trkpt><trkpt lat="45.32734068967284" lon="9.133858129847523"><ele>96.0</ele><time>2026-03-22T13:35:42Z</time></trkpt><trkpt lat="45.327364762643306" lon="9.133483799940718"><ele>96.0</ele><time>2026-03-22T13:35:43Z</time></trkpt><trkpt lat="45.327418188258285" lon="9.133106065453992"><ele>96.0</ele><time>2026-03-22T13:35:44Z</time></trkpt><trkpt lat="45.3275047444356" lon="9.132725075137987"><ele>96.0</ele><time>2026-03-22T13:35:45Z</time></trkpt><trkpt lat="45.32761027671661" lon="9.132362920421304"><ele>96.5</ele><time>2026-03-22T13:35:46Z</time></trkpt><trkpt lat="45.32772185783845" lon="9.132022032565557"><ele>97.0</ele><time>2026-03-22T13:35:47Z</time></trkpt><trkpt lat="45.32789239946017" lon="9.13172613470366"><ele>96.5</ele><time>2026-03-22T13:35:48Z</time></trkpt><trkpt lat="45.32799154334927" lon="9.131396902508321"><ele>96.0</ele><time>2026-03-22T13:35:49Z</time></trkpt><trkpt lat="45.32808811316378" lon="9.13107349120924"><ele>96.0</ele><time>2026-03-22T13:35:50Z</time></trkpt><trkpt lat="45.328181729105864" lon="9.13075681164289"><ele>96.0</ele><time>2026-03-22T13:35:51Z</time></trkpt><trkpt lat="45.32821524011667" lon="9.130414506304403"><ele>95.5</ele><time>2026-03-22T13:35:52Z</time></trkpt><trkpt lat="45.32831017276325" lon="9.130113043384734"><ele>95.0</ele><time>2026-03-22T13:35:53Z</time></trkpt><trkpt lat="45.3284052242016" lon="9.12981280896511"><ele>95.0</ele><time>2026-03-22T13:35:54Z</time></trkpt><trkpt lat="45.32850026317275" lon="9.129512123175733"><ele>95.0</ele><time>2026-03-22T13:35:55Z</time></trkpt><trkpt lat="45.3285958410535" lon="9.12920913441614"><ele>94.5</ele><time>2026-03-22T13:35:56Z</time></trkpt><trkpt lat="45.32869405029633" lon="9.12889950254625"><ele>94.0</ele><time>2026-03-22T13:35:57Z</time></trkpt><trkpt lat="45.3287937425704" lon="9.128586512606864"><ele>95.0</ele><time>2026-03-22T13:35:58Z</time></trkpt><trkpt lat="45.32889456407641" lon="9.128273490743357"><ele>96.0</ele><time>2026-03-22T13:35:59Z</time></trkpt><trkpt lat="45.32899485441534" lon="9.127963419921107"><ele>96.0</ele><time>2026-03-22T13:36:00Z</time></trkpt><trkpt lat="45.32909600536312" lon="9.127649155162757"><ele>96.0</ele><time>2026-03-22T13:36:01Z</time></trkpt><trkpt lat="45.32919558875423" lon="9.127337750990907"><ele>95.0</ele><time>2026-03-22T13:36:02Z</time></trkpt><trkpt lat="45.329293576176575" lon="9.127027109127386"><ele>94.0</ele><time>2026-03-22T13:36:03Z</time></trkpt><trkpt lat="45.32939068965556" lon="9.126714860656579"><ele>95.0</ele><time>2026-03-22T13:36:04Z</time></trkpt><trkpt lat="45.329486349771884" lon="9.126408034195961"><ele>96.0</ele><time>2026-03-22T13:36:05Z</time></trkpt><trkpt lat="45.32958044009512" lon="9.126107316759036"><ele>96.0</ele><time>2026-03-22T13:36:06Z</time></trkpt><trkpt lat="45.32967517189139" lon="9.125804547695516"><ele>96.0</ele><time>2026-03-22T13:36:07Z</time></trkpt><trkpt lat="45.32976743652959" lon="9.125510197775341"><ele>96.0</ele><time>2026-03-22T13:36:08Z</time></trkpt><trkpt lat="45.32985930557761" lon="9.125217056863493"><ele>96.0</ele><time>2026-03-22T13:36:09Z</time></trkpt><trkpt lat="45.32994934026117" lon="9.124929769208531"><ele>96.0</ele><time>2026-03-22T13:36:10Z</time></trkpt><trkpt lat="45.33004052546239" lon="9.124639594394454"><ele>96.0</ele><time>2026-03-22T13:36:11Z</time></trkpt><trkpt lat="45.33012987054231" lon="9.124355380785904"><ele>96.0</ele><time>2026-03-22T13:36:12Z</time></trkpt><trkpt lat="45.33021765455683" lon="9.124075239548153"><ele>96.0</ele><time>2026-03-22T13:36:13Z</time></trkpt><trkpt lat="45.33030699964961" lon="9.123794610406016"><ele>96.0</ele><time>2026-03-22T13:36:14Z</time></trkpt><trkpt lat="45.33039636912819" lon="9.123509776447968"><ele>96.0</ele><time>2026-03-22T13:36:15Z</time></trkpt><trkpt lat="45.330485172453045" lon="9.123226979063675"><ele>96.0</ele><time>2026-03-22T13:36:16Z</time></trkpt><trkpt lat="45.33057586530549" lon="9.122941333578625"><ele>96.0</ele><time>2026-03-22T13:36:17Z</time></trkpt><trkpt lat="45.33066338106134" lon="9.122657007258173"><ele>96.0</ele><time>2026-03-22T13:36:18Z</time></trkpt><trkpt lat="45.33074962978792" lon="9.122370555834085"><ele>96.0</ele><time>2026-03-22T13:36:19Z</time></trkpt><trkpt lat="45.33083525869874" lon="9.12208116556445"><ele>96.0</ele><time>2026-03-22T13:36:20Z</time></trkpt><trkpt lat="45.330941198893186" lon="9.121801491160577"><ele>96.0</ele><time>2026-03-22T13:36:21Z</time></trkpt><trkpt lat="45.331034240576805" lon="9.12151886241057"><ele>96.0</ele><time>2026-03-22T13:36:22Z</time></trkpt><trkpt lat="45.331125700365774" lon="9.121232973352726"><ele>96.0</ele><time>2026-03-22T13:36:23Z</time></trkpt><trkpt lat="45.33122669393513" lon="9.120953925906738"><ele>96.0</ele><time>2026-03-22T13:36:24Z</time></trkpt><trkpt lat="45.33131030206762" lon="9.1206613483959"><ele>96.0</ele><time>2026-03-22T13:36:25Z</time></trkpt><trkpt lat="45.33139980886111" lon="9.12037695017273"><ele>96.0</ele><time>2026-03-22T13:36:26Z</time></trkpt><trkpt lat="45.33149196713448" lon="9.120089883346314"><ele>96.0</ele><time>2026-03-22T13:36:27Z</time></trkpt><trkpt lat="45.33158042515568" lon="9.119800253953903"><ele>96.0</ele><time>2026-03-22T13:36:28Z</time></trkpt><trkpt lat="45.331671647695096" lon="9.119518380231426"><ele>96.0</ele><time>2026-03-22T13:36:29Z</time></trkpt><trkpt lat="45.331758891073534" lon="9.11923721841994"><ele>96.0</ele><time>2026-03-22T13:36:30Z</time></trkpt><trkpt lat="45.33184434735288" lon="9.11896275765181"><ele>96.0</ele><time>2026-03-22T13:36:31Z</time></trkpt><trkpt lat="45.33192913932284" lon="9.118692533948911"><ele>95.66666666666667</ele><time>2026-03-22T13:36:32Z</time></trkpt><trkpt lat="45.33201470888233" lon="9.118429708357512"><ele>95.33333333333334</ele><time>2026-03-22T13:36:33Z</time></trkpt><trkpt lat="45.33208457509687" lon="9.118156551040776"><ele>95.0</ele><time>2026-03-22T13:36:34Z</time></trkpt><trkpt lat="45.332186028577304" lon="9.117905085631598"><ele>95.0</ele><time>2026-03-22T13:36:35Z</time></trkpt><trkpt lat="45.33226682317032" lon="9.117646598071897"><ele>95.0</ele><time>2026-03-22T13:36:36Z</time></trkpt><trkpt lat="45.332345794784416" lon="9.117387074705215"><ele>95.0</ele><time>2026-03-22T13:36:37Z</time></trkpt><trkpt lat="45.332426359020076" lon="9.11712206477491"><ele>95.0</ele><time>2026-03-22T13:36:38Z</time></trkpt><trkpt lat="45.332509542986685" lon="9.116858592770507"><ele>95.0</ele><time>2026-03-22T13:36:39Z</time></trkpt><trkpt lat="45.33259181863654" lon="9.116597661037854"><ele>95.0</ele><time>2026-03-22T13:36:40Z</time></trkpt><trkpt lat="45.3326769309537" lon="9.116337884311255"><ele>96.0</ele><time>2026-03-22T13:36:41Z</time></trkpt><trkpt lat="45.33275768824671" lon="9.116080939742496"><ele>97.0</ele><time>2026-03-22T13:36:42Z</time></trkpt><trkpt lat="45.33283814008294" lon="9.115821341645832"><ele>98.0</ele><time>2026-03-22T13:36:43Z</time></trkpt><trkpt lat="45.33291976363213" lon="9.115560260697249"><ele>97.66666666666666</ele><time>2026-03-22T13:36:44Z</time></trkpt><trkpt lat="45.333002455037196" lon="9.115299055835797"><ele>97.33333333333334</ele><time>2026-03-22T13:36:45Z</time></trkpt><trkpt lat="45.333085627789444" lon="9.11503498424499"><ele>97.0</ele><time>2026-03-22T13:36:46Z</time></trkpt><trkpt lat="45.33316970406258" lon="9.114770222763426"><ele>96.66666666666667</ele><time>2026-03-22T13:36:47Z</time></trkpt><trkpt lat="45.3332528552846" lon="9.11450261358727"><ele>96.33333333333334</ele><time>2026-03-22T13:36:48Z</time></trkpt><trkpt lat="45.3333333692524" lon="9.114229608307765"><ele>96.0</ele><time>2026-03-22T13:36:49Z</time></trkpt><trkpt lat="45.33341794572811" lon="9.113966301819405"><ele>96.0</ele><time>2026-03-22T13:36:50Z</time></trkpt><trkpt lat="45.33349813946034" lon="9.113695789492624"><ele>96.0</ele><time>2026-03-22T13:36:51Z</time></trkpt><trkpt lat="45.33358126089108" lon="9.113428961559714"><ele>96.0</ele><time>2026-03-22T13:36:52Z</time></trkpt><trkpt lat="45.33366050263674" lon="9.113163714840592"><ele>96.0</ele><time>2026-03-22T13:36:53Z</time></trkpt><trkpt lat="45.333740903325804" lon="9.112901807892358"><ele>96.0</ele><time>2026-03-22T13:36:54Z</time></trkpt><trkpt lat="45.33382266875389" lon="9.11263839937543"><ele>96.0</ele><time>2026-03-22T13:36:55Z</time></trkpt><trkpt lat="45.33390520086692" lon="9.112379810224255"><ele>96.0</ele><time>2026-03-22T13:36:56Z</time></trkpt><trkpt lat="45.33399043368665" lon="9.112120162531383"><ele>96.0</ele><time>2026-03-22T13:36:57Z</time></trkpt><trkpt lat="45.33407155045824" lon="9.111861882797758"><ele>96.0</ele><time>2026-03-22T13:36:58Z</time></trkpt><trkpt lat="45.334152124203925" lon="9.111611739615086"><ele>96.0</ele><time>2026-03-22T13:36:59Z</time></trkpt><trkpt lat="45.334231994035584" lon="9.111363524788475"><ele>96.0</ele><time>2026-03-22T13:37:00Z</time></trkpt><trkpt lat="45.334309792094516" lon="9.111115765969044"><ele>96.0</ele><time>2026-03-22T13:37:01Z</time></trkpt><trkpt lat="45.33439115596618" lon="9.110862043964795"><ele>96.0</ele><time>2026-03-22T13:37:02Z</time></trkpt><trkpt lat="45.334467642873896" lon="9.110615821514138"><ele>96.0</ele><time>2026-03-22T13:37:03Z</time></trkpt><trkpt lat="45.334544057572835" lon="9.110373812041685"><ele>96.0</ele><time>2026-03-22T13:37:04Z</time></trkpt><trkpt lat="45.334619133126175" lon="9.110136035404508"><ele>96.33333333333334</ele><time>2026-03-22T13:37:05Z</time></trkpt><trkpt lat="45.334693375838754" lon="9.109901471248673"><ele>96.66666666666667</ele><time>2026-03-22T13:37:06Z</time></trkpt><trkpt lat="45.3347641282827" lon="9.109675303520598"><ele>97.0</ele><time>2026-03-22T13:37:07Z</time></trkpt><trkpt lat="45.334834162418254" lon="9.109451625215538"><ele>97.33333333333334</ele><time>2026-03-22T13:37:08Z</time></trkpt><trkpt lat="45.334903237704985" lon="9.109235028705013"><ele>97.66666666666666</ele><time>2026-03-22T13:37:09Z</time></trkpt><trkpt lat="45.33497163835833" lon="9.1090248481156"><ele>98.0</ele><time>2026-03-22T13:37:10Z</time></trkpt><trkpt lat="45.33503320206026" lon="9.108815345705786"><ele>98.25</ele><time>2026-03-22T13:37:11Z</time></trkpt><trkpt lat="45.335091773818576" lon="9.108623026088233"><ele>98.5</ele><time>2026-03-22T13:37:12Z</time></trkpt><trkpt lat="45.33514724724115" lon="9.10843728011804"><ele>98.75</ele><time>2026-03-22T13:37:13Z</time></trkpt><trkpt lat="45.3351991037457" lon="9.108257191409578"><ele>99.0</ele><time>2026-03-22T13:37:14Z</time></trkpt><trkpt lat="45.335253277885364" lon="9.108092199912253"><ele>99.0</ele><time>2026-03-22T13:37:15Z</time></trkpt><trkpt lat="45.335305560147894" lon="9.107929664349149"><ele>99.0</ele><time>2026-03-22T13:37:16Z</time></trkpt><trkpt lat="45.335358693551264" lon="9.10777169092935"><ele>99.0</ele><time>2026-03-22T13:37:17Z</time></trkpt><trkpt lat="45.335411098664615" lon="9.107626014003978"><ele>99.0</ele><time>2026-03-22T13:37:18Z</time></trkpt><trkpt lat="45.335460217486904" lon="9.10749165836419"><ele>99.16666666666667</ele><time>2026-03-22T13:37:19Z</time></trkpt><trkpt lat="45.33550776639133" lon="9.107367269858543"><ele>99.33333333333334</ele><time>2026-03-22T13:37:20Z</time></trkpt><trkpt lat="45.335553731553915" lon="9.1072687626563"><ele>99.5</ele><time>2026-03-22T13:37:21Z</time></trkpt><trkpt lat="45.33559617934752" lon="9.107190840848048"><ele>99.66666666666667</ele><time>2026-03-22T13:37:22Z</time></trkpt><trkpt lat="45.33566569185354" lon="9.107088984013735"><ele>99.83333333333334</ele><time>2026-03-22T13:37:24Z</time></trkpt><trkpt lat="45.33572735584934" lon="9.106996400868928"><ele>100.0</ele><time>2026-03-22T13:37:29Z</time></trkpt><trkpt lat="45.33580370810051" lon="9.106857135818158"><ele>100.00000000000001</ele><time>2026-03-22T13:37:31Z</time></trkpt><trkpt lat="45.335840050877316" lon="9.10677119829765"><ele>100.0</ele><time>2026-03-22T13:37:32Z</time></trkpt><trkpt lat="45.3358668310434" lon="9.106665044943286"><ele>100.0</ele><time>2026-03-22T13:37:33Z</time></trkpt><trkpt lat="45.3358822661422" lon="9.106543561480176"><ele>100.0</ele><time>2026-03-22T13:37:34Z</time></trkpt><trkpt lat="45.33589479556304" lon="9.106412878518142"><ele>100.00000000000001</ele><time>2026-03-22T13:37:35Z</time></trkpt><trkpt lat="45.33590445106668" lon="9.106278903539849"><ele>100.0</ele><time>2026-03-22T13:37:36Z</time></trkpt><trkpt lat="45.33591735144951" lon="9.106149042678544"><ele>100.0</ele><time>2026-03-22T13:37:37Z</time></trkpt><trkpt lat="45.33593138265236" lon="9.106016027200353"><ele>100.0</ele><time>2026-03-22T13:37:38Z</time></trkpt><trkpt lat="45.33595134719396" lon="9.105880988204728"><ele>100.0</ele><time>2026-03-22T13:37:39Z</time></trkpt><trkpt lat="45.335981086025996" lon="9.105743266924602"><ele>100.0</ele><time>2026-03-22T13:37:40Z</time></trkpt><trkpt lat="45.336018493164964" lon="9.105602302936514"><ele>100.0</ele><time>2026-03-22T13:37:41Z</time></trkpt><trkpt lat="45.33605942704759" lon="9.105452638039884"><ele>100.0</ele><time>2026-03-22T13:37:42Z</time></trkpt><trkpt lat="45.33610095767468" lon="9.10529947631175"><ele>100.0</ele><time>2026-03-22T13:37:43Z</time></trkpt><trkpt lat="45.336111619727866" lon="9.105127138770408"><ele>100.0</ele><time>2026-03-22T13:37:44Z</time></trkpt><trkpt lat="45.33615511362591" lon="9.104974556624642"><ele>100.0</ele><time>2026-03-22T13:37:45Z</time></trkpt><trkpt lat="45.33619902457395" lon="9.104819859766021"><ele>100.0</ele><time>2026-03-22T13:37:46Z</time></trkpt><trkpt lat="45.33625787420252" lon="9.10466335111611"><ele>100.0</ele><time>2026-03-22T13:37:47Z</time></trkpt><trkpt lat="45.336298411766464" lon="9.104476501689922"><ele>100.0</ele><time>2026-03-22T13:37:48Z</time></trkpt><trkpt lat="45.33634901708674" lon="9.104288457275057"><ele>100.0</ele><time>2026-03-22T13:37:49Z</time></trkpt><trkpt lat="45.33640139516936" lon="9.10410362693503"><ele>100.0</ele><time>2026-03-22T13:37:50Z</time></trkpt><trkpt lat="45.33645708114901" lon="9.103914140410218"><ele>100.0</ele><time>2026-03-22T13:37:51Z</time></trkpt><trkpt lat="45.336515995955" lon="9.103713741292113"><ele>100.0</ele><time>2026-03-22T13:37:52Z</time></trkpt><trkpt lat="45.33657612276778" lon="9.103501973691202"><ele>100.0</ele><time>2026-03-22T13:37:53Z</time></trkpt><trkpt lat="45.3366322229647" lon="9.103281463503164"><ele>100.0</ele><time>2026-03-22T13:37:54Z</time></trkpt><trkpt lat="45.33669531752096" lon="9.103049523561058"><ele>100.0</ele><time>2026-03-22T13:37:55Z</time></trkpt><trkpt lat="45.33671607341942" lon="9.102801297356685"><ele>100.0</ele><time>2026-03-22T13:37:56Z</time></trkpt><trkpt lat="45.33677185084454" lon="9.102588061203098"><ele>100.0</ele><time>2026-03-22T13:37:57Z</time></trkpt><trkpt lat="45.336825603091434" lon="9.102391608035477"><ele>100.0</ele><time>2026-03-22T13:37:58Z</time></trkpt><trkpt lat="45.33687779756636" lon="9.102199889477733"><ele>99.75</ele><time>2026-03-22T13:37:59Z</time></trkpt><trkpt lat="45.33698103252164" lon="9.102041858491651"><ele>99.5</ele><time>2026-03-22T13:38:00Z</time></trkpt><trkpt lat="45.337033995890536" lon="9.101886184030139"><ele>99.25</ele><time>2026-03-22T13:38:01Z</time></trkpt><trkpt lat="45.33707834038585" lon="9.101756137346518"><ele>99.0</ele><time>2026-03-22T13:38:02Z</time></trkpt><trkpt lat="45.33712408534743" lon="9.101644492123805"><ele>99.0</ele><time>2026-03-22T13:38:03Z</time></trkpt><trkpt lat="45.337184728588355" lon="9.101543874455002"><ele>99.0</ele><time>2026-03-22T13:38:04Z</time></trkpt><trkpt lat="45.33722189501549" lon="9.101415597885406"><ele>99.0</ele><time>2026-03-22T13:38:05Z</time></trkpt><trkpt lat="45.337233059661735" lon="9.101266246321465"><ele>99.0</ele><time>2026-03-22T13:38:06Z</time></trkpt><trkpt lat="45.33721700445495" lon="9.101044915033725"><ele>98.75</ele><time>2026-03-22T13:38:07Z</time></trkpt><trkpt lat="45.337258384236996" lon="9.10084695590332"><ele>98.5</ele><time>2026-03-22T13:38:08Z</time></trkpt><trkpt lat="45.33730998751494" lon="9.100659273617307"><ele>98.25</ele><time>2026-03-22T13:38:09Z</time></trkpt><trkpt lat="45.33736567846496" lon="9.100472011273832"><ele>98.0</ele><time>2026-03-22T13:38:10Z</time></trkpt><trkpt lat="45.33747711281441" lon="9.10031533123905"><ele>98.0</ele><time>2026-03-22T13:38:11Z</time></trkpt><trkpt lat="45.33754012000176" lon="9.100124429266415"><ele>98.0</ele><time>2026-03-22T13:38:12Z</time></trkpt><trkpt lat="45.33760433381967" lon="9.099938384782138"><ele>98.0</ele><time>2026-03-22T13:38:13Z</time></trkpt><trkpt lat="45.33767143448706" lon="9.099753475580695"><ele>98.0</ele><time>2026-03-22T13:38:14Z</time></trkpt><trkpt lat="45.33773705167358" lon="9.099567437984057"><ele>98.0</ele><time>2026-03-22T13:38:15Z</time></trkpt><trkpt lat="45.33780919303126" lon="9.099390159615147"><ele>98.0</ele><time>2026-03-22T13:38:16Z</time></trkpt><trkpt lat="45.33788053721781" lon="9.099211217784115"><ele>98.0</ele><time>2026-03-22T13:38:17Z</time></trkpt><trkpt lat="45.33795163845402" lon="9.099031042545013"><ele>98.0</ele><time>2026-03-22T13:38:18Z</time></trkpt><trkpt lat="45.3380207895049" lon="9.098849892567236"><ele>98.25</ele><time>2026-03-22T13:38:19Z</time></trkpt><trkpt lat="45.338087956910975" lon="9.098665920794419"><ele>98.5</ele><time>2026-03-22T13:38:20Z</time></trkpt><trkpt lat="45.33815082676903" lon="9.098481144088247"><ele>98.75</ele><time>2026-03-22T13:38:21Z</time></trkpt><trkpt lat="45.33821151985605" lon="9.09829507187104"><ele>99.0</ele><time>2026-03-22T13:38:22Z</time></trkpt><trkpt lat="45.338270327102606" lon="9.098106137094867"><ele>99.0</ele><time>2026-03-22T13:38:23Z</time></trkpt><trkpt lat="45.33833037733623" lon="9.097908745108642"><ele>99.0</ele><time>2026-03-22T13:38:24Z</time></trkpt><trkpt lat="45.33838852665257" lon="9.097708536223807"><ele>99.0</ele><time>2026-03-22T13:38:25Z</time></trkpt><trkpt lat="45.338445006222706" lon="9.097508099281338"><ele>99.33333333333334</ele><time>2026-03-22T13:38:26Z</time></trkpt><trkpt lat="45.338498486523065" lon="9.097302807070418"><ele>99.66666666666667</ele><time>2026-03-22T13:38:27Z</time></trkpt><trkpt lat="45.33855799944829" lon="9.097094783811132"><ele>100.0</ele><time>2026-03-22T13:38:28Z</time></trkpt><trkpt lat="45.338616468138106" lon="9.096885398237225"><ele>100.0</ele><time>2026-03-22T13:38:29Z</time></trkpt><trkpt lat="45.338675092418185" lon="9.096670880641986"><ele>100.0</ele><time>2026-03-22T13:38:30Z</time></trkpt><trkpt lat="45.338729473585566" lon="9.096451336211873"><ele>100.0</ele><time>2026-03-22T13:38:31Z</time></trkpt><trkpt lat="45.338781148146836" lon="9.096231665768585"><ele>100.0</ele><time>2026-03-22T13:38:32Z</time></trkpt><trkpt lat="45.338830288443766" lon="9.096007602218773"><ele>100.0</ele><time>2026-03-22T13:38:33Z</time></trkpt><trkpt lat="45.338878878656885" lon="9.095783311972369"><ele>100.0</ele><time>2026-03-22T13:38:34Z</time></trkpt><trkpt lat="45.33892691431613" lon="9.09555923800617"><ele>100.0</ele><time>2026-03-22T13:38:35Z</time></trkpt><trkpt lat="45.33897901174658" lon="9.09533380936782"><ele>100.0</ele><time>2026-03-22T13:38:36Z</time></trkpt><trkpt lat="45.339027351430914" lon="9.095114715025824"><ele>100.0</ele><time>2026-03-22T13:38:37Z</time></trkpt><trkpt lat="45.33907790305987" lon="9.0948969960574"><ele>100.0</ele><time>2026-03-22T13:38:38Z</time></trkpt><trkpt lat="45.33912711530019" lon="9.094668886161156"><ele>100.0</ele><time>2026-03-22T13:38:39Z</time></trkpt><trkpt lat="45.33917547795713" lon="9.094445414685536"><ele>100.0</ele><time>2026-03-22T13:38:40Z</time></trkpt><trkpt lat="45.33922570585655" lon="9.094223453816818"><ele>99.66666666666667</ele><time>2026-03-22T13:38:41Z</time></trkpt><trkpt lat="45.339274411052806" lon="9.09400015332503"><ele>99.33333333333334</ele><time>2026-03-22T13:38:42Z</time></trkpt><trkpt lat="45.33932269418875" lon="9.093787602721866"><ele>99.0</ele><time>2026-03-22T13:38:43Z</time></trkpt><trkpt lat="45.33937336872205" lon="9.093578283413956"><ele>99.0</ele><time>2026-03-22T13:38:44Z</time></trkpt><trkpt lat="45.33940308438659" lon="9.09337765780462"><ele>99.0</ele><time>2026-03-22T13:38:45Z</time></trkpt><trkpt lat="45.33943550067578" lon="9.093189025413418"><ele>99.0</ele><time>2026-03-22T13:38:46Z</time></trkpt><trkpt lat="45.339464248595256" lon="9.093007234604723"><ele>99.0</ele><time>2026-03-22T13:38:47Z</time></trkpt><trkpt lat="45.33948354585908" lon="9.09283590653194"><ele>99.0</ele><time>2026-03-22T13:38:48Z</time></trkpt><trkpt lat="45.33948170544475" lon="9.092694773081417"><ele>99.0</ele><time>2026-03-22T13:38:49Z</time></trkpt><trkpt lat="45.3395640490969" lon="9.092571797592585"><ele>99.0</ele><time>2026-03-22T13:38:50Z</time></trkpt><trkpt lat="45.33960149588434" lon="9.092459769646563"><ele>99.0</ele><time>2026-03-22T13:38:51Z</time></trkpt><trkpt lat="45.33964230510221" lon="9.092343706279578"><ele>99.0</ele><time>2026-03-22T13:38:52Z</time></trkpt><trkpt lat="45.33966137925468" lon="9.092216839934693"><ele>99.0</ele><time>2026-03-22T13:38:53Z</time></trkpt><trkpt lat="45.339609485403564" lon="9.092071102745305"><ele>99.0</ele><time>2026-03-22T13:38:54Z</time></trkpt><trkpt lat="45.33956091895164" lon="9.091875021866905"><ele>99.0</ele><time>2026-03-22T13:38:55Z</time></trkpt><trkpt lat="45.339479099901176" lon="9.0916479700753"><ele>99.0</ele><time>2026-03-22T13:38:56Z</time></trkpt><trkpt lat="45.33942570050105" lon="9.091375831603775"><ele>99.0</ele><time>2026-03-22T13:38:57Z</time></trkpt><trkpt lat="45.33936814536474" lon="9.091068979298129"><ele>99.0</ele><time>2026-03-22T13:38:58Z</time></trkpt><trkpt lat="45.33928604134827" lon="9.09076917589366"><ele>99.0</ele><time>2026-03-22T13:38:59Z</time></trkpt><trkpt lat="45.3391958653236" lon="9.090518362345591"><ele>99.33333333333334</ele><time>2026-03-22T13:39:00Z</time></trkpt><trkpt lat="45.339111789778386" lon="9.090287708922103"><ele>99.66666666666667</ele><time>2026-03-22T13:39:01Z</time></trkpt><trkpt lat="45.339019999075404" lon="9.09006232635748"><ele>100.0</ele><time>2026-03-22T13:39:02Z</time></trkpt><trkpt lat="45.338928450857466" lon="9.089825278981568"><ele>100.0</ele><time>2026-03-22T13:39:03Z</time></trkpt><trkpt lat="45.338836713234045" lon="9.089584345046879"><ele>100.0</ele><time>2026-03-22T13:39:04Z</time></trkpt><trkpt lat="45.33873014281262" lon="9.089311701032255"><ele>100.0</ele><time>2026-03-22T13:39:05Z</time></trkpt><trkpt lat="45.33861999825016" lon="9.089031368389046"><ele>100.0</ele><time>2026-03-22T13:39:06Z</time></trkpt><trkpt lat="45.33850310041956" lon="9.088739303379807"><ele>100.0</ele><time>2026-03-22T13:39:07Z</time></trkpt><trkpt lat="45.338385056325734" lon="9.088434085015656"><ele>100.5</ele><time>2026-03-22T13:39:08Z</time></trkpt><trkpt lat="45.338279120313814" lon="9.088129335091145"><ele>101.0</ele><time>2026-03-22T13:39:09Z</time></trkpt><trkpt lat="45.338179509431875" lon="9.087835832454267"><ele>101.0</ele><time>2026-03-22T13:39:10Z</time></trkpt><trkpt lat="45.33807982371141" lon="9.08755311566042"><ele>101.0</ele><time>2026-03-22T13:39:11Z</time></trkpt><trkpt lat="45.33797887032677" lon="9.08728352676876"><ele>101.0</ele><time>2026-03-22T13:39:12Z</time></trkpt><trkpt lat="45.337886545183764" lon="9.08702111687421"><ele>100.33333333333333</ele><time>2026-03-22T13:39:13Z</time></trkpt><trkpt lat="45.33779434000024" lon="9.086766729759397"><ele>99.66666666666666</ele><time>2026-03-22T13:39:14Z</time></trkpt><trkpt lat="45.33769775048093" lon="9.086509224174401"><ele>99.0</ele><time>2026-03-22T13:39:15Z</time></trkpt><trkpt lat="45.337606115302734" lon="9.086258090431047"><ele>99.0</ele><time>2026-03-22T13:39:16Z</time></trkpt><trkpt lat="45.33751946748153" lon="9.08601459793232"><ele>99.0</ele><time>2026-03-22T13:39:17Z</time></trkpt><trkpt lat="45.33742927687918" lon="9.085772161602199"><ele>99.0</ele><time>2026-03-22T13:39:18Z</time></trkpt><trkpt lat="45.33734459037009" lon="9.085547380391402"><ele>99.0</ele><time>2026-03-22T13:39:19Z</time></trkpt><trkpt lat="45.33726298815704" lon="9.085324309948884"><ele>99.0</ele><time>2026-03-22T13:39:20Z</time></trkpt><trkpt lat="45.33718178428707" lon="9.085108108414552"><ele>99.0</ele><time>2026-03-22T13:39:21Z</time></trkpt><trkpt lat="45.33710304391328" lon="9.084906305272058"><ele>98.25</ele><time>2026-03-22T13:39:22Z</time></trkpt><trkpt lat="45.337040202657654" lon="9.084732419223123"><ele>97.5</ele><time>2026-03-22T13:39:23Z</time></trkpt><trkpt lat="45.33698522765563" lon="9.08457970642827"><ele>96.75</ele><time>2026-03-22T13:39:24Z</time></trkpt><trkpt lat="45.33692001483953" lon="9.084448651475409"><ele>96.0</ele><time>2026-03-22T13:39:25Z</time></trkpt><trkpt lat="45.336857067457274" lon="9.084287615932944"><ele>96.0</ele><time>2026-03-22T13:39:26Z</time></trkpt><trkpt lat="45.33684137584367" lon="9.084118296074202"><ele>96.0</ele><time>2026-03-22T13:39:27Z</time></trkpt><trkpt lat="45.33683927727437" lon="9.083970961681606"><ele>96.0</ele><time>2026-03-22T13:39:28Z</time></trkpt><trkpt lat="45.33678017882364" lon="9.08382675503151"><ele>96.0</ele><time>2026-03-22T13:39:29Z</time></trkpt><trkpt lat="45.33665722545245" lon="9.083709773039484"><ele>95.66666666666667</ele><time>2026-03-22T13:39:30Z</time></trkpt><trkpt lat="45.33654461798272" lon="9.083570735493161"><ele>95.33333333333334</ele><time>2026-03-22T13:39:31Z</time></trkpt><trkpt lat="45.33649451243707" lon="9.083312956445496"><ele>95.0</ele><time>2026-03-22T13:39:32Z</time></trkpt><trkpt lat="45.33640316952594" lon="9.083088124874921"><ele>95.33333333333334</ele><time>2026-03-22T13:39:33Z</time></trkpt><trkpt lat="45.33632036528805" lon="9.082881367392561"><ele>95.66666666666667</ele><time>2026-03-22T13:39:34Z</time></trkpt><trkpt lat="45.33623545788571" lon="9.082678998814394"><ele>96.0</ele><time>2026-03-22T13:39:35Z</time></trkpt><trkpt lat="45.33615667524577" lon="9.08246959910275"><ele>96.0</ele><time>2026-03-22T13:39:36Z</time></trkpt><trkpt lat="45.336076346361374" lon="9.08226221790779"><ele>96.0</ele><time>2026-03-22T13:39:37Z</time></trkpt><trkpt lat="45.33599684591835" lon="9.082060366754671"><ele>96.0</ele><time>2026-03-22T13:39:38Z</time></trkpt><trkpt lat="45.33591495030899" lon="9.081856178404525"><ele>96.0</ele><time>2026-03-22T13:39:39Z</time></trkpt><trkpt lat="45.33583313793001" lon="9.081652634982964"><ele>96.0</ele><time>2026-03-22T13:39:40Z</time></trkpt><trkpt lat="45.33575767534257" lon="9.081447834138602"><ele>96.0</ele><time>2026-03-22T13:39:41Z</time></trkpt><trkpt lat="45.33568060567814" lon="9.081242024969372"><ele>95.66666666666667</ele><time>2026-03-22T13:39:42Z</time></trkpt><trkpt lat="45.33560250587959" lon="9.081035514471706"><ele>95.33333333333334</ele><time>2026-03-22T13:39:43Z</time></trkpt><trkpt lat="45.33552124431572" lon="9.080822588336089"><ele>95.0</ele><time>2026-03-22T13:39:44Z</time></trkpt><trkpt lat="45.33543061149298" lon="9.080591294109848"><ele>96.0</ele><time>2026-03-22T13:39:45Z</time></trkpt><trkpt lat="45.33532511832943" lon="9.080336652972141"><ele>97.0</ele><time>2026-03-22T13:39:46Z</time></trkpt><trkpt lat="45.335219749911715" lon="9.080058145576011"><ele>98.0</ele><time>2026-03-22T13:39:47Z</time></trkpt><trkpt lat="45.33511609976287" lon="9.07976729323862"><ele>98.5</ele><time>2026-03-22T13:39:48Z</time></trkpt><trkpt lat="45.33501470442412" lon="9.079478061489404"><ele>99.0</ele><time>2026-03-22T13:39:49Z</time></trkpt><trkpt lat="45.33491565140723" lon="9.079194218005078"><ele>98.66666666666666</ele><time>2026-03-22T13:39:50Z</time></trkpt><trkpt lat="45.33480774692626" lon="9.07891064749491"><ele>98.33333333333333</ele><time>2026-03-22T13:39:51Z</time></trkpt><trkpt lat="45.33470350614728" lon="9.078632811311133"><ele>98.0</ele><time>2026-03-22T13:39:52Z</time></trkpt><trkpt lat="45.33460035906547" lon="9.07836161435662"><ele>98.33333333333333</ele><time>2026-03-22T13:39:53Z</time></trkpt><trkpt lat="45.33450274617644" lon="9.078096048093085"><ele>98.66666666666666</ele><time>2026-03-22T13:39:54Z</time></trkpt><trkpt lat="45.33440946091913" lon="9.077841928794749"><ele>99.0</ele><time>2026-03-22T13:39:55Z</time></trkpt><trkpt lat="45.33431927365594" lon="9.077597288118747"><ele>98.66666666666666</ele><time>2026-03-22T13:39:56Z</time></trkpt><trkpt lat="45.33423553945794" lon="9.077356714782349"><ele>98.33333333333333</ele><time>2026-03-22T13:39:57Z</time></trkpt><trkpt lat="45.334153420595634" lon="9.07712196880632"><ele>98.0</ele><time>2026-03-22T13:39:58Z</time></trkpt><trkpt lat="45.33407636717333" lon="9.076884037571848"><ele>98.0</ele><time>2026-03-22T13:39:59Z</time></trkpt><trkpt lat="45.33400399919137" lon="9.076637680942918"><ele>98.0</ele><time>2026-03-22T13:40:00Z</time></trkpt><trkpt lat="45.33394318822778" lon="9.076390061954132"><ele>98.0</ele><time>2026-03-22T13:40:01Z</time></trkpt><trkpt lat="45.33389381381954" lon="9.076133135478408"><ele>98.66666666666666</ele><time>2026-03-22T13:40:02Z</time></trkpt><trkpt lat="45.333860871962564" lon="9.07587022585007"><ele>99.33333333333334</ele><time>2026-03-22T13:40:03Z</time></trkpt><trkpt lat="45.33381981429875" lon="9.075611439596447"><ele>100.0</ele><time>2026-03-22T13:40:04Z</time></trkpt><trkpt lat="45.33379692535348" lon="9.07534987268073"><ele>100.0</ele><time>2026-03-22T13:40:05Z</time></trkpt><trkpt lat="45.333774311334494" lon="9.07508840371321"><ele>100.0</ele><time>2026-03-22T13:40:06Z</time></trkpt><trkpt lat="45.3337519018573" lon="9.074828035042348"><ele>100.0</ele><time>2026-03-22T13:40:07Z</time></trkpt><trkpt lat="45.33373023367214" lon="9.074569277234922"><ele>100.66666666666667</ele><time>2026-03-22T13:40:08Z</time></trkpt><trkpt lat="45.33370691457612" lon="9.074309887237007"><ele>101.33333333333334</ele><time>2026-03-22T13:40:09Z</time></trkpt><trkpt lat="45.33368291557716" lon="9.074052625258634"><ele>102.0</ele><time>2026-03-22T13:40:10Z</time></trkpt><trkpt lat="45.333659211324296" lon="9.073798893332457"><ele>102.0</ele><time>2026-03-22T13:40:11Z</time></trkpt><trkpt lat="45.33363486220358" lon="9.073541170997983"><ele>102.0</ele><time>2026-03-22T13:40:12Z</time></trkpt><trkpt lat="45.33361067327131" lon="9.073285144119035"><ele>102.0</ele><time>2026-03-22T13:40:13Z</time></trkpt><trkpt lat="45.33358670831638" lon="9.073031487929633"><ele>101.0</ele><time>2026-03-22T13:40:14Z</time></trkpt><trkpt lat="45.333575930774956" lon="9.072772367041393"><ele>100.0</ele><time>2026-03-22T13:40:15Z</time></trkpt><trkpt lat="45.33354915161468" lon="9.07251728968271"><ele>99.0</ele><time>2026-03-22T13:40:16Z</time></trkpt><trkpt lat="45.33352515199287" lon="9.072263113662954"><ele>99.0</ele><time>2026-03-22T13:40:17Z</time></trkpt><trkpt lat="45.33350341087754" lon="9.072009030305136"><ele>99.0</ele><time>2026-03-22T13:40:18Z</time></trkpt><trkpt lat="45.33346290744618" lon="9.071758874586445"><ele>99.0</ele><time>2026-03-22T13:40:19Z</time></trkpt><trkpt lat="45.33343746203439" lon="9.071508815181335"><ele>98.66666666666666</ele><time>2026-03-22T13:40:20Z</time></trkpt><trkpt lat="45.33341302400485" lon="9.071259597797546"><ele>98.33333333333333</ele><time>2026-03-22T13:40:21Z</time></trkpt><trkpt lat="45.33338856346168" lon="9.071009549703495"><ele>98.0</ele><time>2026-03-22T13:40:22Z</time></trkpt><trkpt lat="45.33336388558411" lon="9.070757280315158"><ele>98.66666666666666</ele><time>2026-03-22T13:40:23Z</time></trkpt><trkpt lat="45.33333917695569" lon="9.070503848626517"><ele>99.33333333333334</ele><time>2026-03-22T13:40:24Z</time></trkpt><trkpt lat="45.33331448176978" lon="9.070250186586907"><ele>100.0</ele><time>2026-03-22T13:40:25Z</time></trkpt><trkpt lat="45.33328994644017" lon="9.069998166432585"><ele>99.33333333333334</ele><time>2026-03-22T13:40:26Z</time></trkpt><trkpt lat="45.33326506836752" lon="9.069742625581085"><ele>98.66666666666666</ele><time>2026-03-22T13:40:27Z</time></trkpt><trkpt lat="45.33323993230173" lon="9.069484434887322"><ele>98.0</ele><time>2026-03-22T13:40:28Z</time></trkpt><trkpt lat="45.33321464450908" lon="9.06922468350211"><ele>97.66666666666666</ele><time>2026-03-22T13:40:29Z</time></trkpt><trkpt lat="45.33318862240108" lon="9.068952772073738"><ele>97.33333333333334</ele><time>2026-03-22T13:40:30Z</time></trkpt><trkpt lat="45.333164132351676" lon="9.068671924208713"><ele>97.0</ele><time>2026-03-22T13:40:31Z</time></trkpt><trkpt lat="45.33314709203885" lon="9.068387405654912"><ele>97.0</ele><time>2026-03-22T13:40:32Z</time></trkpt><trkpt lat="45.333138352556084" lon="9.068100696882153"><ele>97.0</ele><time>2026-03-22T13:40:33Z</time></trkpt><trkpt lat="45.33313369241562" lon="9.067812650846601"><ele>97.0</ele><time>2026-03-22T13:40:34Z</time></trkpt><trkpt lat="45.33313082554553" lon="9.067520434447959"><ele>97.33333333333334</ele><time>2026-03-22T13:40:35Z</time></trkpt><trkpt lat="45.333128003628325" lon="9.067229776871605"><ele>97.66666666666666</ele><time>2026-03-22T13:40:36Z</time></trkpt><trkpt lat="45.33312434886619" lon="9.06693546534908"><ele>98.0</ele><time>2026-03-22T13:40:37Z</time></trkpt><trkpt lat="45.33311923155589" lon="9.066649425148654"><ele>98.33333333333333</ele><time>2026-03-22T13:40:38Z</time></trkpt><trkpt lat="45.33313510051366" lon="9.066364975334269"><ele>98.66666666666666</ele><time>2026-03-22T13:40:39Z</time></trkpt><trkpt lat="45.33313333387832" lon="9.066089090585528"><ele>99.0</ele><time>2026-03-22T13:40:40Z</time></trkpt><trkpt lat="45.33313073555568" lon="9.065816037318838"><ele>99.33333333333334</ele><time>2026-03-22T13:40:41Z</time></trkpt><trkpt lat="45.33312634158848" lon="9.065538011036095"><ele>99.66666666666667</ele><time>2026-03-22T13:40:42Z</time></trkpt><trkpt lat="45.33310350895416" lon="9.065259482981766"><ele>100.0</ele><time>2026-03-22T13:40:43Z</time></trkpt><trkpt lat="45.33310020523968" lon="9.064986083687467"><ele>100.0</ele><time>2026-03-22T13:40:44Z</time></trkpt><trkpt lat="45.33309664270973" lon="9.064710222781935"><ele>100.0</ele><time>2026-03-22T13:40:45Z</time></trkpt><trkpt lat="45.333092445535684" lon="9.064432128364668"><ele>100.0</ele><time>2026-03-22T13:40:46Z</time></trkpt><trkpt lat="45.333105154077955" lon="9.064149810031283"><ele>99.33333333333334</ele><time>2026-03-22T13:40:47Z</time></trkpt><trkpt lat="45.33309801157528" lon="9.06386874183521"><ele>98.66666666666666</ele><time>2026-03-22T13:40:48Z</time></trkpt><trkpt lat="45.333090245686506" lon="9.063592317782588"><ele>98.0</ele><time>2026-03-22T13:40:49Z</time></trkpt><trkpt lat="45.33307957200971" lon="9.063313938445"><ele>98.33333333333333</ele><time>2026-03-22T13:40:50Z</time></trkpt><trkpt lat="45.333071758042664" lon="9.063041991597947"><ele>98.66666666666666</ele><time>2026-03-22T13:40:51Z</time></trkpt><trkpt lat="45.33305746181162" lon="9.062778365745428"><ele>99.0</ele><time>2026-03-22T13:40:52Z</time></trkpt><trkpt lat="45.333018192425996" lon="9.062517165424259"><ele>99.33333333333334</ele><time>2026-03-22T13:40:53Z</time></trkpt><trkpt lat="45.332968679682374" lon="9.062260447739426"><ele>99.66666666666667</ele><time>2026-03-22T13:40:54Z</time></trkpt><trkpt lat="45.332921186296026" lon="9.062002509086055"><ele>100.0</ele><time>2026-03-22T13:40:55Z</time></trkpt><trkpt lat="45.33287948514373" lon="9.061745497628287"><ele>99.66666666666667</ele><time>2026-03-22T13:40:56Z</time></trkpt><trkpt lat="45.332833722944635" lon="9.061492213177116"><ele>99.33333333333334</ele><time>2026-03-22T13:40:57Z</time></trkpt><trkpt lat="45.33279010438793" lon="9.061242283646084"><ele>99.0</ele><time>2026-03-22T13:40:58Z</time></trkpt><trkpt lat="45.33274098380537" lon="9.060998713637018"><ele>99.33333333333334</ele><time>2026-03-22T13:40:59Z</time></trkpt><trkpt lat="45.33269941839192" lon="9.060758881924253"><ele>99.66666666666667</ele><time>2026-03-22T13:41:00Z</time></trkpt><trkpt lat="45.33266065684344" lon="9.060516159701839"><ele>100.0</ele><time>2026-03-22T13:41:01Z</time></trkpt><trkpt lat="45.33262330199374" lon="9.060269236279114"><ele>100.0</ele><time>2026-03-22T13:41:02Z</time></trkpt><trkpt lat="45.33258729996601" lon="9.060026022276622"><ele>100.0</ele><time>2026-03-22T13:41:03Z</time></trkpt><trkpt lat="45.332553783404876" lon="9.059784242582655"><ele>100.0</ele><time>2026-03-22T13:41:04Z</time></trkpt><trkpt lat="45.33252004700907" lon="9.059539468109515"><ele>99.66666666666667</ele><time>2026-03-22T13:41:05Z</time></trkpt><trkpt lat="45.33248589100534" lon="9.059291298424695"><ele>99.33333333333334</ele><time>2026-03-22T13:41:06Z</time></trkpt><trkpt lat="45.3324519883084" lon="9.059040031758524"><ele>99.0</ele><time>2026-03-22T13:41:07Z</time></trkpt><trkpt lat="45.33242126661308" lon="9.058795567541939"><ele>98.66666666666666</ele><time>2026-03-22T13:41:08Z</time></trkpt><trkpt lat="45.332393127363545" lon="9.058552560720255"><ele>98.33333333333333</ele><time>2026-03-22T13:41:09Z</time></trkpt><trkpt lat="45.33234440212389" lon="9.058313970999798"><ele>98.0</ele><time>2026-03-22T13:41:10Z</time></trkpt><trkpt lat="45.33228316460282" lon="9.058094798960262"><ele>98.0</ele><time>2026-03-22T13:41:11Z</time></trkpt><trkpt lat="45.3321900968438" lon="9.05788237303816"><ele>98.0</ele><time>2026-03-22T13:41:12Z</time></trkpt><trkpt lat="45.33209780962037" lon="9.057678600073952"><ele>98.0</ele><time>2026-03-22T13:41:13Z</time></trkpt><trkpt lat="45.332015714266895" lon="9.057465452998214"><ele>98.66666666666666</ele><time>2026-03-22T13:41:14Z</time></trkpt><trkpt lat="45.331958366969744" lon="9.057235025464855"><ele>99.33333333333334</ele><time>2026-03-22T13:41:15Z</time></trkpt><trkpt lat="45.3319149646151" lon="9.056992332289225"><ele>100.0</ele><time>2026-03-22T13:41:16Z</time></trkpt><trkpt lat="45.33190903041145" lon="9.056734359441474"><ele>101.33333333333334</ele><time>2026-03-22T13:41:17Z</time></trkpt><trkpt lat="45.33190321836848" lon="9.05647663893869"><ele>102.66666666666666</ele><time>2026-03-22T13:41:18Z</time></trkpt><trkpt lat="45.33189831463952" lon="9.056219741613084"><ele>104.0</ele><time>2026-03-22T13:41:19Z</time></trkpt><trkpt lat="45.33189291557553" lon="9.055969791131531"><ele>104.0</ele><time>2026-03-22T13:41:20Z</time></trkpt><trkpt lat="45.33188714931789" lon="9.055721042179407"><ele>104.0</ele><time>2026-03-22T13:41:21Z</time></trkpt><trkpt lat="45.331881370202694" lon="9.055471737898872"><ele>104.0</ele><time>2026-03-22T13:41:22Z</time></trkpt><trkpt lat="45.331888615499984" lon="9.055224660532863"><ele>104.0</ele><time>2026-03-22T13:41:23Z</time></trkpt><trkpt lat="45.33188117416729" lon="9.054986762912655"><ele>104.0</ele><time>2026-03-22T13:41:24Z</time></trkpt><trkpt lat="45.33187203752822" lon="9.054747080573096"><ele>104.0</ele><time>2026-03-22T13:41:25Z</time></trkpt><trkpt lat="45.33185918253314" lon="9.054519889539181"><ele>103.0</ele><time>2026-03-22T13:41:26Z</time></trkpt><trkpt lat="45.33182553017585" lon="9.054307290186967"><ele>102.0</ele><time>2026-03-22T13:41:27Z</time></trkpt><trkpt lat="45.33175802656014" lon="9.054082303216545"><ele>101.0</ele><time>2026-03-22T13:41:28Z</time></trkpt><trkpt lat="45.33168485864872" lon="9.053861951454197"><ele>101.0</ele><time>2026-03-22T13:41:29Z</time></trkpt><trkpt lat="45.33161248520072" lon="9.05364479574179"><ele>101.0</ele><time>2026-03-22T13:41:30Z</time></trkpt><trkpt lat="45.33154992873355" lon="9.053441665840934"><ele>101.0</ele><time>2026-03-22T13:41:31Z</time></trkpt><trkpt lat="45.33148671672002" lon="9.053241343930749"><ele>101.0</ele><time>2026-03-22T13:41:32Z</time></trkpt><trkpt lat="45.331429515078405" lon="9.053055681996014"><ele>101.0</ele><time>2026-03-22T13:41:33Z</time></trkpt><trkpt lat="45.33138317816354" lon="9.052877593175817"><ele>101.0</ele><time>2026-03-22T13:41:34Z</time></trkpt><trkpt lat="45.331336487577104" lon="9.052704974388357"><ele>101.0</ele><time>2026-03-22T13:41:35Z</time></trkpt><trkpt lat="45.331276268997485" lon="9.052560440908927"><ele>101.19999999999999</ele><time>2026-03-22T13:41:36Z</time></trkpt><trkpt lat="45.33122232654839" lon="9.052394920483788"><ele>101.39999999999999</ele><time>2026-03-22T13:41:37Z</time></trkpt><trkpt lat="45.33122610714007" lon="9.052257853023532"><ele>101.6</ele><time>2026-03-22T13:41:38Z</time></trkpt><trkpt lat="45.331232948588024" lon="9.052123084405771"><ele>101.8</ele><time>2026-03-22T13:41:39Z</time></trkpt><trkpt lat="45.33123655383559" lon="9.051996629163433"><ele>102.0</ele><time>2026-03-22T13:41:40Z</time></trkpt><trkpt lat="45.33119700401048" lon="9.051816816980285"><ele>102.0</ele><time>2026-03-22T13:41:42Z</time></trkpt><trkpt lat="45.33109768603807" lon="9.051791065278485"><ele>102.0</ele><time>2026-03-22T13:41:43Z</time></trkpt><trkpt lat="45.330994984508195" lon="9.051772588996682"><ele>102.0</ele><time>2026-03-22T13:41:44Z</time></trkpt><trkpt lat="45.33088817519799" lon="9.051702782205416"><ele>102.0</ele><time>2026-03-22T13:41:45Z</time></trkpt><trkpt lat="45.33080622120148" lon="9.0515704908815"><ele>102.0</ele><time>2026-03-22T13:41:46Z</time></trkpt><trkpt lat="45.330727764155995" lon="9.05141683279801"><ele>102.0</ele><time>2026-03-22T13:41:47Z</time></trkpt><trkpt lat="45.33063569784508" lon="9.051259624907127"><ele>102.0</ele><time>2026-03-22T13:41:48Z</time></trkpt><trkpt lat="45.33054202206611" lon="9.051108164335"><ele>102.0</ele><time>2026-03-22T13:41:49Z</time></trkpt><trkpt lat="45.33045025536317" lon="9.050958183436132"><ele>102.0</ele><time>2026-03-22T13:41:50Z</time></trkpt><trkpt lat="45.33036134451308" lon="9.050810415246815"><ele>102.0</ele><time>2026-03-22T13:41:51Z</time></trkpt><trkpt lat="45.33026956960837" lon="9.05066126564853"><ele>102.0</ele><time>2026-03-22T13:41:52Z</time></trkpt><trkpt lat="45.330181290805974" lon="9.050509116209538"><ele>102.0</ele><time>2026-03-22T13:41:53Z</time></trkpt><trkpt lat="45.330090126005665" lon="9.050356587424869"><ele>102.0</ele><time>2026-03-22T13:41:54Z</time></trkpt><trkpt lat="45.33000017602738" lon="9.05020432518861"><ele>102.0</ele><time>2026-03-22T13:41:55Z</time></trkpt><trkpt lat="45.329907334714974" lon="9.050052061112508"><ele>102.0</ele><time>2026-03-22T13:41:56Z</time></trkpt><trkpt lat="45.32981385123744" lon="9.049897762823715"><ele>102.0</ele><time>2026-03-22T13:41:57Z</time></trkpt><trkpt lat="45.32972179118577" lon="9.049739206410136"><ele>102.0</ele><time>2026-03-22T13:41:58Z</time></trkpt><trkpt lat="45.3296270017687" lon="9.049580871344187"><ele>101.75</ele><time>2026-03-22T13:41:59Z</time></trkpt><trkpt lat="45.32953231023348" lon="9.049424244116937"><ele>101.5</ele><time>2026-03-22T13:42:00Z</time></trkpt><trkpt lat="45.3294321072875" lon="9.049262121178737"><ele>101.25</ele><time>2026-03-22T13:42:01Z</time></trkpt><trkpt lat="45.329333877283574" lon="9.049100085678957"><ele>101.0</ele><time>2026-03-22T13:42:02Z</time></trkpt><trkpt lat="45.32924069038587" lon="9.04893385279671"><ele>100.33333333333333</ele><time>2026-03-22T13:42:03Z</time></trkpt><trkpt lat="45.32914283246123" lon="9.048762320756303"><ele>99.66666666666666</ele><time>2026-03-22T13:42:04Z</time></trkpt><trkpt lat="45.329036019936105" lon="9.048590946518823"><ele>99.0</ele><time>2026-03-22T13:42:05Z</time></trkpt><trkpt lat="45.32892042005384" lon="9.048424139049395"><ele>99.33333333333334</ele><time>2026-03-22T13:42:06Z</time></trkpt><trkpt lat="45.32880942370736" lon="9.048244025075963"><ele>99.66666666666667</ele><time>2026-03-22T13:42:07Z</time></trkpt><trkpt lat="45.32869873010081" lon="9.048065411486991"><ele>100.0</ele><time>2026-03-22T13:42:08Z</time></trkpt><trkpt lat="45.32858262084966" lon="9.047888641855273"><ele>100.0</ele><time>2026-03-22T13:42:09Z</time></trkpt><trkpt lat="45.32847327252635" lon="9.047704655582736"><ele>100.0</ele><time>2026-03-22T13:42:10Z</time></trkpt><trkpt lat="45.32836759971375" lon="9.047522819503119"><ele>100.0</ele><time>2026-03-22T13:42:11Z</time></trkpt><trkpt lat="45.32826865846659" lon="9.047359461990645"><ele>100.0</ele><time>2026-03-22T13:42:12Z</time></trkpt><trkpt lat="45.32816383463416" lon="9.047191475532099"><ele>100.0</ele><time>2026-03-22T13:42:13Z</time></trkpt><trkpt lat="45.328062090892644" lon="9.047023749846016"><ele>100.0</ele><time>2026-03-22T13:42:14Z</time></trkpt><trkpt lat="45.32796307112445" lon="9.046854793250926"><ele>100.0</ele><time>2026-03-22T13:42:15Z</time></trkpt><trkpt lat="45.32785793769835" lon="9.046689299432183"><ele>100.0</ele><time>2026-03-22T13:42:16Z</time></trkpt><trkpt lat="45.32776222695514" lon="9.046520648982032"><ele>100.0</ele><time>2026-03-22T13:42:17Z</time></trkpt><trkpt lat="45.327661939087584" lon="9.046351081725085"><ele>100.0</ele><time>2026-03-22T13:42:18Z</time></trkpt><trkpt lat="45.32756219484466" lon="9.046188911958142"><ele>100.0</ele><time>2026-03-22T13:42:19Z</time></trkpt><trkpt lat="45.32746313018327" lon="9.046021131358064"><ele>100.0</ele><time>2026-03-22T13:42:20Z</time></trkpt><trkpt lat="45.32735846557903" lon="9.045855965501687"><ele>100.0</ele><time>2026-03-22T13:42:21Z</time></trkpt><trkpt lat="45.32725951915637" lon="9.045686119407481"><ele>100.0</ele><time>2026-03-22T13:42:22Z</time></trkpt><trkpt lat="45.327157000735895" lon="9.045516347189887"><ele>100.0</ele><time>2026-03-22T13:42:23Z</time></trkpt><trkpt lat="45.32705512389218" lon="9.045344968520103"><ele>100.0</ele><time>2026-03-22T13:42:24Z</time></trkpt><trkpt lat="45.32695284718372" lon="9.045169421440455"><ele>100.0</ele><time>2026-03-22T13:42:25Z</time></trkpt><trkpt lat="45.32684922142842" lon="9.044996658398448"><ele>100.0</ele><time>2026-03-22T13:42:26Z</time></trkpt><trkpt lat="45.32674665725825" lon="9.044827975530366"><ele>99.33333333333334</ele><time>2026-03-22T13:42:27Z</time></trkpt><trkpt lat="45.326646349671044" lon="9.044658178488737"><ele>98.66666666666666</ele><time>2026-03-22T13:42:28Z</time></trkpt><trkpt lat="45.32654682985006" lon="9.044489287616441"><ele>98.0</ele><time>2026-03-22T13:42:29Z</time></trkpt><trkpt lat="45.32644719080989" lon="9.0443186200375"><ele>99.0</ele><time>2026-03-22T13:42:30Z</time></trkpt><trkpt lat="45.326343815512324" lon="9.044149140190203"><ele>100.0</ele><time>2026-03-22T13:42:31Z</time></trkpt><trkpt lat="45.32624158101766" lon="9.04398466686921"><ele>101.0</ele><time>2026-03-22T13:42:32Z</time></trkpt><trkpt lat="45.32614257579684" lon="9.043817811053046"><ele>101.0</ele><time>2026-03-22T13:42:33Z</time></trkpt><trkpt lat="45.32604378013792" lon="9.043655938364928"><ele>101.0</ele><time>2026-03-22T13:42:34Z</time></trkpt><trkpt lat="45.32594753696998" lon="9.043489450687368"><ele>101.0</ele><time>2026-03-22T13:42:35Z</time></trkpt><trkpt lat="45.325849727694354" lon="9.043320196699431"><ele>100.66666666666666</ele><time>2026-03-22T13:42:36Z</time></trkpt><trkpt lat="45.32574632076381" lon="9.043144895994946"><ele>100.33333333333334</ele><time>2026-03-22T13:42:37Z</time></trkpt><trkpt lat="45.325641662575535" lon="9.042964936513792"><ele>100.0</ele><time>2026-03-22T13:42:38Z</time></trkpt><trkpt lat="45.32553408472554" lon="9.042789974478511"><ele>100.0</ele><time>2026-03-22T13:42:39Z</time></trkpt><trkpt lat="45.32542605894905" lon="9.042608525617258"><ele>100.0</ele><time>2026-03-22T13:42:40Z</time></trkpt><trkpt lat="45.32531922505243" lon="9.042424443110528"><ele>100.0</ele><time>2026-03-22T13:42:41Z</time></trkpt><trkpt lat="45.32520754704102" lon="9.04223596384575"><ele>100.0</ele><time>2026-03-22T13:42:42Z</time></trkpt><trkpt lat="45.32510092574172" lon="9.042049792830367"><ele>100.0</ele><time>2026-03-22T13:42:43Z</time></trkpt><trkpt lat="45.32499227295414" lon="9.04186464447227"><ele>100.0</ele><time>2026-03-22T13:42:44Z</time></trkpt><trkpt lat="45.32488220360928" lon="9.041688021980905"><ele>99.66666666666667</ele><time>2026-03-22T13:42:45Z</time></trkpt><trkpt lat="45.32477496362362" lon="9.041507328693084"><ele>99.33333333333334</ele><time>2026-03-22T13:42:46Z</time></trkpt><trkpt lat="45.32466709194378" lon="9.041334133728443"><ele>99.0</ele><time>2026-03-22T13:42:47Z</time></trkpt><trkpt lat="45.32456132389184" lon="9.04116278533358"><ele>99.0</ele><time>2026-03-22T13:42:48Z</time></trkpt><trkpt lat="45.32445567455488" lon="9.040996334763054"><ele>99.0</ele><time>2026-03-22T13:42:49Z</time></trkpt><trkpt lat="45.32435110968982" lon="9.040828110889935"><ele>99.0</ele><time>2026-03-22T13:42:50Z</time></trkpt><trkpt lat="45.32424947621179" lon="9.04065223178933"><ele>99.33333333333334</ele><time>2026-03-22T13:42:51Z</time></trkpt><trkpt lat="45.324145487228385" lon="9.040494323300592"><ele>99.66666666666667</ele><time>2026-03-22T13:42:52Z</time></trkpt><trkpt lat="45.32404267710523" lon="9.040327722044195"><ele>100.0</ele><time>2026-03-22T13:42:53Z</time></trkpt><trkpt lat="45.32393972030936" lon="9.04016048161634"><ele>99.66666666666667</ele><time>2026-03-22T13:42:54Z</time></trkpt><trkpt lat="45.32383343867056" lon="9.039995273980109"><ele>99.33333333333334</ele><time>2026-03-22T13:42:55Z</time></trkpt><trkpt lat="45.32372864062163" lon="9.039828659845112"><ele>99.0</ele><time>2026-03-22T13:42:56Z</time></trkpt><trkpt lat="45.32362885552442" lon="9.039664424821027"><ele>98.66666666666666</ele><time>2026-03-22T13:42:57Z</time></trkpt><trkpt lat="45.323531218966934" lon="9.039501625431118"><ele>98.33333333333333</ele><time>2026-03-22T13:42:58Z</time></trkpt><trkpt lat="45.32343163048752" lon="9.039341631777658"><ele>98.0</ele><time>2026-03-22T13:42:59Z</time></trkpt><trkpt lat="45.32333398999852" lon="9.039181277589694"><ele>98.0</ele><time>2026-03-22T13:43:00Z</time></trkpt><trkpt lat="45.3232360596433" lon="9.039015460103576"><ele>98.0</ele><time>2026-03-22T13:43:01Z</time></trkpt><trkpt lat="45.32313378079476" lon="9.038850439596354"><ele>98.0</ele><time>2026-03-22T13:43:02Z</time></trkpt><trkpt lat="45.32303568402096" lon="9.038683647666673"><ele>97.75</ele><time>2026-03-22T13:43:03Z</time></trkpt><trkpt lat="45.32293698448021" lon="9.038520281860663"><ele>97.5</ele><time>2026-03-22T13:43:04Z</time></trkpt><trkpt lat="45.32284158861798" lon="9.038359707298923"><ele>97.25</ele><time>2026-03-22T13:43:05Z</time></trkpt><trkpt lat="45.322746061715286" lon="9.038202604423434"><ele>97.0</ele><time>2026-03-22T13:43:06Z</time></trkpt><trkpt lat="45.32265336110251" lon="9.038053739315385"><ele>97.5</ele><time>2026-03-22T13:43:07Z</time></trkpt><trkpt lat="45.322564135068674" lon="9.037902176628547"><ele>98.0</ele><time>2026-03-22T13:43:08Z</time></trkpt><trkpt lat="45.3224741222173" lon="9.03775255178601"><ele>98.5</ele><time>2026-03-22T13:43:09Z</time></trkpt><trkpt lat="45.322387878999415" lon="9.037612247276307"><ele>99.0</ele><time>2026-03-22T13:43:10Z</time></trkpt><trkpt lat="45.322299669098385" lon="9.037473151844312"><ele>99.5</ele><time>2026-03-22T13:43:11Z</time></trkpt><trkpt lat="45.322209823560414" lon="9.03733551397843"><ele>100.0</ele><time>2026-03-22T13:43:12Z</time></trkpt><trkpt lat="45.32212347056508" lon="9.037188998048244"><ele>100.5</ele><time>2026-03-22T13:43:13Z</time></trkpt><trkpt lat="45.32203398839752" lon="9.03704742433078"><ele>101.0</ele><time>2026-03-22T13:43:14Z</time></trkpt><trkpt lat="45.321945521462936" lon="9.036901225134471"><ele>101.0</ele><time>2026-03-22T13:43:15Z</time></trkpt><trkpt lat="45.32185182425867" lon="9.036749709154703"><ele>101.0</ele><time>2026-03-22T13:43:16Z</time></trkpt><trkpt lat="45.32176084813888" lon="9.036594449261163"><ele>101.0</ele><time>2026-03-22T13:43:17Z</time></trkpt><trkpt lat="45.321672377592115" lon="9.03644158107866"><ele>101.0</ele><time>2026-03-22T13:43:18Z</time></trkpt><trkpt lat="45.32157542158355" lon="9.036292671515671"><ele>101.0</ele><time>2026-03-22T13:43:19Z</time></trkpt><trkpt lat="45.32148259153585" lon="9.036142506555942"><ele>101.0</ele><time>2026-03-22T13:43:20Z</time></trkpt><trkpt lat="45.321391385291534" lon="9.035991019806922"><ele>101.0</ele><time>2026-03-22T13:43:21Z</time></trkpt><trkpt lat="45.32129752864247" lon="9.035842230346503"><ele>101.0</ele><time>2026-03-22T13:43:22Z</time></trkpt><trkpt lat="45.3212045424006" lon="9.035696703672992"><ele>101.0</ele><time>2026-03-22T13:43:23Z</time></trkpt><trkpt lat="45.32111365738895" lon="9.035546919977072"><ele>101.0</ele><time>2026-03-22T13:43:24Z</time></trkpt><trkpt lat="45.32102433389998" lon="9.035393041203195"><ele>101.0</ele><time>2026-03-22T13:43:25Z</time></trkpt><trkpt lat="45.320935520094324" lon="9.03524220382574"><ele>101.0</ele><time>2026-03-22T13:43:26Z</time></trkpt><trkpt lat="45.32084762190562" lon="9.03508465709637"><ele>101.0</ele><time>2026-03-22T13:43:27Z</time></trkpt><trkpt lat="45.32074859011044" lon="9.034924553802117"><ele>101.0</ele><time>2026-03-22T13:43:28Z</time></trkpt><trkpt lat="45.320646699666355" lon="9.034764416561917"><ele>101.0</ele><time>2026-03-22T13:43:29Z</time></trkpt><trkpt lat="45.320550638921624" lon="9.034604743381854"><ele>100.75</ele><time>2026-03-22T13:43:30Z</time></trkpt><trkpt lat="45.320457546331376" lon="9.03444474767026"><ele>100.5</ele><time>2026-03-22T13:43:31Z</time></trkpt><trkpt lat="45.320363185999845" lon="9.034288023583306"><ele>100.25</ele><time>2026-03-22T13:43:32Z</time></trkpt><trkpt lat="45.32026698997781" lon="9.034141269105785"><ele>100.0</ele><time>2026-03-22T13:43:33Z</time></trkpt><trkpt lat="45.320176992059004" lon="9.033998021693728"><ele>100.0</ele><time>2026-03-22T13:43:34Z</time></trkpt><trkpt lat="45.32008964716389" lon="9.033856932494384"><ele>100.0</ele><time>2026-03-22T13:43:35Z</time></trkpt><trkpt lat="45.32000503639345" lon="9.033716711840517"><ele>100.0</ele><time>2026-03-22T13:43:36Z</time></trkpt><trkpt lat="45.31992106142177" lon="9.033572445976647"><ele>100.0</ele><time>2026-03-22T13:43:37Z</time></trkpt><trkpt lat="45.319834240081036" lon="9.033422947410077"><ele>100.5</ele><time>2026-03-22T13:43:38Z</time></trkpt><trkpt lat="45.31975702955421" lon="9.033265795022297"><ele>101.0</ele><time>2026-03-22T13:43:39Z</time></trkpt><trkpt lat="45.31967716876508" lon="9.033098551360954"><ele>101.5</ele><time>2026-03-22T13:43:40Z</time></trkpt><trkpt lat="45.31960586963013" lon="9.032924001125282"><ele>102.0</ele><time>2026-03-22T13:43:41Z</time></trkpt><trkpt lat="45.31950851486478" lon="9.032768271474223"><ele>102.0</ele><time>2026-03-22T13:43:42Z</time></trkpt><trkpt lat="45.319440887665124" lon="9.032595693766792"><ele>102.0</ele><time>2026-03-22T13:43:43Z</time></trkpt><trkpt lat="45.31937907122304" lon="9.032432539066496"><ele>102.0</ele><time>2026-03-22T13:43:44Z</time></trkpt><trkpt lat="45.31932510111668" lon="9.032266915632897"><ele>102.0</ele><time>2026-03-22T13:43:45Z</time></trkpt><trkpt lat="45.31927666998711" lon="9.032113914709019"><ele>102.0</ele><time>2026-03-22T13:43:46Z</time></trkpt><trkpt lat="45.31923150778561" lon="9.031956827314385"><ele>102.0</ele><time>2026-03-22T13:43:47Z</time></trkpt><trkpt lat="45.31919094904675" lon="9.03180212112026"><ele>102.0</ele><time>2026-03-22T13:43:48Z</time></trkpt><trkpt lat="45.31914683072087" lon="9.031646461177584"><ele>102.0</ele><time>2026-03-22T13:43:49Z</time></trkpt><trkpt lat="45.31911571797951" lon="9.031445753152237"><ele>102.33333333333334</ele><time>2026-03-22T13:43:50Z</time></trkpt><trkpt lat="45.31905184154578" lon="9.031267010072378"><ele>102.66666666666667</ele><time>2026-03-22T13:43:51Z</time></trkpt><trkpt lat="45.31904520776451" lon="9.031003221193046"><ele>103.0</ele><time>2026-03-22T13:43:52Z</time></trkpt><trkpt lat="45.31901600723704" lon="9.030765542568608"><ele>103.0</ele><time>2026-03-22T13:43:53Z</time></trkpt><trkpt lat="45.318994486385904" lon="9.030506609946778"><ele>103.0</ele><time>2026-03-22T13:43:54Z</time></trkpt><trkpt lat="45.31902198859823" lon="9.030259374303379"><ele>103.0</ele><time>2026-03-22T13:43:55Z</time></trkpt><trkpt lat="45.31897979635635" lon="9.030027687253849"><ele>103.0</ele><time>2026-03-22T13:43:56Z</time></trkpt><trkpt lat="45.31897720559799" lon="9.029784713357847"><ele>103.0</ele><time>2026-03-22T13:43:57Z</time></trkpt><trkpt lat="45.31897892224591" lon="9.029546843274858"><ele>103.0</ele><time>2026-03-22T13:43:58Z</time></trkpt><trkpt lat="45.31898159391091" lon="9.029314294697754"><ele>103.0</ele><time>2026-03-22T13:43:59Z</time></trkpt><trkpt lat="45.318985873193895" lon="9.029082946957532"><ele>103.0</ele><time>2026-03-22T13:44:00Z</time></trkpt><trkpt lat="45.318990246525395" lon="9.028857191500794"><ele>103.0</ele><time>2026-03-22T13:44:01Z</time></trkpt><trkpt lat="45.31899452569073" lon="9.02863629733976"><ele>103.0</ele><time>2026-03-22T13:44:02Z</time></trkpt><trkpt lat="45.318998913581154" lon="9.028409790264513"><ele>103.0</ele><time>2026-03-22T13:44:03Z</time></trkpt><trkpt lat="45.31900324594163" lon="9.028186150035834"><ele>103.0</ele><time>2026-03-22T13:44:04Z</time></trkpt><trkpt lat="45.31900748000969" lon="9.02796758352149"><ele>103.0</ele><time>2026-03-22T13:44:05Z</time></trkpt><trkpt lat="45.31901175392858" lon="9.027746959780572"><ele>103.0</ele><time>2026-03-22T13:44:06Z</time></trkpt><trkpt lat="45.31901598167163" lon="9.027528719757978"><ele>103.0</ele><time>2026-03-22T13:44:07Z</time></trkpt><trkpt lat="45.31902016060855" lon="9.027312998965277"><ele>103.0</ele><time>2026-03-22T13:44:08Z</time></trkpt><trkpt lat="45.31902424030556" lon="9.027102401354563"><ele>103.0</ele><time>2026-03-22T13:44:09Z</time></trkpt><trkpt lat="45.31902838791645" lon="9.02688830062054"><ele>103.0</ele><time>2026-03-22T13:44:10Z</time></trkpt><trkpt lat="45.319032527564445" lon="9.026674608068904"><ele>103.0</ele><time>2026-03-22T13:44:11Z</time></trkpt><trkpt lat="45.31903667324849" lon="9.026460604186907"><ele>102.66666666666667</ele><time>2026-03-22T13:44:12Z</time></trkpt><trkpt lat="45.31904065540288" lon="9.026255041792812"><ele>102.33333333333334</ele><time>2026-03-22T13:44:13Z</time></trkpt><trkpt lat="45.319044873122614" lon="9.026037319399427"><ele>102.0</ele><time>2026-03-22T13:44:14Z</time></trkpt><trkpt lat="45.319049030571186" lon="9.025819396143953"><ele>101.0</ele><time>2026-03-22T13:44:15Z</time></trkpt><trkpt lat="45.31905309275637" lon="9.02560529492922"><ele>100.0</ele><time>2026-03-22T13:44:16Z</time></trkpt><trkpt lat="45.319057044729064" lon="9.02539280516462"><ele>99.0</ele><time>2026-03-22T13:44:17Z</time></trkpt><trkpt lat="45.319060725295" lon="9.025176676714015"><ele>99.33333333333334</ele><time>2026-03-22T13:44:18Z</time></trkpt><trkpt lat="45.31906429434279" lon="9.024959172560315"><ele>99.66666666666667</ele><time>2026-03-22T13:44:19Z</time></trkpt><trkpt lat="45.31906787919433" lon="9.024740705283662"><ele>100.0</ele><time>2026-03-22T13:44:20Z</time></trkpt><trkpt lat="45.31907236783317" lon="9.024521908197341"><ele>100.0</ele><time>2026-03-22T13:44:21Z</time></trkpt><trkpt lat="45.3190771989406" lon="9.0242973026821"><ele>100.0</ele><time>2026-03-22T13:44:22Z</time></trkpt><trkpt lat="45.31908202600888" lon="9.02407288492086"><ele>100.0</ele><time>2026-03-22T13:44:23Z</time></trkpt><trkpt lat="45.319086802672956" lon="9.023850810561747"><ele>99.66666666666667</ele><time>2026-03-22T13:44:24Z</time></trkpt><trkpt lat="45.319091640633516" lon="9.023625886366792"><ele>99.33333333333334</ele><time>2026-03-22T13:44:25Z</time></trkpt><trkpt lat="45.31909544292787" lon="9.023403420883842"><ele>99.0</ele><time>2026-03-22T13:44:26Z</time></trkpt><trkpt lat="45.31909917426469" lon="9.023177712799933"><ele>98.33333333333334</ele><time>2026-03-22T13:44:27Z</time></trkpt><trkpt lat="45.319102870598826" lon="9.022954122011305"><ele>97.66666666666667</ele><time>2026-03-22T13:44:28Z</time></trkpt><trkpt lat="45.31910661029742" lon="9.022727908325846"><ele>97.0</ele><time>2026-03-22T13:44:29Z</time></trkpt><trkpt lat="45.31911028397825" lon="9.022505687578445"><ele>97.5</ele><time>2026-03-22T13:44:30Z</time></trkpt><trkpt lat="45.319114180944126" lon="9.022284785394039"><ele>98.0</ele><time>2026-03-22T13:44:31Z</time></trkpt><trkpt lat="45.31911822230393" lon="9.022067576714974"><ele>98.5</ele><time>2026-03-22T13:44:32Z</time></trkpt><trkpt lat="45.31912188441463" lon="9.021870750721128"><ele>99.0</ele><time>2026-03-22T13:44:33Z</time></trkpt><trkpt lat="45.31912546644567" lon="9.021678229063722"><ele>99.0</ele><time>2026-03-22T13:44:34Z</time></trkpt><trkpt lat="45.319129282378086" lon="9.021487216899084"><ele>99.0</ele><time>2026-03-22T13:44:35Z</time></trkpt><trkpt lat="45.31913280850894" lon="9.021313688996232"><ele>99.0</ele><time>2026-03-22T13:44:36Z</time></trkpt><trkpt lat="45.31913605435635" lon="9.021153954868655"><ele>99.0</ele><time>2026-03-22T13:44:37Z</time></trkpt><trkpt lat="45.31913906616443" lon="9.02100573799725"><ele>99.0</ele><time>2026-03-22T13:44:38Z</time></trkpt><trkpt lat="45.31914181638106" lon="9.020870395314011"><ele>99.0</ele><time>2026-03-22T13:44:39Z</time></trkpt><trkpt lat="45.31913101610728" lon="9.020721237211376"><ele>99.0</ele><time>2026-03-22T13:44:40Z</time></trkpt><trkpt lat="45.319166669568105" lon="9.02059978052408"><ele>99.0</ele><time>2026-03-22T13:44:41Z</time></trkpt><trkpt lat="45.31921602608255" lon="9.020476090347294"><ele>99.0</ele><time>2026-03-22T13:44:42Z</time></trkpt><trkpt lat="45.31927214189375" lon="9.020378863834482"><ele>99.0</ele><time>2026-03-22T13:44:43Z</time></trkpt><trkpt lat="45.31927051562101" lon="9.020257578246774"><ele>99.0</ele><time>2026-03-22T13:44:44Z</time></trkpt><trkpt lat="45.3192255900361" lon="9.020120671290087"><ele>99.0</ele><time>2026-03-22T13:44:45Z</time></trkpt><trkpt lat="45.319164526615516" lon="9.019915250981196"><ele>99.0</ele><time>2026-03-22T13:44:46Z</time></trkpt><trkpt lat="45.31916768310615" lon="9.019717406752951"><ele>99.0</ele><time>2026-03-22T13:44:47Z</time></trkpt><trkpt lat="45.31917142775752" lon="9.019490480464475"><ele>99.0</ele><time>2026-03-22T13:44:48Z</time></trkpt><trkpt lat="45.31917579230102" lon="9.019231143684898"><ele>99.0</ele><time>2026-03-22T13:44:49Z</time></trkpt><trkpt lat="45.319181204781316" lon="9.018948847285328"><ele>99.0</ele><time>2026-03-22T13:44:50Z</time></trkpt><trkpt lat="45.31918684420394" lon="9.018654714418222"><ele>99.0</ele><time>2026-03-22T13:44:51Z</time></trkpt><trkpt lat="45.31919277460368" lon="9.018345404831841"><ele>99.0</ele><time>2026-03-22T13:44:52Z</time></trkpt><trkpt lat="45.31919722769915" lon="9.018021903255944"><ele>101.0</ele><time>2026-03-22T13:44:53Z</time></trkpt><trkpt lat="45.3192031494337" lon="9.01769461090744"><ele>103.0</ele><time>2026-03-22T13:44:54Z</time></trkpt><trkpt lat="45.31920895640527" lon="9.017371587651393"><ele>102.66666666666667</ele><time>2026-03-22T13:44:55Z</time></trkpt><trkpt lat="45.319214482746325" lon="9.017064175607082"><ele>102.33333333333334</ele><time>2026-03-22T13:44:56Z</time></trkpt><trkpt lat="45.319235782214534" lon="9.016768804606071"><ele>102.0</ele><time>2026-03-22T13:44:57Z</time></trkpt><trkpt lat="45.31923766813322" lon="9.016480149004966"><ele>102.0</ele><time>2026-03-22T13:44:58Z</time></trkpt><trkpt lat="45.319236629923786" lon="9.016195741858619"><ele>102.0</ele><time>2026-03-22T13:44:59Z</time></trkpt><trkpt lat="45.31923380408116" lon="9.015921309118411"><ele>102.0</ele><time>2026-03-22T13:45:00Z</time></trkpt><trkpt lat="45.319221477762774" lon="9.015651640771402"><ele>101.66666666666666</ele><time>2026-03-22T13:45:01Z</time></trkpt><trkpt lat="45.31919848645267" lon="9.015386583562341"><ele>101.33333333333333</ele><time>2026-03-22T13:45:02Z</time></trkpt><trkpt lat="45.31916504739508" lon="9.015125167773816"><ele>101.0</ele><time>2026-03-22T13:45:03Z</time></trkpt><trkpt lat="45.319105244218775" lon="9.014871957230474"><ele>101.0</ele><time>2026-03-22T13:45:04Z</time></trkpt><trkpt lat="45.31905197218653" lon="9.014618559360686"><ele>101.0</ele><time>2026-03-22T13:45:05Z</time></trkpt><trkpt lat="45.319002086052144" lon="9.014355599595845"><ele>101.0</ele><time>2026-03-22T13:45:06Z</time></trkpt><trkpt lat="45.31892427082846" lon="9.014106400551595"><ele>100.66666666666666</ele><time>2026-03-22T13:45:07Z</time></trkpt><trkpt lat="45.318840915241765" lon="9.013861196416668"><ele>100.33333333333334</ele><time>2026-03-22T13:45:08Z</time></trkpt><trkpt lat="45.3187483111029" lon="9.013625574726538"><ele>100.0</ele><time>2026-03-22T13:45:09Z</time></trkpt><trkpt lat="45.3186480507983" lon="9.013399241500927"><ele>99.33333333333334</ele><time>2026-03-22T13:45:10Z</time></trkpt><trkpt lat="45.318538983364974" lon="9.01318429657321"><ele>98.66666666666666</ele><time>2026-03-22T13:45:11Z</time></trkpt><trkpt lat="45.31842184587491" lon="9.012981441739008"><ele>98.0</ele><time>2026-03-22T13:45:12Z</time></trkpt><trkpt lat="45.318301154690104" lon="9.012788437037832"><ele>98.0</ele><time>2026-03-22T13:45:13Z</time></trkpt><trkpt lat="45.318175932063184" lon="9.012602166536688"><ele>98.0</ele><time>2026-03-22T13:45:14Z</time></trkpt><trkpt lat="45.31804344027142" lon="9.012430621248635"><ele>98.0</ele><time>2026-03-22T13:45:15Z</time></trkpt><trkpt lat="45.3179060168142" lon="9.012281067239451"><ele>98.25</ele><time>2026-03-22T13:45:16Z</time></trkpt><trkpt lat="45.31778171314783" lon="9.012147987039453"><ele>98.5</ele><time>2026-03-22T13:45:17Z</time></trkpt><trkpt lat="45.317666715927494" lon="9.012034189725455"><ele>98.75</ele><time>2026-03-22T13:45:18Z</time></trkpt><trkpt lat="45.3175587755754" lon="9.011937078036894"><ele>99.0</ele><time>2026-03-22T13:45:19Z</time></trkpt><trkpt lat="45.317466139362026" lon="9.011854461086534"><ele>99.0</ele><time>2026-03-22T13:45:20Z</time></trkpt><trkpt lat="45.317387114248035" lon="9.011769361251078"><ele>99.0</ele><time>2026-03-22T13:45:21Z</time></trkpt><trkpt lat="45.317313629603866" lon="9.011691166658583"><ele>99.0</ele><time>2026-03-22T13:45:22Z</time></trkpt><trkpt lat="45.31723349032945" lon="9.011613793987154"><ele>99.0</ele><time>2026-03-22T13:45:23Z</time></trkpt><trkpt lat="45.31715876567141" lon="9.011520289680496"><ele>99.0</ele><time>2026-03-22T13:45:24Z</time></trkpt><trkpt lat="45.31709256160405" lon="9.01141565549084"><ele>99.25</ele><time>2026-03-22T13:45:25Z</time></trkpt><trkpt lat="45.31701386496186" lon="9.011323381529213"><ele>99.5</ele><time>2026-03-22T13:45:26Z</time></trkpt><trkpt lat="45.316879600442434" lon="9.011288126269621"><ele>99.75</ele><time>2026-03-22T13:45:27Z</time></trkpt><trkpt lat="45.316718224404" lon="9.011323126324976"><ele>100.0</ele><time>2026-03-22T13:45:28Z</time></trkpt><trkpt lat="45.31657521065018" lon="9.011271476079136"><ele>100.0</ele><time>2026-03-22T13:45:29Z</time></trkpt><trkpt lat="45.3164474402189" lon="9.011172567779857"><ele>100.0</ele><time>2026-03-22T13:45:30Z</time></trkpt><trkpt lat="45.31632118043799" lon="9.011097167665994"><ele>100.0</ele><time>2026-03-22T13:45:31Z</time></trkpt><trkpt lat="45.316195935880785" lon="9.011018920473488"><ele>100.0</ele><time>2026-03-22T13:45:32Z</time></trkpt><trkpt lat="45.316068178842656" lon="9.01093910353899"><ele>100.0</ele><time>2026-03-22T13:45:33Z</time></trkpt><trkpt lat="45.315939142380465" lon="9.010858487301"><ele>100.0</ele><time>2026-03-22T13:45:34Z</time></trkpt><trkpt lat="45.315808086104695" lon="9.010776609138492"><ele>100.0</ele><time>2026-03-22T13:45:35Z</time></trkpt><trkpt lat="45.315675427607445" lon="9.010694128606229"><ele>100.0</ele><time>2026-03-22T13:45:36Z</time></trkpt><trkpt lat="45.315540150134574" lon="9.010610818377122"><ele>99.75</ele><time>2026-03-22T13:45:37Z</time></trkpt><trkpt lat="45.31540764076861" lon="9.010526775729735"><ele>99.5</ele><time>2026-03-22T13:45:38Z</time></trkpt><trkpt lat="45.315276992138216" lon="9.010443858861114"><ele>99.25</ele><time>2026-03-22T13:45:39Z</time></trkpt><trkpt lat="45.31514537783834" lon="9.010360329083424"><ele>99.0</ele><time>2026-03-22T13:45:40Z</time></trkpt><trkpt lat="45.31501446161426" lon="9.010280564165695"><ele>99.0</ele><time>2026-03-22T13:45:41Z</time></trkpt><trkpt lat="45.314888080839665" lon="9.010204940148434"><ele>99.0</ele><time>2026-03-22T13:45:42Z</time></trkpt><trkpt lat="45.31475977288119" lon="9.010127773968561"><ele>99.0</ele><time>2026-03-22T13:45:43Z</time></trkpt><trkpt lat="45.31463321203395" lon="9.010048055645257"><ele>99.0</ele><time>2026-03-22T13:45:44Z</time></trkpt><trkpt lat="45.314500394698634" lon="9.009964396357883"><ele>99.25</ele><time>2026-03-22T13:45:45Z</time></trkpt><trkpt lat="45.31436885273813" lon="9.009880328888755"><ele>99.5</ele><time>2026-03-22T13:45:46Z</time></trkpt><trkpt lat="45.31423339485881" lon="9.009797450508136"><ele>99.75</ele><time>2026-03-22T13:45:47Z</time></trkpt><trkpt lat="45.314097022087395" lon="9.009714012351745"><ele>100.0</ele><time>2026-03-22T13:45:48Z</time></trkpt><trkpt lat="45.31395715414791" lon="9.009628243698"><ele>99.66666666666667</ele><time>2026-03-22T13:45:49Z</time></trkpt><trkpt lat="45.31382324306675" lon="9.00954437991334"><ele>99.33333333333334</ele><time>2026-03-22T13:45:50Z</time></trkpt><trkpt lat="45.313682299310805" lon="9.009456113582349"><ele>99.0</ele><time>2026-03-22T13:45:51Z</time></trkpt><trkpt lat="45.31353616343009" lon="9.00936459381479"><ele>99.0</ele><time>2026-03-22T13:45:52Z</time></trkpt><trkpt lat="45.31338856477542" lon="9.009272286139712"><ele>99.0</ele><time>2026-03-22T13:45:53Z</time></trkpt><trkpt lat="45.313240672938186" lon="9.009179795522225"><ele>99.0</ele><time>2026-03-22T13:45:54Z</time></trkpt><trkpt lat="45.31309214017453" lon="9.00908690404981"><ele>99.0</ele><time>2026-03-22T13:45:55Z</time></trkpt><trkpt lat="45.312947913959825" lon="9.008996705834273"><ele>99.0</ele><time>2026-03-22T13:45:56Z</time></trkpt><trkpt lat="45.31279878084782" lon="9.008906457744898"><ele>99.0</ele><time>2026-03-22T13:45:57Z</time></trkpt><trkpt lat="45.31265188650181" lon="9.00882831045745"><ele>99.0</ele><time>2026-03-22T13:45:58Z</time></trkpt><trkpt lat="45.312507556663135" lon="9.00875473488868"><ele>99.0</ele><time>2026-03-22T13:45:59Z</time></trkpt><trkpt lat="45.31236326094961" lon="9.008684681761194"><ele>99.0</ele><time>2026-03-22T13:46:00Z</time></trkpt><trkpt lat="45.31221488908668" lon="9.008627013320467"><ele>99.0</ele><time>2026-03-22T13:46:01Z</time></trkpt><trkpt lat="45.31207235893605" lon="9.008574301726636"><ele>99.0</ele><time>2026-03-22T13:46:02Z</time></trkpt><trkpt lat="45.311929833401535" lon="9.008525058156447"><ele>99.0</ele><time>2026-03-22T13:46:03Z</time></trkpt><trkpt lat="45.31178359739828" lon="9.00848604955278"><ele>99.0</ele><time>2026-03-22T13:46:04Z</time></trkpt><trkpt lat="45.31163411559496" lon="9.00845497107223"><ele>99.0</ele><time>2026-03-22T13:46:05Z</time></trkpt><trkpt lat="45.3114977460015" lon="9.008430309164146"><ele>99.0</ele><time>2026-03-22T13:46:06Z</time></trkpt><trkpt lat="45.311375198237805" lon="9.008409067344195"><ele>99.0</ele><time>2026-03-22T13:46:07Z</time></trkpt><trkpt lat="45.31126659669273" lon="9.008390352222172"><ele>99.0</ele><time>2026-03-22T13:46:08Z</time></trkpt><trkpt lat="45.31118423684295" lon="9.008371780189169"><ele>99.14285714285715</ele><time>2026-03-22T13:46:09Z</time></trkpt><trkpt lat="45.311105752032624" lon="9.008345984372413"><ele>99.28571428571428</ele><time>2026-03-22T13:46:10Z</time></trkpt><trkpt lat="45.31102924960198" lon="9.008330358055947"><ele>99.42857142857143</ele><time>2026-03-22T13:46:11Z</time></trkpt><trkpt lat="45.31097357536023" lon="9.008264525745773"><ele>99.57142857142858</ele><time>2026-03-22T13:46:12Z</time></trkpt><trkpt lat="45.31090860493293" lon="9.008241744954724"><ele>99.71428571428572</ele><time>2026-03-22T13:46:13Z</time></trkpt><trkpt lat="45.31084612509947" lon="9.008274778525886"><ele>99.85714285714286</ele><time>2026-03-22T13:46:14Z</time></trkpt><trkpt lat="45.31078862643175" lon="9.008355682623796"><ele>100.0</ele><time>2026-03-22T13:46:15Z</time></trkpt><trkpt lat="45.310680628018126" lon="9.008418830528033"><ele>100.0</ele><time>2026-03-22T13:46:16Z</time></trkpt><trkpt lat="45.31063826534324" lon="9.008515963948366"><ele>100.0</ele><time>2026-03-22T13:46:17Z</time></trkpt><trkpt lat="45.31052173247331" lon="9.008574045830821"><ele>100.0</ele><time>2026-03-22T13:46:18Z</time></trkpt><trkpt lat="45.310378454137236" lon="9.00861430535072"><ele>100.0</ele><time>2026-03-22T13:46:19Z</time></trkpt><trkpt lat="45.310212498268356" lon="9.008637812311495"><ele>100.0</ele><time>2026-03-22T13:46:20Z</time></trkpt><trkpt lat="45.31001137375839" lon="9.00850682087306"><ele>100.0</ele><time>2026-03-22T13:46:21Z</time></trkpt><trkpt lat="45.30980490576004" lon="9.008533817221489"><ele>100.0</ele><time>2026-03-22T13:46:22Z</time></trkpt><trkpt lat="45.30957831228645" lon="9.008565233761216"><ele>99.5</ele><time>2026-03-22T13:46:23Z</time></trkpt><trkpt lat="45.30933973219038" lon="9.008598670903885"><ele>99.0</ele><time>2026-03-22T13:46:24Z</time></trkpt><trkpt lat="45.30909410472398" lon="9.008633243128122"><ele>99.0</ele><time>2026-03-22T13:46:25Z</time></trkpt><trkpt lat="45.30886130248323" lon="9.008665830904956"><ele>99.0</ele><time>2026-03-22T13:46:26Z</time></trkpt><trkpt lat="45.30862883956522" lon="9.008697507734077"><ele>99.0</ele><time>2026-03-22T13:46:27Z</time></trkpt><trkpt lat="45.30840330209562" lon="9.008726390274946"><ele>99.0</ele><time>2026-03-22T13:46:28Z</time></trkpt><trkpt lat="45.30817584809655" lon="9.008755530277442"><ele>99.0</ele><time>2026-03-22T13:46:29Z</time></trkpt><trkpt lat="45.307958537092624" lon="9.008784561752666"><ele>99.0</ele><time>2026-03-22T13:46:30Z</time></trkpt><trkpt lat="45.30774309637201" lon="9.008814013680473"><ele>99.0</ele><time>2026-03-22T13:46:31Z</time></trkpt><trkpt lat="45.307536292906406" lon="9.008842284845647"><ele>99.0</ele><time>2026-03-22T13:46:32Z</time></trkpt><trkpt lat="45.307328529986506" lon="9.008870687171079"><ele>99.0</ele><time>2026-03-22T13:46:33Z</time></trkpt><trkpt lat="45.30712290123308" lon="9.008898808787972"><ele>99.0</ele><time>2026-03-22T13:46:34Z</time></trkpt><trkpt lat="45.306923158515" lon="9.008926748477169"><ele>99.0</ele><time>2026-03-22T13:46:35Z</time></trkpt><trkpt lat="45.30673151703464" lon="9.008953330403667"><ele>99.0</ele><time>2026-03-22T13:46:36Z</time></trkpt><trkpt lat="45.30654579158202" lon="9.008978459803291"><ele>99.0</ele><time>2026-03-22T13:46:37Z</time></trkpt><trkpt lat="45.30636069807644" lon="9.009003295928872"><ele>99.0</ele><time>2026-03-22T13:46:38Z</time></trkpt><trkpt lat="45.30617656944239" lon="9.00902800258445"><ele>99.0</ele><time>2026-03-22T13:46:39Z</time></trkpt><trkpt lat="45.30599717220666" lon="9.00905207438132"><ele>99.0</ele><time>2026-03-22T13:46:40Z</time></trkpt><trkpt lat="45.30582610490501" lon="9.009074793677044"><ele>99.0</ele><time>2026-03-22T13:46:41Z</time></trkpt><trkpt lat="45.30566236638799" lon="9.009097974475333"><ele>99.0</ele><time>2026-03-22T13:46:42Z</time></trkpt><trkpt lat="45.305511699579384" lon="9.009123302902672"><ele>99.0</ele><time>2026-03-22T13:46:43Z</time></trkpt><trkpt lat="45.30537334630916" lon="9.009154715282877"><ele>98.5</ele><time>2026-03-22T13:46:44Z</time></trkpt><trkpt lat="45.305236568096184" lon="9.009220139857055"><ele>98.0</ele><time>2026-03-22T13:46:45Z</time></trkpt><trkpt lat="45.3051307588703" lon="9.009286654273915"><ele>97.5</ele><time>2026-03-22T13:46:46Z</time></trkpt><trkpt lat="45.30503777133436" lon="9.009345443559713"><ele>97.0</ele><time>2026-03-22T13:46:47Z</time></trkpt><trkpt lat="45.30491334609375" lon="9.009348492701639"><ele>97.0</ele><time>2026-03-22T13:46:48Z</time></trkpt><trkpt lat="45.304773386112764" lon="9.009380383622041"><ele>97.0</ele><time>2026-03-22T13:46:49Z</time></trkpt><trkpt lat="45.30460776444415" lon="9.009379235846385"><ele>97.0</ele><time>2026-03-22T13:46:50Z</time></trkpt><trkpt lat="45.30442648686504" lon="9.009328346209495"><ele>97.0</ele><time>2026-03-22T13:46:51Z</time></trkpt><trkpt lat="45.30424600607183" lon="9.009268799343827"><ele>97.0</ele><time>2026-03-22T13:46:52Z</time></trkpt><trkpt lat="45.3040747798337" lon="9.009115538758241"><ele>97.0</ele><time>2026-03-22T13:46:53Z</time></trkpt><trkpt lat="45.30388780299536" lon="9.009043301053199"><ele>97.66666666666667</ele><time>2026-03-22T13:46:54Z</time></trkpt><trkpt lat="45.303707258110244" lon="9.008962283969396"><ele>98.33333333333334</ele><time>2026-03-22T13:46:55Z</time></trkpt><trkpt lat="45.303529080122225" lon="9.008870736725537"><ele>99.0</ele><time>2026-03-22T13:46:56Z</time></trkpt><trkpt lat="45.303358516979046" lon="9.008774141942915"><ele>99.0</ele><time>2026-03-22T13:46:57Z</time></trkpt><trkpt lat="45.30319157227723" lon="9.008673933250527"><ele>99.0</ele><time>2026-03-22T13:46:58Z</time></trkpt><trkpt lat="45.30302938548842" lon="9.00857120748768"><ele>99.0</ele><time>2026-03-22T13:46:59Z</time></trkpt><trkpt lat="45.30286932523662" lon="9.008467328650179"><ele>99.0</ele><time>2026-03-22T13:47:00Z</time></trkpt><trkpt lat="45.302709441053516" lon="9.008364810203624"><ele>99.0</ele><time>2026-03-22T13:47:01Z</time></trkpt><trkpt lat="45.30255012777485" lon="9.008263804553371"><ele>99.0</ele><time>2026-03-22T13:47:02Z</time></trkpt><trkpt lat="45.30237584663041" lon="9.008204554780217"><ele>99.33333333333334</ele><time>2026-03-22T13:47:03Z</time></trkpt><trkpt lat="45.30221708877203" lon="9.008100552273774"><ele>99.66666666666667</ele><time>2026-03-22T13:47:04Z</time></trkpt><trkpt lat="45.302055409946746" lon="9.00800158050318"><ele>100.0</ele><time>2026-03-22T13:47:05Z</time></trkpt><trkpt lat="45.30189320702869" lon="9.007899138758535"><ele>100.0</ele><time>2026-03-22T13:47:06Z</time></trkpt><trkpt lat="45.30174801444969" lon="9.007752542073884"><ele>100.0</ele><time>2026-03-22T13:47:07Z</time></trkpt><trkpt lat="45.30158653649859" lon="9.007649061354975"><ele>100.0</ele><time>2026-03-22T13:47:08Z</time></trkpt><trkpt lat="45.30142612790273" lon="9.007545003907286"><ele>99.33333333333334</ele><time>2026-03-22T13:47:09Z</time></trkpt><trkpt lat="45.301262607382945" lon="9.007436770571337"><ele>98.66666666666666</ele><time>2026-03-22T13:47:10Z</time></trkpt><trkpt lat="45.30110223184155" lon="9.007330172551137"><ele>98.0</ele><time>2026-03-22T13:47:11Z</time></trkpt><trkpt lat="45.30094262132153" lon="9.007224645588293"><ele>98.0</ele><time>2026-03-22T13:47:12Z</time></trkpt><trkpt lat="45.300782384265" lon="9.007120119379172"><ele>98.0</ele><time>2026-03-22T13:47:13Z</time></trkpt><trkpt lat="45.30062201788966" lon="9.007018407455075"><ele>98.0</ele><time>2026-03-22T13:47:14Z</time></trkpt><trkpt lat="45.300459833508086" lon="9.00692037532513"><ele>98.0</ele><time>2026-03-22T13:47:15Z</time></trkpt><trkpt lat="45.30029734670386" lon="9.006821908856429"><ele>98.0</ele><time>2026-03-22T13:47:16Z</time></trkpt><trkpt lat="45.30013615968808" lon="9.00672423012595"><ele>98.0</ele><time>2026-03-22T13:47:17Z</time></trkpt><trkpt lat="45.29997794151616" lon="9.006625245766307"><ele>98.0</ele><time>2026-03-22T13:47:18Z</time></trkpt><trkpt lat="45.29981969149784" lon="9.006523297138749"><ele>98.0</ele><time>2026-03-22T13:47:19Z</time></trkpt><trkpt lat="45.29966072935056" lon="9.00641960656388"><ele>98.0</ele><time>2026-03-22T13:47:20Z</time></trkpt><trkpt lat="45.29950336024054" lon="9.006316956720065"><ele>98.0</ele><time>2026-03-22T13:47:21Z</time></trkpt><trkpt lat="45.29934245313945" lon="9.006211997365636"><ele>98.0</ele><time>2026-03-22T13:47:22Z</time></trkpt><trkpt lat="45.29918019917135" lon="9.006110163733824"><ele>98.0</ele><time>2026-03-22T13:47:23Z</time></trkpt><trkpt lat="45.29901611479101" lon="9.006007377752331"><ele>98.0</ele><time>2026-03-22T13:47:24Z</time></trkpt><trkpt lat="45.29885098724956" lon="9.005902395334312"><ele>98.0</ele><time>2026-03-22T13:47:25Z</time></trkpt><trkpt lat="45.29868416968263" lon="9.005794253661783"><ele>98.0</ele><time>2026-03-22T13:47:26Z</time></trkpt><trkpt lat="45.2985179530812" lon="9.005686501510436"><ele>98.33333333333333</ele><time>2026-03-22T13:47:27Z</time></trkpt><trkpt lat="45.298353860492384" lon="9.005580126275087"><ele>98.66666666666666</ele><time>2026-03-22T13:47:28Z</time></trkpt><trkpt lat="45.29818878109742" lon="9.005473724104775"><ele>99.0</ele><time>2026-03-22T13:47:29Z</time></trkpt><trkpt lat="45.29802534897177" lon="9.005368416405641"><ele>99.0</ele><time>2026-03-22T13:47:30Z</time></trkpt><trkpt lat="45.29786777024916" lon="9.00526548674654"><ele>99.0</ele><time>2026-03-22T13:47:31Z</time></trkpt><trkpt lat="45.29771291599956" lon="9.005160642022553"><ele>99.0</ele><time>2026-03-22T13:47:32Z</time></trkpt><trkpt lat="45.29755353689077" lon="9.005067084871284"><ele>98.66666666666666</ele><time>2026-03-22T13:47:33Z</time></trkpt><trkpt lat="45.29740495326969" lon="9.004939497696334"><ele>98.33333333333333</ele><time>2026-03-22T13:47:34Z</time></trkpt><trkpt lat="45.29725999868448" lon="9.004803939394375"><ele>98.0</ele><time>2026-03-22T13:47:35Z</time></trkpt><trkpt lat="45.29712261686284" lon="9.004661479304882"><ele>97.66666666666666</ele><time>2026-03-22T13:47:36Z</time></trkpt><trkpt lat="45.29698811019059" lon="9.004517495484011"><ele>97.33333333333334</ele><time>2026-03-22T13:47:37Z</time></trkpt><trkpt lat="45.29685350291375" lon="9.004375049170722"><ele>97.0</ele><time>2026-03-22T13:47:38Z</time></trkpt><trkpt lat="45.29672060639738" lon="9.004241222774874"><ele>96.75</ele><time>2026-03-22T13:47:39Z</time></trkpt><trkpt lat="45.296595529882794" lon="9.004111693648237"><ele>96.5</ele><time>2026-03-22T13:47:40Z</time></trkpt><trkpt lat="45.296477557156045" lon="9.003993925228167"><ele>96.25</ele><time>2026-03-22T13:47:41Z</time></trkpt><trkpt lat="45.296361703211765" lon="9.00387759051418"><ele>96.0</ele><time>2026-03-22T13:47:42Z</time></trkpt><trkpt lat="45.29625701446507" lon="9.00378531788235"><ele>96.5</ele><time>2026-03-22T13:47:43Z</time></trkpt><trkpt lat="45.29615197937257" lon="9.0036608192769"><ele>97.0</ele><time>2026-03-22T13:47:44Z</time></trkpt><trkpt lat="45.296032656296646" lon="9.003567336222007"><ele>97.5</ele><time>2026-03-22T13:47:45Z</time></trkpt><trkpt lat="45.29591784370687" lon="9.00346592215112"><ele>98.0</ele><time>2026-03-22T13:47:46Z</time></trkpt><trkpt lat="45.295806688473725" lon="9.00333852865768"><ele>98.0</ele><time>2026-03-22T13:47:47Z</time></trkpt><trkpt lat="45.29567733782311" lon="9.003245325757648"><ele>98.0</ele><time>2026-03-22T13:47:48Z</time></trkpt><trkpt lat="45.295540170815165" lon="9.003166073503417"><ele>98.0</ele><time>2026-03-22T13:47:49Z</time></trkpt><trkpt lat="45.29540340750688" lon="9.003088867824138"><ele>98.0</ele><time>2026-03-22T13:47:50Z</time></trkpt><trkpt lat="45.29525589550832" lon="9.003005594447828"><ele>98.33333333333333</ele><time>2026-03-22T13:47:51Z</time></trkpt><trkpt lat="45.295106542975226" lon="9.002926802649615"><ele>98.66666666666666</ele><time>2026-03-22T13:47:52Z</time></trkpt><trkpt lat="45.29496187511515" lon="9.002855018305377"><ele>99.0</ele><time>2026-03-22T13:47:53Z</time></trkpt><trkpt lat="45.29481981670232" lon="9.002772264950773"><ele>99.0</ele><time>2026-03-22T13:47:54Z</time></trkpt><trkpt lat="45.294680198156186" lon="9.002690231264031"><ele>99.0</ele><time>2026-03-22T13:47:55Z</time></trkpt><trkpt lat="45.29454184053181" lon="9.002582259382395"><ele>99.0</ele><time>2026-03-22T13:47:56Z</time></trkpt><trkpt lat="45.29441022769524" lon="9.002471185779786"><ele>99.33333333333334</ele><time>2026-03-22T13:47:57Z</time></trkpt><trkpt lat="45.29427498416627" lon="9.00236572182051"><ele>99.66666666666667</ele><time>2026-03-22T13:47:58Z</time></trkpt><trkpt lat="45.294143519744146" lon="9.00226003041063"><ele>100.0</ele><time>2026-03-22T13:47:59Z</time></trkpt><trkpt lat="45.2940128554443" lon="9.00215398107749"><ele>99.0</ele><time>2026-03-22T13:48:00Z</time></trkpt><trkpt lat="45.29387823420265" lon="9.0020436590177"><ele>98.0</ele><time>2026-03-22T13:48:01Z</time></trkpt><trkpt lat="45.29374772433548" lon="9.001933270113774"><ele>97.0</ele><time>2026-03-22T13:48:02Z</time></trkpt><trkpt lat="45.29361635424378" lon="9.0018244405142"><ele>97.0</ele><time>2026-03-22T13:48:03Z</time></trkpt><trkpt lat="45.29348494603303" lon="9.001719465420111"><ele>97.0</ele><time>2026-03-22T13:48:04Z</time></trkpt><trkpt lat="45.29335828285321" lon="9.001592912763709"><ele>97.0</ele><time>2026-03-22T13:48:05Z</time></trkpt><trkpt lat="45.29323365667496" lon="9.001490932089864"><ele>97.0</ele><time>2026-03-22T13:48:06Z</time></trkpt><trkpt lat="45.29311297770541" lon="9.001415057145211"><ele>97.19999999999999</ele><time>2026-03-22T13:48:07Z</time></trkpt><trkpt lat="45.29301000701101" lon="9.001308683425744"><ele>97.4</ele><time>2026-03-22T13:48:08Z</time></trkpt><trkpt lat="45.292909566548815" lon="9.00125275392635"><ele>97.6</ele><time>2026-03-22T13:48:09Z</time></trkpt><trkpt lat="45.292836742855584" lon="9.001175354698765"><ele>97.80000000000001</ele><time>2026-03-22T13:48:10Z</time></trkpt><trkpt lat="45.29277592441755" lon="9.001123197856614"><ele>98.0</ele><time>2026-03-22T13:48:11Z</time></trkpt><trkpt lat="45.29270532887313" lon="9.001022590364636"><ele>98.0</ele><time>2026-03-22T13:48:13Z</time></trkpt><trkpt lat="45.292638078170434" lon="9.000924907088828"><ele>98.0</ele><time>2026-03-22T13:48:15Z</time></trkpt><trkpt lat="45.292554031632015" lon="9.000873669804049"><ele>98.0</ele><time>2026-03-22T13:48:17Z</time></trkpt><trkpt lat="45.29243660639163" lon="9.000844841458996"><ele>98.0</ele><time>2026-03-22T13:49:41Z</time></trkpt><trkpt lat="45.292378997583775" lon="9.000780968456487"><ele>98.0</ele><time>2026-03-22T13:49:44Z</time></trkpt><trkpt lat="45.29227811437956" lon="9.00069856717333"><ele>97.80000000000001</ele><time>2026-03-22T13:49:46Z</time></trkpt><trkpt lat="45.292160403358324" lon="9.000645439784352"><ele>97.6</ele><time>2026-03-22T13:49:48Z</time></trkpt><trkpt lat="45.292084898638095" lon="9.000599841052905"><ele>97.4</ele><time>2026-03-22T13:49:49Z</time></trkpt><trkpt lat="45.292015945967535" lon="9.000493614954886"><ele>97.19999999999999</ele><time>2026-03-22T13:49:50Z</time></trkpt><trkpt lat="45.29192610031556" lon="9.000420393446882"><ele>97.0</ele><time>2026-03-22T13:49:51Z</time></trkpt><trkpt lat="45.291834370912476" lon="9.000345636707948"><ele>97.0</ele><time>2026-03-22T13:49:52Z</time></trkpt><trkpt lat="45.291739057871425" lon="9.000267618265044"><ele>97.0</ele><time>2026-03-22T13:49:53Z</time></trkpt><trkpt lat="45.291641775407264" lon="9.000187886011076"><ele>97.0</ele><time>2026-03-22T13:49:54Z</time></trkpt><trkpt lat="45.291547822868175" lon="9.000110882892358"><ele>97.0</ele><time>2026-03-22T13:49:55Z</time></trkpt><trkpt lat="45.29145731743205" lon="9.000036705044343"><ele>97.0</ele><time>2026-03-22T13:49:56Z</time></trkpt><trkpt lat="45.29136232795362" lon="8.999958852079693"><ele>97.19999999999999</ele><time>2026-03-22T13:49:57Z</time></trkpt><trkpt lat="45.29127512219445" lon="8.99987991812229"><ele>97.4</ele><time>2026-03-22T13:49:58Z</time></trkpt><trkpt lat="45.29117031245462" lon="8.999825630702492"><ele>97.6</ele><time>2026-03-22T13:49:59Z</time></trkpt><trkpt lat="45.291076660471944" lon="8.999746905620315"><ele>97.80000000000001</ele><time>2026-03-22T13:50:00Z</time></trkpt><trkpt lat="45.2909815825232" lon="8.999669383283882"><ele>98.0</ele><time>2026-03-22T13:50:01Z</time></trkpt><trkpt lat="45.29088417911773" lon="8.999590198312726"><ele>98.0</ele><time>2026-03-22T13:50:02Z</time></trkpt><trkpt lat="45.29078791359701" lon="8.999512662034054"><ele>98.0</ele><time>2026-03-22T13:50:03Z</time></trkpt><trkpt lat="45.2906900551973" lon="8.999432250572216"><ele>98.0</ele><time>2026-03-22T13:50:04Z</time></trkpt><trkpt lat="45.29059607995448" lon="8.99935635618473"><ele>98.0</ele><time>2026-03-22T13:50:05Z</time></trkpt><trkpt lat="45.2905047081886" lon="8.999279864446848"><ele>98.0</ele><time>2026-03-22T13:50:06Z</time></trkpt><trkpt lat="45.290413144139215" lon="8.999200649721619"><ele>98.0</ele><time>2026-03-22T13:50:07Z</time></trkpt><trkpt lat="45.290320834339134" lon="8.999120060055048"><ele>98.0</ele><time>2026-03-22T13:50:08Z</time></trkpt><trkpt lat="45.29022224542484" lon="8.999038312386968"><ele>98.0</ele><time>2026-03-22T13:50:09Z</time></trkpt><trkpt lat="45.290122170566114" lon="8.998955605893848"><ele>98.0</ele><time>2026-03-22T13:50:10Z</time></trkpt><trkpt lat="45.290021557513356" lon="8.998870481526867"><ele>98.0</ele><time>2026-03-22T13:50:11Z</time></trkpt><trkpt lat="45.2899230111139" lon="8.998781463571303"><ele>98.0</ele><time>2026-03-22T13:50:12Z</time></trkpt><trkpt lat="45.28982651460092" lon="8.9986916137679"><ele>98.0</ele><time>2026-03-22T13:50:13Z</time></trkpt><trkpt lat="45.289736532543486" lon="8.998593704922104"><ele>98.0</ele><time>2026-03-22T13:50:14Z</time></trkpt><trkpt lat="45.2896503819368" lon="8.998479757541162"><ele>98.0</ele><time>2026-03-22T13:50:15Z</time></trkpt><trkpt lat="45.289565911964935" lon="8.998358830432025"><ele>98.0</ele><time>2026-03-22T13:50:16Z</time></trkpt><trkpt lat="45.28948125094025" lon="8.998234900200503"><ele>98.0</ele><time>2026-03-22T13:50:17Z</time></trkpt><trkpt lat="45.28939419047966" lon="8.998111783253316"><ele>98.0</ele><time>2026-03-22T13:50:18Z</time></trkpt><trkpt lat="45.28930784040875" lon="8.997988838090915"><ele>97.75</ele><time>2026-03-22T13:50:19Z</time></trkpt><trkpt lat="45.28922346448561" lon="8.997861806197536"><ele>97.5</ele><time>2026-03-22T13:50:20Z</time></trkpt><trkpt lat="45.28913812024069" lon="8.997733656310094"><ele>97.25</ele><time>2026-03-22T13:50:21Z</time></trkpt><trkpt lat="45.289052730802894" lon="8.997605541630838"><ele>97.0</ele><time>2026-03-22T13:50:22Z</time></trkpt><trkpt lat="45.28896494740846" lon="8.997482148469429"><ele>97.25</ele><time>2026-03-22T13:50:23Z</time></trkpt><trkpt lat="45.288883163142096" lon="8.997364926590425"><ele>97.5</ele><time>2026-03-22T13:50:24Z</time></trkpt><trkpt lat="45.28879995808039" lon="8.997249405174477"><ele>97.75</ele><time>2026-03-22T13:50:25Z</time></trkpt><trkpt lat="45.288721994503234" lon="8.99713228669566"><ele>98.0</ele><time>2026-03-22T13:50:26Z</time></trkpt><trkpt lat="45.288645350560834" lon="8.997018965355075"><ele>98.0</ele><time>2026-03-22T13:50:27Z</time></trkpt><trkpt lat="45.28857180671354" lon="8.996909402375712"><ele>98.0</ele><time>2026-03-22T13:50:28Z</time></trkpt><trkpt lat="45.28850161251324" lon="8.996799715452356"><ele>98.0</ele><time>2026-03-22T13:50:29Z</time></trkpt><trkpt lat="45.28843184416883" lon="8.996686181104884"><ele>98.0</ele><time>2026-03-22T13:50:30Z</time></trkpt><trkpt lat="45.28836791072496" lon="8.996559652641414"><ele>98.0</ele><time>2026-03-22T13:50:31Z</time></trkpt><trkpt lat="45.28831055834205" lon="8.996422171548215"><ele>98.2</ele><time>2026-03-22T13:50:32Z</time></trkpt><trkpt lat="45.28825647605771" lon="8.996286558692475"><ele>98.4</ele><time>2026-03-22T13:50:33Z</time></trkpt><trkpt lat="45.288199814963406" lon="8.996155987606588"><ele>98.60000000000001</ele><time>2026-03-22T13:50:34Z</time></trkpt><trkpt lat="45.28814598461089" lon="8.996027620478923"><ele>98.80000000000001</ele><time>2026-03-22T13:50:35Z</time></trkpt><trkpt lat="45.288096610213955" lon="8.99589888760245"><ele>99.0</ele><time>2026-03-22T13:50:36Z</time></trkpt><trkpt lat="45.28805084419351" lon="8.995771044451885"><ele>99.0</ele><time>2026-03-22T13:50:37Z</time></trkpt><trkpt lat="45.28800574154293" lon="8.99564891682936"><ele>99.0</ele><time>2026-03-22T13:50:38Z</time></trkpt><trkpt lat="45.287965243651364" lon="8.995525681838286"><ele>99.0</ele><time>2026-03-22T13:50:39Z</time></trkpt><trkpt lat="45.28792497099846" lon="8.995400961036655"><ele>99.0</ele><time>2026-03-22T13:50:40Z</time></trkpt><trkpt lat="45.287885587521" lon="8.99527853580164"><ele>99.0</ele><time>2026-03-22T13:50:41Z</time></trkpt><trkpt lat="45.28784961921808" lon="8.995155016970381"><ele>99.0</ele><time>2026-03-22T13:50:42Z</time></trkpt><trkpt lat="45.287817897913726" lon="8.995022058287608"><ele>99.0</ele><time>2026-03-22T13:50:43Z</time></trkpt><trkpt lat="45.28778531006126" lon="8.994893187731444"><ele>99.0</ele><time>2026-03-22T13:50:44Z</time></trkpt><trkpt lat="45.28774836612587" lon="8.994776148305188"><ele>99.0</ele><time>2026-03-22T13:50:45Z</time></trkpt><trkpt lat="45.287711466399976" lon="8.994651436462961"><ele>99.0</ele><time>2026-03-22T13:50:46Z</time></trkpt><trkpt lat="45.2876746768532" lon="8.994530399463125"><ele>99.0</ele><time>2026-03-22T13:50:47Z</time></trkpt><trkpt lat="45.28763826532585" lon="8.994409271448358"><ele>99.0</ele><time>2026-03-22T13:50:48Z</time></trkpt><trkpt lat="45.28760399911109" lon="8.994290475523536"><ele>99.0</ele><time>2026-03-22T13:50:49Z</time></trkpt><trkpt lat="45.287567400206335" lon="8.994173893314876"><ele>99.0</ele><time>2026-03-22T13:50:50Z</time></trkpt><trkpt lat="45.28754635690463" lon="8.994051255409506"><ele>99.0</ele><time>2026-03-22T13:50:51Z</time></trkpt><trkpt lat="45.28752384925507" lon="8.993938662037236"><ele>99.0</ele><time>2026-03-22T13:50:52Z</time></trkpt><trkpt lat="45.28750745749558" lon="8.993816726500418"><ele>99.33333333333333</ele><time>2026-03-22T13:50:53Z</time></trkpt><trkpt lat="45.28748656875327" lon="8.993695938027479"><ele>99.66666666666666</ele><time>2026-03-22T13:50:54Z</time></trkpt><trkpt lat="45.28746468284563" lon="8.993579229663807"><ele>100.0</ele><time>2026-03-22T13:50:55Z</time></trkpt><trkpt lat="45.28745540546921" lon="8.993458803547657"><ele>100.33333333333333</ele><time>2026-03-22T13:50:56Z</time></trkpt><trkpt lat="45.28743139921435" lon="8.993351794535442"><ele>100.66666666666666</ele><time>2026-03-22T13:50:57Z</time></trkpt><trkpt lat="45.28739238638118" lon="8.993242771485592"><ele>101.0</ele><time>2026-03-22T13:50:58Z</time></trkpt><trkpt lat="45.2873572691151" lon="8.993141484518341"><ele>100.99999999999999</ele><time>2026-03-22T13:50:59Z</time></trkpt><trkpt lat="45.28733005808521" lon="8.993054141172024"><ele>101.0</ele><time>2026-03-22T13:51:00Z</time></trkpt><trkpt lat="45.28733145248611" lon="8.992955515292115"><ele>101.0</ele><time>2026-03-22T13:51:01Z</time></trkpt><trkpt lat="45.287292683758736" lon="8.99281170045779"><ele>101.0</ele><time>2026-03-22T13:51:03Z</time></trkpt><trkpt lat="45.28724615280501" lon="8.99273002265431"><ele>100.99999999999999</ele><time>2026-03-22T13:51:05Z</time></trkpt><trkpt lat="45.28714321507105" lon="8.992766382308169"><ele>101.0</ele><time>2026-03-22T13:51:07Z</time></trkpt><trkpt lat="45.28702595953571" lon="8.992842393861128"><ele>100.83333333333333</ele><time>2026-03-22T13:51:09Z</time></trkpt><trkpt lat="45.28695546613619" lon="8.992877032422603"><ele>100.66666666666666</ele><time>2026-03-22T13:51:10Z</time></trkpt><trkpt lat="45.28688155950187" lon="8.992914491251131"><ele>100.5</ele><time>2026-03-22T13:51:11Z</time></trkpt><trkpt lat="45.2868113732848" lon="8.99295357499448"><ele>100.33333333333334</ele><time>2026-03-22T13:51:12Z</time></trkpt><trkpt lat="45.286740608238794" lon="8.992997266342474"><ele>100.16666666666667</ele><time>2026-03-22T13:51:13Z</time></trkpt><trkpt lat="45.28666674685056" lon="8.993043443616578"><ele>100.0</ele><time>2026-03-22T13:51:14Z</time></trkpt><trkpt lat="45.28659236537653" lon="8.993083896700345"><ele>100.00000000000001</ele><time>2026-03-22T13:51:15Z</time></trkpt><trkpt lat="45.28652805690979" lon="8.993125157466668"><ele>100.0</ele><time>2026-03-22T13:51:16Z</time></trkpt><trkpt lat="45.286463053007715" lon="8.993146555562413"><ele>100.0</ele><time>2026-03-22T13:51:17Z</time></trkpt><trkpt lat="45.28636062051101" lon="8.99320774108242"><ele>100.0</ele><time>2026-03-22T13:51:19Z</time></trkpt><trkpt lat="45.286284073611924" lon="8.99324727008784"><ele>100.00000000000001</ele><time>2026-03-22T13:51:21Z</time></trkpt><trkpt lat="45.286216927792026" lon="8.993249405649916"><ele>100.0</ele><time>2026-03-22T13:51:24Z</time></trkpt><trkpt lat="45.28618291159893" lon="8.993091289790504"><ele>100.00000000000001</ele><time>2026-03-22T13:51:25Z</time></trkpt><trkpt lat="45.286164530436295" lon="8.993002018721869"><ele>100.0</ele><time>2026-03-22T13:51:26Z</time></trkpt><trkpt lat="45.286135300706256" lon="8.992914848459211"><ele>100.0</ele><time>2026-03-22T13:51:27Z</time></trkpt><trkpt lat="45.286107337214226" lon="8.99283078088775"><ele>100.0</ele><time>2026-03-22T13:51:28Z</time></trkpt><trkpt lat="45.286079715697596" lon="8.992730780150533"><ele>100.0</ele><time>2026-03-22T13:51:29Z</time></trkpt><trkpt lat="45.2860542492626" lon="8.992624248390051"><ele>100.00000000000001</ele><time>2026-03-22T13:51:30Z</time></trkpt><trkpt lat="45.28602320606728" lon="8.99251487053688"><ele>100.0</ele><time>2026-03-22T13:51:31Z</time></trkpt><trkpt lat="45.28599234506668" lon="8.992409130057837"><ele>100.33333333333334</ele><time>2026-03-22T13:51:32Z</time></trkpt><trkpt lat="45.28596329589597" lon="8.992313996219991"><ele>100.66666666666667</ele><time>2026-03-22T13:51:33Z</time></trkpt><trkpt lat="45.28594863885578" lon="8.992219190007289"><ele>101.0</ele><time>2026-03-22T13:51:34Z</time></trkpt><trkpt lat="45.285906269026306" lon="8.992120742365413"><ele>101.33333333333334</ele><time>2026-03-22T13:51:36Z</time></trkpt><trkpt lat="45.285777393538304" lon="8.992140095252642"><ele>101.66666666666667</ele><time>2026-03-22T13:51:39Z</time></trkpt><trkpt lat="45.285711730093446" lon="8.992155984879071"><ele>102.0</ele><time>2026-03-22T13:51:40Z</time></trkpt><trkpt lat="45.28564325031006" lon="8.992192137222816"><ele>101.66666666666667</ele><time>2026-03-22T13:51:41Z</time></trkpt><trkpt lat="45.28557154927141" lon="8.992229629590279"><ele>101.33333333333334</ele><time>2026-03-22T13:51:42Z</time></trkpt><trkpt lat="45.28549913860266" lon="8.992295065249095"><ele>101.0</ele><time>2026-03-22T13:51:43Z</time></trkpt><trkpt lat="45.285415356466004" lon="8.992332874203294"><ele>100.66666666666667</ele><time>2026-03-22T13:51:44Z</time></trkpt><trkpt lat="45.28532752711584" lon="8.992374318480381"><ele>100.33333333333334</ele><time>2026-03-22T13:51:45Z</time></trkpt><trkpt lat="45.28524017240715" lon="8.992415903330755"><ele>100.0</ele><time>2026-03-22T13:51:46Z</time></trkpt><trkpt lat="45.285154046817404" lon="8.992455733245249"><ele>100.00000000000001</ele><time>2026-03-22T13:51:47Z</time></trkpt><trkpt lat="45.28507317771806" lon="8.992492213786843"><ele>100.0</ele><time>2026-03-22T13:51:48Z</time></trkpt><trkpt lat="45.284995088320294" lon="8.992530069690462"><ele>100.0</ele><time>2026-03-22T13:51:49Z</time></trkpt><trkpt lat="45.284912226906364" lon="8.992552177063114"><ele>100.0</ele><time>2026-03-22T13:51:50Z</time></trkpt><trkpt lat="45.28483247548818" lon="8.992592809749059"><ele>100.00000000000001</ele><time>2026-03-22T13:51:51Z</time></trkpt><trkpt lat="45.28475390654219" lon="8.992635179577873"><ele>100.0</ele><time>2026-03-22T13:51:52Z</time></trkpt><trkpt lat="45.28467162825366" lon="8.99267954973956"><ele>99.6</ele><time>2026-03-22T13:51:53Z</time></trkpt><trkpt lat="45.28458829817627" lon="8.992724487071458"><ele>99.2</ele><time>2026-03-22T13:51:54Z</time></trkpt><trkpt lat="45.28449580559564" lon="8.992736487916133"><ele>98.80000000000001</ele><time>2026-03-22T13:51:55Z</time></trkpt><trkpt lat="45.284413221032246" lon="8.99278099908598"><ele>98.4</ele><time>2026-03-22T13:51:56Z</time></trkpt><trkpt lat="45.284330079644256" lon="8.992825810369105"><ele>98.0</ele><time>2026-03-22T13:51:57Z</time></trkpt><trkpt lat="45.28424379930253" lon="8.9928723134364"><ele>98.0</ele><time>2026-03-22T13:51:58Z</time></trkpt><trkpt lat="45.28416244661583" lon="8.99291531375756"><ele>98.0</ele><time>2026-03-22T13:51:59Z</time></trkpt><trkpt lat="45.28407620109737" lon="8.99296114863663"><ele>98.0</ele><time>2026-03-22T13:52:00Z</time></trkpt><trkpt lat="45.283983239338504" lon="8.993010552839646"><ele>98.0</ele><time>2026-03-22T13:52:01Z</time></trkpt><trkpt lat="45.28388901275215" lon="8.993061905133393"><ele>98.0</ele><time>2026-03-22T13:52:02Z</time></trkpt><trkpt lat="45.28379421887981" lon="8.99311406558124"><ele>98.2</ele><time>2026-03-22T13:52:03Z</time></trkpt><trkpt lat="45.28369876951159" lon="8.993166459565339"><ele>98.4</ele><time>2026-03-22T13:52:04Z</time></trkpt><trkpt lat="45.28359510374469" lon="8.993222816514807"><ele>98.60000000000001</ele><time>2026-03-22T13:52:05Z</time></trkpt><trkpt lat="45.283490754794514" lon="8.99327954487106"><ele>98.80000000000001</ele><time>2026-03-22T13:52:06Z</time></trkpt><trkpt lat="45.28338327470659" lon="8.993337975417589"><ele>99.0</ele><time>2026-03-22T13:52:07Z</time></trkpt><trkpt lat="45.28327184752526" lon="8.993395697320896"><ele>99.0</ele><time>2026-03-22T13:52:08Z</time></trkpt><trkpt lat="45.28315783607844" lon="8.993453069546778"><ele>99.0</ele><time>2026-03-22T13:52:09Z</time></trkpt><trkpt lat="45.283058155631984" lon="8.993503091833693"><ele>99.0</ele><time>2026-03-22T13:52:10Z</time></trkpt><trkpt lat="45.282963971662056" lon="8.993549602726688"><ele>99.0</ele><time>2026-03-22T13:52:11Z</time></trkpt><trkpt lat="45.282883224892615" lon="8.993589370186616"><ele>99.0</ele><time>2026-03-22T13:52:12Z</time></trkpt><trkpt lat="45.28280999421983" lon="8.993625435989983"><ele>99.0</ele><time>2026-03-22T13:52:13Z</time></trkpt><trkpt lat="45.28274093150572" lon="8.99365944909973"><ele>99.0</ele><time>2026-03-22T13:52:14Z</time></trkpt><trkpt lat="45.28265805359076" lon="8.993700266141147"><ele>99.0</ele><time>2026-03-22T13:52:15Z</time></trkpt><trkpt lat="45.28256137396766" lon="8.993748112653446"><ele>99.0</ele><time>2026-03-22T13:52:16Z</time></trkpt><trkpt lat="45.28246357818189" lon="8.993796728668485"><ele>99.0</ele><time>2026-03-22T13:52:17Z</time></trkpt><trkpt lat="45.28236060642956" lon="8.99384791775641"><ele>99.0</ele><time>2026-03-22T13:52:18Z</time></trkpt><trkpt lat="45.28227153910745" lon="8.993892194704932"><ele>99.0</ele><time>2026-03-22T13:52:19Z</time></trkpt><trkpt lat="45.28219746177615" lon="8.993929307074957"><ele>99.0</ele><time>2026-03-22T13:52:20Z</time></trkpt><trkpt lat="45.28208761766602" lon="8.993984546080064"><ele>99.0</ele><time>2026-03-22T13:52:22Z</time></trkpt><trkpt lat="45.282022368244334" lon="8.99404056543614"><ele>99.0</ele><time>2026-03-22T13:52:23Z</time></trkpt><trkpt lat="45.281946630750156" lon="8.99407941065148"><ele>99.0</ele><time>2026-03-22T13:52:24Z</time></trkpt><trkpt lat="45.28186511199736" lon="8.994116024667026"><ele>99.0</ele><time>2026-03-22T13:52:25Z</time></trkpt><trkpt lat="45.281775596917115" lon="8.994130797683793"><ele>99.0</ele><time>2026-03-22T13:52:26Z</time></trkpt><trkpt lat="45.28168106917983" lon="8.994171087357904"><ele>99.0</ele><time>2026-03-22T13:52:27Z</time></trkpt><trkpt lat="45.28157755815323" lon="8.994216439608543"><ele>99.0</ele><time>2026-03-22T13:52:28Z</time></trkpt><trkpt lat="45.281471439891895" lon="8.994286678095484"><ele>99.0</ele><time>2026-03-22T13:52:29Z</time></trkpt><trkpt lat="45.28137534694647" lon="8.994327139556807"><ele>99.0</ele><time>2026-03-22T13:52:30Z</time></trkpt><trkpt lat="45.281289245502116" lon="8.994370508593326"><ele>99.0</ele><time>2026-03-22T13:52:31Z</time></trkpt><trkpt lat="45.28118885619694" lon="8.994417134659406"><ele>99.0</ele><time>2026-03-22T13:52:32Z</time></trkpt><trkpt lat="45.28108357485385" lon="8.994460617131152"><ele>99.0</ele><time>2026-03-22T13:52:33Z</time></trkpt><trkpt lat="45.2809747342718" lon="8.994505498658045"><ele>99.0</ele><time>2026-03-22T13:52:34Z</time></trkpt><trkpt lat="45.28086501645034" lon="8.99456089589465"><ele>99.0</ele><time>2026-03-22T13:52:35Z</time></trkpt><trkpt lat="45.28076922833852" lon="8.99460473158143"><ele>99.0</ele><time>2026-03-22T13:52:36Z</time></trkpt><trkpt lat="45.28068352965721" lon="8.994644436242025"><ele>99.0</ele><time>2026-03-22T13:52:37Z</time></trkpt><trkpt lat="45.280615964440194" lon="8.994675297909664"><ele>99.0</ele><time>2026-03-22T13:52:38Z</time></trkpt><trkpt lat="45.280528135865715" lon="8.994685475484648"><ele>99.0</ele><time>2026-03-22T13:52:40Z</time></trkpt><trkpt lat="45.280439826526326" lon="8.994673424938512"><ele>99.0</ele><time>2026-03-22T13:53:51Z</time></trkpt><trkpt lat="45.28037226162592" lon="8.994769473158138"><ele>99.0</ele><time>2026-03-22T13:53:53Z</time></trkpt><trkpt lat="45.28026199540009" lon="8.994856982242645"><ele>99.0</ele><time>2026-03-22T13:53:55Z</time></trkpt><trkpt lat="45.280187241567255" lon="8.994889220225037"><ele>99.0</ele><time>2026-03-22T13:53:56Z</time></trkpt><trkpt lat="45.280099107203604" lon="8.994868839949646"><ele>99.0</ele><time>2026-03-22T13:53:57Z</time></trkpt><trkpt lat="45.280016408503855" lon="8.99490787518038"><ele>99.0</ele><time>2026-03-22T13:53:58Z</time></trkpt><trkpt lat="45.27993614724421" lon="8.994947036841182"><ele>99.0</ele><time>2026-03-22T13:53:59Z</time></trkpt><trkpt lat="45.279868248600145" lon="8.994980323913044"><ele>99.0</ele><time>2026-03-22T13:54:00Z</time></trkpt><trkpt lat="45.279756824450914" lon="8.995034489295223"><ele>99.0</ele><time>2026-03-22T13:54:02Z</time></trkpt><trkpt lat="45.279649641598894" lon="8.995086916564619"><ele>99.0</ele><time>2026-03-22T13:54:04Z</time></trkpt><trkpt lat="45.279548770115" lon="8.99515890651052"><ele>99.0</ele><time>2026-03-22T13:54:06Z</time></trkpt><trkpt lat="45.27943559640537" lon="8.99519181658626"><ele>99.0</ele><time>2026-03-22T13:54:08Z</time></trkpt><trkpt lat="45.27934087308635" lon="8.995259625108414"><ele>99.0</ele><time>2026-03-22T13:54:10Z</time></trkpt><trkpt lat="45.27927570759802" lon="8.995268163247895"><ele>99.0</ele><time>2026-03-22T13:54:11Z</time></trkpt><trkpt lat="45.27921356659662" lon="8.995296892552698"><ele>99.0</ele><time>2026-03-22T13:54:12Z</time></trkpt><trkpt lat="45.27914408341577" lon="8.995328345876565"><ele>99.0</ele><time>2026-03-22T13:54:13Z</time></trkpt><trkpt lat="45.279068781750446" lon="8.995362101805453"><ele>99.0</ele><time>2026-03-22T13:54:14Z</time></trkpt><trkpt lat="45.278992415272604" lon="8.995396335042381"><ele>99.0</ele><time>2026-03-22T13:54:15Z</time></trkpt><trkpt lat="45.27890676469471" lon="8.995434926593335"><ele>99.0</ele><time>2026-03-22T13:54:16Z</time></trkpt><trkpt lat="45.27881986863632" lon="8.995499115458593"><ele>99.0</ele><time>2026-03-22T13:54:17Z</time></trkpt><trkpt lat="45.278723574068934" lon="8.995547953953391"><ele>99.0</ele><time>2026-03-22T13:54:18Z</time></trkpt><trkpt lat="45.27862184602627" lon="8.995601778442305"><ele>99.0</ele><time>2026-03-22T13:54:19Z</time></trkpt><trkpt lat="45.278521279949196" lon="8.995653862810286"><ele>99.0</ele><time>2026-03-22T13:54:20Z</time></trkpt><trkpt lat="45.27841609417961" lon="8.995685906052888"><ele>99.0</ele><time>2026-03-22T13:54:21Z</time></trkpt><trkpt lat="45.278325431746296" lon="8.995756003355197"><ele>99.0</ele><time>2026-03-22T13:54:22Z</time></trkpt><trkpt lat="45.2782278442547" lon="8.995806609391632"><ele>99.0</ele><time>2026-03-22T13:54:23Z</time></trkpt><trkpt lat="45.278132721140445" lon="8.995856102101085"><ele>99.0</ele><time>2026-03-22T13:54:24Z</time></trkpt><trkpt lat="45.278040946184696" lon="8.995902931709201"><ele>99.0</ele><time>2026-03-22T13:54:25Z</time></trkpt><trkpt lat="45.277953852223526" lon="8.995945824253951"><ele>99.0</ele><time>2026-03-22T13:54:26Z</time></trkpt><trkpt lat="45.277879822254384" lon="8.995981465305967"><ele>99.0</ele><time>2026-03-22T13:54:27Z</time></trkpt><trkpt lat="45.27780795355991" lon="8.995986635757472"><ele>99.0</ele><time>2026-03-22T13:54:28Z</time></trkpt><trkpt lat="45.27773384762859" lon="8.996006164907927"><ele>99.0</ele><time>2026-03-22T13:54:29Z</time></trkpt><trkpt lat="45.27765795695797" lon="8.996005412601278"><ele>99.0</ele><time>2026-03-22T13:54:30Z</time></trkpt><trkpt lat="45.27757711180549" lon="8.996013655693206"><ele>99.0</ele><time>2026-03-22T13:54:31Z</time></trkpt><trkpt lat="45.27752724913983" lon="8.995952396209889"><ele>99.0</ele><time>2026-03-22T13:54:32Z</time></trkpt><trkpt lat="45.27743745233707" lon="8.996209028714715"><ele>99.0</ele><time>2026-03-22T13:54:33Z</time></trkpt><trkpt lat="45.27737246215466" lon="8.99624159999981"><ele>99.0</ele><time>2026-03-22T13:54:34Z</time></trkpt><trkpt lat="45.277304971259284" lon="8.996280647580534"><ele>99.0</ele><time>2026-03-22T13:54:35Z</time></trkpt><trkpt lat="45.277239643020025" lon="8.9963143200012"><ele>99.6</ele><time>2026-03-22T13:54:36Z</time></trkpt><trkpt lat="45.27711940837193" lon="8.996383783669176"><ele>100.2</ele><time>2026-03-22T13:54:38Z</time></trkpt><trkpt lat="45.27705048837453" lon="8.996422586620943"><ele>100.8</ele><time>2026-03-22T13:54:39Z</time></trkpt><trkpt lat="45.27697429875248" lon="8.996460184653618"><ele>101.39999999999999</ele><time>2026-03-22T13:54:40Z</time></trkpt><trkpt lat="45.27688935926248" lon="8.996500814993555"><ele>102.0</ele><time>2026-03-22T13:54:41Z</time></trkpt><trkpt lat="45.27680227700478" lon="8.996550420817274"><ele>102.0</ele><time>2026-03-22T13:54:42Z</time></trkpt><trkpt lat="45.2767114319179" lon="8.996596624285761"><ele>102.0</ele><time>2026-03-22T13:54:43Z</time></trkpt><trkpt lat="45.27661955111109" lon="8.996641374336757"><ele>102.0</ele><time>2026-03-22T13:54:44Z</time></trkpt><trkpt lat="45.27653161205241" lon="8.996681944873604"><ele>102.0</ele><time>2026-03-22T13:54:45Z</time></trkpt><trkpt lat="45.276441152405944" lon="8.996722979717685"><ele>102.0</ele><time>2026-03-22T13:54:46Z</time></trkpt><trkpt lat="45.27634798979996" lon="8.996762182925657"><ele>102.5</ele><time>2026-03-22T13:54:47Z</time></trkpt><trkpt lat="45.276262254455126" lon="8.99679627365332"><ele>103.0</ele><time>2026-03-22T13:54:48Z</time></trkpt><trkpt lat="45.27618403414696" lon="8.996828866669079"><ele>103.5</ele><time>2026-03-22T13:54:49Z</time></trkpt><trkpt lat="45.27610881532868" lon="8.996860829246895"><ele>104.0</ele><time>2026-03-22T13:54:50Z</time></trkpt><trkpt lat="45.27604390009603" lon="8.996895249962595"><ele>104.5</ele><time>2026-03-22T13:54:51Z</time></trkpt><trkpt lat="45.27597628407388" lon="8.996933645982452"><ele>105.0</ele><time>2026-03-22T13:54:52Z</time></trkpt><trkpt lat="45.27590637788349" lon="8.996968291450855"><ele>105.0</ele><time>2026-03-22T13:54:53Z</time></trkpt><trkpt lat="45.27583306003317" lon="8.99700238296848"><ele>105.0</ele><time>2026-03-22T13:54:54Z</time></trkpt><trkpt lat="45.275760782885996" lon="8.997035874812788"><ele>105.0</ele><time>2026-03-22T13:54:55Z</time></trkpt><trkpt lat="45.27568295043048" lon="8.997068499208932"><ele>105.0</ele><time>2026-03-22T13:54:56Z</time></trkpt><trkpt lat="45.27559332741452" lon="8.997114445164394"><ele>105.0</ele><time>2026-03-22T13:54:57Z</time></trkpt><trkpt lat="45.275509946331525" lon="8.99715201624606"><ele>105.0</ele><time>2026-03-22T13:54:58Z</time></trkpt><trkpt lat="45.275432058937945" lon="8.997183924498122"><ele>104.33333333333333</ele><time>2026-03-22T13:54:59Z</time></trkpt><trkpt lat="45.275353970153866" lon="8.997216165821554"><ele>103.66666666666666</ele><time>2026-03-22T13:55:00Z</time></trkpt><trkpt lat="45.275273466222444" lon="8.997250698468795"><ele>103.0</ele><time>2026-03-22T13:55:01Z</time></trkpt><trkpt lat="45.27520059049775" lon="8.997286426053597"><ele>102.33333333333333</ele><time>2026-03-22T13:55:02Z</time></trkpt><trkpt lat="45.275123392916996" lon="8.997323771317314"><ele>101.66666666666666</ele><time>2026-03-22T13:55:03Z</time></trkpt><trkpt lat="45.27504469331067" lon="8.997357830112088"><ele>101.0</ele><time>2026-03-22T13:55:04Z</time></trkpt><trkpt lat="45.27496763734355" lon="8.99739217249591"><ele>100.99999999999999</ele><time>2026-03-22T13:55:05Z</time></trkpt><trkpt lat="45.27488479472853" lon="8.997428224902377"><ele>101.0</ele><time>2026-03-22T13:55:06Z</time></trkpt><trkpt lat="45.27481346816592" lon="8.997463911238189"><ele>101.0</ele><time>2026-03-22T13:55:07Z</time></trkpt><trkpt lat="45.27474665472242" lon="8.99749532292342"><ele>101.0</ele><time>2026-03-22T13:55:08Z</time></trkpt><trkpt lat="45.27468597704335" lon="8.997523422786882"><ele>100.99999999999999</ele><time>2026-03-22T13:55:09Z</time></trkpt><trkpt lat="45.27459125964108" lon="8.997575098952238"><ele>101.0</ele><time>2026-03-22T13:55:11Z</time></trkpt><trkpt lat="45.27452008140884" lon="8.99753522577128"><ele>100.33333333333333</ele><time>2026-03-22T13:55:14Z</time></trkpt><trkpt lat="45.27451858778997" lon="8.997350825260138"><ele>99.66666666666666</ele><time>2026-03-22T13:55:16Z</time></trkpt><trkpt lat="45.27451749483019" lon="8.99724906883779"><ele>99.0</ele><time>2026-03-22T13:55:17Z</time></trkpt><trkpt lat="45.274515524599025" lon="8.997147217945951"><ele>98.33333333333334</ele><time>2026-03-22T13:55:18Z</time></trkpt><trkpt lat="45.27451484230616" lon="8.997036633376853"><ele>97.66666666666667</ele><time>2026-03-22T13:55:19Z</time></trkpt><trkpt lat="45.27451108773675" lon="8.99692688988835"><ele>97.0</ele><time>2026-03-22T13:55:20Z</time></trkpt><trkpt lat="45.274507766434056" lon="8.996825603112638"><ele>97.0</ele><time>2026-03-22T13:55:21Z</time></trkpt><trkpt lat="45.27450229714733" lon="8.99672809149107"><ele>97.0</ele><time>2026-03-22T13:55:22Z</time></trkpt><trkpt lat="45.2744986152097" lon="8.996633868922226"><ele>97.0</ele><time>2026-03-22T13:55:23Z</time></trkpt><trkpt lat="45.274493156956886" lon="8.996538267277069"><ele>97.0</ele><time>2026-03-22T13:55:24Z</time></trkpt><trkpt lat="45.27448742413727" lon="8.996440510824298"><ele>97.0</ele><time>2026-03-22T13:55:25Z</time></trkpt><trkpt lat="45.274482171704584" lon="8.996333618665105"><ele>97.0</ele><time>2026-03-22T13:55:26Z</time></trkpt><trkpt lat="45.27447807858917" lon="8.996233109548951"><ele>97.0</ele><time>2026-03-22T13:55:27Z</time></trkpt><trkpt lat="45.27447582541903" lon="8.996130099540183"><ele>97.0</ele><time>2026-03-22T13:55:28Z</time></trkpt><trkpt lat="45.27447930249277" lon="8.996034551551961"><ele>97.0</ele><time>2026-03-22T13:55:29Z</time></trkpt><trkpt lat="45.27447922793295" lon="8.995936552303071"><ele>97.0</ele><time>2026-03-22T13:55:30Z</time></trkpt><trkpt lat="45.274461573346734" lon="8.995765172513677"><ele>97.0</ele><time>2026-03-22T13:55:32Z</time></trkpt><trkpt lat="45.27445488339201" lon="8.995583793208548"><ele>97.0</ele><time>2026-03-22T13:55:34Z</time></trkpt><trkpt lat="45.274453988460664" lon="8.995487091053537"><ele>97.00000000000001</ele><time>2026-03-22T13:55:35Z</time></trkpt><trkpt lat="45.274451263920255" lon="8.995330710673205"><ele>97.0</ele><time>2026-03-22T13:55:37Z</time></trkpt><trkpt lat="45.27444937584956" lon="8.995187520021487"><ele>97.0</ele><time>2026-03-22T13:55:39Z</time></trkpt><trkpt lat="45.27444018181646" lon="8.995032122688242"><ele>97.0</ele><time>2026-03-22T13:55:41Z</time></trkpt><trkpt lat="45.27444072791006" lon="8.9949406057741"><ele>97.00000000000001</ele><time>2026-03-22T13:55:42Z</time></trkpt><trkpt lat="45.27443583357657" lon="8.99484964813248"><ele>97.0</ele><time>2026-03-22T13:55:43Z</time></trkpt><trkpt lat="45.27442360582375" lon="8.9947518161943"><ele>96.66666666666667</ele><time>2026-03-22T13:55:44Z</time></trkpt><trkpt lat="45.274426671935665" lon="8.994649721559766"><ele>96.33333333333334</ele><time>2026-03-22T13:55:45Z</time></trkpt><trkpt lat="45.27442334623695" lon="8.994539066823876"><ele>96.0</ele><time>2026-03-22T13:55:46Z</time></trkpt><trkpt lat="45.2744204014545" lon="8.994446066827233"><ele>95.66666666666667</ele><time>2026-03-22T13:55:47Z</time></trkpt><trkpt lat="45.27441921188775" lon="8.994353386863628"><ele>95.33333333333334</ele><time>2026-03-22T13:55:48Z</time></trkpt><trkpt lat="45.2744152099578" lon="8.994259576765687"><ele>95.0</ele><time>2026-03-22T13:55:49Z</time></trkpt><trkpt lat="45.27440617963572" lon="8.99407353703338"><ele>94.83333333333334</ele><time>2026-03-22T13:55:51Z</time></trkpt><trkpt lat="45.27440624012624" lon="8.993982396547697"><ele>94.66666666666667</ele><time>2026-03-22T13:55:52Z</time></trkpt><trkpt lat="45.27440710763454" lon="8.993835333464228"><ele>94.5</ele><time>2026-03-22T13:55:54Z</time></trkpt><trkpt lat="45.274423987938796" lon="8.99371460772396"><ele>94.33333333333333</ele><time>2026-03-22T13:55:56Z</time></trkpt><trkpt lat="45.27443740268307" lon="8.993612230766407"><ele>94.16666666666666</ele><time>2026-03-22T13:56:00Z</time></trkpt><trkpt lat="45.274452574384334" lon="8.993510680594872"><ele>94.0</ele><time>2026-03-22T13:56:02Z</time></trkpt><trkpt lat="45.274506672031464" lon="8.99345877195772"><ele>94.0</ele><time>2026-03-22T13:56:06Z</time></trkpt><trkpt lat="45.274513385562585" lon="8.993554463349502"><ele>94.0</ele><time>2026-03-22T13:56:13Z</time></trkpt><trkpt lat="45.27447729695683" lon="8.99364667385861"><ele>94.0</ele><time>2026-03-22T13:56:17Z</time></trkpt><trkpt lat="45.274440597644485" lon="8.993731552384217"><ele>94.0</ele><time>2026-03-22T13:56:21Z</time></trkpt><trkpt lat="45.274426562551305" lon="8.993901728314423"><ele>94.0</ele><time>2026-03-22T13:56:24Z</time></trkpt><trkpt lat="45.27442312144001" lon="8.994001089267057"><ele>94.0</ele><time>2026-03-22T13:56:26Z</time></trkpt><trkpt lat="45.27444763162882" lon="8.994325337956447"><ele>94.2</ele><time>2026-03-22T13:56:29Z</time></trkpt><trkpt lat="45.27445054023892" lon="8.99443428343126"><ele>94.4</ele><time>2026-03-22T13:56:33Z</time></trkpt><trkpt lat="45.274466842509284" lon="8.994581090901454"><ele>94.6</ele><time>2026-03-22T13:56:35Z</time></trkpt><trkpt lat="45.27446759230342" lon="8.994762104993036"><ele>94.8</ele><time>2026-03-22T13:56:37Z</time></trkpt><trkpt lat="45.274473183084815" lon="8.994901580243518"><ele>95.0</ele><time>2026-03-22T13:56:39Z</time></trkpt><trkpt lat="45.27448182033182" lon="8.99505589313517"><ele>95.4</ele><time>2026-03-22T13:56:41Z</time></trkpt><trkpt lat="45.27448140319959" lon="8.995215541078675"><ele>95.8</ele><time>2026-03-22T13:56:43Z</time></trkpt><trkpt lat="45.274492903139446" lon="8.99536131554848"><ele>96.19999999999999</ele><time>2026-03-22T13:56:45Z</time></trkpt><trkpt lat="45.27446760968912" lon="8.995517104122017"><ele>96.6</ele><time>2026-03-22T13:56:47Z</time></trkpt><trkpt lat="45.274470781878904" lon="8.995610054599586"><ele>97.0</ele><time>2026-03-22T13:56:48Z</time></trkpt><trkpt lat="45.2744710554089" lon="8.995709131140018"><ele>97.00000000000001</ele><time>2026-03-22T13:56:49Z</time></trkpt><trkpt lat="45.274475845737264" lon="8.995801905565713"><ele>97.0</ele><time>2026-03-22T13:56:50Z</time></trkpt><trkpt lat="45.27448190182086" lon="8.995903739798031"><ele>97.0</ele><time>2026-03-22T13:56:51Z</time></trkpt><trkpt lat="45.274482036557586" lon="8.996074604573664"><ele>97.0</ele><time>2026-03-22T13:56:53Z</time></trkpt><trkpt lat="45.274484486929715" lon="8.996177899739095"><ele>97.00000000000001</ele><time>2026-03-22T13:56:54Z</time></trkpt><trkpt lat="45.27449019708554" lon="8.996330061321451"><ele>97.0</ele><time>2026-03-22T13:56:56Z</time></trkpt><trkpt lat="45.27449661568186" lon="8.996478104200706"><ele>97.00000000000001</ele><time>2026-03-22T13:56:58Z</time></trkpt><trkpt lat="45.27449519722649" lon="8.996587628418357"><ele>97.0</ele><time>2026-03-22T13:56:59Z</time></trkpt><trkpt lat="45.274512725675955" lon="8.996702322866124"><ele>97.0</ele><time>2026-03-22T13:57:00Z</time></trkpt><trkpt lat="45.27451202940223" lon="8.996856014306141"><ele>97.0</ele><time>2026-03-22T13:57:02Z</time></trkpt><trkpt lat="45.27451531310733" lon="8.99695343887955"><ele>97.00000000000001</ele><time>2026-03-22T13:57:03Z</time></trkpt><trkpt lat="45.274517934972344" lon="8.99705530061815"><ele>97.0</ele><time>2026-03-22T13:57:04Z</time></trkpt><trkpt lat="45.27452166218968" lon="8.997149188981703"><ele>97.00000000000001</ele><time>2026-03-22T13:57:05Z</time></trkpt><trkpt lat="45.27452110045803" lon="8.997241244631622"><ele>97.0</ele><time>2026-03-22T13:57:06Z</time></trkpt><trkpt lat="45.274530332249675" lon="8.997341189242407"><ele>97.0</ele><time>2026-03-22T13:57:07Z</time></trkpt><trkpt lat="45.27454512255543" lon="8.997490663820159"><ele>97.0</ele><time>2026-03-22T13:57:09Z</time></trkpt><trkpt lat="45.27457871399573" lon="8.997571305152888"><ele>97.00000000000001</ele><time>2026-03-22T13:57:11Z</time></trkpt><trkpt lat="45.274653875611456" lon="8.997562060587168"><ele>97.0</ele><time>2026-03-22T13:57:13Z</time></trkpt><trkpt lat="45.27475486689964" lon="8.997486474088113"><ele>97.66666666666667</ele><time>2026-03-22T13:57:15Z</time></trkpt><trkpt lat="45.274813225990684" lon="8.997448007943106"><ele>98.33333333333334</ele><time>2026-03-22T13:57:16Z</time></trkpt><trkpt lat="45.27493009970826" lon="8.99739176310676"><ele>99.0</ele><time>2026-03-22T13:57:18Z</time></trkpt><trkpt lat="45.274994551055656" lon="8.997364142456346"><ele>99.66666666666666</ele><time>2026-03-22T13:57:19Z</time></trkpt><trkpt lat="45.27506918467866" lon="8.997331584993667"><ele>100.33333333333333</ele><time>2026-03-22T13:57:20Z</time></trkpt><trkpt lat="45.275146113221076" lon="8.997294214891701"><ele>101.0</ele><time>2026-03-22T13:57:21Z</time></trkpt><trkpt lat="45.27522234000394" lon="8.997255716254749"><ele>100.99999999999999</ele><time>2026-03-22T13:57:22Z</time></trkpt><trkpt lat="45.27531223378951" lon="8.997219803158547"><ele>101.0</ele><time>2026-03-22T13:57:23Z</time></trkpt><trkpt lat="45.27538292119851" lon="8.997180046389028"><ele>101.0</ele><time>2026-03-22T13:57:24Z</time></trkpt><trkpt lat="45.27546254070709" lon="8.997144136518935"><ele>101.0</ele><time>2026-03-22T13:57:25Z</time></trkpt><trkpt lat="45.275541203893944" lon="8.997110905836465"><ele>100.99999999999999</ele><time>2026-03-22T13:57:26Z</time></trkpt><trkpt lat="45.27562255071072" lon="8.997065738286368"><ele>101.0</ele><time>2026-03-22T13:57:27Z</time></trkpt><trkpt lat="45.275702761525615" lon="8.997023675730379"><ele>101.66666666666666</ele><time>2026-03-22T13:57:28Z</time></trkpt><trkpt lat="45.275781178595864" lon="8.996982125090284"><ele>102.33333333333333</ele><time>2026-03-22T13:57:29Z</time></trkpt><trkpt lat="45.275865134126704" lon="8.996943712387584"><ele>103.0</ele><time>2026-03-22T13:57:30Z</time></trkpt><trkpt lat="45.2759468743185" lon="8.996902420765954"><ele>103.66666666666666</ele><time>2026-03-22T13:57:31Z</time></trkpt><trkpt lat="45.27602299904953" lon="8.996864073320646"><ele>104.33333333333333</ele><time>2026-03-22T13:57:32Z</time></trkpt><trkpt lat="45.276093798500426" lon="8.996824118054857"><ele>105.0</ele><time>2026-03-22T13:57:33Z</time></trkpt><trkpt lat="45.27616036963678" lon="8.996790662496982"><ele>105.0</ele><time>2026-03-22T13:57:34Z</time></trkpt><trkpt lat="45.27624391027726" lon="8.99675858459763"><ele>105.0</ele><time>2026-03-22T13:57:35Z</time></trkpt><trkpt lat="45.27632040771404" lon="8.996728623363156"><ele>105.0</ele><time>2026-03-22T13:57:36Z</time></trkpt><trkpt lat="45.276401667052774" lon="8.996695594348774"><ele>105.0</ele><time>2026-03-22T13:57:37Z</time></trkpt><trkpt lat="45.27648810955623" lon="8.996663395212774"><ele>105.0</ele><time>2026-03-22T13:57:38Z</time></trkpt><trkpt lat="45.27657039919529" lon="8.99662428369352"><ele>105.0</ele><time>2026-03-22T13:57:39Z</time></trkpt><trkpt lat="45.276653676828545" lon="8.996584217377514"><ele>104.5</ele><time>2026-03-22T13:57:40Z</time></trkpt><trkpt lat="45.276732658155936" lon="8.996546434769758"><ele>104.0</ele><time>2026-03-22T13:57:41Z</time></trkpt><trkpt lat="45.27681028966381" lon="8.996508967220315"><ele>103.5</ele><time>2026-03-22T13:57:42Z</time></trkpt><trkpt lat="45.276901201906846" lon="8.99646570272435"><ele>103.0</ele><time>2026-03-22T13:57:43Z</time></trkpt><trkpt lat="45.27698339815802" lon="8.9964211685951"><ele>102.5</ele><time>2026-03-22T13:57:44Z</time></trkpt><trkpt lat="45.27707668202357" lon="8.996374852448598"><ele>102.0</ele><time>2026-03-22T13:57:45Z</time></trkpt><trkpt lat="45.27715735681073" lon="8.996333252049862"><ele>102.0</ele><time>2026-03-22T13:57:46Z</time></trkpt><trkpt lat="45.2772392330637" lon="8.996294019471053"><ele>102.0</ele><time>2026-03-22T13:57:47Z</time></trkpt><trkpt lat="45.27731053616418" lon="8.996256273057632"><ele>102.0</ele><time>2026-03-22T13:57:48Z</time></trkpt><trkpt lat="45.27737696321638" lon="8.996223180709332"><ele>102.0</ele><time>2026-03-22T13:57:49Z</time></trkpt><trkpt lat="45.27744979072858" lon="8.996182565878204"><ele>102.0</ele><time>2026-03-22T13:57:50Z</time></trkpt><trkpt lat="45.277533698667575" lon="8.996148800444006"><ele>102.0</ele><time>2026-03-22T13:57:51Z</time></trkpt><trkpt lat="45.27761633531664" lon="8.996106967325938"><ele>101.25</ele><time>2026-03-22T13:57:52Z</time></trkpt><trkpt lat="45.27772392053329" lon="8.99605514069957"><ele>100.5</ele><time>2026-03-22T13:57:53Z</time></trkpt><trkpt lat="45.27785400244551" lon="8.995995072743014"><ele>99.75</ele><time>2026-03-22T13:57:54Z</time></trkpt><trkpt lat="45.27799815723808" lon="8.995931673806824"><ele>99.0</ele><time>2026-03-22T13:57:55Z</time></trkpt><trkpt lat="45.27813941298084" lon="8.995864510167593"><ele>99.0</ele><time>2026-03-22T13:57:56Z</time></trkpt><trkpt lat="45.278274557884394" lon="8.995796271387189"><ele>99.0</ele><time>2026-03-22T13:57:57Z</time></trkpt><trkpt lat="45.27841308847895" lon="8.99572847460597"><ele>99.0</ele><time>2026-03-22T13:57:58Z</time></trkpt><trkpt lat="45.27852818230529" lon="8.99567049321642"><ele>99.0</ele><time>2026-03-22T13:57:59Z</time></trkpt><trkpt lat="45.278647588379975" lon="8.995608101678728"><ele>99.0</ele><time>2026-03-22T13:58:00Z</time></trkpt><trkpt lat="45.278779051689" lon="8.995548980156286"><ele>99.0</ele><time>2026-03-22T13:58:01Z</time></trkpt><trkpt lat="45.27891830281632" lon="8.995473915020412"><ele>99.0</ele><time>2026-03-22T13:58:02Z</time></trkpt><trkpt lat="45.27905568213101" lon="8.995404945976151"><ele>99.0</ele><time>2026-03-22T13:58:03Z</time></trkpt><trkpt lat="45.279177214431606" lon="8.99534436470141"><ele>99.0</ele><time>2026-03-22T13:58:04Z</time></trkpt><trkpt lat="45.27929707519949" lon="8.995289830864774"><ele>99.0</ele><time>2026-03-22T13:58:05Z</time></trkpt><trkpt lat="45.279428864099565" lon="8.995229195504566"><ele>99.0</ele><time>2026-03-22T13:58:06Z</time></trkpt><trkpt lat="45.279559001617294" lon="8.995163849329561"><ele>99.0</ele><time>2026-03-22T13:58:07Z</time></trkpt><trkpt lat="45.27966991907207" lon="8.995109343346307"><ele>99.0</ele><time>2026-03-22T13:58:08Z</time></trkpt><trkpt lat="45.2797684052464" lon="8.995060296774987"><ele>99.0</ele><time>2026-03-22T13:58:09Z</time></trkpt><trkpt lat="45.27986016507855" lon="8.995034109094021"><ele>99.0</ele><time>2026-03-22T13:58:10Z</time></trkpt><trkpt lat="45.27993626123028" lon="8.99497911763181"><ele>99.0</ele><time>2026-03-22T13:58:11Z</time></trkpt><trkpt lat="45.28001167421632" lon="8.994942141147654"><ele>99.0</ele><time>2026-03-22T13:58:12Z</time></trkpt><trkpt lat="45.28008729077287" lon="8.994923519543422"><ele>99.0</ele><time>2026-03-22T13:58:13Z</time></trkpt><trkpt lat="45.28015041114582" lon="8.994895596074807"><ele>99.0</ele><time>2026-03-22T13:58:14Z</time></trkpt><trkpt lat="45.28025590085768" lon="8.994833845957537"><ele>99.0</ele><time>2026-03-22T13:58:16Z</time></trkpt><trkpt lat="45.28033419404268" lon="8.994840641608212"><ele>99.0</ele><time>2026-03-22T13:58:18Z</time></trkpt><trkpt lat="45.280419223136676" lon="8.994822230025745"><ele>99.0</ele><time>2026-03-22T13:58:29Z</time></trkpt><trkpt lat="45.28043946620951" lon="8.994614535727479"><ele>99.0</ele><time>2026-03-22T13:58:30Z</time></trkpt><trkpt lat="45.280454761150246" lon="8.994427757916815"><ele>99.0</ele><time>2026-03-22T13:58:31Z</time></trkpt><trkpt lat="45.280481142281694" lon="8.994202842074385"><ele>99.0</ele><time>2026-03-22T13:58:32Z</time></trkpt><trkpt lat="45.28052004870673" lon="8.993948660847778"><ele>99.0</ele><time>2026-03-22T13:58:33Z</time></trkpt><trkpt lat="45.28054828201236" lon="8.993710150499277"><ele>98.5</ele><time>2026-03-22T13:58:34Z</time></trkpt><trkpt lat="45.28057322815039" lon="8.99350686661582"><ele>98.0</ele><time>2026-03-22T13:58:35Z</time></trkpt><trkpt lat="45.28059501555395" lon="8.993333594107508"><ele>97.5</ele><time>2026-03-22T13:58:36Z</time></trkpt><trkpt lat="45.28061741360973" lon="8.99317953486416"><ele>97.0</ele><time>2026-03-22T13:58:37Z</time></trkpt><trkpt lat="45.28063346598152" lon="8.993033400338966"><ele>96.8</ele><time>2026-03-22T13:58:38Z</time></trkpt><trkpt lat="45.28065121128587" lon="8.992874764474301"><ele>96.6</ele><time>2026-03-22T13:58:39Z</time></trkpt><trkpt lat="45.28066446057239" lon="8.992715576494076"><ele>96.39999999999999</ele><time>2026-03-22T13:58:40Z</time></trkpt><trkpt lat="45.28068320273166" lon="8.992573749767702"><ele>96.19999999999999</ele><time>2026-03-22T13:58:41Z</time></trkpt><trkpt lat="45.28070237988674" lon="8.992418379080528"><ele>96.0</ele><time>2026-03-22T13:58:42Z</time></trkpt><trkpt lat="45.28072436875015" lon="8.992248428389587"><ele>96.0</ele><time>2026-03-22T13:58:43Z</time></trkpt><trkpt lat="45.28074151478596" lon="8.992073817759213"><ele>96.0</ele><time>2026-03-22T13:58:44Z</time></trkpt><trkpt lat="45.28076281689468" lon="8.99188823101562"><ele>96.0</ele><time>2026-03-22T13:58:45Z</time></trkpt><trkpt lat="45.280787721812295" lon="8.991670388870974"><ele>96.0</ele><time>2026-03-22T13:58:46Z</time></trkpt><trkpt lat="45.28081908496072" lon="8.991463892487669"><ele>95.75</ele><time>2026-03-22T13:58:47Z</time></trkpt><trkpt lat="45.28084760122305" lon="8.991258256178948"><ele>95.5</ele><time>2026-03-22T13:58:48Z</time></trkpt><trkpt lat="45.28087873012431" lon="8.991049409468157"><ele>95.25</ele><time>2026-03-22T13:58:49Z</time></trkpt><trkpt lat="45.28091612942636" lon="8.990845934080953"><ele>95.0</ele><time>2026-03-22T13:58:50Z</time></trkpt><trkpt lat="45.28096476950644" lon="8.990651086770345"><ele>95.0</ele><time>2026-03-22T13:58:51Z</time></trkpt><trkpt lat="45.28101813143332" lon="8.990468508558672"><ele>95.0</ele><time>2026-03-22T13:58:52Z</time></trkpt><trkpt lat="45.28108333002777" lon="8.990293477540625"><ele>95.0</ele><time>2026-03-22T13:58:53Z</time></trkpt><trkpt lat="45.28116682658119" lon="8.990121518051723"><ele>95.0</ele><time>2026-03-22T13:58:54Z</time></trkpt><trkpt lat="45.281258348568144" lon="8.989956266611314"><ele>95.33333333333334</ele><time>2026-03-22T13:58:55Z</time></trkpt><trkpt lat="45.28136067568648" lon="8.989783212780923"><ele>95.66666666666667</ele><time>2026-03-22T13:58:56Z</time></trkpt><trkpt lat="45.281461213707125" lon="8.98960228715288"><ele>96.0</ele><time>2026-03-22T13:58:57Z</time></trkpt><trkpt lat="45.28155355086203" lon="8.989429880577118"><ele>96.75</ele><time>2026-03-22T13:58:58Z</time></trkpt><trkpt lat="45.28164125859575" lon="8.9892634234754"><ele>97.5</ele><time>2026-03-22T13:58:59Z</time></trkpt><trkpt lat="45.2817265983433" lon="8.989093366734172"><ele>98.25</ele><time>2026-03-22T13:59:00Z</time></trkpt><trkpt lat="45.28180164373299" lon="8.988925577089395"><ele>99.0</ele><time>2026-03-22T13:59:01Z</time></trkpt><trkpt lat="45.28187481879474" lon="8.988765374483247"><ele>99.0</ele><time>2026-03-22T13:59:02Z</time></trkpt><trkpt lat="45.28193928958698" lon="8.988576104893664"><ele>99.0</ele><time>2026-03-22T13:59:03Z</time></trkpt><trkpt lat="45.28200391810242" lon="8.988399136111097"><ele>99.0</ele><time>2026-03-22T13:59:04Z</time></trkpt><trkpt lat="45.28204913885663" lon="8.988203860901233"><ele>99.0</ele><time>2026-03-22T13:59:05Z</time></trkpt><trkpt lat="45.28209283164401" lon="8.988029570534284"><ele>98.75</ele><time>2026-03-22T13:59:06Z</time></trkpt><trkpt lat="45.28213857985028" lon="8.98784323147703"><ele>98.5</ele><time>2026-03-22T13:59:07Z</time></trkpt><trkpt lat="45.28218512478152" lon="8.98765684053265"><ele>98.25</ele><time>2026-03-22T13:59:08Z</time></trkpt><trkpt lat="45.28223356467251" lon="8.987472771242969"><ele>98.0</ele><time>2026-03-22T13:59:09Z</time></trkpt><trkpt lat="45.282280845279324" lon="8.987290759303123"><ele>98.0</ele><time>2026-03-22T13:59:10Z</time></trkpt><trkpt lat="45.28232854095189" lon="8.987101655329688"><ele>98.0</ele><time>2026-03-22T13:59:11Z</time></trkpt><trkpt lat="45.28237857679102" lon="8.986905929015245"><ele>98.0</ele><time>2026-03-22T13:59:12Z</time></trkpt><trkpt lat="45.28242879303553" lon="8.986706490627991"><ele>98.0</ele><time>2026-03-22T13:59:13Z</time></trkpt><trkpt lat="45.28247563650852" lon="8.986521507710721"><ele>98.0</ele><time>2026-03-22T13:59:14Z</time></trkpt><trkpt lat="45.28252161545112" lon="8.986332711839554"><ele>98.0</ele><time>2026-03-22T13:59:15Z</time></trkpt><trkpt lat="45.28257210882394" lon="8.986148676636683"><ele>98.0</ele><time>2026-03-22T13:59:16Z</time></trkpt><trkpt lat="45.28262212870531" lon="8.985967795151094"><ele>98.0</ele><time>2026-03-22T13:59:17Z</time></trkpt><trkpt lat="45.28268093462474" lon="8.985801880570346"><ele>98.5</ele><time>2026-03-22T13:59:18Z</time></trkpt><trkpt lat="45.282748200443166" lon="8.985645618789572"><ele>99.0</ele><time>2026-03-22T13:59:19Z</time></trkpt><trkpt lat="45.28283679107672" lon="8.985512472415476"><ele>99.5</ele><time>2026-03-22T13:59:20Z</time></trkpt><trkpt lat="45.28293871073129" lon="8.98540203696784"><ele>100.0</ele><time>2026-03-22T13:59:21Z</time></trkpt><trkpt lat="45.28305287733882" lon="8.985317777453739"><ele>99.75</ele><time>2026-03-22T13:59:22Z</time></trkpt><trkpt lat="45.28316572438525" lon="8.985246605501256"><ele>99.5</ele><time>2026-03-22T13:59:23Z</time></trkpt><trkpt lat="45.28329555228507" lon="8.985211561840035"><ele>99.25</ele><time>2026-03-22T13:59:24Z</time></trkpt><trkpt lat="45.283424959488876" lon="8.985191772244567"><ele>99.0</ele><time>2026-03-22T13:59:25Z</time></trkpt><trkpt lat="45.28354555292974" lon="8.9851715210154"><ele>99.0</ele><time>2026-03-22T13:59:26Z</time></trkpt><trkpt lat="45.28366800231387" lon="8.985158672927884"><ele>99.0</ele><time>2026-03-22T13:59:27Z</time></trkpt><trkpt lat="45.283785861737904" lon="8.9851471267438"><ele>99.0</ele><time>2026-03-22T13:59:28Z</time></trkpt><trkpt lat="45.28390378709494" lon="8.985133883553862"><ele>99.0</ele><time>2026-03-22T13:59:29Z</time></trkpt><trkpt lat="45.284013932694485" lon="8.985125613213542"><ele>98.80000000000001</ele><time>2026-03-22T13:59:30Z</time></trkpt><trkpt lat="45.28412685069995" lon="8.985112602342852"><ele>98.60000000000001</ele><time>2026-03-22T13:59:31Z</time></trkpt><trkpt lat="45.28424553625523" lon="8.985095265292095"><ele>98.4</ele><time>2026-03-22T13:59:32Z</time></trkpt><trkpt lat="45.28435723474369" lon="8.98508109641523"><ele>98.2</ele><time>2026-03-22T13:59:33Z</time></trkpt><trkpt lat="45.28445860959112" lon="8.985065013263576"><ele>98.0</ele><time>2026-03-22T13:59:34Z</time></trkpt><trkpt lat="45.28455488603354" lon="8.985053180862959"><ele>97.99999999999999</ele><time>2026-03-22T13:59:35Z</time></trkpt><trkpt lat="45.28464648806992" lon="8.985046170890005"><ele>98.0</ele><time>2026-03-22T13:59:36Z</time></trkpt><trkpt lat="45.28472627330187" lon="8.985040999566255"><ele>98.0</ele><time>2026-03-22T13:59:37Z</time></trkpt><trkpt lat="45.28479959745584" lon="8.98503853104648"><ele>98.0</ele><time>2026-03-22T13:59:38Z</time></trkpt><trkpt lat="45.28487604009038" lon="8.985039445203666"><ele>97.99999999999999</ele><time>2026-03-22T13:59:39Z</time></trkpt><trkpt lat="45.284958746271485" lon="8.98504480517172"><ele>98.0</ele><time>2026-03-22T13:59:40Z</time></trkpt><trkpt lat="45.28503590642331" lon="8.985050862341653"><ele>98.0</ele><time>2026-03-22T13:59:41Z</time></trkpt><trkpt lat="45.28510741255695" lon="8.985046168219949"><ele>98.0</ele><time>2026-03-22T13:59:42Z</time></trkpt><trkpt lat="45.285201927875626" lon="8.985066485338882"><ele>98.0</ele><time>2026-03-22T13:59:44Z</time></trkpt><trkpt lat="45.28519831298857" lon="8.98482642247154"><ele>98.0</ele><time>2026-03-22T13:59:46Z</time></trkpt><trkpt lat="45.285185623746116" lon="8.984717167087219"><ele>98.0</ele><time>2026-03-22T13:59:48Z</time></trkpt><trkpt lat="45.285181261745336" lon="8.984568734927318"><ele>97.99999999999999</ele><time>2026-03-22T13:59:50Z</time></trkpt><trkpt lat="45.28516755305312" lon="8.984465036794193"><ele>98.0</ele><time>2026-03-22T13:59:51Z</time></trkpt><trkpt lat="45.28514193411783" lon="8.984355553281684"><ele>98.0</ele><time>2026-03-22T13:59:52Z</time></trkpt><trkpt lat="45.2851362185086" lon="8.984241101850953"><ele>98.0</ele><time>2026-03-22T13:59:53Z</time></trkpt><trkpt lat="45.28512692955421" lon="8.98412371522367"><ele>97.99999999999999</ele><time>2026-03-22T13:59:54Z</time></trkpt><trkpt lat="45.28511509170603" lon="8.984004128342518"><ele>98.0</ele><time>2026-03-22T13:59:55Z</time></trkpt><trkpt lat="45.28509650807299" lon="8.98387629264288"><ele>98.0</ele><time>2026-03-22T13:59:56Z</time></trkpt><trkpt lat="45.285083456270485" lon="8.983755397883622"><ele>98.0</ele><time>2026-03-22T13:59:57Z</time></trkpt><trkpt lat="45.28507516713726" lon="8.98362282706584"><ele>98.0</ele><time>2026-03-22T13:59:58Z</time></trkpt><trkpt lat="45.285072381674006" lon="8.983464539311546"><ele>98.0</ele><time>2026-03-22T13:59:59Z</time></trkpt><trkpt lat="45.28506858097332" lon="8.983312443405625"><ele>98.0</ele><time>2026-03-22T14:00:00Z</time></trkpt><trkpt lat="45.28506338363641" lon="8.98314617298134"><ele>98.0</ele><time>2026-03-22T14:00:01Z</time></trkpt><trkpt lat="45.28505926402106" lon="8.982962277341795"><ele>98.0</ele><time>2026-03-22T14:00:02Z</time></trkpt><trkpt lat="45.285056740511145" lon="8.982801908301928"><ele>98.0</ele><time>2026-03-22T14:00:03Z</time></trkpt><trkpt lat="45.285051932198634" lon="8.982647508070878"><ele>98.0</ele><time>2026-03-22T14:00:04Z</time></trkpt><trkpt lat="45.285043143706424" lon="8.982502049411282"><ele>97.60000000000001</ele><time>2026-03-22T14:00:05Z</time></trkpt><trkpt lat="45.28503943153277" lon="8.982368915604312"><ele>97.2</ele><time>2026-03-22T14:00:06Z</time></trkpt><trkpt lat="45.285039291030884" lon="8.982253597381744"><ele>96.8</ele><time>2026-03-22T14:00:07Z</time></trkpt><trkpt lat="45.28503298257821" lon="8.982155020611522"><ele>96.4</ele><time>2026-03-22T14:00:08Z</time></trkpt><trkpt lat="45.284992741151726" lon="8.982048211529229"><ele>96.0</ele><time>2026-03-22T14:00:10Z</time></trkpt><trkpt lat="45.28501700777001" lon="8.981874190126582"><ele>96.0</ele><time>2026-03-22T14:00:12Z</time></trkpt><trkpt lat="45.2850400615238" lon="8.981782780331185"><ele>96.0</ele><time>2026-03-22T14:00:13Z</time></trkpt><trkpt lat="45.28501912715107" lon="8.981667445822822"><ele>96.0</ele><time>2026-03-22T14:00:14Z</time></trkpt><trkpt lat="45.28502300859306" lon="8.981557812102192"><ele>96.0</ele><time>2026-03-22T14:00:15Z</time></trkpt><trkpt lat="45.28502855766942" lon="8.981435265249106"><ele>96.0</ele><time>2026-03-22T14:00:16Z</time></trkpt><trkpt lat="45.285019098020236" lon="8.98130368307647"><ele>96.0</ele><time>2026-03-22T14:00:17Z</time></trkpt><trkpt lat="45.285026306574856" lon="8.98119208341854"><ele>96.28571428571428</ele><time>2026-03-22T14:00:18Z</time></trkpt><trkpt lat="45.28503279865965" lon="8.981088627457538"><ele>96.57142857142857</ele><time>2026-03-22T14:00:19Z</time></trkpt><trkpt lat="45.285053551197464" lon="8.980988908443228"><ele>96.85714285714286</ele><time>2026-03-22T14:00:20Z</time></trkpt><trkpt lat="45.28506108165993" lon="8.9808768148146"><ele>97.14285714285714</ele><time>2026-03-22T14:00:21Z</time></trkpt><trkpt lat="45.28506830571805" lon="8.98077424907529"><ele>97.42857142857143</ele><time>2026-03-22T14:00:22Z</time></trkpt><trkpt lat="45.28507528927839" lon="8.980675097885355"><ele>97.71428571428571</ele><time>2026-03-22T14:00:23Z</time></trkpt><trkpt lat="45.28508227363481" lon="8.98057593538472"><ele>98.0</ele><time>2026-03-22T14:00:24Z</time></trkpt><trkpt lat="45.28507702014453" lon="8.980472932585695"><ele>98.14285714285714</ele><time>2026-03-22T14:00:25Z</time></trkpt><trkpt lat="45.28508626395481" lon="8.98037057568028"><ele>98.28571428571428</ele><time>2026-03-22T14:00:26Z</time></trkpt><trkpt lat="45.2850970473387" lon="8.980271211051386"><ele>98.42857142857143</ele><time>2026-03-22T14:00:27Z</time></trkpt><trkpt lat="45.28510719269903" lon="8.98015980419325"><ele>98.57142857142857</ele><time>2026-03-22T14:00:28Z</time></trkpt><trkpt lat="45.28512404299478" lon="8.980051497505638"><ele>98.71428571428571</ele><time>2026-03-22T14:00:29Z</time></trkpt><trkpt lat="45.28513857348476" lon="8.979951563050326"><ele>98.85714285714286</ele><time>2026-03-22T14:00:30Z</time></trkpt><trkpt lat="45.285152271688325" lon="8.97985686625084"><ele>99.0</ele><time>2026-03-22T14:00:31Z</time></trkpt><trkpt lat="45.28516419652864" lon="8.979765938554145"><ele>99.28571428571429</ele><time>2026-03-22T14:00:32Z</time></trkpt><trkpt lat="45.28517186745203" lon="8.979671702204763"><ele>99.57142857142857</ele><time>2026-03-22T14:00:33Z</time></trkpt><trkpt lat="45.285181798634646" lon="8.979576675732432"><ele>99.85714285714286</ele><time>2026-03-22T14:00:34Z</time></trkpt><trkpt lat="45.28519619270065" lon="8.979481220645651"><ele>100.14285714285714</ele><time>2026-03-22T14:00:35Z</time></trkpt><trkpt lat="45.285199104670355" lon="8.979391836960495"><ele>100.42857142857142</ele><time>2026-03-22T14:00:36Z</time></trkpt><trkpt lat="45.28520205409148" lon="8.979293376505915"><ele>100.71428571428571</ele><time>2026-03-22T14:00:37Z</time></trkpt><trkpt lat="45.285194855475744" lon="8.979182729776559"><ele>101.0</ele><time>2026-03-22T14:00:38Z</time></trkpt><trkpt lat="45.28520173926482" lon="8.97906750618571"><ele>100.99999999999999</ele><time>2026-03-22T14:00:39Z</time></trkpt><trkpt lat="45.285200159579986" lon="8.978951479919075"><ele>101.0</ele><time>2026-03-22T14:00:40Z</time></trkpt><trkpt lat="45.285202294748785" lon="8.978832951138108"><ele>101.0</ele><time>2026-03-22T14:00:41Z</time></trkpt><trkpt lat="45.28521838527532" lon="8.978715708494812"><ele>101.0</ele><time>2026-03-22T14:00:42Z</time></trkpt><trkpt lat="45.285221631034794" lon="8.978615671207297"><ele>100.99999999999999</ele><time>2026-03-22T14:00:43Z</time></trkpt><trkpt lat="45.285224447096795" lon="8.978522775871468"><ele>101.0</ele><time>2026-03-22T14:00:44Z</time></trkpt><trkpt lat="45.285227750013604" lon="8.978429581332055"><ele>101.4</ele><time>2026-03-22T14:00:45Z</time></trkpt><trkpt lat="45.28521621530692" lon="8.978333813783618"><ele>101.8</ele><time>2026-03-22T14:00:46Z</time></trkpt><trkpt lat="45.285231338263856" lon="8.97815425429957"><ele>102.2</ele><time>2026-03-22T14:00:48Z</time></trkpt><trkpt lat="45.28524889451397" lon="8.977970910670034"><ele>102.60000000000001</ele><time>2026-03-22T14:00:50Z</time></trkpt><trkpt lat="45.28523875846242" lon="8.977813325655353"><ele>103.0</ele><time>2026-03-22T14:00:52Z</time></trkpt><trkpt lat="45.28523029863783" lon="8.977655960101002"><ele>103.0</ele><time>2026-03-22T14:00:54Z</time></trkpt><trkpt lat="45.28518580415271" lon="8.977522507839623"><ele>103.0</ele><time>2026-03-22T14:00:56Z</time></trkpt><trkpt lat="45.28514667100037" lon="8.977417630891813"><ele>103.0</ele><time>2026-03-22T14:00:58Z</time></trkpt><trkpt lat="45.285196548365725" lon="8.97718404753954"><ele>103.0</ele><time>2026-03-22T14:01:00Z</time></trkpt><trkpt lat="45.285194488932774" lon="8.977081872178234"><ele>103.0</ele><time>2026-03-22T14:01:01Z</time></trkpt><trkpt lat="45.285194336037726" lon="8.976981677707654"><ele>102.50000000000001</ele><time>2026-03-22T14:01:02Z</time></trkpt><trkpt lat="45.285197107119956" lon="8.976883984823047"><ele>102.0</ele><time>2026-03-22T14:01:03Z</time></trkpt><trkpt lat="45.28519724297169" lon="8.976794142430062"><ele>101.5</ele><time>2026-03-22T14:01:04Z</time></trkpt><trkpt lat="45.285201188373506" lon="8.976701018705686"><ele>101.0</ele><time>2026-03-22T14:01:05Z</time></trkpt><trkpt lat="45.28519481415762" lon="8.976510322273548"><ele>100.50000000000001</ele><time>2026-03-22T14:01:07Z</time></trkpt><trkpt lat="45.28519783446485" lon="8.976409349910108"><ele>100.0</ele><time>2026-03-22T14:01:08Z</time></trkpt><trkpt lat="45.285198286254975" lon="8.976314805738632"><ele>100.00000000000001</ele><time>2026-03-22T14:01:09Z</time></trkpt><trkpt lat="45.285188017078426" lon="8.97621031384369"><ele>100.0</ele><time>2026-03-22T14:01:10Z</time></trkpt><trkpt lat="45.285191278923605" lon="8.976117151986491"><ele>100.0</ele><time>2026-03-22T14:01:11Z</time></trkpt><trkpt lat="45.28519095201694" lon="8.976006606926603"><ele>100.0</ele><time>2026-03-22T14:01:12Z</time></trkpt><trkpt lat="45.28520035847066" lon="8.975909896904419"><ele>100.00000000000001</ele><time>2026-03-22T14:01:13Z</time></trkpt><trkpt lat="45.28520832739813" lon="8.975818171197579"><ele>100.0</ele><time>2026-03-22T14:01:14Z</time></trkpt><trkpt lat="45.285202405998035" lon="8.975655871512535"><ele>100.16666666666667</ele><time>2026-03-22T14:01:16Z</time></trkpt><trkpt lat="45.28519237284418" lon="8.975552664051111"><ele>100.33333333333334</ele><time>2026-03-22T14:01:17Z</time></trkpt><trkpt lat="45.28519243967067" lon="8.975435071470681"><ele>100.5</ele><time>2026-03-22T14:01:18Z</time></trkpt><trkpt lat="45.28520168033369" lon="8.975336358038046"><ele>100.66666666666666</ele><time>2026-03-22T14:01:19Z</time></trkpt><trkpt lat="45.285215252259825" lon="8.97523052331189"><ele>100.83333333333333</ele><time>2026-03-22T14:01:20Z</time></trkpt><trkpt lat="45.285224304521314" lon="8.975132257524299"><ele>101.0</ele><time>2026-03-22T14:01:21Z</time></trkpt><trkpt lat="45.28523079291501" lon="8.975019103119694"><ele>101.33333333333333</ele><time>2026-03-22T14:01:22Z</time></trkpt><trkpt lat="45.28523840064911" lon="8.974926550316917"><ele>101.66666666666666</ele><time>2026-03-22T14:01:23Z</time></trkpt><trkpt lat="45.28525133716979" lon="8.974756948636756"><ele>102.0</ele><time>2026-03-22T14:01:25Z</time></trkpt><trkpt lat="45.285251700242675" lon="8.97465604556332"><ele>102.33333333333334</ele><time>2026-03-22T14:01:26Z</time></trkpt><trkpt lat="45.28525935913993" lon="8.974519038417055"><ele>102.66666666666667</ele><time>2026-03-22T14:01:28Z</time></trkpt><trkpt lat="45.28525658747786" lon="8.974424904503453"><ele>103.0</ele><time>2026-03-22T14:01:30Z</time></trkpt><trkpt lat="45.285252201501095" lon="8.974323856102131"><ele>103.0</ele><time>2026-03-22T14:01:32Z</time></trkpt><trkpt lat="45.28528619776509" lon="8.974203993380385"><ele>103.0</ele><time>2026-03-22T14:01:34Z</time></trkpt><trkpt lat="45.28539189088657" lon="8.974105117891334"><ele>103.0</ele><time>2026-03-22T14:01:36Z</time></trkpt><trkpt lat="45.285472094302015" lon="8.974075603950856"><ele>103.0</ele><time>2026-03-22T14:01:37Z</time></trkpt><trkpt lat="45.28555100376786" lon="8.974047311196545"><ele>103.0</ele><time>2026-03-22T14:01:38Z</time></trkpt><trkpt lat="45.285651141386126" lon="8.974000106638856"><ele>102.80000000000001</ele><time>2026-03-22T14:01:39Z</time></trkpt><trkpt lat="45.285733285229455" lon="8.973967239137918"><ele>102.6</ele><time>2026-03-22T14:01:40Z</time></trkpt><trkpt lat="45.2858175956597" lon="8.973935319904744"><ele>102.4</ele><time>2026-03-22T14:01:41Z</time></trkpt><trkpt lat="45.28590430344101" lon="8.97389349004745"><ele>102.19999999999999</ele><time>2026-03-22T14:01:42Z</time></trkpt><trkpt lat="45.285994536102294" lon="8.973851958320028"><ele>102.0</ele><time>2026-03-22T14:01:43Z</time></trkpt><trkpt lat="45.286098305818" lon="8.97380488109176"><ele>102.0</ele><time>2026-03-22T14:01:44Z</time></trkpt><trkpt lat="45.286206666042744" lon="8.973761316604733"><ele>102.0</ele><time>2026-03-22T14:01:45Z</time></trkpt><trkpt lat="45.28630551168822" lon="8.973729713491165"><ele>102.0</ele><time>2026-03-22T14:01:46Z</time></trkpt><trkpt lat="45.28639972747786" lon="8.973696691953682"><ele>102.0</ele><time>2026-03-22T14:01:47Z</time></trkpt><trkpt lat="45.28649470445671" lon="8.97366197695698"><ele>102.0</ele><time>2026-03-22T14:01:48Z</time></trkpt><trkpt lat="45.28657847686492" lon="8.973631308024645"><ele>102.0</ele><time>2026-03-22T14:01:49Z</time></trkpt><trkpt lat="45.28664427247923" lon="8.973599926007125"><ele>102.0</ele><time>2026-03-22T14:01:50Z</time></trkpt><trkpt lat="45.286713171071206" lon="8.973569916494533"><ele>102.0</ele><time>2026-03-22T14:01:51Z</time></trkpt><trkpt lat="45.28677870946362" lon="8.973536496885485"><ele>102.0</ele><time>2026-03-22T14:01:52Z</time></trkpt><trkpt lat="45.28684888082055" lon="8.97349741411841"><ele>102.0</ele><time>2026-03-22T14:01:53Z</time></trkpt><trkpt lat="45.28691634659475" lon="8.97346442086874"><ele>102.0</ele><time>2026-03-22T14:01:54Z</time></trkpt><trkpt lat="45.28699260386274" lon="8.973432988261628"><ele>102.0</ele><time>2026-03-22T14:01:55Z</time></trkpt><trkpt lat="45.287055106543875" lon="8.97339835772626"><ele>102.0</ele><time>2026-03-22T14:01:56Z</time></trkpt><trkpt lat="45.28711519444913" lon="8.973367920796898"><ele>102.0</ele><time>2026-03-22T14:01:57Z</time></trkpt><trkpt lat="45.287179032166215" lon="8.973336918297825"><ele>102.0</ele><time>2026-03-22T14:01:58Z</time></trkpt><trkpt lat="45.28724961737747" lon="8.973314717377743"><ele>102.0</ele><time>2026-03-22T14:01:59Z</time></trkpt><trkpt lat="45.287357938637385" lon="8.973291477386505"><ele>102.0</ele><time>2026-03-22T14:02:01Z</time></trkpt><trkpt lat="45.28742712356705" lon="8.97327459053908"><ele>102.0</ele><time>2026-03-22T14:02:03Z</time></trkpt><trkpt lat="45.28749982979238" lon="8.97325896713164"><ele>102.0</ele><time>2026-03-22T14:02:05Z</time></trkpt><trkpt lat="45.28759307229065" lon="8.973233618018442"><ele>102.0</ele><time>2026-03-22T14:02:07Z</time></trkpt><trkpt lat="45.287705209842315" lon="8.973196051707209"><ele>102.0</ele><time>2026-03-22T14:02:09Z</time></trkpt><trkpt lat="45.28781261586455" lon="8.97317480347013"><ele>102.0</ele><time>2026-03-22T14:02:11Z</time></trkpt><trkpt lat="45.28792679611252" lon="8.9731341108168"><ele>102.0</ele><time>2026-03-22T14:02:13Z</time></trkpt><trkpt lat="45.288026456840846" lon="8.973116739209432"><ele>102.0</ele><time>2026-03-22T14:02:15Z</time></trkpt><trkpt lat="45.288154376265204" lon="8.973104130424913"><ele>102.0</ele><time>2026-03-22T14:02:17Z</time></trkpt><trkpt lat="45.28822021628392" lon="8.973094857992047"><ele>102.0</ele><time>2026-03-22T14:02:18Z</time></trkpt><trkpt lat="45.28828696491616" lon="8.973079546617585"><ele>102.0</ele><time>2026-03-22T14:02:19Z</time></trkpt><trkpt lat="45.288402696994176" lon="8.973058331129348"><ele>102.0</ele><time>2026-03-22T14:02:21Z</time></trkpt><trkpt lat="45.288524598873174" lon="8.973039130969461"><ele>102.0</ele><time>2026-03-22T14:02:23Z</time></trkpt><trkpt lat="45.28863199409555" lon="8.97301148029615"><ele>102.0</ele><time>2026-03-22T14:02:25Z</time></trkpt><trkpt lat="45.288749697326544" lon="8.972986758159731"><ele>102.0</ele><time>2026-03-22T14:02:27Z</time></trkpt><trkpt lat="45.28885756364005" lon="8.972956297409542"><ele>102.0</ele><time>2026-03-22T14:02:29Z</time></trkpt><trkpt lat="45.288946845801256" lon="8.972918716637022"><ele>102.0</ele><time>2026-03-22T14:02:31Z</time></trkpt><trkpt lat="45.28905518768167" lon="8.972874067894633"><ele>102.6</ele><time>2026-03-22T14:02:33Z</time></trkpt><trkpt lat="45.28915435892378" lon="8.972835341322083"><ele>103.19999999999999</ele><time>2026-03-22T14:02:35Z</time></trkpt><trkpt lat="45.2892717126508" lon="8.972785228522397"><ele>103.8</ele><time>2026-03-22T14:02:37Z</time></trkpt><trkpt lat="45.289378437181625" lon="8.972746634702448"><ele>104.4</ele><time>2026-03-22T14:02:39Z</time></trkpt><trkpt lat="45.28947954888851" lon="8.97270197595632"><ele>105.0</ele><time>2026-03-22T14:02:41Z</time></trkpt><trkpt lat="45.28956334951906" lon="8.972669835697491"><ele>105.0</ele><time>2026-03-22T14:02:43Z</time></trkpt><trkpt lat="45.289637780658786" lon="8.972646098796098"><ele>105.0</ele><time>2026-03-22T14:02:45Z</time></trkpt><trkpt lat="45.28976510017043" lon="8.972592959787693"><ele>105.0</ele><time>2026-03-22T14:02:47Z</time></trkpt><trkpt lat="45.289849184943094" lon="8.972560022901511"><ele>105.0</ele><time>2026-03-22T14:02:48Z</time></trkpt><trkpt lat="45.289924169621614" lon="8.972529785813267"><ele>105.0</ele><time>2026-03-22T14:02:49Z</time></trkpt><trkpt lat="45.289997599654086" lon="8.972510701108018"><ele>105.0</ele><time>2026-03-22T14:02:50Z</time></trkpt><trkpt lat="45.29006088431534" lon="8.972482962641404"><ele>104.8</ele><time>2026-03-22T14:02:51Z</time></trkpt><trkpt lat="45.290190214774675" lon="8.972433998627322"><ele>104.6</ele><time>2026-03-22T14:02:53Z</time></trkpt><trkpt lat="45.29026472442864" lon="8.972415893457894"><ele>104.4</ele><time>2026-03-22T14:02:54Z</time></trkpt><trkpt lat="45.290329474274166" lon="8.972401680890826"><ele>104.2</ele><time>2026-03-22T14:02:55Z</time></trkpt><trkpt lat="45.29044752151287" lon="8.97237205914119"><ele>104.0</ele><time>2026-03-22T14:02:57Z</time></trkpt><trkpt lat="45.29052767730294" lon="8.972445654750045"><ele>103.83333333333333</ele><time>2026-03-22T14:02:58Z</time></trkpt><trkpt lat="45.29060664964046" lon="8.972397016163157"><ele>103.66666666666666</ele><time>2026-03-22T14:03:00Z</time></trkpt><trkpt lat="45.29067086767788" lon="8.97235746465895"><ele>103.5</ele><time>2026-03-22T14:03:02Z</time></trkpt><trkpt lat="45.29073033131522" lon="8.97230658488776"><ele>103.33333333333334</ele><time>2026-03-22T14:03:04Z</time></trkpt><trkpt lat="45.29074786232826" lon="8.972200411539497"><ele>103.16666666666667</ele><time>2026-03-22T14:03:05Z</time></trkpt><trkpt lat="45.29075203300944" lon="8.972093953319158"><ele>103.0</ele><time>2026-03-22T14:03:06Z</time></trkpt><trkpt lat="45.290835039531885" lon="8.971888341037989"><ele>102.33333333333334</ele><time>2026-03-22T14:03:09Z</time></trkpt><trkpt lat="45.29068651693562" lon="8.971529469575628"><ele>101.66666666666666</ele><time>2026-03-22T14:03:12Z</time></trkpt><trkpt lat="45.29067378080267" lon="8.971377971560884"><ele>101.0</ele><time>2026-03-22T14:03:14Z</time></trkpt><trkpt lat="45.29065517898136" lon="8.97121601404452"><ele>100.99999999999999</ele><time>2026-03-22T14:03:16Z</time></trkpt><trkpt lat="45.290656206964485" lon="8.971056482447098"><ele>101.0</ele><time>2026-03-22T14:03:18Z</time></trkpt><trkpt lat="45.290649369676245" lon="8.970877644556227"><ele>101.0</ele><time>2026-03-22T14:03:20Z</time></trkpt><trkpt lat="45.29064751914991" lon="8.970781618611303"><ele>101.0</ele><time>2026-03-22T14:03:21Z</time></trkpt><trkpt lat="45.29063343744397" lon="8.970688821092665"><ele>100.99999999999999</ele><time>2026-03-22T14:03:22Z</time></trkpt><trkpt lat="45.29062360182874" lon="8.970596214689486"><ele>101.0</ele><time>2026-03-22T14:03:23Z</time></trkpt><trkpt lat="45.290618457269225" lon="8.97050488803046"><ele>100.99999999999999</ele><time>2026-03-22T14:03:24Z</time></trkpt><trkpt lat="45.29061193787007" lon="8.970415430966767"><ele>101.0</ele><time>2026-03-22T14:03:25Z</time></trkpt><trkpt lat="45.29060760461149" lon="8.970323425689744"><ele>101.0</ele><time>2026-03-22T14:03:26Z</time></trkpt><trkpt lat="45.29059650306872" lon="8.970151720777015"><ele>101.0</ele><time>2026-03-22T14:03:28Z</time></trkpt><trkpt lat="45.29059115465538" lon="8.970036505155944"><ele>100.99999999999999</ele><time>2026-03-22T14:03:30Z</time></trkpt><trkpt lat="45.290590743691624" lon="8.969912020950435"><ele>101.0</ele><time>2026-03-22T14:03:32Z</time></trkpt><trkpt lat="45.290582784020906" lon="8.969781437632976"><ele>100.4</ele><time>2026-03-22T14:03:34Z</time></trkpt><trkpt lat="45.29057378229787" lon="8.969643675317888"><ele>99.8</ele><time>2026-03-22T14:03:36Z</time></trkpt><trkpt lat="45.2905604386331" lon="8.969452498988202"><ele>99.2</ele><time>2026-03-22T14:03:38Z</time></trkpt><trkpt lat="45.29055261237409" lon="8.969346012220377"><ele>98.60000000000001</ele><time>2026-03-22T14:03:39Z</time></trkpt><trkpt lat="45.29054492267553" lon="8.969255763124647"><ele>98.0</ele><time>2026-03-22T14:03:40Z</time></trkpt><trkpt lat="45.29053335353568" lon="8.969106437619836"><ele>97.99999999999999</ele><time>2026-03-22T14:03:42Z</time></trkpt><trkpt lat="45.290543595644436" lon="8.968981362552217"><ele>98.0</ele><time>2026-03-22T14:03:44Z</time></trkpt><trkpt lat="45.290539846628484" lon="8.968874794775958"><ele>98.0</ele><time>2026-03-22T14:03:46Z</time></trkpt><trkpt lat="45.29050673191972" lon="8.968775626036749"><ele>98.0</ele><time>2026-03-22T14:03:48Z</time></trkpt><trkpt lat="45.29042869523795" lon="8.968758578155352"><ele>97.99999999999999</ele><time>2026-03-22T14:03:50Z</time></trkpt><trkpt lat="45.29033708149961" lon="8.968804987597935"><ele>98.0</ele><time>2026-03-22T14:03:52Z</time></trkpt><trkpt lat="45.29022483002845" lon="8.968828052377495"><ele>98.0</ele><time>2026-03-22T14:03:54Z</time></trkpt><trkpt lat="45.290160675406966" lon="8.968816038967374"><ele>98.0</ele><time>2026-03-22T14:03:55Z</time></trkpt><trkpt lat="45.29009072453463" lon="8.968792569080899"><ele>98.0</ele><time>2026-03-22T14:03:56Z</time></trkpt><trkpt lat="45.2899939439911" lon="8.968709548798936"><ele>98.0</ele><time>2026-03-22T14:03:58Z</time></trkpt><trkpt lat="45.289880315904696" lon="8.96867363004356"><ele>98.0</ele><time>2026-03-22T14:04:00Z</time></trkpt><trkpt lat="45.28977472174402" lon="8.968673825100065"><ele>98.16666666666666</ele><time>2026-03-22T14:04:02Z</time></trkpt><trkpt lat="45.289699087372504" lon="8.96868095908215"><ele>98.33333333333333</ele><time>2026-03-22T14:04:03Z</time></trkpt><trkpt lat="45.28961961069541" lon="8.968692055123297"><ele>98.5</ele><time>2026-03-22T14:04:04Z</time></trkpt><trkpt lat="45.28954769934783" lon="8.968711683414316"><ele>98.66666666666666</ele><time>2026-03-22T14:04:05Z</time></trkpt><trkpt lat="45.28947305440652" lon="8.96873535159901"><ele>98.83333333333333</ele><time>2026-03-22T14:04:06Z</time></trkpt><trkpt lat="45.28939664461131" lon="8.968770701882807"><ele>99.0</ele><time>2026-03-22T14:04:07Z</time></trkpt><trkpt lat="45.28931882508849" lon="8.968784553239834"><ele>99.0</ele><time>2026-03-22T14:04:08Z</time></trkpt><trkpt lat="45.28925287598532" lon="8.96879453256637"><ele>99.0</ele><time>2026-03-22T14:04:09Z</time></trkpt><trkpt lat="45.289190986730034" lon="8.96881351587437"><ele>99.0</ele><time>2026-03-22T14:04:10Z</time></trkpt><trkpt lat="45.28912628939888" lon="8.968824911807525"><ele>99.0</ele><time>2026-03-22T14:04:12Z</time></trkpt><trkpt lat="45.289050456181094" lon="8.968857185755981"><ele>99.0</ele><time>2026-03-22T14:04:14Z</time></trkpt><trkpt lat="45.28898695648642" lon="8.968885850801604"><ele>99.0</ele><time>2026-03-22T14:04:15Z</time></trkpt><trkpt lat="45.28891686867813" lon="8.968908652328452"><ele>99.0</ele><time>2026-03-22T14:04:16Z</time></trkpt><trkpt lat="45.288829862545434" lon="8.968933663810393"><ele>99.0</ele><time>2026-03-22T14:04:17Z</time></trkpt><trkpt lat="45.288761321500736" lon="8.968977259493842"><ele>99.0</ele><time>2026-03-22T14:04:18Z</time></trkpt><trkpt lat="45.2886960900415" lon="8.96901024817327"><ele>99.0</ele><time>2026-03-22T14:04:19Z</time></trkpt><trkpt lat="45.28862230766355" lon="8.969036633126615"><ele>99.0</ele><time>2026-03-22T14:04:20Z</time></trkpt><trkpt lat="45.28855046408154" lon="8.969059064386073"><ele>99.0</ele><time>2026-03-22T14:04:21Z</time></trkpt><trkpt lat="45.288477062004276" lon="8.969079986155542"><ele>99.0</ele><time>2026-03-22T14:04:22Z</time></trkpt><trkpt lat="45.288390404386675" lon="8.969109052433721"><ele>99.0</ele><time>2026-03-22T14:04:23Z</time></trkpt><trkpt lat="45.28830684366354" lon="8.969148553987853"><ele>99.0</ele><time>2026-03-22T14:04:24Z</time></trkpt><trkpt lat="45.28822721605493" lon="8.969197108988297"><ele>99.0</ele><time>2026-03-22T14:04:26Z</time></trkpt><trkpt lat="45.28813431039971" lon="8.969202469664026"><ele>99.0</ele><time>2026-03-22T14:04:30Z</time></trkpt><trkpt lat="45.28801028877799" lon="8.969258504304035"><ele>99.0</ele><time>2026-03-22T14:04:32Z</time></trkpt><trkpt lat="45.2878929401049" lon="8.969301632435462"><ele>98.6</ele><time>2026-03-22T14:04:34Z</time></trkpt><trkpt lat="45.28779855636164" lon="8.969341181904657"><ele>98.2</ele><time>2026-03-22T14:04:36Z</time></trkpt><trkpt lat="45.287704739411154" lon="8.969361316039443"><ele>97.8</ele><time>2026-03-22T14:04:38Z</time></trkpt><trkpt lat="45.28759618921042" lon="8.969450374916308"><ele>97.39999999999999</ele><time>2026-03-22T14:04:40Z</time></trkpt><trkpt lat="45.287553278969604" lon="8.969528311260905"><ele>97.0</ele><time>2026-03-22T14:04:41Z</time></trkpt><trkpt lat="45.287506363193565" lon="8.969606875675728"><ele>97.00000000000001</ele><time>2026-03-22T14:04:42Z</time></trkpt><trkpt lat="45.287461077205734" lon="8.969701645740294"><ele>97.0</ele><time>2026-03-22T14:04:43Z</time></trkpt><trkpt lat="45.28742106286008" lon="8.969791574356922"><ele>97.0</ele><time>2026-03-22T14:04:44Z</time></trkpt><trkpt lat="45.28737408015407" lon="8.969870040716376"><ele>97.0</ele><time>2026-03-22T14:04:45Z</time></trkpt><trkpt lat="45.2873248386253" lon="8.969947587418183"><ele>97.00000000000001</ele><time>2026-03-22T14:04:46Z</time></trkpt><trkpt lat="45.287274621245444" lon="8.970047668969647"><ele>97.0</ele><time>2026-03-22T14:04:47Z</time></trkpt><trkpt lat="45.28722534184881" lon="8.970149182244636"><ele>96.16666666666667</ele><time>2026-03-22T14:04:48Z</time></trkpt><trkpt lat="45.287175428648" lon="8.970237672657163"><ele>95.33333333333334</ele><time>2026-03-22T14:04:49Z</time></trkpt><trkpt lat="45.287125139999745" lon="8.970348423181305"><ele>94.5</ele><time>2026-03-22T14:04:50Z</time></trkpt><trkpt lat="45.28707891761679" lon="8.970456003593853"><ele>93.66666666666667</ele><time>2026-03-22T14:04:51Z</time></trkpt><trkpt lat="45.28703843479872" lon="8.970558662350054"><ele>92.83333333333334</ele><time>2026-03-22T14:04:52Z</time></trkpt><trkpt lat="45.287010875869214" lon="8.970640658564514"><ele>92.0</ele><time>2026-03-22T14:04:53Z</time></trkpt><trkpt lat="45.28698407918809" lon="8.970805547238623"><ele>93.0</ele><time>2026-03-22T14:04:55Z</time></trkpt><trkpt lat="45.286967996032836" lon="8.970901484265834"><ele>94.0</ele><time>2026-03-22T14:04:56Z</time></trkpt><trkpt lat="45.286987853158294" lon="8.97100282193409"><ele>95.0</ele><time>2026-03-22T14:04:57Z</time></trkpt><trkpt lat="45.2870073851545" lon="8.971114997589657"><ele>96.0</ele><time>2026-03-22T14:04:58Z</time></trkpt><trkpt lat="45.287024127246895" lon="8.971232593050424"><ele>96.99999999999999</ele><time>2026-03-22T14:04:59Z</time></trkpt><trkpt lat="45.28704074686268" lon="8.971351039321625"><ele>98.0</ele><time>2026-03-22T14:05:00Z</time></trkpt><trkpt lat="45.28705489514658" lon="8.97146270921161"><ele>97.99999999999999</ele><time>2026-03-22T14:05:01Z</time></trkpt><trkpt lat="45.287070019313305" lon="8.971565266217757"><ele>98.0</ele><time>2026-03-22T14:05:02Z</time></trkpt><trkpt lat="45.28708839754131" lon="8.971655430216453"><ele>98.0</ele><time>2026-03-22T14:05:03Z</time></trkpt><trkpt lat="45.28710128824648" lon="8.97174800403991"><ele>98.0</ele><time>2026-03-22T14:05:04Z</time></trkpt><trkpt lat="45.287125067870214" lon="8.97190638863067"><ele>97.99999999999999</ele><time>2026-03-22T14:05:06Z</time></trkpt><trkpt lat="45.28712740300238" lon="8.972000391867201"><ele>98.0</ele><time>2026-03-22T14:05:07Z</time></trkpt><trkpt lat="45.28713925776623" lon="8.972098945545717"><ele>98.28571428571429</ele><time>2026-03-22T14:05:08Z</time></trkpt><trkpt lat="45.287157229007015" lon="8.972203162991617"><ele>98.57142857142857</ele><time>2026-03-22T14:05:09Z</time></trkpt><trkpt lat="45.28716950831346" lon="8.972302703432208"><ele>98.85714285714286</ele><time>2026-03-22T14:05:10Z</time></trkpt><trkpt lat="45.287182602293825" lon="8.972409167774897"><ele>99.14285714285714</ele><time>2026-03-22T14:05:11Z</time></trkpt><trkpt lat="45.28719149590471" lon="8.972518725203253"><ele>99.42857142857143</ele><time>2026-03-22T14:05:12Z</time></trkpt><trkpt lat="45.28720423773222" lon="8.9726190625836"><ele>99.71428571428572</ele><time>2026-03-22T14:05:13Z</time></trkpt><trkpt lat="45.28721223602685" lon="8.972722568683004"><ele>100.0</ele><time>2026-03-22T14:05:14Z</time></trkpt><trkpt lat="45.287222766865064" lon="8.972831349010873"><ele>100.16666666666667</ele><time>2026-03-22T14:05:15Z</time></trkpt><trkpt lat="45.28723758876543" lon="8.97294702915529"><ele>100.33333333333334</ele><time>2026-03-22T14:05:16Z</time></trkpt><trkpt lat="45.28724478662977" lon="8.973065000321553"><ele>100.5</ele><time>2026-03-22T14:05:17Z</time></trkpt><trkpt lat="45.28724671492284" lon="8.973159449878404"><ele>100.66666666666666</ele><time>2026-03-22T14:05:18Z</time></trkpt><trkpt lat="45.2872492473597" lon="8.973293059692773"><ele>100.83333333333333</ele><time>2026-03-22T14:05:20Z</time></trkpt><trkpt lat="45.287205744857296" lon="8.973371511006903"><ele>101.0</ele><time>2026-03-22T14:05:24Z</time></trkpt><trkpt lat="45.28714110964621" lon="8.973391683705296"><ele>101.19999999999999</ele><time>2026-03-22T14:05:26Z</time></trkpt><trkpt lat="45.286956367477636" lon="8.973513540835633"><ele>101.39999999999999</ele><time>2026-03-22T14:05:28Z</time></trkpt><trkpt lat="45.28689562618018" lon="8.97354817299956"><ele>101.6</ele><time>2026-03-22T14:05:29Z</time></trkpt><trkpt lat="45.28681408123229" lon="8.973586846036268"><ele>101.8</ele><time>2026-03-22T14:05:30Z</time></trkpt><trkpt lat="45.286745695228795" lon="8.973614424123243"><ele>102.0</ele><time>2026-03-22T14:05:31Z</time></trkpt><trkpt lat="45.28666591311568" lon="8.97365851336094"><ele>102.0</ele><time>2026-03-22T14:05:33Z</time></trkpt><trkpt lat="45.28653921832452" lon="8.973711945503153"><ele>102.0</ele><time>2026-03-22T14:05:35Z</time></trkpt><trkpt lat="45.28646797055021" lon="8.973748181605012"><ele>102.0</ele><time>2026-03-22T14:05:36Z</time></trkpt><trkpt lat="45.28639137302298" lon="8.973765051610924"><ele>102.0</ele><time>2026-03-22T14:05:37Z</time></trkpt><trkpt lat="45.28630384763322" lon="8.973803672095757"><ele>102.0</ele><time>2026-03-22T14:05:38Z</time></trkpt><trkpt lat="45.2862327137409" lon="8.97382930423278"><ele>102.0</ele><time>2026-03-22T14:05:39Z</time></trkpt><trkpt lat="45.28615333004668" lon="8.973862639874518"><ele>102.0</ele><time>2026-03-22T14:05:40Z</time></trkpt><trkpt lat="45.28608804189134" lon="8.973884205703499"><ele>102.0</ele><time>2026-03-22T14:05:41Z</time></trkpt><trkpt lat="45.2860261303109" lon="8.973906518992841"><ele>102.0</ele><time>2026-03-22T14:05:42Z</time></trkpt><trkpt lat="45.285906443381336" lon="8.973960081495852"><ele>102.0</ele><time>2026-03-22T14:05:44Z</time></trkpt><trkpt lat="45.28582494840808" lon="8.974010110992753"><ele>102.0</ele><time>2026-03-22T14:05:45Z</time></trkpt><trkpt lat="45.28574115185683" lon="8.974047057175152"><ele>102.0</ele><time>2026-03-22T14:05:46Z</time></trkpt><trkpt lat="45.28567442872066" lon="8.974079384501524"><ele>102.0</ele><time>2026-03-22T14:05:47Z</time></trkpt><trkpt lat="45.285569522534274" lon="8.974090705518751"><ele>102.0</ele><time>2026-03-22T14:05:49Z</time></trkpt><trkpt lat="45.28546610368632" lon="8.974099337808184"><ele>102.0</ele><time>2026-03-22T14:05:52Z</time></trkpt><trkpt lat="45.28539645437296" lon="8.974151564184707"><ele>102.0</ele><time>2026-03-22T14:05:53Z</time></trkpt><trkpt lat="45.28533269123757" lon="8.97421120590599"><ele>102.0</ele><time>2026-03-22T14:05:54Z</time></trkpt><trkpt lat="45.285285048930746" lon="8.974283044030347"><ele>102.16666666666667</ele><time>2026-03-22T14:05:55Z</time></trkpt><trkpt lat="45.285245305476266" lon="8.974359928155861"><ele>102.33333333333334</ele><time>2026-03-22T14:05:56Z</time></trkpt><trkpt lat="45.28519278040217" lon="8.974421911651778"><ele>102.5</ele><time>2026-03-22T14:05:57Z</time></trkpt><trkpt lat="45.28511916863111" lon="8.97445761371516"><ele>102.66666666666667</ele><time>2026-03-22T14:05:58Z</time></trkpt><trkpt lat="45.285038294274244" lon="8.974485603109345"><ele>102.83333333333334</ele><time>2026-03-22T14:05:59Z</time></trkpt><trkpt lat="45.28494634817939" lon="8.974524582715135"><ele>103.0</ele><time>2026-03-22T14:06:00Z</time></trkpt><trkpt lat="45.28486408894933" lon="8.974564998469862"><ele>103.0</ele><time>2026-03-22T14:06:01Z</time></trkpt><trkpt lat="45.28479987342032" lon="8.974611514868474"><ele>103.0</ele><time>2026-03-22T14:06:02Z</time></trkpt><trkpt lat="45.28471831139405" lon="8.974646356490547"><ele>103.0</ele><time>2026-03-22T14:06:03Z</time></trkpt><trkpt lat="45.28462654087862" lon="8.974685553432593"><ele>103.0</ele><time>2026-03-22T14:06:04Z</time></trkpt><trkpt lat="45.2845276303543" lon="8.974736678477555"><ele>103.0</ele><time>2026-03-22T14:06:05Z</time></trkpt><trkpt lat="45.2844240994708" lon="8.974806038620079"><ele>103.0</ele><time>2026-03-22T14:06:06Z</time></trkpt><trkpt lat="45.28432676874396" lon="8.974876217548683"><ele>103.0</ele><time>2026-03-22T14:06:07Z</time></trkpt><trkpt lat="45.28423795662741" lon="8.974936320623616"><ele>103.0</ele><time>2026-03-22T14:06:08Z</time></trkpt><trkpt lat="45.284160375352954" lon="8.974999898646443"><ele>103.0</ele><time>2026-03-22T14:06:09Z</time></trkpt><trkpt lat="45.284076015437975" lon="8.975055469639742"><ele>103.0</ele><time>2026-03-22T14:06:10Z</time></trkpt><trkpt lat="45.28399363669676" lon="8.975113616289281"><ele>102.66666666666667</ele><time>2026-03-22T14:06:11Z</time></trkpt><trkpt lat="45.283911940030855" lon="8.975169007317048"><ele>102.33333333333334</ele><time>2026-03-22T14:06:12Z</time></trkpt><trkpt lat="45.283831481470365" lon="8.975245733160753"><ele>102.0</ele><time>2026-03-22T14:06:13Z</time></trkpt><trkpt lat="45.28375370344624" lon="8.975302149763248"><ele>101.66666666666666</ele><time>2026-03-22T14:06:14Z</time></trkpt><trkpt lat="45.28367735894681" lon="8.975342568361217"><ele>101.33333333333333</ele><time>2026-03-22T14:06:15Z</time></trkpt><trkpt lat="45.28360692296634" lon="8.975393603838187"><ele>101.0</ele><time>2026-03-22T14:06:16Z</time></trkpt><trkpt lat="45.28349276251064" lon="8.9754652711225"><ele>101.0</ele><time>2026-03-22T14:06:18Z</time></trkpt><trkpt lat="45.28343025681945" lon="8.975502849101204"><ele>101.0</ele><time>2026-03-22T14:06:19Z</time></trkpt><trkpt lat="45.2833695755819" lon="8.975534816303659"><ele>101.0</ele><time>2026-03-22T14:06:20Z</time></trkpt><trkpt lat="45.28329185480075" lon="8.975570286549889"><ele>101.0</ele><time>2026-03-22T14:06:21Z</time></trkpt><trkpt lat="45.283223312442225" lon="8.975588424335523"><ele>101.0</ele><time>2026-03-22T14:06:22Z</time></trkpt><trkpt lat="45.28314311430701" lon="8.97561316759026"><ele>101.0</ele><time>2026-03-22T14:06:23Z</time></trkpt><trkpt lat="45.28306525338051" lon="8.975621435970092"><ele>101.0</ele><time>2026-03-22T14:06:24Z</time></trkpt><trkpt lat="45.28299122791702" lon="8.975643263870232"><ele>100.49999999999999</ele><time>2026-03-22T14:06:25Z</time></trkpt><trkpt lat="45.28292488787396" lon="8.97564629581723"><ele>100.0</ele><time>2026-03-22T14:06:26Z</time></trkpt><trkpt lat="45.28285733823897" lon="8.975667164222466"><ele>99.5</ele><time>2026-03-22T14:06:27Z</time></trkpt><trkpt lat="45.28279065679854" lon="8.975658559981476"><ele>99.0</ele><time>2026-03-22T14:06:28Z</time></trkpt><trkpt lat="45.28266845864343" lon="8.97565459766658"><ele>98.49999999999999</ele><time>2026-03-22T14:06:30Z</time></trkpt><trkpt lat="45.28259145180308" lon="8.975677784372529"><ele>98.0</ele><time>2026-03-22T14:06:32Z</time></trkpt><trkpt lat="45.282573076547386" lon="8.975817623951693"><ele>98.4</ele><time>2026-03-22T14:06:35Z</time></trkpt><trkpt lat="45.28252113742287" lon="8.975916648214396"><ele>98.80000000000001</ele><time>2026-03-22T14:06:36Z</time></trkpt><trkpt lat="45.282525313144944" lon="8.976021990492265"><ele>99.2</ele><time>2026-03-22T14:06:37Z</time></trkpt><trkpt lat="45.282529614025144" lon="8.976161906170471"><ele>99.6</ele><time>2026-03-22T14:06:38Z</time></trkpt><trkpt lat="45.2825339805713" lon="8.976303958718452"><ele>100.0</ele><time>2026-03-22T14:06:39Z</time></trkpt><trkpt lat="45.28253704337141" lon="8.976470029517222"><ele>100.00000000000001</ele><time>2026-03-22T14:06:40Z</time></trkpt><trkpt lat="45.28253942953778" lon="8.976606800211002"><ele>100.0</ele><time>2026-03-22T14:06:41Z</time></trkpt><trkpt lat="45.28254143949485" lon="8.976714970686071"><ele>100.0</ele><time>2026-03-22T14:06:42Z</time></trkpt><trkpt lat="45.28254368097462" lon="8.976810481856024"><ele>100.0</ele><time>2026-03-22T14:06:43Z</time></trkpt><trkpt lat="45.28254590439173" lon="8.976905222743163"><ele>100.00000000000001</ele><time>2026-03-22T14:06:44Z</time></trkpt><trkpt lat="45.28254839228654" lon="8.977011233477542"><ele>100.0</ele><time>2026-03-22T14:06:45Z</time></trkpt><trkpt lat="45.28255097836306" lon="8.9771214277841"><ele>100.14285714285715</ele><time>2026-03-22T14:06:46Z</time></trkpt><trkpt lat="45.28255269110754" lon="8.977221063999274"><ele>100.28571428571429</ele><time>2026-03-22T14:06:47Z</time></trkpt><trkpt lat="45.28255369478418" lon="8.977325595889194"><ele>100.42857142857143</ele><time>2026-03-22T14:06:48Z</time></trkpt><trkpt lat="45.282554673406004" lon="8.97742751825438"><ele>100.57142857142858</ele><time>2026-03-22T14:06:49Z</time></trkpt><trkpt lat="45.28255568143279" lon="8.977532503300072"><ele>100.71428571428571</ele><time>2026-03-22T14:06:50Z</time></trkpt><trkpt lat="45.28255668593753" lon="8.977637121334062"><ele>100.85714285714286</ele><time>2026-03-22T14:06:51Z</time></trkpt><trkpt lat="45.28255755466326" lon="8.977727601292642"><ele>101.0</ele><time>2026-03-22T14:06:52Z</time></trkpt><trkpt lat="45.282563990397065" lon="8.977904050817578"><ele>101.0</ele><time>2026-03-22T14:06:54Z</time></trkpt><trkpt lat="45.28256680429108" lon="8.977999494564301"><ele>101.0</ele><time>2026-03-22T14:06:55Z</time></trkpt><trkpt lat="45.282569586258155" lon="8.978099593962721"><ele>101.0</ele><time>2026-03-22T14:06:56Z</time></trkpt><trkpt lat="45.28257149635717" lon="8.97819836616735"><ele>101.0</ele><time>2026-03-22T14:06:57Z</time></trkpt><trkpt lat="45.28257351861485" lon="8.978302938179812"><ele>101.0</ele><time>2026-03-22T14:06:58Z</time></trkpt><trkpt lat="45.2825753369858" lon="8.978396966974627"><ele>101.0</ele><time>2026-03-22T14:06:59Z</time></trkpt><trkpt lat="45.28257736617443" lon="8.978499719079114"><ele>101.0</ele><time>2026-03-22T14:07:00Z</time></trkpt><trkpt lat="45.282579470711894" lon="8.978599469902866"><ele>100.99999999999999</ele><time>2026-03-22T14:07:01Z</time></trkpt><trkpt lat="45.282657294666606" lon="8.978684380190087"><ele>101.0</ele><time>2026-03-22T14:07:02Z</time></trkpt><trkpt lat="45.282662266207296" lon="8.978774357566842"><ele>101.0</ele><time>2026-03-22T14:07:03Z</time></trkpt><trkpt lat="45.28266033686939" lon="8.978868929624905"><ele>101.0</ele><time>2026-03-22T14:07:04Z</time></trkpt><trkpt lat="45.28265952451913" lon="8.978959619139506"><ele>100.99999999999999</ele><time>2026-03-22T14:07:05Z</time></trkpt><trkpt lat="45.282665588142216" lon="8.97911819392039"><ele>101.0</ele><time>2026-03-22T14:07:07Z</time></trkpt><trkpt lat="45.28258193451012" lon="8.979253797813506"><ele>100.5</ele><time>2026-03-22T14:07:09Z</time></trkpt><trkpt lat="45.28257590901366" lon="8.979351633235199"><ele>100.0</ele><time>2026-03-22T14:07:12Z</time></trkpt><trkpt lat="45.282558820560176" lon="8.979629107670604"><ele>99.5</ele><time>2026-03-22T14:07:20Z</time></trkpt><trkpt lat="45.2825525491882" lon="8.979730939824288"><ele>99.0</ele><time>2026-03-22T14:07:21Z</time></trkpt><trkpt lat="45.28262427693683" lon="8.979857032895604"><ele>99.0</ele><time>2026-03-22T14:07:22Z</time></trkpt><trkpt lat="45.28264834339748" lon="8.97999342695576"><ele>99.0</ele><time>2026-03-22T14:07:23Z</time></trkpt><trkpt lat="45.282670812125545" lon="8.980138724106546"><ele>99.0</ele><time>2026-03-22T14:07:24Z</time></trkpt><trkpt lat="45.28269299519324" lon="8.980289500380335"><ele>99.0</ele><time>2026-03-22T14:07:25Z</time></trkpt><trkpt lat="45.282715041344254" lon="8.980438563750461"><ele>99.0</ele><time>2026-03-22T14:07:26Z</time></trkpt><trkpt lat="45.28273940950842" lon="8.980593208335891"><ele>98.6</ele><time>2026-03-22T14:07:27Z</time></trkpt><trkpt lat="45.28275671733134" lon="8.980715126888287"><ele>98.2</ele><time>2026-03-22T14:07:28Z</time></trkpt><trkpt lat="45.28277292142899" lon="8.980864588686382"><ele>97.8</ele><time>2026-03-22T14:07:29Z</time></trkpt><trkpt lat="45.28278722766516" lon="8.981012408109109"><ele>97.39999999999999</ele><time>2026-03-22T14:07:30Z</time></trkpt><trkpt lat="45.282803718124434" lon="8.98114860913135"><ele>97.0</ele><time>2026-03-22T14:07:31Z</time></trkpt><trkpt lat="45.28281768230695" lon="8.981279317028326"><ele>97.66666666666667</ele><time>2026-03-22T14:07:32Z</time></trkpt><trkpt lat="45.28283950041108" lon="8.981412909710915"><ele>98.33333333333334</ele><time>2026-03-22T14:07:33Z</time></trkpt><trkpt lat="45.28285887577972" lon="8.981540730281184"><ele>99.0</ele><time>2026-03-22T14:07:34Z</time></trkpt><trkpt lat="45.28288212511181" lon="8.981651463171636"><ele>99.66666666666666</ele><time>2026-03-22T14:07:35Z</time></trkpt><trkpt lat="45.28289732606259" lon="8.981750469984014"><ele>100.33333333333333</ele><time>2026-03-22T14:07:36Z</time></trkpt><trkpt lat="45.28290705982649" lon="8.981850951522327"><ele>101.0</ele><time>2026-03-22T14:07:37Z</time></trkpt><trkpt lat="45.28292456430187" lon="8.981963870317331"><ele>101.83333333333333</ele><time>2026-03-22T14:07:38Z</time></trkpt><trkpt lat="45.2829366475777" lon="8.982080114291712"><ele>102.66666666666666</ele><time>2026-03-22T14:07:39Z</time></trkpt><trkpt lat="45.28295631735934" lon="8.982192243509308"><ele>103.5</ele><time>2026-03-22T14:07:40Z</time></trkpt><trkpt lat="45.282964150075166" lon="8.982298782132943"><ele>104.33333333333334</ele><time>2026-03-22T14:07:41Z</time></trkpt><trkpt lat="45.28297721483531" lon="8.982401175663997"><ele>105.16666666666667</ele><time>2026-03-22T14:07:42Z</time></trkpt><trkpt lat="45.28299277658791" lon="8.982514807452961"><ele>106.0</ele><time>2026-03-22T14:07:43Z</time></trkpt><trkpt lat="45.283006589708755" lon="8.982612073257291"><ele>106.0</ele><time>2026-03-22T14:07:44Z</time></trkpt><trkpt lat="45.28300567946071" lon="8.982705161956394"><ele>106.0</ele><time>2026-03-22T14:07:45Z</time></trkpt><trkpt lat="45.283014282565475" lon="8.982808356392328"><ele>106.0</ele><time>2026-03-22T14:07:46Z</time></trkpt><trkpt lat="45.28302772788887" lon="8.982980290660135"><ele>106.0</ele><time>2026-03-22T14:07:48Z</time></trkpt><trkpt lat="45.28304502956474" lon="8.983148082337136"><ele>106.0</ele><time>2026-03-22T14:07:50Z</time></trkpt><trkpt lat="45.283066989665606" lon="8.983282346354388"><ele>105.50000000000001</ele><time>2026-03-22T14:07:52Z</time></trkpt><trkpt lat="45.283077543083365" lon="8.983396945321466"><ele>105.0</ele><time>2026-03-22T14:07:54Z</time></trkpt><trkpt lat="45.28308915497972" lon="8.983528456314676"><ele>104.5</ele><time>2026-03-22T14:07:56Z</time></trkpt><trkpt lat="45.28310712385826" lon="8.983659141744278"><ele>104.0</ele><time>2026-03-22T14:07:58Z</time></trkpt><trkpt lat="45.28312186091468" lon="8.983771036697638"><ele>103.50000000000001</ele><time>2026-03-22T14:08:00Z</time></trkpt><trkpt lat="45.28314310646898" lon="8.983877958899233"><ele>103.0</ele><time>2026-03-22T14:08:02Z</time></trkpt><trkpt lat="45.28315166284736" lon="8.983990056623592"><ele>102.33333333333334</ele><time>2026-03-22T14:08:04Z</time></trkpt><trkpt lat="45.28316102583224" lon="8.984130471630577"><ele>101.66666666666667</ele><time>2026-03-22T14:08:06Z</time></trkpt><trkpt lat="45.283179051673926" lon="8.984281402886278"><ele>101.0</ele><time>2026-03-22T14:08:08Z</time></trkpt><trkpt lat="45.28319533119955" lon="8.984371240570454"><ele>100.33333333333334</ele><time>2026-03-22T14:08:09Z</time></trkpt><trkpt lat="45.283217895940716" lon="8.984527827263735"><ele>99.66666666666667</ele><time>2026-03-22T14:08:11Z</time></trkpt><trkpt lat="45.28323356669033" lon="8.984616299126992"><ele>99.0</ele><time>2026-03-22T14:08:12Z</time></trkpt><trkpt lat="45.28326638214342" lon="8.984784710789782"><ele>99.0</ele><time>2026-03-22T14:08:14Z</time></trkpt><trkpt lat="45.28329359476492" lon="8.984936151963337"><ele>99.0</ele><time>2026-03-22T14:08:16Z</time></trkpt><trkpt lat="45.28330584884216" lon="8.985058210619467"><ele>99.0</ele><time>2026-03-22T14:08:18Z</time></trkpt><trkpt lat="45.28333237905213" lon="8.985154688676868"><ele>99.0</ele><time>2026-03-22T14:08:21Z</time></trkpt><trkpt lat="45.28327477320155" lon="8.98523856661385"><ele>99.0</ele><time>2026-03-22T14:09:23Z</time></trkpt><trkpt lat="45.28317314223169" lon="8.985262829119929"><ele>99.25</ele><time>2026-03-22T14:09:24Z</time></trkpt><trkpt lat="45.283059589867435" lon="8.985243247435951"><ele>99.5</ele><time>2026-03-22T14:09:25Z</time></trkpt><trkpt lat="45.28294970446172" lon="8.985310597574202"><ele>99.75</ele><time>2026-03-22T14:09:26Z</time></trkpt><trkpt lat="45.28283893871657" lon="8.985407725690187"><ele>100.0</ele><time>2026-03-22T14:09:27Z</time></trkpt><trkpt lat="45.28274438384545" lon="8.985518633851425"><ele>100.0</ele><time>2026-03-22T14:09:28Z</time></trkpt><trkpt lat="45.28265801991599" lon="8.9856661650334"><ele>100.0</ele><time>2026-03-22T14:09:29Z</time></trkpt><trkpt lat="45.28258197250794" lon="8.98583568765057"><ele>100.0</ele><time>2026-03-22T14:09:30Z</time></trkpt><trkpt lat="45.28252270584971" lon="8.986023258292965"><ele>100.0</ele><time>2026-03-22T14:09:31Z</time></trkpt><trkpt lat="45.282471447015894" lon="8.986213740908362"><ele>99.5</ele><time>2026-03-22T14:09:32Z</time></trkpt><trkpt lat="45.28242220174669" lon="8.986402800003336"><ele>99.0</ele><time>2026-03-22T14:09:33Z</time></trkpt><trkpt lat="45.28237521204278" lon="8.986586129878813"><ele>98.5</ele><time>2026-03-22T14:09:34Z</time></trkpt><trkpt lat="45.28232769551613" lon="8.986771514958207"><ele>98.0</ele><time>2026-03-22T14:09:35Z</time></trkpt><trkpt lat="45.28227794624745" lon="8.986966167325326"><ele>95.75</ele><time>2026-03-22T14:09:36Z</time></trkpt><trkpt lat="45.282230001312534" lon="8.987153885805489"><ele>93.5</ele><time>2026-03-22T14:09:37Z</time></trkpt><trkpt lat="45.282183178849415" lon="8.987337209442678"><ele>91.25</ele><time>2026-03-22T14:09:38Z</time></trkpt><trkpt lat="45.28213671804161" lon="8.987519116946276"><ele>89.0</ele><time>2026-03-22T14:09:39Z</time></trkpt><trkpt lat="45.282091429084566" lon="8.987696436751888"><ele>89.0</ele><time>2026-03-22T14:09:40Z</time></trkpt><trkpt lat="45.28204722315964" lon="8.987869515640993"><ele>89.0</ele><time>2026-03-22T14:09:41Z</time></trkpt><trkpt lat="45.28200092644713" lon="8.988047313145424"><ele>89.0</ele><time>2026-03-22T14:09:42Z</time></trkpt><trkpt lat="45.28195522776113" lon="8.988222688394252"><ele>89.0</ele><time>2026-03-22T14:09:43Z</time></trkpt><trkpt lat="45.28190703543667" lon="8.988396616889563"><ele>91.5</ele><time>2026-03-22T14:09:44Z</time></trkpt><trkpt lat="45.281855880068" lon="8.988568528943352"><ele>94.0</ele><time>2026-03-22T14:09:45Z</time></trkpt><trkpt lat="45.28179981058857" lon="8.988734932201124"><ele>96.5</ele><time>2026-03-22T14:09:46Z</time></trkpt><trkpt lat="45.281737615730066" lon="8.98889375789557"><ele>99.0</ele><time>2026-03-22T14:09:47Z</time></trkpt><trkpt lat="45.28166797335951" lon="8.98904652868776"><ele>99.0</ele><time>2026-03-22T14:09:48Z</time></trkpt><trkpt lat="45.28158820926917" lon="8.989201530666614"><ele>99.0</ele><time>2026-03-22T14:09:49Z</time></trkpt><trkpt lat="45.28150710615808" lon="8.98935693917812"><ele>99.0</ele><time>2026-03-22T14:09:50Z</time></trkpt><trkpt lat="45.28142423550235" lon="8.989514983110492"><ele>99.0</ele><time>2026-03-22T14:09:51Z</time></trkpt><trkpt lat="45.28133933985371" lon="8.989673868602674"><ele>98.25</ele><time>2026-03-22T14:09:52Z</time></trkpt><trkpt lat="45.28125325412473" lon="8.989834981399168"><ele>97.5</ele><time>2026-03-22T14:09:53Z</time></trkpt><trkpt lat="45.281167369845384" lon="8.989997761851772"><ele>96.75</ele><time>2026-03-22T14:09:54Z</time></trkpt><trkpt lat="45.2810857165206" lon="8.99015866917294"><ele>96.0</ele><time>2026-03-22T14:09:55Z</time></trkpt><trkpt lat="45.281003314379774" lon="8.990337568750249"><ele>95.75</ele><time>2026-03-22T14:09:56Z</time></trkpt><trkpt lat="45.280935792531054" lon="8.990510700535124"><ele>95.5</ele><time>2026-03-22T14:09:57Z</time></trkpt><trkpt lat="45.28088078919849" lon="8.990681694782996"><ele>95.25</ele><time>2026-03-22T14:09:58Z</time></trkpt><trkpt lat="45.280839475743875" lon="8.99085680652738"><ele>95.0</ele><time>2026-03-22T14:09:59Z</time></trkpt><trkpt lat="45.280802664190176" lon="8.991027016913458"><ele>95.0</ele><time>2026-03-22T14:10:00Z</time></trkpt><trkpt lat="45.280772603735066" lon="8.991202899071794"><ele>95.0</ele><time>2026-03-22T14:10:01Z</time></trkpt><trkpt lat="45.28074701833759" lon="8.991374520247225"><ele>95.0</ele><time>2026-03-22T14:10:02Z</time></trkpt><trkpt lat="45.2807252889093" lon="8.99154532848346"><ele>95.0</ele><time>2026-03-22T14:10:03Z</time></trkpt><trkpt lat="45.28070602165968" lon="8.991708858047598"><ele>95.25</ele><time>2026-03-22T14:10:04Z</time></trkpt><trkpt lat="45.28068709841897" lon="8.991869467759807"><ele>95.5</ele><time>2026-03-22T14:10:05Z</time></trkpt><trkpt lat="45.28066840011512" lon="8.992028168306225"><ele>95.75</ele><time>2026-03-22T14:10:06Z</time></trkpt><trkpt lat="45.28064953482654" lon="8.992188286169036"><ele>96.0</ele><time>2026-03-22T14:10:07Z</time></trkpt><trkpt lat="45.28063097862418" lon="8.99234577908296"><ele>96.0</ele><time>2026-03-22T14:10:08Z</time></trkpt><trkpt lat="45.28061165589632" lon="8.992502172781512"><ele>96.0</ele><time>2026-03-22T14:10:09Z</time></trkpt><trkpt lat="45.28059283563455" lon="8.99265597157989"><ele>96.0</ele><time>2026-03-22T14:10:10Z</time></trkpt><trkpt lat="45.28057373697522" lon="8.992821893381981"><ele>96.0</ele><time>2026-03-22T14:10:11Z</time></trkpt><trkpt lat="45.28055313436554" lon="8.992996622003918"><ele>96.0</ele><time>2026-03-22T14:10:12Z</time></trkpt><trkpt lat="45.2805322242761" lon="8.993174938884742"><ele>96.0</ele><time>2026-03-22T14:10:13Z</time></trkpt><trkpt lat="45.28051126852404" lon="8.993353271991943"><ele>96.0</ele><time>2026-03-22T14:10:14Z</time></trkpt><trkpt lat="45.2804903816167" lon="8.993531019167103"><ele>96.0</ele><time>2026-03-22T14:10:15Z</time></trkpt><trkpt lat="45.2804697976976" lon="8.99370618789174"><ele>96.0</ele><time>2026-03-22T14:10:16Z</time></trkpt><trkpt lat="45.28044908954475" lon="8.993882413898001"><ele>96.0</ele><time>2026-03-22T14:10:17Z</time></trkpt><trkpt lat="45.280428320460985" lon="8.994059158402473"><ele>96.0</ele><time>2026-03-22T14:10:18Z</time></trkpt><trkpt lat="45.280408535897585" lon="8.994227524656237"><ele>96.0</ele><time>2026-03-22T14:10:19Z</time></trkpt><trkpt lat="45.28038937153387" lon="8.994390613138448"><ele>96.75</ele><time>2026-03-22T14:10:20Z</time></trkpt><trkpt lat="45.280369743099385" lon="8.994557650634233"><ele>97.5</ele><time>2026-03-22T14:10:21Z</time></trkpt><trkpt lat="45.280349741064896" lon="8.994727865661233"><ele>98.25</ele><time>2026-03-22T14:10:22Z</time></trkpt><trkpt lat="45.28033090312929" lon="8.994901939510418"><ele>99.0</ele><time>2026-03-22T14:10:23Z</time></trkpt><trkpt lat="45.28031057954389" lon="8.995079577512541"><ele>99.5</ele><time>2026-03-22T14:10:24Z</time></trkpt><trkpt lat="45.28029032006576" lon="8.995258908245207"><ele>100.0</ele><time>2026-03-22T14:10:25Z</time></trkpt><trkpt lat="45.2802698195664" lon="8.995440372396281"><ele>100.5</ele><time>2026-03-22T14:10:26Z</time></trkpt><trkpt lat="45.280248882611666" lon="8.995625699926368"><ele>101.0</ele><time>2026-03-22T14:10:27Z</time></trkpt><trkpt lat="45.2802242728122" lon="8.99581116822108"><ele>100.75</ele><time>2026-03-22T14:10:28Z</time></trkpt><trkpt lat="45.28019453479911" lon="8.995996914719543"><ele>100.5</ele><time>2026-03-22T14:10:29Z</time></trkpt><trkpt lat="45.28016026992588" lon="8.996186318889203"><ele>100.25</ele><time>2026-03-22T14:10:30Z</time></trkpt><trkpt lat="45.280118117281766" lon="8.996377079937064"><ele>100.0</ele><time>2026-03-22T14:10:31Z</time></trkpt><trkpt lat="45.280068220620784" lon="8.996572133990322"><ele>99.75</ele><time>2026-03-22T14:10:32Z</time></trkpt><trkpt lat="45.280011150883034" lon="8.996762244240623"><ele>99.5</ele><time>2026-03-22T14:10:33Z</time></trkpt><trkpt lat="45.27994745308592" lon="8.996946162363662"><ele>99.25</ele><time>2026-03-22T14:10:34Z</time></trkpt><trkpt lat="45.27987581780917" lon="8.99712449128832"><ele>99.0</ele><time>2026-03-22T14:10:35Z</time></trkpt><trkpt lat="45.27979866871998" lon="8.997293701649168"><ele>99.0</ele><time>2026-03-22T14:10:36Z</time></trkpt><trkpt lat="45.27971490938568" lon="8.997456689277719"><ele>99.0</ele><time>2026-03-22T14:10:37Z</time></trkpt><trkpt lat="45.27962318854752" lon="8.997612269952285"><ele>99.0</ele><time>2026-03-22T14:10:38Z</time></trkpt><trkpt lat="45.279523828718936" lon="8.9977610897445"><ele>99.0</ele><time>2026-03-22T14:10:39Z</time></trkpt><trkpt lat="45.2794215825341" lon="8.997901993688943"><ele>99.0</ele><time>2026-03-22T14:10:40Z</time></trkpt><trkpt lat="45.279312324820204" lon="8.99803127519567"><ele>99.0</ele><time>2026-03-22T14:10:41Z</time></trkpt><trkpt lat="45.279198886035154" lon="8.99814767984762"><ele>99.0</ele><time>2026-03-22T14:10:42Z</time></trkpt><trkpt lat="45.27907833593007" lon="8.998258528945502"><ele>99.0</ele><time>2026-03-22T14:10:43Z</time></trkpt><trkpt lat="45.27895186330183" lon="8.99836803450597"><ele>100.0</ele><time>2026-03-22T14:10:44Z</time></trkpt><trkpt lat="45.27882123740649" lon="8.99847077638517"><ele>101.0</ele><time>2026-03-22T14:10:45Z</time></trkpt><trkpt lat="45.2786871107775" lon="8.99856738236977"><ele>102.0</ele><time>2026-03-22T14:10:46Z</time></trkpt><trkpt lat="45.27854865162262" lon="8.998661252927969"><ele>102.0</ele><time>2026-03-22T14:10:47Z</time></trkpt><trkpt lat="45.278409096504916" lon="8.998742999167364"><ele>102.0</ele><time>2026-03-22T14:10:48Z</time></trkpt><trkpt lat="45.27826827572282" lon="8.998827670665309"><ele>102.0</ele><time>2026-03-22T14:10:49Z</time></trkpt><trkpt lat="45.27812670204778" lon="8.998909779257724"><ele>101.66666666666666</ele><time>2026-03-22T14:10:50Z</time></trkpt><trkpt lat="45.27798208742956" lon="8.998996377921289"><ele>101.33333333333333</ele><time>2026-03-22T14:10:51Z</time></trkpt><trkpt lat="45.277841943453204" lon="8.999082469876397"><ele>101.0</ele><time>2026-03-22T14:10:52Z</time></trkpt><trkpt lat="45.277703421367725" lon="8.999167565514137"><ele>101.0</ele><time>2026-03-22T14:10:53Z</time></trkpt><trkpt lat="45.27756637044291" lon="8.999251757343247"><ele>101.0</ele><time>2026-03-22T14:10:54Z</time></trkpt><trkpt lat="45.27743335271173" lon="8.999335308811949"><ele>101.0</ele><time>2026-03-22T14:10:55Z</time></trkpt><trkpt lat="45.27729842844241" lon="8.999437832372582"><ele>101.0</ele><time>2026-03-22T14:10:56Z</time></trkpt><trkpt lat="45.27718232919702" lon="8.999562615835735"><ele>100.75</ele><time>2026-03-22T14:10:57Z</time></trkpt><trkpt lat="45.27707207420341" lon="8.999708352105575"><ele>100.5</ele><time>2026-03-22T14:10:58Z</time></trkpt><trkpt lat="45.276966388020796" lon="8.999845255075028"><ele>100.25</ele><time>2026-03-22T14:10:59Z</time></trkpt><trkpt lat="45.27685839746048" lon="8.999982997937664"><ele>100.0</ele><time>2026-03-22T14:11:00Z</time></trkpt><trkpt lat="45.27674877533909" lon="9.00011547093461"><ele>100.0</ele><time>2026-03-22T14:11:01Z</time></trkpt><trkpt lat="45.27663338860417" lon="9.000248517172627"><ele>100.0</ele><time>2026-03-22T14:11:02Z</time></trkpt><trkpt lat="45.27651808188838" lon="9.000381470771886"><ele>100.0</ele><time>2026-03-22T14:11:03Z</time></trkpt><trkpt lat="45.27640372902908" lon="9.000513324391788"><ele>100.0</ele><time>2026-03-22T14:11:04Z</time></trkpt><trkpt lat="45.27628917291434" lon="9.000646436810765"><ele>100.25</ele><time>2026-03-22T14:11:05Z</time></trkpt><trkpt lat="45.276177654698074" lon="9.000778002258864"><ele>100.5</ele><time>2026-03-22T14:11:06Z</time></trkpt><trkpt lat="45.27606524299104" lon="9.000910623250336"><ele>100.75</ele><time>2026-03-22T14:11:07Z</time></trkpt><trkpt lat="45.27595414325897" lon="9.00104169491805"><ele>101.0</ele><time>2026-03-22T14:11:08Z</time></trkpt><trkpt lat="45.27584258182581" lon="9.001173311054714"><ele>101.0</ele><time>2026-03-22T14:11:09Z</time></trkpt><trkpt lat="45.27573110763319" lon="9.001303804127316"><ele>101.0</ele><time>2026-03-22T14:11:10Z</time></trkpt><trkpt lat="45.27561781611048" lon="9.001435229162228"><ele>101.0</ele><time>2026-03-22T14:11:11Z</time></trkpt><trkpt lat="45.275502959574794" lon="9.001569141383193"><ele>101.0</ele><time>2026-03-22T14:11:12Z</time></trkpt><trkpt lat="45.275393799733635" lon="9.001699966001013"><ele>99.33333333333333</ele><time>2026-03-22T14:11:13Z</time></trkpt><trkpt lat="45.27528039547963" lon="9.001832896589802"><ele>97.66666666666666</ele><time>2026-03-22T14:11:14Z</time></trkpt><trkpt lat="45.27516102896512" lon="9.001971684691297"><ele>96.0</ele><time>2026-03-22T14:11:15Z</time></trkpt><trkpt lat="45.27504165857196" lon="9.002110477243583"><ele>96.0</ele><time>2026-03-22T14:11:16Z</time></trkpt><trkpt lat="45.27492287937512" lon="9.002248582429118"><ele>96.0</ele><time>2026-03-22T14:11:17Z</time></trkpt><trkpt lat="45.27480615069781" lon="9.002384807460336"><ele>96.0</ele><time>2026-03-22T14:11:18Z</time></trkpt><trkpt lat="45.27469017285741" lon="9.002520494649701"><ele>96.0</ele><time>2026-03-22T14:11:19Z</time></trkpt><trkpt lat="45.27457523098905" lon="9.002652785472735"><ele>96.0</ele><time>2026-03-22T14:11:20Z</time></trkpt><trkpt lat="45.2744581547358" lon="9.00278662895739"><ele>96.0</ele><time>2026-03-22T14:11:21Z</time></trkpt><trkpt lat="45.274340202289544" lon="9.002920201838737"><ele>96.0</ele><time>2026-03-22T14:11:22Z</time></trkpt><trkpt lat="45.27422790174247" lon="9.003047380365043"><ele>96.0</ele><time>2026-03-22T14:11:23Z</time></trkpt><trkpt lat="45.2741192191254" lon="9.003170461781538"><ele>96.0</ele><time>2026-03-22T14:11:24Z</time></trkpt><trkpt lat="45.274019076696376" lon="9.003283871456551"><ele>96.0</ele><time>2026-03-22T14:11:25Z</time></trkpt><trkpt lat="45.27392349048615" lon="9.003392121365208"><ele>96.0</ele><time>2026-03-22T14:11:26Z</time></trkpt><trkpt lat="45.27383421561442" lon="9.003493223678126"><ele>95.8</ele><time>2026-03-22T14:11:27Z</time></trkpt><trkpt lat="45.273750643266396" lon="9.003588252510653"><ele>95.6</ele><time>2026-03-22T14:11:28Z</time></trkpt><trkpt lat="45.273678873206954" lon="9.003670100280935"><ele>95.4</ele><time>2026-03-22T14:11:29Z</time></trkpt><trkpt lat="45.27361441989946" lon="9.003743604105866"><ele>95.2</ele><time>2026-03-22T14:11:30Z</time></trkpt><trkpt lat="45.27352735169581" lon="9.003842898087036"><ele>95.0</ele><time>2026-03-22T14:11:32Z</time></trkpt><trkpt lat="45.27345767963069" lon="9.003848940967567"><ele>95.0</ele><time>2026-03-22T14:11:34Z</time></trkpt><trkpt lat="45.27339692027403" lon="9.003761847999252"><ele>95.0</ele><time>2026-03-22T14:11:36Z</time></trkpt><trkpt lat="45.273360295053635" lon="9.003688108050845"><ele>95.0</ele><time>2026-03-22T14:11:39Z</time></trkpt><trkpt lat="45.2732696854759" lon="9.003624127040004"><ele>95.0</ele><time>2026-03-22T14:12:18Z</time></trkpt><trkpt lat="45.273197967970546" lon="9.003565017453102"><ele>95.0</ele><time>2026-03-22T14:12:19Z</time></trkpt><trkpt lat="45.273120093322966" lon="9.003480046351772"><ele>95.0</ele><time>2026-03-22T14:12:20Z</time></trkpt><trkpt lat="45.273005156937685" lon="9.003427064325937"><ele>94.75</ele><time>2026-03-22T14:12:21Z</time></trkpt><trkpt lat="45.27286978334247" lon="9.003417393059879"><ele>94.5</ele><time>2026-03-22T14:12:22Z</time></trkpt><trkpt lat="45.27272705128404" lon="9.003428137522679"><ele>94.25</ele><time>2026-03-22T14:12:23Z</time></trkpt><trkpt lat="45.27256701234342" lon="9.003448427505827"><ele>94.0</ele><time>2026-03-22T14:12:24Z</time></trkpt><trkpt lat="45.27239638574124" lon="9.003473152779769"><ele>94.33333333333333</ele><time>2026-03-22T14:12:25Z</time></trkpt><trkpt lat="45.27222598196095" lon="9.00350348349596"><ele>94.66666666666667</ele><time>2026-03-22T14:12:26Z</time></trkpt><trkpt lat="45.27205881212652" lon="9.003533806272685"><ele>95.0</ele><time>2026-03-22T14:12:27Z</time></trkpt><trkpt lat="45.271903428712506" lon="9.003562818064816"><ele>95.0</ele><time>2026-03-22T14:12:28Z</time></trkpt><trkpt lat="45.27175004101593" lon="9.003590953553969"><ele>95.0</ele><time>2026-03-22T14:12:29Z</time></trkpt><trkpt lat="45.271599748947835" lon="9.003612518817208"><ele>95.0</ele><time>2026-03-22T14:12:30Z</time></trkpt><trkpt lat="45.271448583485395" lon="9.003620407163433"><ele>95.0</ele><time>2026-03-22T14:12:31Z</time></trkpt><trkpt lat="45.27129844188143" lon="9.00361567156669"><ele>95.0</ele><time>2026-03-22T14:12:32Z</time></trkpt><trkpt lat="45.27114900295097" lon="9.003598799079677"><ele>95.0</ele><time>2026-03-22T14:12:33Z</time></trkpt><trkpt lat="45.271001496708415" lon="9.003540977476392"><ele>95.0</ele><time>2026-03-22T14:12:34Z</time></trkpt><trkpt lat="45.27085444058936" lon="9.003475999677072"><ele>95.0</ele><time>2026-03-22T14:12:35Z</time></trkpt><trkpt lat="45.27070704466093" lon="9.003407616611362"><ele>95.0</ele><time>2026-03-22T14:12:36Z</time></trkpt><trkpt lat="45.270562596949645" lon="9.003331416920211"><ele>94.66666666666667</ele><time>2026-03-22T14:12:37Z</time></trkpt><trkpt lat="45.27042263314546" lon="9.003252645253344"><ele>94.33333333333333</ele><time>2026-03-22T14:12:38Z</time></trkpt><trkpt lat="45.27027927224422" lon="9.0031705758349"><ele>94.0</ele><time>2026-03-22T14:12:39Z</time></trkpt><trkpt lat="45.270133666862904" lon="9.003085846250345"><ele>94.0</ele><time>2026-03-22T14:12:40Z</time></trkpt><trkpt lat="45.269986952450736" lon="9.002998052728888"><ele>94.0</ele><time>2026-03-22T14:12:41Z</time></trkpt><trkpt lat="45.26984064728994" lon="9.002908072748275"><ele>94.0</ele><time>2026-03-22T14:12:42Z</time></trkpt><trkpt lat="45.2696935824941" lon="9.002819489832897"><ele>94.0</ele><time>2026-03-22T14:12:43Z</time></trkpt><trkpt lat="45.26954039703958" lon="9.002741591851356"><ele>94.0</ele><time>2026-03-22T14:12:44Z</time></trkpt><trkpt lat="45.26938371145509" lon="9.002670385571935"><ele>94.0</ele><time>2026-03-22T14:12:45Z</time></trkpt><trkpt lat="45.269231975044164" lon="9.002592978838491"><ele>94.0</ele><time>2026-03-22T14:12:46Z</time></trkpt><trkpt lat="45.26908474942345" lon="9.002502603743846"><ele>94.0</ele><time>2026-03-22T14:12:47Z</time></trkpt><trkpt lat="45.268940314987844" lon="9.002407362471736"><ele>94.0</ele><time>2026-03-22T14:12:48Z</time></trkpt><trkpt lat="45.26879083759156" lon="9.002316728001018"><ele>94.0</ele><time>2026-03-22T14:12:49Z</time></trkpt><trkpt lat="45.26864251892465" lon="9.0022219680586"><ele>94.0</ele><time>2026-03-22T14:12:50Z</time></trkpt><trkpt lat="45.26849436629778" lon="9.002129739477226"><ele>94.0</ele><time>2026-03-22T14:12:51Z</time></trkpt><trkpt lat="45.26833945144098" lon="9.002061982850922"><ele>94.0</ele><time>2026-03-22T14:12:52Z</time></trkpt><trkpt lat="45.2681869014097" lon="9.001974607677784"><ele>94.0</ele><time>2026-03-22T14:12:53Z</time></trkpt><trkpt lat="45.26802577753273" lon="9.001928715732385"><ele>94.0</ele><time>2026-03-22T14:12:54Z</time></trkpt><trkpt lat="45.26787243887121" lon="9.001864351252344"><ele>94.33333333333333</ele><time>2026-03-22T14:12:55Z</time></trkpt><trkpt lat="45.26772594574818" lon="9.001777632132749"><ele>94.66666666666667</ele><time>2026-03-22T14:12:56Z</time></trkpt><trkpt lat="45.26757882677974" lon="9.001713806838127"><ele>95.0</ele><time>2026-03-22T14:12:57Z</time></trkpt><trkpt lat="45.26743276134036" lon="9.001650367431226"><ele>95.0</ele><time>2026-03-22T14:12:58Z</time></trkpt><trkpt lat="45.26728108889096" lon="9.001607556299007"><ele>95.0</ele><time>2026-03-22T14:12:59Z</time></trkpt><trkpt lat="45.267134055148155" lon="9.001541154242153"><ele>95.0</ele><time>2026-03-22T14:13:00Z</time></trkpt><trkpt lat="45.26699500503089" lon="9.001477019190899"><ele>95.0</ele><time>2026-03-22T14:13:01Z</time></trkpt><trkpt lat="45.266866122707825" lon="9.001417715197347"><ele>95.0</ele><time>2026-03-22T14:13:02Z</time></trkpt><trkpt lat="45.2667400547229" lon="9.0013564268532"><ele>95.0</ele><time>2026-03-22T14:13:03Z</time></trkpt><trkpt lat="45.266613386404956" lon="9.001291188901781"><ele>95.0</ele><time>2026-03-22T14:13:04Z</time></trkpt><trkpt lat="45.266485667243565" lon="9.001229579770495"><ele>95.0</ele><time>2026-03-22T14:13:05Z</time></trkpt><trkpt lat="45.26636550119726" lon="9.001169310839376"><ele>95.0</ele><time>2026-03-22T14:13:06Z</time></trkpt><trkpt lat="45.266256902059546" lon="9.001116456501226"><ele>95.0</ele><time>2026-03-22T14:13:07Z</time></trkpt><trkpt lat="45.26615779468844" lon="9.001065626477832"><ele>95.0</ele><time>2026-03-22T14:13:08Z</time></trkpt><trkpt lat="45.2660714240385" lon="9.001025288945872"><ele>95.0</ele><time>2026-03-22T14:13:09Z</time></trkpt><trkpt lat="45.26600211137429" lon="9.000989573951685"><ele>95.0</ele><time>2026-03-22T14:13:10Z</time></trkpt><trkpt lat="45.265937192771986" lon="9.000955067457962"><ele>95.0</ele><time>2026-03-22T14:13:11Z</time></trkpt><trkpt lat="45.265873030270555" lon="9.000927981213618"><ele>95.0</ele><time>2026-03-22T14:13:12Z</time></trkpt><trkpt lat="45.26580924355838" lon="9.000870895832223"><ele>95.0</ele><time>2026-03-22T14:13:13Z</time></trkpt><trkpt lat="45.26573422782077" lon="9.000831793024751"><ele>95.0</ele><time>2026-03-22T14:13:14Z</time></trkpt><trkpt lat="45.26565536685261" lon="9.000806355717055"><ele>95.0</ele><time>2026-03-22T14:13:15Z</time></trkpt><trkpt lat="45.26557801641365" lon="9.000765180066804"><ele>95.0</ele><time>2026-03-22T14:13:16Z</time></trkpt><trkpt lat="45.265501362527495" lon="9.000716192559363"><ele>95.0</ele><time>2026-03-22T14:13:17Z</time></trkpt><trkpt lat="45.26542970442835" lon="9.000652887072611"><ele>95.0</ele><time>2026-03-22T14:13:18Z</time></trkpt><trkpt lat="45.26535725346837" lon="9.000589344185572"><ele>95.0</ele><time>2026-03-22T14:13:19Z</time></trkpt><trkpt lat="45.26529041341826" lon="9.000515782856006"><ele>95.0</ele><time>2026-03-22T14:13:20Z</time></trkpt><trkpt lat="45.26522103426501" lon="9.000457446958674"><ele>95.0</ele><time>2026-03-22T14:13:21Z</time></trkpt><trkpt lat="45.26515296108388" lon="9.00040907241194"><ele>95.0</ele><time>2026-03-22T14:13:22Z</time></trkpt><trkpt lat="45.265094439185305" lon="9.00036303362997"><ele>95.0</ele><time>2026-03-22T14:13:23Z</time></trkpt><trkpt lat="45.265003457490494" lon="9.000280504464028"><ele>95.0</ele><time>2026-03-22T14:13:25Z</time></trkpt><trkpt lat="45.264908186859266" lon="9.000226342837646"><ele>95.0</ele><time>2026-03-22T14:13:27Z</time></trkpt><trkpt lat="45.264771437412826" lon="9.000342796849688"><ele>95.0</ele><time>2026-03-22T14:13:29Z</time></trkpt><trkpt lat="45.26471827139331" lon="9.000436079317277"><ele>95.0</ele><time>2026-03-22T14:13:30Z</time></trkpt><trkpt lat="45.26467263999401" lon="9.000517743263881"><ele>95.0</ele><time>2026-03-22T14:13:31Z</time></trkpt><trkpt lat="45.26463098878622" lon="9.000593130657364"><ele>95.0</ele><time>2026-03-22T14:13:32Z</time></trkpt><trkpt lat="45.26458789676829" lon="9.000671733858086"><ele>95.0</ele><time>2026-03-22T14:13:33Z</time></trkpt><trkpt lat="45.26453955630384" lon="9.000761278801825"><ele>95.0</ele><time>2026-03-22T14:13:34Z</time></trkpt><trkpt lat="45.26448030090637" lon="9.000874617802664"><ele>95.0</ele><time>2026-03-22T14:13:35Z</time></trkpt><trkpt lat="45.264420639771984" lon="9.000991523000419"><ele>95.4</ele><time>2026-03-22T14:13:36Z</time></trkpt><trkpt lat="45.26437018170091" lon="9.001091188358648"><ele>95.8</ele><time>2026-03-22T14:13:37Z</time></trkpt><trkpt lat="45.26431583877639" lon="9.001198668777269"><ele>96.19999999999999</ele><time>2026-03-22T14:13:38Z</time></trkpt><trkpt lat="45.26425994584311" lon="9.001311068541868"><ele>96.6</ele><time>2026-03-22T14:13:39Z</time></trkpt><trkpt lat="45.26420542480041" lon="9.00141986055496"><ele>97.0</ele><time>2026-03-22T14:13:40Z</time></trkpt><trkpt lat="45.26415737400881" lon="9.001515741564106"><ele>97.00000000000001</ele><time>2026-03-22T14:13:41Z</time></trkpt><trkpt lat="45.26411406056684" lon="9.0016021696829"><ele>97.0</ele><time>2026-03-22T14:13:42Z</time></trkpt><trkpt lat="45.26407288530604" lon="9.001684331340357"><ele>97.0</ele><time>2026-03-22T14:13:43Z</time></trkpt><trkpt lat="45.26402409548475" lon="9.00178168684208"><ele>97.0</ele><time>2026-03-22T14:13:44Z</time></trkpt><trkpt lat="45.263975943493605" lon="9.001878699707284"><ele>97.00000000000001</ele><time>2026-03-22T14:13:45Z</time></trkpt><trkpt lat="45.26392669457554" lon="9.001976400304132"><ele>97.0</ele><time>2026-03-22T14:13:46Z</time></trkpt><trkpt lat="45.263876735862056" lon="9.002075508961775"><ele>96.6</ele><time>2026-03-22T14:13:47Z</time></trkpt><trkpt lat="45.26382318035042" lon="9.00218174525591"><ele>96.19999999999999</ele><time>2026-03-22T14:13:48Z</time></trkpt><trkpt lat="45.263766399950626" lon="9.00229436882768"><ele>95.8</ele><time>2026-03-22T14:13:49Z</time></trkpt><trkpt lat="45.26371045266883" lon="9.002405339930009"><ele>95.4</ele><time>2026-03-22T14:13:50Z</time></trkpt><trkpt lat="45.26365893194284" lon="9.002508190862953"><ele>95.0</ele><time>2026-03-22T14:13:51Z</time></trkpt><trkpt lat="45.26361196670344" lon="9.002601713775555"><ele>95.0</ele><time>2026-03-22T14:13:52Z</time></trkpt><trkpt lat="45.26356653546485" lon="9.002690970140055"><ele>95.0</ele><time>2026-03-22T14:13:53Z</time></trkpt><trkpt lat="45.26344044278548" lon="9.002716164204477"><ele>95.0</ele><time>2026-03-22T14:13:55Z</time></trkpt><trkpt lat="45.263379518355336" lon="9.0028490036803"><ele>95.0</ele><time>2026-03-22T14:13:56Z</time></trkpt><trkpt lat="45.26332322078815" lon="9.002944381493764"><ele>95.0</ele><time>2026-03-22T14:13:57Z</time></trkpt><trkpt lat="45.26327143929654" lon="9.003051297423468"><ele>95.0</ele><time>2026-03-22T14:13:58Z</time></trkpt><trkpt lat="45.2632187323296" lon="9.00315759451213"><ele>95.0</ele><time>2026-03-22T14:13:59Z</time></trkpt><trkpt lat="45.263169984675564" lon="9.00325674616222"><ele>95.0</ele><time>2026-03-22T14:14:00Z</time></trkpt><trkpt lat="45.26312045832737" lon="9.0033500226794"><ele>95.0</ele><time>2026-03-22T14:14:01Z</time></trkpt><trkpt lat="45.2630706664003" lon="9.003433044533304"><ele>95.0</ele><time>2026-03-22T14:14:02Z</time></trkpt><trkpt lat="45.26302750903513" lon="9.003515578109804"><ele>95.0</ele><time>2026-03-22T14:14:03Z</time></trkpt><trkpt lat="45.262987250583436" lon="9.003586737248641"><ele>94.2</ele><time>2026-03-22T14:14:04Z</time></trkpt><trkpt lat="45.26294804519866" lon="9.003657038281363"><ele>93.4</ele><time>2026-03-22T14:14:05Z</time></trkpt><trkpt lat="45.262853738954526" lon="9.003649423686381"><ele>92.6</ele><time>2026-03-22T14:14:06Z</time></trkpt><trkpt lat="45.26280469571782" lon="9.003731038835516"><ele>91.8</ele><time>2026-03-22T14:14:08Z</time></trkpt><trkpt lat="45.26276050127857" lon="9.003813102582104"><ele>91.0</ele><time>2026-03-22T14:14:11Z</time></trkpt><trkpt lat="45.26293241917897" lon="9.003908048700879"><ele>91.0</ele><time>2026-03-22T14:14:13Z</time></trkpt><trkpt lat="45.263026939946826" lon="9.003887150759486"><ele>91.0</ele><time>2026-03-22T14:14:14Z</time></trkpt><trkpt lat="45.26311171377673" lon="9.003885931891741"><ele>91.0</ele><time>2026-03-22T14:14:16Z</time></trkpt><trkpt lat="45.26303630040449" lon="9.00407849385487"><ele>91.0</ele><time>2026-03-22T14:14:18Z</time></trkpt><trkpt lat="45.263002081282565" lon="9.00420648569702"><ele>91.0</ele><time>2026-03-22T14:14:19Z</time></trkpt><trkpt lat="45.262942662598995" lon="9.004387646935648"><ele>91.66666666666666</ele><time>2026-03-22T14:14:20Z</time></trkpt><trkpt lat="45.2628747478457" lon="9.004606704478132"><ele>92.33333333333333</ele><time>2026-03-22T14:14:21Z</time></trkpt><trkpt lat="45.26281703206847" lon="9.004817402516833"><ele>93.0</ele><time>2026-03-22T14:14:22Z</time></trkpt><trkpt lat="45.26276846353404" lon="9.004997313295489"><ele>93.0</ele><time>2026-03-22T14:14:23Z</time></trkpt><trkpt lat="45.26272374571029" lon="9.005165758868706"><ele>93.0</ele><time>2026-03-22T14:14:24Z</time></trkpt><trkpt lat="45.26268453356489" lon="9.005322503589014"><ele>93.0</ele><time>2026-03-22T14:14:25Z</time></trkpt><trkpt lat="45.262643540793576" lon="9.005488717654737"><ele>93.0</ele><time>2026-03-22T14:14:26Z</time></trkpt><trkpt lat="45.262598264637404" lon="9.005677182445462"><ele>93.66666666666667</ele><time>2026-03-22T14:14:27Z</time></trkpt><trkpt lat="45.262547436905585" lon="9.00589536496971"><ele>94.33333333333334</ele><time>2026-03-22T14:14:28Z</time></trkpt><trkpt lat="45.262500368801014" lon="9.006101728252444"><ele>95.0</ele><time>2026-03-22T14:14:29Z</time></trkpt><trkpt lat="45.26245056529411" lon="9.006317302512631"><ele>95.0</ele><time>2026-03-22T14:14:30Z</time></trkpt><trkpt lat="45.262395143285374" lon="9.00655719644053"><ele>95.0</ele><time>2026-03-22T14:14:31Z</time></trkpt><trkpt lat="45.26234106430791" lon="9.006791276978442"><ele>95.0</ele><time>2026-03-22T14:14:32Z</time></trkpt><trkpt lat="45.26228667793262" lon="9.007026300622659"><ele>95.0</ele><time>2026-03-22T14:14:33Z</time></trkpt><trkpt lat="45.262232854979224" lon="9.007257427856644"><ele>95.0</ele><time>2026-03-22T14:14:34Z</time></trkpt><trkpt lat="45.2621783391018" lon="9.007491530889752"><ele>95.0</ele><time>2026-03-22T14:14:35Z</time></trkpt><trkpt lat="45.26212416966291" lon="9.00772414619178"><ele>94.33333333333334</ele><time>2026-03-22T14:14:36Z</time></trkpt><trkpt lat="45.262070371739796" lon="9.00795516619685"><ele>93.66666666666667</ele><time>2026-03-22T14:14:37Z</time></trkpt><trkpt lat="45.262018364724305" lon="9.008178495374693"><ele>93.0</ele><time>2026-03-22T14:14:38Z</time></trkpt><trkpt lat="45.261971228112834" lon="9.00838091025237"><ele>92.66666666666667</ele><time>2026-03-22T14:14:39Z</time></trkpt><trkpt lat="45.26192430024184" lon="9.008582428744345"><ele>92.33333333333334</ele><time>2026-03-22T14:14:40Z</time></trkpt><trkpt lat="45.26187560692452" lon="9.008791488117616"><ele>92.0</ele><time>2026-03-22T14:14:41Z</time></trkpt><trkpt lat="45.26182653988584" lon="9.009001336434986"><ele>92.0</ele><time>2026-03-22T14:14:42Z</time></trkpt><trkpt lat="45.26177726487855" lon="9.009210595776057"><ele>92.0</ele><time>2026-03-22T14:14:43Z</time></trkpt><trkpt lat="45.2617269122002" lon="9.009420151978093"><ele>92.0</ele><time>2026-03-22T14:14:44Z</time></trkpt><trkpt lat="45.261676713949825" lon="9.009629065147905"><ele>92.0</ele><time>2026-03-22T14:14:45Z</time></trkpt><trkpt lat="45.261627001840424" lon="9.009844541930098"><ele>92.0</ele><time>2026-03-22T14:14:46Z</time></trkpt><trkpt lat="45.261578557570196" lon="9.010061514760181"><ele>92.0</ele><time>2026-03-22T14:14:47Z</time></trkpt><trkpt lat="45.26152968494599" lon="9.010280405788006"><ele>92.33333333333334</ele><time>2026-03-22T14:14:48Z</time></trkpt><trkpt lat="45.26147738727008" lon="9.010498274451663"><ele>92.66666666666667</ele><time>2026-03-22T14:14:49Z</time></trkpt><trkpt lat="45.2614250223571" lon="9.010721194336643"><ele>93.0</ele><time>2026-03-22T14:14:50Z</time></trkpt><trkpt lat="45.26137377181935" lon="9.010944606231375"><ele>93.33333333333333</ele><time>2026-03-22T14:14:51Z</time></trkpt><trkpt lat="45.26132235575808" lon="9.011168739672339"><ele>93.66666666666666</ele><time>2026-03-22T14:14:52Z</time></trkpt><trkpt lat="45.261270841851854" lon="9.01139417083494"><ele>94.0</ele><time>2026-03-22T14:14:53Z</time></trkpt><trkpt lat="45.26121948958694" lon="9.011620290488553"><ele>93.33333333333333</ele><time>2026-03-22T14:14:54Z</time></trkpt><trkpt lat="45.261168339693434" lon="9.011849296061676"><ele>92.66666666666667</ele><time>2026-03-22T14:14:55Z</time></trkpt><trkpt lat="45.26111765044977" lon="9.012076239261116"><ele>92.0</ele><time>2026-03-22T14:14:56Z</time></trkpt><trkpt lat="45.26106691305102" lon="9.01230259993781"><ele>92.0</ele><time>2026-03-22T14:14:57Z</time></trkpt><trkpt lat="45.26101580738361" lon="9.012528862094195"><ele>92.0</ele><time>2026-03-22T14:14:58Z</time></trkpt><trkpt lat="45.26096483352738" lon="9.012751825259235"><ele>92.0</ele><time>2026-03-22T14:14:59Z</time></trkpt><trkpt lat="45.260913718737115" lon="9.012974368770807"><ele>92.0</ele><time>2026-03-22T14:15:00Z</time></trkpt><trkpt lat="45.26086275185244" lon="9.013195681851386"><ele>92.0</ele><time>2026-03-22T14:15:01Z</time></trkpt><trkpt lat="45.26081170353916" lon="9.013414506581135"><ele>92.0</ele><time>2026-03-22T14:15:02Z</time></trkpt><trkpt lat="45.26076046703258" lon="9.013634138011039"><ele>92.33333333333334</ele><time>2026-03-22T14:15:03Z</time></trkpt><trkpt lat="45.26070954109164" lon="9.013853122069293"><ele>92.66666666666667</ele><time>2026-03-22T14:15:04Z</time></trkpt><trkpt lat="45.2606612968444" lon="9.014067736755612"><ele>93.0</ele><time>2026-03-22T14:15:05Z</time></trkpt><trkpt lat="45.26061311181516" lon="9.014282087972132"><ele>93.0</ele><time>2026-03-22T14:15:06Z</time></trkpt><trkpt lat="45.26056532124461" lon="9.014493895133857"><ele>93.0</ele><time>2026-03-22T14:15:07Z</time></trkpt><trkpt lat="45.26051786006661" lon="9.014701776764037"><ele>93.0</ele><time>2026-03-22T14:15:08Z</time></trkpt><trkpt lat="45.26046969082672" lon="9.014912759697305"><ele>92.66666666666667</ele><time>2026-03-22T14:15:09Z</time></trkpt><trkpt lat="45.26042165269849" lon="9.015122109398098"><ele>92.33333333333334</ele><time>2026-03-22T14:15:10Z</time></trkpt><trkpt lat="45.260373627967176" lon="9.015331146636491"><ele>92.0</ele><time>2026-03-22T14:15:11Z</time></trkpt><trkpt lat="45.260325288651806" lon="9.015538819278296"><ele>92.0</ele><time>2026-03-22T14:15:12Z</time></trkpt><trkpt lat="45.26027649265439" lon="9.015748453910957"><ele>92.0</ele><time>2026-03-22T14:15:13Z</time></trkpt><trkpt lat="45.26022742311755" lon="9.015959263711766"><ele>92.0</ele><time>2026-03-22T14:15:14Z</time></trkpt><trkpt lat="45.260179446400464" lon="9.016165273379139"><ele>92.0</ele><time>2026-03-22T14:15:15Z</time></trkpt><trkpt lat="45.26013056864442" lon="9.016369929020398"><ele>92.0</ele><time>2026-03-22T14:15:16Z</time></trkpt><trkpt lat="45.260081377379656" lon="9.016575897193203"><ele>92.0</ele><time>2026-03-22T14:15:17Z</time></trkpt><trkpt lat="45.260031812843586" lon="9.016783428420894"><ele>91.66666666666667</ele><time>2026-03-22T14:15:18Z</time></trkpt><trkpt lat="45.25998253200276" lon="9.016989771763072"><ele>91.33333333333333</ele><time>2026-03-22T14:15:19Z</time></trkpt><trkpt lat="45.25993408094547" lon="9.01719903751863"><ele>91.0</ele><time>2026-03-22T14:15:20Z</time></trkpt><trkpt lat="45.259889063799456" lon="9.017406805354405"><ele>91.33333333333333</ele><time>2026-03-22T14:15:21Z</time></trkpt><trkpt lat="45.259847340239645" lon="9.017619262501634"><ele>91.66666666666667</ele><time>2026-03-22T14:15:22Z</time></trkpt><trkpt lat="45.25980757795955" lon="9.017837771701016"><ele>92.0</ele><time>2026-03-22T14:15:23Z</time></trkpt><trkpt lat="45.25977263155621" lon="9.018051555364433"><ele>92.0</ele><time>2026-03-22T14:15:24Z</time></trkpt><trkpt lat="45.259755384511294" lon="9.018275473172517"><ele>92.0</ele><time>2026-03-22T14:15:25Z</time></trkpt><trkpt lat="45.259757559702535" lon="9.018493473675335"><ele>92.0</ele><time>2026-03-22T14:15:26Z</time></trkpt><trkpt lat="45.259774029783266" lon="9.018702188833696"><ele>92.0</ele><time>2026-03-22T14:15:27Z</time></trkpt><trkpt lat="45.25979678159103" lon="9.018887361761422"><ele>92.0</ele><time>2026-03-22T14:15:28Z</time></trkpt><trkpt lat="45.25981733410907" lon="9.019051405297182"><ele>92.0</ele><time>2026-03-22T14:15:29Z</time></trkpt><trkpt lat="45.25983559590951" lon="9.019192450363503"><ele>92.0</ele><time>2026-03-22T14:15:30Z</time></trkpt><trkpt lat="45.25985250676066" lon="9.019313715775464"><ele>92.0</ele><time>2026-03-22T14:15:31Z</time></trkpt><trkpt lat="45.2598803941348" lon="9.019439902947648"><ele>92.0</ele><time>2026-03-22T14:15:33Z</time></trkpt><trkpt lat="45.260017173439024" lon="9.019385313460567"><ele>92.0</ele><time>2026-03-22T14:15:40Z</time></trkpt><trkpt lat="45.2600652091686" lon="9.019309712816586"><ele>92.0</ele><time>2026-03-22T14:15:41Z</time></trkpt><trkpt lat="45.26012563924446" lon="9.019226879662646"><ele>92.0</ele><time>2026-03-22T14:15:42Z</time></trkpt><trkpt lat="45.26020853170348" lon="9.019129677311842"><ele>92.0</ele><time>2026-03-22T14:15:43Z</time></trkpt><trkpt lat="45.26030694367656" lon="9.019031011628305"><ele>92.0</ele><time>2026-03-22T14:15:44Z</time></trkpt><trkpt lat="45.26040840482819" lon="9.01893429811768"><ele>92.0</ele><time>2026-03-22T14:15:45Z</time></trkpt><trkpt lat="45.260531745054934" lon="9.018826072031475"><ele>92.0</ele><time>2026-03-22T14:15:46Z</time></trkpt><trkpt lat="45.260665557483705" lon="9.018718713421556"><ele>92.0</ele><time>2026-03-22T14:15:47Z</time></trkpt><trkpt lat="45.260793768265444" lon="9.01861559288561"><ele>92.0</ele><time>2026-03-22T14:15:48Z</time></trkpt><trkpt lat="45.26092092021" lon="9.018504008917152"><ele>92.0</ele><time>2026-03-22T14:15:49Z</time></trkpt><trkpt lat="45.26105008209075" lon="9.01838570976909"><ele>92.0</ele><time>2026-03-22T14:15:50Z</time></trkpt><trkpt lat="45.26118120862325" lon="9.01824546431467"><ele>91.66666666666667</ele><time>2026-03-22T14:15:51Z</time></trkpt><trkpt lat="45.26131503681098" lon="9.018097377341084"><ele>91.33333333333333</ele><time>2026-03-22T14:15:52Z</time></trkpt><trkpt lat="45.26144514344924" lon="9.017948365706884"><ele>91.0</ele><time>2026-03-22T14:15:53Z</time></trkpt><trkpt lat="45.2615865195829" lon="9.01778669976019"><ele>91.33333333333333</ele><time>2026-03-22T14:15:54Z</time></trkpt><trkpt lat="45.261723823634405" lon="9.017633555818454"><ele>91.66666666666667</ele><time>2026-03-22T14:15:55Z</time></trkpt><trkpt lat="45.26186096073327" lon="9.017479199129024"><ele>92.0</ele><time>2026-03-22T14:15:56Z</time></trkpt><trkpt lat="45.2619971027944" lon="9.017324768751113"><ele>92.0</ele><time>2026-03-22T14:15:57Z</time></trkpt><trkpt lat="45.262132803015376" lon="9.01717090057472"><ele>92.0</ele><time>2026-03-22T14:15:58Z</time></trkpt><trkpt lat="45.26226908589456" lon="9.017016938573388"><ele>92.0</ele><time>2026-03-22T14:15:59Z</time></trkpt><trkpt lat="45.26240345154152" lon="9.016865283234006"><ele>91.66666666666667</ele><time>2026-03-22T14:16:00Z</time></trkpt><trkpt lat="45.262537714252815" lon="9.016709805116845"><ele>91.33333333333333</ele><time>2026-03-22T14:16:01Z</time></trkpt><trkpt lat="45.2626674930587" lon="9.01655024251233"><ele>91.0</ele><time>2026-03-22T14:16:02Z</time></trkpt><trkpt lat="45.26279859305735" lon="9.016392768399653"><ele>91.66666666666666</ele><time>2026-03-22T14:16:03Z</time></trkpt><trkpt lat="45.26293097708135" lon="9.016237479376725"><ele>92.33333333333333</ele><time>2026-03-22T14:16:04Z</time></trkpt><trkpt lat="45.26306582987307" lon="9.016082950766421"><ele>93.0</ele><time>2026-03-22T14:16:05Z</time></trkpt><trkpt lat="45.26320141521164" lon="9.015925662390128"><ele>93.0</ele><time>2026-03-22T14:16:06Z</time></trkpt><trkpt lat="45.2633375581933" lon="9.01576485217721"><ele>93.0</ele><time>2026-03-22T14:16:07Z</time></trkpt><trkpt lat="45.26347440985079" lon="9.015605218401843"><ele>93.0</ele><time>2026-03-22T14:16:08Z</time></trkpt><trkpt lat="45.26360777837057" lon="9.015437861825049"><ele>93.0</ele><time>2026-03-22T14:16:09Z</time></trkpt><trkpt lat="45.26373773803757" lon="9.01526643047305"><ele>93.0</ele><time>2026-03-22T14:16:10Z</time></trkpt><trkpt lat="45.26386689179077" lon="9.01509252278413"><ele>93.0</ele><time>2026-03-22T14:16:11Z</time></trkpt><trkpt lat="45.26399786213846" lon="9.014917750986958"><ele>93.0</ele><time>2026-03-22T14:16:12Z</time></trkpt><trkpt lat="45.26413140207477" lon="9.014745437337208"><ele>93.0</ele><time>2026-03-22T14:16:13Z</time></trkpt><trkpt lat="45.26426579987217" lon="9.01457932841366"><ele>93.0</ele><time>2026-03-22T14:16:14Z</time></trkpt><trkpt lat="45.26440150795304" lon="9.014415773528173"><ele>93.0</ele><time>2026-03-22T14:16:15Z</time></trkpt><trkpt lat="45.2645366077884" lon="9.014254621425161"><ele>93.0</ele><time>2026-03-22T14:16:16Z</time></trkpt><trkpt lat="45.26467165961013" lon="9.014094933705758"><ele>93.0</ele><time>2026-03-22T14:16:17Z</time></trkpt><trkpt lat="45.26480683032235" lon="9.013937225382781"><ele>93.33333333333333</ele><time>2026-03-22T14:16:18Z</time></trkpt><trkpt lat="45.26494582584489" lon="9.013787707579432"><ele>93.66666666666666</ele><time>2026-03-22T14:16:19Z</time></trkpt><trkpt lat="45.26509175461677" lon="9.013656618687108"><ele>94.0</ele><time>2026-03-22T14:16:20Z</time></trkpt><trkpt lat="45.26524500051711" lon="9.01353614429604"><ele>94.0</ele><time>2026-03-22T14:16:21Z</time></trkpt><trkpt lat="45.265398398149244" lon="9.013416324208007"><ele>94.0</ele><time>2026-03-22T14:16:22Z</time></trkpt><trkpt lat="45.26555123901237" lon="9.013296112184488"><ele>94.0</ele><time>2026-03-22T14:16:23Z</time></trkpt><trkpt lat="45.2657043674584" lon="9.013179377685043"><ele>94.0</ele><time>2026-03-22T14:16:24Z</time></trkpt><trkpt lat="45.26586080680677" lon="9.01307331081231"><ele>94.0</ele><time>2026-03-22T14:16:25Z</time></trkpt><trkpt lat="45.26602094323966" lon="9.012975861145996"><ele>94.0</ele><time>2026-03-22T14:16:26Z</time></trkpt><trkpt lat="45.26617832087989" lon="9.01287845541483"><ele>94.0</ele><time>2026-03-22T14:16:27Z</time></trkpt><trkpt lat="45.26633148653234" lon="9.012771646176247"><ele>94.0</ele><time>2026-03-22T14:16:28Z</time></trkpt><trkpt lat="45.26647953046579" lon="9.01265076056642"><ele>94.0</ele><time>2026-03-22T14:16:29Z</time></trkpt><trkpt lat="45.26662478324677" lon="9.012524421532635"><ele>93.66666666666666</ele><time>2026-03-22T14:16:30Z</time></trkpt><trkpt lat="45.26676622623312" lon="9.012392690186548"><ele>93.33333333333333</ele><time>2026-03-22T14:16:31Z</time></trkpt><trkpt lat="45.26690564997213" lon="9.012258675142629"><ele>93.0</ele><time>2026-03-22T14:16:32Z</time></trkpt><trkpt lat="45.267042201667486" lon="9.012117049902534"><ele>93.0</ele><time>2026-03-22T14:16:33Z</time></trkpt><trkpt lat="45.26717350757052" lon="9.011969398777223"><ele>93.0</ele><time>2026-03-22T14:16:34Z</time></trkpt><trkpt lat="45.26730222550764" lon="9.011818458362278"><ele>93.0</ele><time>2026-03-22T14:16:35Z</time></trkpt><trkpt lat="45.26743415529959" lon="9.011673796680501"><ele>93.33333333333333</ele><time>2026-03-22T14:16:36Z</time></trkpt><trkpt lat="45.26756974148959" lon="9.01153551963125"><ele>93.66666666666666</ele><time>2026-03-22T14:16:37Z</time></trkpt><trkpt lat="45.267709847083324" lon="9.011405284782054"><ele>94.0</ele><time>2026-03-22T14:16:38Z</time></trkpt><trkpt lat="45.26784915220642" lon="9.011276107790932"><ele>94.0</ele><time>2026-03-22T14:16:39Z</time></trkpt><trkpt lat="45.267986683336225" lon="9.011139770097866"><ele>94.0</ele><time>2026-03-22T14:16:40Z</time></trkpt><trkpt lat="45.268121676020456" lon="9.01099584977349"><ele>94.0</ele><time>2026-03-22T14:16:41Z</time></trkpt><trkpt lat="45.26825304783081" lon="9.01084646323063"><ele>94.66666666666666</ele><time>2026-03-22T14:16:42Z</time></trkpt><trkpt lat="45.2683835360974" lon="9.010695200194304"><ele>95.33333333333333</ele><time>2026-03-22T14:16:43Z</time></trkpt><trkpt lat="45.26851396039508" lon="9.010541189221769"><ele>96.0</ele><time>2026-03-22T14:16:44Z</time></trkpt><trkpt lat="45.268642240517245" lon="9.01038558815521"><ele>96.0</ele><time>2026-03-22T14:16:45Z</time></trkpt><trkpt lat="45.26876940922794" lon="9.010228772484451"><ele>96.0</ele><time>2026-03-22T14:16:46Z</time></trkpt><trkpt lat="45.26889762264111" lon="9.010073477366978"><ele>96.0</ele><time>2026-03-22T14:16:47Z</time></trkpt><trkpt lat="45.26902457613374" lon="9.009916653643556"><ele>95.66666666666667</ele><time>2026-03-22T14:16:48Z</time></trkpt><trkpt lat="45.269152224598294" lon="9.009759939907854"><ele>95.33333333333334</ele><time>2026-03-22T14:16:49Z</time></trkpt><trkpt lat="45.26927968684922" lon="9.009602214758146"><ele>95.0</ele><time>2026-03-22T14:16:50Z</time></trkpt><trkpt lat="45.269407291935025" lon="9.009444834335746"><ele>95.0</ele><time>2026-03-22T14:16:51Z</time></trkpt><trkpt lat="45.26953441825395" lon="9.00928526689349"><ele>95.0</ele><time>2026-03-22T14:16:52Z</time></trkpt><trkpt lat="45.26966204056868" lon="9.009127232451913"><ele>95.0</ele><time>2026-03-22T14:16:53Z</time></trkpt><trkpt lat="45.26978937070567" lon="9.008970444175384"><ele>94.66666666666667</ele><time>2026-03-22T14:16:54Z</time></trkpt><trkpt lat="45.26991660732097" lon="9.008811778466345"><ele>94.33333333333333</ele><time>2026-03-22T14:16:55Z</time></trkpt><trkpt lat="45.27004276357593" lon="9.008651567902424"><ele>94.0</ele><time>2026-03-22T14:16:56Z</time></trkpt><trkpt lat="45.27016700619865" lon="9.008488851534873"><ele>94.0</ele><time>2026-03-22T14:16:57Z</time></trkpt><trkpt lat="45.27028822350167" lon="9.008323459731384"><ele>94.0</ele><time>2026-03-22T14:16:58Z</time></trkpt><trkpt lat="45.27041111168068" lon="9.008160421209817"><ele>94.0</ele><time>2026-03-22T14:16:59Z</time></trkpt><trkpt lat="45.270535365434824" lon="9.007994392090607"><ele>93.66666666666666</ele><time>2026-03-22T14:17:00Z</time></trkpt><trkpt lat="45.27065904924126" lon="9.007828196718563"><ele>93.33333333333333</ele><time>2026-03-22T14:17:01Z</time></trkpt><trkpt lat="45.270781375101414" lon="9.00766482215819"><ele>93.0</ele><time>2026-03-22T14:17:02Z</time></trkpt><trkpt lat="45.27090491899936" lon="9.007504104023841"><ele>93.0</ele><time>2026-03-22T14:17:03Z</time></trkpt><trkpt lat="45.27102663602991" lon="9.00734218927144"><ele>93.0</ele><time>2026-03-22T14:17:04Z</time></trkpt><trkpt lat="45.27114900177336" lon="9.00718057750159"><ele>93.0</ele><time>2026-03-22T14:17:05Z</time></trkpt><trkpt lat="45.27126998061411" lon="9.007019616586554"><ele>93.0</ele><time>2026-03-22T14:17:06Z</time></trkpt><trkpt lat="45.27139096234768" lon="9.006857916630633"><ele>93.0</ele><time>2026-03-22T14:17:07Z</time></trkpt><trkpt lat="45.271509091549405" lon="9.006691064001807"><ele>93.0</ele><time>2026-03-22T14:17:08Z</time></trkpt><trkpt lat="45.27162151242809" lon="9.006517862416855"><ele>93.66666666666667</ele><time>2026-03-22T14:17:09Z</time></trkpt><trkpt lat="45.271731860970945" lon="9.00634050976459"><ele>94.33333333333334</ele><time>2026-03-22T14:17:10Z</time></trkpt><trkpt lat="45.27184024103407" lon="9.006162198517252"><ele>95.0</ele><time>2026-03-22T14:17:11Z</time></trkpt><trkpt lat="45.271946866999265" lon="9.005981235499663"><ele>95.0</ele><time>2026-03-22T14:17:12Z</time></trkpt><trkpt lat="45.272055464816745" lon="9.005800864159514"><ele>95.0</ele><time>2026-03-22T14:17:13Z</time></trkpt><trkpt lat="45.27216313544209" lon="9.005625410947095"><ele>95.0</ele><time>2026-03-22T14:17:14Z</time></trkpt><trkpt lat="45.27227744912493" lon="9.005456537505554"><ele>95.0</ele><time>2026-03-22T14:17:15Z</time></trkpt><trkpt lat="45.27239699284288" lon="9.00529975530577"><ele>95.0</ele><time>2026-03-22T14:17:16Z</time></trkpt><trkpt lat="45.27252018354934" lon="9.005149966356942"><ele>95.0</ele><time>2026-03-22T14:17:17Z</time></trkpt><trkpt lat="45.2726416983618" lon="9.005003474587578"><ele>94.66666666666667</ele><time>2026-03-22T14:17:18Z</time></trkpt><trkpt lat="45.272761412820365" lon="9.004859074572183"><ele>94.33333333333333</ele><time>2026-03-22T14:17:19Z</time></trkpt><trkpt lat="45.27288256509375" lon="9.004714362399792"><ele>94.0</ele><time>2026-03-22T14:17:20Z</time></trkpt><trkpt lat="45.273004166934115" lon="9.004571082242663"><ele>94.33333333333333</ele><time>2026-03-22T14:17:21Z</time></trkpt><trkpt lat="45.27312357552923" lon="9.004425353818288"><ele>94.66666666666667</ele><time>2026-03-22T14:17:22Z</time></trkpt><trkpt lat="45.27324754147972" lon="9.004280529199532"><ele>95.0</ele><time>2026-03-22T14:17:23Z</time></trkpt><trkpt lat="45.273367015398236" lon="9.00414116080668"><ele>95.0</ele><time>2026-03-22T14:17:24Z</time></trkpt><trkpt lat="45.27348851071747" lon="9.003998962555022"><ele>95.0</ele><time>2026-03-22T14:17:25Z</time></trkpt><trkpt lat="45.273608868228145" lon="9.00385786450647"><ele>95.0</ele><time>2026-03-22T14:17:26Z</time></trkpt><trkpt lat="45.273730099251864" lon="9.003724106327603"><ele>95.0</ele><time>2026-03-22T14:17:27Z</time></trkpt><trkpt lat="45.2738526076127" lon="9.003587956673593"><ele>95.0</ele><time>2026-03-22T14:17:28Z</time></trkpt><trkpt lat="45.2739743360496" lon="9.003454030797123"><ele>95.0</ele><time>2026-03-22T14:17:29Z</time></trkpt><trkpt lat="45.27409517606991" lon="9.003317719811387"><ele>95.33333333333334</ele><time>2026-03-22T14:17:30Z</time></trkpt><trkpt lat="45.27421600483889" lon="9.003184180432571"><ele>95.66666666666667</ele><time>2026-03-22T14:17:31Z</time></trkpt><trkpt lat="45.27433673632207" lon="9.003049453525911"><ele>96.0</ele><time>2026-03-22T14:17:32Z</time></trkpt><trkpt lat="45.27445622124684" lon="9.002911741228582"><ele>96.0</ele><time>2026-03-22T14:17:33Z</time></trkpt><trkpt lat="45.274576367079916" lon="9.002775545814188"><ele>96.0</ele><time>2026-03-22T14:17:34Z</time></trkpt><trkpt lat="45.27469705935235" lon="9.002640306791818"><ele>96.0</ele><time>2026-03-22T14:17:35Z</time></trkpt><trkpt lat="45.274815029936086" lon="9.002505062444017"><ele>96.0</ele><time>2026-03-22T14:17:36Z</time></trkpt><trkpt lat="45.27493100086864" lon="9.002366631651391"><ele>96.0</ele><time>2026-03-22T14:17:37Z</time></trkpt><trkpt lat="45.275050145386686" lon="9.002231146353418"><ele>96.0</ele><time>2026-03-22T14:17:38Z</time></trkpt><trkpt lat="45.27516600551571" lon="9.002095473488605"><ele>96.0</ele><time>2026-03-22T14:17:39Z</time></trkpt><trkpt lat="45.27528629539642" lon="9.001957244778062"><ele>96.0</ele><time>2026-03-22T14:17:40Z</time></trkpt><trkpt lat="45.275403609401664" lon="9.00182342547439"><ele>96.0</ele><time>2026-03-22T14:17:41Z</time></trkpt><trkpt lat="45.27552394380282" lon="9.001682473810877"><ele>97.66666666666666</ele><time>2026-03-22T14:17:42Z</time></trkpt><trkpt lat="45.2756435646849" lon="9.001546850794158"><ele>99.33333333333333</ele><time>2026-03-22T14:17:43Z</time></trkpt><trkpt lat="45.27576440180851" lon="9.001407538110234"><ele>101.0</ele><time>2026-03-22T14:17:44Z</time></trkpt><trkpt lat="45.27588219064594" lon="9.001273021012146"><ele>101.0</ele><time>2026-03-22T14:17:45Z</time></trkpt><trkpt lat="45.276000321117245" lon="9.00113028984833"><ele>101.0</ele><time>2026-03-22T14:17:46Z</time></trkpt><trkpt lat="45.27611727654069" lon="9.000986443164773"><ele>101.0</ele><time>2026-03-22T14:17:47Z</time></trkpt><trkpt lat="45.27623524781748" lon="9.00084709130214"><ele>100.66666666666666</ele><time>2026-03-22T14:17:48Z</time></trkpt><trkpt lat="45.276355581769586" lon="9.000701596445333"><ele>100.33333333333334</ele><time>2026-03-22T14:17:49Z</time></trkpt><trkpt lat="45.27647456292995" lon="9.000562702255985"><ele>100.0</ele><time>2026-03-22T14:17:50Z</time></trkpt><trkpt lat="45.27659496246761" lon="9.00042014293758"><ele>100.0</ele><time>2026-03-22T14:17:51Z</time></trkpt><trkpt lat="45.276718377403455" lon="9.000286471818697"><ele>100.0</ele><time>2026-03-22T14:17:52Z</time></trkpt><trkpt lat="45.276842989067625" lon="9.00014282798176"><ele>100.0</ele><time>2026-03-22T14:17:53Z</time></trkpt><trkpt lat="45.2769618296519" lon="8.999999161091237"><ele>100.0</ele><time>2026-03-22T14:17:54Z</time></trkpt><trkpt lat="45.277081144080135" lon="8.999851224989056"><ele>100.0</ele><time>2026-03-22T14:17:55Z</time></trkpt><trkpt lat="45.27719345564675" lon="8.999696188283675"><ele>100.0</ele><time>2026-03-22T14:17:56Z</time></trkpt><trkpt lat="45.27731350925817" lon="8.999556496290145"><ele>100.33333333333334</ele><time>2026-03-22T14:17:57Z</time></trkpt><trkpt lat="45.27744515393418" lon="8.99943737877276"><ele>100.66666666666666</ele><time>2026-03-22T14:17:58Z</time></trkpt><trkpt lat="45.27758827196021" lon="8.99934183648073"><ele>101.0</ele><time>2026-03-22T14:17:59Z</time></trkpt><trkpt lat="45.2777325671152" lon="8.999255908709669"><ele>101.0</ele><time>2026-03-22T14:18:00Z</time></trkpt><trkpt lat="45.277876234193585" lon="8.999170632020592"><ele>101.0</ele><time>2026-03-22T14:18:01Z</time></trkpt><trkpt lat="45.27802140586406" lon="8.99908400163978"><ele>101.0</ele><time>2026-03-22T14:18:02Z</time></trkpt><trkpt lat="45.27816474001193" lon="8.998998562301573"><ele>101.33333333333333</ele><time>2026-03-22T14:18:03Z</time></trkpt><trkpt lat="45.27830812152784" lon="8.99891214307406"><ele>101.66666666666666</ele><time>2026-03-22T14:18:04Z</time></trkpt><trkpt lat="45.278452550026785" lon="8.998826088766673"><ele>102.0</ele><time>2026-03-22T14:18:05Z</time></trkpt><trkpt lat="45.27859806429527" lon="8.998739270669535"><ele>102.0</ele><time>2026-03-22T14:18:06Z</time></trkpt><trkpt lat="45.27873485496148" lon="8.998645948130955"><ele>102.0</ele><time>2026-03-22T14:18:07Z</time></trkpt><trkpt lat="45.278857389338114" lon="8.998552750169795"><ele>102.0</ele><time>2026-03-22T14:18:08Z</time></trkpt><trkpt lat="45.278976598757325" lon="8.99845884456293"><ele>102.0</ele><time>2026-03-22T14:18:09Z</time></trkpt><trkpt lat="45.27909200578079" lon="8.998368341958177"><ele>101.25</ele><time>2026-03-22T14:18:10Z</time></trkpt><trkpt lat="45.279200635881445" lon="8.998280477973376"><ele>100.5</ele><time>2026-03-22T14:18:11Z</time></trkpt><trkpt lat="45.27930129974408" lon="8.998195261444353"><ele>99.75</ele><time>2026-03-22T14:18:12Z</time></trkpt><trkpt lat="45.27938066274399" lon="8.998043043664234"><ele>99.0</ele><time>2026-03-22T14:18:13Z</time></trkpt><trkpt lat="45.279494056983246" lon="8.998025746361481"><ele>99.0</ele><time>2026-03-22T14:18:14Z</time></trkpt><trkpt lat="45.27959899555064" lon="8.997946525531678"><ele>99.0</ele><time>2026-03-22T14:18:15Z</time></trkpt><trkpt lat="45.279705536710594" lon="8.997862857433187"><ele>99.0</ele><time>2026-03-22T14:18:16Z</time></trkpt><trkpt lat="45.27981807299328" lon="8.99777281619141"><ele>99.0</ele><time>2026-03-22T14:18:17Z</time></trkpt><trkpt lat="45.27993483606437" lon="8.997681979400436"><ele>99.0</ele><time>2026-03-22T14:18:18Z</time></trkpt><trkpt lat="45.28005277590962" lon="8.997592454858953"><ele>99.0</ele><time>2026-03-22T14:18:19Z</time></trkpt><trkpt lat="45.2801534921848" lon="8.997459560376273"><ele>99.0</ele><time>2026-03-22T14:18:20Z</time></trkpt><trkpt lat="45.280268595611524" lon="8.9973638421869"><ele>99.0</ele><time>2026-03-22T14:18:21Z</time></trkpt><trkpt lat="45.28039913638445" lon="8.997298753602417"><ele>99.0</ele><time>2026-03-22T14:18:22Z</time></trkpt><trkpt lat="45.28051875612984" lon="8.997205819795738"><ele>99.0</ele><time>2026-03-22T14:18:23Z</time></trkpt><trkpt lat="45.280638843894096" lon="8.997114294180976"><ele>99.0</ele><time>2026-03-22T14:18:24Z</time></trkpt><trkpt lat="45.28076058155226" lon="8.997022374753985"><ele>99.0</ele><time>2026-03-22T14:18:25Z</time></trkpt><trkpt lat="45.28088381002932" lon="8.996930307579069"><ele>99.25</ele><time>2026-03-22T14:18:26Z</time></trkpt><trkpt lat="45.28101489860229" lon="8.996860493375992"><ele>99.5</ele><time>2026-03-22T14:18:27Z</time></trkpt><trkpt lat="45.28113948428889" lon="8.996772421187194"><ele>99.75</ele><time>2026-03-22T14:18:28Z</time></trkpt><trkpt lat="45.28126434116221" lon="8.996687198112065"><ele>100.0</ele><time>2026-03-22T14:18:29Z</time></trkpt><trkpt lat="45.28139182812121" lon="8.996610766525494"><ele>99.75</ele><time>2026-03-22T14:18:30Z</time></trkpt><trkpt lat="45.281519404130925" lon="8.996546624882386"><ele>99.5</ele><time>2026-03-22T14:18:31Z</time></trkpt><trkpt lat="45.281647993700616" lon="8.996494652590648"><ele>99.25</ele><time>2026-03-22T14:18:32Z</time></trkpt><trkpt lat="45.28177508776076" lon="8.996446411111247"><ele>99.0</ele><time>2026-03-22T14:18:33Z</time></trkpt><trkpt lat="45.2819000319973" lon="8.996398782922485"><ele>99.0</ele><time>2026-03-22T14:18:34Z</time></trkpt><trkpt lat="45.28202558804223" lon="8.996355532802538"><ele>99.0</ele><time>2026-03-22T14:18:35Z</time></trkpt><trkpt lat="45.28215152984559" lon="8.99632096310205"><ele>99.0</ele><time>2026-03-22T14:18:36Z</time></trkpt><trkpt lat="45.28227895303107" lon="8.996290638848578"><ele>99.0</ele><time>2026-03-22T14:18:37Z</time></trkpt><trkpt lat="45.282404713544715" lon="8.996253155445283"><ele>99.2</ele><time>2026-03-22T14:18:38Z</time></trkpt><trkpt lat="45.28251953503614" lon="8.996212333216777"><ele>99.4</ele><time>2026-03-22T14:18:39Z</time></trkpt><trkpt lat="45.28263142207245" lon="8.99617607763953"><ele>99.6</ele><time>2026-03-22T14:18:40Z</time></trkpt><trkpt lat="45.282731437762855" lon="8.99614082572276"><ele>99.8</ele><time>2026-03-22T14:18:41Z</time></trkpt><trkpt lat="45.28281753373512" lon="8.996110845085305"><ele>100.0</ele><time>2026-03-22T14:18:42Z</time></trkpt><trkpt lat="45.2828919786241" lon="8.996087241281286"><ele>100.00000000000001</ele><time>2026-03-22T14:18:43Z</time></trkpt><trkpt lat="45.282954478826746" lon="8.99606685847983"><ele>100.0</ele><time>2026-03-22T14:18:44Z</time></trkpt><trkpt lat="45.2830422252276" lon="8.99603652254487"><ele>100.0</ele><time>2026-03-22T14:18:46Z</time></trkpt><trkpt lat="45.2831097254554" lon="8.995986182860772"><ele>100.0</ele><time>2026-03-22T14:19:03Z</time></trkpt><trkpt lat="45.28318462493815" lon="8.9959449167088"><ele>100.00000000000001</ele><time>2026-03-22T14:19:04Z</time></trkpt><trkpt lat="45.283297616126426" lon="8.995890460953493"><ele>100.0</ele><time>2026-03-22T14:19:05Z</time></trkpt><trkpt lat="45.28342952135365" lon="8.99583554684645"><ele>100.0</ele><time>2026-03-22T14:19:06Z</time></trkpt><trkpt lat="45.28360548635542" lon="8.995749272620634"><ele>100.0</ele><time>2026-03-22T14:19:07Z</time></trkpt><trkpt lat="45.28380182715645" lon="8.995673953041845"><ele>100.0</ele><time>2026-03-22T14:19:08Z</time></trkpt><trkpt lat="45.2839524842369" lon="8.995588079788863"><ele>100.25</ele><time>2026-03-22T14:19:09Z</time></trkpt><trkpt lat="45.284068160462446" lon="8.995534176053301"><ele>100.5</ele><time>2026-03-22T14:19:10Z</time></trkpt><trkpt lat="45.284180415453925" lon="8.995509660110885"><ele>100.75</ele><time>2026-03-22T14:19:11Z</time></trkpt><trkpt lat="45.284294870339856" lon="8.995506655458614"><ele>101.0</ele><time>2026-03-22T14:19:12Z</time></trkpt><trkpt lat="45.284408457817776" lon="8.995514655850334"><ele>101.0</ele><time>2026-03-22T14:19:13Z</time></trkpt><trkpt lat="45.2845216154887" lon="8.99552123749347"><ele>101.0</ele><time>2026-03-22T14:19:14Z</time></trkpt><trkpt lat="45.28464644575766" lon="8.995494032596271"><ele>101.0</ele><time>2026-03-22T14:19:15Z</time></trkpt><trkpt lat="45.284780801998345" lon="8.995446785972444"><ele>101.0</ele><time>2026-03-22T14:19:16Z</time></trkpt><trkpt lat="45.28490439536654" lon="8.995388810256474"><ele>101.25</ele><time>2026-03-22T14:19:17Z</time></trkpt><trkpt lat="45.28501658733552" lon="8.995334633409348"><ele>101.5</ele><time>2026-03-22T14:19:18Z</time></trkpt><trkpt lat="45.28512337909834" lon="8.995275934671199"><ele>101.75</ele><time>2026-03-22T14:19:19Z</time></trkpt><trkpt lat="45.28523704085943" lon="8.995221123752506"><ele>102.0</ele><time>2026-03-22T14:19:20Z</time></trkpt><trkpt lat="45.28534216505734" lon="8.99516772372024"><ele>102.0</ele><time>2026-03-22T14:19:21Z</time></trkpt><trkpt lat="45.28543980566241" lon="8.995115126440663"><ele>102.0</ele><time>2026-03-22T14:19:22Z</time></trkpt><trkpt lat="45.28552840130102" lon="8.995073141424449"><ele>102.0</ele><time>2026-03-22T14:19:23Z</time></trkpt><trkpt lat="45.28560337092504" lon="8.995036605061403"><ele>102.0</ele><time>2026-03-22T14:19:24Z</time></trkpt><trkpt lat="45.28567048103422" lon="8.99500644526004"><ele>102.0</ele><time>2026-03-22T14:19:25Z</time></trkpt><trkpt lat="45.28576405312454" lon="8.994987621261156"><ele>102.0</ele><time>2026-03-22T14:19:27Z</time></trkpt><trkpt lat="45.28587686227228" lon="8.995100332084201"><ele>101.6</ele><time>2026-03-22T14:19:29Z</time></trkpt><trkpt lat="45.28592956382952" lon="8.995181422769804"><ele>101.19999999999999</ele><time>2026-03-22T14:19:30Z</time></trkpt><trkpt lat="45.2859698387345" lon="8.995295747210427"><ele>100.8</ele><time>2026-03-22T14:19:31Z</time></trkpt><trkpt lat="45.28601110843051" lon="8.995443556627528"><ele>100.4</ele><time>2026-03-22T14:19:32Z</time></trkpt><trkpt lat="45.28605142061694" lon="8.995584260376711"><ele>100.0</ele><time>2026-03-22T14:19:33Z</time></trkpt><trkpt lat="45.28609203711965" lon="8.995712765546555"><ele>99.8</ele><time>2026-03-22T14:19:34Z</time></trkpt><trkpt lat="45.28609112693417" lon="8.995840185421018"><ele>99.6</ele><time>2026-03-22T14:19:35Z</time></trkpt><trkpt lat="45.28612004355119" lon="8.995933414068075"><ele>99.4</ele><time>2026-03-22T14:19:36Z</time></trkpt><trkpt lat="45.286195288983635" lon="8.996068329193088"><ele>99.2</ele><time>2026-03-22T14:19:38Z</time></trkpt><trkpt lat="45.286280617419656" lon="8.99605036962501"><ele>99.0</ele><time>2026-03-22T14:19:39Z</time></trkpt><trkpt lat="45.28636841764876" lon="8.995969469725907"><ele>99.0</ele><time>2026-03-22T14:19:40Z</time></trkpt><trkpt lat="45.28647100956494" lon="8.995919784437238"><ele>99.0</ele><time>2026-03-22T14:19:41Z</time></trkpt><trkpt lat="45.28657360507159" lon="8.995872460257868"><ele>99.0</ele><time>2026-03-22T14:19:42Z</time></trkpt><trkpt lat="45.28668116205861" lon="8.995819734972635"><ele>99.0</ele><time>2026-03-22T14:19:43Z</time></trkpt><trkpt lat="45.28677262422384" lon="8.995768652701251"><ele>99.0</ele><time>2026-03-22T14:19:44Z</time></trkpt><trkpt lat="45.28686963490985" lon="8.995737880751186"><ele>99.0</ele><time>2026-03-22T14:19:45Z</time></trkpt><trkpt lat="45.28695865699507" lon="8.9956639243282"><ele>99.0</ele><time>2026-03-22T14:19:46Z</time></trkpt><trkpt lat="45.2870498078721" lon="8.995612629742263"><ele>99.0</ele><time>2026-03-22T14:19:47Z</time></trkpt><trkpt lat="45.287148552555806" lon="8.995580774379338"><ele>99.0</ele><time>2026-03-22T14:19:48Z</time></trkpt><trkpt lat="45.28723370066558" lon="8.995516123553383"><ele>99.0</ele><time>2026-03-22T14:19:49Z</time></trkpt><trkpt lat="45.28732824137897" lon="8.995467258772061"><ele>99.0</ele><time>2026-03-22T14:19:50Z</time></trkpt><trkpt lat="45.28742951271454" lon="8.99541761584111"><ele>99.0</ele><time>2026-03-22T14:19:51Z</time></trkpt><trkpt lat="45.2875270651805" lon="8.99538020146145"><ele>99.0</ele><time>2026-03-22T14:19:52Z</time></trkpt><trkpt lat="45.287611724745624" lon="8.995337449547769"><ele>99.0</ele><time>2026-03-22T14:19:53Z</time></trkpt><trkpt lat="45.28769377818946" lon="8.99529578075482"><ele>99.0</ele><time>2026-03-22T14:19:54Z</time></trkpt><trkpt lat="45.287754842969164" lon="8.99526661829636"><ele>99.0</ele><time>2026-03-22T14:19:55Z</time></trkpt><trkpt lat="45.28783171091403" lon="8.995217193047395"><ele>99.0</ele><time>2026-03-22T14:19:57Z</time></trkpt><trkpt lat="45.287896346773394" lon="8.995390532491037"><ele>99.0</ele><time>2026-03-22T14:20:00Z</time></trkpt><trkpt lat="45.287930642749004" lon="8.995503418419295"><ele>99.0</ele><time>2026-03-22T14:20:01Z</time></trkpt><trkpt lat="45.28797896099286" lon="8.995650932174895"><ele>99.0</ele><time>2026-03-22T14:20:02Z</time></trkpt><trkpt lat="45.28802394008276" lon="8.995782741511466"><ele>99.0</ele><time>2026-03-22T14:20:03Z</time></trkpt><trkpt lat="45.288067782678" lon="8.995906451569395"><ele>99.0</ele><time>2026-03-22T14:20:04Z</time></trkpt><trkpt lat="45.28810684170614" lon="8.996010596612807"><ele>99.0</ele><time>2026-03-22T14:20:05Z</time></trkpt><trkpt lat="45.288140756548195" lon="8.996100531979348"><ele>99.0</ele><time>2026-03-22T14:20:06Z</time></trkpt><trkpt lat="45.28817415608415" lon="8.996187537798798"><ele>99.0</ele><time>2026-03-22T14:20:07Z</time></trkpt><trkpt lat="45.28820782003736" lon="8.996274872821331"><ele>99.0</ele><time>2026-03-22T14:20:08Z</time></trkpt><trkpt lat="45.288240797347406" lon="8.996360433267906"><ele>99.0</ele><time>2026-03-22T14:20:09Z</time></trkpt><trkpt lat="45.28829575834471" lon="8.996503029609682"><ele>99.0</ele><time>2026-03-22T14:20:11Z</time></trkpt><trkpt lat="45.28836260295869" lon="8.996633299691478"><ele>99.0</ele><time>2026-03-22T14:20:13Z</time></trkpt><trkpt lat="45.28841711022516" lon="8.99675388352228"><ele>99.0</ele><time>2026-03-22T14:20:15Z</time></trkpt><trkpt lat="45.28846523336023" lon="8.996845377577891"><ele>99.0</ele><time>2026-03-22T14:20:17Z</time></trkpt><trkpt lat="45.28853193104354" lon="8.99692058919941"><ele>98.75</ele><time>2026-03-22T14:20:19Z</time></trkpt><trkpt lat="45.28861101625272" lon="8.99701252774416"><ele>98.5</ele><time>2026-03-22T14:20:21Z</time></trkpt><trkpt lat="45.28867946348653" lon="8.99712581626661"><ele>98.25</ele><time>2026-03-22T14:20:23Z</time></trkpt><trkpt lat="45.288769666630294" lon="8.997246704439583"><ele>98.0</ele><time>2026-03-22T14:20:25Z</time></trkpt><trkpt lat="45.288852966825715" lon="8.997370091563054"><ele>97.83333333333333</ele><time>2026-03-22T14:20:27Z</time></trkpt><trkpt lat="45.288938813527686" lon="8.997495717722167"><ele>97.66666666666666</ele><time>2026-03-22T14:20:29Z</time></trkpt><trkpt lat="45.288987085372334" lon="8.997559818666177"><ele>97.5</ele><time>2026-03-22T14:20:30Z</time></trkpt><trkpt lat="45.28903743378687" lon="8.997634947484801"><ele>97.33333333333334</ele><time>2026-03-22T14:20:31Z</time></trkpt><trkpt lat="45.28909003885792" lon="8.997707676492068"><ele>97.16666666666667</ele><time>2026-03-22T14:20:32Z</time></trkpt><trkpt lat="45.28914473992702" lon="8.997785106246102"><ele>97.0</ele><time>2026-03-22T14:20:33Z</time></trkpt><trkpt lat="45.289196916400584" lon="8.997865333091884"><ele>97.00000000000001</ele><time>2026-03-22T14:20:34Z</time></trkpt><trkpt lat="45.28925259451495" lon="8.997943980238029"><ele>97.0</ele><time>2026-03-22T14:20:35Z</time></trkpt><trkpt lat="45.28931026473713" lon="8.998021422221345"><ele>97.0</ele><time>2026-03-22T14:20:36Z</time></trkpt><trkpt lat="45.28936487331609" lon="8.99810357165603"><ele>97.0</ele><time>2026-03-22T14:20:37Z</time></trkpt><trkpt lat="45.28941759662518" lon="8.99818169891191"><ele>97.00000000000001</ele><time>2026-03-22T14:20:38Z</time></trkpt><trkpt lat="45.289474222253084" lon="8.998255985612287"><ele>97.0</ele><time>2026-03-22T14:20:39Z</time></trkpt><trkpt lat="45.289516438697724" lon="8.998351173729803"><ele>97.14285714285714</ele><time>2026-03-22T14:20:40Z</time></trkpt><trkpt lat="45.28957099258104" lon="8.998428998708441"><ele>97.28571428571429</ele><time>2026-03-22T14:20:41Z</time></trkpt><trkpt lat="45.28963714074716" lon="8.99848800747062"><ele>97.42857142857143</ele><time>2026-03-22T14:20:42Z</time></trkpt><trkpt lat="45.289690439512626" lon="8.99856532494169"><ele>97.57142857142857</ele><time>2026-03-22T14:20:43Z</time></trkpt><trkpt lat="45.28974439747455" lon="8.998640733225322"><ele>97.71428571428572</ele><time>2026-03-22T14:20:44Z</time></trkpt><trkpt lat="45.28979738178083" lon="8.99870209424454"><ele>97.85714285714286</ele><time>2026-03-22T14:20:45Z</time></trkpt><trkpt lat="45.28984911638644" lon="8.998759866704418"><ele>98.0</ele><time>2026-03-22T14:20:46Z</time></trkpt><trkpt lat="45.289948323715855" lon="8.998868723951079"><ele>98.0</ele><time>2026-03-22T14:20:48Z</time></trkpt><trkpt lat="45.290049308333664" lon="8.99895082571213"><ele>98.0</ele><time>2026-03-22T14:20:50Z</time></trkpt><trkpt lat="45.29011577578877" lon="8.999005869559438"><ele>98.0</ele><time>2026-03-22T14:20:53Z</time></trkpt><trkpt lat="45.29017110573549" lon="8.999060841338396"><ele>98.0</ele><time>2026-03-22T14:20:55Z</time></trkpt><trkpt lat="45.290278259171274" lon="8.999148123795935"><ele>98.0</ele><time>2026-03-22T14:20:57Z</time></trkpt><trkpt lat="45.290349209751085" lon="8.999195375240346"><ele>98.0</ele><time>2026-03-22T14:20:58Z</time></trkpt><trkpt lat="45.29043339244828" lon="8.999257733249506"><ele>98.0</ele><time>2026-03-22T14:20:59Z</time></trkpt><trkpt lat="45.290533210841055" lon="8.999326298439726"><ele>98.0</ele><time>2026-03-22T14:21:00Z</time></trkpt><trkpt lat="45.290675368698096" lon="8.999436112310914"><ele>98.0</ele><time>2026-03-22T14:21:01Z</time></trkpt><trkpt lat="45.290838223797174" lon="8.999570052955697"><ele>98.0</ele><time>2026-03-22T14:21:02Z</time></trkpt><trkpt lat="45.29098592335565" lon="8.99968998389777"><ele>98.0</ele><time>2026-03-22T14:21:03Z</time></trkpt><trkpt lat="45.29111175183325" lon="8.999793981218556"><ele>98.0</ele><time>2026-03-22T14:21:04Z</time></trkpt><trkpt lat="45.291224949677854" lon="8.999888941805168"><ele>98.0</ele><time>2026-03-22T14:21:05Z</time></trkpt><trkpt lat="45.29133767249426" lon="8.999976851853267"><ele>97.75</ele><time>2026-03-22T14:21:06Z</time></trkpt><trkpt lat="45.29144049558714" lon="9.000054624574643"><ele>97.5</ele><time>2026-03-22T14:21:07Z</time></trkpt><trkpt lat="45.29153714683553" lon="9.000140833363886"><ele>97.25</ele><time>2026-03-22T14:21:08Z</time></trkpt><trkpt lat="45.291626397129235" lon="9.000221228913738"><ele>97.0</ele><time>2026-03-22T14:21:09Z</time></trkpt><trkpt lat="45.29172653574871" lon="9.00030202868027"><ele>97.0</ele><time>2026-03-22T14:21:10Z</time></trkpt><trkpt lat="45.2918247566991" lon="9.000380643227519"><ele>97.0</ele><time>2026-03-22T14:21:11Z</time></trkpt><trkpt lat="45.29192079106411" lon="9.000456293554313"><ele>97.0</ele><time>2026-03-22T14:21:12Z</time></trkpt><trkpt lat="45.29201817430349" lon="9.0005350042404"><ele>97.0</ele><time>2026-03-22T14:21:13Z</time></trkpt><trkpt lat="45.292119014018056" lon="9.000619424979716"><ele>97.0</ele><time>2026-03-22T14:21:14Z</time></trkpt><trkpt lat="45.292224309033934" lon="9.000704603991416"><ele>97.0</ele><time>2026-03-22T14:21:15Z</time></trkpt><trkpt lat="45.292329685934334" lon="9.00078892936864"><ele>97.0</ele><time>2026-03-22T14:21:16Z</time></trkpt><trkpt lat="45.292442975894375" lon="9.0008756008059"><ele>97.0</ele><time>2026-03-22T14:21:17Z</time></trkpt><trkpt lat="45.292555153417446" lon="9.000965504526189"><ele>97.25</ele><time>2026-03-22T14:21:18Z</time></trkpt><trkpt lat="45.29266883911509" lon="9.001059463938143"><ele>97.5</ele><time>2026-03-22T14:21:19Z</time></trkpt><trkpt lat="45.29278188863865" lon="9.001154243815776"><ele>97.75</ele><time>2026-03-22T14:21:20Z</time></trkpt><trkpt lat="45.2928988087113" lon="9.001254177634754"><ele>98.0</ele><time>2026-03-22T14:21:21Z</time></trkpt><trkpt lat="45.29302894564196" lon="9.001362270672733"><ele>97.66666666666666</ele><time>2026-03-22T14:21:22Z</time></trkpt><trkpt lat="45.29315310154674" lon="9.001465241962064"><ele>97.33333333333334</ele><time>2026-03-22T14:21:23Z</time></trkpt><trkpt lat="45.293278036723414" lon="9.001569312029073"><ele>97.0</ele><time>2026-03-22T14:21:24Z</time></trkpt><trkpt lat="45.293421918094424" lon="9.001684690653075"><ele>97.0</ele><time>2026-03-22T14:21:25Z</time></trkpt><trkpt lat="45.29357679820161" lon="9.00181247474752"><ele>97.0</ele><time>2026-03-22T14:21:26Z</time></trkpt><trkpt lat="45.29372809562517" lon="9.001939027583168"><ele>97.0</ele><time>2026-03-22T14:21:27Z</time></trkpt><trkpt lat="45.29388327433682" lon="9.002065869010904"><ele>98.0</ele><time>2026-03-22T14:21:28Z</time></trkpt><trkpt lat="45.29403625808867" lon="9.002192497149574"><ele>99.0</ele><time>2026-03-22T14:21:29Z</time></trkpt><trkpt lat="45.2941886028159" lon="9.002318415274694"><ele>100.0</ele><time>2026-03-22T14:21:30Z</time></trkpt><trkpt lat="45.29433888857345" lon="9.002443587103755"><ele>99.66666666666667</ele><time>2026-03-22T14:21:31Z</time></trkpt><trkpt lat="45.2944845443077" lon="9.002565681685809"><ele>99.33333333333334</ele><time>2026-03-22T14:21:32Z</time></trkpt><trkpt lat="45.29463084162742" lon="9.002682892969164"><ele>99.0</ele><time>2026-03-22T14:21:33Z</time></trkpt><trkpt lat="45.29477548829456" lon="9.002790132110146"><ele>99.0</ele><time>2026-03-22T14:21:34Z</time></trkpt><trkpt lat="45.29492501342319" lon="9.002883332611175"><ele>99.0</ele><time>2026-03-22T14:21:35Z</time></trkpt><trkpt lat="45.29508623496028" lon="9.002969395456345"><ele>99.0</ele><time>2026-03-22T14:21:36Z</time></trkpt><trkpt lat="45.295244169447656" lon="9.003055515669375"><ele>99.0</ele><time>2026-03-22T14:21:37Z</time></trkpt><trkpt lat="45.29540067422023" lon="9.003142627416517"><ele>99.0</ele><time>2026-03-22T14:21:38Z</time></trkpt><trkpt lat="45.295557199914754" lon="9.003229884664773"><ele>99.0</ele><time>2026-03-22T14:21:39Z</time></trkpt><trkpt lat="45.29570999954517" lon="9.003321221323747"><ele>98.66666666666666</ele><time>2026-03-22T14:21:40Z</time></trkpt><trkpt lat="45.29585458443097" lon="9.003422019757481"><ele>98.33333333333333</ele><time>2026-03-22T14:21:41Z</time></trkpt><trkpt lat="45.29599038236886" lon="9.003537707980028"><ele>98.0</ele><time>2026-03-22T14:21:42Z</time></trkpt><trkpt lat="45.296111198184335" lon="9.003687327435113"><ele>98.0</ele><time>2026-03-22T14:21:43Z</time></trkpt><trkpt lat="45.29624831615569" lon="9.003797531254987"><ele>98.0</ele><time>2026-03-22T14:21:44Z</time></trkpt><trkpt lat="45.29637257653561" lon="9.003929241333392"><ele>98.0</ele><time>2026-03-22T14:21:45Z</time></trkpt><trkpt lat="45.296501106601866" lon="9.0040632237816"><ele>97.66666666666666</ele><time>2026-03-22T14:21:46Z</time></trkpt><trkpt lat="45.29663096729915" lon="9.004198063357716"><ele>97.33333333333334</ele><time>2026-03-22T14:21:47Z</time></trkpt><trkpt lat="45.29676286335021" lon="9.004329652353793"><ele>97.0</ele><time>2026-03-22T14:21:48Z</time></trkpt><trkpt lat="45.29689312027998" lon="9.004463472174258"><ele>97.0</ele><time>2026-03-22T14:21:49Z</time></trkpt><trkpt lat="45.297016679470545" lon="9.00460414701212"><ele>97.0</ele><time>2026-03-22T14:21:50Z</time></trkpt><trkpt lat="45.297149064363786" lon="9.004727879610517"><ele>97.0</ele><time>2026-03-22T14:21:51Z</time></trkpt><trkpt lat="45.29727603098013" lon="9.004858923170449"><ele>97.33333333333334</ele><time>2026-03-22T14:21:52Z</time></trkpt><trkpt lat="45.29741075295626" lon="9.004980247649499"><ele>97.66666666666666</ele><time>2026-03-22T14:21:53Z</time></trkpt><trkpt lat="45.297549752673945" lon="9.00509059907353"><ele>98.0</ele><time>2026-03-22T14:21:54Z</time></trkpt><trkpt lat="45.29768968335732" lon="9.005195808609088"><ele>98.33333333333333</ele><time>2026-03-22T14:21:55Z</time></trkpt><trkpt lat="45.29783428676377" lon="9.005294165590076"><ele>98.66666666666666</ele><time>2026-03-22T14:21:56Z</time></trkpt><trkpt lat="45.29797898973014" lon="9.005389423515982"><ele>99.0</ele><time>2026-03-22T14:21:57Z</time></trkpt><trkpt lat="45.298118061117265" lon="9.005485205736083"><ele>98.0</ele><time>2026-03-22T14:21:58Z</time></trkpt><trkpt lat="45.298258205399286" lon="9.0055728765122"><ele>97.0</ele><time>2026-03-22T14:21:59Z</time></trkpt><trkpt lat="45.2983997361941" lon="9.005664891543212"><ele>96.0</ele><time>2026-03-22T14:22:00Z</time></trkpt><trkpt lat="45.29854561940998" lon="9.005760482221218"><ele>96.66666666666666</ele><time>2026-03-22T14:22:01Z</time></trkpt><trkpt lat="45.29869074665334" lon="9.005853804662602"><ele>97.33333333333333</ele><time>2026-03-22T14:22:02Z</time></trkpt><trkpt lat="45.298836638558335" lon="9.005947314015543"><ele>98.0</ele><time>2026-03-22T14:22:03Z</time></trkpt><trkpt lat="45.298979554768145" lon="9.006040735970538"><ele>98.0</ele><time>2026-03-22T14:22:04Z</time></trkpt><trkpt lat="45.29912225657381" lon="9.006131589269122"><ele>98.0</ele><time>2026-03-22T14:22:05Z</time></trkpt><trkpt lat="45.29926097825038" lon="9.006219415478439"><ele>98.0</ele><time>2026-03-22T14:22:06Z</time></trkpt><trkpt lat="45.29939685681306" lon="9.006306755630346"><ele>98.0</ele><time>2026-03-22T14:22:07Z</time></trkpt><trkpt lat="45.29953101337907" lon="9.006392520957762"><ele>98.0</ele><time>2026-03-22T14:22:08Z</time></trkpt><trkpt lat="45.29966072549564" lon="9.006476923064206"><ele>98.0</ele><time>2026-03-22T14:22:09Z</time></trkpt><trkpt lat="45.29978908578567" lon="9.00656338432078"><ele>98.0</ele><time>2026-03-22T14:22:10Z</time></trkpt><trkpt lat="45.299919749726364" lon="9.006645348895145"><ele>98.0</ele><time>2026-03-22T14:22:11Z</time></trkpt><trkpt lat="45.300051109446244" lon="9.006727125081445"><ele>98.0</ele><time>2026-03-22T14:22:12Z</time></trkpt><trkpt lat="45.300181409273854" lon="9.006812080176712"><ele>98.0</ele><time>2026-03-22T14:22:13Z</time></trkpt><trkpt lat="45.30030958029558" lon="9.006898795013488"><ele>98.0</ele><time>2026-03-22T14:22:14Z</time></trkpt><trkpt lat="45.300438521118515" lon="9.00698579509326"><ele>98.0</ele><time>2026-03-22T14:22:15Z</time></trkpt><trkpt lat="45.30056482349139" lon="9.007065266330867"><ele>98.0</ele><time>2026-03-22T14:22:16Z</time></trkpt><trkpt lat="45.30069067645887" lon="9.007143926101293"><ele>98.0</ele><time>2026-03-22T14:22:17Z</time></trkpt><trkpt lat="45.30081412593211" lon="9.007224075807374"><ele>98.0</ele><time>2026-03-22T14:22:18Z</time></trkpt><trkpt lat="45.30093899061327" lon="9.007301861359696"><ele>98.0</ele><time>2026-03-22T14:22:19Z</time></trkpt><trkpt lat="45.301063339667095" lon="9.00737741789315"><ele>98.0</ele><time>2026-03-22T14:22:20Z</time></trkpt><trkpt lat="45.30118665302848" lon="9.007456105549947"><ele>98.0</ele><time>2026-03-22T14:22:21Z</time></trkpt><trkpt lat="45.30131243256617" lon="9.00753614945127"><ele>98.0</ele><time>2026-03-22T14:22:22Z</time></trkpt><trkpt lat="45.30144204128435" lon="9.007622224355712"><ele>98.66666666666666</ele><time>2026-03-22T14:22:23Z</time></trkpt><trkpt lat="45.301580152602796" lon="9.007711980321702"><ele>99.33333333333334</ele><time>2026-03-22T14:22:24Z</time></trkpt><trkpt lat="45.30171795501285" lon="9.007798801185304"><ele>100.0</ele><time>2026-03-22T14:22:25Z</time></trkpt><trkpt lat="45.30185620344379" lon="9.00788546636041"><ele>100.0</ele><time>2026-03-22T14:22:26Z</time></trkpt><trkpt lat="45.30199357752822" lon="9.007973592464296"><ele>100.0</ele><time>2026-03-22T14:22:27Z</time></trkpt><trkpt lat="45.30212973595853" lon="9.008060782478694"><ele>100.0</ele><time>2026-03-22T14:22:28Z</time></trkpt><trkpt lat="45.30226741771582" lon="9.00814694679569"><ele>100.0</ele><time>2026-03-22T14:22:29Z</time></trkpt><trkpt lat="45.30240599898355" lon="9.008234105275447"><ele>100.0</ele><time>2026-03-22T14:22:30Z</time></trkpt><trkpt lat="45.30254482737944" lon="9.008318575525859"><ele>100.0</ele><time>2026-03-22T14:22:31Z</time></trkpt><trkpt lat="45.30268281120951" lon="9.008404433520242"><ele>99.75</ele><time>2026-03-22T14:22:32Z</time></trkpt><trkpt lat="45.3028175231766" lon="9.00849255103729"><ele>99.5</ele><time>2026-03-22T14:22:33Z</time></trkpt><trkpt lat="45.30295111934658" lon="9.008579764738297"><ele>99.25</ele><time>2026-03-22T14:22:34Z</time></trkpt><trkpt lat="45.30308166261886" lon="9.00866545981568"><ele>99.0</ele><time>2026-03-22T14:22:35Z</time></trkpt><trkpt lat="45.303213790030384" lon="9.008743691151563"><ele>99.0</ele><time>2026-03-22T14:22:36Z</time></trkpt><trkpt lat="45.30334401391574" lon="9.008815960149906"><ele>99.0</ele><time>2026-03-22T14:22:37Z</time></trkpt><trkpt lat="45.30346994120625" lon="9.008894399993892"><ele>99.0</ele><time>2026-03-22T14:22:38Z</time></trkpt><trkpt lat="45.303593575049334" lon="9.008964684532847"><ele>99.0</ele><time>2026-03-22T14:22:39Z</time></trkpt><trkpt lat="45.3037171016792" lon="9.009028567440646"><ele>99.0</ele><time>2026-03-22T14:22:40Z</time></trkpt><trkpt lat="45.30383786379588" lon="9.00908534550958"><ele>99.0</ele><time>2026-03-22T14:22:41Z</time></trkpt><trkpt lat="45.303954785328884" lon="9.009137706965598"><ele>99.0</ele><time>2026-03-22T14:22:42Z</time></trkpt><trkpt lat="45.304062587206154" lon="9.009181911994437"><ele>99.0</ele><time>2026-03-22T14:22:43Z</time></trkpt><trkpt lat="45.304164880792825" lon="9.009223169874605"><ele>98.66666666666667</ele><time>2026-03-22T14:22:44Z</time></trkpt><trkpt lat="45.30426029664218" lon="9.009261048308773"><ele>98.33333333333334</ele><time>2026-03-22T14:22:45Z</time></trkpt><trkpt lat="45.30434617048085" lon="9.009294300071094"><ele>98.0</ele><time>2026-03-22T14:22:46Z</time></trkpt><trkpt lat="45.304427837119526" lon="9.00932848100442"><ele>97.66666666666667</ele><time>2026-03-22T14:22:47Z</time></trkpt><trkpt lat="45.30449936173702" lon="9.009359199536396"><ele>97.33333333333334</ele><time>2026-03-22T14:22:48Z</time></trkpt><trkpt lat="45.30456249350369" lon="9.009388829308408"><ele>97.0</ele><time>2026-03-22T14:22:49Z</time></trkpt><trkpt lat="45.30466411015032" lon="9.00947310106005"><ele>97.00000000000001</ele><time>2026-03-22T14:22:51Z</time></trkpt><trkpt lat="45.30471424170447" lon="9.009534236741732"><ele>97.0</ele><time>2026-03-22T14:22:52Z</time></trkpt><trkpt lat="45.30475819276935" lon="9.009613570682182"><ele>97.0</ele><time>2026-03-22T14:22:53Z</time></trkpt><trkpt lat="45.30480233396878" lon="9.009683519857731"><ele>97.0</ele><time>2026-03-22T14:22:54Z</time></trkpt><trkpt lat="45.30485837027678" lon="9.009730033319967"><ele>97.00000000000001</ele><time>2026-03-22T14:22:55Z</time></trkpt><trkpt lat="45.304970728282264" lon="9.009706924429956"><ele>97.0</ele><time>2026-03-22T14:22:57Z</time></trkpt><trkpt lat="45.30506295300165" lon="9.009621441115188"><ele>97.0</ele><time>2026-03-22T14:22:59Z</time></trkpt><trkpt lat="45.30506960816794" lon="9.009520633442378"><ele>97.0</ele><time>2026-03-22T14:23:00Z</time></trkpt><trkpt lat="45.30509383486212" lon="9.009434949762356"><ele>97.0</ele><time>2026-03-22T14:23:01Z</time></trkpt><trkpt lat="45.305226871195906" lon="9.009303377584347"><ele>97.0</ele><time>2026-03-22T14:23:03Z</time></trkpt><trkpt lat="45.305299752200376" lon="9.009278179807598"><ele>97.0</ele><time>2026-03-22T14:23:04Z</time></trkpt><trkpt lat="45.305372895833315" lon="9.00923292833359"><ele>97.0</ele><time>2026-03-22T14:23:05Z</time></trkpt><trkpt lat="45.30546426541424" lon="9.009197007099148"><ele>97.0</ele><time>2026-03-22T14:23:06Z</time></trkpt><trkpt lat="45.30557192315459" lon="9.009173369139534"><ele>97.0</ele><time>2026-03-22T14:23:07Z</time></trkpt><trkpt lat="45.305665183747884" lon="9.009154555417537"><ele>97.0</ele><time>2026-03-22T14:23:08Z</time></trkpt><trkpt lat="45.30575254466837" lon="9.009142555462748"><ele>97.0</ele><time>2026-03-22T14:23:09Z</time></trkpt><trkpt lat="45.30583494359714" lon="9.009132732769887"><ele>97.19999999999999</ele><time>2026-03-22T14:23:10Z</time></trkpt><trkpt lat="45.30591831599765" lon="9.009120888580012"><ele>97.4</ele><time>2026-03-22T14:23:11Z</time></trkpt><trkpt lat="45.30600754980168" lon="9.009105637495958"><ele>97.6</ele><time>2026-03-22T14:23:12Z</time></trkpt><trkpt lat="45.30612699453108" lon="9.009081995434224"><ele>97.80000000000001</ele><time>2026-03-22T14:23:13Z</time></trkpt><trkpt lat="45.30627776410358" lon="9.00905707557667"><ele>98.0</ele><time>2026-03-22T14:23:14Z</time></trkpt><trkpt lat="45.306464101427096" lon="9.009036768992807"><ele>98.0</ele><time>2026-03-22T14:23:15Z</time></trkpt><trkpt lat="45.30664832325011" lon="9.009023434193786"><ele>98.0</ele><time>2026-03-22T14:23:16Z</time></trkpt><trkpt lat="45.30682315434262" lon="9.009001727979577"><ele>98.0</ele><time>2026-03-22T14:23:17Z</time></trkpt><trkpt lat="45.306990558607076" lon="9.008973284094566"><ele>98.0</ele><time>2026-03-22T14:23:18Z</time></trkpt><trkpt lat="45.30714867535887" lon="9.00895139283685"><ele>98.0</ele><time>2026-03-22T14:23:19Z</time></trkpt><trkpt lat="45.30731530527242" lon="9.008932442276548"><ele>98.0</ele><time>2026-03-22T14:23:20Z</time></trkpt><trkpt lat="45.30749127951924" lon="9.008904129545533"><ele>98.33333333333333</ele><time>2026-03-22T14:23:21Z</time></trkpt><trkpt lat="45.307695119265865" lon="9.008857782732985"><ele>98.66666666666666</ele><time>2026-03-22T14:23:22Z</time></trkpt><trkpt lat="45.30792560525299" lon="9.008826137474777"><ele>99.0</ele><time>2026-03-22T14:23:23Z</time></trkpt><trkpt lat="45.308174082772965" lon="9.008813011880562"><ele>99.0</ele><time>2026-03-22T14:23:24Z</time></trkpt><trkpt lat="45.308434941617044" lon="9.008780131777185"><ele>99.0</ele><time>2026-03-22T14:23:25Z</time></trkpt><trkpt lat="45.30869688854394" lon="9.008747006083238"><ele>99.0</ele><time>2026-03-22T14:23:26Z</time></trkpt><trkpt lat="45.30891924584609" lon="9.008721565407255"><ele>99.0</ele><time>2026-03-22T14:23:27Z</time></trkpt><trkpt lat="45.30912562169566" lon="9.00869358338877"><ele>99.0</ele><time>2026-03-22T14:23:28Z</time></trkpt><trkpt lat="45.30931981173599" lon="9.008666513152999"><ele>99.0</ele><time>2026-03-22T14:23:29Z</time></trkpt><trkpt lat="45.30950439007082" lon="9.00864041468522"><ele>99.0</ele><time>2026-03-22T14:23:30Z</time></trkpt><trkpt lat="45.30967963953221" lon="9.008620080630637"><ele>99.0</ele><time>2026-03-22T14:23:31Z</time></trkpt><trkpt lat="45.30984238858999" lon="9.008600162559546"><ele>99.33333333333334</ele><time>2026-03-22T14:23:32Z</time></trkpt><trkpt lat="45.31001683131187" lon="9.008580157324342"><ele>99.66666666666667</ele><time>2026-03-22T14:23:33Z</time></trkpt><trkpt lat="45.31017483344771" lon="9.008560662001294"><ele>100.0</ele><time>2026-03-22T14:23:34Z</time></trkpt><trkpt lat="45.310321376751254" lon="9.008540844011605"><ele>100.0</ele><time>2026-03-22T14:23:35Z</time></trkpt><trkpt lat="45.31045905609073" lon="9.008519955046754"><ele>100.0</ele><time>2026-03-22T14:23:36Z</time></trkpt><trkpt lat="45.3105856027007" lon="9.008496336007664"><ele>100.0</ele><time>2026-03-22T14:23:37Z</time></trkpt><trkpt lat="45.310704970991736" lon="9.008467847688218"><ele>100.0</ele><time>2026-03-22T14:23:38Z</time></trkpt><trkpt lat="45.310845313695935" lon="9.008454219805504"><ele>100.0</ele><time>2026-03-22T14:23:39Z</time></trkpt><trkpt lat="45.31100915372508" lon="9.008452173794085"><ele>100.0</ele><time>2026-03-22T14:23:40Z</time></trkpt><trkpt lat="45.31119424322768" lon="9.008455185825056"><ele>100.0</ele><time>2026-03-22T14:23:41Z</time></trkpt><trkpt lat="45.311411174268656" lon="9.008478565285543"><ele>99.66666666666667</ele><time>2026-03-22T14:23:42Z</time></trkpt><trkpt lat="45.31162879017256" lon="9.008512913984923"><ele>99.33333333333334</ele><time>2026-03-22T14:23:43Z</time></trkpt><trkpt lat="45.31181730016066" lon="9.00855363763383"><ele>99.0</ele><time>2026-03-22T14:23:44Z</time></trkpt><trkpt lat="45.311996077608185" lon="9.008597487829695"><ele>99.0</ele><time>2026-03-22T14:23:45Z</time></trkpt><trkpt lat="45.312173064603826" lon="9.008654933747614"><ele>99.0</ele><time>2026-03-22T14:23:46Z</time></trkpt><trkpt lat="45.312357202228895" lon="9.00872639587182"><ele>99.0</ele><time>2026-03-22T14:23:47Z</time></trkpt><trkpt lat="45.31254454366091" lon="9.008811875937706"><ele>99.0</ele><time>2026-03-22T14:23:48Z</time></trkpt><trkpt lat="45.312746564992935" lon="9.008918567758803"><ele>99.0</ele><time>2026-03-22T14:23:49Z</time></trkpt><trkpt lat="45.312935210032755" lon="9.009029121207938"><ele>99.0</ele><time>2026-03-22T14:23:50Z</time></trkpt><trkpt lat="45.313114103868706" lon="9.009138659876731"><ele>99.0</ele><time>2026-03-22T14:23:51Z</time></trkpt><trkpt lat="45.313290968205706" lon="9.009250874365733"><ele>99.0</ele><time>2026-03-22T14:23:52Z</time></trkpt><trkpt lat="45.31346572924501" lon="9.009364218407773"><ele>99.0</ele><time>2026-03-22T14:23:53Z</time></trkpt><trkpt lat="45.31363988908605" lon="9.009477083215183"><ele>99.0</ele><time>2026-03-22T14:23:54Z</time></trkpt><trkpt lat="45.31381469334268" lon="9.009587892261273"><ele>99.0</ele><time>2026-03-22T14:23:55Z</time></trkpt><trkpt lat="45.31399199563591" lon="9.009697885121948"><ele>99.0</ele><time>2026-03-22T14:23:56Z</time></trkpt><trkpt lat="45.31416849165486" lon="9.009809581130535"><ele>99.33333333333334</ele><time>2026-03-22T14:23:57Z</time></trkpt><trkpt lat="45.314343147665674" lon="9.009918370674058"><ele>99.66666666666667</ele><time>2026-03-22T14:23:58Z</time></trkpt><trkpt lat="45.314517539243404" lon="9.010026194257499"><ele>100.0</ele><time>2026-03-22T14:23:59Z</time></trkpt><trkpt lat="45.31469002281877" lon="9.010135690062262"><ele>99.66666666666667</ele><time>2026-03-22T14:24:00Z</time></trkpt><trkpt lat="45.31485958868589" lon="9.01024442011537"><ele>99.33333333333334</ele><time>2026-03-22T14:24:01Z</time></trkpt><trkpt lat="45.31502687666758" lon="9.01034703889516"><ele>99.0</ele><time>2026-03-22T14:24:02Z</time></trkpt><trkpt lat="45.31519305025719" lon="9.01044572485224"><ele>99.0</ele><time>2026-03-22T14:24:03Z</time></trkpt><trkpt lat="45.315355161974" lon="9.010546827896665"><ele>99.0</ele><time>2026-03-22T14:24:04Z</time></trkpt><trkpt lat="45.31551537694603" lon="9.01064801943106"><ele>99.0</ele><time>2026-03-22T14:24:05Z</time></trkpt><trkpt lat="45.31567366943914" lon="9.010748987989798"><ele>99.33333333333334</ele><time>2026-03-22T14:24:06Z</time></trkpt><trkpt lat="45.31583210959442" lon="9.01084869720322"><ele>99.66666666666667</ele><time>2026-03-22T14:24:07Z</time></trkpt><trkpt lat="45.315987519975714" lon="9.010946858604791"><ele>100.0</ele><time>2026-03-22T14:24:08Z</time></trkpt><trkpt lat="45.31614318727944" lon="9.011043300628318"><ele>100.0</ele><time>2026-03-22T14:24:09Z</time></trkpt><trkpt lat="45.316281405849715" lon="9.011134719827103"><ele>100.0</ele><time>2026-03-22T14:24:10Z</time></trkpt><trkpt lat="45.31641353032099" lon="9.01121545868037"><ele>100.0</ele><time>2026-03-22T14:24:11Z</time></trkpt><trkpt lat="45.31653143656451" lon="9.01129449419854"><ele>100.0</ele><time>2026-03-22T14:24:12Z</time></trkpt><trkpt lat="45.31662262380624" lon="9.0113647336052"><ele>100.0</ele><time>2026-03-22T14:24:13Z</time></trkpt><trkpt lat="45.316699686333536" lon="9.011426056703582"><ele>100.0</ele><time>2026-03-22T14:24:14Z</time></trkpt><trkpt lat="45.31677163031725" lon="9.011500317709258"><ele>100.0</ele><time>2026-03-22T14:24:15Z</time></trkpt><trkpt lat="45.316835417427754" lon="9.011602207305469"><ele>100.0</ele><time>2026-03-22T14:24:16Z</time></trkpt><trkpt lat="45.31689484269032" lon="9.011689822229938"><ele>100.0</ele><time>2026-03-22T14:24:17Z</time></trkpt><trkpt lat="45.31698032337616" lon="9.011747412782753"><ele>100.0</ele><time>2026-03-22T14:24:18Z</time></trkpt><trkpt lat="45.317110660465545" lon="9.011733473593312"><ele>100.0</ele><time>2026-03-22T14:24:19Z</time></trkpt><trkpt lat="45.317254163803305" lon="9.011792944533434"><ele>100.0</ele><time>2026-03-22T14:24:20Z</time></trkpt><trkpt lat="45.31740678658863" lon="9.011883649220911"><ele>100.0</ele><time>2026-03-22T14:24:21Z</time></trkpt><trkpt lat="45.31757497121977" lon="9.012015385202972"><ele>99.66666666666667</ele><time>2026-03-22T14:24:22Z</time></trkpt><trkpt lat="45.31772220933457" lon="9.012152320707285"><ele>99.33333333333334</ele><time>2026-03-22T14:24:23Z</time></trkpt><trkpt lat="45.317856469488284" lon="9.012323263196544"><ele>99.0</ele><time>2026-03-22T14:24:24Z</time></trkpt><trkpt lat="45.3179757503107" lon="9.012471504636718"><ele>98.66666666666666</ele><time>2026-03-22T14:24:25Z</time></trkpt><trkpt lat="45.31809379709882" lon="9.01262954943123"><ele>98.33333333333333</ele><time>2026-03-22T14:24:26Z</time></trkpt><trkpt lat="45.31822554963358" lon="9.012824749496268"><ele>98.0</ele><time>2026-03-22T14:24:27Z</time></trkpt><trkpt lat="45.31833876607518" lon="9.013024907176879"><ele>98.0</ele><time>2026-03-22T14:24:28Z</time></trkpt><trkpt lat="45.318442864869894" lon="9.013218513954307"><ele>98.0</ele><time>2026-03-22T14:24:29Z</time></trkpt><trkpt lat="45.31854287168391" lon="9.013423603028269"><ele>98.0</ele><time>2026-03-22T14:24:30Z</time></trkpt><trkpt lat="45.318640381635674" lon="9.013640618397972"><ele>98.33333333333333</ele><time>2026-03-22T14:24:31Z</time></trkpt><trkpt lat="45.31872789896062" lon="9.013860827914383"><ele>98.66666666666666</ele><time>2026-03-22T14:24:32Z</time></trkpt><trkpt lat="45.31880643005302" lon="9.014085278751857"><ele>99.0</ele><time>2026-03-22T14:24:33Z</time></trkpt><trkpt lat="45.318877185499694" lon="9.014317648356414"><ele>99.33333333333334</ele><time>2026-03-22T14:24:34Z</time></trkpt><trkpt lat="45.31894178422133" lon="9.014558362519308"><ele>99.66666666666667</ele><time>2026-03-22T14:24:35Z</time></trkpt><trkpt lat="45.31899702201511" lon="9.014802853806357"><ele>100.0</ele><time>2026-03-22T14:24:36Z</time></trkpt><trkpt lat="45.3190427672031" lon="9.015047041705461"><ele>100.33333333333334</ele><time>2026-03-22T14:24:37Z</time></trkpt><trkpt lat="45.3190818023563" lon="9.015292978366224"><ele>100.66666666666666</ele><time>2026-03-22T14:24:38Z</time></trkpt><trkpt lat="45.319107121268736" lon="9.015538841899305"><ele>101.0</ele><time>2026-03-22T14:24:39Z</time></trkpt><trkpt lat="45.319125653549165" lon="9.015786013531578"><ele>101.33333333333333</ele><time>2026-03-22T14:24:40Z</time></trkpt><trkpt lat="45.31913511761021" lon="9.016032160490779"><ele>101.66666666666666</ele><time>2026-03-22T14:24:41Z</time></trkpt><trkpt lat="45.31913820044455" lon="9.016279425455183"><ele>102.0</ele><time>2026-03-22T14:24:42Z</time></trkpt><trkpt lat="45.31913249076852" lon="9.01652561193601"><ele>103.0</ele><time>2026-03-22T14:24:43Z</time></trkpt><trkpt lat="45.31912815976653" lon="9.016771686921045"><ele>104.0</ele><time>2026-03-22T14:24:44Z</time></trkpt><trkpt lat="45.319123783971385" lon="9.017015098111305"><ele>105.0</ele><time>2026-03-22T14:24:45Z</time></trkpt><trkpt lat="45.3191194695809" lon="9.017255093457884"><ele>104.33333333333334</ele><time>2026-03-22T14:24:46Z</time></trkpt><trkpt lat="45.31911519662216" lon="9.017492784263288"><ele>103.66666666666667</ele><time>2026-03-22T14:24:47Z</time></trkpt><trkpt lat="45.319110956773905" lon="9.017728633128462"><ele>103.0</ele><time>2026-03-22T14:24:48Z</time></trkpt><trkpt lat="45.31910679066775" lon="9.01796037278649"><ele>103.0</ele><time>2026-03-22T14:24:49Z</time></trkpt><trkpt lat="45.31910345428876" lon="9.018192618785015"><ele>103.0</ele><time>2026-03-22T14:24:50Z</time></trkpt><trkpt lat="45.31909978569332" lon="9.01841862068486"><ele>103.0</ele><time>2026-03-22T14:24:51Z</time></trkpt><trkpt lat="45.31909542511758" lon="9.018646053561223"><ele>101.66666666666667</ele><time>2026-03-22T14:24:52Z</time></trkpt><trkpt lat="45.31909102025725" lon="9.0188757957539"><ele>100.33333333333334</ele><time>2026-03-22T14:24:53Z</time></trkpt><trkpt lat="45.31908671407751" lon="9.019100391406239"><ele>99.0</ele><time>2026-03-22T14:24:54Z</time></trkpt><trkpt lat="45.3190829565211" lon="9.019302308954277"><ele>99.0</ele><time>2026-03-22T14:24:55Z</time></trkpt><trkpt lat="45.31907988878078" lon="9.019488213987431"><ele>99.0</ele><time>2026-03-22T14:24:56Z</time></trkpt><trkpt lat="45.31907744948499" lon="9.019636035263597"><ele>99.0</ele><time>2026-03-22T14:24:57Z</time></trkpt><trkpt lat="45.31907518795824" lon="9.019773083822237"><ele>99.0</ele><time>2026-03-22T14:24:58Z</time></trkpt><trkpt lat="45.31907323021622" lon="9.019897582073549"><ele>99.0</ele><time>2026-03-22T14:24:59Z</time></trkpt><trkpt lat="45.319082607876865" lon="9.01999979535695"><ele>99.2</ele><time>2026-03-22T14:25:00Z</time></trkpt><trkpt lat="45.31902260024548" lon="9.020071422142596"><ele>99.4</ele><time>2026-03-22T14:25:01Z</time></trkpt><trkpt lat="45.31896316945103" lon="9.020163682758797"><ele>99.6</ele><time>2026-03-22T14:25:02Z</time></trkpt><trkpt lat="45.31892273737163" lon="9.020279174880931"><ele>99.8</ele><time>2026-03-22T14:25:03Z</time></trkpt><trkpt lat="45.31891496717002" lon="9.020415814945098"><ele>100.0</ele><time>2026-03-22T14:25:04Z</time></trkpt><trkpt lat="45.318996451670756" lon="9.02053824865273"><ele>100.0</ele><time>2026-03-22T14:25:05Z</time></trkpt><trkpt lat="45.319035980000706" lon="9.020657851826295"><ele>100.0</ele><time>2026-03-22T14:25:06Z</time></trkpt><trkpt lat="45.319066789841514" lon="9.020795400068826"><ele>100.0</ele><time>2026-03-22T14:25:07Z</time></trkpt><trkpt lat="45.31909507642566" lon="9.020973686614946"><ele>100.0</ele><time>2026-03-22T14:25:08Z</time></trkpt><trkpt lat="45.31904381398135" lon="9.021185994256287"><ele>99.66666666666667</ele><time>2026-03-22T14:25:09Z</time></trkpt><trkpt lat="45.31903906124881" lon="9.02141988486291"><ele>99.33333333333334</ele><time>2026-03-22T14:25:10Z</time></trkpt><trkpt lat="45.31903422365931" lon="9.021657951162007"><ele>99.0</ele><time>2026-03-22T14:25:11Z</time></trkpt><trkpt lat="45.31909847977105" lon="9.021924333625726"><ele>99.0</ele><time>2026-03-22T14:25:12Z</time></trkpt><trkpt lat="45.31909240282883" lon="9.02220379034032"><ele>99.0</ele><time>2026-03-22T14:25:13Z</time></trkpt><trkpt lat="45.31909029499224" lon="9.022524246291116"><ele>99.0</ele><time>2026-03-22T14:25:14Z</time></trkpt><trkpt lat="45.31908982753999" lon="9.022857004899207"><ele>99.0</ele><time>2026-03-22T14:25:15Z</time></trkpt><trkpt lat="45.31900798874392" lon="9.023154063095724"><ele>99.0</ele><time>2026-03-22T14:25:16Z</time></trkpt><trkpt lat="45.319004122362244" lon="9.023387940151032"><ele>99.0</ele><time>2026-03-22T14:25:17Z</time></trkpt><trkpt lat="45.319000444007834" lon="9.023607416976983"><ele>99.0</ele><time>2026-03-22T14:25:18Z</time></trkpt><trkpt lat="45.31899599510187" lon="9.023814253499237"><ele>99.0</ele><time>2026-03-22T14:25:19Z</time></trkpt><trkpt lat="45.318991864703335" lon="9.024006281594225"><ele>99.0</ele><time>2026-03-22T14:25:20Z</time></trkpt><trkpt lat="45.318987671055645" lon="9.024201250710169"><ele>99.0</ele><time>2026-03-22T14:25:21Z</time></trkpt><trkpt lat="45.31898356668841" lon="9.024392069066483"><ele>99.0</ele><time>2026-03-22T14:25:22Z</time></trkpt><trkpt lat="45.31897950795619" lon="9.024580765708173"><ele>99.0</ele><time>2026-03-22T14:25:23Z</time></trkpt><trkpt lat="45.318975828472674" lon="9.024769629025895"><ele>99.0</ele><time>2026-03-22T14:25:24Z</time></trkpt><trkpt lat="45.3189726258856" lon="9.02496480027872"><ele>99.0</ele><time>2026-03-22T14:25:25Z</time></trkpt><trkpt lat="45.3189694638555" lon="9.025157499937315"><ele>99.0</ele><time>2026-03-22T14:25:26Z</time></trkpt><trkpt lat="45.31896623625514" lon="9.025350743413139"><ele>99.0</ele><time>2026-03-22T14:25:27Z</time></trkpt><trkpt lat="45.31900942401737" lon="9.025547487968701"><ele>99.0</ele><time>2026-03-22T14:25:28Z</time></trkpt><trkpt lat="45.31900768330473" lon="9.025750050054816"><ele>99.0</ele><time>2026-03-22T14:25:29Z</time></trkpt><trkpt lat="45.319003038566436" lon="9.025965863583748"><ele>100.0</ele><time>2026-03-22T14:25:30Z</time></trkpt><trkpt lat="45.31899996100933" lon="9.026180794144576"><ele>101.0</ele><time>2026-03-22T14:25:31Z</time></trkpt><trkpt lat="45.31899884214992" lon="9.026426192636"><ele>102.0</ele><time>2026-03-22T14:25:32Z</time></trkpt><trkpt lat="45.31900485841162" lon="9.026684169570272"><ele>102.0</ele><time>2026-03-22T14:25:33Z</time></trkpt><trkpt lat="45.319010131995256" lon="9.02694723959083"><ele>102.0</ele><time>2026-03-22T14:25:34Z</time></trkpt><trkpt lat="45.319010139326224" lon="9.027202197761458"><ele>102.0</ele><time>2026-03-22T14:25:35Z</time></trkpt><trkpt lat="45.319009452758124" lon="9.02749323276907"><ele>102.0</ele><time>2026-03-22T14:25:36Z</time></trkpt><trkpt lat="45.31900680833197" lon="9.027806185901182"><ele>102.0</ele><time>2026-03-22T14:25:37Z</time></trkpt><trkpt lat="45.318986273654545" lon="9.02811996220607"><ele>102.0</ele><time>2026-03-22T14:25:38Z</time></trkpt><trkpt lat="45.3189687528176" lon="9.028412883281401"><ele>102.33333333333334</ele><time>2026-03-22T14:25:39Z</time></trkpt><trkpt lat="45.318959027592236" lon="9.028702440676863"><ele>102.66666666666667</ele><time>2026-03-22T14:25:40Z</time></trkpt><trkpt lat="45.31895228865211" lon="9.028961213006763"><ele>103.0</ele><time>2026-03-22T14:25:41Z</time></trkpt><trkpt lat="45.31894667229625" lon="9.029203133882866"><ele>103.0</ele><time>2026-03-22T14:25:42Z</time></trkpt><trkpt lat="45.3189423089676" lon="9.029450584598713"><ele>103.0</ele><time>2026-03-22T14:25:43Z</time></trkpt><trkpt lat="45.3189394495554" lon="9.029689142149916"><ele>103.0</ele><time>2026-03-22T14:25:44Z</time></trkpt><trkpt lat="45.318934532033836" lon="9.02990303240277"><ele>103.0</ele><time>2026-03-22T14:25:45Z</time></trkpt><trkpt lat="45.318931130723335" lon="9.030102182604285"><ele>103.0</ele><time>2026-03-22T14:25:46Z</time></trkpt><trkpt lat="45.31892663785571" lon="9.03028435288343"><ele>103.0</ele><time>2026-03-22T14:25:47Z</time></trkpt><trkpt lat="45.31892128607618" lon="9.030457718448202"><ele>103.0</ele><time>2026-03-22T14:25:48Z</time></trkpt><trkpt lat="45.31888344315606" lon="9.030626626879442"><ele>102.80000000000001</ele><time>2026-03-22T14:25:49Z</time></trkpt><trkpt lat="45.3188784080571" lon="9.030780981461348"><ele>102.6</ele><time>2026-03-22T14:25:50Z</time></trkpt><trkpt lat="45.318872084221276" lon="9.030920845933773"><ele>102.4</ele><time>2026-03-22T14:25:51Z</time></trkpt><trkpt lat="45.3188623329861" lon="9.031045036960473"><ele>102.19999999999999</ele><time>2026-03-22T14:25:52Z</time></trkpt><trkpt lat="45.318863720397935" lon="9.031178638622885"><ele>102.0</ele><time>2026-03-22T14:25:53Z</time></trkpt><trkpt lat="45.31883377958292" lon="9.031301105494649"><ele>102.0</ele><time>2026-03-22T14:25:54Z</time></trkpt><trkpt lat="45.31881792471834" lon="9.03144074552296"><ele>102.0</ele><time>2026-03-22T14:25:55Z</time></trkpt><trkpt lat="45.31881586362858" lon="9.031588098940759"><ele>102.0</ele><time>2026-03-22T14:25:56Z</time></trkpt><trkpt lat="45.31884922308576" lon="9.03174512461497"><ele>102.0</ele><time>2026-03-22T14:25:57Z</time></trkpt><trkpt lat="45.3189171317429" lon="9.031887616341919"><ele>102.0</ele><time>2026-03-22T14:25:58Z</time></trkpt><trkpt lat="45.31897638985223" lon="9.032037274929495"><ele>102.0</ele><time>2026-03-22T14:25:59Z</time></trkpt><trkpt lat="45.31905196488015" lon="9.032184472794054"><ele>102.0</ele><time>2026-03-22T14:26:00Z</time></trkpt><trkpt lat="45.31913036171706" lon="9.032328287031614"><ele>102.0</ele><time>2026-03-22T14:26:01Z</time></trkpt><trkpt lat="45.319213713729695" lon="9.032477078634743"><ele>102.0</ele><time>2026-03-22T14:26:02Z</time></trkpt><trkpt lat="45.31929660606586" lon="9.032621344694926"><ele>101.0</ele><time>2026-03-22T14:26:03Z</time></trkpt><trkpt lat="45.31938445171397" lon="9.032762454276565"><ele>100.0</ele><time>2026-03-22T14:26:04Z</time></trkpt><trkpt lat="45.31948463234037" lon="9.032900925942528"><ele>99.0</ele><time>2026-03-22T14:26:05Z</time></trkpt><trkpt lat="45.31956433750929" lon="9.03305728626207"><ele>98.0</ele><time>2026-03-22T14:26:06Z</time></trkpt><trkpt lat="45.31964992103341" lon="9.033217397241787"><ele>98.5</ele><time>2026-03-22T14:26:07Z</time></trkpt><trkpt lat="45.31972837378394" lon="9.033364167911282"><ele>99.0</ele><time>2026-03-22T14:26:08Z</time></trkpt><trkpt lat="45.31981475859383" lon="9.033513476439076"><ele>99.5</ele><time>2026-03-22T14:26:09Z</time></trkpt><trkpt lat="45.31990349297181" lon="9.033660763868689"><ele>100.0</ele><time>2026-03-22T14:26:10Z</time></trkpt><trkpt lat="45.31999293813705" lon="9.033809177190982"><ele>100.0</ele><time>2026-03-22T14:26:11Z</time></trkpt><trkpt lat="45.32008651621604" lon="9.033964448139168"><ele>100.0</ele><time>2026-03-22T14:26:12Z</time></trkpt><trkpt lat="45.32018073430118" lon="9.034120780988191"><ele>100.0</ele><time>2026-03-22T14:26:13Z</time></trkpt><trkpt lat="45.32027389362241" lon="9.034275357066528"><ele>100.0</ele><time>2026-03-22T14:26:14Z</time></trkpt><trkpt lat="45.320367694150185" lon="9.03443074612578"><ele>100.0</ele><time>2026-03-22T14:26:15Z</time></trkpt><trkpt lat="45.320462404893334" lon="9.034587574118571"><ele>100.0</ele><time>2026-03-22T14:26:16Z</time></trkpt><trkpt lat="45.320558621438536" lon="9.034746895513605"><ele>100.0</ele><time>2026-03-22T14:26:17Z</time></trkpt><trkpt lat="45.320654550937334" lon="9.034905741584806"><ele>100.0</ele><time>2026-03-22T14:26:18Z</time></trkpt><trkpt lat="45.320750338690594" lon="9.03506435373855"><ele>100.25</ele><time>2026-03-22T14:26:19Z</time></trkpt><trkpt lat="45.32084510991224" lon="9.035221950964319"><ele>100.5</ele><time>2026-03-22T14:26:20Z</time></trkpt><trkpt lat="45.320951420191" lon="9.035364091186054"><ele>100.75</ele><time>2026-03-22T14:26:21Z</time></trkpt><trkpt lat="45.321044892073175" lon="9.035522597839272"><ele>101.0</ele><time>2026-03-22T14:26:22Z</time></trkpt><trkpt lat="45.32113711454601" lon="9.03568023881537"><ele>101.0</ele><time>2026-03-22T14:26:23Z</time></trkpt><trkpt lat="45.32123528336934" lon="9.035838363650395"><ele>101.0</ele><time>2026-03-22T14:26:24Z</time></trkpt><trkpt lat="45.321332217442645" lon="9.035996346037102"><ele>101.0</ele><time>2026-03-22T14:26:25Z</time></trkpt><trkpt lat="45.321429287092755" lon="9.036159925897977"><ele>101.0</ele><time>2026-03-22T14:26:26Z</time></trkpt><trkpt lat="45.32152783441627" lon="9.036323378119945"><ele>101.0</ele><time>2026-03-22T14:26:27Z</time></trkpt><trkpt lat="45.32162706463966" lon="9.03648457151822"><ele>101.0</ele><time>2026-03-22T14:26:28Z</time></trkpt><trkpt lat="45.32172592414899" lon="9.036644629129388"><ele>101.0</ele><time>2026-03-22T14:26:29Z</time></trkpt><trkpt lat="45.32182073085336" lon="9.036808734234764"><ele>101.0</ele><time>2026-03-22T14:26:30Z</time></trkpt><trkpt lat="45.32191432236913" lon="9.036966995167974"><ele>101.0</ele><time>2026-03-22T14:26:31Z</time></trkpt><trkpt lat="45.321997755831866" lon="9.037113563930342"><ele>101.0</ele><time>2026-03-22T14:26:32Z</time></trkpt><trkpt lat="45.322081652478175" lon="9.037253498119707"><ele>101.0</ele><time>2026-03-22T14:26:33Z</time></trkpt><trkpt lat="45.32216826815903" lon="9.037398253375912"><ele>100.5</ele><time>2026-03-22T14:26:34Z</time></trkpt><trkpt lat="45.322261267865855" lon="9.037548806946676"><ele>100.0</ele><time>2026-03-22T14:26:35Z</time></trkpt><trkpt lat="45.32236155087881" lon="9.037710782029071"><ele>99.5</ele><time>2026-03-22T14:26:36Z</time></trkpt><trkpt lat="45.3224647260765" lon="9.037873972105244"><ele>99.0</ele><time>2026-03-22T14:26:37Z</time></trkpt><trkpt lat="45.322567786638636" lon="9.038041493484098"><ele>99.0</ele><time>2026-03-22T14:26:38Z</time></trkpt><trkpt lat="45.322667523236554" lon="9.03821430519999"><ele>99.0</ele><time>2026-03-22T14:26:39Z</time></trkpt><trkpt lat="45.32276804601032" lon="9.038388219173221"><ele>99.0</ele><time>2026-03-22T14:26:40Z</time></trkpt><trkpt lat="45.32287301897653" lon="9.038563879854085"><ele>98.66666666666666</ele><time>2026-03-22T14:26:41Z</time></trkpt><trkpt lat="45.32298831336449" lon="9.038751429786977"><ele>98.33333333333333</ele><time>2026-03-22T14:26:42Z</time></trkpt><trkpt lat="45.32310035835958" lon="9.038935043512645"><ele>98.0</ele><time>2026-03-22T14:26:43Z</time></trkpt><trkpt lat="45.32321288697389" lon="9.039120647379786"><ele>98.0</ele><time>2026-03-22T14:26:44Z</time></trkpt><trkpt lat="45.323324746977995" lon="9.039304358656672"><ele>98.0</ele><time>2026-03-22T14:26:45Z</time></trkpt><trkpt lat="45.323436526676275" lon="9.039484504036412"><ele>98.0</ele><time>2026-03-22T14:26:46Z</time></trkpt><trkpt lat="45.32354568603225" lon="9.039665725041647"><ele>98.0</ele><time>2026-03-22T14:26:47Z</time></trkpt><trkpt lat="45.32365490851442" lon="9.039844908898894"><ele>98.0</ele><time>2026-03-22T14:26:48Z</time></trkpt><trkpt lat="45.32376577750385" lon="9.040025575973939"><ele>98.0</ele><time>2026-03-22T14:26:49Z</time></trkpt><trkpt lat="45.32387521367185" lon="9.04020300511526"><ele>98.66666666666666</ele><time>2026-03-22T14:26:50Z</time></trkpt><trkpt lat="45.32398290325242" lon="9.040381773643317"><ele>99.33333333333334</ele><time>2026-03-22T14:26:51Z</time></trkpt><trkpt lat="45.32409052256924" lon="9.040568867236491"><ele>100.0</ele><time>2026-03-22T14:26:52Z</time></trkpt><trkpt lat="45.32420190820955" lon="9.04074877960013"><ele>99.66666666666667</ele><time>2026-03-22T14:26:53Z</time></trkpt><trkpt lat="45.324312439201385" lon="9.040933045755676"><ele>99.33333333333334</ele><time>2026-03-22T14:26:54Z</time></trkpt><trkpt lat="45.32442138826597" lon="9.041111785669587"><ele>99.0</ele><time>2026-03-22T14:26:55Z</time></trkpt><trkpt lat="45.32452535858516" lon="9.041285808338726"><ele>99.0</ele><time>2026-03-22T14:26:56Z</time></trkpt><trkpt lat="45.324631787247014" lon="9.041462846152267"><ele>99.0</ele><time>2026-03-22T14:26:57Z</time></trkpt><trkpt lat="45.32473538508071" lon="9.041638298592119"><ele>99.0</ele><time>2026-03-22T14:26:58Z</time></trkpt><trkpt lat="45.324840064779785" lon="9.041812209540607"><ele>99.33333333333334</ele><time>2026-03-22T14:26:59Z</time></trkpt><trkpt lat="45.324943776567395" lon="9.041982287882066"><ele>99.66666666666667</ele><time>2026-03-22T14:27:00Z</time></trkpt><trkpt lat="45.32504645326008" lon="9.042152734207885"><ele>100.0</ele><time>2026-03-22T14:27:01Z</time></trkpt><trkpt lat="45.32514451093005" lon="9.042320856022618"><ele>100.0</ele><time>2026-03-22T14:27:02Z</time></trkpt><trkpt lat="45.32524336735788" lon="9.042489835642426"><ele>100.0</ele><time>2026-03-22T14:27:03Z</time></trkpt><trkpt lat="45.32534306616912" lon="9.042655587241677"><ele>100.0</ele><time>2026-03-22T14:27:04Z</time></trkpt><trkpt lat="45.325440754818764" lon="9.042824792223545"><ele>100.0</ele><time>2026-03-22T14:27:05Z</time></trkpt><trkpt lat="45.32553930999512" lon="9.042991619349758"><ele>100.0</ele><time>2026-03-22T14:27:06Z</time></trkpt><trkpt lat="45.325635996073785" lon="9.043157269591077"><ele>100.0</ele><time>2026-03-22T14:27:07Z</time></trkpt><trkpt lat="45.32573458618863" lon="9.04331511747284"><ele>100.25</ele><time>2026-03-22T14:27:08Z</time></trkpt><trkpt lat="45.325829375179694" lon="9.04347194978408"><ele>100.5</ele><time>2026-03-22T14:27:09Z</time></trkpt><trkpt lat="45.3259266186625" lon="9.04362800576575"><ele>100.75</ele><time>2026-03-22T14:27:10Z</time></trkpt><trkpt lat="45.32602294312901" lon="9.04378496134033"><ele>101.0</ele><time>2026-03-22T14:27:11Z</time></trkpt><trkpt lat="45.32612428626228" lon="9.043945105813501"><ele>101.0</ele><time>2026-03-22T14:27:12Z</time></trkpt><trkpt lat="45.326217303726004" lon="9.044107719776374"><ele>101.0</ele><time>2026-03-22T14:27:13Z</time></trkpt><trkpt lat="45.32631667517067" lon="9.044265266181306"><ele>101.0</ele><time>2026-03-22T14:27:14Z</time></trkpt><trkpt lat="45.326416284449266" lon="9.044426091670209"><ele>101.0</ele><time>2026-03-22T14:27:15Z</time></trkpt><trkpt lat="45.3265128277363" lon="9.044587066906072"><ele>100.66666666666666</ele><time>2026-03-22T14:27:16Z</time></trkpt><trkpt lat="45.32661168899099" lon="9.044749565129553"><ele>100.33333333333334</ele><time>2026-03-22T14:27:17Z</time></trkpt><trkpt lat="45.32670901571122" lon="9.044914183054459"><ele>100.0</ele><time>2026-03-22T14:27:18Z</time></trkpt><trkpt lat="45.326811106580756" lon="9.045080061266498"><ele>100.0</ele><time>2026-03-22T14:27:19Z</time></trkpt><trkpt lat="45.32691063814141" lon="9.0452435548724"><ele>100.0</ele><time>2026-03-22T14:27:20Z</time></trkpt><trkpt lat="45.32701713457721" lon="9.045410464184076"><ele>100.0</ele><time>2026-03-22T14:27:21Z</time></trkpt><trkpt lat="45.32711932780444" lon="9.045579236643194"><ele>100.0</ele><time>2026-03-22T14:27:22Z</time></trkpt><trkpt lat="45.32722166604377" lon="9.04574881229724"><ele>100.0</ele><time>2026-03-22T14:27:23Z</time></trkpt><trkpt lat="45.32732435771164" lon="9.045919825173957"><ele>100.0</ele><time>2026-03-22T14:27:24Z</time></trkpt><trkpt lat="45.327432611677956" lon="9.04609119314352"><ele>100.0</ele><time>2026-03-22T14:27:25Z</time></trkpt><trkpt lat="45.32753421176238" lon="9.046264773597551"><ele>100.0</ele><time>2026-03-22T14:27:26Z</time></trkpt><trkpt lat="45.32763794521573" lon="9.046436297557799"><ele>100.0</ele><time>2026-03-22T14:27:27Z</time></trkpt><trkpt lat="45.32774038573083" lon="9.046607212896038"><ele>100.0</ele><time>2026-03-22T14:27:28Z</time></trkpt><trkpt lat="45.327842702393795" lon="9.04677291255152"><ele>100.0</ele><time>2026-03-22T14:27:29Z</time></trkpt><trkpt lat="45.32794113582517" lon="9.046934851475159"><ele>100.0</ele><time>2026-03-22T14:27:30Z</time></trkpt><trkpt lat="45.328039894843315" lon="9.047097448834524"><ele>100.0</ele><time>2026-03-22T14:27:31Z</time></trkpt><trkpt lat="45.32813989518277" lon="9.047262813568292"><ele>100.0</ele><time>2026-03-22T14:27:32Z</time></trkpt><trkpt lat="45.32823862656416" lon="9.047429417489736"><ele>100.0</ele><time>2026-03-22T14:27:33Z</time></trkpt><trkpt lat="45.32833902191565" lon="9.047596519258724"><ele>100.0</ele><time>2026-03-22T14:27:34Z</time></trkpt><trkpt lat="45.328439059253775" lon="9.047763555844782"><ele>100.0</ele><time>2026-03-22T14:27:35Z</time></trkpt><trkpt lat="45.328530711076205" lon="9.047910092815002"><ele>100.0</ele><time>2026-03-22T14:27:36Z</time></trkpt><trkpt lat="45.328618637464494" lon="9.048055351806502"><ele>100.0</ele><time>2026-03-22T14:27:37Z</time></trkpt><trkpt lat="45.32870617026918" lon="9.048200530588115"><ele>100.0</ele><time>2026-03-22T14:27:38Z</time></trkpt><trkpt lat="45.32879489725909" lon="9.0483468529282"><ele>100.0</ele><time>2026-03-22T14:27:39Z</time></trkpt><trkpt lat="45.32887712725751" lon="9.048483781438533"><ele>100.0</ele><time>2026-03-22T14:27:40Z</time></trkpt><trkpt lat="45.32895354227545" lon="9.048610277804974"><ele>100.0</ele><time>2026-03-22T14:27:41Z</time></trkpt><trkpt lat="45.32903209697424" lon="9.048745861630662"><ele>99.75</ele><time>2026-03-22T14:27:42Z</time></trkpt><trkpt lat="45.32911077731153" lon="9.048875322127445"><ele>99.5</ele><time>2026-03-22T14:27:43Z</time></trkpt><trkpt lat="45.3291869945739" lon="9.049000480058455"><ele>99.25</ele><time>2026-03-22T14:27:44Z</time></trkpt><trkpt lat="45.32926531155595" lon="9.049128328126901"><ele>99.0</ele><time>2026-03-22T14:27:45Z</time></trkpt><trkpt lat="45.32933628909409" lon="9.049243566471237"><ele>99.5</ele><time>2026-03-22T14:27:46Z</time></trkpt><trkpt lat="45.3294079823488" lon="9.049361090565661"><ele>100.0</ele><time>2026-03-22T14:27:47Z</time></trkpt><trkpt lat="45.32947986259097" lon="9.049486514851802"><ele>100.5</ele><time>2026-03-22T14:27:48Z</time></trkpt><trkpt lat="45.32955534798389" lon="9.049613943478038"><ele>101.0</ele><time>2026-03-22T14:27:49Z</time></trkpt><trkpt lat="45.32963283373575" lon="9.049743866300478"><ele>101.0</ele><time>2026-03-22T14:27:50Z</time></trkpt><trkpt lat="45.32971243137549" lon="9.04987464431656"><ele>101.0</ele><time>2026-03-22T14:27:51Z</time></trkpt><trkpt lat="45.32979206176062" lon="9.050006672404331"><ele>101.0</ele><time>2026-03-22T14:27:52Z</time></trkpt><trkpt lat="45.3298752479493" lon="9.050138497579209"><ele>101.0</ele><time>2026-03-22T14:27:53Z</time></trkpt><trkpt lat="45.329957639825786" lon="9.050274776086857"><ele>101.25</ele><time>2026-03-22T14:27:54Z</time></trkpt><trkpt lat="45.330040371963314" lon="9.050414536868463"><ele>101.5</ele><time>2026-03-22T14:27:55Z</time></trkpt><trkpt lat="45.33012633080957" lon="9.050558718752995"><ele>101.75</ele><time>2026-03-22T14:27:56Z</time></trkpt><trkpt lat="45.330213769795854" lon="9.050704644108524"><ele>102.0</ele><time>2026-03-22T14:27:57Z</time></trkpt><trkpt lat="45.33029727568529" lon="9.050846851970421"><ele>102.0</ele><time>2026-03-22T14:27:58Z</time></trkpt><trkpt lat="45.3303833110289" lon="9.050991190083703"><ele>102.0</ele><time>2026-03-22T14:27:59Z</time></trkpt><trkpt lat="45.330467450321656" lon="9.051133113539501"><ele>102.0</ele><time>2026-03-22T14:28:00Z</time></trkpt><trkpt lat="45.33055048397454" lon="9.05126783252429"><ele>102.0</ele><time>2026-03-22T14:28:01Z</time></trkpt><trkpt lat="45.330631980792155" lon="9.051393700880814"><ele>102.0</ele><time>2026-03-22T14:28:02Z</time></trkpt><trkpt lat="45.330697889120465" lon="9.051515452703123"><ele>102.0</ele><time>2026-03-22T14:28:03Z</time></trkpt><trkpt lat="45.33075940782089" lon="9.051622970588811"><ele>102.0</ele><time>2026-03-22T14:28:04Z</time></trkpt><trkpt lat="45.330812738507035" lon="9.051730488970524"><ele>102.0</ele><time>2026-03-22T14:28:05Z</time></trkpt><trkpt lat="45.330855057652826" lon="9.051838114875773"><ele>102.0</ele><time>2026-03-22T14:28:06Z</time></trkpt><trkpt lat="45.3308905901729" lon="9.051954712945346"><ele>102.0</ele><time>2026-03-22T14:28:07Z</time></trkpt><trkpt lat="45.33093710300166" lon="9.052090157175492"><ele>102.0</ele><time>2026-03-22T14:28:08Z</time></trkpt><trkpt lat="45.33100515965824" lon="9.052234704039488"><ele>102.0</ele><time>2026-03-22T14:28:09Z</time></trkpt><trkpt lat="45.33108375338303" lon="9.052396670598164"><ele>102.0</ele><time>2026-03-22T14:28:10Z</time></trkpt><trkpt lat="45.33117006647841" lon="9.052568257385206"><ele>101.66666666666666</ele><time>2026-03-22T14:28:11Z</time></trkpt><trkpt lat="45.331257091158555" lon="9.052760490677302"><ele>101.33333333333333</ele><time>2026-03-22T14:28:12Z</time></trkpt><trkpt lat="45.33131162227228" lon="9.052980254971237"><ele>101.0</ele><time>2026-03-22T14:28:13Z</time></trkpt><trkpt lat="45.331380356335245" lon="9.053194710068993"><ele>100.66666666666666</ele><time>2026-03-22T14:28:14Z</time></trkpt><trkpt lat="45.33144683783535" lon="9.053400508111157"><ele>100.33333333333334</ele><time>2026-03-22T14:28:15Z</time></trkpt><trkpt lat="45.33151421659606" lon="9.053607066878083"><ele>100.0</ele><time>2026-03-22T14:28:16Z</time></trkpt><trkpt lat="45.33158149869895" lon="9.053812464090553"><ele>100.0</ele><time>2026-03-22T14:28:17Z</time></trkpt><trkpt lat="45.33164874010837" lon="9.054017737048925"><ele>100.0</ele><time>2026-03-22T14:28:18Z</time></trkpt><trkpt lat="45.331710839137074" lon="9.054223513440938"><ele>100.0</ele><time>2026-03-22T14:28:19Z</time></trkpt><trkpt lat="45.331757694872756" lon="9.054438629728907"><ele>100.33333333333334</ele><time>2026-03-22T14:28:20Z</time></trkpt><trkpt lat="45.33177202108231" lon="9.054658314249904"><ele>100.66666666666666</ele><time>2026-03-22T14:28:21Z</time></trkpt><trkpt lat="45.33177734961349" lon="9.054895652591782"><ele>101.0</ele><time>2026-03-22T14:28:22Z</time></trkpt><trkpt lat="45.331782049742706" lon="9.055138712377609"><ele>102.0</ele><time>2026-03-22T14:28:23Z</time></trkpt><trkpt lat="45.33178792811555" lon="9.055392298249748"><ele>103.0</ele><time>2026-03-22T14:28:24Z</time></trkpt><trkpt lat="45.3317936990387" lon="9.055641248720276"><ele>104.0</ele><time>2026-03-22T14:28:25Z</time></trkpt><trkpt lat="45.331799362737364" lon="9.055885573396894"><ele>104.0</ele><time>2026-03-22T14:28:26Z</time></trkpt><trkpt lat="45.33180515813814" lon="9.056137396159741"><ele>104.0</ele><time>2026-03-22T14:28:27Z</time></trkpt><trkpt lat="45.331809875632935" lon="9.056384537375767"><ele>104.0</ele><time>2026-03-22T14:28:28Z</time></trkpt><trkpt lat="45.331814904489164" lon="9.056631378021653"><ele>102.66666666666666</ele><time>2026-03-22T14:28:29Z</time></trkpt><trkpt lat="45.33182094288922" lon="9.056878170584456"><ele>101.33333333333334</ele><time>2026-03-22T14:28:30Z</time></trkpt><trkpt lat="45.33183490836779" lon="9.05712466964596"><ele>100.0</ele><time>2026-03-22T14:28:31Z</time></trkpt><trkpt lat="45.33188143479683" lon="9.05736484592994"><ele>99.33333333333334</ele><time>2026-03-22T14:28:32Z</time></trkpt><trkpt lat="45.33196506727969" lon="9.057580230143161"><ele>98.66666666666666</ele><time>2026-03-22T14:28:33Z</time></trkpt><trkpt lat="45.33204723903181" lon="9.057781724932614"><ele>98.0</ele><time>2026-03-22T14:28:34Z</time></trkpt><trkpt lat="45.33213058812402" lon="9.057973002206822"><ele>98.0</ele><time>2026-03-22T14:28:35Z</time></trkpt><trkpt lat="45.33221493321503" lon="9.058171742276317"><ele>98.0</ele><time>2026-03-22T14:28:36Z</time></trkpt><trkpt lat="45.33225727756186" lon="9.05839774504062"><ele>98.0</ele><time>2026-03-22T14:28:37Z</time></trkpt><trkpt lat="45.332293913502134" lon="9.058623417266785"><ele>98.0</ele><time>2026-03-22T14:28:38Z</time></trkpt><trkpt lat="45.33232642756825" lon="9.05885046650223"><ele>98.0</ele><time>2026-03-22T14:28:39Z</time></trkpt><trkpt lat="45.33235857034067" lon="9.059078220695568"><ele>98.0</ele><time>2026-03-22T14:28:40Z</time></trkpt><trkpt lat="45.33238950404343" lon="9.059305324285212"><ele>98.33333333333333</ele><time>2026-03-22T14:28:41Z</time></trkpt><trkpt lat="45.33242092534162" lon="9.059534687749435"><ele>98.66666666666666</ele><time>2026-03-22T14:28:42Z</time></trkpt><trkpt lat="45.33245174500354" lon="9.059757342424318"><ele>99.0</ele><time>2026-03-22T14:28:43Z</time></trkpt><trkpt lat="45.332497337169336" lon="9.059974199440392"><ele>99.33333333333334</ele><time>2026-03-22T14:28:44Z</time></trkpt><trkpt lat="45.332530685473664" lon="9.060193925123983"><ele>99.66666666666667</ele><time>2026-03-22T14:28:45Z</time></trkpt><trkpt lat="45.3325651078341" lon="9.06041327643023"><ele>100.0</ele><time>2026-03-22T14:28:46Z</time></trkpt><trkpt lat="45.332600137703224" lon="9.060630545763209"><ele>99.66666666666667</ele><time>2026-03-22T14:28:47Z</time></trkpt><trkpt lat="45.332639628597775" lon="9.060844604984345"><ele>99.33333333333334</ele><time>2026-03-22T14:28:48Z</time></trkpt><trkpt lat="45.33264863169766" lon="9.061068759786187"><ele>99.0</ele><time>2026-03-22T14:28:49Z</time></trkpt><trkpt lat="45.33268633170328" lon="9.061283882448974"><ele>99.0</ele><time>2026-03-22T14:28:50Z</time></trkpt><trkpt lat="45.33272565632039" lon="9.06150049338723"><ele>99.0</ele><time>2026-03-22T14:28:51Z</time></trkpt><trkpt lat="45.33276549962399" lon="9.061719299392601"><ele>99.0</ele><time>2026-03-22T14:28:52Z</time></trkpt><trkpt lat="45.33280619103376" lon="9.061942423123977"><ele>99.33333333333334</ele><time>2026-03-22T14:28:53Z</time></trkpt><trkpt lat="45.33284772111732" lon="9.062170145673962"><ele>99.66666666666667</ele><time>2026-03-22T14:28:54Z</time></trkpt><trkpt lat="45.33288877066008" lon="9.06239523308165"><ele>100.0</ele><time>2026-03-22T14:28:55Z</time></trkpt><trkpt lat="45.33292832688746" lon="9.062618348468607"><ele>100.0</ele><time>2026-03-22T14:28:56Z</time></trkpt><trkpt lat="45.33296054543754" lon="9.062842074700757"><ele>100.0</ele><time>2026-03-22T14:28:57Z</time></trkpt><trkpt lat="45.332977354781555" lon="9.0630650635783"><ele>100.0</ele><time>2026-03-22T14:28:58Z</time></trkpt><trkpt lat="45.33298259291275" lon="9.0632907241609"><ele>100.0</ele><time>2026-03-22T14:28:59Z</time></trkpt><trkpt lat="45.33298781833362" lon="9.063517302414814"><ele>100.0</ele><time>2026-03-22T14:29:00Z</time></trkpt><trkpt lat="45.33299147814124" lon="9.063744940878399"><ele>100.0</ele><time>2026-03-22T14:29:01Z</time></trkpt><trkpt lat="45.33299456993496" lon="9.06397424272027"><ele>100.33333333333334</ele><time>2026-03-22T14:29:02Z</time></trkpt><trkpt lat="45.33299765918736" lon="9.064203356121125"><ele>100.66666666666666</ele><time>2026-03-22T14:29:03Z</time></trkpt><trkpt lat="45.33300073200463" lon="9.064431247117183"><ele>101.0</ele><time>2026-03-22T14:29:04Z</time></trkpt><trkpt lat="45.33303337359458" lon="9.064658977610241"><ele>101.0</ele><time>2026-03-22T14:29:05Z</time></trkpt><trkpt lat="45.333040811129344" lon="9.06488521382566"><ele>101.0</ele><time>2026-03-22T14:29:06Z</time></trkpt><trkpt lat="45.333045446442384" lon="9.065114683030282"><ele>101.0</ele><time>2026-03-22T14:29:07Z</time></trkpt><trkpt lat="45.33305000753381" lon="9.065344771021518"><ele>101.0</ele><time>2026-03-22T14:29:08Z</time></trkpt><trkpt lat="45.333015767687584" lon="9.06557582041007"><ele>101.0</ele><time>2026-03-22T14:29:09Z</time></trkpt><trkpt lat="45.333018597913615" lon="9.065808440871153"><ele>101.0</ele><time>2026-03-22T14:29:10Z</time></trkpt><trkpt lat="45.33302138494466" lon="9.066037511196912"><ele>100.66666666666666</ele><time>2026-03-22T14:29:11Z</time></trkpt><trkpt lat="45.3330241648483" lon="9.066265995638489"><ele>100.33333333333334</ele><time>2026-03-22T14:29:12Z</time></trkpt><trkpt lat="45.33306572409132" lon="9.066491089088185"><ele>100.0</ele><time>2026-03-22T14:29:13Z</time></trkpt><trkpt lat="45.33306665647856" lon="9.066716736703095"><ele>99.33333333333334</ele><time>2026-03-22T14:29:14Z</time></trkpt><trkpt lat="45.33306745257463" lon="9.066942914232529"><ele>98.66666666666666</ele><time>2026-03-22T14:29:15Z</time></trkpt><trkpt lat="45.333073092842525" lon="9.067169433629735"><ele>98.0</ele><time>2026-03-22T14:29:16Z</time></trkpt><trkpt lat="45.333078312266466" lon="9.067395398853332"><ele>97.66666666666666</ele><time>2026-03-22T14:29:17Z</time></trkpt><trkpt lat="45.333081054574386" lon="9.067620108909606"><ele>97.33333333333334</ele><time>2026-03-22T14:29:18Z</time></trkpt><trkpt lat="45.3330425937713" lon="9.067846246488873"><ele>97.0</ele><time>2026-03-22T14:29:19Z</time></trkpt><trkpt lat="45.33304614402078" lon="9.06807056485215"><ele>97.0</ele><time>2026-03-22T14:29:20Z</time></trkpt><trkpt lat="45.333052313751814" lon="9.068295851884821"><ele>97.0</ele><time>2026-03-22T14:29:21Z</time></trkpt><trkpt lat="45.33306211061357" lon="9.068518330768205"><ele>97.0</ele><time>2026-03-22T14:29:22Z</time></trkpt><trkpt lat="45.3330773027124" lon="9.068741585553708"><ele>97.0</ele><time>2026-03-22T14:29:23Z</time></trkpt><trkpt lat="45.33309712660901" lon="9.068962141813737"><ele>97.0</ele><time>2026-03-22T14:29:24Z</time></trkpt><trkpt lat="45.333118304976395" lon="9.06918273992795"><ele>97.0</ele><time>2026-03-22T14:29:25Z</time></trkpt><trkpt lat="45.33313971740644" lon="9.069405771927872"><ele>97.33333333333334</ele><time>2026-03-22T14:29:26Z</time></trkpt><trkpt lat="45.333161514552216" lon="9.069628253125389"><ele>97.66666666666666</ele><time>2026-03-22T14:29:27Z</time></trkpt><trkpt lat="45.33318296775441" lon="9.069848614541007"><ele>98.0</ele><time>2026-03-22T14:29:28Z</time></trkpt><trkpt lat="45.3332040920127" lon="9.070065597112366"><ele>98.66666666666666</ele><time>2026-03-22T14:29:29Z</time></trkpt><trkpt lat="45.3332254801187" lon="9.070285289754905"><ele>99.33333333333334</ele><time>2026-03-22T14:29:30Z</time></trkpt><trkpt lat="45.333246868609116" lon="9.07050498642106"><ele>100.0</ele><time>2026-03-22T14:29:31Z</time></trkpt><trkpt lat="45.333268122381575" lon="9.070723298294869"><ele>99.33333333333334</ele><time>2026-03-22T14:29:32Z</time></trkpt><trkpt lat="45.333290096109536" lon="9.070947807030088"><ele>98.66666666666666</ele><time>2026-03-22T14:29:33Z</time></trkpt><trkpt lat="45.33331158671371" lon="9.071167495115237"><ele>98.0</ele><time>2026-03-22T14:29:34Z</time></trkpt><trkpt lat="45.333333236186064" lon="9.071388806930853"><ele>98.33333333333333</ele><time>2026-03-22T14:29:35Z</time></trkpt><trkpt lat="45.3333552364989" lon="9.071611345682356"><ele>98.66666666666666</ele><time>2026-03-22T14:29:36Z</time></trkpt><trkpt lat="45.33337768129786" lon="9.071833883347352"><ele>99.0</ele><time>2026-03-22T14:29:37Z</time></trkpt><trkpt lat="45.333400003747336" lon="9.072058529433244"><ele>99.0</ele><time>2026-03-22T14:29:38Z</time></trkpt><trkpt lat="45.33342248155846" lon="9.072282509084992"><ele>99.0</ele><time>2026-03-22T14:29:39Z</time></trkpt><trkpt lat="45.33344368333421" lon="9.072502462547064"><ele>99.0</ele><time>2026-03-22T14:29:40Z</time></trkpt><trkpt lat="45.33346443868042" lon="9.072723361588215"><ele>99.0</ele><time>2026-03-22T14:29:41Z</time></trkpt><trkpt lat="45.33348598484271" lon="9.072943430708763"><ele>99.0</ele><time>2026-03-22T14:29:42Z</time></trkpt><trkpt lat="45.33350687468274" lon="9.073164166383682"><ele>99.0</ele><time>2026-03-22T14:29:43Z</time></trkpt><trkpt lat="45.33352780962008" lon="9.073385751447203"><ele>100.0</ele><time>2026-03-22T14:29:44Z</time></trkpt><trkpt lat="45.33354844389916" lon="9.07360415426235"><ele>101.0</ele><time>2026-03-22T14:29:45Z</time></trkpt><trkpt lat="45.33356907112303" lon="9.07382248234508"><ele>102.0</ele><time>2026-03-22T14:29:46Z</time></trkpt><trkpt lat="45.33358919600615" lon="9.074037927145794"><ele>102.0</ele><time>2026-03-22T14:29:47Z</time></trkpt><trkpt lat="45.33360932000356" lon="9.074253650257639"><ele>102.0</ele><time>2026-03-22T14:29:48Z</time></trkpt><trkpt lat="45.333629003662914" lon="9.074467710468944"><ele>102.0</ele><time>2026-03-22T14:29:49Z</time></trkpt><trkpt lat="45.33364793853926" lon="9.074682233988822"><ele>102.0</ele><time>2026-03-22T14:29:50Z</time></trkpt><trkpt lat="45.333665271362655" lon="9.074899058241638"><ele>102.0</ele><time>2026-03-22T14:29:51Z</time></trkpt><trkpt lat="45.33368515195128" lon="9.075124082981603"><ele>102.0</ele><time>2026-03-22T14:29:52Z</time></trkpt><trkpt lat="45.33370467108712" lon="9.075349859106625"><ele>101.33333333333334</ele><time>2026-03-22T14:29:53Z</time></trkpt><trkpt lat="45.33372447957976" lon="9.075576223696984"><ele>100.66666666666667</ele><time>2026-03-22T14:29:54Z</time></trkpt><trkpt lat="45.333746366956724" lon="9.075804186500463"><ele>100.0</ele><time>2026-03-22T14:29:55Z</time></trkpt><trkpt lat="45.333771919431676" lon="9.076029373463847"><ele>100.0</ele><time>2026-03-22T14:29:56Z</time></trkpt><trkpt lat="45.333805338700756" lon="9.07625279971544"><ele>100.0</ele><time>2026-03-22T14:29:57Z</time></trkpt><trkpt lat="45.33385303260399" lon="9.076473278274108"><ele>100.0</ele><time>2026-03-22T14:29:58Z</time></trkpt><trkpt lat="45.33392395827124" lon="9.076683023013016"><ele>99.33333333333334</ele><time>2026-03-22T14:29:59Z</time></trkpt><trkpt lat="45.33398503558349" lon="9.076902761930144"><ele>98.66666666666666</ele><time>2026-03-22T14:30:00Z</time></trkpt><trkpt lat="45.33405896794181" lon="9.077119336616711"><ele>98.0</ele><time>2026-03-22T14:30:01Z</time></trkpt><trkpt lat="45.334137559069205" lon="9.077332036015218"><ele>98.33333333333333</ele><time>2026-03-22T14:30:02Z</time></trkpt><trkpt lat="45.33421846694751" lon="9.077545459718861"><ele>98.66666666666666</ele><time>2026-03-22T14:30:03Z</time></trkpt><trkpt lat="45.33429977833101" lon="9.077763277502344"><ele>99.0</ele><time>2026-03-22T14:30:04Z</time></trkpt><trkpt lat="45.33437913443199" lon="9.077980286226841"><ele>99.0</ele><time>2026-03-22T14:30:05Z</time></trkpt><trkpt lat="45.334459255083175" lon="9.078191055077594"><ele>99.0</ele><time>2026-03-22T14:30:06Z</time></trkpt><trkpt lat="45.3345386820582" lon="9.078402490837446"><ele>99.0</ele><time>2026-03-22T14:30:07Z</time></trkpt><trkpt lat="45.334617840452076" lon="9.078611327174908"><ele>99.0</ele><time>2026-03-22T14:30:08Z</time></trkpt><trkpt lat="45.334694693561445" lon="9.078819429667101"><ele>99.0</ele><time>2026-03-22T14:30:09Z</time></trkpt><trkpt lat="45.33477220550039" lon="9.07902660822313"><ele>99.0</ele><time>2026-03-22T14:30:10Z</time></trkpt><trkpt lat="45.33484984126884" lon="9.079232242668015"><ele>99.0</ele><time>2026-03-22T14:30:11Z</time></trkpt><trkpt lat="45.334928265407285" lon="9.079434933157879"><ele>99.0</ele><time>2026-03-22T14:30:12Z</time></trkpt><trkpt lat="45.33500172920081" lon="9.079637483966904"><ele>99.0</ele><time>2026-03-22T14:30:13Z</time></trkpt><trkpt lat="45.335074804204346" lon="9.079840830872138"><ele>98.66666666666666</ele><time>2026-03-22T14:30:14Z</time></trkpt><trkpt lat="45.33514725165936" lon="9.080040521294562"><ele>98.33333333333333</ele><time>2026-03-22T14:30:15Z</time></trkpt><trkpt lat="45.33522009274831" lon="9.080236540038657"><ele>98.0</ele><time>2026-03-22T14:30:16Z</time></trkpt><trkpt lat="45.33529878938635" lon="9.080431411407451"><ele>98.0</ele><time>2026-03-22T14:30:17Z</time></trkpt><trkpt lat="45.33537492644507" lon="9.080629208702033"><ele>98.0</ele><time>2026-03-22T14:30:18Z</time></trkpt><trkpt lat="45.335452822399894" lon="9.080828168519497"><ele>98.0</ele><time>2026-03-22T14:30:19Z</time></trkpt><trkpt lat="45.335527345708414" lon="9.081027682304066"><ele>97.33333333333333</ele><time>2026-03-22T14:30:20Z</time></trkpt><trkpt lat="45.33560567599194" lon="9.081224990626547"><ele>96.66666666666666</ele><time>2026-03-22T14:30:21Z</time></trkpt><trkpt lat="45.3356774835364" lon="9.081426347636896"><ele>96.0</ele><time>2026-03-22T14:30:22Z</time></trkpt><trkpt lat="45.335755595207424" lon="9.081622913580082"><ele>96.0</ele><time>2026-03-22T14:30:23Z</time></trkpt><trkpt lat="45.33583582198131" lon="9.081817197446508"><ele>96.0</ele><time>2026-03-22T14:30:24Z</time></trkpt><trkpt lat="45.33590921013193" lon="9.082009819583329"><ele>96.0</ele><time>2026-03-22T14:30:25Z</time></trkpt><trkpt lat="45.3359810667849" lon="9.082204277616043"><ele>96.0</ele><time>2026-03-22T14:30:26Z</time></trkpt><trkpt lat="45.33605329141926" lon="9.08239755164091"><ele>96.0</ele><time>2026-03-22T14:30:27Z</time></trkpt><trkpt lat="45.33612615753567" lon="9.082590285952824"><ele>96.0</ele><time>2026-03-22T14:30:28Z</time></trkpt><trkpt lat="45.336200564990556" lon="9.082781584765009"><ele>96.0</ele><time>2026-03-22T14:30:29Z</time></trkpt><trkpt lat="45.336273012504414" lon="9.082973201406567"><ele>96.0</ele><time>2026-03-22T14:30:30Z</time></trkpt><trkpt lat="45.33634201875622" lon="9.0831536173223"><ele>96.0</ele><time>2026-03-22T14:30:31Z</time></trkpt><trkpt lat="45.33640118529946" lon="9.083315866862563"><ele>96.0</ele><time>2026-03-22T14:30:32Z</time></trkpt><trkpt lat="45.33645661867283" lon="9.083463828250238"><ele>96.0</ele><time>2026-03-22T14:30:33Z</time></trkpt><trkpt lat="45.33650193360267" lon="9.083595866731432"><ele>96.0</ele><time>2026-03-22T14:30:34Z</time></trkpt><trkpt lat="45.336537964811356" lon="9.083730105369797"><ele>96.0</ele><time>2026-03-22T14:30:35Z</time></trkpt><trkpt lat="45.336548544399065" lon="9.083877837522897"><ele>96.0</ele><time>2026-03-22T14:30:36Z</time></trkpt><trkpt lat="45.33655988036189" lon="9.084028591208659"><ele>96.0</ele><time>2026-03-22T14:30:37Z</time></trkpt><trkpt lat="45.336576708427025" lon="9.084185976817514"><ele>96.0</ele><time>2026-03-22T14:30:38Z</time></trkpt><trkpt lat="45.33666788122696" lon="9.08429661559489"><ele>96.0</ele><time>2026-03-22T14:30:39Z</time></trkpt><trkpt lat="45.33676213581889" lon="9.084415015033672"><ele>96.0</ele><time>2026-03-22T14:30:40Z</time></trkpt><trkpt lat="45.33686241282878" lon="9.084566037134877"><ele>96.0</ele><time>2026-03-22T14:30:41Z</time></trkpt><trkpt lat="45.33695286986674" lon="9.084769315562166"><ele>96.33333333333334</ele><time>2026-03-22T14:30:42Z</time></trkpt><trkpt lat="45.33703751817013" lon="9.084998580351675"><ele>96.66666666666667</ele><time>2026-03-22T14:30:43Z</time></trkpt><trkpt lat="45.337117505041064" lon="9.085206666157953"><ele>97.0</ele><time>2026-03-22T14:30:44Z</time></trkpt><trkpt lat="45.33718742893754" lon="9.085439517975157"><ele>97.66666666666667</ele><time>2026-03-22T14:30:45Z</time></trkpt><trkpt lat="45.33726201146699" lon="9.085636397953651"><ele>98.33333333333334</ele><time>2026-03-22T14:30:46Z</time></trkpt><trkpt lat="45.33733605221057" lon="9.08583286728645"><ele>99.0</ele><time>2026-03-22T14:30:47Z</time></trkpt><trkpt lat="45.33740870386518" lon="9.086025910715778"><ele>99.0</ele><time>2026-03-22T14:30:48Z</time></trkpt><trkpt lat="45.33748073201735" lon="9.086216990598576"><ele>99.0</ele><time>2026-03-22T14:30:49Z</time></trkpt><trkpt lat="45.337552079030914" lon="9.086406263545129"><ele>99.0</ele><time>2026-03-22T14:30:50Z</time></trkpt><trkpt lat="45.33762228581009" lon="9.086592511525888"><ele>98.75</ele><time>2026-03-22T14:30:51Z</time></trkpt><trkpt lat="45.33769211721811" lon="9.086777763764845"><ele>98.5</ele><time>2026-03-22T14:30:52Z</time></trkpt><trkpt lat="45.33776275476022" lon="9.086964638715502"><ele>98.25</ele><time>2026-03-22T14:30:53Z</time></trkpt><trkpt lat="45.33783320535516" lon="9.08715092910941"><ele>98.0</ele><time>2026-03-22T14:30:54Z</time></trkpt><trkpt lat="45.33790810921262" lon="9.087348995201964"><ele>97.66666666666666</ele><time>2026-03-22T14:30:55Z</time></trkpt><trkpt lat="45.33797993247802" lon="9.08753891522615"><ele>97.33333333333334</ele><time>2026-03-22T14:30:56Z</time></trkpt><trkpt lat="45.33805351256363" lon="9.087733983561211"><ele>97.0</ele><time>2026-03-22T14:30:57Z</time></trkpt><trkpt lat="45.33812701372743" lon="9.08792862204962"><ele>98.0</ele><time>2026-03-22T14:30:58Z</time></trkpt><trkpt lat="45.338213896728156" lon="9.0881114720049"><ele>99.0</ele><time>2026-03-22T14:30:59Z</time></trkpt><trkpt lat="45.33828243515597" lon="9.08830402687691"><ele>100.0</ele><time>2026-03-22T14:31:00Z</time></trkpt><trkpt lat="45.33835279005408" lon="9.08849454532519"><ele>100.0</ele><time>2026-03-22T14:31:01Z</time></trkpt><trkpt lat="45.3384249628706" lon="9.088684054330166"><ele>100.0</ele><time>2026-03-22T14:31:02Z</time></trkpt><trkpt lat="45.33849429147542" lon="9.08887385462205"><ele>100.0</ele><time>2026-03-22T14:31:03Z</time></trkpt><trkpt lat="45.338562984612715" lon="9.089058298168577"><ele>100.0</ele><time>2026-03-22T14:31:04Z</time></trkpt><trkpt lat="45.3386316266432" lon="9.089241097828747"><ele>100.25</ele><time>2026-03-22T14:31:05Z</time></trkpt><trkpt lat="45.33870208479913" lon="9.089428193567784"><ele>100.5</ele><time>2026-03-22T14:31:06Z</time></trkpt><trkpt lat="45.33877206860002" lon="9.089616393374415"><ele>100.75</ele><time>2026-03-22T14:31:07Z</time></trkpt><trkpt lat="45.33884119961372" lon="9.089806441458332"><ele>101.0</ele><time>2026-03-22T14:31:08Z</time></trkpt><trkpt lat="45.33891546440387" lon="9.089998482829339"><ele>101.0</ele><time>2026-03-22T14:31:09Z</time></trkpt><trkpt lat="45.33899284255081" lon="9.09018950555743"><ele>101.0</ele><time>2026-03-22T14:31:10Z</time></trkpt><trkpt lat="45.33906611920328" lon="9.090378495408599"><ele>101.0</ele><time>2026-03-22T14:31:11Z</time></trkpt><trkpt lat="45.33913240660767" lon="9.090566859575913"><ele>101.0</ele><time>2026-03-22T14:31:12Z</time></trkpt><trkpt lat="45.339186946612635" lon="9.090751440582258"><ele>101.0</ele><time>2026-03-22T14:31:13Z</time></trkpt><trkpt lat="45.33923479355181" lon="9.090930252475637"><ele>101.0</ele><time>2026-03-22T14:31:14Z</time></trkpt><trkpt lat="45.33928468714137" lon="9.091114438912376"><ele>101.0</ele><time>2026-03-22T14:31:15Z</time></trkpt><trkpt lat="45.33932474919549" lon="9.091292083034295"><ele>100.66666666666666</ele><time>2026-03-22T14:31:16Z</time></trkpt><trkpt lat="45.339353740339234" lon="9.091451721809461"><ele>100.33333333333333</ele><time>2026-03-22T14:31:17Z</time></trkpt><trkpt lat="45.33937187678631" lon="9.091595558071951"><ele>100.0</ele><time>2026-03-22T14:31:18Z</time></trkpt><trkpt lat="45.33937864972107" lon="9.091721684210553"><ele>99.66666666666666</ele><time>2026-03-22T14:31:19Z</time></trkpt><trkpt lat="45.3393708815887" lon="9.091817291592085"><ele>99.33333333333333</ele><time>2026-03-22T14:31:20Z</time></trkpt><trkpt lat="45.33934731174791" lon="9.091912035784324"><ele>99.0</ele><time>2026-03-22T14:31:21Z</time></trkpt><trkpt lat="45.3393134413171" lon="9.092018245171419"><ele>99.0</ele><time>2026-03-22T14:31:22Z</time></trkpt><trkpt lat="45.33929228023585" lon="9.092144421150168"><ele>99.0</ele><time>2026-03-22T14:31:23Z</time></trkpt><trkpt lat="45.339301950288984" lon="9.0922959432835"><ele>99.0</ele><time>2026-03-22T14:31:24Z</time></trkpt><trkpt lat="45.33934727746166" lon="9.092477542642893"><ele>99.0</ele><time>2026-03-22T14:31:25Z</time></trkpt><trkpt lat="45.33939186681413" lon="9.092674374945926"><ele>99.0</ele><time>2026-03-22T14:31:26Z</time></trkpt><trkpt lat="45.33938762082799" lon="9.092887439935975"><ele>99.0</ele><time>2026-03-22T14:31:27Z</time></trkpt><trkpt lat="45.33935425641544" lon="9.093111278268582"><ele>99.0</ele><time>2026-03-22T14:31:28Z</time></trkpt><trkpt lat="45.33930802869462" lon="9.093379413973008"><ele>99.0</ele><time>2026-03-22T14:31:29Z</time></trkpt><trkpt lat="45.3392466712086" lon="9.093678238660889"><ele>99.0</ele><time>2026-03-22T14:31:30Z</time></trkpt><trkpt lat="45.339181746532795" lon="9.093976379961516"><ele>99.0</ele><time>2026-03-22T14:31:31Z</time></trkpt><trkpt lat="45.339113220411576" lon="9.09428846264207"><ele>99.33333333333334</ele><time>2026-03-22T14:31:32Z</time></trkpt><trkpt lat="45.33904633604288" lon="9.094587083094535"><ele>99.66666666666667</ele><time>2026-03-22T14:31:33Z</time></trkpt><trkpt lat="45.33898670707968" lon="9.0948525706532"><ele>100.0</ele><time>2026-03-22T14:31:34Z</time></trkpt><trkpt lat="45.338931104420965" lon="9.09510013141093"><ele>99.33333333333334</ele><time>2026-03-22T14:31:35Z</time></trkpt><trkpt lat="45.33887717240445" lon="9.095340398449919"><ele>98.66666666666666</ele><time>2026-03-22T14:31:36Z</time></trkpt><trkpt lat="45.33882610980981" lon="9.09556834756636"><ele>98.0</ele><time>2026-03-22T14:31:37Z</time></trkpt><trkpt lat="45.338777061491115" lon="9.09578730485254"><ele>98.0</ele><time>2026-03-22T14:31:38Z</time></trkpt><trkpt lat="45.338731277794764" lon="9.095994526755383"><ele>98.0</ele><time>2026-03-22T14:31:39Z</time></trkpt><trkpt lat="45.33868817309766" lon="9.09619039294911"><ele>98.0</ele><time>2026-03-22T14:31:40Z</time></trkpt><trkpt lat="45.3386467012599" lon="9.096377164455587"><ele>98.0</ele><time>2026-03-22T14:31:41Z</time></trkpt><trkpt lat="45.3386015821015" lon="9.096556599767105"><ele>98.5</ele><time>2026-03-22T14:31:42Z</time></trkpt><trkpt lat="45.338554201634935" lon="9.096732576003676"><ele>99.0</ele><time>2026-03-22T14:31:43Z</time></trkpt><trkpt lat="45.33850875259679" lon="9.096897346633675"><ele>99.5</ele><time>2026-03-22T14:31:44Z</time></trkpt><trkpt lat="45.33846321652927" lon="9.097057551493851"><ele>100.0</ele><time>2026-03-22T14:31:45Z</time></trkpt><trkpt lat="45.33841700582763" lon="9.097220166760922"><ele>100.0</ele><time>2026-03-22T14:31:46Z</time></trkpt><trkpt lat="45.33837024351038" lon="9.097385210059787"><ele>100.0</ele><time>2026-03-22T14:31:47Z</time></trkpt><trkpt lat="45.33832213660326" lon="9.097552426645557"><ele>100.0</ele><time>2026-03-22T14:31:48Z</time></trkpt><trkpt lat="45.33827154893436" lon="9.097727260358491"><ele>100.0</ele><time>2026-03-22T14:31:49Z</time></trkpt><trkpt lat="45.33821760381817" lon="9.097912800936035"><ele>99.66666666666667</ele><time>2026-03-22T14:31:50Z</time></trkpt><trkpt lat="45.33816079336945" lon="9.098107512573842"><ele>99.33333333333334</ele><time>2026-03-22T14:31:51Z</time></trkpt><trkpt lat="45.33810075003186" lon="9.0983053565572"><ele>99.0</ele><time>2026-03-22T14:31:52Z</time></trkpt><trkpt lat="45.33803462380974" lon="9.098499080768207"><ele>99.0</ele><time>2026-03-22T14:31:53Z</time></trkpt><trkpt lat="45.337962353120965" lon="9.098683819288025"><ele>99.0</ele><time>2026-03-22T14:31:54Z</time></trkpt><trkpt lat="45.33788467148941" lon="9.098870542624349"><ele>99.0</ele><time>2026-03-22T14:31:55Z</time></trkpt><trkpt lat="45.337810022561" lon="9.099047239375333"><ele>99.0</ele><time>2026-03-22T14:31:56Z</time></trkpt><trkpt lat="45.337734564108736" lon="9.099225018537263"><ele>98.75</ele><time>2026-03-22T14:31:57Z</time></trkpt><trkpt lat="45.337658910399725" lon="9.09940791480075"><ele>98.5</ele><time>2026-03-22T14:31:58Z</time></trkpt><trkpt lat="45.33758635935535" lon="9.099595480069452"><ele>98.25</ele><time>2026-03-22T14:31:59Z</time></trkpt><trkpt lat="45.33751950159466" lon="9.099782315762793"><ele>98.0</ele><time>2026-03-22T14:32:00Z</time></trkpt><trkpt lat="45.3374583432943" lon="9.099968670074956"><ele>98.0</ele><time>2026-03-22T14:32:01Z</time></trkpt><trkpt lat="45.33739928026223" lon="9.10015169876218"><ele>98.0</ele><time>2026-03-22T14:32:02Z</time></trkpt><trkpt lat="45.3373420305734" lon="9.100331601539093"><ele>98.0</ele><time>2026-03-22T14:32:03Z</time></trkpt><trkpt lat="45.3372901068197" lon="9.100502102237405"><ele>98.0</ele><time>2026-03-22T14:32:04Z</time></trkpt><trkpt lat="45.337242092804566" lon="9.100661822393912"><ele>98.2</ele><time>2026-03-22T14:32:05Z</time></trkpt><trkpt lat="45.33721211385695" lon="9.100824273202864"><ele>98.4</ele><time>2026-03-22T14:32:06Z</time></trkpt><trkpt lat="45.33716121490825" lon="9.100960203119692"><ele>98.60000000000001</ele><time>2026-03-22T14:32:07Z</time></trkpt><trkpt lat="45.33711350506569" lon="9.10108430140136"><ele>98.80000000000001</ele><time>2026-03-22T14:32:08Z</time></trkpt><trkpt lat="45.337054012796024" lon="9.101205764282895"><ele>99.0</ele><time>2026-03-22T14:32:09Z</time></trkpt><trkpt lat="45.3369447870171" lon="9.101314570646318"><ele>99.0</ele><time>2026-03-22T14:32:10Z</time></trkpt><trkpt lat="45.33697757184895" lon="9.101538215543561"><ele>99.0</ele><time>2026-03-22T14:32:11Z</time></trkpt><trkpt lat="45.33693040690366" lon="9.101756109444503"><ele>99.0</ele><time>2026-03-22T14:32:12Z</time></trkpt><trkpt lat="45.33686398689404" lon="9.101997006393844"><ele>99.0</ele><time>2026-03-22T14:32:13Z</time></trkpt><trkpt lat="45.336795926494766" lon="9.102243852827318"><ele>99.0</ele><time>2026-03-22T14:32:14Z</time></trkpt><trkpt lat="45.336723326809135" lon="9.102513934638392"><ele>99.0</ele><time>2026-03-22T14:32:15Z</time></trkpt><trkpt lat="45.33665546111162" lon="9.102810326149706"><ele>99.33333333333334</ele><time>2026-03-22T14:32:16Z</time></trkpt><trkpt lat="45.33658337639087" lon="9.10306865254589"><ele>99.66666666666667</ele><time>2026-03-22T14:32:17Z</time></trkpt><trkpt lat="45.33651924795201" lon="9.103328859892258"><ele>100.0</ele><time>2026-03-22T14:32:18Z</time></trkpt><trkpt lat="45.336456093944314" lon="9.10356464095843"><ele>100.0</ele><time>2026-03-22T14:32:19Z</time></trkpt><trkpt lat="45.33639226509967" lon="9.103793202711538"><ele>100.0</ele><time>2026-03-22T14:32:20Z</time></trkpt><trkpt lat="45.33633144791912" lon="9.104009154661208"><ele>100.0</ele><time>2026-03-22T14:32:21Z</time></trkpt><trkpt lat="45.33627290614804" lon="9.10421340313151"><ele>100.0</ele><time>2026-03-22T14:32:22Z</time></trkpt><trkpt lat="45.33621696301347" lon="9.104408585659606"><ele>100.0</ele><time>2026-03-22T14:32:23Z</time></trkpt><trkpt lat="45.336162184485055" lon="9.104601791177553"><ele>100.0</ele><time>2026-03-22T14:32:24Z</time></trkpt><trkpt lat="45.336107369447966" lon="9.104795085088597"><ele>100.0</ele><time>2026-03-22T14:32:25Z</time></trkpt><trkpt lat="45.3360497529682" lon="9.10499782742327"><ele>99.75</ele><time>2026-03-22T14:32:26Z</time></trkpt><trkpt lat="45.33599768227112" lon="9.105180351239376"><ele>99.5</ele><time>2026-03-22T14:32:27Z</time></trkpt><trkpt lat="45.335947961691296" lon="9.105355065207299"><ele>99.25</ele><time>2026-03-22T14:32:28Z</time></trkpt><trkpt lat="45.33590337599853" lon="9.105513634182639"><ele>99.0</ele><time>2026-03-22T14:32:29Z</time></trkpt><trkpt lat="45.33586156106631" lon="9.105664915262663"><ele>99.16666666666667</ele><time>2026-03-22T14:32:30Z</time></trkpt><trkpt lat="45.33582462433823" lon="9.105803972633549"><ele>99.33333333333334</ele><time>2026-03-22T14:32:31Z</time></trkpt><trkpt lat="45.33580455696806" lon="9.105939997939165"><ele>99.5</ele><time>2026-03-22T14:32:32Z</time></trkpt><trkpt lat="45.335749971911305" lon="9.106044290707462"><ele>99.66666666666667</ele><time>2026-03-22T14:32:33Z</time></trkpt><trkpt lat="45.33570176885969" lon="9.106127801531839"><ele>99.83333333333334</ele><time>2026-03-22T14:32:34Z</time></trkpt><trkpt lat="45.33566044696287" lon="9.106196114090599"><ele>100.0</ele><time>2026-03-22T14:32:35Z</time></trkpt><trkpt lat="45.335617138083016" lon="9.106271844861814"><ele>100.0</ele><time>2026-03-22T14:32:36Z</time></trkpt><trkpt lat="45.33556983816856" lon="9.106367155778626"><ele>100.0</ele><time>2026-03-22T14:32:37Z</time></trkpt><trkpt lat="45.33552595814358" lon="9.10647862496819"><ele>100.0</ele><time>2026-03-22T14:32:38Z</time></trkpt><trkpt lat="45.33548847408068" lon="9.106601611637698"><ele>100.0</ele><time>2026-03-22T14:32:39Z</time></trkpt><trkpt lat="45.33546212232865" lon="9.106739980742033"><ele>100.0</ele><time>2026-03-22T14:32:40Z</time></trkpt><trkpt lat="45.335418771648776" lon="9.106905356936414"><ele>100.33333333333334</ele><time>2026-03-22T14:32:41Z</time></trkpt><trkpt lat="45.33538973283431" lon="9.107104724374834"><ele>100.66666666666666</ele><time>2026-03-22T14:32:42Z</time></trkpt><trkpt lat="45.33535427890686" lon="9.10732497046415"><ele>101.0</ele><time>2026-03-22T14:32:43Z</time></trkpt><trkpt lat="45.335311662369826" lon="9.107575520674285"><ele>100.33333333333333</ele><time>2026-03-22T14:32:44Z</time></trkpt><trkpt lat="45.335223710856354" lon="9.107800585363472"><ele>99.66666666666666</ele><time>2026-03-22T14:32:45Z</time></trkpt><trkpt lat="45.335155063235874" lon="9.108031244738896"><ele>99.0</ele><time>2026-03-22T14:32:46Z</time></trkpt><trkpt lat="45.335087524417204" lon="9.10824020519955"><ele>99.33333333333334</ele><time>2026-03-22T14:32:47Z</time></trkpt><trkpt lat="45.335022383196275" lon="9.108441773285847"><ele>99.66666666666667</ele><time>2026-03-22T14:32:48Z</time></trkpt><trkpt lat="45.334956302881125" lon="9.108653249086057"><ele>100.0</ele><time>2026-03-22T14:32:49Z</time></trkpt><trkpt lat="45.33489529958387" lon="9.108848477239482"><ele>100.0</ele><time>2026-03-22T14:32:50Z</time></trkpt><trkpt lat="45.33483424457593" lon="9.109043870679544"><ele>100.0</ele><time>2026-03-22T14:32:51Z</time></trkpt><trkpt lat="45.33477156471352" lon="9.109244464171375"><ele>100.0</ele><time>2026-03-22T14:32:52Z</time></trkpt><trkpt lat="45.33470873019591" lon="9.109445846833887"><ele>99.0</ele><time>2026-03-22T14:32:53Z</time></trkpt><trkpt lat="45.33464652229739" lon="9.109645456916349"><ele>98.0</ele><time>2026-03-22T14:32:54Z</time></trkpt><trkpt lat="45.334584477706564" lon="9.109844542928693"><ele>97.0</ele><time>2026-03-22T14:32:55Z</time></trkpt><trkpt lat="45.33452192502012" lon="9.110045259298536"><ele>96.66666666666667</ele><time>2026-03-22T14:32:56Z</time></trkpt><trkpt lat="45.33445895673887" lon="9.110247309193424"><ele>96.33333333333334</ele><time>2026-03-22T14:32:57Z</time></trkpt><trkpt lat="45.334395388780585" lon="9.11045128328856"><ele>96.0</ele><time>2026-03-22T14:32:58Z</time></trkpt><trkpt lat="45.33432822762188" lon="9.110666787172464"><ele>96.0</ele><time>2026-03-22T14:32:59Z</time></trkpt><trkpt lat="45.33425798988859" lon="9.1108913986388"><ele>96.0</ele><time>2026-03-22T14:33:00Z</time></trkpt><trkpt lat="45.33418996981055" lon="9.111108431840691"><ele>96.0</ele><time>2026-03-22T14:33:01Z</time></trkpt><trkpt lat="45.3341206116667" lon="9.11132973466481"><ele>96.0</ele><time>2026-03-22T14:33:02Z</time></trkpt><trkpt lat="45.33405042783697" lon="9.111553681176291"><ele>96.0</ele><time>2026-03-22T14:33:03Z</time></trkpt><trkpt lat="45.333979558298864" lon="9.11178013445122"><ele>96.0</ele><time>2026-03-22T14:33:04Z</time></trkpt><trkpt lat="45.33390878192632" lon="9.112006290014952"><ele>96.0</ele><time>2026-03-22T14:33:05Z</time></trkpt><trkpt lat="45.33383774341235" lon="9.112233532892455"><ele>96.0</ele><time>2026-03-22T14:33:06Z</time></trkpt><trkpt lat="45.33376652856644" lon="9.112461469932322"><ele>96.0</ele><time>2026-03-22T14:33:07Z</time></trkpt><trkpt lat="45.33369475235427" lon="9.112691203755345"><ele>96.0</ele><time>2026-03-22T14:33:08Z</time></trkpt><trkpt lat="45.333623423657436" lon="9.11291950516119"><ele>96.0</ele><time>2026-03-22T14:33:09Z</time></trkpt><trkpt lat="45.333551813788205" lon="9.113148856219906"><ele>96.0</ele><time>2026-03-22T14:33:10Z</time></trkpt><trkpt lat="45.333480036443575" lon="9.113378832008781"><ele>96.0</ele><time>2026-03-22T14:33:11Z</time></trkpt><trkpt lat="45.333407330718046" lon="9.11361178207643"><ele>96.0</ele><time>2026-03-22T14:33:12Z</time></trkpt><trkpt lat="45.333335191508255" lon="9.113845369170495"><ele>96.0</ele><time>2026-03-22T14:33:13Z</time></trkpt><trkpt lat="45.333262057566884" lon="9.114076640934575"><ele>96.0</ele><time>2026-03-22T14:33:14Z</time></trkpt><trkpt lat="45.33319036535286" lon="9.114306038233416"><ele>96.0</ele><time>2026-03-22T14:33:15Z</time></trkpt><trkpt lat="45.33311900255055" lon="9.114534019814633"><ele>96.0</ele><time>2026-03-22T14:33:16Z</time></trkpt><trkpt lat="45.33304756868944" lon="9.114762228372287"><ele>97.33333333333334</ele><time>2026-03-22T14:33:17Z</time></trkpt><trkpt lat="45.33297631635444" lon="9.114989857012215"><ele>98.66666666666667</ele><time>2026-03-22T14:33:18Z</time></trkpt><trkpt lat="45.33290494530974" lon="9.115217864904956"><ele>100.0</ele><time>2026-03-22T14:33:19Z</time></trkpt><trkpt lat="45.33283411408749" lon="9.115444506291164"><ele>100.0</ele><time>2026-03-22T14:33:20Z</time></trkpt><trkpt lat="45.332764478048006" lon="9.115667510316664"><ele>100.0</ele><time>2026-03-22T14:33:21Z</time></trkpt><trkpt lat="45.33269495491511" lon="9.11589015273922"><ele>100.0</ele><time>2026-03-22T14:33:22Z</time></trkpt><trkpt lat="45.332624659804864" lon="9.116115267434655"><ele>99.33333333333334</ele><time>2026-03-22T14:33:23Z</time></trkpt><trkpt lat="45.332553741751966" lon="9.116342377013877"><ele>98.66666666666666</ele><time>2026-03-22T14:33:24Z</time></trkpt><trkpt lat="45.332481865217886" lon="9.1165724600308"><ele>98.0</ele><time>2026-03-22T14:33:25Z</time></trkpt><trkpt lat="45.33240915941874" lon="9.116805036216364"><ele>97.0</ele><time>2026-03-22T14:33:26Z</time></trkpt><trkpt lat="45.33233616659373" lon="9.117038530636616"><ele>96.0</ele><time>2026-03-22T14:33:27Z</time></trkpt><trkpt lat="45.33226301277276" lon="9.11727254084565"><ele>95.0</ele><time>2026-03-22T14:33:28Z</time></trkpt><trkpt lat="45.33218963691449" lon="9.117506570442908"><ele>95.0</ele><time>2026-03-22T14:33:29Z</time></trkpt><trkpt lat="45.332116219272194" lon="9.117740489851895"><ele>95.0</ele><time>2026-03-22T14:33:30Z</time></trkpt><trkpt lat="45.3320865746432" lon="9.118001168397736"><ele>95.0</ele><time>2026-03-22T14:33:31Z</time></trkpt><trkpt lat="45.332011655001104" lon="9.118234142962969"><ele>95.0</ele><time>2026-03-22T14:33:32Z</time></trkpt><trkpt lat="45.33193901368825" lon="9.11846463074311"><ele>95.0</ele><time>2026-03-22T14:33:33Z</time></trkpt><trkpt lat="45.33186778487931" lon="9.118693502620102"><ele>95.0</ele><time>2026-03-22T14:33:34Z</time></trkpt><trkpt lat="45.33179582222099" lon="9.118923163146334"><ele>95.33333333333334</ele><time>2026-03-22T14:33:35Z</time></trkpt><trkpt lat="45.331725956214825" lon="9.119152930708003"><ele>95.66666666666667</ele><time>2026-03-22T14:33:36Z</time></trkpt><trkpt lat="45.33165702650643" lon="9.119382496835689"><ele>96.0</ele><time>2026-03-22T14:33:37Z</time></trkpt><trkpt lat="45.33158724844764" lon="9.119610984342982"><ele>96.0</ele><time>2026-03-22T14:33:38Z</time></trkpt><trkpt lat="45.33151701630505" lon="9.119837111670815"><ele>96.0</ele><time>2026-03-22T14:33:39Z</time></trkpt><trkpt lat="45.33144644914109" lon="9.120063527516471"><ele>96.0</ele><time>2026-03-22T14:33:40Z</time></trkpt><trkpt lat="45.33137582915574" lon="9.120288998411446"><ele>96.0</ele><time>2026-03-22T14:33:41Z</time></trkpt><trkpt lat="45.331304720702875" lon="9.120514914062342"><ele>96.0</ele><time>2026-03-22T14:33:42Z</time></trkpt><trkpt lat="45.33123165809049" lon="9.12074020662492"><ele>96.0</ele><time>2026-03-22T14:33:43Z</time></trkpt><trkpt lat="45.331158382811594" lon="9.120964829095039"><ele>96.0</ele><time>2026-03-22T14:33:44Z</time></trkpt><trkpt lat="45.331047226433064" lon="9.121163569944109"><ele>96.0</ele><time>2026-03-22T14:33:45Z</time></trkpt><trkpt lat="45.3310103417312" lon="9.121407806398384"><ele>96.0</ele><time>2026-03-22T14:33:46Z</time></trkpt><trkpt lat="45.33093834625649" lon="9.121626330925592"><ele>96.0</ele><time>2026-03-22T14:33:47Z</time></trkpt><trkpt lat="45.33086622980523" lon="9.121842676928475"><ele>96.0</ele><time>2026-03-22T14:33:48Z</time></trkpt><trkpt lat="45.33079380750372" lon="9.122058779315024"><ele>96.0</ele><time>2026-03-22T14:33:49Z</time></trkpt><trkpt lat="45.33072371636775" lon="9.12227273424374"><ele>96.0</ele><time>2026-03-22T14:33:50Z</time></trkpt><trkpt lat="45.33065448685793" lon="9.122485399724088"><ele>96.0</ele><time>2026-03-22T14:33:51Z</time></trkpt><trkpt lat="45.330586035239556" lon="9.122698804884104"><ele>96.0</ele><time>2026-03-22T14:33:52Z</time></trkpt><trkpt lat="45.33052052527029" lon="9.12291380309724"><ele>96.0</ele><time>2026-03-22T14:33:53Z</time></trkpt><trkpt lat="45.33045649481037" lon="9.123128949726635"><ele>96.0</ele><time>2026-03-22T14:33:54Z</time></trkpt><trkpt lat="45.33039138172178" lon="9.123343643960458"><ele>96.0</ele><time>2026-03-22T14:33:55Z</time></trkpt><trkpt lat="45.33032556280917" lon="9.123555896183854"><ele>96.0</ele><time>2026-03-22T14:33:56Z</time></trkpt><trkpt lat="45.330257741787925" lon="9.123768147815497"><ele>96.0</ele><time>2026-03-22T14:33:57Z</time></trkpt><trkpt lat="45.33019020649049" lon="9.123981717200724"><ele>96.0</ele><time>2026-03-22T14:33:58Z</time></trkpt><trkpt lat="45.33012295801488" lon="9.124196048625985"><ele>96.0</ele><time>2026-03-22T14:33:59Z</time></trkpt><trkpt lat="45.330056804335214" lon="9.124408943671085"><ele>96.0</ele><time>2026-03-22T14:34:00Z</time></trkpt><trkpt lat="45.329963010783786" lon="9.124602712290187"><ele>96.0</ele><time>2026-03-22T14:34:01Z</time></trkpt><trkpt lat="45.32992876711432" lon="9.12483535299103"><ele>96.0</ele><time>2026-03-22T14:34:02Z</time></trkpt><trkpt lat="45.32985841383252" lon="9.125042659438565"><ele>96.0</ele><time>2026-03-22T14:34:03Z</time></trkpt><trkpt lat="45.32979353285848" lon="9.125254016639966"><ele>96.0</ele><time>2026-03-22T14:34:04Z</time></trkpt><trkpt lat="45.32973109068004" lon="9.125467395394205"><ele>96.0</ele><time>2026-03-22T14:34:05Z</time></trkpt><trkpt lat="45.329634784703025" lon="9.125660966767915"><ele>96.0</ele><time>2026-03-22T14:34:06Z</time></trkpt><trkpt lat="45.3295694414993" lon="9.125869672411064"><ele>96.0</ele><time>2026-03-22T14:34:07Z</time></trkpt><trkpt lat="45.329503563930636" lon="9.126078258331544"><ele>96.0</ele><time>2026-03-22T14:34:08Z</time></trkpt><trkpt lat="45.3294372982926" lon="9.126288071787748"><ele>96.0</ele><time>2026-03-22T14:34:09Z</time></trkpt><trkpt lat="45.32937104942587" lon="9.126497834730028"><ele>96.0</ele><time>2026-03-22T14:34:10Z</time></trkpt><trkpt lat="45.32930526895362" lon="9.126706734872645"><ele>95.33333333333333</ele><time>2026-03-22T14:34:11Z</time></trkpt><trkpt lat="45.32923749784976" lon="9.126918199061969"><ele>94.66666666666666</ele><time>2026-03-22T14:34:12Z</time></trkpt><trkpt lat="45.329167803009526" lon="9.127135020045682"><ele>94.0</ele><time>2026-03-22T14:34:13Z</time></trkpt><trkpt lat="45.32909770578779" lon="9.127353091393667"><ele>94.0</ele><time>2026-03-22T14:34:14Z</time></trkpt><trkpt lat="45.329028486283725" lon="9.127568826683078"><ele>94.0</ele><time>2026-03-22T14:34:15Z</time></trkpt><trkpt lat="45.32895932650467" lon="9.127784734992556"><ele>94.0</ele><time>2026-03-22T14:34:16Z</time></trkpt><trkpt lat="45.32888979076757" lon="9.128002178725264"><ele>94.0</ele><time>2026-03-22T14:34:17Z</time></trkpt><trkpt lat="45.328822482188016" lon="9.128219428292866"><ele>94.0</ele><time>2026-03-22T14:34:18Z</time></trkpt><trkpt lat="45.32875552548295" lon="9.128436257142997"><ele>94.0</ele><time>2026-03-22T14:34:19Z</time></trkpt><trkpt lat="45.32868835966504" lon="9.128654880067238"><ele>94.0</ele><time>2026-03-22T14:34:20Z</time></trkpt><trkpt lat="45.328621035223335" lon="9.128874652150387"><ele>94.0</ele><time>2026-03-22T14:34:21Z</time></trkpt><trkpt lat="45.32855095490888" lon="9.129097728232397"><ele>94.0</ele><time>2026-03-22T14:34:22Z</time></trkpt><trkpt lat="45.328481198263255" lon="9.129319887875113"><ele>94.0</ele><time>2026-03-22T14:34:23Z</time></trkpt><trkpt lat="45.328410119542724" lon="9.129546317666328"><ele>94.0</ele><time>2026-03-22T14:34:24Z</time></trkpt><trkpt lat="45.328339783654634" lon="9.129768927041473"><ele>94.0</ele><time>2026-03-22T14:34:25Z</time></trkpt><trkpt lat="45.32826936825236" lon="9.129990571369989"><ele>94.0</ele><time>2026-03-22T14:34:26Z</time></trkpt><trkpt lat="45.32819953739592" lon="9.130210375501319"><ele>94.0</ele><time>2026-03-22T14:34:27Z</time></trkpt><trkpt lat="45.32813005704108" lon="9.13042907585286"><ele>94.0</ele><time>2026-03-22T14:34:28Z</time></trkpt><trkpt lat="45.328061155454385" lon="9.130645998902965"><ele>94.66666666666666</ele><time>2026-03-22T14:34:29Z</time></trkpt><trkpt lat="45.32799358428599" lon="9.130860138002676"><ele>95.33333333333333</ele><time>2026-03-22T14:34:30Z</time></trkpt><trkpt lat="45.32796348609329" lon="9.131094903507595"><ele>96.0</ele><time>2026-03-22T14:34:31Z</time></trkpt><trkpt lat="45.32789541721712" lon="9.13130506766485"><ele>96.0</ele><time>2026-03-22T14:34:32Z</time></trkpt><trkpt lat="45.32782768673949" lon="9.131516055256965"><ele>96.0</ele><time>2026-03-22T14:34:33Z</time></trkpt><trkpt lat="45.327760735662025" lon="9.131728364975688"><ele>96.0</ele><time>2026-03-22T14:34:34Z</time></trkpt><trkpt lat="45.32766081097955" lon="9.131918199655908"><ele>96.0</ele><time>2026-03-22T14:34:35Z</time></trkpt><trkpt lat="45.32759538240743" lon="9.132126951441462"><ele>96.0</ele><time>2026-03-22T14:34:36Z</time></trkpt><trkpt lat="45.32753176690091" lon="9.132333628938845"><ele>96.0</ele><time>2026-03-22T14:34:37Z</time></trkpt><trkpt lat="45.32747085526873" lon="9.132536022288203"><ele>96.0</ele><time>2026-03-22T14:34:38Z</time></trkpt><trkpt lat="45.327412753439646" lon="9.132738117838782"><ele>96.0</ele><time>2026-03-22T14:34:39Z</time></trkpt><trkpt lat="45.32736604049264" lon="9.132927927504289"><ele>96.0</ele><time>2026-03-22T14:34:40Z</time></trkpt><trkpt lat="45.3273320513723" lon="9.133116247949495"><ele>96.0</ele><time>2026-03-22T14:34:41Z</time></trkpt><trkpt lat="45.32730831312621" lon="9.133307643806866"><ele>96.25</ele><time>2026-03-22T14:34:42Z</time></trkpt><trkpt lat="45.327291473353384" lon="9.133501811672076"><ele>96.5</ele><time>2026-03-22T14:34:43Z</time></trkpt><trkpt lat="45.32729778485765" lon="9.13368503962844"><ele>96.75</ele><time>2026-03-22T14:34:44Z</time></trkpt><trkpt lat="45.32729221812209" lon="9.133855464845416"><ele>97.0</ele><time>2026-03-22T14:34:45Z</time></trkpt><trkpt lat="45.327288207950126" lon="9.134013068530095"><ele>96.8</ele><time>2026-03-22T14:34:46Z</time></trkpt><trkpt lat="45.32728421829754" lon="9.13418201562883"><ele>96.6</ele><time>2026-03-22T14:34:47Z</time></trkpt><trkpt lat="45.32728253074666" lon="9.134339838777533"><ele>96.39999999999999</ele><time>2026-03-22T14:34:48Z</time></trkpt><trkpt lat="45.32728218804342" lon="9.134493899510142"><ele>96.19999999999999</ele><time>2026-03-22T14:34:49Z</time></trkpt><trkpt lat="45.3272783957714" lon="9.134634192801247"><ele>96.0</ele><time>2026-03-22T14:34:50Z</time></trkpt><trkpt lat="45.327275074737244" lon="9.134760357811604"><ele>96.0</ele><time>2026-03-22T14:34:51Z</time></trkpt><trkpt lat="45.32727069119098" lon="9.134879797069994"><ele>96.0</ele><time>2026-03-22T14:34:52Z</time></trkpt><trkpt lat="45.327263947872744" lon="9.134989111116713"><ele>96.0</ele><time>2026-03-22T14:34:53Z</time></trkpt><trkpt lat="45.32725084449022" lon="9.135096024020948"><ele>96.0</ele><time>2026-03-22T14:34:55Z</time></trkpt><trkpt lat="45.32723767721273" lon="9.135200231467687"><ele>96.0</ele><time>2026-03-22T14:34:58Z</time></trkpt><trkpt lat="45.32719243460535" lon="9.135337834492876"><ele>96.0</ele><time>2026-03-22T14:35:02Z</time></trkpt><trkpt lat="45.32715598131007" lon="9.135419558382313"><ele>96.16666666666667</ele><time>2026-03-22T14:35:03Z</time></trkpt><trkpt lat="45.327106811504216" lon="9.135502372748416"><ele>96.33333333333334</ele><time>2026-03-22T14:35:04Z</time></trkpt><trkpt lat="45.327046334722944" lon="9.13558583535378"><ele>96.5</ele><time>2026-03-22T14:35:05Z</time></trkpt><trkpt lat="45.32694663386735" lon="9.135597229876424"><ele>96.66666666666667</ele><time>2026-03-22T14:35:06Z</time></trkpt><trkpt lat="45.32687130791227" lon="9.13565025841594"><ele>96.83333333333334</ele><time>2026-03-22T14:35:07Z</time></trkpt><trkpt lat="45.32678281802437" lon="9.135688130103395"><ele>97.0</ele><time>2026-03-22T14:35:08Z</time></trkpt><trkpt lat="45.32670212765779" lon="9.13571324414482"><ele>96.83333333333334</ele><time>2026-03-22T14:35:09Z</time></trkpt><trkpt lat="45.32662509953918" lon="9.135737627423087"><ele>96.66666666666667</ele><time>2026-03-22T14:35:10Z</time></trkpt><trkpt lat="45.32655470223322" lon="9.135758898287413"><ele>96.5</ele><time>2026-03-22T14:35:11Z</time></trkpt><trkpt lat="45.326485554276104" lon="9.135774170764373"><ele>96.33333333333334</ele><time>2026-03-22T14:35:12Z</time></trkpt><trkpt lat="45.32635587646811" lon="9.135763409139313"><ele>96.16666666666667</ele><time>2026-03-22T14:35:14Z</time></trkpt><trkpt lat="45.32628430901693" lon="9.13575012582019"><ele>96.0</ele><time>2026-03-22T14:35:15Z</time></trkpt><trkpt lat="45.326212724204744" lon="9.135720306248466"><ele>96.0</ele><time>2026-03-22T14:35:16Z</time></trkpt><trkpt lat="45.32616615699922" lon="9.135871152168152"><ele>96.0</ele><time>2026-03-22T14:35:17Z</time></trkpt><trkpt lat="45.326138462924796" lon="9.135960215968375"><ele>96.0</ele><time>2026-03-22T14:35:18Z</time></trkpt><trkpt lat="45.32615024012762" lon="9.136072501304781"><ele>96.0</ele><time>2026-03-22T14:35:19Z</time></trkpt><trkpt lat="45.32619249720892" lon="9.136207140732648"><ele>96.0</ele><time>2026-03-22T14:35:20Z</time></trkpt><trkpt lat="45.32621123267911" lon="9.136418403022141"><ele>95.66666666666667</ele><time>2026-03-22T14:35:21Z</time></trkpt><trkpt lat="45.326277159657195" lon="9.136660478832178"><ele>95.33333333333334</ele><time>2026-03-22T14:35:22Z</time></trkpt><trkpt lat="45.326275773194425" lon="9.13693912653147"><ele>95.0</ele><time>2026-03-22T14:35:23Z</time></trkpt><trkpt lat="45.326295829642724" lon="9.13717957126062"><ele>95.0</ele><time>2026-03-22T14:35:24Z</time></trkpt><trkpt lat="45.32631346220677" lon="9.137390958116708"><ele>95.0</ele><time>2026-03-22T14:35:25Z</time></trkpt><trkpt lat="45.32632872080804" lon="9.137574984079725"><ele>95.0</ele><time>2026-03-22T14:35:26Z</time></trkpt><trkpt lat="45.32634162922544" lon="9.137731338729036"><ele>95.0</ele><time>2026-03-22T14:35:27Z</time></trkpt><trkpt lat="45.32635202043029" lon="9.13785720342222"><ele>95.0</ele><time>2026-03-22T14:35:28Z</time></trkpt><trkpt lat="45.32636004812311" lon="9.137954439638602"><ele>95.0</ele><time>2026-03-22T14:35:29Z</time></trkpt><trkpt lat="45.32637607023025" lon="9.138054344514194"><ele>95.0</ele><time>2026-03-22T14:35:30Z</time></trkpt><trkpt lat="45.32638353887397" lon="9.138178918969897"><ele>95.0</ele><time>2026-03-22T14:35:31Z</time></trkpt><trkpt lat="45.326392386740174" lon="9.138332301491966"><ele>95.0</ele><time>2026-03-22T14:35:32Z</time></trkpt><trkpt lat="45.32640461083069" lon="9.138505083083542"><ele>94.5</ele><time>2026-03-22T14:35:33Z</time></trkpt><trkpt lat="45.32642606959298" lon="9.138711537153736"><ele>94.0</ele><time>2026-03-22T14:35:34Z</time></trkpt><trkpt lat="45.32644385344338" lon="9.138905561224535"><ele>93.5</ele><time>2026-03-22T14:35:35Z</time></trkpt><trkpt lat="45.32646236930782" lon="9.139100943504701"><ele>93.0</ele><time>2026-03-22T14:35:36Z</time></trkpt><trkpt lat="45.3264817233746" lon="9.13929994763524"><ele>93.0</ele><time>2026-03-22T14:35:37Z</time></trkpt><trkpt lat="45.32649805105132" lon="9.139500412671296"><ele>93.0</ele><time>2026-03-22T14:35:38Z</time></trkpt><trkpt lat="45.32651547096751" lon="9.139694413721339"><ele>93.0</ele><time>2026-03-22T14:35:39Z</time></trkpt><trkpt lat="45.326531849640745" lon="9.139889520364964"><ele>93.0</ele><time>2026-03-22T14:35:40Z</time></trkpt><trkpt lat="45.32654530265587" lon="9.140077655134963"><ele>93.2</ele><time>2026-03-22T14:35:41Z</time></trkpt><trkpt lat="45.32655741459764" lon="9.140256127890604"><ele>93.4</ele><time>2026-03-22T14:35:42Z</time></trkpt><trkpt lat="45.326565495947605" lon="9.140407336574825"><ele>93.60000000000001</ele><time>2026-03-22T14:35:43Z</time></trkpt><trkpt lat="45.32657045450941" lon="9.14054008307649"><ele>93.80000000000001</ele><time>2026-03-22T14:35:44Z</time></trkpt><trkpt lat="45.326579099437794" lon="9.14067723389651"><ele>94.0</ele><time>2026-03-22T14:35:45Z</time></trkpt><trkpt lat="45.326591406653705" lon="9.140817245203138"><ele>94.2</ele><time>2026-03-22T14:35:46Z</time></trkpt><trkpt lat="45.32659123972125" lon="9.140963458693648"><ele>94.4</ele><time>2026-03-22T14:35:47Z</time></trkpt><trkpt lat="45.32654813484593" lon="9.141102411538633"><ele>94.6</ele><time>2026-03-22T14:35:48Z</time></trkpt><trkpt lat="45.32650387296425" lon="9.14123622770021"><ele>94.8</ele><time>2026-03-22T14:35:49Z</time></trkpt><trkpt lat="45.32644726766231" lon="9.141365591768118"><ele>95.0</ele><time>2026-03-22T14:35:50Z</time></trkpt><trkpt lat="45.32637810337744" lon="9.141490097496582"><ele>94.5</ele><time>2026-03-22T14:35:51Z</time></trkpt><trkpt lat="45.32629765612857" lon="9.141603082043721"><ele>94.0</ele><time>2026-03-22T14:35:52Z</time></trkpt><trkpt lat="45.32620602353926" lon="9.141691628036574"><ele>93.5</ele><time>2026-03-22T14:35:53Z</time></trkpt><trkpt lat="45.32610376108879" lon="9.14177025495847"><ele>93.0</ele><time>2026-03-22T14:35:54Z</time></trkpt><trkpt lat="45.32599484863207" lon="9.141849876852733"><ele>93.0</ele><time>2026-03-22T14:35:55Z</time></trkpt><trkpt lat="45.325880973867044" lon="9.141931451744004"><ele>93.0</ele><time>2026-03-22T14:35:56Z</time></trkpt><trkpt lat="45.325765141977634" lon="9.142014428808636"><ele>93.0</ele><time>2026-03-22T14:35:57Z</time></trkpt><trkpt lat="45.32565468977864" lon="9.142093551796384"><ele>93.0</ele><time>2026-03-22T14:35:58Z</time></trkpt><trkpt lat="45.325540406413936" lon="9.142175419535862"><ele>93.0</ele><time>2026-03-22T14:35:59Z</time></trkpt><trkpt lat="45.32542118889802" lon="9.14226088621564"><ele>93.0</ele><time>2026-03-22T14:36:00Z</time></trkpt><trkpt lat="45.3253043607806" lon="9.142346353679818"><ele>93.0</ele><time>2026-03-22T14:36:01Z</time></trkpt><trkpt lat="45.325187121279846" lon="9.142432122120892"><ele>93.0</ele><time>2026-03-22T14:36:02Z</time></trkpt><trkpt lat="45.32507117141627" lon="9.142516947041667"><ele>93.0</ele><time>2026-03-22T14:36:03Z</time></trkpt><trkpt lat="45.324956235420245" lon="9.142600005158318"><ele>93.0</ele><time>2026-03-22T14:36:04Z</time></trkpt><trkpt lat="45.32483996275676" lon="9.142683437983534"><ele>93.0</ele><time>2026-03-22T14:36:05Z</time></trkpt><trkpt lat="45.324724877270135" lon="9.142766018793788"><ele>93.0</ele><time>2026-03-22T14:36:06Z</time></trkpt><trkpt lat="45.32460866435302" lon="9.142849408632545"><ele>93.25</ele><time>2026-03-22T14:36:07Z</time></trkpt><trkpt lat="45.324492751044545" lon="9.142932583484178"><ele>93.5</ele><time>2026-03-22T14:36:08Z</time></trkpt><trkpt lat="45.324376666968355" lon="9.143015881824947"><ele>93.75</ele><time>2026-03-22T14:36:09Z</time></trkpt><trkpt lat="45.32426973536846" lon="9.143092083679194"><ele>94.0</ele><time>2026-03-22T14:36:10Z</time></trkpt><trkpt lat="45.32416861568618" lon="9.143164238173478"><ele>94.0</ele><time>2026-03-22T14:36:11Z</time></trkpt><trkpt lat="45.3240719895024" lon="9.14323302410032"><ele>94.0</ele><time>2026-03-22T14:36:12Z</time></trkpt><trkpt lat="45.323989111258705" lon="9.143290416408453"><ele>94.0</ele><time>2026-03-22T14:36:13Z</time></trkpt><trkpt lat="45.323910277674955" lon="9.14331736361789"><ele>94.0</ele><time>2026-03-22T14:36:14Z</time></trkpt><trkpt lat="45.3238478494842" lon="9.143347793536066"><ele>94.0</ele><time>2026-03-22T14:36:15Z</time></trkpt><trkpt lat="45.32373344134988" lon="9.143414141245257"><ele>94.0</ele><time>2026-03-22T14:36:17Z</time></trkpt><trkpt lat="45.32367456717393" lon="9.143448338578434"><ele>94.0</ele><time>2026-03-22T14:36:19Z</time></trkpt><trkpt lat="45.32360577262373" lon="9.143636178060852"><ele>94.0</ele><time>2026-03-22T14:36:20Z</time></trkpt><trkpt lat="45.32369320979763" lon="9.143833269962675"><ele>94.0</ele><time>2026-03-22T14:36:22Z</time></trkpt><trkpt lat="45.32370394291824" lon="9.143954347438147"><ele>94.25</ele><time>2026-03-22T14:36:23Z</time></trkpt><trkpt lat="45.32371308167524" lon="9.144119557634443"><ele>94.5</ele><time>2026-03-22T14:36:24Z</time></trkpt><trkpt lat="45.32372666473574" lon="9.144298194700077"><ele>94.75</ele><time>2026-03-22T14:36:25Z</time></trkpt><trkpt lat="45.32374061774761" lon="9.144466777656785"><ele>95.0</ele><time>2026-03-22T14:36:26Z</time></trkpt><trkpt lat="45.32374862013241" lon="9.144600888865469"><ele>95.0</ele><time>2026-03-22T14:36:27Z</time></trkpt><trkpt lat="45.32375310826337" lon="9.144727610424967"><ele>95.0</ele><time>2026-03-22T14:36:28Z</time></trkpt><trkpt lat="45.3237400945549" lon="9.14483846901793"><ele>95.0</ele><time>2026-03-22T14:36:29Z</time></trkpt><trkpt lat="45.32371166552614" lon="9.144960437292378"><ele>95.0</ele><time>2026-03-22T14:36:30Z</time></trkpt><trkpt lat="45.323674761240355" lon="9.145119384021777"><ele>95.0</ele><time>2026-03-22T14:36:31Z</time></trkpt><trkpt lat="45.32363691064001" lon="9.145293309641543"><ele>95.0</ele><time>2026-03-22T14:36:32Z</time></trkpt><trkpt lat="45.323605128267204" lon="9.145460309621026"><ele>95.0</ele><time>2026-03-22T14:36:33Z</time></trkpt><trkpt lat="45.32357639585908" lon="9.145627849061517"><ele>95.0</ele><time>2026-03-22T14:36:34Z</time></trkpt><trkpt lat="45.32355088740269" lon="9.145795141267053"><ele>95.0</ele><time>2026-03-22T14:36:35Z</time></trkpt><trkpt lat="45.32352998271549" lon="9.14596392663817"><ele>95.0</ele><time>2026-03-22T14:36:36Z</time></trkpt><trkpt lat="45.32351448162576" lon="9.146144471808"><ele>95.0</ele><time>2026-03-22T14:36:37Z</time></trkpt><trkpt lat="45.3235023268742" lon="9.146315281311646"><ele>95.0</ele><time>2026-03-22T14:36:38Z</time></trkpt><trkpt lat="45.32349105083837" lon="9.146492413204578"><ele>95.0</ele><time>2026-03-22T14:36:39Z</time></trkpt><trkpt lat="45.32347894495668" lon="9.146648483068708"><ele>95.0</ele><time>2026-03-22T14:36:40Z</time></trkpt><trkpt lat="45.32346541017728" lon="9.146798021470838"><ele>95.0</ele><time>2026-03-22T14:36:41Z</time></trkpt><trkpt lat="45.32344812340329" lon="9.146920129778845"><ele>95.0</ele><time>2026-03-22T14:36:42Z</time></trkpt><trkpt lat="45.32341907350171" lon="9.147015166938406"><ele>95.0</ele><time>2026-03-22T14:36:43Z</time></trkpt><trkpt lat="45.323373417280024" lon="9.14708975219518"><ele>95.0</ele><time>2026-03-22T14:36:44Z</time></trkpt><trkpt lat="45.323311403921316" lon="9.147154860223853"><ele>95.0</ele><time>2026-03-22T14:36:45Z</time></trkpt><trkpt lat="45.32325326972703" lon="9.147190132800564"><ele>94.75</ele><time>2026-03-22T14:36:46Z</time></trkpt><trkpt lat="45.323211412458036" lon="9.147502042880275"><ele>94.5</ele><time>2026-03-22T14:36:48Z</time></trkpt><trkpt lat="45.32324191874332" lon="9.147630948039666"><ele>94.25</ele><time>2026-03-22T14:36:49Z</time></trkpt><trkpt lat="45.32328532937625" lon="9.147790712862035"><ele>94.0</ele><time>2026-03-22T14:36:50Z</time></trkpt><trkpt lat="45.32333658211026" lon="9.14796238140156"><ele>94.0</ele><time>2026-03-22T14:36:51Z</time></trkpt><trkpt lat="45.323388722740034" lon="9.148133537783595"><ele>94.0</ele><time>2026-03-22T14:36:52Z</time></trkpt><trkpt lat="45.32343802745648" lon="9.148295035248905"><ele>94.0</ele><time>2026-03-22T14:36:53Z</time></trkpt><trkpt lat="45.32348562919029" lon="9.148449964912446"><ele>94.0</ele><time>2026-03-22T14:36:54Z</time></trkpt><trkpt lat="45.32352841234809" lon="9.148598483258175"><ele>93.66666666666666</ele><time>2026-03-22T14:36:55Z</time></trkpt><trkpt lat="45.323561218719675" lon="9.14872667876571"><ele>93.33333333333333</ele><time>2026-03-22T14:36:56Z</time></trkpt><trkpt lat="45.32358123648905" lon="9.148844727692307"><ele>93.0</ele><time>2026-03-22T14:36:57Z</time></trkpt><trkpt lat="45.32357745429107" lon="9.148948028715232"><ele>92.66666666666667</ele><time>2026-03-22T14:36:58Z</time></trkpt><trkpt lat="45.32354348107355" lon="9.149025937834578"><ele>92.33333333333334</ele><time>2026-03-22T14:36:59Z</time></trkpt><trkpt lat="45.32349207173871" lon="9.14911746259325"><ele>92.0</ele><time>2026-03-22T14:37:00Z</time></trkpt><trkpt lat="45.32342761038262" lon="9.149247262172361"><ele>91.75</ele><time>2026-03-22T14:37:01Z</time></trkpt><trkpt lat="45.323346310630754" lon="9.14939116937181"><ele>91.5</ele><time>2026-03-22T14:37:02Z</time></trkpt><trkpt lat="45.32325463817033" lon="9.149511656640389"><ele>91.25</ele><time>2026-03-22T14:37:03Z</time></trkpt><trkpt lat="45.32315572195143" lon="9.149590425739207"><ele>91.0</ele><time>2026-03-22T14:37:04Z</time></trkpt><trkpt lat="45.323062813852204" lon="9.149677032495736"><ele>91.19999999999999</ele><time>2026-03-22T14:37:05Z</time></trkpt><trkpt lat="45.322996662887824" lon="9.149754066053063"><ele>91.39999999999999</ele><time>2026-03-22T14:37:06Z</time></trkpt><trkpt lat="45.32295271268094" lon="9.149829356172006"><ele>91.6</ele><time>2026-03-22T14:37:07Z</time></trkpt><trkpt lat="45.32294624936111" lon="9.149972762954421"><ele>91.8</ele><time>2026-03-22T14:37:08Z</time></trkpt><trkpt lat="45.32305088153653" lon="9.150064146761986"><ele>92.0</ele><time>2026-03-22T14:37:09Z</time></trkpt><trkpt lat="45.32298644694119" lon="9.14998386595167"><ele>91.5</ele><time>2026-03-22T14:38:02Z</time></trkpt><trkpt lat="45.323267706569915" lon="9.149644838351469"><ele>91.0</ele><time>2026-03-22T14:38:05Z</time></trkpt><trkpt lat="45.323349301856695" lon="9.149564713862311"><ele>91.0</ele><time>2026-03-22T14:38:06Z</time></trkpt><trkpt lat="45.32341318264406" lon="9.14947633029825"><ele>91.0</ele><time>2026-03-22T14:38:07Z</time></trkpt><trkpt lat="45.32349003380205" lon="9.149334007579531"><ele>91.0</ele><time>2026-03-22T14:38:08Z</time></trkpt><trkpt lat="45.32355497364791" lon="9.149201561569098"><ele>91.0</ele><time>2026-03-22T14:38:09Z</time></trkpt><trkpt lat="45.32360190686107" lon="9.149093621675178"><ele>91.0</ele><time>2026-03-22T14:38:10Z</time></trkpt><trkpt lat="45.323639757515885" lon="9.149001219420901"><ele>91.19999999999999</ele><time>2026-03-22T14:38:11Z</time></trkpt><trkpt lat="45.32365209334971" lon="9.148900890207669"><ele>91.39999999999999</ele><time>2026-03-22T14:38:12Z</time></trkpt><trkpt lat="45.32363571166551" lon="9.148764202691625"><ele>91.6</ele><time>2026-03-22T14:38:13Z</time></trkpt><trkpt lat="45.323587000919595" lon="9.14857990138728"><ele>91.8</ele><time>2026-03-22T14:38:14Z</time></trkpt><trkpt lat="45.32353087666368" lon="9.148397928628228"><ele>92.0</ele><time>2026-03-22T14:38:15Z</time></trkpt><trkpt lat="45.32347605400235" lon="9.148213136301557"><ele>92.39999999999999</ele><time>2026-03-22T14:38:16Z</time></trkpt><trkpt lat="45.32343386357609" lon="9.148056159252075"><ele>92.8</ele><time>2026-03-22T14:38:17Z</time></trkpt><trkpt lat="45.32339278092226" lon="9.147922438461851"><ele>93.2</ele><time>2026-03-22T14:38:18Z</time></trkpt><trkpt lat="45.32335155380274" lon="9.14779663171973"><ele>93.6</ele><time>2026-03-22T14:38:19Z</time></trkpt><trkpt lat="45.32331984027228" lon="9.147681352125437"><ele>94.0</ele><time>2026-03-22T14:38:20Z</time></trkpt><trkpt lat="45.323289343330245" lon="9.147574253609054"><ele>94.0</ele><time>2026-03-22T14:38:21Z</time></trkpt><trkpt lat="45.32326038642407" lon="9.147487006133808"><ele>94.0</ele><time>2026-03-22T14:38:22Z</time></trkpt><trkpt lat="45.32324008405858" lon="9.147392717512398"><ele>94.0</ele><time>2026-03-22T14:38:24Z</time></trkpt><trkpt lat="45.32318719680626" lon="9.147302487842124"><ele>94.0</ele><time>2026-03-22T14:38:27Z</time></trkpt><trkpt lat="45.32308245698256" lon="9.147278651954386"><ele>94.0</ele><time>2026-03-22T14:38:28Z</time></trkpt><trkpt lat="45.32298697379224" lon="9.147330165269171"><ele>94.0</ele><time>2026-03-22T14:38:29Z</time></trkpt><trkpt lat="45.32288205017302" lon="9.147390852574503"><ele>94.2</ele><time>2026-03-22T14:38:30Z</time></trkpt><trkpt lat="45.322775559582325" lon="9.147452446316622"><ele>94.4</ele><time>2026-03-22T14:38:31Z</time></trkpt><trkpt lat="45.32267530379364" lon="9.147509384710265"><ele>94.6</ele><time>2026-03-22T14:38:32Z</time></trkpt><trkpt lat="45.32258578724973" lon="9.147559997991213"><ele>94.8</ele><time>2026-03-22T14:38:33Z</time></trkpt><trkpt lat="45.32250664181103" lon="9.147604747285834"><ele>95.0</ele><time>2026-03-22T14:38:34Z</time></trkpt><trkpt lat="45.322437284390446" lon="9.147644740525125"><ele>95.0</ele><time>2026-03-22T14:38:35Z</time></trkpt><trkpt lat="45.3223426683681" lon="9.147706940833523"><ele>95.0</ele><time>2026-03-22T14:38:37Z</time></trkpt><trkpt lat="45.322228960956025" lon="9.147794852108438"><ele>95.0</ele><time>2026-03-22T14:38:39Z</time></trkpt><trkpt lat="45.322154868199654" lon="9.147965994854475"><ele>95.0</ele><time>2026-03-22T14:38:40Z</time></trkpt><trkpt lat="45.32210449065082" lon="9.148094212776487"><ele>94.83333333333334</ele><time>2026-03-22T14:38:41Z</time></trkpt><trkpt lat="45.322068126984085" lon="9.148218489617"><ele>94.66666666666667</ele><time>2026-03-22T14:38:42Z</time></trkpt><trkpt lat="45.32204557313688" lon="9.148317261002655"><ele>94.5</ele><time>2026-03-22T14:38:43Z</time></trkpt><trkpt lat="45.322045954292705" lon="9.14841868732567"><ele>94.33333333333333</ele><time>2026-03-22T14:38:46Z</time></trkpt><trkpt lat="45.322045954292705" lon="9.148540750585628"><ele>94.16666666666666</ele><time>2026-03-22T14:38:51Z</time></trkpt><trkpt lat="45.32213193186404" lon="9.148622001636918"><ele>94.0</ele><time>2026-03-22T14:38:52Z</time></trkpt><trkpt lat="45.322168352950975" lon="9.148718229014158"><ele>94.0</ele><time>2026-03-22T14:38:54Z</time></trkpt><trkpt lat="45.32220499883402" lon="9.148815050639874"><ele>94.0</ele><time>2026-03-22T14:38:57Z</time></trkpt><trkpt lat="45.32217339429215" lon="9.148731548793192"><ele>94.0</ele><time>2026-03-22T14:39:02Z</time></trkpt><trkpt lat="45.32211988210992" lon="9.148593383339769"><ele>94.0</ele><time>2026-03-22T14:39:04Z</time></trkpt><trkpt lat="45.322076010294126" lon="9.148486333379982"><ele>94.0</ele><time>2026-03-22T14:39:06Z</time></trkpt><trkpt lat="45.322044068363624" lon="9.148368348172244"><ele>94.0</ele><time>2026-03-22T14:39:08Z</time></trkpt><trkpt lat="45.322035708779154" lon="9.14827654778516"><ele>94.0</ele><time>2026-03-22T14:39:09Z</time></trkpt><trkpt lat="45.32206448611857" lon="9.148152789985447"><ele>94.0</ele><time>2026-03-22T14:39:10Z</time></trkpt><trkpt lat="45.32211234125464" lon="9.148044400357795"><ele>94.0</ele><time>2026-03-22T14:39:11Z</time></trkpt><trkpt lat="45.32215171262326" lon="9.147946662423042"><ele>94.0</ele><time>2026-03-22T14:39:12Z</time></trkpt><trkpt lat="45.322190236496716" lon="9.147867748064032"><ele>94.0</ele><time>2026-03-22T14:39:13Z</time></trkpt><trkpt lat="45.32223912766654" lon="9.147767233842863"><ele>94.0</ele><time>2026-03-22T14:39:15Z</time></trkpt><trkpt lat="45.32228737807862" lon="9.147703902162668"><ele>94.0</ele><time>2026-03-22T14:39:17Z</time></trkpt><trkpt lat="45.32234801582827" lon="9.147676491576792"><ele>94.0</ele><time>2026-03-22T14:39:22Z</time></trkpt><trkpt lat="45.322143251173294" lon="9.14702591292757"><ele>94.0</ele><time>2026-03-22T14:39:25Z</time></trkpt><trkpt lat="45.322118224210115" lon="9.146920351073875"><ele>94.0</ele><time>2026-03-22T14:39:26Z</time></trkpt><trkpt lat="45.32209268458619" lon="9.146815659690732"><ele>94.0</ele><time>2026-03-22T14:39:27Z</time></trkpt><trkpt lat="45.322067975195594" lon="9.146722417819342"><ele>94.0</ele><time>2026-03-22T14:39:28Z</time></trkpt><trkpt lat="45.322037375920324" lon="9.146602985750862"><ele>94.0</ele><time>2026-03-22T14:39:29Z</time></trkpt><trkpt lat="45.32201426237751" lon="9.146509695626975"><ele>94.0</ele><time>2026-03-22T14:39:30Z</time></trkpt><trkpt lat="45.321984689613664" lon="9.146389896439112"><ele>94.0</ele><time>2026-03-22T14:39:31Z</time></trkpt><trkpt lat="45.32192917899375" lon="9.146210812760923"><ele>94.0</ele><time>2026-03-22T14:39:32Z</time></trkpt><trkpt lat="45.32190417041247" lon="9.146102447113863"><ele>94.0</ele><time>2026-03-22T14:39:33Z</time></trkpt><trkpt lat="45.321874751394255" lon="9.14599700329259"><ele>94.0</ele><time>2026-03-22T14:39:34Z</time></trkpt><trkpt lat="45.321846817439216" lon="9.145886916217727"><ele>94.0</ele><time>2026-03-22T14:39:35Z</time></trkpt><trkpt lat="45.321819571995015" lon="9.145784490408554"><ele>94.16666666666666</ele><time>2026-03-22T14:39:36Z</time></trkpt><trkpt lat="45.321792292800815" lon="9.145677884683625"><ele>94.33333333333333</ele><time>2026-03-22T14:39:37Z</time></trkpt><trkpt lat="45.321770548816545" lon="9.14557191863773"><ele>94.5</ele><time>2026-03-22T14:39:38Z</time></trkpt><trkpt lat="45.32173342325888" lon="9.14547130216005"><ele>94.66666666666667</ele><time>2026-03-22T14:39:39Z</time></trkpt><trkpt lat="45.32170463368908" lon="9.145358129778955"><ele>94.83333333333334</ele><time>2026-03-22T14:39:40Z</time></trkpt><trkpt lat="45.32167652436969" lon="9.145247631620094"><ele>95.0</ele><time>2026-03-22T14:39:41Z</time></trkpt><trkpt lat="45.321651618394306" lon="9.14514972566583"><ele>95.0</ele><time>2026-03-22T14:39:42Z</time></trkpt><trkpt lat="45.321627099545175" lon="9.14505334167199"><ele>95.0</ele><time>2026-03-22T14:39:43Z</time></trkpt><trkpt lat="45.3216129889089" lon="9.144954935330166"><ele>95.0</ele><time>2026-03-22T14:39:44Z</time></trkpt><trkpt lat="45.321576011387954" lon="9.144814653373983"><ele>95.0</ele><time>2026-03-22T14:39:46Z</time></trkpt><trkpt lat="45.3215405784762" lon="9.144719815255362"><ele>95.0</ele><time>2026-03-22T14:39:48Z</time></trkpt><trkpt lat="45.321512479222996" lon="9.144611918499004"><ele>95.0</ele><time>2026-03-22T14:39:50Z</time></trkpt><trkpt lat="45.321540953942886" lon="9.14451322382804"><ele>95.0</ele><time>2026-03-22T14:39:51Z</time></trkpt><trkpt lat="45.32148796303141" lon="9.144444271119436"><ele>95.0</ele><time>2026-03-22T14:39:52Z</time></trkpt><trkpt lat="45.321401054660384" lon="9.144434992122976"><ele>95.0</ele><time>2026-03-22T14:39:53Z</time></trkpt><trkpt lat="45.32129359784845" lon="9.144495984583406"><ele>95.0</ele><time>2026-03-22T14:39:54Z</time></trkpt><trkpt lat="45.321167398132694" lon="9.144567775146692"><ele>95.0</ele><time>2026-03-22T14:39:55Z</time></trkpt><trkpt lat="45.32101356896573" lon="9.14455893251517"><ele>94.66666666666667</ele><time>2026-03-22T14:39:56Z</time></trkpt><trkpt lat="45.32084203446585" lon="9.144578743265743"><ele>94.33333333333333</ele><time>2026-03-22T14:39:57Z</time></trkpt><trkpt lat="45.3206735314181" lon="9.144598960566444"><ele>94.0</ele><time>2026-03-22T14:39:58Z</time></trkpt><trkpt lat="45.320526571880286" lon="9.14461675998486"><ele>93.4</ele><time>2026-03-22T14:39:59Z</time></trkpt><trkpt lat="45.32039404501515" lon="9.144631889819802"><ele>92.80000000000001</ele><time>2026-03-22T14:40:00Z</time></trkpt><trkpt lat="45.32028367489194" lon="9.144644490087419"><ele>92.19999999999999</ele><time>2026-03-22T14:40:01Z</time></trkpt><trkpt lat="45.32019270148764" lon="9.144677405888201"><ele>91.6</ele><time>2026-03-22T14:40:02Z</time></trkpt><trkpt lat="45.32010347056256" lon="9.14463774835775"><ele>91.0</ele><time>2026-03-22T14:40:03Z</time></trkpt><trkpt lat="45.32000094743966" lon="9.144629746804512"><ele>91.0</ele><time>2026-03-22T14:40:04Z</time></trkpt><trkpt lat="45.31987380831158" lon="9.144677793365862"><ele>91.0</ele><time>2026-03-22T14:40:05Z</time></trkpt><trkpt lat="45.31972635994002" lon="9.14474654211225"><ele>91.0</ele><time>2026-03-22T14:40:06Z</time></trkpt><trkpt lat="45.31955352104501" lon="9.144724931169018"><ele>91.33333333333333</ele><time>2026-03-22T14:40:07Z</time></trkpt><trkpt lat="45.31934563271969" lon="9.144750467075228"><ele>91.66666666666667</ele><time>2026-03-22T14:40:08Z</time></trkpt><trkpt lat="45.31914553200407" lon="9.144774564152952"><ele>92.0</ele><time>2026-03-22T14:40:09Z</time></trkpt><trkpt lat="45.31893747012901" lon="9.144799409596654"><ele>91.66666666666667</ele><time>2026-03-22T14:40:10Z</time></trkpt><trkpt lat="45.3187270269209" lon="9.144824419581921"><ele>91.33333333333333</ele><time>2026-03-22T14:40:11Z</time></trkpt><trkpt lat="45.31852387287705" lon="9.144848565305175"><ele>91.0</ele><time>2026-03-22T14:40:12Z</time></trkpt><trkpt lat="45.318328086636406" lon="9.144872268081778"><ele>91.66666666666666</ele><time>2026-03-22T14:40:13Z</time></trkpt><trkpt lat="45.31813758118262" lon="9.144891057642965"><ele>92.33333333333333</ele><time>2026-03-22T14:40:14Z</time></trkpt><trkpt lat="45.31795353942293" lon="9.144909471640677"><ele>93.0</ele><time>2026-03-22T14:40:15Z</time></trkpt><trkpt lat="45.317769953498505" lon="9.144929950580648"><ele>93.33333333333333</ele><time>2026-03-22T14:40:16Z</time></trkpt><trkpt lat="45.31758806958327" lon="9.14494387152175"><ele>93.66666666666666</ele><time>2026-03-22T14:40:17Z</time></trkpt><trkpt lat="45.317403067582084" lon="9.144945840748715"><ele>94.0</ele><time>2026-03-22T14:40:18Z</time></trkpt><trkpt lat="45.3172202085165" lon="9.144931394343496"><ele>94.0</ele><time>2026-03-22T14:40:19Z</time></trkpt><trkpt lat="45.31703763569546" lon="9.14489910900369"><ele>94.0</ele><time>2026-03-22T14:40:20Z</time></trkpt><trkpt lat="45.31685434020471" lon="9.144848651594534"><ele>94.0</ele><time>2026-03-22T14:40:21Z</time></trkpt><trkpt lat="45.316672834081814" lon="9.144779884104228"><ele>94.0</ele><time>2026-03-22T14:40:22Z</time></trkpt><trkpt lat="45.316495390927706" lon="9.144692794178741"><ele>94.0</ele><time>2026-03-22T14:40:23Z</time></trkpt><trkpt lat="45.31631613222677" lon="9.144611705572686"><ele>94.0</ele><time>2026-03-22T14:40:24Z</time></trkpt><trkpt lat="45.3161460418206" lon="9.144500136272935"><ele>93.33333333333333</ele><time>2026-03-22T14:40:25Z</time></trkpt><trkpt lat="45.31597819840377" lon="9.144386657097181"><ele>92.66666666666667</ele><time>2026-03-22T14:40:26Z</time></trkpt><trkpt lat="45.31580781236906" lon="9.144278158997484"><ele>92.0</ele><time>2026-03-22T14:40:27Z</time></trkpt><trkpt lat="45.31564155100749" lon="9.144166492259869"><ele>92.0</ele><time>2026-03-22T14:40:28Z</time></trkpt><trkpt lat="45.31548177466683" lon="9.14404799197045"><ele>92.0</ele><time>2026-03-22T14:40:29Z</time></trkpt><trkpt lat="45.31532608653829" lon="9.143915869695336"><ele>92.0</ele><time>2026-03-22T14:40:30Z</time></trkpt><trkpt lat="45.31517353526818" lon="9.14376650781164"><ele>91.66666666666667</ele><time>2026-03-22T14:40:31Z</time></trkpt><trkpt lat="45.31503911722473" lon="9.143619011110118"><ele>91.33333333333333</ele><time>2026-03-22T14:40:32Z</time></trkpt><trkpt lat="45.314918033732" lon="9.143477270250832"><ele>91.0</ele><time>2026-03-22T14:40:33Z</time></trkpt><trkpt lat="45.31480773481847" lon="9.143340977251146"><ele>91.19999999999999</ele><time>2026-03-22T14:40:34Z</time></trkpt><trkpt lat="45.314712594941994" lon="9.143215639765982"><ele>91.39999999999999</ele><time>2026-03-22T14:40:35Z</time></trkpt><trkpt lat="45.314636985849475" lon="9.143104428488838"><ele>91.6</ele><time>2026-03-22T14:40:36Z</time></trkpt><trkpt lat="45.314581322258476" lon="9.14299541121426"><ele>91.8</ele><time>2026-03-22T14:40:37Z</time></trkpt><trkpt lat="45.31451062982618" lon="9.142897940345534"><ele>92.0</ele><time>2026-03-22T14:40:38Z</time></trkpt><trkpt lat="45.314495202326974" lon="9.142740847773206"><ele>92.39999999999999</ele><time>2026-03-22T14:40:40Z</time></trkpt><trkpt lat="45.31449446541759" lon="9.142603316777521"><ele>92.8</ele><time>2026-03-22T14:40:42Z</time></trkpt><trkpt lat="45.314511000351885" lon="9.142493050335334"><ele>93.2</ele><time>2026-03-22T14:40:43Z</time></trkpt><trkpt lat="45.31451887928679" lon="9.14230640148179"><ele>93.6</ele><time>2026-03-22T14:40:45Z</time></trkpt><trkpt lat="45.31445229150998" lon="9.142241023703892"><ele>94.0</ele><time>2026-03-22T14:40:46Z</time></trkpt><trkpt lat="45.31437257856629" lon="9.142165844723259"><ele>94.0</ele><time>2026-03-22T14:40:47Z</time></trkpt><trkpt lat="45.31424370238623" lon="9.142171733647887"><ele>94.0</ele><time>2026-03-22T14:40:48Z</time></trkpt><trkpt lat="45.31410945353089" lon="9.142306380221807"><ele>94.0</ele><time>2026-03-22T14:40:49Z</time></trkpt><trkpt lat="45.31396415518366" lon="9.142384929048468"><ele>94.0</ele><time>2026-03-22T14:40:50Z</time></trkpt><trkpt lat="45.313827032924124" lon="9.14236523924218"><ele>94.0</ele><time>2026-03-22T14:40:51Z</time></trkpt><trkpt lat="45.31365088052312" lon="9.142393010828487"><ele>94.0</ele><time>2026-03-22T14:40:52Z</time></trkpt><trkpt lat="45.31347814027743" lon="9.142435352433916"><ele>94.0</ele><time>2026-03-22T14:40:53Z</time></trkpt><trkpt lat="45.31332379621685" lon="9.142478457019621"><ele>94.0</ele><time>2026-03-22T14:40:54Z</time></trkpt><trkpt lat="45.31318332288543" lon="9.142519644008889"><ele>94.0</ele><time>2026-03-22T14:40:55Z</time></trkpt><trkpt lat="45.313051083229944" lon="9.142558623319525"><ele>94.0</ele><time>2026-03-22T14:40:56Z</time></trkpt><trkpt lat="45.312925525839944" lon="9.142597552415507"><ele>94.0</ele><time>2026-03-22T14:40:57Z</time></trkpt><trkpt lat="45.312800643503024" lon="9.142639224019376"><ele>93.75</ele><time>2026-03-22T14:40:58Z</time></trkpt><trkpt lat="45.31268228320738" lon="9.142681437030124"><ele>93.5</ele><time>2026-03-22T14:40:59Z</time></trkpt><trkpt lat="45.31256506094084" lon="9.142724448002754"><ele>93.25</ele><time>2026-03-22T14:41:00Z</time></trkpt><trkpt lat="45.31244959409884" lon="9.14277144271726"><ele>93.0</ele><time>2026-03-22T14:41:01Z</time></trkpt><trkpt lat="45.312329612672904" lon="9.142820274855149"><ele>93.0</ele><time>2026-03-22T14:41:02Z</time></trkpt><trkpt lat="45.31220232026313" lon="9.142872991974816"><ele>93.0</ele><time>2026-03-22T14:41:03Z</time></trkpt><trkpt lat="45.31206234848869" lon="9.14293115831845"><ele>93.0</ele><time>2026-03-22T14:41:04Z</time></trkpt><trkpt lat="45.311912953016424" lon="9.142993240737802"><ele>93.0</ele><time>2026-03-22T14:41:05Z</time></trkpt><trkpt lat="45.311757111658245" lon="9.143056641353395"><ele>93.0</ele><time>2026-03-22T14:41:06Z</time></trkpt><trkpt lat="45.31158916785935" lon="9.143134868502647"><ele>93.0</ele><time>2026-03-22T14:41:07Z</time></trkpt><trkpt lat="45.311423363773486" lon="9.14321328104963"><ele>93.0</ele><time>2026-03-22T14:41:08Z</time></trkpt><trkpt lat="45.3112614713416" lon="9.143283999937704"><ele>92.33333333333333</ele><time>2026-03-22T14:41:09Z</time></trkpt><trkpt lat="45.31109313385496" lon="9.143355008281794"><ele>91.66666666666666</ele><time>2026-03-22T14:41:10Z</time></trkpt><trkpt lat="45.31092839979081" lon="9.143419976463528"><ele>91.0</ele><time>2026-03-22T14:41:11Z</time></trkpt><trkpt lat="45.31076685475" lon="9.14347823073243"><ele>91.0</ele><time>2026-03-22T14:41:12Z</time></trkpt><trkpt lat="45.310601138325396" lon="9.143531352093897"><ele>91.0</ele><time>2026-03-22T14:41:13Z</time></trkpt><trkpt lat="45.310434880759566" lon="9.143583691612397"><ele>91.0</ele><time>2026-03-22T14:41:14Z</time></trkpt><trkpt lat="45.31026758775221" lon="9.143634486123682"><ele>90.66666666666666</ele><time>2026-03-22T14:41:15Z</time></trkpt><trkpt lat="45.31009931905756" lon="9.14368343460575"><ele>90.33333333333333</ele><time>2026-03-22T14:41:16Z</time></trkpt><trkpt lat="45.30992897440014" lon="9.143726950090334"><ele>90.0</ele><time>2026-03-22T14:41:17Z</time></trkpt><trkpt lat="45.30975681986477" lon="9.143769026456992"><ele>90.33333333333333</ele><time>2026-03-22T14:41:18Z</time></trkpt><trkpt lat="45.309585554171335" lon="9.143810295564482"><ele>90.66666666666666</ele><time>2026-03-22T14:41:19Z</time></trkpt><trkpt lat="45.30941406704555" lon="9.143850268356532"><ele>91.0</ele><time>2026-03-22T14:41:20Z</time></trkpt><trkpt lat="45.30924384442143" lon="9.143889946391893"><ele>91.0</ele><time>2026-03-22T14:41:21Z</time></trkpt><trkpt lat="45.30907413488381" lon="9.143930916212362"><ele>91.0</ele><time>2026-03-22T14:41:22Z</time></trkpt><trkpt lat="45.30890922449567" lon="9.143974398980424"><ele>91.0</ele><time>2026-03-22T14:41:23Z</time></trkpt><trkpt lat="45.308745943641696" lon="9.144020603970777"><ele>92.0</ele><time>2026-03-22T14:41:24Z</time></trkpt><trkpt lat="45.30858624509364" lon="9.144071493736167"><ele>93.0</ele><time>2026-03-22T14:41:25Z</time></trkpt><trkpt lat="45.30842980721147" lon="9.144121692116236"><ele>94.0</ele><time>2026-03-22T14:41:26Z</time></trkpt><trkpt lat="45.308276251499905" lon="9.144167043178244"><ele>94.0</ele><time>2026-03-22T14:41:27Z</time></trkpt><trkpt lat="45.308122950865304" lon="9.144208456131956"><ele>94.0</ele><time>2026-03-22T14:41:28Z</time></trkpt><trkpt lat="45.30796827082145" lon="9.14424339195296"><ele>94.0</ele><time>2026-03-22T14:41:29Z</time></trkpt><trkpt lat="45.30780810073268" lon="9.144277080247866"><ele>95.33333333333333</ele><time>2026-03-22T14:41:30Z</time></trkpt><trkpt lat="45.3076477477439" lon="9.144310807010056"><ele>96.66666666666666</ele><time>2026-03-22T14:41:31Z</time></trkpt><trkpt lat="45.307488159909866" lon="9.144345136372923"><ele>98.0</ele><time>2026-03-22T14:41:32Z</time></trkpt><trkpt lat="45.30733132898734" lon="9.144379922175691"><ele>98.33333333333333</ele><time>2026-03-22T14:41:33Z</time></trkpt><trkpt lat="45.307175623741095" lon="9.144416843108756"><ele>98.66666666666666</ele><time>2026-03-22T14:41:34Z</time></trkpt><trkpt lat="45.30702215292145" lon="9.144458069198187"><ele>99.0</ele><time>2026-03-22T14:41:35Z</time></trkpt><trkpt lat="45.306863863839745" lon="9.14450862189801"><ele>99.0</ele><time>2026-03-22T14:41:36Z</time></trkpt><trkpt lat="45.30671101499718" lon="9.144564454111379"><ele>99.0</ele><time>2026-03-22T14:41:37Z</time></trkpt><trkpt lat="45.30656092284832" lon="9.144621011869871"><ele>99.0</ele><time>2026-03-22T14:41:38Z</time></trkpt><trkpt lat="45.306412836602185" lon="9.144679346954607"><ele>99.66666666666666</ele><time>2026-03-22T14:41:39Z</time></trkpt><trkpt lat="45.30626501945752" lon="9.14474418569332"><ele>100.33333333333333</ele><time>2026-03-22T14:41:40Z</time></trkpt><trkpt lat="45.30612315272495" lon="9.144813425387095"><ele>101.0</ele><time>2026-03-22T14:41:41Z</time></trkpt><trkpt lat="45.30598443816952" lon="9.14488112659166"><ele>99.33333333333333</ele><time>2026-03-22T14:41:42Z</time></trkpt><trkpt lat="45.305838499369465" lon="9.144955061458278"><ele>97.66666666666666</ele><time>2026-03-22T14:41:43Z</time></trkpt><trkpt lat="45.30569482276416" lon="9.145034770827008"><ele>96.0</ele><time>2026-03-22T14:41:44Z</time></trkpt><trkpt lat="45.30555274484803" lon="9.145118911216354"><ele>96.0</ele><time>2026-03-22T14:41:45Z</time></trkpt><trkpt lat="45.30541246231302" lon="9.1452051117491"><ele>96.0</ele><time>2026-03-22T14:41:46Z</time></trkpt><trkpt lat="45.305272213670555" lon="9.145291214991582"><ele>96.0</ele><time>2026-03-22T14:41:47Z</time></trkpt><trkpt lat="45.305133238846395" lon="9.145376536222704"><ele>96.0</ele><time>2026-03-22T14:41:48Z</time></trkpt><trkpt lat="45.30499540517944" lon="9.145461157142565"><ele>96.0</ele><time>2026-03-22T14:41:49Z</time></trkpt><trkpt lat="45.30485751735482" lon="9.145547607327023"><ele>96.0</ele><time>2026-03-22T14:41:50Z</time></trkpt><trkpt lat="45.30472231552791" lon="9.145631469097074"><ele>96.0</ele><time>2026-03-22T14:41:51Z</time></trkpt><trkpt lat="45.30458860267492" lon="9.145715697840405"><ele>95.0</ele><time>2026-03-22T14:41:52Z</time></trkpt><trkpt lat="45.30445716353651" lon="9.145800184959997"><ele>94.0</ele><time>2026-03-22T14:41:53Z</time></trkpt><trkpt lat="45.304329742225605" lon="9.145882281800116"><ele>93.0</ele><time>2026-03-22T14:41:54Z</time></trkpt><trkpt lat="45.30421028901009" lon="9.145961436988248"><ele>92.0</ele><time>2026-03-22T14:41:55Z</time></trkpt><trkpt lat="45.30409824115641" lon="9.146036815461805"><ele>92.0</ele><time>2026-03-22T14:41:56Z</time></trkpt><trkpt lat="45.303987305169045" lon="9.14610909321188"><ele>92.0</ele><time>2026-03-22T14:41:57Z</time></trkpt><trkpt lat="45.303878956635295" lon="9.146168144349916"><ele>92.0</ele><time>2026-03-22T14:41:58Z</time></trkpt><trkpt lat="45.30377589227939" lon="9.146196989733173"><ele>92.0</ele><time>2026-03-22T14:41:59Z</time></trkpt><trkpt lat="45.30367164520835" lon="9.146201088854932"><ele>92.0</ele><time>2026-03-22T14:42:00Z</time></trkpt><trkpt lat="45.30356460715576" lon="9.146183715107636"><ele>92.0</ele><time>2026-03-22T14:42:01Z</time></trkpt><trkpt lat="45.303472330558144" lon="9.146094861619147"><ele>92.0</ele><time>2026-03-22T14:42:02Z</time></trkpt><trkpt lat="45.30338869119741" lon="9.145970041384444"><ele>92.0</ele><time>2026-03-22T14:42:03Z</time></trkpt><trkpt lat="45.3033217127257" lon="9.145825201122793"><ele>92.0</ele><time>2026-03-22T14:42:04Z</time></trkpt><trkpt lat="45.303259351777555" lon="9.145673085542395"><ele>92.0</ele><time>2026-03-22T14:42:05Z</time></trkpt><trkpt lat="45.303196075589014" lon="9.145513018854775"><ele>92.0</ele><time>2026-03-22T14:42:06Z</time></trkpt><trkpt lat="45.30313541791608" lon="9.145347535730055"><ele>92.0</ele><time>2026-03-22T14:42:07Z</time></trkpt><trkpt lat="45.30307901325659" lon="9.145182466642034"><ele>92.0</ele><time>2026-03-22T14:42:08Z</time></trkpt><trkpt lat="45.30302788747438" lon="9.145013684663919"><ele>92.75</ele><time>2026-03-22T14:42:09Z</time></trkpt><trkpt lat="45.302979649934464" lon="9.144837499327055"><ele>93.5</ele><time>2026-03-22T14:42:10Z</time></trkpt><trkpt lat="45.30292575803996" lon="9.14466684634054"><ele>94.25</ele><time>2026-03-22T14:42:11Z</time></trkpt><trkpt lat="45.30286827413761" lon="9.144496939073745"><ele>95.0</ele><time>2026-03-22T14:42:12Z</time></trkpt><trkpt lat="45.302805997596735" lon="9.144337219605864"><ele>95.0</ele><time>2026-03-22T14:42:13Z</time></trkpt><trkpt lat="45.302744521094525" lon="9.144182776445996"><ele>95.0</ele><time>2026-03-22T14:42:14Z</time></trkpt><trkpt lat="45.302675823379275" lon="9.144031078714749"><ele>95.0</ele><time>2026-03-22T14:42:15Z</time></trkpt><trkpt lat="45.30260324820618" lon="9.143891679791755"><ele>95.0</ele><time>2026-03-22T14:42:16Z</time></trkpt><trkpt lat="45.302525257441054" lon="9.143761347054626"><ele>95.2</ele><time>2026-03-22T14:42:17Z</time></trkpt><trkpt lat="45.30244568767854" lon="9.143648346424657"><ele>95.4</ele><time>2026-03-22T14:42:18Z</time></trkpt><trkpt lat="45.302366020414986" lon="9.143543795453697"><ele>95.6</ele><time>2026-03-22T14:42:19Z</time></trkpt><trkpt lat="45.302284907851444" lon="9.143462287637249"><ele>95.8</ele><time>2026-03-22T14:42:20Z</time></trkpt><trkpt lat="45.30220586526018" lon="9.143391068757165"><ele>96.0</ele><time>2026-03-22T14:42:21Z</time></trkpt><trkpt lat="45.30213208844218" lon="9.143327708810258"><ele>96.0</ele><time>2026-03-22T14:42:22Z</time></trkpt><trkpt lat="45.30206844988375" lon="9.143270323341449"><ele>96.0</ele><time>2026-03-22T14:42:23Z</time></trkpt><trkpt lat="45.30198956409683" lon="9.143171698529917"><ele>96.0</ele><time>2026-03-22T14:42:25Z</time></trkpt><trkpt lat="45.30194440482633" lon="9.143049801256812"><ele>96.0</ele><time>2026-03-22T14:42:27Z</time></trkpt><trkpt lat="45.30191533878799" lon="9.142901477375652"><ele>96.0</ele><time>2026-03-22T14:42:29Z</time></trkpt><trkpt lat="45.30183716681293" lon="9.142801354562947"><ele>96.0</ele><time>2026-03-22T14:42:31Z</time></trkpt><trkpt lat="45.30178434828942" lon="9.142727997238747"><ele>96.0</ele><time>2026-03-22T14:42:32Z</time></trkpt><trkpt lat="45.30171405021694" lon="9.142710251154854"><ele>96.0</ele><time>2026-03-22T14:42:33Z</time></trkpt><trkpt lat="45.301629869748766" lon="9.14289723645244"><ele>96.0</ele><time>2026-03-22T14:42:34Z</time></trkpt><trkpt lat="45.30154286795297" lon="9.1429503426774"><ele>96.0</ele><time>2026-03-22T14:42:35Z</time></trkpt><trkpt lat="45.301430353864035" lon="9.142947236825785"><ele>96.75</ele><time>2026-03-22T14:42:36Z</time></trkpt><trkpt lat="45.30130404494019" lon="9.142901984349088"><ele>97.5</ele><time>2026-03-22T14:42:37Z</time></trkpt><trkpt lat="45.30117743716632" lon="9.14279850404506"><ele>98.25</ele><time>2026-03-22T14:42:38Z</time></trkpt><trkpt lat="45.30105794277245" lon="9.14274789612569"><ele>99.0</ele><time>2026-03-22T14:42:39Z</time></trkpt><trkpt lat="45.300933761153274" lon="9.142696482033621"><ele>99.0</ele><time>2026-03-22T14:42:40Z</time></trkpt><trkpt lat="45.300818029878585" lon="9.142648731022927"><ele>99.0</ele><time>2026-03-22T14:42:41Z</time></trkpt><trkpt lat="45.300698335843656" lon="9.14259959528819"><ele>99.0</ele><time>2026-03-22T14:42:42Z</time></trkpt><trkpt lat="45.30057627908798" lon="9.142549489628644"><ele>99.0</ele><time>2026-03-22T14:42:43Z</time></trkpt><trkpt lat="45.30045013503254" lon="9.14249770609506"><ele>99.25</ele><time>2026-03-22T14:42:44Z</time></trkpt><trkpt lat="45.30033365841407" lon="9.142449891135"><ele>99.5</ele><time>2026-03-22T14:42:45Z</time></trkpt><trkpt lat="45.300212296220025" lon="9.142400070611574"><ele>99.75</ele><time>2026-03-22T14:42:46Z</time></trkpt><trkpt lat="45.30009466450144" lon="9.142351781482127"><ele>100.0</ele><time>2026-03-22T14:42:47Z</time></trkpt><trkpt lat="45.299988785330825" lon="9.142308316901167"><ele>100.0</ele><time>2026-03-22T14:42:48Z</time></trkpt><trkpt lat="45.299883519417065" lon="9.14226510406465"><ele>100.0</ele><time>2026-03-22T14:42:49Z</time></trkpt><trkpt lat="45.299775552754646" lon="9.142220782554947"><ele>100.0</ele><time>2026-03-22T14:42:50Z</time></trkpt><trkpt lat="45.299664796834726" lon="9.142175316009354"><ele>100.0</ele><time>2026-03-22T14:42:51Z</time></trkpt><trkpt lat="45.299550571789496" lon="9.142127821676075"><ele>99.25</ele><time>2026-03-22T14:42:52Z</time></trkpt><trkpt lat="45.29942500391188" lon="9.14209668665559"><ele>98.5</ele><time>2026-03-22T14:42:53Z</time></trkpt><trkpt lat="45.29930529354409" lon="9.142032287061836"><ele>97.75</ele><time>2026-03-22T14:42:54Z</time></trkpt><trkpt lat="45.299183934019766" lon="9.141952752311264"><ele>97.0</ele><time>2026-03-22T14:42:55Z</time></trkpt><trkpt lat="45.299064397685285" lon="9.141868220106444"><ele>97.0</ele><time>2026-03-22T14:42:56Z</time></trkpt><trkpt lat="45.298944690010934" lon="9.141797737657889"><ele>97.0</ele><time>2026-03-22T14:42:57Z</time></trkpt><trkpt lat="45.29881991420308" lon="9.141722121462035"><ele>97.0</ele><time>2026-03-22T14:42:58Z</time></trkpt><trkpt lat="45.29867110715279" lon="9.141716779223763"><ele>97.0</ele><time>2026-03-22T14:42:59Z</time></trkpt><trkpt lat="45.29851229462613" lon="9.141755957532517"><ele>96.0</ele><time>2026-03-22T14:43:00Z</time></trkpt><trkpt lat="45.29835459709197" lon="9.141800894599479"><ele>95.0</ele><time>2026-03-22T14:43:01Z</time></trkpt><trkpt lat="45.298208989617194" lon="9.141842387303479"><ele>94.0</ele><time>2026-03-22T14:43:02Z</time></trkpt><trkpt lat="45.2980579918802" lon="9.141885420290453"><ele>92.66666666666666</ele><time>2026-03-22T14:43:03Z</time></trkpt><trkpt lat="45.29791055392976" lon="9.141927479122295"><ele>91.33333333333333</ele><time>2026-03-22T14:43:04Z</time></trkpt><trkpt lat="45.29776195809245" lon="9.141969868019816"><ele>90.0</ele><time>2026-03-22T14:43:05Z</time></trkpt><trkpt lat="45.297614753618205" lon="9.14201186028493"><ele>90.0</ele><time>2026-03-22T14:43:06Z</time></trkpt><trkpt lat="45.297469674054895" lon="9.142050624273482"><ele>90.0</ele><time>2026-03-22T14:43:07Z</time></trkpt><trkpt lat="45.29732273060476" lon="9.142073126652521"><ele>90.0</ele><time>2026-03-22T14:43:08Z</time></trkpt><trkpt lat="45.29717239306812" lon="9.142078113187075"><ele>90.0</ele><time>2026-03-22T14:43:09Z</time></trkpt><trkpt lat="45.29701751689405" lon="9.142077103858028"><ele>89.66666666666667</ele><time>2026-03-22T14:43:10Z</time></trkpt><trkpt lat="45.296862656634204" lon="9.142072304481907"><ele>89.33333333333334</ele><time>2026-03-22T14:43:11Z</time></trkpt><trkpt lat="45.29670768668434" lon="9.14206528304432"><ele>89.0</ele><time>2026-03-22T14:43:12Z</time></trkpt><trkpt lat="45.296550915918516" lon="9.142057932708669"><ele>88.66666666666667</ele><time>2026-03-22T14:43:13Z</time></trkpt><trkpt lat="45.29639332416955" lon="9.142048651237616"><ele>88.33333333333333</ele><time>2026-03-22T14:43:14Z</time></trkpt><trkpt lat="45.29623969172736" lon="9.142039627234015"><ele>88.0</ele><time>2026-03-22T14:43:15Z</time></trkpt><trkpt lat="45.29608251496798" lon="9.142030395084799"><ele>88.0</ele><time>2026-03-22T14:43:16Z</time></trkpt><trkpt lat="45.295925294809216" lon="9.142015601963777"><ele>88.0</ele><time>2026-03-22T14:43:17Z</time></trkpt><trkpt lat="45.29576298137705" lon="9.141997861228338"><ele>88.0</ele><time>2026-03-22T14:43:18Z</time></trkpt><trkpt lat="45.29560117254199" lon="9.141980175626774"><ele>88.66666666666666</ele><time>2026-03-22T14:43:19Z</time></trkpt><trkpt lat="45.295440682722024" lon="9.141960691016061"><ele>89.33333333333333</ele><time>2026-03-22T14:43:20Z</time></trkpt><trkpt lat="45.295278691421096" lon="9.14193942567128"><ele>90.0</ele><time>2026-03-22T14:43:21Z</time></trkpt><trkpt lat="45.29511793405736" lon="9.141918322315762"><ele>90.0</ele><time>2026-03-22T14:43:22Z</time></trkpt><trkpt lat="45.29495984660985" lon="9.141897569436109"><ele>90.0</ele><time>2026-03-22T14:43:23Z</time></trkpt><trkpt lat="45.29480853767951" lon="9.14187770641891"><ele>90.0</ele><time>2026-03-22T14:43:24Z</time></trkpt><trkpt lat="45.29466885569287" lon="9.141861685356249"><ele>90.0</ele><time>2026-03-22T14:43:25Z</time></trkpt><trkpt lat="45.29453573610413" lon="9.14185883429809"><ele>90.0</ele><time>2026-03-22T14:43:26Z</time></trkpt><trkpt lat="45.29440359106269" lon="9.141875316210959"><ele>90.0</ele><time>2026-03-22T14:43:27Z</time></trkpt><trkpt lat="45.29427543864392" lon="9.141909213024011"><ele>90.0</ele><time>2026-03-22T14:43:28Z</time></trkpt><trkpt lat="45.29416135339955" lon="9.141944565365224"><ele>90.0</ele><time>2026-03-22T14:43:29Z</time></trkpt><trkpt lat="45.294059848570065" lon="9.141976019318596"><ele>90.0</ele><time>2026-03-22T14:43:30Z</time></trkpt><trkpt lat="45.293967633348245" lon="9.142004594654093"><ele>90.0</ele><time>2026-03-22T14:43:31Z</time></trkpt><trkpt lat="45.29388333174533" lon="9.142030717723632"><ele>90.0</ele><time>2026-03-22T14:43:32Z</time></trkpt><trkpt lat="45.29381362494754" lon="9.142052318269423"><ele>90.0</ele><time>2026-03-22T14:43:33Z</time></trkpt><trkpt lat="45.29369934051941" lon="9.142079504839257"><ele>89.8</ele><time>2026-03-22T14:43:35Z</time></trkpt><trkpt lat="45.29362372997339" lon="9.142003145061393"><ele>89.6</ele><time>2026-03-22T14:43:36Z</time></trkpt><trkpt lat="45.29355523059161" lon="9.14214860677299"><ele>89.4</ele><time>2026-03-22T14:43:37Z</time></trkpt><trkpt lat="45.29346906941518" lon="9.14222116962316"><ele>89.2</ele><time>2026-03-22T14:43:38Z</time></trkpt><trkpt lat="45.293364208532374" lon="9.142262820246225"><ele>89.0</ele><time>2026-03-22T14:43:39Z</time></trkpt><trkpt lat="45.29324765676215" lon="9.142291261581427"><ele>89.0</ele><time>2026-03-22T14:43:40Z</time></trkpt><trkpt lat="45.29311755386158" lon="9.142241451997236"><ele>89.0</ele><time>2026-03-22T14:43:41Z</time></trkpt><trkpt lat="45.29299548787692" lon="9.142271681477295"><ele>89.0</ele><time>2026-03-22T14:43:42Z</time></trkpt><trkpt lat="45.292868388689286" lon="9.142303157380733"><ele>89.0</ele><time>2026-03-22T14:43:43Z</time></trkpt><trkpt lat="45.29273680164086" lon="9.142335744763624"><ele>89.0</ele><time>2026-03-22T14:43:44Z</time></trkpt><trkpt lat="45.29261079653262" lon="9.142367253262881"><ele>89.0</ele><time>2026-03-22T14:43:45Z</time></trkpt><trkpt lat="45.29248346934022" lon="9.142400537770877"><ele>89.0</ele><time>2026-03-22T14:43:46Z</time></trkpt><trkpt lat="45.292351844780484" lon="9.142434945660158"><ele>89.0</ele><time>2026-03-22T14:43:47Z</time></trkpt><trkpt lat="45.29221384511486" lon="9.14247102000667"><ele>89.5</ele><time>2026-03-22T14:43:48Z</time></trkpt><trkpt lat="45.292071718763665" lon="9.142507982232752"><ele>90.0</ele><time>2026-03-22T14:43:49Z</time></trkpt><trkpt lat="45.291927855515056" lon="9.142544854761404"><ele>90.5</ele><time>2026-03-22T14:43:50Z</time></trkpt><trkpt lat="45.29178624090135" lon="9.142583142928954"><ele>91.0</ele><time>2026-03-22T14:43:51Z</time></trkpt><trkpt lat="45.29164314686172" lon="9.142621517340231"><ele>91.0</ele><time>2026-03-22T14:43:52Z</time></trkpt><trkpt lat="45.291499374509016" lon="9.142657366992045"><ele>91.0</ele><time>2026-03-22T14:43:53Z</time></trkpt><trkpt lat="45.291355073579176" lon="9.142693348446123"><ele>91.0</ele><time>2026-03-22T14:43:54Z</time></trkpt><trkpt lat="45.291210605940414" lon="9.14272937147134"><ele>91.0</ele><time>2026-03-22T14:43:55Z</time></trkpt><trkpt lat="45.29106434084849" lon="9.142765118702277"><ele>90.0</ele><time>2026-03-22T14:43:56Z</time></trkpt><trkpt lat="45.29091886041462" lon="9.142800481642393"><ele>89.0</ele><time>2026-03-22T14:43:57Z</time></trkpt><trkpt lat="45.29076784769386" lon="9.142838054607886"><ele>88.0</ele><time>2026-03-22T14:43:58Z</time></trkpt><trkpt lat="45.29061846413863" lon="9.142875448890623"><ele>88.33333333333333</ele><time>2026-03-22T14:43:59Z</time></trkpt><trkpt lat="45.290468232738704" lon="9.142912645130922"><ele>88.66666666666667</ele><time>2026-03-22T14:44:00Z</time></trkpt><trkpt lat="45.29031625380995" lon="9.14294835969101"><ele>89.0</ele><time>2026-03-22T14:44:01Z</time></trkpt><trkpt lat="45.290169694482124" lon="9.142974371437491"><ele>89.0</ele><time>2026-03-22T14:44:02Z</time></trkpt><trkpt lat="45.29001726860287" lon="9.142983700331994"><ele>89.0</ele><time>2026-03-22T14:44:03Z</time></trkpt><trkpt lat="45.28986373332076" lon="9.142983702590245"><ele>89.0</ele><time>2026-03-22T14:44:04Z</time></trkpt><trkpt lat="45.28971076123961" lon="9.142969516279136"><ele>89.0</ele><time>2026-03-22T14:44:05Z</time></trkpt><trkpt lat="45.289564155566616" lon="9.142946969737233"><ele>89.0</ele><time>2026-03-22T14:44:06Z</time></trkpt><trkpt lat="45.289424371150226" lon="9.142910990737304"><ele>89.0</ele><time>2026-03-22T14:44:07Z</time></trkpt><trkpt lat="45.28928507191415" lon="9.142867545084648"><ele>89.0</ele><time>2026-03-22T14:44:08Z</time></trkpt><trkpt lat="45.289148843361176" lon="9.1428272172328"><ele>89.0</ele><time>2026-03-22T14:44:09Z</time></trkpt><trkpt lat="45.28901417151078" lon="9.142787375929244"><ele>89.0</ele><time>2026-03-22T14:44:10Z</time></trkpt><trkpt lat="45.28888103968183" lon="9.142746436284458"><ele>89.0</ele><time>2026-03-22T14:44:11Z</time></trkpt><trkpt lat="45.28874717157906" lon="9.142705965056447"><ele>89.0</ele><time>2026-03-22T14:44:12Z</time></trkpt><trkpt lat="45.28861014396209" lon="9.142665675552397"><ele>88.75</ele><time>2026-03-22T14:44:13Z</time></trkpt><trkpt lat="45.288477151530984" lon="9.142627419023134"><ele>88.5</ele><time>2026-03-22T14:44:14Z</time></trkpt><trkpt lat="45.28834492966943" lon="9.142590130948223"><ele>88.25</ele><time>2026-03-22T14:44:15Z</time></trkpt><trkpt lat="45.28822964539558" lon="9.142557619393157"><ele>88.0</ele><time>2026-03-22T14:44:16Z</time></trkpt><trkpt lat="45.288121298826496" lon="9.142525853195574"><ele>88.0</ele><time>2026-03-22T14:44:17Z</time></trkpt><trkpt lat="45.28801870257624" lon="9.142515214903367"><ele>88.0</ele><time>2026-03-22T14:44:18Z</time></trkpt><trkpt lat="45.28793146359421" lon="9.142457692622248"><ele>88.0</ele><time>2026-03-22T14:44:19Z</time></trkpt><trkpt lat="45.28786270889681" lon="9.142381025414274"><ele>88.0</ele><time>2026-03-22T14:44:20Z</time></trkpt><trkpt lat="45.28777872864255" lon="9.14232438148178"><ele>88.0</ele><time>2026-03-22T14:44:21Z</time></trkpt><trkpt lat="45.287716561288555" lon="9.14221502685718"><ele>88.2</ele><time>2026-03-22T14:44:22Z</time></trkpt><trkpt lat="45.28765476283866" lon="9.142105914808246"><ele>88.4</ele><time>2026-03-22T14:44:23Z</time></trkpt><trkpt lat="45.28759080551948" lon="9.141982927473185"><ele>88.60000000000001</ele><time>2026-03-22T14:44:24Z</time></trkpt><trkpt lat="45.287522127820544" lon="9.141868353697905"><ele>88.80000000000001</ele><time>2026-03-22T14:44:25Z</time></trkpt><trkpt lat="45.287439550720904" lon="9.141755245589827"><ele>89.0</ele><time>2026-03-22T14:44:26Z</time></trkpt><trkpt lat="45.28734129997328" lon="9.141642999581103"><ele>88.75</ele><time>2026-03-22T14:44:27Z</time></trkpt><trkpt lat="45.287270691984" lon="9.141490052396028"><ele>88.5</ele><time>2026-03-22T14:44:28Z</time></trkpt><trkpt lat="45.287275824141204" lon="9.14125788788753"><ele>88.25</ele><time>2026-03-22T14:44:29Z</time></trkpt><trkpt lat="45.28727586036574" lon="9.141045910845005"><ele>88.0</ele><time>2026-03-22T14:44:30Z</time></trkpt><trkpt lat="45.28727586036898" lon="9.140803875671159"><ele>87.33333333333333</ele><time>2026-03-22T14:44:31Z</time></trkpt><trkpt lat="45.2872758816454" lon="9.14057117758604"><ele>86.66666666666667</ele><time>2026-03-22T14:44:32Z</time></trkpt><trkpt lat="45.28727597393336" lon="9.14033764223269"><ele>86.0</ele><time>2026-03-22T14:44:33Z</time></trkpt><trkpt lat="45.28727606586893" lon="9.140104985576086"><ele>86.0</ele><time>2026-03-22T14:44:34Z</time></trkpt><trkpt lat="45.28727615813932" lon="9.139871482621084"><ele>86.0</ele><time>2026-03-22T14:44:35Z</time></trkpt><trkpt lat="45.287276251137136" lon="9.139636141155014"><ele>86.0</ele><time>2026-03-22T14:44:36Z</time></trkpt><trkpt lat="45.28727635213728" lon="9.139380549649324"><ele>86.0</ele><time>2026-03-22T14:44:37Z</time></trkpt><trkpt lat="45.28727644692754" lon="9.139140674026123"><ele>86.0</ele><time>2026-03-22T14:44:38Z</time></trkpt><trkpt lat="45.287276540608644" lon="9.138903608276705"><ele>86.0</ele><time>2026-03-22T14:44:39Z</time></trkpt><trkpt lat="45.28727663484074" lon="9.138665144835615"><ele>86.33333333333334</ele><time>2026-03-22T14:44:40Z</time></trkpt><trkpt lat="45.287276728207594" lon="9.138428877769915"><ele>86.66666666666667</ele><time>2026-03-22T14:44:41Z</time></trkpt><trkpt lat="45.287276760355454" lon="9.138193393918021"><ele>87.0</ele><time>2026-03-22T14:44:42Z</time></trkpt><trkpt lat="45.287276760353556" lon="9.137960496855863"><ele>87.0</ele><time>2026-03-22T14:44:43Z</time></trkpt><trkpt lat="45.287276760354096" lon="9.137727666238339"><ele>87.0</ele><time>2026-03-22T14:44:44Z</time></trkpt><trkpt lat="45.2872767603532" lon="9.137494881539633"><ele>87.0</ele><time>2026-03-22T14:44:45Z</time></trkpt><trkpt lat="45.28727676035312" lon="9.137261696910793"><ele>87.33333333333333</ele><time>2026-03-22T14:44:46Z</time></trkpt><trkpt lat="45.28727643364488" lon="9.137028685835894"><ele>87.66666666666666</ele><time>2026-03-22T14:44:47Z</time></trkpt><trkpt lat="45.28727596664251" lon="9.136796265888993"><ele>88.0</ele><time>2026-03-22T14:44:48Z</time></trkpt><trkpt lat="45.28727550548166" lon="9.13656675328284"><ele>88.0</ele><time>2026-03-22T14:44:49Z</time></trkpt><trkpt lat="45.287275062547444" lon="9.136346312753457"><ele>88.0</ele><time>2026-03-22T14:44:50Z</time></trkpt><trkpt lat="45.287272085511844" lon="9.136138087654698"><ele>88.0</ele><time>2026-03-22T14:44:51Z</time></trkpt><trkpt lat="45.287256368772994" lon="9.135940187040546"><ele>88.0</ele><time>2026-03-22T14:44:52Z</time></trkpt><trkpt lat="45.28722344890695" lon="9.135748443360947"><ele>88.25</ele><time>2026-03-22T14:44:53Z</time></trkpt><trkpt lat="45.287184086423395" lon="9.135551173624009"><ele>88.5</ele><time>2026-03-22T14:44:54Z</time></trkpt><trkpt lat="45.28711118886239" lon="9.135371344348227"><ele>88.75</ele><time>2026-03-22T14:44:55Z</time></trkpt><trkpt lat="45.287023045324695" lon="9.135202974410456"><ele>89.0</ele><time>2026-03-22T14:44:56Z</time></trkpt><trkpt lat="45.286913117449686" lon="9.135062915724012"><ele>89.0</ele><time>2026-03-22T14:44:57Z</time></trkpt><trkpt lat="45.28679002906601" lon="9.134940887320838"><ele>89.0</ele><time>2026-03-22T14:44:58Z</time></trkpt><trkpt lat="45.28666159992369" lon="9.13482955215365"><ele>89.0</ele><time>2026-03-22T14:44:59Z</time></trkpt><trkpt lat="45.28653053228597" lon="9.134718644591297"><ele>89.0</ele><time>2026-03-22T14:45:00Z</time></trkpt><trkpt lat="45.2863836716593" lon="9.13464853390132"><ele>89.0</ele><time>2026-03-22T14:45:01Z</time></trkpt><trkpt lat="45.28624370228358" lon="9.134601538281183"><ele>89.0</ele><time>2026-03-22T14:45:02Z</time></trkpt><trkpt lat="45.28611821594308" lon="9.13456880839508"><ele>89.0</ele><time>2026-03-22T14:45:03Z</time></trkpt><trkpt lat="45.28600181223256" lon="9.134546845435153"><ele>89.0</ele><time>2026-03-22T14:45:04Z</time></trkpt><trkpt lat="45.28589369721743" lon="9.13453181773525"><ele>89.0</ele><time>2026-03-22T14:45:05Z</time></trkpt><trkpt lat="45.28579220102012" lon="9.13452000030015"><ele>89.0</ele><time>2026-03-22T14:45:06Z</time></trkpt><trkpt lat="45.28569350824017" lon="9.134508509286125"><ele>89.0</ele><time>2026-03-22T14:45:07Z</time></trkpt><trkpt lat="45.28559456995376" lon="9.134484504806577"><ele>89.0</ele><time>2026-03-22T14:45:08Z</time></trkpt><trkpt lat="45.285500568360725" lon="9.134415130500111"><ele>89.2</ele><time>2026-03-22T14:45:09Z</time></trkpt><trkpt lat="45.285413940172724" lon="9.134329423305232"><ele>89.4</ele><time>2026-03-22T14:45:10Z</time></trkpt><trkpt lat="45.2853149215482" lon="9.13426695103511"><ele>89.6</ele><time>2026-03-22T14:45:11Z</time></trkpt><trkpt lat="45.28522440182881" lon="9.134168875325757"><ele>89.8</ele><time>2026-03-22T14:45:12Z</time></trkpt><trkpt lat="45.28512019175624" lon="9.13410362060197"><ele>90.0</ele><time>2026-03-22T14:45:13Z</time></trkpt><trkpt lat="45.285022592694574" lon="9.134012370939123"><ele>90.0</ele><time>2026-03-22T14:45:14Z</time></trkpt><trkpt lat="45.28492496771024" lon="9.133922328607472"><ele>90.0</ele><time>2026-03-22T14:45:15Z</time></trkpt><trkpt lat="45.28484192709948" lon="9.133812193553382"><ele>90.0</ele><time>2026-03-22T14:45:16Z</time></trkpt><trkpt lat="45.28481835412608" lon="9.133608790735236"><ele>90.0</ele><time>2026-03-22T14:45:17Z</time></trkpt><trkpt lat="45.284777392946744" lon="9.13344944375714"><ele>89.75</ele><time>2026-03-22T14:45:18Z</time></trkpt><trkpt lat="45.284738697982476" lon="9.133286433910461"><ele>89.5</ele><time>2026-03-22T14:45:19Z</time></trkpt><trkpt lat="45.28470143095148" lon="9.13311962217688"><ele>89.25</ele><time>2026-03-22T14:45:20Z</time></trkpt><trkpt lat="45.2846686017402" lon="9.132948110061932"><ele>89.0</ele><time>2026-03-22T14:45:21Z</time></trkpt><trkpt lat="45.28464109451339" lon="9.132768429563638"><ele>89.0</ele><time>2026-03-22T14:45:22Z</time></trkpt><trkpt lat="45.284619549029834" lon="9.132584480147814"><ele>89.0</ele><time>2026-03-22T14:45:23Z</time></trkpt><trkpt lat="45.284602625846176" lon="9.132392320604005"><ele>89.0</ele><time>2026-03-22T14:45:24Z</time></trkpt><trkpt lat="45.284588140838764" lon="9.132198596781715"><ele>89.0</ele><time>2026-03-22T14:45:25Z</time></trkpt><trkpt lat="45.28457278466239" lon="9.132000143391966"><ele>89.0</ele><time>2026-03-22T14:45:26Z</time></trkpt><trkpt lat="45.28455912943378" lon="9.131802343427713"><ele>89.0</ele><time>2026-03-22T14:45:27Z</time></trkpt><trkpt lat="45.284547316833496" lon="9.131605404453362"><ele>89.0</ele><time>2026-03-22T14:45:28Z</time></trkpt><trkpt lat="45.28454089841679" lon="9.13140401647852"><ele>89.0</ele><time>2026-03-22T14:45:29Z</time></trkpt><trkpt lat="45.28454384634417" lon="9.131198998111374"><ele>89.0</ele><time>2026-03-22T14:45:30Z</time></trkpt><trkpt lat="45.28454837841915" lon="9.130995398142575"><ele>89.0</ele><time>2026-03-22T14:45:31Z</time></trkpt><trkpt lat="45.284552172314356" lon="9.130789742337223"><ele>89.0</ele><time>2026-03-22T14:45:32Z</time></trkpt><trkpt lat="45.284555782587006" lon="9.130579290382935"><ele>89.0</ele><time>2026-03-22T14:45:33Z</time></trkpt><trkpt lat="45.28455943714126" lon="9.130362620240767"><ele>89.25</ele><time>2026-03-22T14:45:34Z</time></trkpt><trkpt lat="45.284562820485796" lon="9.130160255983295"><ele>89.5</ele><time>2026-03-22T14:45:35Z</time></trkpt><trkpt lat="45.2845661793674" lon="9.129957598793915"><ele>89.75</ele><time>2026-03-22T14:45:36Z</time></trkpt><trkpt lat="45.28456946051007" lon="9.129752268421822"><ele>90.0</ele><time>2026-03-22T14:45:37Z</time></trkpt><trkpt lat="45.28457317245941" lon="9.12954544954678"><ele>90.0</ele><time>2026-03-22T14:45:38Z</time></trkpt><trkpt lat="45.2845773159195" lon="9.129340811548811"><ele>90.0</ele><time>2026-03-22T14:45:39Z</time></trkpt><trkpt lat="45.28458128853171" lon="9.129140152562083"><ele>90.0</ele><time>2026-03-22T14:45:40Z</time></trkpt><trkpt lat="45.284584828165" lon="9.128938420713176"><ele>90.0</ele><time>2026-03-22T14:45:41Z</time></trkpt><trkpt lat="45.2845883282815" lon="9.128736906377835"><ele>90.25</ele><time>2026-03-22T14:45:42Z</time></trkpt><trkpt lat="45.28459174074706" lon="9.128532412433485"><ele>90.5</ele><time>2026-03-22T14:45:43Z</time></trkpt><trkpt lat="45.28459515363126" lon="9.128327893801222"><ele>90.75</ele><time>2026-03-22T14:45:44Z</time></trkpt><trkpt lat="45.28463536956212" lon="9.12812159192973"><ele>91.0</ele><time>2026-03-22T14:45:45Z</time></trkpt><trkpt lat="45.284640068902355" lon="9.127911125063635"><ele>91.0</ele><time>2026-03-22T14:45:46Z</time></trkpt><trkpt lat="45.28464423923615" lon="9.127701644457062"><ele>91.0</ele><time>2026-03-22T14:45:47Z</time></trkpt><trkpt lat="45.28464784048175" lon="9.127492375452208"><ele>91.0</ele><time>2026-03-22T14:45:48Z</time></trkpt><trkpt lat="45.28461369704463" lon="9.127281535084643"><ele>91.0</ele><time>2026-03-22T14:45:49Z</time></trkpt><trkpt lat="45.2846175939856" lon="9.127070790066309"><ele>91.0</ele><time>2026-03-22T14:45:50Z</time></trkpt><trkpt lat="45.284620575511475" lon="9.126858130561699"><ele>91.0</ele><time>2026-03-22T14:45:51Z</time></trkpt><trkpt lat="45.28462364964038" lon="9.126638866077347"><ele>91.0</ele><time>2026-03-22T14:45:52Z</time></trkpt><trkpt lat="45.28462671883835" lon="9.126419953120601"><ele>91.0</ele><time>2026-03-22T14:45:53Z</time></trkpt><trkpt lat="45.28462969847496" lon="9.12620742830082"><ele>91.0</ele><time>2026-03-22T14:45:54Z</time></trkpt><trkpt lat="45.284632876431616" lon="9.125999271754079"><ele>91.0</ele><time>2026-03-22T14:45:55Z</time></trkpt><trkpt lat="45.284636179153075" lon="9.125791134107319"><ele>91.0</ele><time>2026-03-22T14:45:56Z</time></trkpt><trkpt lat="45.2846395016226" lon="9.125581751891737"><ele>91.0</ele><time>2026-03-22T14:45:57Z</time></trkpt><trkpt lat="45.284642813212905" lon="9.125373054945719"><ele>91.0</ele><time>2026-03-22T14:45:58Z</time></trkpt><trkpt lat="45.28464611068452" lon="9.125165248058003"><ele>91.0</ele><time>2026-03-22T14:45:59Z</time></trkpt><trkpt lat="45.28464943241329" lon="9.12495591238699"><ele>91.0</ele><time>2026-03-22T14:46:00Z</time></trkpt><trkpt lat="45.28465313446645" lon="9.124745934813117"><ele>90.75</ele><time>2026-03-22T14:46:01Z</time></trkpt><trkpt lat="45.284657002545465" lon="9.124536988163173"><ele>90.5</ele><time>2026-03-22T14:46:02Z</time></trkpt><trkpt lat="45.28466082347752" lon="9.12433058845124"><ele>90.25</ele><time>2026-03-22T14:46:03Z</time></trkpt><trkpt lat="45.28466471786271" lon="9.124120220797172"><ele>90.0</ele><time>2026-03-22T14:46:04Z</time></trkpt><trkpt lat="45.28466861044897" lon="9.123909950525022"><ele>90.0</ele><time>2026-03-22T14:46:05Z</time></trkpt><trkpt lat="45.284672495135155" lon="9.123700106796806"><ele>90.0</ele><time>2026-03-22T14:46:06Z</time></trkpt><trkpt lat="45.28467639602528" lon="9.123489387855864"><ele>90.0</ele><time>2026-03-22T14:46:07Z</time></trkpt><trkpt lat="45.28468026371121" lon="9.1232804625228"><ele>90.0</ele><time>2026-03-22T14:46:08Z</time></trkpt><trkpt lat="45.28468403842657" lon="9.123072036356021"><ele>90.0</ele><time>2026-03-22T14:46:09Z</time></trkpt><trkpt lat="45.284687330986" lon="9.122864103550269"><ele>90.0</ele><time>2026-03-22T14:46:10Z</time></trkpt><trkpt lat="45.2846906381824" lon="9.122655246402903"><ele>90.0</ele><time>2026-03-22T14:46:11Z</time></trkpt><trkpt lat="45.28469394386938" lon="9.122446484659802"><ele>90.0</ele><time>2026-03-22T14:46:12Z</time></trkpt><trkpt lat="45.284697292077745" lon="9.122235037535313"><ele>90.0</ele><time>2026-03-22T14:46:13Z</time></trkpt><trkpt lat="45.28469941680152" lon="9.122024164401301"><ele>90.0</ele><time>2026-03-22T14:46:14Z</time></trkpt><trkpt lat="45.28470034240767" lon="9.1218134694976"><ele>90.0</ele><time>2026-03-22T14:46:15Z</time></trkpt><trkpt lat="45.28469826960557" lon="9.121599860432243"><ele>90.0</ele><time>2026-03-22T14:46:16Z</time></trkpt><trkpt lat="45.284693196063095" lon="9.12138997818839"><ele>90.25</ele><time>2026-03-22T14:46:17Z</time></trkpt><trkpt lat="45.284700784676154" lon="9.121183977570553"><ele>90.5</ele><time>2026-03-22T14:46:18Z</time></trkpt><trkpt lat="45.2846883453724" lon="9.120980672028596"><ele>90.75</ele><time>2026-03-22T14:46:19Z</time></trkpt><trkpt lat="45.28467144008384" lon="9.120778575752837"><ele>91.0</ele><time>2026-03-22T14:46:20Z</time></trkpt><trkpt lat="45.2846499806867" lon="9.120578085240009"><ele>91.0</ele><time>2026-03-22T14:46:21Z</time></trkpt><trkpt lat="45.284627315452575" lon="9.12038065983319"><ele>91.0</ele><time>2026-03-22T14:46:22Z</time></trkpt><trkpt lat="45.28460087798668" lon="9.120186810417225"><ele>91.0</ele><time>2026-03-22T14:46:23Z</time></trkpt><trkpt lat="45.28456776996803" lon="9.11999839756817"><ele>91.0</ele><time>2026-03-22T14:46:24Z</time></trkpt><trkpt lat="45.28453536239963" lon="9.11982761338709"><ele>91.0</ele><time>2026-03-22T14:46:25Z</time></trkpt><trkpt lat="45.28450433057817" lon="9.119659056262314"><ele>91.0</ele><time>2026-03-22T14:46:26Z</time></trkpt><trkpt lat="45.28447326812065" lon="9.119497016753293"><ele>91.0</ele><time>2026-03-22T14:46:27Z</time></trkpt><trkpt lat="45.284439639067045" lon="9.11934070891452"><ele>91.0</ele><time>2026-03-22T14:46:28Z</time></trkpt><trkpt lat="45.284415663739146" lon="9.11920749828926"><ele>91.0</ele><time>2026-03-22T14:46:29Z</time></trkpt><trkpt lat="45.2843904788598" lon="9.119075411496498"><ele>91.0</ele><time>2026-03-22T14:46:30Z</time></trkpt><trkpt lat="45.28436685570171" lon="9.11895230392975"><ele>91.0</ele><time>2026-03-22T14:46:31Z</time></trkpt><trkpt lat="45.28433627361201" lon="9.11883456830059"><ele>91.0</ele><time>2026-03-22T14:46:32Z</time></trkpt><trkpt lat="45.28430184702963" lon="9.118723656186427"><ele>91.0</ele><time>2026-03-22T14:46:33Z</time></trkpt><trkpt lat="45.28425369618315" lon="9.118615095029812"><ele>91.0</ele><time>2026-03-22T14:46:34Z</time></trkpt><trkpt lat="45.28420942108472" lon="9.118514340334407"><ele>91.0</ele><time>2026-03-22T14:46:35Z</time></trkpt><trkpt lat="45.28416651858245" lon="9.11842179807254"><ele>91.0</ele><time>2026-03-22T14:46:36Z</time></trkpt><trkpt lat="45.28412088730387" lon="9.11828242446898"><ele>91.0</ele><time>2026-03-22T14:46:38Z</time></trkpt><trkpt lat="45.28409530932969" lon="9.118199305006591"><ele>91.0</ele><time>2026-03-22T14:46:40Z</time></trkpt><trkpt lat="45.284137933995346" lon="9.1179311825633"><ele>91.0</ele><time>2026-03-22T14:46:43Z</time></trkpt><trkpt lat="45.284206939366534" lon="9.117863775263647"><ele>91.0</ele><time>2026-03-22T14:46:44Z</time></trkpt><trkpt lat="45.284335578139235" lon="9.117938879520953"><ele>91.0</ele><time>2026-03-22T14:46:45Z</time></trkpt><trkpt lat="45.28445468919023" lon="9.117994661475942"><ele>91.0</ele><time>2026-03-22T14:46:46Z</time></trkpt><trkpt lat="45.28457170581924" lon="9.11804329467831"><ele>91.0</ele><time>2026-03-22T14:46:47Z</time></trkpt><trkpt lat="45.28470298624015" lon="9.118091856222698"><ele>91.0</ele><time>2026-03-22T14:46:48Z</time></trkpt><trkpt lat="45.284843494742304" lon="9.118117263902601"><ele>91.0</ele><time>2026-03-22T14:46:49Z</time></trkpt><trkpt lat="45.28498791486757" lon="9.118105113784011"><ele>91.0</ele><time>2026-03-22T14:46:50Z</time></trkpt><trkpt lat="45.285124935215194" lon="9.11806712831713"><ele>90.75</ele><time>2026-03-22T14:46:51Z</time></trkpt><trkpt lat="45.28526222044053" lon="9.11802366992181"><ele>90.5</ele><time>2026-03-22T14:46:52Z</time></trkpt><trkpt lat="45.28539443380941" lon="9.117975391434292"><ele>90.25</ele><time>2026-03-22T14:46:53Z</time></trkpt><trkpt lat="45.28552679585245" lon="9.117926232952772"><ele>90.0</ele><time>2026-03-22T14:46:54Z</time></trkpt><trkpt lat="45.285656173029494" lon="9.117878548741816"><ele>90.0</ele><time>2026-03-22T14:46:55Z</time></trkpt><trkpt lat="45.28578105862575" lon="9.117830291980571"><ele>90.0</ele><time>2026-03-22T14:46:56Z</time></trkpt><trkpt lat="45.285908566789644" lon="9.11777777464293"><ele>90.0</ele><time>2026-03-22T14:46:57Z</time></trkpt><trkpt lat="45.286038168203646" lon="9.117724600832462"><ele>90.0</ele><time>2026-03-22T14:46:58Z</time></trkpt><trkpt lat="45.28616779446885" lon="9.11767007674518"><ele>90.0</ele><time>2026-03-22T14:46:59Z</time></trkpt><trkpt lat="45.28629790150319" lon="9.117619891800226"><ele>90.0</ele><time>2026-03-22T14:47:00Z</time></trkpt><trkpt lat="45.28642974083036" lon="9.117569418687001"><ele>90.0</ele><time>2026-03-22T14:47:01Z</time></trkpt><trkpt lat="45.286561815679775" lon="9.117519797020764"><ele>90.0</ele><time>2026-03-22T14:47:02Z</time></trkpt><trkpt lat="45.286696658505626" lon="9.117472003662916"><ele>90.25</ele><time>2026-03-22T14:47:03Z</time></trkpt><trkpt lat="45.28683435477286" lon="9.117425166380725"><ele>90.5</ele><time>2026-03-22T14:47:04Z</time></trkpt><trkpt lat="45.286977011211725" lon="9.117373969311837"><ele>90.75</ele><time>2026-03-22T14:47:05Z</time></trkpt><trkpt lat="45.28712209571953" lon="9.11732378112874"><ele>91.0</ele><time>2026-03-22T14:47:06Z</time></trkpt><trkpt lat="45.28727276763209" lon="9.117273163373579"><ele>91.0</ele><time>2026-03-22T14:47:07Z</time></trkpt><trkpt lat="45.28742445451127" lon="9.117217428842526"><ele>91.0</ele><time>2026-03-22T14:47:08Z</time></trkpt><trkpt lat="45.28757865884088" lon="9.11715914968685"><ele>91.0</ele><time>2026-03-22T14:47:09Z</time></trkpt><trkpt lat="45.28774384304445" lon="9.117098697282556"><ele>91.0</ele><time>2026-03-22T14:47:10Z</time></trkpt><trkpt lat="45.28790659091167" lon="9.117038261294315"><ele>91.0</ele><time>2026-03-22T14:47:11Z</time></trkpt><trkpt lat="45.28807192323846" lon="9.116974267215106"><ele>91.0</ele><time>2026-03-22T14:47:12Z</time></trkpt><trkpt lat="45.288234581300344" lon="9.116911081471919"><ele>91.33333333333333</ele><time>2026-03-22T14:47:13Z</time></trkpt><trkpt lat="45.28839301724569" lon="9.116854192592262"><ele>91.66666666666667</ele><time>2026-03-22T14:47:14Z</time></trkpt><trkpt lat="45.288549890672826" lon="9.116795799211568"><ele>92.0</ele><time>2026-03-22T14:47:15Z</time></trkpt><trkpt lat="45.28870483544363" lon="9.11673850580473"><ele>92.0</ele><time>2026-03-22T14:47:16Z</time></trkpt><trkpt lat="45.28885901332506" lon="9.116683272808965"><ele>92.0</ele><time>2026-03-22T14:47:17Z</time></trkpt><trkpt lat="45.28901091599403" lon="9.116628592120659"><ele>92.0</ele><time>2026-03-22T14:47:18Z</time></trkpt><trkpt lat="45.28916235592926" lon="9.116573149291082"><ele>91.0</ele><time>2026-03-22T14:47:19Z</time></trkpt><trkpt lat="45.289312091714415" lon="9.116517662043318"><ele>90.0</ele><time>2026-03-22T14:47:20Z</time></trkpt><trkpt lat="45.289460498645866" lon="9.116462852723519"><ele>89.0</ele><time>2026-03-22T14:47:21Z</time></trkpt><trkpt lat="45.289610033271714" lon="9.116409447959562"><ele>89.66666666666667</ele><time>2026-03-22T14:47:22Z</time></trkpt><trkpt lat="45.28976148423266" lon="9.116353174473298"><ele>90.33333333333333</ele><time>2026-03-22T14:47:23Z</time></trkpt><trkpt lat="45.289912020308186" lon="9.116296113132602"><ele>91.0</ele><time>2026-03-22T14:47:24Z</time></trkpt><trkpt lat="45.290058073259054" lon="9.116241703941416"><ele>91.0</ele><time>2026-03-22T14:47:25Z</time></trkpt><trkpt lat="45.29020596310538" lon="9.116187449484247"><ele>91.0</ele><time>2026-03-22T14:47:26Z</time></trkpt><trkpt lat="45.2903546314538" lon="9.116132622123223"><ele>91.0</ele><time>2026-03-22T14:47:27Z</time></trkpt><trkpt lat="45.290505229567955" lon="9.116077286490526"><ele>91.0</ele><time>2026-03-22T14:47:28Z</time></trkpt><trkpt lat="45.29065682161021" lon="9.116018688843495"><ele>91.0</ele><time>2026-03-22T14:47:29Z</time></trkpt><trkpt lat="45.29081143315515" lon="9.115960131488084"><ele>91.0</ele><time>2026-03-22T14:47:30Z</time></trkpt><trkpt lat="45.29096677683894" lon="9.115902084128258"><ele>91.0</ele><time>2026-03-22T14:47:31Z</time></trkpt><trkpt lat="45.29112282634876" lon="9.115842200762895"><ele>91.0</ele><time>2026-03-22T14:47:32Z</time></trkpt><trkpt lat="45.29128320746792" lon="9.115782208431966"><ele>91.0</ele><time>2026-03-22T14:47:33Z</time></trkpt><trkpt lat="45.29144382658447" lon="9.115722441734768"><ele>91.0</ele><time>2026-03-22T14:47:34Z</time></trkpt><trkpt lat="45.29160460440323" lon="9.115661370562327"><ele>91.0</ele><time>2026-03-22T14:47:35Z</time></trkpt><trkpt lat="45.29176440790109" lon="9.115599692717991"><ele>91.0</ele><time>2026-03-22T14:47:36Z</time></trkpt><trkpt lat="45.29192385428765" lon="9.11553875603026"><ele>91.0</ele><time>2026-03-22T14:47:37Z</time></trkpt><trkpt lat="45.29208348285357" lon="9.11547851647587"><ele>91.0</ele><time>2026-03-22T14:47:38Z</time></trkpt><trkpt lat="45.29224475034591" lon="9.115418277041808"><ele>91.0</ele><time>2026-03-22T14:47:39Z</time></trkpt><trkpt lat="45.292403359733406" lon="9.115359892721264"><ele>90.66666666666666</ele><time>2026-03-22T14:47:40Z</time></trkpt><trkpt lat="45.292563861564545" lon="9.115298508329749"><ele>90.33333333333333</ele><time>2026-03-22T14:47:41Z</time></trkpt><trkpt lat="45.292723781940325" lon="9.115233975634176"><ele>90.0</ele><time>2026-03-22T14:47:42Z</time></trkpt><trkpt lat="45.29288470065063" lon="9.115172885360963"><ele>90.0</ele><time>2026-03-22T14:47:43Z</time></trkpt><trkpt lat="45.293046418825966" lon="9.115113089955326"><ele>90.0</ele><time>2026-03-22T14:47:44Z</time></trkpt><trkpt lat="45.293207609551246" lon="9.115054015778192"><ele>90.0</ele><time>2026-03-22T14:47:45Z</time></trkpt><trkpt lat="45.293366222122515" lon="9.114992129525277"><ele>90.33333333333333</ele><time>2026-03-22T14:47:46Z</time></trkpt><trkpt lat="45.29352679840869" lon="9.114932034213208"><ele>90.66666666666666</ele><time>2026-03-22T14:47:47Z</time></trkpt><trkpt lat="45.2936854651213" lon="9.114875220250228"><ele>91.0</ele><time>2026-03-22T14:47:48Z</time></trkpt><trkpt lat="45.293843261498516" lon="9.114815849027643"><ele>91.0</ele><time>2026-03-22T14:47:49Z</time></trkpt><trkpt lat="45.29399852769818" lon="9.11475603903697"><ele>91.0</ele><time>2026-03-22T14:47:50Z</time></trkpt><trkpt lat="45.29415259455143" lon="9.114697094738348"><ele>91.0</ele><time>2026-03-22T14:47:51Z</time></trkpt><trkpt lat="45.294307462781184" lon="9.114637992722441"><ele>91.0</ele><time>2026-03-22T14:47:52Z</time></trkpt><trkpt lat="45.2944596395827" lon="9.114579549091458"><ele>91.0</ele><time>2026-03-22T14:47:53Z</time></trkpt><trkpt lat="45.29461351949659" lon="9.114520831659451"><ele>91.0</ele><time>2026-03-22T14:47:54Z</time></trkpt><trkpt lat="45.294768726824785" lon="9.11446237429604"><ele>91.0</ele><time>2026-03-22T14:47:55Z</time></trkpt><trkpt lat="45.29492437255201" lon="9.114405830843408"><ele>91.0</ele><time>2026-03-22T14:47:56Z</time></trkpt><trkpt lat="45.295078900858464" lon="9.11434656364414"><ele>91.0</ele><time>2026-03-22T14:47:57Z</time></trkpt><trkpt lat="45.29523487696991" lon="9.114287588661535"><ele>91.0</ele><time>2026-03-22T14:47:58Z</time></trkpt><trkpt lat="45.295391609463884" lon="9.11422785555763"><ele>91.0</ele><time>2026-03-22T14:47:59Z</time></trkpt><trkpt lat="45.29555151470267" lon="9.114168487650034"><ele>91.0</ele><time>2026-03-22T14:48:00Z</time></trkpt><trkpt lat="45.29571133505298" lon="9.114107885440145"><ele>91.0</ele><time>2026-03-22T14:48:01Z</time></trkpt><trkpt lat="45.29587381547625" lon="9.114044257950624"><ele>91.0</ele><time>2026-03-22T14:48:02Z</time></trkpt><trkpt lat="45.29603425855404" lon="9.113983160823864"><ele>91.0</ele><time>2026-03-22T14:48:03Z</time></trkpt><trkpt lat="45.29619429011329" lon="9.113925550556798"><ele>91.0</ele><time>2026-03-22T14:48:04Z</time></trkpt><trkpt lat="45.296352132238596" lon="9.113864841735726"><ele>91.0</ele><time>2026-03-22T14:48:05Z</time></trkpt><trkpt lat="45.296516672113114" lon="9.113804412294495"><ele>91.0</ele><time>2026-03-22T14:48:06Z</time></trkpt><trkpt lat="45.29668844273174" lon="9.1137367079746"><ele>91.66666666666666</ele><time>2026-03-22T14:48:07Z</time></trkpt><trkpt lat="45.29686788730858" lon="9.113673936692472"><ele>92.33333333333333</ele><time>2026-03-22T14:48:08Z</time></trkpt><trkpt lat="45.297038219537605" lon="9.113611318040741"><ele>93.0</ele><time>2026-03-22T14:48:09Z</time></trkpt><trkpt lat="45.29720192734592" lon="9.113549374111226"><ele>93.33333333333333</ele><time>2026-03-22T14:48:10Z</time></trkpt><trkpt lat="45.29736043575044" lon="9.11348401751744"><ele>93.66666666666666</ele><time>2026-03-22T14:48:11Z</time></trkpt><trkpt lat="45.297521701178766" lon="9.11342201168789"><ele>94.0</ele><time>2026-03-22T14:48:12Z</time></trkpt><trkpt lat="45.297685589497696" lon="9.113363388232989"><ele>94.0</ele><time>2026-03-22T14:48:13Z</time></trkpt><trkpt lat="45.29785027475091" lon="9.113301747132518"><ele>94.0</ele><time>2026-03-22T14:48:14Z</time></trkpt><trkpt lat="45.298016436451476" lon="9.113240476550796"><ele>94.0</ele><time>2026-03-22T14:48:15Z</time></trkpt><trkpt lat="45.29818364117581" lon="9.11317687816397"><ele>93.0</ele><time>2026-03-22T14:48:16Z</time></trkpt><trkpt lat="45.29835210550297" lon="9.113114513818994"><ele>92.0</ele><time>2026-03-22T14:48:17Z</time></trkpt><trkpt lat="45.29852052841027" lon="9.113050011063397"><ele>91.0</ele><time>2026-03-22T14:48:18Z</time></trkpt><trkpt lat="45.29868924101772" lon="9.112986598154947"><ele>91.0</ele><time>2026-03-22T14:48:19Z</time></trkpt><trkpt lat="45.298860262064494" lon="9.112920027185648"><ele>91.0</ele><time>2026-03-22T14:48:20Z</time></trkpt><trkpt lat="45.29903212692898" lon="9.112854034553989"><ele>91.0</ele><time>2026-03-22T14:48:21Z</time></trkpt><trkpt lat="45.299207984545205" lon="9.11279042737364"><ele>91.0</ele><time>2026-03-22T14:48:22Z</time></trkpt><trkpt lat="45.299380615650676" lon="9.112726337430878"><ele>91.0</ele><time>2026-03-22T14:48:23Z</time></trkpt><trkpt lat="45.29955430814035" lon="9.112661103790309"><ele>91.0</ele><time>2026-03-22T14:48:24Z</time></trkpt><trkpt lat="45.2997286327972" lon="9.112595913497191"><ele>91.33333333333333</ele><time>2026-03-22T14:48:25Z</time></trkpt><trkpt lat="45.29990451385898" lon="9.112530311100668"><ele>91.66666666666667</ele><time>2026-03-22T14:48:26Z</time></trkpt><trkpt lat="45.30008046727033" lon="9.112461985377179"><ele>92.0</ele><time>2026-03-22T14:48:27Z</time></trkpt><trkpt lat="45.30025701773592" lon="9.112394604267948"><ele>92.0</ele><time>2026-03-22T14:48:28Z</time></trkpt><trkpt lat="45.30043267894673" lon="9.112328573001584"><ele>92.0</ele><time>2026-03-22T14:48:29Z</time></trkpt><trkpt lat="45.30060507972855" lon="9.112264121647117"><ele>92.0</ele><time>2026-03-22T14:48:30Z</time></trkpt><trkpt lat="45.300781215905566" lon="9.11219858949618"><ele>92.0</ele><time>2026-03-22T14:48:31Z</time></trkpt><trkpt lat="45.30095387893728" lon="9.112133370640592"><ele>92.0</ele><time>2026-03-22T14:48:32Z</time></trkpt><trkpt lat="45.30112920310107" lon="9.112066647573641"><ele>92.0</ele><time>2026-03-22T14:48:33Z</time></trkpt><trkpt lat="45.301303847807" lon="9.112001407173379"><ele>92.0</ele><time>2026-03-22T14:48:34Z</time></trkpt><trkpt lat="45.3014806698668" lon="9.11193848656183"><ele>92.0</ele><time>2026-03-22T14:48:35Z</time></trkpt><trkpt lat="45.301656663408714" lon="9.111872784840338"><ele>92.0</ele><time>2026-03-22T14:48:36Z</time></trkpt><trkpt lat="45.301834166644355" lon="9.111811263698165"><ele>92.0</ele><time>2026-03-22T14:48:37Z</time></trkpt><trkpt lat="45.302009541142546" lon="9.111750684179132"><ele>92.0</ele><time>2026-03-22T14:48:38Z</time></trkpt><trkpt lat="45.30218258896768" lon="9.111684485953159"><ele>92.0</ele><time>2026-03-22T14:48:39Z</time></trkpt><trkpt lat="45.30235447853652" lon="9.111622739431738"><ele>92.0</ele><time>2026-03-22T14:48:40Z</time></trkpt><trkpt lat="45.30253740547669" lon="9.111562997362398"><ele>92.0</ele><time>2026-03-22T14:48:41Z</time></trkpt><trkpt lat="45.30270513182296" lon="9.111491394669814"><ele>92.0</ele><time>2026-03-22T14:48:42Z</time></trkpt><trkpt lat="45.30287946060775" lon="9.111426366876016"><ele>92.0</ele><time>2026-03-22T14:48:43Z</time></trkpt><trkpt lat="45.30305115004969" lon="9.1113661930855"><ele>92.0</ele><time>2026-03-22T14:48:44Z</time></trkpt><trkpt lat="45.303223228137625" lon="9.111304143425569"><ele>92.0</ele><time>2026-03-22T14:48:45Z</time></trkpt><trkpt lat="45.30339403792779" lon="9.11124359451084"><ele>92.0</ele><time>2026-03-22T14:48:46Z</time></trkpt><trkpt lat="45.30356572767739" lon="9.111183067857297"><ele>92.0</ele><time>2026-03-22T14:48:47Z</time></trkpt><trkpt lat="45.30373634162632" lon="9.11112333871435"><ele>92.0</ele><time>2026-03-22T14:48:48Z</time></trkpt><trkpt lat="45.303907392080156" lon="9.111061756805226"><ele>92.33333333333334</ele><time>2026-03-22T14:48:49Z</time></trkpt><trkpt lat="45.30407960040067" lon="9.111002075411605"><ele>92.66666666666667</ele><time>2026-03-22T14:48:50Z</time></trkpt><trkpt lat="45.3042545596814" lon="9.110942227863575"><ele>93.0</ele><time>2026-03-22T14:48:51Z</time></trkpt><trkpt lat="45.3044294053589" lon="9.110877641987958"><ele>93.0</ele><time>2026-03-22T14:48:52Z</time></trkpt><trkpt lat="45.30460395336356" lon="9.110812739792967"><ele>93.0</ele><time>2026-03-22T14:48:53Z</time></trkpt><trkpt lat="45.30477907615976" lon="9.110748675783128"><ele>93.0</ele><time>2026-03-22T14:48:54Z</time></trkpt><trkpt lat="45.30495454377455" lon="9.110683667263004"><ele>94.0</ele><time>2026-03-22T14:48:55Z</time></trkpt><trkpt lat="45.30513452241801" lon="9.110617442768325"><ele>95.0</ele><time>2026-03-22T14:48:56Z</time></trkpt><trkpt lat="45.30531499488952" lon="9.11055247951296"><ele>96.0</ele><time>2026-03-22T14:48:57Z</time></trkpt><trkpt lat="45.305495757486376" lon="9.110487639269396"><ele>96.0</ele><time>2026-03-22T14:48:58Z</time></trkpt><trkpt lat="45.305675130443134" lon="9.110421427443663"><ele>96.0</ele><time>2026-03-22T14:48:59Z</time></trkpt><trkpt lat="45.30585365428287" lon="9.110358168079419"><ele>96.0</ele><time>2026-03-22T14:49:00Z</time></trkpt><trkpt lat="45.30603177829876" lon="9.110291165785105"><ele>96.0</ele><time>2026-03-22T14:49:01Z</time></trkpt><trkpt lat="45.306214167007354" lon="9.110222363476879"><ele>96.0</ele><time>2026-03-22T14:49:02Z</time></trkpt><trkpt lat="45.30639238537375" lon="9.110156126065855"><ele>96.0</ele><time>2026-03-22T14:49:03Z</time></trkpt><trkpt lat="45.30657031153616" lon="9.110088851897954"><ele>95.33333333333333</ele><time>2026-03-22T14:49:04Z</time></trkpt><trkpt lat="45.306749525819555" lon="9.110019777089308"><ele>94.66666666666666</ele><time>2026-03-22T14:49:05Z</time></trkpt><trkpt lat="45.306928191417605" lon="9.109946712548002"><ele>94.0</ele><time>2026-03-22T14:49:06Z</time></trkpt><trkpt lat="45.3071053643662" lon="9.109876719938164"><ele>93.33333333333333</ele><time>2026-03-22T14:49:07Z</time></trkpt><trkpt lat="45.30728324204533" lon="9.109809863850408"><ele>92.66666666666667</ele><time>2026-03-22T14:49:08Z</time></trkpt><trkpt lat="45.30745823475483" lon="9.10974388946614"><ele>92.0</ele><time>2026-03-22T14:49:09Z</time></trkpt><trkpt lat="45.30763253844991" lon="9.109676497551202"><ele>92.0</ele><time>2026-03-22T14:49:10Z</time></trkpt><trkpt lat="45.307806475662666" lon="9.109609080987454"><ele>92.0</ele><time>2026-03-22T14:49:11Z</time></trkpt><trkpt lat="45.30798039793858" lon="9.109542069997064"><ele>92.0</ele><time>2026-03-22T14:49:12Z</time></trkpt><trkpt lat="45.308154914031775" lon="9.109475050684509"><ele>92.66666666666667</ele><time>2026-03-22T14:49:13Z</time></trkpt><trkpt lat="45.308334272825206" lon="9.109405254233975"><ele>93.33333333333333</ele><time>2026-03-22T14:49:14Z</time></trkpt><trkpt lat="45.30851686930696" lon="9.109340205470767"><ele>94.0</ele><time>2026-03-22T14:49:15Z</time></trkpt><trkpt lat="45.30870058462758" lon="9.10926716727599"><ele>94.0</ele><time>2026-03-22T14:49:16Z</time></trkpt><trkpt lat="45.30888056871221" lon="9.109196673938296"><ele>94.0</ele><time>2026-03-22T14:49:17Z</time></trkpt><trkpt lat="45.309059518915305" lon="9.109127105814972"><ele>94.0</ele><time>2026-03-22T14:49:18Z</time></trkpt><trkpt lat="45.30923671433047" lon="9.109056853046921"><ele>94.0</ele><time>2026-03-22T14:49:19Z</time></trkpt><trkpt lat="45.30941410765484" lon="9.108984105273288"><ele>94.0</ele><time>2026-03-22T14:49:20Z</time></trkpt><trkpt lat="45.309588341657914" lon="9.108917366390006"><ele>94.0</ele><time>2026-03-22T14:49:21Z</time></trkpt><trkpt lat="45.30976257079755" lon="9.108853309845646"><ele>94.33333333333333</ele><time>2026-03-22T14:49:22Z</time></trkpt><trkpt lat="45.30993311475663" lon="9.108789463178699"><ele>94.66666666666667</ele><time>2026-03-22T14:49:23Z</time></trkpt><trkpt lat="45.31010047678107" lon="9.108726910784666"><ele>95.0</ele><time>2026-03-22T14:49:24Z</time></trkpt><trkpt lat="45.310264446033734" lon="9.108663699012526"><ele>95.0</ele><time>2026-03-22T14:49:25Z</time></trkpt><trkpt lat="45.31042397838901" lon="9.108603895545775"><ele>95.0</ele><time>2026-03-22T14:49:26Z</time></trkpt><trkpt lat="45.31058140120061" lon="9.108544750914916"><ele>95.0</ele><time>2026-03-22T14:49:27Z</time></trkpt><trkpt lat="45.31074142593977" lon="9.108489289355285"><ele>94.66666666666667</ele><time>2026-03-22T14:49:28Z</time></trkpt><trkpt lat="45.31089793624838" lon="9.108428101432308"><ele>94.33333333333333</ele><time>2026-03-22T14:49:29Z</time></trkpt><trkpt lat="45.31105525664378" lon="9.108367061663833"><ele>94.0</ele><time>2026-03-22T14:49:30Z</time></trkpt><trkpt lat="45.31121141739777" lon="9.108308482487576"><ele>94.0</ele><time>2026-03-22T14:49:31Z</time></trkpt><trkpt lat="45.31136730559808" lon="9.108252830899152"><ele>94.0</ele><time>2026-03-22T14:49:32Z</time></trkpt><trkpt lat="45.311525025512246" lon="9.108190067728414"><ele>94.0</ele><time>2026-03-22T14:49:33Z</time></trkpt><trkpt lat="45.31168378343329" lon="9.108129560155637"><ele>93.66666666666666</ele><time>2026-03-22T14:49:34Z</time></trkpt><trkpt lat="45.31184379901704" lon="9.108071348503648"><ele>93.33333333333333</ele><time>2026-03-22T14:49:35Z</time></trkpt><trkpt lat="45.31200357217377" lon="9.10801368172797"><ele>93.0</ele><time>2026-03-22T14:49:36Z</time></trkpt><trkpt lat="45.31215984341864" lon="9.107953469267578"><ele>93.0</ele><time>2026-03-22T14:49:37Z</time></trkpt><trkpt lat="45.31231705958404" lon="9.107894649873513"><ele>93.0</ele><time>2026-03-22T14:49:38Z</time></trkpt><trkpt lat="45.31247643289459" lon="9.107835492635894"><ele>93.0</ele><time>2026-03-22T14:49:39Z</time></trkpt><trkpt lat="45.312635228556424" lon="9.107775344614385"><ele>93.0</ele><time>2026-03-22T14:49:40Z</time></trkpt><trkpt lat="45.31279398013678" lon="9.107711886839507"><ele>93.0</ele><time>2026-03-22T14:49:41Z</time></trkpt><trkpt lat="45.312954561642414" lon="9.10765508860056"><ele>93.0</ele><time>2026-03-22T14:49:42Z</time></trkpt><trkpt lat="45.313104880855974" lon="9.107601514907838"><ele>93.33333333333333</ele><time>2026-03-22T14:49:43Z</time></trkpt><trkpt lat="45.313255204932474" lon="9.107545247284653"><ele>93.66666666666666</ele><time>2026-03-22T14:49:44Z</time></trkpt><trkpt lat="45.313402569537615" lon="9.107487983236345"><ele>94.0</ele><time>2026-03-22T14:49:45Z</time></trkpt><trkpt lat="45.31354782628611" lon="9.10743309378301"><ele>94.0</ele><time>2026-03-22T14:49:46Z</time></trkpt><trkpt lat="45.313693604397876" lon="9.107378640007301"><ele>94.0</ele><time>2026-03-22T14:49:47Z</time></trkpt><trkpt lat="45.313838062490845" lon="9.107325816661799"><ele>94.0</ele><time>2026-03-22T14:49:48Z</time></trkpt><trkpt lat="45.313982458820135" lon="9.10727457981008"><ele>94.0</ele><time>2026-03-22T14:49:49Z</time></trkpt><trkpt lat="45.31412707808062" lon="9.107226336634483"><ele>94.0</ele><time>2026-03-22T14:49:50Z</time></trkpt><trkpt lat="45.31427095321927" lon="9.107173561391647"><ele>94.0</ele><time>2026-03-22T14:49:51Z</time></trkpt><trkpt lat="45.314413379501886" lon="9.107120488790626"><ele>94.0</ele><time>2026-03-22T14:49:52Z</time></trkpt><trkpt lat="45.31454831727505" lon="9.10707301766545"><ele>94.0</ele><time>2026-03-22T14:49:53Z</time></trkpt><trkpt lat="45.31467399917738" lon="9.107031023951897"><ele>94.0</ele><time>2026-03-22T14:49:54Z</time></trkpt><trkpt lat="45.31479033925478" lon="9.106990551026007"><ele>94.0</ele><time>2026-03-22T14:49:55Z</time></trkpt><trkpt lat="45.31490100779326" lon="9.106951899541171"><ele>94.0</ele><time>2026-03-22T14:49:56Z</time></trkpt><trkpt lat="45.315002037790904" lon="9.106919067373036"><ele>94.0</ele><time>2026-03-22T14:49:57Z</time></trkpt><trkpt lat="45.31509472579008" lon="9.10688732072031"><ele>94.0</ele><time>2026-03-22T14:49:58Z</time></trkpt><trkpt lat="45.31518194913266" lon="9.10685814030259"><ele>94.0</ele><time>2026-03-22T14:49:59Z</time></trkpt><trkpt lat="45.315264355377856" lon="9.106829956941132"><ele>94.0</ele><time>2026-03-22T14:50:00Z</time></trkpt><trkpt lat="45.31534142428848" lon="9.106803887756048"><ele>94.0</ele><time>2026-03-22T14:50:01Z</time></trkpt><trkpt lat="45.315416226326164" lon="9.106777289996705"><ele>94.0</ele><time>2026-03-22T14:50:02Z</time></trkpt><trkpt lat="45.31548654476089" lon="9.106757023828507"><ele>94.0</ele><time>2026-03-22T14:50:03Z</time></trkpt><trkpt lat="45.31555289644887" lon="9.106736891680868"><ele>94.0</ele><time>2026-03-22T14:50:04Z</time></trkpt><trkpt lat="45.31567017884551" lon="9.106696250803486"><ele>94.2</ele><time>2026-03-22T14:50:06Z</time></trkpt><trkpt lat="45.31578547823512" lon="9.106655879858867"><ele>94.4</ele><time>2026-03-22T14:50:08Z</time></trkpt><trkpt lat="45.31589083684301" lon="9.106621332446933"><ele>94.6</ele><time>2026-03-22T14:50:10Z</time></trkpt><trkpt lat="45.315988989765344" lon="9.106586290359012"><ele>94.8</ele><time>2026-03-22T14:50:12Z</time></trkpt><trkpt lat="45.31606935159625" lon="9.106560626682805"><ele>95.0</ele><time>2026-03-22T14:50:14Z</time></trkpt><trkpt lat="45.31614317195345" lon="9.106542551705951"><ele>95.0</ele><time>2026-03-22T14:50:16Z</time></trkpt><trkpt lat="45.31621057667216" lon="9.106519065436945"><ele>95.0</ele><time>2026-03-22T14:50:18Z</time></trkpt><trkpt lat="45.31629668352892" lon="9.106490803248848"><ele>95.0</ele><time>2026-03-22T14:50:20Z</time></trkpt><trkpt lat="45.3163785412724" lon="9.10645747512655"><ele>95.0</ele><time>2026-03-22T14:50:22Z</time></trkpt><trkpt lat="45.316459356266314" lon="9.106430163330181"><ele>95.0</ele><time>2026-03-22T14:50:24Z</time></trkpt><trkpt lat="45.316542281705225" lon="9.106403907708474"><ele>95.0</ele><time>2026-03-22T14:50:26Z</time></trkpt><trkpt lat="45.31662629578351" lon="9.106373221309225"><ele>95.16666666666667</ele><time>2026-03-22T14:50:28Z</time></trkpt><trkpt lat="45.31671750679578" lon="9.106342159597482"><ele>95.33333333333334</ele><time>2026-03-22T14:50:30Z</time></trkpt><trkpt lat="45.31682133235704" lon="9.106302189926817"><ele>95.5</ele><time>2026-03-22T14:50:32Z</time></trkpt><trkpt lat="45.31688275780344" lon="9.106279481343833"><ele>95.66666666666667</ele><time>2026-03-22T14:50:33Z</time></trkpt><trkpt lat="45.31694663449864" lon="9.106254118929067"><ele>95.83333333333333</ele><time>2026-03-22T14:50:34Z</time></trkpt><trkpt lat="45.31701266715309" lon="9.10622508487196"><ele>96.0</ele><time>2026-03-22T14:50:35Z</time></trkpt><trkpt lat="45.31712007232109" lon="9.106187203030425"><ele>96.0</ele><time>2026-03-22T14:50:37Z</time></trkpt><trkpt lat="45.31713530651694" lon="9.106352221339057"><ele>96.0</ele><time>2026-03-22T14:50:41Z</time></trkpt><trkpt lat="45.31714711183035" lon="9.106441638143954"><ele>96.0</ele><time>2026-03-22T14:50:42Z</time></trkpt><trkpt lat="45.31716389719864" lon="9.106581516192392"><ele>96.0</ele><time>2026-03-22T14:50:43Z</time></trkpt><trkpt lat="45.31718074475084" lon="9.10669890363248"><ele>96.0</ele><time>2026-03-22T14:50:44Z</time></trkpt><trkpt lat="45.31719785847611" lon="9.106796803153262"><ele>96.0</ele><time>2026-03-22T14:50:45Z</time></trkpt><trkpt lat="45.317215762313886" lon="9.106893827488273"><ele>96.0</ele><time>2026-03-22T14:50:46Z</time></trkpt><trkpt lat="45.3172319384397" lon="9.10698148857869"><ele>96.0</ele><time>2026-03-22T14:50:47Z</time></trkpt><trkpt lat="45.31726282342091" lon="9.107134127265581"><ele>96.0</ele><time>2026-03-22T14:50:49Z</time></trkpt><trkpt lat="45.31729364469306" lon="9.107254858400127"><ele>96.0</ele><time>2026-03-22T14:50:51Z</time></trkpt><trkpt lat="45.31733065395051" lon="9.107398932114098"><ele>96.0</ele><time>2026-03-22T14:50:53Z</time></trkpt><trkpt lat="45.31735444847534" lon="9.107504542096219"><ele>96.4</ele><time>2026-03-22T14:50:54Z</time></trkpt><trkpt lat="45.317381795645204" lon="9.107625918902766"><ele>96.8</ele><time>2026-03-22T14:50:55Z</time></trkpt><trkpt lat="45.31741162163096" lon="9.107759086272965"><ele>97.2</ele><time>2026-03-22T14:50:56Z</time></trkpt><trkpt lat="45.31744171582118" lon="9.107881300082202"><ele>97.60000000000001</ele><time>2026-03-22T14:50:57Z</time></trkpt><trkpt lat="45.31747135165995" lon="9.10799801386773"><ele>98.0</ele><time>2026-03-22T14:50:58Z</time></trkpt><trkpt lat="45.31751137803907" lon="9.108125292938837"><ele>97.75</ele><time>2026-03-22T14:50:59Z</time></trkpt><trkpt lat="45.31755727366056" lon="9.108249397207262"><ele>97.5</ele><time>2026-03-22T14:51:00Z</time></trkpt><trkpt lat="45.31761113040578" lon="9.108381710893472"><ele>97.25</ele><time>2026-03-22T14:51:01Z</time></trkpt><trkpt lat="45.31768215660145" lon="9.108538328508418"><ele>97.0</ele><time>2026-03-22T14:51:02Z</time></trkpt><trkpt lat="45.31776561840031" lon="9.10869263824411"><ele>97.0</ele><time>2026-03-22T14:51:03Z</time></trkpt><trkpt lat="45.31783735842238" lon="9.108819707181473"><ele>97.0</ele><time>2026-03-22T14:51:04Z</time></trkpt><trkpt lat="45.31789546658755" lon="9.108931755982905"><ele>97.0</ele><time>2026-03-22T14:51:05Z</time></trkpt><trkpt lat="45.317942682586256" lon="9.109014113429406"><ele>97.0</ele><time>2026-03-22T14:51:06Z</time></trkpt><trkpt lat="45.31801405860677" lon="9.109083843617915"><ele>97.0</ele><time>2026-03-22T14:51:08Z</time></trkpt><trkpt lat="45.31793403976305" lon="9.109209729182604"><ele>97.16666666666667</ele><time>2026-03-22T14:51:10Z</time></trkpt><trkpt lat="45.31791968990534" lon="9.109323440882285"><ele>97.33333333333334</ele><time>2026-03-22T14:51:11Z</time></trkpt><trkpt lat="45.31790092644635" lon="9.109438136577271"><ele>97.5</ele><time>2026-03-22T14:51:12Z</time></trkpt><trkpt lat="45.31787006447502" lon="9.10954234540413"><ele>97.66666666666666</ele><time>2026-03-22T14:51:13Z</time></trkpt><trkpt lat="45.31783107664337" lon="9.109658346123885"><ele>97.83333333333333</ele><time>2026-03-22T14:51:14Z</time></trkpt><trkpt lat="45.317790967550614" lon="9.109768833919794"><ele>98.0</ele><time>2026-03-22T14:51:15Z</time></trkpt><trkpt lat="45.31775323029159" lon="9.10987098550947"><ele>97.80000000000001</ele><time>2026-03-22T14:51:16Z</time></trkpt><trkpt lat="45.31772620113907" lon="9.109991593308052"><ele>97.6</ele><time>2026-03-22T14:51:17Z</time></trkpt><trkpt lat="45.317728263022325" lon="9.11012667856899"><ele>97.4</ele><time>2026-03-22T14:51:18Z</time></trkpt><trkpt lat="45.317773688636294" lon="9.110252693995022"><ele>97.19999999999999</ele><time>2026-03-22T14:51:19Z</time></trkpt><trkpt lat="45.31781984170874" lon="9.110364453955032"><ele>97.0</ele><time>2026-03-22T14:51:20Z</time></trkpt><trkpt lat="45.31787250566528" lon="9.110492265056536"><ele>97.0</ele><time>2026-03-22T14:51:21Z</time></trkpt><trkpt lat="45.31792404633624" lon="9.110621742316726"><ele>97.0</ele><time>2026-03-22T14:51:22Z</time></trkpt><trkpt lat="45.31796969432182" lon="9.110740628334648"><ele>97.0</ele><time>2026-03-22T14:51:23Z</time></trkpt><trkpt lat="45.317999634062254" lon="9.110842291776416"><ele>97.0</ele><time>2026-03-22T14:51:24Z</time></trkpt><trkpt lat="45.318033181460876" lon="9.110992756812538"><ele>97.0</ele><time>2026-03-22T14:51:26Z</time></trkpt><trkpt lat="45.31796085585321" lon="9.111016803725647"><ele>96.8</ele><time>2026-03-22T14:51:29Z</time></trkpt><trkpt lat="45.31785124723203" lon="9.111120900282286"><ele>96.6</ele><time>2026-03-22T14:51:31Z</time></trkpt><trkpt lat="45.31778728082173" lon="9.111186223637748"><ele>96.39999999999999</ele><time>2026-03-22T14:51:32Z</time></trkpt><trkpt lat="45.31770995086333" lon="9.11126219157961"><ele>96.19999999999999</ele><time>2026-03-22T14:51:33Z</time></trkpt><trkpt lat="45.31761477075602" lon="9.111349435297733"><ele>96.0</ele><time>2026-03-22T14:51:34Z</time></trkpt><trkpt lat="45.31751410311328" lon="9.111435505219069"><ele>96.0</ele><time>2026-03-22T14:51:35Z</time></trkpt><trkpt lat="45.31739757417779" lon="9.111523634330553"><ele>96.0</ele><time>2026-03-22T14:51:36Z</time></trkpt><trkpt lat="45.317275775116" lon="9.111609222653463"><ele>96.0</ele><time>2026-03-22T14:51:37Z</time></trkpt><trkpt lat="45.31714544236459" lon="9.111699294299354"><ele>96.0</ele><time>2026-03-22T14:51:38Z</time></trkpt><trkpt lat="45.317016360355176" lon="9.11178850156812"><ele>96.0</ele><time>2026-03-22T14:51:39Z</time></trkpt><trkpt lat="45.31689059479864" lon="9.111881503922447"><ele>96.0</ele><time>2026-03-22T14:51:40Z</time></trkpt><trkpt lat="45.316774269773866" lon="9.111973139318838"><ele>96.0</ele><time>2026-03-22T14:51:41Z</time></trkpt><trkpt lat="45.31666412222765" lon="9.112074698560876"><ele>96.0</ele><time>2026-03-22T14:51:42Z</time></trkpt><trkpt lat="45.31656958823454" lon="9.112172916410293"><ele>96.0</ele><time>2026-03-22T14:51:43Z</time></trkpt><trkpt lat="45.3164898727741" lon="9.112330932089872"><ele>96.0</ele><time>2026-03-22T14:51:44Z</time></trkpt><trkpt lat="45.316433847753274" lon="9.112475883860808"><ele>96.0</ele><time>2026-03-22T14:51:45Z</time></trkpt><trkpt lat="45.3163708072433" lon="9.112606680971858"><ele>96.0</ele><time>2026-03-22T14:51:46Z</time></trkpt><trkpt lat="45.316297248136316" lon="9.11271164426717"><ele>95.5</ele><time>2026-03-22T14:51:47Z</time></trkpt><trkpt lat="45.316207234730236" lon="9.112784968428098"><ele>95.0</ele><time>2026-03-22T14:51:48Z</time></trkpt><trkpt lat="45.31609600143875" lon="9.112855358021863"><ele>94.5</ele><time>2026-03-22T14:51:49Z</time></trkpt><trkpt lat="45.31595552610227" lon="9.112923372695125"><ele>94.0</ele><time>2026-03-22T14:51:50Z</time></trkpt><trkpt lat="45.31580332689014" lon="9.112995183462882"><ele>94.0</ele><time>2026-03-22T14:51:51Z</time></trkpt><trkpt lat="45.31564643368488" lon="9.113076245690555"><ele>94.0</ele><time>2026-03-22T14:51:52Z</time></trkpt><trkpt lat="45.315507814248456" lon="9.113149088774218"><ele>94.0</ele><time>2026-03-22T14:51:53Z</time></trkpt><trkpt lat="45.315382760782995" lon="9.113215007069902"><ele>94.0</ele><time>2026-03-22T14:51:54Z</time></trkpt><trkpt lat="45.315268097537924" lon="9.113274988351687"><ele>94.0</ele><time>2026-03-22T14:51:55Z</time></trkpt><trkpt lat="45.31516369048136" lon="9.113329190022313"><ele>94.0</ele><time>2026-03-22T14:51:56Z</time></trkpt><trkpt lat="45.31507649075571" lon="9.11337607454076"><ele>94.0</ele><time>2026-03-22T14:51:57Z</time></trkpt><trkpt lat="45.314993883252924" lon="9.113443044923653"><ele>94.0</ele><time>2026-03-22T14:51:58Z</time></trkpt><trkpt lat="45.31493395827632" lon="9.113629249857807"><ele>94.0</ele><time>2026-03-22T14:51:59Z</time></trkpt><trkpt lat="45.31489718600598" lon="9.113783846908841"><ele>94.0</ele><time>2026-03-22T14:52:00Z</time></trkpt><trkpt lat="45.3148580710744" lon="9.113956998226817"><ele>94.0</ele><time>2026-03-22T14:52:01Z</time></trkpt><trkpt lat="45.3148131384453" lon="9.114156831552267"><ele>94.0</ele><time>2026-03-22T14:52:02Z</time></trkpt><trkpt lat="45.3147688373937" lon="9.114356744921945"><ele>94.0</ele><time>2026-03-22T14:52:03Z</time></trkpt><trkpt lat="45.31472548947427" lon="9.114557654480501"><ele>94.0</ele><time>2026-03-22T14:52:04Z</time></trkpt><trkpt lat="45.314678314961874" lon="9.114761580283893"><ele>94.0</ele><time>2026-03-22T14:52:05Z</time></trkpt><trkpt lat="45.314622954716306" lon="9.114969746789688"><ele>94.0</ele><time>2026-03-22T14:52:06Z</time></trkpt><trkpt lat="45.31457098930928" lon="9.115151651677937"><ele>94.0</ele><time>2026-03-22T14:52:07Z</time></trkpt><trkpt lat="45.314522012016766" lon="9.115309295567675"><ele>94.2</ele><time>2026-03-22T14:52:08Z</time></trkpt><trkpt lat="45.31447361097725" lon="9.115444352485493"><ele>94.4</ele><time>2026-03-22T14:52:09Z</time></trkpt><trkpt lat="45.314420974105396" lon="9.115537787139651"><ele>94.6</ele><time>2026-03-22T14:52:10Z</time></trkpt><trkpt lat="45.314351851268576" lon="9.115612960451458"><ele>94.8</ele><time>2026-03-22T14:52:11Z</time></trkpt><trkpt lat="45.314262540531466" lon="9.115693970084745"><ele>95.0</ele><time>2026-03-22T14:52:12Z</time></trkpt><trkpt lat="45.31415107787873" lon="9.115788492663409"><ele>95.0</ele><time>2026-03-22T14:52:13Z</time></trkpt><trkpt lat="45.31403890109745" lon="9.115869158710616"><ele>95.0</ele><time>2026-03-22T14:52:14Z</time></trkpt><trkpt lat="45.31390684489092" lon="9.115946040525142"><ele>95.0</ele><time>2026-03-22T14:52:15Z</time></trkpt><trkpt lat="45.313769827933825" lon="9.116022623443778"><ele>95.0</ele><time>2026-03-22T14:52:16Z</time></trkpt><trkpt lat="45.313626500066455" lon="9.116101461619442"><ele>94.0</ele><time>2026-03-22T14:52:17Z</time></trkpt><trkpt lat="45.31348345075736" lon="9.116180786273764"><ele>93.0</ele><time>2026-03-22T14:52:18Z</time></trkpt><trkpt lat="45.31334080475553" lon="9.116261562241897"><ele>92.0</ele><time>2026-03-22T14:52:19Z</time></trkpt><trkpt lat="45.31319849928677" lon="9.116342145138884"><ele>92.33333333333334</ele><time>2026-03-22T14:52:20Z</time></trkpt><trkpt lat="45.313055543742706" lon="9.11642361581719"><ele>92.66666666666667</ele><time>2026-03-22T14:52:21Z</time></trkpt><trkpt lat="45.31291335895369" lon="9.116505935471292"><ele>93.0</ele><time>2026-03-22T14:52:22Z</time></trkpt><trkpt lat="45.3127713614594" lon="9.116588148331845"><ele>93.0</ele><time>2026-03-22T14:52:23Z</time></trkpt><trkpt lat="45.31262856032706" lon="9.11667639463159"><ele>93.0</ele><time>2026-03-22T14:52:24Z</time></trkpt><trkpt lat="45.31248823307348" lon="9.116770043497613"><ele>93.0</ele><time>2026-03-22T14:52:25Z</time></trkpt><trkpt lat="45.31235243167682" lon="9.116858760837609"><ele>93.5</ele><time>2026-03-22T14:52:26Z</time></trkpt><trkpt lat="45.312214274906005" lon="9.116940479700991"><ele>94.0</ele><time>2026-03-22T14:52:27Z</time></trkpt><trkpt lat="45.31207370727703" lon="9.117019354126409"><ele>94.5</ele><time>2026-03-22T14:52:28Z</time></trkpt><trkpt lat="45.311935893500525" lon="9.117079541664758"><ele>95.0</ele><time>2026-03-22T14:52:29Z</time></trkpt><trkpt lat="45.31179261392158" lon="9.11714141414394"><ele>95.0</ele><time>2026-03-22T14:52:30Z</time></trkpt><trkpt lat="45.311647694613704" lon="9.117203994660944"><ele>95.0</ele><time>2026-03-22T14:52:31Z</time></trkpt><trkpt lat="45.31150021729396" lon="9.117279207806495"><ele>95.0</ele><time>2026-03-22T14:52:32Z</time></trkpt><trkpt lat="45.311361239893785" lon="9.11736215160815"><ele>95.0</ele><time>2026-03-22T14:52:33Z</time></trkpt><trkpt lat="45.31123596113095" lon="9.117446407995365"><ele>95.0</ele><time>2026-03-22T14:52:34Z</time></trkpt><trkpt lat="45.3111120580121" lon="9.117534274150788"><ele>95.0</ele><time>2026-03-22T14:52:35Z</time></trkpt><trkpt lat="45.310996045651514" lon="9.11761897714647"><ele>95.0</ele><time>2026-03-22T14:52:36Z</time></trkpt><trkpt lat="45.31089164233421" lon="9.117697346490175"><ele>95.0</ele><time>2026-03-22T14:52:37Z</time></trkpt><trkpt lat="45.31079611845474" lon="9.11776980751369"><ele>95.0</ele><time>2026-03-22T14:52:38Z</time></trkpt><trkpt lat="45.310703663616714" lon="9.11784340105372"><ele>95.0</ele><time>2026-03-22T14:52:39Z</time></trkpt><trkpt lat="45.310616576685305" lon="9.117912493008241"><ele>95.0</ele><time>2026-03-22T14:52:40Z</time></trkpt><trkpt lat="45.310514454300986" lon="9.117990237306156"><ele>95.0</ele><time>2026-03-22T14:52:41Z</time></trkpt><trkpt lat="45.310404548145286" lon="9.118076354236077"><ele>95.0</ele><time>2026-03-22T14:52:42Z</time></trkpt><trkpt lat="45.31029811623161" lon="9.118169655953281"><ele>95.0</ele><time>2026-03-22T14:52:43Z</time></trkpt><trkpt lat="45.31021590077997" lon="9.118249997388487"><ele>95.0</ele><time>2026-03-22T14:52:44Z</time></trkpt><trkpt lat="45.31015446336494" lon="9.118310034289523"><ele>95.0</ele><time>2026-03-22T14:52:45Z</time></trkpt><trkpt lat="45.31008873791733" lon="9.1183749841681"><ele>95.0</ele><time>2026-03-22T14:52:46Z</time></trkpt><trkpt lat="45.31001479404295" lon="9.118450014020329"><ele>94.8</ele><time>2026-03-22T14:52:47Z</time></trkpt><trkpt lat="45.309938214547486" lon="9.118531272247324"><ele>94.6</ele><time>2026-03-22T14:52:48Z</time></trkpt><trkpt lat="45.30985748691296" lon="9.118624297298455"><ele>94.4</ele><time>2026-03-22T14:52:49Z</time></trkpt><trkpt lat="45.309789085879544" lon="9.118714597330362"><ele>94.2</ele><time>2026-03-22T14:52:50Z</time></trkpt><trkpt lat="45.30973130431903" lon="9.11881060237561"><ele>94.0</ele><time>2026-03-22T14:52:51Z</time></trkpt><trkpt lat="45.309678753956604" lon="9.118923140949088"><ele>94.0</ele><time>2026-03-22T14:52:52Z</time></trkpt><trkpt lat="45.30963038651481" lon="9.119034823041444"><ele>94.0</ele><time>2026-03-22T14:52:53Z</time></trkpt><trkpt lat="45.30958652504466" lon="9.11917309774864"><ele>94.0</ele><time>2026-03-22T14:52:54Z</time></trkpt><trkpt lat="45.309557902755756" lon="9.119308050971977"><ele>94.0</ele><time>2026-03-22T14:52:55Z</time></trkpt><trkpt lat="45.30954951978144" lon="9.119481305754196"><ele>94.0</ele><time>2026-03-22T14:52:56Z</time></trkpt><trkpt lat="45.30954231273983" lon="9.11964839901441"><ele>94.0</ele><time>2026-03-22T14:52:57Z</time></trkpt><trkpt lat="45.30952867924856" lon="9.119774729300998"><ele>94.0</ele><time>2026-03-22T14:52:58Z</time></trkpt><trkpt lat="45.30950562932481" lon="9.11988042660431"><ele>94.0</ele><time>2026-03-22T14:52:59Z</time></trkpt><trkpt lat="45.30947304026366" lon="9.119973399858306"><ele>94.0</ele><time>2026-03-22T14:53:00Z</time></trkpt><trkpt lat="45.309425132703815" lon="9.120046342345455"><ele>94.0</ele><time>2026-03-22T14:53:01Z</time></trkpt><trkpt lat="45.30928383351832" lon="9.120132387186993"><ele>94.0</ele><time>2026-03-22T14:53:03Z</time></trkpt><trkpt lat="45.309173800681286" lon="9.120173223089402"><ele>94.0</ele><time>2026-03-22T14:53:04Z</time></trkpt><trkpt lat="45.30905091183881" lon="9.120217603284203"><ele>94.0</ele><time>2026-03-22T14:53:05Z</time></trkpt><trkpt lat="45.30892472380109" lon="9.120271536219214"><ele>94.0</ele><time>2026-03-22T14:53:06Z</time></trkpt><trkpt lat="45.30880613825844" lon="9.120330204787761"><ele>93.75</ele><time>2026-03-22T14:53:07Z</time></trkpt><trkpt lat="45.30868729087128" lon="9.120415624979723"><ele>93.5</ele><time>2026-03-22T14:53:08Z</time></trkpt><trkpt lat="45.308574057428665" lon="9.12052894945681"><ele>93.25</ele><time>2026-03-22T14:53:09Z</time></trkpt><trkpt lat="45.30846778873238" lon="9.120672170175464"><ele>93.0</ele><time>2026-03-22T14:53:10Z</time></trkpt><trkpt lat="45.30837121173825" lon="9.120815712991945"><ele>93.0</ele><time>2026-03-22T14:53:11Z</time></trkpt><trkpt lat="45.3082760485128" lon="9.120944636378244"><ele>93.0</ele><time>2026-03-22T14:53:12Z</time></trkpt><trkpt lat="45.3081788822864" lon="9.121046282688257"><ele>93.0</ele><time>2026-03-22T14:53:13Z</time></trkpt><trkpt lat="45.30807054329749" lon="9.121149428497692"><ele>93.0</ele><time>2026-03-22T14:53:14Z</time></trkpt><trkpt lat="45.30796234881257" lon="9.121251888623906"><ele>93.0</ele><time>2026-03-22T14:53:15Z</time></trkpt><trkpt lat="45.307850443611315" lon="9.121355524519704"><ele>93.0</ele><time>2026-03-22T14:53:16Z</time></trkpt><trkpt lat="45.30773608711599" lon="9.121451691127977"><ele>93.0</ele><time>2026-03-22T14:53:17Z</time></trkpt><trkpt lat="45.307622430330085" lon="9.121542629202287"><ele>93.0</ele><time>2026-03-22T14:53:18Z</time></trkpt><trkpt lat="45.30752138051705" lon="9.121627771534147"><ele>93.25</ele><time>2026-03-22T14:53:19Z</time></trkpt><trkpt lat="45.307424780696834" lon="9.121719497092714"><ele>93.5</ele><time>2026-03-22T14:53:20Z</time></trkpt><trkpt lat="45.307341434456504" lon="9.1218410611734"><ele>93.75</ele><time>2026-03-22T14:53:21Z</time></trkpt><trkpt lat="45.307281861312944" lon="9.122019449647421"><ele>94.0</ele><time>2026-03-22T14:53:22Z</time></trkpt><trkpt lat="45.30724304434791" lon="9.122179213477487"><ele>94.0</ele><time>2026-03-22T14:53:23Z</time></trkpt><trkpt lat="45.30720492023497" lon="9.12231207379282"><ele>94.0</ele><time>2026-03-22T14:53:24Z</time></trkpt><trkpt lat="45.30716320100738" lon="9.12241890800391"><ele>94.0</ele><time>2026-03-22T14:53:25Z</time></trkpt><trkpt lat="45.3071123197592" lon="9.122515904914874"><ele>94.0</ele><time>2026-03-22T14:53:26Z</time></trkpt><trkpt lat="45.30705330540099" lon="9.122590809865143"><ele>94.0</ele><time>2026-03-22T14:53:27Z</time></trkpt><trkpt lat="45.30697417113429" lon="9.122668730744866"><ele>94.0</ele><time>2026-03-22T14:53:28Z</time></trkpt><trkpt lat="45.306881668339955" lon="9.122738421998537"><ele>93.80000000000001</ele><time>2026-03-22T14:53:29Z</time></trkpt><trkpt lat="45.30678489304265" lon="9.122787574509685"><ele>93.60000000000001</ele><time>2026-03-22T14:53:30Z</time></trkpt><trkpt lat="45.30669140486438" lon="9.122826692783248"><ele>93.4</ele><time>2026-03-22T14:53:31Z</time></trkpt><trkpt lat="45.3066095147922" lon="9.122862930185594"><ele>93.2</ele><time>2026-03-22T14:53:32Z</time></trkpt><trkpt lat="45.3065293139081" lon="9.122914516276422"><ele>93.0</ele><time>2026-03-22T14:53:33Z</time></trkpt><trkpt lat="45.30645956751719" lon="9.12299086974378"><ele>93.25</ele><time>2026-03-22T14:53:34Z</time></trkpt><trkpt lat="45.30640412749036" lon="9.123117971242783"><ele>93.5</ele><time>2026-03-22T14:53:35Z</time></trkpt><trkpt lat="45.306343510088894" lon="9.123254976706443"><ele>93.75</ele><time>2026-03-22T14:53:37Z</time></trkpt><trkpt lat="45.306291364562085" lon="9.123381328293489"><ele>94.0</ele><time>2026-03-22T14:53:39Z</time></trkpt><trkpt lat="45.30622381505903" lon="9.123545004600173"><ele>94.2</ele><time>2026-03-22T14:53:41Z</time></trkpt><trkpt lat="45.306189770152606" lon="9.123627497355335"><ele>94.4</ele><time>2026-03-22T14:53:42Z</time></trkpt><trkpt lat="45.30614067048913" lon="9.123745319951386"><ele>94.6</ele><time>2026-03-22T14:53:43Z</time></trkpt><trkpt lat="45.3060900006669" lon="9.12386352400484"><ele>94.8</ele><time>2026-03-22T14:53:44Z</time></trkpt><trkpt lat="45.306031496184104" lon="9.123986547259578"><ele>95.0</ele><time>2026-03-22T14:53:45Z</time></trkpt><trkpt lat="45.305970004650874" lon="9.12411524289141"><ele>94.6</ele><time>2026-03-22T14:53:46Z</time></trkpt><trkpt lat="45.305906974900644" lon="9.124228111977995"><ele>94.2</ele><time>2026-03-22T14:53:47Z</time></trkpt><trkpt lat="45.3058335379182" lon="9.124338349906521"><ele>93.80000000000001</ele><time>2026-03-22T14:53:48Z</time></trkpt><trkpt lat="45.305757224218254" lon="9.12444053604179"><ele>93.4</ele><time>2026-03-22T14:53:49Z</time></trkpt><trkpt lat="45.3056834867776" lon="9.124523251515535"><ele>93.0</ele><time>2026-03-22T14:53:50Z</time></trkpt><trkpt lat="45.30560498975618" lon="9.124598538806561"><ele>93.2</ele><time>2026-03-22T14:53:51Z</time></trkpt><trkpt lat="45.30552638406616" lon="9.124658817361134"><ele>93.4</ele><time>2026-03-22T14:53:52Z</time></trkpt><trkpt lat="45.30544624775696" lon="9.124714943603685"><ele>93.60000000000001</ele><time>2026-03-22T14:53:53Z</time></trkpt><trkpt lat="45.305361147956575" lon="9.124767134177928"><ele>93.80000000000001</ele><time>2026-03-22T14:53:54Z</time></trkpt><trkpt lat="45.30527090565887" lon="9.124818452274361"><ele>94.0</ele><time>2026-03-22T14:53:55Z</time></trkpt><trkpt lat="45.305172968649984" lon="9.124869453429957"><ele>93.80000000000001</ele><time>2026-03-22T14:53:56Z</time></trkpt><trkpt lat="45.30506391231882" lon="9.124917139093093"><ele>93.60000000000001</ele><time>2026-03-22T14:53:57Z</time></trkpt><trkpt lat="45.304949624589064" lon="9.124956817784748"><ele>93.4</ele><time>2026-03-22T14:53:58Z</time></trkpt><trkpt lat="45.30484374115739" lon="9.124989715231179"><ele>93.2</ele><time>2026-03-22T14:53:59Z</time></trkpt><trkpt lat="45.30474621981605" lon="9.12502001463283"><ele>93.0</ele><time>2026-03-22T14:54:00Z</time></trkpt><trkpt lat="45.304656026604995" lon="9.125048037205328"><ele>93.5</ele><time>2026-03-22T14:54:01Z</time></trkpt><trkpt lat="45.30457191800474" lon="9.125078299839126"><ele>94.0</ele><time>2026-03-22T14:54:02Z</time></trkpt><trkpt lat="45.30449552482722" lon="9.125111813056012"><ele>94.5</ele><time>2026-03-22T14:54:03Z</time></trkpt><trkpt lat="45.304398253856775" lon="9.125177136652539"><ele>95.0</ele><time>2026-03-22T14:54:05Z</time></trkpt><trkpt lat="45.30434032274951" lon="9.125224136978149"><ele>95.5</ele><time>2026-03-22T14:54:09Z</time></trkpt><trkpt lat="45.30434141018846" lon="9.1253425803867"><ele>96.0</ele><time>2026-03-22T14:54:11Z</time></trkpt><trkpt lat="45.304367878732634" lon="9.125444599045752"><ele>96.0</ele><time>2026-03-22T14:54:13Z</time></trkpt><trkpt lat="45.304274001994095" lon="9.125442751224206"><ele>96.0</ele><time>2026-03-22T14:54:15Z</time></trkpt><trkpt lat="45.30438258316013" lon="9.12547939481146"><ele>96.0</ele><time>2026-03-22T14:54:54Z</time></trkpt><trkpt lat="45.30438459308195" lon="9.125697544396353"><ele>96.0</ele><time>2026-03-22T14:57:07Z</time></trkpt><trkpt lat="45.30435119917287" lon="9.125891661384765"><ele>95.83333333333333</ele><time>2026-03-22T14:57:09Z</time></trkpt><trkpt lat="45.30436699574714" lon="9.125984705526886"><ele>95.66666666666667</ele><time>2026-03-22T14:57:10Z</time></trkpt><trkpt lat="45.304382965248664" lon="9.12607894648254"><ele>95.5</ele><time>2026-03-22T14:57:11Z</time></trkpt><trkpt lat="45.3044069716819" lon="9.126221403477617"><ele>95.33333333333334</ele><time>2026-03-22T14:57:13Z</time></trkpt><trkpt lat="45.30440299716855" lon="9.12632030426069"><ele>95.16666666666667</ele><time>2026-03-22T14:57:15Z</time></trkpt><trkpt lat="45.30428463443767" lon="9.126352845541886"><ele>95.0</ele><time>2026-03-22T14:57:16Z</time></trkpt><trkpt lat="45.304183117989055" lon="9.12644863668659"><ele>94.8</ele><time>2026-03-22T14:57:17Z</time></trkpt><trkpt lat="45.304088857761144" lon="9.126570820302504"><ele>94.6</ele><time>2026-03-22T14:57:18Z</time></trkpt><trkpt lat="45.30399631443076" lon="9.126662470872548"><ele>94.4</ele><time>2026-03-22T14:57:19Z</time></trkpt><trkpt lat="45.30393083805631" lon="9.126741712520076"><ele>94.2</ele><time>2026-03-22T14:57:20Z</time></trkpt><trkpt lat="45.303872640070665" lon="9.126808070103145"><ele>94.0</ele><time>2026-03-22T14:57:21Z</time></trkpt><trkpt lat="45.30382957813402" lon="9.126874917465123"><ele>93.80000000000001</ele><time>2026-03-22T14:57:22Z</time></trkpt><trkpt lat="45.303769277735256" lon="9.126962852139838"><ele>93.60000000000001</ele><time>2026-03-22T14:57:23Z</time></trkpt><trkpt lat="45.30377269022705" lon="9.127126238913927"><ele>93.4</ele><time>2026-03-22T14:57:24Z</time></trkpt><trkpt lat="45.3037512703279" lon="9.127263895751202"><ele>93.2</ele><time>2026-03-22T14:57:25Z</time></trkpt><trkpt lat="45.303734498310476" lon="9.127401147001658"><ele>93.0</ele><time>2026-03-22T14:57:26Z</time></trkpt><trkpt lat="45.30371958772936" lon="9.127533222674284"><ele>93.0</ele><time>2026-03-22T14:57:27Z</time></trkpt><trkpt lat="45.303662912089166" lon="9.127643519541234"><ele>93.0</ele><time>2026-03-22T14:57:28Z</time></trkpt><trkpt lat="45.30365324736579" lon="9.127784317484636"><ele>93.0</ele><time>2026-03-22T14:57:29Z</time></trkpt><trkpt lat="45.30360991552269" lon="9.127895245025888"><ele>93.0</ele><time>2026-03-22T14:57:30Z</time></trkpt><trkpt lat="45.30358286106552" lon="9.128012583285134"><ele>93.0</ele><time>2026-03-22T14:57:31Z</time></trkpt><trkpt lat="45.30354963604822" lon="9.128113482132985"><ele>93.0</ele><time>2026-03-22T14:57:32Z</time></trkpt><trkpt lat="45.3035047811698" lon="9.128192644642166"><ele>93.0</ele><time>2026-03-22T14:57:33Z</time></trkpt><trkpt lat="45.30343772295075" lon="9.128252532294653"><ele>93.0</ele><time>2026-03-22T14:57:34Z</time></trkpt><trkpt lat="45.30336307998462" lon="9.12827033107877"><ele>93.0</ele><time>2026-03-22T14:57:35Z</time></trkpt><trkpt lat="45.303274684624874" lon="9.128302248544673"><ele>93.0</ele><time>2026-03-22T14:57:36Z</time></trkpt><trkpt lat="45.3031682386963" lon="9.12832102886664"><ele>93.0</ele><time>2026-03-22T14:57:37Z</time></trkpt><trkpt lat="45.30304957291906" lon="9.128357997499787"><ele>93.2</ele><time>2026-03-22T14:57:38Z</time></trkpt><trkpt lat="45.3029400034777" lon="9.128379115467567"><ele>93.4</ele><time>2026-03-22T14:57:39Z</time></trkpt><trkpt lat="45.30283192203715" lon="9.128404186961172"><ele>93.60000000000001</ele><time>2026-03-22T14:57:40Z</time></trkpt><trkpt lat="45.30272189510633" lon="9.128411743738305"><ele>93.80000000000001</ele><time>2026-03-22T14:57:41Z</time></trkpt><trkpt lat="45.30262248653466" lon="9.12845268825464"><ele>94.0</ele><time>2026-03-22T14:57:42Z</time></trkpt><trkpt lat="45.30253092334423" lon="9.128468424842618"><ele>94.0</ele><time>2026-03-22T14:57:43Z</time></trkpt><trkpt lat="45.302444645326986" lon="9.12848835912951"><ele>94.0</ele><time>2026-03-22T14:57:44Z</time></trkpt><trkpt lat="45.30235662845661" lon="9.128504472818067"><ele>94.0</ele><time>2026-03-22T14:57:45Z</time></trkpt><trkpt lat="45.30226881290445" lon="9.128533052263876"><ele>94.0</ele><time>2026-03-22T14:57:46Z</time></trkpt><trkpt lat="45.302181337756636" lon="9.128565185945192"><ele>94.0</ele><time>2026-03-22T14:57:47Z</time></trkpt><trkpt lat="45.30208912822295" lon="9.128603800704232"><ele>94.0</ele><time>2026-03-22T14:57:48Z</time></trkpt><trkpt lat="45.30201022614187" lon="9.128701777083394"><ele>94.0</ele><time>2026-03-22T14:57:49Z</time></trkpt><trkpt lat="45.3019464404941" lon="9.128847777547252"><ele>94.0</ele><time>2026-03-22T14:57:50Z</time></trkpt><trkpt lat="45.30189777185084" lon="9.129015635144043"><ele>94.0</ele><time>2026-03-22T14:57:51Z</time></trkpt><trkpt lat="45.30185263377556" lon="9.12920328053387"><ele>94.25</ele><time>2026-03-22T14:57:52Z</time></trkpt><trkpt lat="45.30181047796758" lon="9.129384141809904"><ele>94.5</ele><time>2026-03-22T14:57:53Z</time></trkpt><trkpt lat="45.30176269175634" lon="9.129589248880874"><ele>94.75</ele><time>2026-03-22T14:57:54Z</time></trkpt><trkpt lat="45.30171425284579" lon="9.129790813375829"><ele>95.0</ele><time>2026-03-22T14:57:55Z</time></trkpt><trkpt lat="45.301665093355474" lon="9.129992968983705"><ele>95.0</ele><time>2026-03-22T14:57:56Z</time></trkpt><trkpt lat="45.30161280525899" lon="9.13020304873711"><ele>95.0</ele><time>2026-03-22T14:57:57Z</time></trkpt><trkpt lat="45.30156311329234" lon="9.130396745988081"><ele>95.0</ele><time>2026-03-22T14:57:58Z</time></trkpt><trkpt lat="45.301513807642436" lon="9.130587978940847"><ele>95.0</ele><time>2026-03-22T14:57:59Z</time></trkpt><trkpt lat="45.30146260310017" lon="9.130784438780541"><ele>95.75</ele><time>2026-03-22T14:58:00Z</time></trkpt><trkpt lat="45.30141294655864" lon="9.130974959296422"><ele>96.5</ele><time>2026-03-22T14:58:01Z</time></trkpt><trkpt lat="45.301362682349065" lon="9.131166966678567"><ele>97.25</ele><time>2026-03-22T14:58:02Z</time></trkpt><trkpt lat="45.30131310010216" lon="9.131356029376345"><ele>98.0</ele><time>2026-03-22T14:58:03Z</time></trkpt><trkpt lat="45.30126267265303" lon="9.13154831493126"><ele>98.25</ele><time>2026-03-22T14:58:04Z</time></trkpt><trkpt lat="45.30121374957869" lon="9.13174153072521"><ele>98.5</ele><time>2026-03-22T14:58:05Z</time></trkpt><trkpt lat="45.30117501355335" lon="9.131941161760082"><ele>98.75</ele><time>2026-03-22T14:58:06Z</time></trkpt><trkpt lat="45.301154531747166" lon="9.132150685516349"><ele>99.0</ele><time>2026-03-22T14:58:07Z</time></trkpt><trkpt lat="45.301142578350756" lon="9.132358392386218"><ele>99.25</ele><time>2026-03-22T14:58:08Z</time></trkpt><trkpt lat="45.301138600392115" lon="9.132565609658887"><ele>99.5</ele><time>2026-03-22T14:58:09Z</time></trkpt><trkpt lat="45.30113809482219" lon="9.132772050827198"><ele>99.75</ele><time>2026-03-22T14:58:10Z</time></trkpt><trkpt lat="45.30114037755508" lon="9.132978015997557"><ele>100.0</ele><time>2026-03-22T14:58:11Z</time></trkpt><trkpt lat="45.30114368631402" lon="9.133180423771648"><ele>99.5</ele><time>2026-03-22T14:58:12Z</time></trkpt><trkpt lat="45.30114716992788" lon="9.133387006565048"><ele>99.0</ele><time>2026-03-22T14:58:13Z</time></trkpt><trkpt lat="45.30115087184265" lon="9.13358947287725"><ele>98.5</ele><time>2026-03-22T14:58:14Z</time></trkpt><trkpt lat="45.301155596866096" lon="9.133794829681225"><ele>98.0</ele><time>2026-03-22T14:58:15Z</time></trkpt><trkpt lat="45.3011603122747" lon="9.133999768587042"><ele>98.0</ele><time>2026-03-22T14:58:16Z</time></trkpt><trkpt lat="45.30116484668856" lon="9.134206645074338"><ele>98.0</ele><time>2026-03-22T14:58:17Z</time></trkpt><trkpt lat="45.301169296035475" lon="9.134410202662082"><ele>98.0</ele><time>2026-03-22T14:58:18Z</time></trkpt><trkpt lat="45.30117391633946" lon="9.134621581575534"><ele>98.0</ele><time>2026-03-22T14:58:19Z</time></trkpt><trkpt lat="45.30117853359536" lon="9.134832821021392"><ele>98.25</ele><time>2026-03-22T14:58:20Z</time></trkpt><trkpt lat="45.30118315139136" lon="9.135044085214329"><ele>98.5</ele><time>2026-03-22T14:58:21Z</time></trkpt><trkpt lat="45.30118669941262" lon="9.13525269641277"><ele>98.75</ele><time>2026-03-22T14:58:22Z</time></trkpt><trkpt lat="45.30118994746911" lon="9.135460500137336"><ele>99.0</ele><time>2026-03-22T14:58:23Z</time></trkpt><trkpt lat="45.301193260569804" lon="9.135672465304202"><ele>99.0</ele><time>2026-03-22T14:58:24Z</time></trkpt><trkpt lat="45.30119657954513" lon="9.135884806335472"><ele>99.0</ele><time>2026-03-22T14:58:25Z</time></trkpt><trkpt lat="45.30119990655499" lon="9.136097661358104"><ele>99.0</ele><time>2026-03-22T14:58:26Z</time></trkpt><trkpt lat="45.30120316824512" lon="9.136306337306385"><ele>99.0</ele><time>2026-03-22T14:58:27Z</time></trkpt><trkpt lat="45.30120641078932" lon="9.136513788352929"><ele>99.25</ele><time>2026-03-22T14:58:28Z</time></trkpt><trkpt lat="45.3012098493636" lon="9.136723523280173"><ele>99.5</ele><time>2026-03-22T14:58:29Z</time></trkpt><trkpt lat="45.30121337817055" lon="9.136937577486943"><ele>99.75</ele><time>2026-03-22T14:58:30Z</time></trkpt><trkpt lat="45.301216875908814" lon="9.137149747128635"><ele>100.0</ele><time>2026-03-22T14:58:31Z</time></trkpt><trkpt lat="45.301220343996796" lon="9.137361096290263"><ele>99.0</ele><time>2026-03-22T14:58:32Z</time></trkpt><trkpt lat="45.30122368319729" lon="9.137572123675453"><ele>98.0</ele><time>2026-03-22T14:58:33Z</time></trkpt><trkpt lat="45.30122721204392" lon="9.137784011170945"><ele>97.0</ele><time>2026-03-22T14:58:34Z</time></trkpt><trkpt lat="45.30123176778157" lon="9.137994196353525"><ele>96.0</ele><time>2026-03-22T14:58:35Z</time></trkpt><trkpt lat="45.30123816770815" lon="9.138207096137556"><ele>95.66666666666667</ele><time>2026-03-22T14:58:36Z</time></trkpt><trkpt lat="45.30125056330584" lon="9.138421266051582"><ele>95.33333333333334</ele><time>2026-03-22T14:58:37Z</time></trkpt><trkpt lat="45.301273007782264" lon="9.138633193763674"><ele>95.0</ele><time>2026-03-22T14:58:38Z</time></trkpt><trkpt lat="45.30129616912525" lon="9.138842245336523"><ele>95.0</ele><time>2026-03-22T14:58:39Z</time></trkpt><trkpt lat="45.301320396731576" lon="9.139051605089053"><ele>95.0</ele><time>2026-03-22T14:58:40Z</time></trkpt><trkpt lat="45.30134398446671" lon="9.139252958151165"><ele>95.0</ele><time>2026-03-22T14:58:41Z</time></trkpt><trkpt lat="45.30136868491114" lon="9.139468136936971"><ele>95.0</ele><time>2026-03-22T14:58:42Z</time></trkpt><trkpt lat="45.30139287844443" lon="9.139681040014588"><ele>96.0</ele><time>2026-03-22T14:58:43Z</time></trkpt><trkpt lat="45.30141686770251" lon="9.139892145492574"><ele>97.0</ele><time>2026-03-22T14:58:44Z</time></trkpt><trkpt lat="45.301442924058065" lon="9.140106343163417"><ele>98.0</ele><time>2026-03-22T14:58:45Z</time></trkpt><trkpt lat="45.30146811180967" lon="9.140319218187885"><ele>98.0</ele><time>2026-03-22T14:58:46Z</time></trkpt><trkpt lat="45.301492607508706" lon="9.140529519331835"><ele>98.0</ele><time>2026-03-22T14:58:47Z</time></trkpt><trkpt lat="45.3015295090076" lon="9.140735530716936"><ele>98.0</ele><time>2026-03-22T14:58:48Z</time></trkpt><trkpt lat="45.30154157641121" lon="9.140947482627125"><ele>98.0</ele><time>2026-03-22T14:58:49Z</time></trkpt><trkpt lat="45.30156630993582" lon="9.14115820797975"><ele>98.25</ele><time>2026-03-22T14:58:50Z</time></trkpt><trkpt lat="45.301589401721095" lon="9.14135494601321"><ele>98.5</ele><time>2026-03-22T14:58:51Z</time></trkpt><trkpt lat="45.30161096095781" lon="9.141538626980623"><ele>98.75</ele><time>2026-03-22T14:58:52Z</time></trkpt><trkpt lat="45.30163193570707" lon="9.141717328190625"><ele>99.0</ele><time>2026-03-22T14:58:53Z</time></trkpt><trkpt lat="45.30165346425137" lon="9.141896791307971"><ele>99.0</ele><time>2026-03-22T14:58:54Z</time></trkpt><trkpt lat="45.30167391509147" lon="9.142063377286634"><ele>99.0</ele><time>2026-03-22T14:58:55Z</time></trkpt><trkpt lat="45.30170345225941" lon="9.142214915131866"><ele>99.0</ele><time>2026-03-22T14:58:56Z</time></trkpt><trkpt lat="45.301718221616085" lon="9.142350429403098"><ele>99.0</ele><time>2026-03-22T14:58:57Z</time></trkpt><trkpt lat="45.301729938358136" lon="9.142462846692174"><ele>99.0</ele><time>2026-03-22T14:58:58Z</time></trkpt><trkpt lat="45.30172834900761" lon="9.14255811309259"><ele>98.5</ele><time>2026-03-22T14:58:59Z</time></trkpt><trkpt lat="45.30170942681851" lon="9.142646642016414"><ele>98.0</ele><time>2026-03-22T14:59:00Z</time></trkpt><trkpt lat="45.30161931565623" lon="9.14279182076122"><ele>97.5</ele><time>2026-03-22T14:59:02Z</time></trkpt><trkpt lat="45.301586943589705" lon="9.142873118567787"><ele>97.0</ele><time>2026-03-22T14:59:03Z</time></trkpt><trkpt lat="45.30158455955182" lon="9.142976556967994"><ele>96.5</ele><time>2026-03-22T14:59:04Z</time></trkpt><trkpt lat="45.301633542167714" lon="9.143065008139976"><ele>96.0</ele><time>2026-03-22T14:59:05Z</time></trkpt><trkpt lat="45.30170303154925" lon="9.143119900164027"><ele>96.0</ele><time>2026-03-22T14:59:06Z</time></trkpt><trkpt lat="45.30178895984791" lon="9.143145736965838"><ele>96.0</ele><time>2026-03-22T14:59:07Z</time></trkpt><trkpt lat="45.30190646054375" lon="9.143167626870659"><ele>96.0</ele><time>2026-03-22T14:59:08Z</time></trkpt><trkpt lat="45.30200296139225" lon="9.143223349217035"><ele>96.0</ele><time>2026-03-22T14:59:09Z</time></trkpt><trkpt lat="45.30209764107531" lon="9.143308800605983"><ele>96.0</ele><time>2026-03-22T14:59:10Z</time></trkpt><trkpt lat="45.302180200162375" lon="9.143382150631759"><ele>95.25</ele><time>2026-03-22T14:59:11Z</time></trkpt><trkpt lat="45.302267321219276" lon="9.143472388644367"><ele>94.5</ele><time>2026-03-22T14:59:12Z</time></trkpt><trkpt lat="45.302370262848626" lon="9.1436119818118"><ele>93.75</ele><time>2026-03-22T14:59:13Z</time></trkpt><trkpt lat="45.302459303166806" lon="9.143759488664344"><ele>93.0</ele><time>2026-03-22T14:59:14Z</time></trkpt><trkpt lat="45.30255208672722" lon="9.143921826507484"><ele>93.66666666666667</ele><time>2026-03-22T14:59:15Z</time></trkpt><trkpt lat="45.30263746150452" lon="9.14409385758161"><ele>94.33333333333334</ele><time>2026-03-22T14:59:16Z</time></trkpt><trkpt lat="45.30271796467755" lon="9.144278274651588"><ele>95.0</ele><time>2026-03-22T14:59:17Z</time></trkpt><trkpt lat="45.302794914517285" lon="9.144486040333708"><ele>95.0</ele><time>2026-03-22T14:59:18Z</time></trkpt><trkpt lat="45.30285674814552" lon="9.144692642541974"><ele>95.0</ele><time>2026-03-22T14:59:19Z</time></trkpt><trkpt lat="45.30291985227658" lon="9.144902139806051"><ele>95.0</ele><time>2026-03-22T14:59:20Z</time></trkpt><trkpt lat="45.302984690600596" lon="9.145113008247105"><ele>94.66666666666667</ele><time>2026-03-22T14:59:21Z</time></trkpt><trkpt lat="45.30305621620799" lon="9.145323456636232"><ele>94.33333333333333</ele><time>2026-03-22T14:59:22Z</time></trkpt><trkpt lat="45.30313614541508" lon="9.145531572343895"><ele>94.0</ele><time>2026-03-22T14:59:23Z</time></trkpt><trkpt lat="45.30320947181495" lon="9.145722655311799"><ele>93.75</ele><time>2026-03-22T14:59:24Z</time></trkpt><trkpt lat="45.30327866720985" lon="9.14589403930597"><ele>93.5</ele><time>2026-03-22T14:59:25Z</time></trkpt><trkpt lat="45.3033554462688" lon="9.146045661485768"><ele>93.25</ele><time>2026-03-22T14:59:26Z</time></trkpt><trkpt lat="45.30344184574255" lon="9.1461548092765"><ele>93.0</ele><time>2026-03-22T14:59:27Z</time></trkpt><trkpt lat="45.303552887052135" lon="9.14623368063265"><ele>93.0</ele><time>2026-03-22T14:59:28Z</time></trkpt><trkpt lat="45.30368179760611" lon="9.146264577894542"><ele>93.0</ele><time>2026-03-22T14:59:29Z</time></trkpt><trkpt lat="45.30382124830201" lon="9.146251633020901"><ele>93.0</ele><time>2026-03-22T14:59:30Z</time></trkpt><trkpt lat="45.303958197174566" lon="9.14620483994765"><ele>93.0</ele><time>2026-03-22T14:59:31Z</time></trkpt><trkpt lat="45.304092040699636" lon="9.146118457558375"><ele>92.66666666666667</ele><time>2026-03-22T14:59:32Z</time></trkpt><trkpt lat="45.304245320360536" lon="9.146011040031022"><ele>92.33333333333334</ele><time>2026-03-22T14:59:33Z</time></trkpt><trkpt lat="45.30441468424137" lon="9.14589585968105"><ele>92.0</ele><time>2026-03-22T14:59:34Z</time></trkpt><trkpt lat="45.30457540499789" lon="9.145789846145341"><ele>92.0</ele><time>2026-03-22T14:59:35Z</time></trkpt><trkpt lat="45.304744117155906" lon="9.145684569665033"><ele>92.0</ele><time>2026-03-22T14:59:36Z</time></trkpt><trkpt lat="45.3049070825303" lon="9.145578755675446"><ele>92.0</ele><time>2026-03-22T14:59:37Z</time></trkpt><trkpt lat="45.30506549366146" lon="9.1454763073437"><ele>93.33333333333334</ele><time>2026-03-22T14:59:38Z</time></trkpt><trkpt lat="45.30522724500149" lon="9.145379910715313"><ele>94.66666666666667</ele><time>2026-03-22T14:59:39Z</time></trkpt><trkpt lat="45.305386231931045" lon="9.145283550410376"><ele>96.0</ele><time>2026-03-22T14:59:40Z</time></trkpt><trkpt lat="45.30554513789952" lon="9.145188126993595"><ele>96.0</ele><time>2026-03-22T14:59:41Z</time></trkpt><trkpt lat="45.30570296239846" lon="9.145090857911699"><ele>96.0</ele><time>2026-03-22T14:59:42Z</time></trkpt><trkpt lat="45.305862454000945" lon="9.144997677487412"><ele>96.0</ele><time>2026-03-22T14:59:43Z</time></trkpt><trkpt lat="45.30602395693606" lon="9.144910683113483"><ele>97.0</ele><time>2026-03-22T14:59:44Z</time></trkpt><trkpt lat="45.30618444582519" lon="9.144827782953103"><ele>98.0</ele><time>2026-03-22T14:59:45Z</time></trkpt><trkpt lat="45.30635058222692" lon="9.144753049969685"><ele>99.0</ele><time>2026-03-22T14:59:46Z</time></trkpt><trkpt lat="45.306515995637334" lon="9.144684784511057"><ele>99.0</ele><time>2026-03-22T14:59:47Z</time></trkpt><trkpt lat="45.306685613859855" lon="9.144621807640473"><ele>99.0</ele><time>2026-03-22T14:59:48Z</time></trkpt><trkpt lat="45.306853900145576" lon="9.14456263868233"><ele>99.0</ele><time>2026-03-22T14:59:49Z</time></trkpt><trkpt lat="45.3070236680481" lon="9.144513072028232"><ele>99.0</ele><time>2026-03-22T14:59:50Z</time></trkpt><trkpt lat="45.30719709056668" lon="9.144469437108164"><ele>99.0</ele><time>2026-03-22T14:59:51Z</time></trkpt><trkpt lat="45.30736948192344" lon="9.144427783031286"><ele>99.0</ele><time>2026-03-22T14:59:52Z</time></trkpt><trkpt lat="45.307541376569546" lon="9.144389593278479"><ele>98.66666666666666</ele><time>2026-03-22T14:59:53Z</time></trkpt><trkpt lat="45.30771568979362" lon="9.14435754076561"><ele>98.33333333333333</ele><time>2026-03-22T14:59:54Z</time></trkpt><trkpt lat="45.30788775643337" lon="9.144319494358603"><ele>98.0</ele><time>2026-03-22T14:59:55Z</time></trkpt><trkpt lat="45.308060377220535" lon="9.144281880237818"><ele>96.66666666666666</ele><time>2026-03-22T14:59:56Z</time></trkpt><trkpt lat="45.308231230223726" lon="9.144236020820841"><ele>95.33333333333333</ele><time>2026-03-22T14:59:57Z</time></trkpt><trkpt lat="45.30839879279312" lon="9.144183773156842"><ele>94.0</ele><time>2026-03-22T14:59:58Z</time></trkpt><trkpt lat="45.3085691971544" lon="9.144129612295865"><ele>94.0</ele><time>2026-03-22T14:59:59Z</time></trkpt><trkpt lat="45.30874194688797" lon="9.144076886975428"><ele>94.0</ele><time>2026-03-22T15:00:00Z</time></trkpt><trkpt lat="45.30891361094075" lon="9.144026499984607"><ele>94.0</ele><time>2026-03-22T15:00:01Z</time></trkpt><trkpt lat="45.30908659365561" lon="9.143979214157048"><ele>93.0</ele><time>2026-03-22T15:00:02Z</time></trkpt><trkpt lat="45.30926051609316" lon="9.14393701126545"><ele>92.0</ele><time>2026-03-22T15:00:03Z</time></trkpt><trkpt lat="45.30942965351353" lon="9.143895984419233"><ele>91.0</ele><time>2026-03-22T15:00:04Z</time></trkpt><trkpt lat="45.3095904605248" lon="9.143864019988884"><ele>90.66666666666666</ele><time>2026-03-22T15:00:05Z</time></trkpt><trkpt lat="45.30975208845572" lon="9.143824237685136"><ele>90.33333333333333</ele><time>2026-03-22T15:00:06Z</time></trkpt><trkpt lat="45.30991089625883" lon="9.143783008392264"><ele>90.0</ele><time>2026-03-22T15:00:07Z</time></trkpt><trkpt lat="45.31007091890398" lon="9.143743033385284"><ele>90.0</ele><time>2026-03-22T15:00:08Z</time></trkpt><trkpt lat="45.31023277035661" lon="9.143700573191877"><ele>90.0</ele><time>2026-03-22T15:00:09Z</time></trkpt><trkpt lat="45.31039422608327" lon="9.14364987203974"><ele>90.0</ele><time>2026-03-22T15:00:10Z</time></trkpt><trkpt lat="45.310557867470024" lon="9.143593636200903"><ele>90.33333333333333</ele><time>2026-03-22T15:00:11Z</time></trkpt><trkpt lat="45.31072226716997" lon="9.14353997165691"><ele>90.66666666666666</ele><time>2026-03-22T15:00:12Z</time></trkpt><trkpt lat="45.31088693695298" lon="9.143487117361557"><ele>91.0</ele><time>2026-03-22T15:00:13Z</time></trkpt><trkpt lat="45.311047701089855" lon="9.143430831584434"><ele>91.0</ele><time>2026-03-22T15:00:14Z</time></trkpt><trkpt lat="45.311207755284904" lon="9.14336391162602"><ele>91.0</ele><time>2026-03-22T15:00:15Z</time></trkpt><trkpt lat="45.311365183791345" lon="9.143290826973427"><ele>91.0</ele><time>2026-03-22T15:00:16Z</time></trkpt><trkpt lat="45.31152103440225" lon="9.143220994262329"><ele>91.66666666666666</ele><time>2026-03-22T15:00:17Z</time></trkpt><trkpt lat="45.31167844068621" lon="9.143152810715877"><ele>92.33333333333333</ele><time>2026-03-22T15:00:18Z</time></trkpt><trkpt lat="45.31183635254198" lon="9.143089267084477"><ele>93.0</ele><time>2026-03-22T15:00:19Z</time></trkpt><trkpt lat="45.31199294914704" lon="9.143028929395133"><ele>93.0</ele><time>2026-03-22T15:00:20Z</time></trkpt><trkpt lat="45.31214999399077" lon="9.142962809049333"><ele>93.0</ele><time>2026-03-22T15:00:21Z</time></trkpt><trkpt lat="45.31230367037805" lon="9.142895472927117"><ele>93.0</ele><time>2026-03-22T15:00:22Z</time></trkpt><trkpt lat="45.312458364309805" lon="9.142829184486418"><ele>93.0</ele><time>2026-03-22T15:00:23Z</time></trkpt><trkpt lat="45.3126114852058" lon="9.142763613106514"><ele>93.0</ele><time>2026-03-22T15:00:24Z</time></trkpt><trkpt lat="45.31276390860387" lon="9.142704673932622"><ele>93.0</ele><time>2026-03-22T15:00:25Z</time></trkpt><trkpt lat="45.31292110437938" lon="9.142649870569375"><ele>93.33333333333333</ele><time>2026-03-22T15:00:26Z</time></trkpt><trkpt lat="45.31307874392375" lon="9.142600072921095"><ele>93.66666666666666</ele><time>2026-03-22T15:00:27Z</time></trkpt><trkpt lat="45.313229292654654" lon="9.142551635087218"><ele>94.0</ele><time>2026-03-22T15:00:28Z</time></trkpt><trkpt lat="45.31337088667556" lon="9.142509214660917"><ele>94.0</ele><time>2026-03-22T15:00:29Z</time></trkpt><trkpt lat="45.313510292615675" lon="9.142474932156562"><ele>94.0</ele><time>2026-03-22T15:00:30Z</time></trkpt><trkpt lat="45.31364185677159" lon="9.142446021932026"><ele>94.0</ele><time>2026-03-22T15:00:31Z</time></trkpt><trkpt lat="45.31375962919763" lon="9.142424861026502"><ele>94.0</ele><time>2026-03-22T15:00:32Z</time></trkpt><trkpt lat="45.313865754471635" lon="9.142415516553777"><ele>94.0</ele><time>2026-03-22T15:00:33Z</time></trkpt><trkpt lat="45.31396160694076" lon="9.14242492822316"><ele>94.0</ele><time>2026-03-22T15:00:34Z</time></trkpt><trkpt lat="45.31404153790872" lon="9.142451279709817"><ele>94.0</ele><time>2026-03-22T15:00:35Z</time></trkpt><trkpt lat="45.314117738041126" lon="9.142502551211473"><ele>94.0</ele><time>2026-03-22T15:00:36Z</time></trkpt><trkpt lat="45.3142011985385" lon="9.142575161427244"><ele>94.0</ele><time>2026-03-22T15:00:37Z</time></trkpt><trkpt lat="45.31428883801279" lon="9.142687175001493"><ele>94.0</ele><time>2026-03-22T15:00:38Z</time></trkpt><trkpt lat="45.31438878619049" lon="9.142823431226429"><ele>94.0</ele><time>2026-03-22T15:00:39Z</time></trkpt><trkpt lat="45.31449960758995" lon="9.142978029093213"><ele>94.0</ele><time>2026-03-22T15:00:40Z</time></trkpt><trkpt lat="45.31460949722895" lon="9.143132347537641"><ele>94.0</ele><time>2026-03-22T15:00:41Z</time></trkpt><trkpt lat="45.31472191923718" lon="9.143315850093073"><ele>93.0</ele><time>2026-03-22T15:00:42Z</time></trkpt><trkpt lat="45.314872384633006" lon="9.143478808464232"><ele>92.0</ele><time>2026-03-22T15:00:43Z</time></trkpt><trkpt lat="45.31501666988452" lon="9.143646522779886"><ele>91.0</ele><time>2026-03-22T15:00:44Z</time></trkpt><trkpt lat="45.31517124063459" lon="9.143808315144593"><ele>91.0</ele><time>2026-03-22T15:00:45Z</time></trkpt><trkpt lat="45.315330351587875" lon="9.143956140894003"><ele>91.0</ele><time>2026-03-22T15:00:46Z</time></trkpt><trkpt lat="45.31549260647455" lon="9.14408759928641"><ele>91.0</ele><time>2026-03-22T15:00:47Z</time></trkpt><trkpt lat="45.31565872425262" lon="9.144209250048142"><ele>91.33333333333333</ele><time>2026-03-22T15:00:48Z</time></trkpt><trkpt lat="45.315827632185474" lon="9.144322544527647"><ele>91.66666666666667</ele><time>2026-03-22T15:00:49Z</time></trkpt><trkpt lat="45.315995701373765" lon="9.144427910062008"><ele>92.0</ele><time>2026-03-22T15:00:50Z</time></trkpt><trkpt lat="45.316159264112194" lon="9.144536438903868"><ele>92.0</ele><time>2026-03-22T15:00:51Z</time></trkpt><trkpt lat="45.31632190235639" lon="9.144638874656707"><ele>92.0</ele><time>2026-03-22T15:00:52Z</time></trkpt><trkpt lat="45.316484330859815" lon="9.144735411306558"><ele>92.0</ele><time>2026-03-22T15:00:53Z</time></trkpt><trkpt lat="45.31664877294007" lon="9.144816782321671"><ele>92.0</ele><time>2026-03-22T15:00:54Z</time></trkpt><trkpt lat="45.3168152439506" lon="9.144884957010394"><ele>92.0</ele><time>2026-03-22T15:00:55Z</time></trkpt><trkpt lat="45.316983486326855" lon="9.144935488794083"><ele>92.0</ele><time>2026-03-22T15:00:56Z</time></trkpt><trkpt lat="45.31715366894571" lon="9.14497162539039"><ele>92.66666666666667</ele><time>2026-03-22T15:00:57Z</time></trkpt><trkpt lat="45.31732549578641" lon="9.14500014438483"><ele>93.33333333333333</ele><time>2026-03-22T15:00:58Z</time></trkpt><trkpt lat="45.317494960079564" lon="9.145008440866832"><ele>94.0</ele><time>2026-03-22T15:00:59Z</time></trkpt><trkpt lat="45.31766860673847" lon="9.144995007878695"><ele>94.0</ele><time>2026-03-22T15:01:00Z</time></trkpt><trkpt lat="45.31784664682126" lon="9.144974590542688"><ele>94.0</ele><time>2026-03-22T15:01:01Z</time></trkpt><trkpt lat="45.31802495031392" lon="9.14495448794984"><ele>94.0</ele><time>2026-03-22T15:01:02Z</time></trkpt><trkpt lat="45.31820465624771" lon="9.144929320758154"><ele>93.66666666666666</ele><time>2026-03-22T15:01:03Z</time></trkpt><trkpt lat="45.31838640274059" lon="9.144912105800135"><ele>93.33333333333333</ele><time>2026-03-22T15:01:04Z</time></trkpt><trkpt lat="45.31856898444091" lon="9.144895455881146"><ele>93.0</ele><time>2026-03-22T15:01:05Z</time></trkpt><trkpt lat="45.318750942350924" lon="9.144872829269834"><ele>92.66666666666667</ele><time>2026-03-22T15:01:06Z</time></trkpt><trkpt lat="45.31892936906974" lon="9.14485318243857"><ele>92.33333333333334</ele><time>2026-03-22T15:01:07Z</time></trkpt><trkpt lat="45.31911424662187" lon="9.14483108843646"><ele>92.0</ele><time>2026-03-22T15:01:08Z</time></trkpt><trkpt lat="45.319295993289465" lon="9.14480888737477"><ele>92.0</ele><time>2026-03-22T15:01:09Z</time></trkpt><trkpt lat="45.31946205896439" lon="9.144786990730346"><ele>92.0</ele><time>2026-03-22T15:01:10Z</time></trkpt><trkpt lat="45.31960810775836" lon="9.144768674000721"><ele>92.0</ele><time>2026-03-22T15:01:11Z</time></trkpt><trkpt lat="45.319730773454005" lon="9.14476373554665"><ele>92.0</ele><time>2026-03-22T15:01:12Z</time></trkpt><trkpt lat="45.31984213209882" lon="9.144782716421153"><ele>91.75</ele><time>2026-03-22T15:01:13Z</time></trkpt><trkpt lat="45.319953925472184" lon="9.14482048325742"><ele>91.5</ele><time>2026-03-22T15:01:14Z</time></trkpt><trkpt lat="45.320070189254" lon="9.144806683231375"><ele>91.25</ele><time>2026-03-22T15:01:15Z</time></trkpt><trkpt lat="45.32020263511244" lon="9.144756170758845"><ele>91.0</ele><time>2026-03-22T15:01:16Z</time></trkpt><trkpt lat="45.32034428074678" lon="9.144702389476711"><ele>91.0</ele><time>2026-03-22T15:01:17Z</time></trkpt><trkpt lat="45.320509357894714" lon="9.14467284105125"><ele>91.0</ele><time>2026-03-22T15:01:18Z</time></trkpt><trkpt lat="45.320679165710196" lon="9.144649960582907"><ele>91.0</ele><time>2026-03-22T15:01:19Z</time></trkpt><trkpt lat="45.32082388849229" lon="9.144630556928085"><ele>91.75</ele><time>2026-03-22T15:01:20Z</time></trkpt><trkpt lat="45.320953394433054" lon="9.144610390826124"><ele>92.5</ele><time>2026-03-22T15:01:21Z</time></trkpt><trkpt lat="45.32107254632828" lon="9.144595945916956"><ele>93.25</ele><time>2026-03-22T15:01:22Z</time></trkpt><trkpt lat="45.32117793028387" lon="9.14460068505406"><ele>94.0</ele><time>2026-03-22T15:01:23Z</time></trkpt><trkpt lat="45.321271469706" lon="9.144626114218564"><ele>94.0</ele><time>2026-03-22T15:01:24Z</time></trkpt><trkpt lat="45.32136337613423" lon="9.144650367261908"><ele>94.0</ele><time>2026-03-22T15:01:25Z</time></trkpt><trkpt lat="45.32146789440471" lon="9.144646753410665"><ele>94.0</ele><time>2026-03-22T15:01:26Z</time></trkpt><trkpt lat="45.32157868856926" lon="9.14461045197027"><ele>94.0</ele><time>2026-03-22T15:01:27Z</time></trkpt><trkpt lat="45.32169961309798" lon="9.144556391586303"><ele>94.0</ele><time>2026-03-22T15:01:28Z</time></trkpt><trkpt lat="45.32182368454995" lon="9.144504781958416"><ele>94.25</ele><time>2026-03-22T15:01:29Z</time></trkpt><trkpt lat="45.32195145502887" lon="9.144455237541901"><ele>94.5</ele><time>2026-03-22T15:01:30Z</time></trkpt><trkpt lat="45.32207894974332" lon="9.144395910054632"><ele>94.75</ele><time>2026-03-22T15:01:31Z</time></trkpt><trkpt lat="45.322208978277686" lon="9.144329725739812"><ele>95.0</ele><time>2026-03-22T15:01:32Z</time></trkpt><trkpt lat="45.32233741276979" lon="9.144269863181593"><ele>95.0</ele><time>2026-03-22T15:01:33Z</time></trkpt><trkpt lat="45.322465939107325" lon="9.14421181004888"><ele>95.0</ele><time>2026-03-22T15:01:34Z</time></trkpt><trkpt lat="45.32259113117165" lon="9.144151088062417"><ele>95.0</ele><time>2026-03-22T15:01:35Z</time></trkpt><trkpt lat="45.322717578874574" lon="9.144089861915848"><ele>95.0</ele><time>2026-03-22T15:01:36Z</time></trkpt><trkpt lat="45.32284070354844" lon="9.144028981664473"><ele>95.0</ele><time>2026-03-22T15:01:37Z</time></trkpt><trkpt lat="45.32296507998561" lon="9.14396783979868"><ele>95.0</ele><time>2026-03-22T15:01:38Z</time></trkpt><trkpt lat="45.323089771525915" lon="9.14390024648422"><ele>95.0</ele><time>2026-03-22T15:01:39Z</time></trkpt><trkpt lat="45.323209403221576" lon="9.143838312886063"><ele>95.0</ele><time>2026-03-22T15:01:40Z</time></trkpt><trkpt lat="45.323315966630034" lon="9.143785023728388"><ele>94.83333333333334</ele><time>2026-03-22T15:01:41Z</time></trkpt><trkpt lat="45.32340504149561" lon="9.143745364248856"><ele>94.66666666666667</ele><time>2026-03-22T15:01:42Z</time></trkpt><trkpt lat="45.32348140508373" lon="9.143714059608328"><ele>94.5</ele><time>2026-03-22T15:01:43Z</time></trkpt><trkpt lat="45.32354288263005" lon="9.143693400653195"><ele>94.33333333333333</ele><time>2026-03-22T15:01:44Z</time></trkpt><trkpt lat="45.3236497951837" lon="9.143646538283612"><ele>94.16666666666666</ele><time>2026-03-22T15:01:46Z</time></trkpt><trkpt lat="45.323715187392025" lon="9.143620302237746"><ele>94.0</ele><time>2026-03-22T15:01:47Z</time></trkpt><trkpt lat="45.323788048747105" lon="9.14349352578966"><ele>94.0</ele><time>2026-03-22T15:01:48Z</time></trkpt><trkpt lat="45.32388592711005" lon="9.143405114826049"><ele>94.0</ele><time>2026-03-22T15:01:49Z</time></trkpt><trkpt lat="45.324002771407066" lon="9.143317350599917"><ele>94.0</ele><time>2026-03-22T15:01:50Z</time></trkpt><trkpt lat="45.32412081923734" lon="9.143228634319145"><ele>94.0</ele><time>2026-03-22T15:01:51Z</time></trkpt><trkpt lat="45.324238898459825" lon="9.143143390631849"><ele>94.0</ele><time>2026-03-22T15:01:52Z</time></trkpt><trkpt lat="45.32435978561356" lon="9.143060492752843"><ele>94.0</ele><time>2026-03-22T15:01:53Z</time></trkpt><trkpt lat="45.32448522475032" lon="9.14297053352094"><ele>94.0</ele><time>2026-03-22T15:01:54Z</time></trkpt><trkpt lat="45.324603357912906" lon="9.142885651260555"><ele>94.0</ele><time>2026-03-22T15:01:55Z</time></trkpt><trkpt lat="45.32472012782403" lon="9.142803950103353"><ele>93.75</ele><time>2026-03-22T15:01:56Z</time></trkpt><trkpt lat="45.324833498465615" lon="9.142726383125844"><ele>93.5</ele><time>2026-03-22T15:01:57Z</time></trkpt><trkpt lat="45.32494359956928" lon="9.142648073354987"><ele>93.25</ele><time>2026-03-22T15:01:58Z</time></trkpt><trkpt lat="45.3250546234129" lon="9.14257438109384"><ele>93.0</ele><time>2026-03-22T15:01:59Z</time></trkpt><trkpt lat="45.32516701818885" lon="9.142508387068778"><ele>93.0</ele><time>2026-03-22T15:02:00Z</time></trkpt><trkpt lat="45.32527306669446" lon="9.14244004384848"><ele>93.0</ele><time>2026-03-22T15:02:01Z</time></trkpt><trkpt lat="45.3253648150061" lon="9.142376137801179"><ele>93.0</ele><time>2026-03-22T15:02:02Z</time></trkpt><trkpt lat="45.32543957484303" lon="9.142326194128483"><ele>93.0</ele><time>2026-03-22T15:02:03Z</time></trkpt><trkpt lat="45.325568591313704" lon="9.142234181611592"><ele>93.0</ele><time>2026-03-22T15:02:05Z</time></trkpt><trkpt lat="45.32565398787625" lon="9.142167639691642"><ele>93.0</ele><time>2026-03-22T15:02:06Z</time></trkpt><trkpt lat="45.32574867531375" lon="9.14209810997421"><ele>93.0</ele><time>2026-03-22T15:02:07Z</time></trkpt><trkpt lat="45.32584311304554" lon="9.142030672970382"><ele>93.0</ele><time>2026-03-22T15:02:08Z</time></trkpt><trkpt lat="45.325939515178476" lon="9.14196294784898"><ele>93.0</ele><time>2026-03-22T15:02:09Z</time></trkpt><trkpt lat="45.32603242585489" lon="9.141898880981916"><ele>93.0</ele><time>2026-03-22T15:02:10Z</time></trkpt><trkpt lat="45.3261182339827" lon="9.141836423255105"><ele>93.0</ele><time>2026-03-22T15:02:11Z</time></trkpt><trkpt lat="45.326203365283554" lon="9.141770981876821"><ele>93.0</ele><time>2026-03-22T15:02:12Z</time></trkpt><trkpt lat="45.32628704616351" lon="9.141696047541942"><ele>93.0</ele><time>2026-03-22T15:02:13Z</time></trkpt><trkpt lat="45.326362843147244" lon="9.141609178244835"><ele>93.0</ele><time>2026-03-22T15:02:14Z</time></trkpt><trkpt lat="45.326441796433286" lon="9.141495346234619"><ele>93.0</ele><time>2026-03-22T15:02:15Z</time></trkpt><trkpt lat="45.32651215194192" lon="9.141361117168866"><ele>93.4</ele><time>2026-03-22T15:02:16Z</time></trkpt><trkpt lat="45.32656649296833" lon="9.141222995268992"><ele>93.80000000000001</ele><time>2026-03-22T15:02:17Z</time></trkpt><trkpt lat="45.326599712922395" lon="9.141080577344743"><ele>94.2</ele><time>2026-03-22T15:02:18Z</time></trkpt><trkpt lat="45.32662449198138" lon="9.140951050590864"><ele>94.6</ele><time>2026-03-22T15:02:19Z</time></trkpt><trkpt lat="45.32664424374022" lon="9.140834853787974"><ele>95.0</ele><time>2026-03-22T15:02:20Z</time></trkpt><trkpt lat="45.32666656480809" lon="9.14072538781807"><ele>94.8</ele><time>2026-03-22T15:02:21Z</time></trkpt><trkpt lat="45.326652227393204" lon="9.14061254673478"><ele>94.6</ele><time>2026-03-22T15:02:22Z</time></trkpt><trkpt lat="45.32664503331502" lon="9.140492824889268"><ele>94.4</ele><time>2026-03-22T15:02:23Z</time></trkpt><trkpt lat="45.32664066456226" lon="9.140353213488032"><ele>94.2</ele><time>2026-03-22T15:02:24Z</time></trkpt><trkpt lat="45.326604694873836" lon="9.140195447384334"><ele>94.0</ele><time>2026-03-22T15:02:25Z</time></trkpt><trkpt lat="45.32658862331582" lon="9.140038041593002"><ele>93.75</ele><time>2026-03-22T15:02:26Z</time></trkpt><trkpt lat="45.326573858816666" lon="9.139858646191888"><ele>93.5</ele><time>2026-03-22T15:02:27Z</time></trkpt><trkpt lat="45.32656238711256" lon="9.139698752892548"><ele>93.25</ele><time>2026-03-22T15:02:28Z</time></trkpt><trkpt lat="45.32654767205899" lon="9.139531978301525"><ele>93.0</ele><time>2026-03-22T15:02:29Z</time></trkpt><trkpt lat="45.32653224273225" lon="9.139370482724068"><ele>93.0</ele><time>2026-03-22T15:02:30Z</time></trkpt><trkpt lat="45.32651631655014" lon="9.139212518592604"><ele>93.0</ele><time>2026-03-22T15:02:31Z</time></trkpt><trkpt lat="45.32650188841821" lon="9.139059401822472"><ele>93.0</ele><time>2026-03-22T15:02:32Z</time></trkpt><trkpt lat="45.32648816077998" lon="9.138909899703453"><ele>93.0</ele><time>2026-03-22T15:02:33Z</time></trkpt><trkpt lat="45.32647351387699" lon="9.138762789465877"><ele>93.0</ele><time>2026-03-22T15:02:34Z</time></trkpt><trkpt lat="45.326463281100786" lon="9.13861820228593"><ele>93.0</ele><time>2026-03-22T15:02:35Z</time></trkpt><trkpt lat="45.32644886029143" lon="9.138475591297214"><ele>93.0</ele><time>2026-03-22T15:02:36Z</time></trkpt><trkpt lat="45.32643619239552" lon="9.138348644822344"><ele>93.0</ele><time>2026-03-22T15:02:37Z</time></trkpt><trkpt lat="45.326427721964805" lon="9.138240305704754"><ele>93.0</ele><time>2026-03-22T15:02:38Z</time></trkpt><trkpt lat="45.32642280296861" lon="9.1381441819311"><ele>93.0</ele><time>2026-03-22T15:02:39Z</time></trkpt><trkpt lat="45.32641461344625" lon="9.13805289292049"><ele>93.0</ele><time>2026-03-22T15:02:40Z</time></trkpt><trkpt lat="45.32639909699937" lon="9.137877628992182"><ele>93.33333333333333</ele><time>2026-03-22T15:02:42Z</time></trkpt><trkpt lat="45.326387794595256" lon="9.137770527732672"><ele>93.66666666666667</ele><time>2026-03-22T15:02:43Z</time></trkpt><trkpt lat="45.32637613699978" lon="9.137650203204435"><ele>94.0</ele><time>2026-03-22T15:02:44Z</time></trkpt><trkpt lat="45.32636532078414" lon="9.137531518282435"><ele>94.33333333333334</ele><time>2026-03-22T15:02:45Z</time></trkpt><trkpt lat="45.32635517115232" lon="9.137422085859448"><ele>94.66666666666667</ele><time>2026-03-22T15:02:46Z</time></trkpt><trkpt lat="45.32634528329016" lon="9.137305185243205"><ele>95.0</ele><time>2026-03-22T15:02:47Z</time></trkpt><trkpt lat="45.32632944926317" lon="9.137175139073284"><ele>95.0</ele><time>2026-03-22T15:02:48Z</time></trkpt><trkpt lat="45.32631912245837" lon="9.13704555165081"><ele>95.0</ele><time>2026-03-22T15:02:49Z</time></trkpt><trkpt lat="45.32630775619816" lon="9.136916785442017"><ele>95.0</ele><time>2026-03-22T15:02:50Z</time></trkpt><trkpt lat="45.32629916573799" lon="9.136795494698225"><ele>95.0</ele><time>2026-03-22T15:02:51Z</time></trkpt><trkpt lat="45.326289613665644" lon="9.136679974039431"><ele>95.0</ele><time>2026-03-22T15:02:52Z</time></trkpt><trkpt lat="45.32627722273687" lon="9.136567090582224"><ele>95.0</ele><time>2026-03-22T15:02:53Z</time></trkpt><trkpt lat="45.32626524134555" lon="9.13645566022634"><ele>95.16666666666667</ele><time>2026-03-22T15:02:54Z</time></trkpt><trkpt lat="45.326259465623075" lon="9.136348334395683"><ele>95.33333333333334</ele><time>2026-03-22T15:02:55Z</time></trkpt><trkpt lat="45.32625555449024" lon="9.136245994987732"><ele>95.5</ele><time>2026-03-22T15:02:56Z</time></trkpt><trkpt lat="45.32628357654369" lon="9.136133559433484"><ele>95.66666666666667</ele><time>2026-03-22T15:02:58Z</time></trkpt><trkpt lat="45.32631049471863" lon="9.136031300754324"><ele>95.83333333333333</ele><time>2026-03-22T15:03:00Z</time></trkpt><trkpt lat="45.32637183675021" lon="9.135915975333509"><ele>96.0</ele><time>2026-03-22T15:03:02Z</time></trkpt><trkpt lat="45.32641695954631" lon="9.135819755760288"><ele>96.0</ele><time>2026-03-22T15:03:04Z</time></trkpt><trkpt lat="45.32650870276707" lon="9.135847762326218"><ele>96.0</ele><time>2026-03-22T15:03:05Z</time></trkpt><trkpt lat="45.3265730767401" lon="9.135835645034055"><ele>96.0</ele><time>2026-03-22T15:03:08Z</time></trkpt><trkpt lat="45.326640763218364" lon="9.135812258642163"><ele>96.0</ele><time>2026-03-22T15:03:13Z</time></trkpt><trkpt lat="45.32672041603403" lon="9.135787448826905"><ele>96.0</ele><time>2026-03-22T15:03:16Z</time></trkpt><trkpt lat="45.32678177793548" lon="9.135764049341804"><ele>96.0</ele><time>2026-03-22T15:03:18Z</time></trkpt><trkpt lat="45.32687098363259" lon="9.135744063797743"><ele>96.0</ele><time>2026-03-22T15:03:20Z</time></trkpt><trkpt lat="45.32697472932328" lon="9.135740054689522"><ele>96.0</ele><time>2026-03-22T15:03:22Z</time></trkpt><trkpt lat="45.327042808296135" lon="9.135768198206778"><ele>96.0</ele><time>2026-03-22T15:03:23Z</time></trkpt><trkpt lat="45.327132493286285" lon="9.135786141858912"><ele>96.0</ele><time>2026-03-22T15:03:24Z</time></trkpt><trkpt lat="45.32721389916198" lon="9.135881534131086"><ele>96.0</ele><time>2026-03-22T15:03:25Z</time></trkpt><trkpt lat="45.32727016119067" lon="9.136026409203078"><ele>95.66666666666667</ele><time>2026-03-22T15:03:26Z</time></trkpt><trkpt lat="45.32732759271531" lon="9.136204723676848"><ele>95.33333333333334</ele><time>2026-03-22T15:03:27Z</time></trkpt><trkpt lat="45.32737056598945" lon="9.136431719251108"><ele>95.0</ele><time>2026-03-22T15:03:28Z</time></trkpt><trkpt lat="45.327404762497295" lon="9.13669703557908"><ele>94.33333333333334</ele><time>2026-03-22T15:03:29Z</time></trkpt><trkpt lat="45.32742934686995" lon="9.13697939171978"><ele>93.66666666666667</ele><time>2026-03-22T15:03:30Z</time></trkpt><trkpt lat="45.32744915135226" lon="9.13726933794922"><ele>93.0</ele><time>2026-03-22T15:03:31Z</time></trkpt><trkpt lat="45.32746391609652" lon="9.137553363830929"><ele>92.66666666666667</ele><time>2026-03-22T15:03:32Z</time></trkpt><trkpt lat="45.32748067394632" lon="9.13782798739617"><ele>92.33333333333334</ele><time>2026-03-22T15:03:33Z</time></trkpt><trkpt lat="45.327498156496674" lon="9.13809142596869"><ele>92.0</ele><time>2026-03-22T15:03:34Z</time></trkpt><trkpt lat="45.3275136196191" lon="9.138343759630338"><ele>92.33333333333334</ele><time>2026-03-22T15:03:35Z</time></trkpt><trkpt lat="45.3275267692934" lon="9.138587426625977"><ele>92.66666666666667</ele><time>2026-03-22T15:03:36Z</time></trkpt><trkpt lat="45.32754044503869" lon="9.138828833690301"><ele>93.0</ele><time>2026-03-22T15:03:37Z</time></trkpt><trkpt lat="45.32755533812086" lon="9.139070783806993"><ele>93.0</ele><time>2026-03-22T15:03:38Z</time></trkpt><trkpt lat="45.3275684127361" lon="9.139311041135992"><ele>93.0</ele><time>2026-03-22T15:03:39Z</time></trkpt><trkpt lat="45.327582922761806" lon="9.139562752252239"><ele>93.0</ele><time>2026-03-22T15:03:40Z</time></trkpt><trkpt lat="45.32759967637109" lon="9.139831090740854"><ele>93.33333333333333</ele><time>2026-03-22T15:03:41Z</time></trkpt><trkpt lat="45.32761348616924" lon="9.140097485415609"><ele>93.66666666666666</ele><time>2026-03-22T15:03:42Z</time></trkpt><trkpt lat="45.327629631252734" lon="9.14036034470246"><ele>94.0</ele><time>2026-03-22T15:03:43Z</time></trkpt><trkpt lat="45.32764656326975" lon="9.140618848953045"><ele>94.0</ele><time>2026-03-22T15:03:44Z</time></trkpt><trkpt lat="45.32766294638208" lon="9.14087595907429"><ele>94.0</ele><time>2026-03-22T15:03:45Z</time></trkpt><trkpt lat="45.327678138154795" lon="9.141132463356678"><ele>94.0</ele><time>2026-03-22T15:03:46Z</time></trkpt><trkpt lat="45.327693357595926" lon="9.141388029323775"><ele>93.66666666666666</ele><time>2026-03-22T15:03:47Z</time></trkpt><trkpt lat="45.32771160280877" lon="9.141644283087615"><ele>93.33333333333333</ele><time>2026-03-22T15:03:48Z</time></trkpt><trkpt lat="45.32772841679029" lon="9.14190428207806"><ele>93.0</ele><time>2026-03-22T15:03:49Z</time></trkpt><trkpt lat="45.32774257878622" lon="9.142170169653726"><ele>93.0</ele><time>2026-03-22T15:03:50Z</time></trkpt><trkpt lat="45.32775882250773" lon="9.142436285296768"><ele>93.0</ele><time>2026-03-22T15:03:51Z</time></trkpt><trkpt lat="45.32777544459922" lon="9.14270418376269"><ele>93.0</ele><time>2026-03-22T15:03:52Z</time></trkpt><trkpt lat="45.32779948940804" lon="9.142994297140735"><ele>93.0</ele><time>2026-03-22T15:03:53Z</time></trkpt><trkpt lat="45.327822151997324" lon="9.143297358897474"><ele>93.0</ele><time>2026-03-22T15:03:54Z</time></trkpt><trkpt lat="45.32783613716711" lon="9.143584373246805"><ele>93.0</ele><time>2026-03-22T15:03:55Z</time></trkpt><trkpt lat="45.32785149054689" lon="9.143868204545733"><ele>93.0</ele><time>2026-03-22T15:03:56Z</time></trkpt><trkpt lat="45.32786856224544" lon="9.144147074291036"><ele>93.0</ele><time>2026-03-22T15:03:57Z</time></trkpt><trkpt lat="45.327885372366524" lon="9.144426412063652"><ele>93.0</ele><time>2026-03-22T15:03:58Z</time></trkpt><trkpt lat="45.32790244544309" lon="9.144705764015105"><ele>92.33333333333333</ele><time>2026-03-22T15:03:59Z</time></trkpt><trkpt lat="45.32792175850653" lon="9.144982414954264"><ele>91.66666666666666</ele><time>2026-03-22T15:04:00Z</time></trkpt><trkpt lat="45.32793830046068" lon="9.145260130708332"><ele>91.0</ele><time>2026-03-22T15:04:01Z</time></trkpt><trkpt lat="45.32795406809127" lon="9.145537001548966"><ele>91.33333333333333</ele><time>2026-03-22T15:04:02Z</time></trkpt><trkpt lat="45.3279710057838" lon="9.145816757278913"><ele>91.66666666666667</ele><time>2026-03-22T15:04:03Z</time></trkpt><trkpt lat="45.3279860408889" lon="9.146096693394087"><ele>92.0</ele><time>2026-03-22T15:04:04Z</time></trkpt><trkpt lat="45.32800074226926" lon="9.146379613663703"><ele>92.0</ele><time>2026-03-22T15:04:05Z</time></trkpt><trkpt lat="45.32801853311725" lon="9.146668794923144"><ele>92.0</ele><time>2026-03-22T15:04:06Z</time></trkpt><trkpt lat="45.328037717574254" lon="9.146969130051263"><ele>92.0</ele><time>2026-03-22T15:04:07Z</time></trkpt><trkpt lat="45.32805467978575" lon="9.147271078949554"><ele>91.66666666666667</ele><time>2026-03-22T15:04:08Z</time></trkpt><trkpt lat="45.32807509714376" lon="9.147573944963804"><ele>91.33333333333333</ele><time>2026-03-22T15:04:09Z</time></trkpt><trkpt lat="45.32809082175483" lon="9.147871499104184"><ele>91.0</ele><time>2026-03-22T15:04:10Z</time></trkpt><trkpt lat="45.32810892334662" lon="9.148163691349586"><ele>91.0</ele><time>2026-03-22T15:04:11Z</time></trkpt><trkpt lat="45.32812582416438" lon="9.148454430350084"><ele>91.0</ele><time>2026-03-22T15:04:12Z</time></trkpt><trkpt lat="45.32814333911336" lon="9.148740241776514"><ele>91.0</ele><time>2026-03-22T15:04:13Z</time></trkpt><trkpt lat="45.32816099325361" lon="9.149023720699896"><ele>91.0</ele><time>2026-03-22T15:04:14Z</time></trkpt><trkpt lat="45.32817696836834" lon="9.149304246254026"><ele>91.0</ele><time>2026-03-22T15:04:15Z</time></trkpt><trkpt lat="45.32819361644903" lon="9.149582727327978"><ele>91.0</ele><time>2026-03-22T15:04:16Z</time></trkpt><trkpt lat="45.328209876816395" lon="9.149858558795747"><ele>90.66666666666666</ele><time>2026-03-22T15:04:17Z</time></trkpt><trkpt lat="45.32822626899712" lon="9.150133489630436"><ele>90.33333333333333</ele><time>2026-03-22T15:04:18Z</time></trkpt><trkpt lat="45.32824105012906" lon="9.150405449377486"><ele>90.0</ele><time>2026-03-22T15:04:19Z</time></trkpt><trkpt lat="45.328257118265924" lon="9.150678537839362"><ele>90.0</ele><time>2026-03-22T15:04:20Z</time></trkpt><trkpt lat="45.328275465433606" lon="9.150954419616944"><ele>90.0</ele><time>2026-03-22T15:04:21Z</time></trkpt><trkpt lat="45.32829317815126" lon="9.151237223657901"><ele>90.0</ele><time>2026-03-22T15:04:22Z</time></trkpt><trkpt lat="45.32831066077143" lon="9.15151854482321"><ele>90.0</ele><time>2026-03-22T15:04:23Z</time></trkpt><trkpt lat="45.32832746337643" lon="9.151805308872481"><ele>90.0</ele><time>2026-03-22T15:04:24Z</time></trkpt><trkpt lat="45.328341976664824" lon="9.152091841148232"><ele>90.0</ele><time>2026-03-22T15:04:25Z</time></trkpt><trkpt lat="45.328361124701324" lon="9.152373948283106"><ele>90.33333333333333</ele><time>2026-03-22T15:04:26Z</time></trkpt><trkpt lat="45.328382112095454" lon="9.152653123149255"><ele>90.66666666666666</ele><time>2026-03-22T15:04:27Z</time></trkpt><trkpt lat="45.32839910595284" lon="9.152930779542615"><ele>91.0</ele><time>2026-03-22T15:04:28Z</time></trkpt><trkpt lat="45.32841518073203" lon="9.153208406193551"><ele>91.0</ele><time>2026-03-22T15:04:29Z</time></trkpt><trkpt lat="45.32843196256118" lon="9.153486488634531"><ele>91.0</ele><time>2026-03-22T15:04:30Z</time></trkpt><trkpt lat="45.32845037621567" lon="9.15376473746599"><ele>91.0</ele><time>2026-03-22T15:04:31Z</time></trkpt><trkpt lat="45.32846624521588" lon="9.154041161422457"><ele>91.66666666666666</ele><time>2026-03-22T15:04:32Z</time></trkpt><trkpt lat="45.3284807524635" lon="9.154315756535864"><ele>92.33333333333333</ele><time>2026-03-22T15:04:33Z</time></trkpt><trkpt lat="45.32849695195689" lon="9.154589622454893"><ele>93.0</ele><time>2026-03-22T15:04:34Z</time></trkpt><trkpt lat="45.328513957045516" lon="9.154864774790951"><ele>93.33333333333333</ele><time>2026-03-22T15:04:35Z</time></trkpt><trkpt lat="45.32852834967907" lon="9.155139574937664"><ele>93.66666666666666</ele><time>2026-03-22T15:04:36Z</time></trkpt><trkpt lat="45.32854433072661" lon="9.155413128309332"><ele>94.0</ele><time>2026-03-22T15:04:37Z</time></trkpt><trkpt lat="45.328560657666905" lon="9.155690994517643"><ele>94.0</ele><time>2026-03-22T15:04:38Z</time></trkpt><trkpt lat="45.32857815675976" lon="9.155984174190538"><ele>94.0</ele><time>2026-03-22T15:04:39Z</time></trkpt><trkpt lat="45.32859829876186" lon="9.156289744073957"><ele>94.0</ele><time>2026-03-22T15:04:40Z</time></trkpt><trkpt lat="45.32861567157397" lon="9.156588109193235"><ele>94.0</ele><time>2026-03-22T15:04:41Z</time></trkpt><trkpt lat="45.32863202296745" lon="9.156886420092176"><ele>94.0</ele><time>2026-03-22T15:04:42Z</time></trkpt><trkpt lat="45.32864839916444" lon="9.15717910081365"><ele>94.0</ele><time>2026-03-22T15:04:43Z</time></trkpt><trkpt lat="45.32866558886006" lon="9.15746537082974"><ele>93.0</ele><time>2026-03-22T15:04:44Z</time></trkpt><trkpt lat="45.32868285776005" lon="9.157750619457975"><ele>92.0</ele><time>2026-03-22T15:04:45Z</time></trkpt><trkpt lat="45.328698566823654" lon="9.158032068995512"><ele>91.0</ele><time>2026-03-22T15:04:46Z</time></trkpt><trkpt lat="45.328716165488736" lon="9.158309340588575"><ele>91.0</ele><time>2026-03-22T15:04:47Z</time></trkpt><trkpt lat="45.32873437002543" lon="9.158582166419672"><ele>91.0</ele><time>2026-03-22T15:04:48Z</time></trkpt><trkpt lat="45.328754458637775" lon="9.158853046592894"><ele>91.0</ele><time>2026-03-22T15:04:49Z</time></trkpt><trkpt lat="45.328771384165684" lon="9.159123184066301"><ele>91.0</ele><time>2026-03-22T15:04:50Z</time></trkpt><trkpt lat="45.328786038888964" lon="9.159386851463632"><ele>91.0</ele><time>2026-03-22T15:04:51Z</time></trkpt><trkpt lat="45.32879860038536" lon="9.159649898653107"><ele>91.0</ele><time>2026-03-22T15:04:52Z</time></trkpt><trkpt lat="45.32881327757644" lon="9.159909850417208"><ele>91.0</ele><time>2026-03-22T15:04:53Z</time></trkpt><trkpt lat="45.32882966994485" lon="9.160169062711288"><ele>91.0</ele><time>2026-03-22T15:04:54Z</time></trkpt><trkpt lat="45.32884558697822" lon="9.160428159798458"><ele>91.0</ele><time>2026-03-22T15:04:55Z</time></trkpt><trkpt lat="45.32885934078621" lon="9.160686182194958"><ele>90.66666666666666</ele><time>2026-03-22T15:04:56Z</time></trkpt><trkpt lat="45.32887522220366" lon="9.160942788031543"><ele>90.33333333333333</ele><time>2026-03-22T15:04:57Z</time></trkpt><trkpt lat="45.32888944214979" lon="9.161197947401071"><ele>90.0</ele><time>2026-03-22T15:04:58Z</time></trkpt><trkpt lat="45.32890435795118" lon="9.161447789248994"><ele>91.33333333333333</ele><time>2026-03-22T15:04:59Z</time></trkpt><trkpt lat="45.32891845934907" lon="9.161690645010191"><ele>92.66666666666666</ele><time>2026-03-22T15:05:00Z</time></trkpt><trkpt lat="45.32893593590195" lon="9.161927712109172"><ele>94.0</ele><time>2026-03-22T15:05:01Z</time></trkpt><trkpt lat="45.32894938438089" lon="9.162148565100617"><ele>94.0</ele><time>2026-03-22T15:05:02Z</time></trkpt><trkpt lat="45.32896176530113" lon="9.162354400251942"><ele>94.0</ele><time>2026-03-22T15:05:03Z</time></trkpt><trkpt lat="45.32897431374413" lon="9.162561681488281"><ele>94.0</ele><time>2026-03-22T15:05:04Z</time></trkpt><trkpt lat="45.328985683363456" lon="9.162773869789655"><ele>94.0</ele><time>2026-03-22T15:05:05Z</time></trkpt><trkpt lat="45.32899729841422" lon="9.162998130544787"><ele>93.66666666666666</ele><time>2026-03-22T15:05:06Z</time></trkpt><trkpt lat="45.3290098126812" lon="9.163228750848695"><ele>93.33333333333333</ele><time>2026-03-22T15:05:07Z</time></trkpt><trkpt lat="45.3290224062026" lon="9.163464332138043"><ele>93.0</ele><time>2026-03-22T15:05:08Z</time></trkpt><trkpt lat="45.32903308025011" lon="9.163707129192721"><ele>93.0</ele><time>2026-03-22T15:05:09Z</time></trkpt><trkpt lat="45.329045731270725" lon="9.163953989425435"><ele>93.0</ele><time>2026-03-22T15:05:10Z</time></trkpt><trkpt lat="45.32906117149417" lon="9.164201801868122"><ele>93.0</ele><time>2026-03-22T15:05:11Z</time></trkpt><trkpt lat="45.32907498981232" lon="9.164453785882161"><ele>93.33333333333333</ele><time>2026-03-22T15:05:12Z</time></trkpt><trkpt lat="45.329089899285684" lon="9.164706832523205"><ele>93.66666666666666</ele><time>2026-03-22T15:05:13Z</time></trkpt><trkpt lat="45.32910683974253" lon="9.16496075036398"><ele>94.0</ele><time>2026-03-22T15:05:14Z</time></trkpt><trkpt lat="45.3291181844624" lon="9.165218831306174"><ele>94.0</ele><time>2026-03-22T15:05:15Z</time></trkpt><trkpt lat="45.32913301836778" lon="9.165476345740183"><ele>94.0</ele><time>2026-03-22T15:05:16Z</time></trkpt><trkpt lat="45.32914967844721" lon="9.165730687268868"><ele>94.0</ele><time>2026-03-22T15:05:17Z</time></trkpt><trkpt lat="45.32916617815649" lon="9.165985525091344"><ele>94.0</ele><time>2026-03-22T15:05:18Z</time></trkpt><trkpt lat="45.32918310021079" lon="9.166245279227875"><ele>94.0</ele><time>2026-03-22T15:05:19Z</time></trkpt><trkpt lat="45.329198352868275" lon="9.166501805429771"><ele>94.0</ele><time>2026-03-22T15:05:20Z</time></trkpt><trkpt lat="45.32920792340297" lon="9.16675757462149"><ele>94.0</ele><time>2026-03-22T15:05:21Z</time></trkpt><trkpt lat="45.32921454293803" lon="9.167009475296076"><ele>94.0</ele><time>2026-03-22T15:05:22Z</time></trkpt><trkpt lat="45.32922339436709" lon="9.167257890655257"><ele>94.0</ele><time>2026-03-22T15:05:23Z</time></trkpt><trkpt lat="45.32923650623765" lon="9.167503781177238"><ele>94.33333333333333</ele><time>2026-03-22T15:05:24Z</time></trkpt><trkpt lat="45.329252384349005" lon="9.167749430955839"><ele>94.66666666666667</ele><time>2026-03-22T15:05:25Z</time></trkpt><trkpt lat="45.329266647213224" lon="9.167994647049362"><ele>95.0</ele><time>2026-03-22T15:05:26Z</time></trkpt><trkpt lat="45.329281816219826" lon="9.168239389357149"><ele>95.0</ele><time>2026-03-22T15:05:27Z</time></trkpt><trkpt lat="45.32929841050537" lon="9.168485127391081"><ele>95.0</ele><time>2026-03-22T15:05:28Z</time></trkpt><trkpt lat="45.329318375200955" lon="9.168728605985844"><ele>95.0</ele><time>2026-03-22T15:05:29Z</time></trkpt><trkpt lat="45.32933666641284" lon="9.168962362950385"><ele>95.0</ele><time>2026-03-22T15:05:30Z</time></trkpt><trkpt lat="45.32935744883387" lon="9.169199558246538"><ele>95.0</ele><time>2026-03-22T15:05:31Z</time></trkpt><trkpt lat="45.32937853065282" lon="9.169436368389853"><ele>95.0</ele><time>2026-03-22T15:05:32Z</time></trkpt><trkpt lat="45.329394765063526" lon="9.169675907541045"><ele>95.0</ele><time>2026-03-22T15:05:33Z</time></trkpt><trkpt lat="45.32940835383973" lon="9.169919273281868"><ele>95.0</ele><time>2026-03-22T15:05:34Z</time></trkpt><trkpt lat="45.32941972437161" lon="9.170165792808058"><ele>95.0</ele><time>2026-03-22T15:05:35Z</time></trkpt><trkpt lat="45.32943237313448" lon="9.170412885715708"><ele>95.0</ele><time>2026-03-22T15:05:36Z</time></trkpt><trkpt lat="45.32944822578976" lon="9.17066507054582"><ele>95.0</ele><time>2026-03-22T15:05:37Z</time></trkpt><trkpt lat="45.32946478727964" lon="9.170917962274636"><ele>95.0</ele><time>2026-03-22T15:05:38Z</time></trkpt><trkpt lat="45.32947913084559" lon="9.171172670358983"><ele>94.66666666666667</ele><time>2026-03-22T15:05:39Z</time></trkpt><trkpt lat="45.32949555763046" lon="9.171429382565025"><ele>94.33333333333333</ele><time>2026-03-22T15:05:40Z</time></trkpt><trkpt lat="45.32951014463339" lon="9.171683418639443"><ele>94.0</ele><time>2026-03-22T15:05:41Z</time></trkpt><trkpt lat="45.329526736379336" lon="9.171937339057449"><ele>94.0</ele><time>2026-03-22T15:05:42Z</time></trkpt><trkpt lat="45.3295436753839" lon="9.172190052243415"><ele>94.0</ele><time>2026-03-22T15:05:43Z</time></trkpt><trkpt lat="45.32955886567536" lon="9.172443044941588"><ele>94.0</ele><time>2026-03-22T15:05:44Z</time></trkpt><trkpt lat="45.32957162565858" lon="9.172694385879295"><ele>93.33333333333333</ele><time>2026-03-22T15:05:45Z</time></trkpt><trkpt lat="45.32958120972141" lon="9.172947731841994"><ele>92.66666666666667</ele><time>2026-03-22T15:05:46Z</time></trkpt><trkpt lat="45.329592522105685" lon="9.173195565917021"><ele>92.0</ele><time>2026-03-22T15:05:47Z</time></trkpt><trkpt lat="45.3296053225376" lon="9.173442725148682"><ele>91.66666666666667</ele><time>2026-03-22T15:05:48Z</time></trkpt><trkpt lat="45.32962172289115" lon="9.173684327516959"><ele>91.33333333333333</ele><time>2026-03-22T15:05:49Z</time></trkpt><trkpt lat="45.3296375104504" lon="9.17392455187675"><ele>91.0</ele><time>2026-03-22T15:05:50Z</time></trkpt><trkpt lat="45.32965549144706" lon="9.174164436138383"><ele>90.33333333333333</ele><time>2026-03-22T15:05:51Z</time></trkpt><trkpt lat="45.32967329372693" lon="9.174401367440387"><ele>89.66666666666667</ele><time>2026-03-22T15:05:52Z</time></trkpt><trkpt lat="45.32969096514346" lon="9.174639366194004"><ele>89.0</ele><time>2026-03-22T15:05:53Z</time></trkpt><trkpt lat="45.329708001862" lon="9.17487721916492"><ele>89.0</ele><time>2026-03-22T15:05:54Z</time></trkpt><trkpt lat="45.32972226799872" lon="9.175114795698347"><ele>89.0</ele><time>2026-03-22T15:05:55Z</time></trkpt><trkpt lat="45.32973461102651" lon="9.175354320617402"><ele>89.0</ele><time>2026-03-22T15:05:56Z</time></trkpt><trkpt lat="45.3297480011254" lon="9.175592695361564"><ele>89.33333333333334</ele><time>2026-03-22T15:05:57Z</time></trkpt><trkpt lat="45.32976100049087" lon="9.175831976905352"><ele>89.66666666666667</ele><time>2026-03-22T15:05:58Z</time></trkpt><trkpt lat="45.3297766154964" lon="9.176070265402982"><ele>90.0</ele><time>2026-03-22T15:05:59Z</time></trkpt><trkpt lat="45.32978879997186" lon="9.176314089904231"><ele>90.0</ele><time>2026-03-22T15:06:00Z</time></trkpt><trkpt lat="45.32980948327283" lon="9.176556816814536"><ele>90.0</ele><time>2026-03-22T15:06:01Z</time></trkpt><trkpt lat="45.329822571501865" lon="9.176803405227469"><ele>90.0</ele><time>2026-03-22T15:06:02Z</time></trkpt><trkpt lat="45.32983691185944" lon="9.17705138330861"><ele>90.0</ele><time>2026-03-22T15:06:03Z</time></trkpt><trkpt lat="45.32985154606553" lon="9.177302891416147"><ele>90.0</ele><time>2026-03-22T15:06:04Z</time></trkpt><trkpt lat="45.329865429036175" lon="9.177556039833272"><ele>90.0</ele><time>2026-03-22T15:06:05Z</time></trkpt><trkpt lat="45.32988135049065" lon="9.177809077131952"><ele>90.66666666666667</ele><time>2026-03-22T15:06:06Z</time></trkpt><trkpt lat="45.32989948920003" lon="9.178062097927349"><ele>91.33333333333334</ele><time>2026-03-22T15:06:07Z</time></trkpt><trkpt lat="45.32991409589715" lon="9.178319435708307"><ele>92.0</ele><time>2026-03-22T15:06:08Z</time></trkpt><trkpt lat="45.329927536471224" lon="9.178577801916104"><ele>92.0</ele><time>2026-03-22T15:06:09Z</time></trkpt><trkpt lat="45.32994198804886" lon="9.17883545038787"><ele>92.0</ele><time>2026-03-22T15:06:10Z</time></trkpt><trkpt lat="45.32995619648756" lon="9.179093849280553"><ele>92.0</ele><time>2026-03-22T15:06:11Z</time></trkpt><trkpt lat="45.32997136716423" lon="9.17935290953612"><ele>92.0</ele><time>2026-03-22T15:06:12Z</time></trkpt><trkpt lat="45.329989646203195" lon="9.179613428297305"><ele>92.0</ele><time>2026-03-22T15:06:13Z</time></trkpt><trkpt lat="45.33000447092673" lon="9.179873267076871"><ele>92.0</ele><time>2026-03-22T15:06:14Z</time></trkpt><trkpt lat="45.33001911957755" lon="9.180138977048008"><ele>92.0</ele><time>2026-03-22T15:06:15Z</time></trkpt><trkpt lat="45.330035537543985" lon="9.18042478855948"><ele>92.0</ele><time>2026-03-22T15:06:16Z</time></trkpt><trkpt lat="45.330050950652755" lon="9.180715400106955"><ele>92.0</ele><time>2026-03-22T15:06:17Z</time></trkpt><trkpt lat="45.33007411437331" lon="9.181020102412402"><ele>92.5</ele><time>2026-03-22T15:06:18Z</time></trkpt><trkpt lat="45.33009345410113" lon="9.181343428225857"><ele>93.0</ele><time>2026-03-22T15:06:19Z</time></trkpt><trkpt lat="45.33011682816789" lon="9.181681365759014"><ele>93.5</ele><time>2026-03-22T15:06:20Z</time></trkpt><trkpt lat="45.33013674665907" lon="9.182027168193828"><ele>94.0</ele><time>2026-03-22T15:06:21Z</time></trkpt><trkpt lat="45.330151193441324" lon="9.182339131596066"><ele>93.33333333333333</ele><time>2026-03-22T15:06:22Z</time></trkpt><trkpt lat="45.33017008376649" lon="9.182645057937766"><ele>92.66666666666667</ele><time>2026-03-22T15:06:23Z</time></trkpt><trkpt lat="45.33018874375556" lon="9.18294833144522"><ele>92.0</ele><time>2026-03-22T15:06:24Z</time></trkpt><trkpt lat="45.33020698194538" lon="9.183243827478927"><ele>91.66666666666667</ele><time>2026-03-22T15:06:25Z</time></trkpt><trkpt lat="45.33022666071049" lon="9.183534476731046"><ele>91.33333333333333</ele><time>2026-03-22T15:06:26Z</time></trkpt><trkpt lat="45.330245894716455" lon="9.183821339981238"><ele>91.0</ele><time>2026-03-22T15:06:27Z</time></trkpt><trkpt lat="45.33026183978088" lon="9.184105892860845"><ele>91.0</ele><time>2026-03-22T15:06:28Z</time></trkpt><trkpt lat="45.33027661228756" lon="9.18438915295244"><ele>91.0</ele><time>2026-03-22T15:06:29Z</time></trkpt><trkpt lat="45.33029205705488" lon="9.184669273205625"><ele>91.0</ele><time>2026-03-22T15:06:30Z</time></trkpt><trkpt lat="45.3303065084308" lon="9.184950144829529"><ele>90.66666666666666</ele><time>2026-03-22T15:06:31Z</time></trkpt><trkpt lat="45.330322341120784" lon="9.185230682008315"><ele>90.33333333333333</ele><time>2026-03-22T15:06:32Z</time></trkpt><trkpt lat="45.33034073629365" lon="9.185510876553819"><ele>90.0</ele><time>2026-03-22T15:06:33Z</time></trkpt><trkpt lat="45.33035914226697" lon="9.18578977700407"><ele>89.66666666666667</ele><time>2026-03-22T15:06:34Z</time></trkpt><trkpt lat="45.3303775604213" lon="9.186067590455252"><ele>89.33333333333334</ele><time>2026-03-22T15:06:35Z</time></trkpt><trkpt lat="45.330393873837735" lon="9.186342131475282"><ele>89.0</ele><time>2026-03-22T15:06:36Z</time></trkpt><trkpt lat="45.330410101701304" lon="9.186620780536677"><ele>89.0</ele><time>2026-03-22T15:06:37Z</time></trkpt><trkpt lat="45.330428079073194" lon="9.186899413611808"><ele>89.0</ele><time>2026-03-22T15:06:38Z</time></trkpt><trkpt lat="45.33044065928883" lon="9.18717036003217"><ele>89.0</ele><time>2026-03-22T15:06:39Z</time></trkpt><trkpt lat="45.33045656199031" lon="9.18744057190064"><ele>89.33333333333334</ele><time>2026-03-22T15:06:40Z</time></trkpt><trkpt lat="45.33047129717355" lon="9.1876992737067"><ele>89.66666666666667</ele><time>2026-03-22T15:06:41Z</time></trkpt><trkpt lat="45.33048811897045" lon="9.187949240399572"><ele>90.0</ele><time>2026-03-22T15:06:42Z</time></trkpt><trkpt lat="45.33050368206962" lon="9.18821016785668"><ele>90.66666666666667</ele><time>2026-03-22T15:06:43Z</time></trkpt><trkpt lat="45.330515790320234" lon="9.18845985026028"><ele>91.33333333333334</ele><time>2026-03-22T15:06:44Z</time></trkpt><trkpt lat="45.33052351461082" lon="9.188693165123265"><ele>92.0</ele><time>2026-03-22T15:06:45Z</time></trkpt><trkpt lat="45.33052606194914" lon="9.18891996918943"><ele>92.0</ele><time>2026-03-22T15:06:46Z</time></trkpt><trkpt lat="45.33051722185015" lon="9.189143811023587"><ele>92.0</ele><time>2026-03-22T15:06:47Z</time></trkpt><trkpt lat="45.33050052375969" lon="9.189361747410471"><ele>92.0</ele><time>2026-03-22T15:06:48Z</time></trkpt><trkpt lat="45.330467384032104" lon="9.189570297323913"><ele>92.0</ele><time>2026-03-22T15:06:49Z</time></trkpt><trkpt lat="45.330427604012776" lon="9.189780967326985"><ele>92.0</ele><time>2026-03-22T15:06:50Z</time></trkpt><trkpt lat="45.33038368423676" lon="9.189983708460547"><ele>92.0</ele><time>2026-03-22T15:06:51Z</time></trkpt><trkpt lat="45.33033247233785" lon="9.190163458401992"><ele>92.0</ele><time>2026-03-22T15:06:52Z</time></trkpt><trkpt lat="45.33027567613526" lon="9.190331905877025"><ele>91.8</ele><time>2026-03-22T15:06:53Z</time></trkpt><trkpt lat="45.330211281360576" lon="9.190487262124645"><ele>91.6</ele><time>2026-03-22T15:06:54Z</time></trkpt><trkpt lat="45.33013764132841" lon="9.190614897539671"><ele>91.39999999999999</ele><time>2026-03-22T15:06:55Z</time></trkpt><trkpt lat="45.33006290181951" lon="9.190725646386543"><ele>91.19999999999999</ele><time>2026-03-22T15:06:56Z</time></trkpt><trkpt lat="45.32998672978762" lon="9.190812342028277"><ele>91.0</ele><time>2026-03-22T15:06:57Z</time></trkpt><trkpt lat="45.32990812034615" lon="9.190882310045371"><ele>91.0</ele><time>2026-03-22T15:06:58Z</time></trkpt><trkpt lat="45.32982735651136" lon="9.190949840135723"><ele>91.0</ele><time>2026-03-22T15:06:59Z</time></trkpt><trkpt lat="45.32974413932181" lon="9.19101471733114"><ele>91.0</ele><time>2026-03-22T15:07:00Z</time></trkpt><trkpt lat="45.32965641608325" lon="9.191084661095678"><ele>91.0</ele><time>2026-03-22T15:07:01Z</time></trkpt><trkpt lat="45.32956302954096" lon="9.19115749538238"><ele>91.0</ele><time>2026-03-22T15:07:02Z</time></trkpt><trkpt lat="45.32947113828615" lon="9.191242232189223"><ele>91.0</ele><time>2026-03-22T15:07:03Z</time></trkpt><trkpt lat="45.329385864091186" lon="9.191333929148747"><ele>91.0</ele><time>2026-03-22T15:07:04Z</time></trkpt><trkpt lat="45.3293349576171" lon="9.191475257770975"><ele>91.0</ele><time>2026-03-22T15:07:05Z</time></trkpt><trkpt lat="45.329325871654056" lon="9.191633607681396"><ele>91.0</ele><time>2026-03-22T15:07:06Z</time></trkpt><trkpt lat="45.329315191592045" lon="9.191790235367705"><ele>91.0</ele><time>2026-03-22T15:07:07Z</time></trkpt><trkpt lat="45.32931362768931" lon="9.19195518951151"><ele>91.0</ele><time>2026-03-22T15:07:08Z</time></trkpt><trkpt lat="45.32929803109052" lon="9.192123888608553"><ele>91.0</ele><time>2026-03-22T15:07:09Z</time></trkpt><trkpt lat="45.329260562137165" lon="9.192299736202648"><ele>91.0</ele><time>2026-03-22T15:07:10Z</time></trkpt><trkpt lat="45.32920471285122" lon="9.192469670724039"><ele>91.0</ele><time>2026-03-22T15:07:11Z</time></trkpt><trkpt lat="45.32913323441757" lon="9.192633977415724"><ele>91.0</ele><time>2026-03-22T15:07:12Z</time></trkpt><trkpt lat="45.3290465535248" lon="9.192792078304018"><ele>91.0</ele><time>2026-03-22T15:07:13Z</time></trkpt><trkpt lat="45.328955530276176" lon="9.192952911222468"><ele>91.0</ele><time>2026-03-22T15:07:14Z</time></trkpt><trkpt lat="45.32886476078974" lon="9.19312133117393"><ele>91.0</ele><time>2026-03-22T15:07:15Z</time></trkpt><trkpt lat="45.3287722228811" lon="9.19329078435083"><ele>91.33333333333333</ele><time>2026-03-22T15:07:16Z</time></trkpt><trkpt lat="45.32867862060958" lon="9.193463681045797"><ele>91.66666666666667</ele><time>2026-03-22T15:07:17Z</time></trkpt><trkpt lat="45.32857826642712" lon="9.19364128343047"><ele>92.0</ele><time>2026-03-22T15:07:18Z</time></trkpt><trkpt lat="45.328480792731796" lon="9.193807930586432"><ele>92.0</ele><time>2026-03-22T15:07:19Z</time></trkpt><trkpt lat="45.328385763956966" lon="9.193977323861226"><ele>92.0</ele><time>2026-03-22T15:07:20Z</time></trkpt><trkpt lat="45.32829087985672" lon="9.194143770377728"><ele>92.0</ele><time>2026-03-22T15:07:21Z</time></trkpt><trkpt lat="45.328195528927296" lon="9.19431128978576"><ele>92.0</ele><time>2026-03-22T15:07:22Z</time></trkpt><trkpt lat="45.32809857781117" lon="9.194480567901207"><ele>92.0</ele><time>2026-03-22T15:07:23Z</time></trkpt><trkpt lat="45.32800054263201" lon="9.194653641799077"><ele>92.0</ele><time>2026-03-22T15:07:24Z</time></trkpt><trkpt lat="45.327902167590274" lon="9.194829138673672"><ele>92.66666666666667</ele><time>2026-03-22T15:07:25Z</time></trkpt><trkpt lat="45.32780321245774" lon="9.195010950582981"><ele>93.33333333333333</ele><time>2026-03-22T15:07:26Z</time></trkpt><trkpt lat="45.32769097828823" lon="9.195181045035323"><ele>94.0</ele><time>2026-03-22T15:07:27Z</time></trkpt><trkpt lat="45.327589279329345" lon="9.195361826547593"><ele>94.0</ele><time>2026-03-22T15:07:28Z</time></trkpt><trkpt lat="45.327500233285036" lon="9.195551632879845"><ele>94.0</ele><time>2026-03-22T15:07:29Z</time></trkpt><trkpt lat="45.32739607759842" lon="9.195731586275274"><ele>94.0</ele><time>2026-03-22T15:07:30Z</time></trkpt><trkpt lat="45.3272916785993" lon="9.195912834738039"><ele>92.66666666666666</ele><time>2026-03-22T15:07:31Z</time></trkpt><trkpt lat="45.32718174229795" lon="9.196102865813753"><ele>91.33333333333333</ele><time>2026-03-22T15:07:32Z</time></trkpt><trkpt lat="45.32707525487102" lon="9.19629391831461"><ele>90.0</ele><time>2026-03-22T15:07:33Z</time></trkpt><trkpt lat="45.32696907249102" lon="9.196482921651256"><ele>90.33333333333333</ele><time>2026-03-22T15:07:34Z</time></trkpt><trkpt lat="45.32686434988926" lon="9.196671707841972"><ele>90.66666666666666</ele><time>2026-03-22T15:07:35Z</time></trkpt><trkpt lat="45.32675675577747" lon="9.196862461143002"><ele>91.0</ele><time>2026-03-22T15:07:36Z</time></trkpt><trkpt lat="45.32665330367619" lon="9.197049461694688"><ele>91.0</ele><time>2026-03-22T15:07:37Z</time></trkpt><trkpt lat="45.326550305915" lon="9.197233647877278"><ele>91.0</ele><time>2026-03-22T15:07:38Z</time></trkpt><trkpt lat="45.32644479680239" lon="9.19742012981352"><ele>91.0</ele><time>2026-03-22T15:07:39Z</time></trkpt><trkpt lat="45.32633472066423" lon="9.19761612681691"><ele>91.0</ele><time>2026-03-22T15:07:40Z</time></trkpt><trkpt lat="45.326212600153276" lon="9.197794705481535"><ele>91.0</ele><time>2026-03-22T15:07:41Z</time></trkpt><trkpt lat="45.32611392711071" lon="9.197987835965586"><ele>91.0</ele><time>2026-03-22T15:07:42Z</time></trkpt><trkpt lat="45.32602308976245" lon="9.198184795271832"><ele>90.66666666666666</ele><time>2026-03-22T15:07:43Z</time></trkpt><trkpt lat="45.3259347624869" lon="9.198396283388693"><ele>90.33333333333333</ele><time>2026-03-22T15:07:44Z</time></trkpt><trkpt lat="45.32585930528875" lon="9.19859775199904"><ele>90.0</ele><time>2026-03-22T15:07:45Z</time></trkpt><trkpt lat="45.325797486731695" lon="9.198804349173505"><ele>90.0</ele><time>2026-03-22T15:07:46Z</time></trkpt><trkpt lat="45.32574032302266" lon="9.199009895689423"><ele>90.0</ele><time>2026-03-22T15:07:47Z</time></trkpt><trkpt lat="45.32570005725515" lon="9.199216248709925"><ele>90.0</ele><time>2026-03-22T15:07:48Z</time></trkpt><trkpt lat="45.32566704455602" lon="9.19941416650557"><ele>90.0</ele><time>2026-03-22T15:07:49Z</time></trkpt><trkpt lat="45.32563955550137" lon="9.199602671770846"><ele>90.0</ele><time>2026-03-22T15:07:50Z</time></trkpt><trkpt lat="45.3256336397241" lon="9.199792537213133"><ele>90.0</ele><time>2026-03-22T15:07:51Z</time></trkpt><trkpt lat="45.32560977718586" lon="9.199968038675893"><ele>90.0</ele><time>2026-03-22T15:07:52Z</time></trkpt><trkpt lat="45.32558935053669" lon="9.200128703994581"><ele>90.0</ele><time>2026-03-22T15:07:53Z</time></trkpt><trkpt lat="45.32556862172541" lon="9.20027334294766"><ele>90.16666666666667</ele><time>2026-03-22T15:07:54Z</time></trkpt><trkpt lat="45.32555167755827" lon="9.20039719562172"><ele>90.33333333333333</ele><time>2026-03-22T15:07:55Z</time></trkpt><trkpt lat="45.32553390134898" lon="9.20050733302348"><ele>90.5</ele><time>2026-03-22T15:07:56Z</time></trkpt><trkpt lat="45.325510211543275" lon="9.200610316505955"><ele>90.66666666666666</ele><time>2026-03-22T15:07:57Z</time></trkpt><trkpt lat="45.325467879505304" lon="9.20071169461348"><ele>90.83333333333333</ele><time>2026-03-22T15:07:58Z</time></trkpt><trkpt lat="45.32540752826613" lon="9.200835762337"><ele>91.0</ele><time>2026-03-22T15:07:59Z</time></trkpt><trkpt lat="45.32534609144663" lon="9.200957154516535"><ele>91.0</ele><time>2026-03-22T15:08:00Z</time></trkpt><trkpt lat="45.32526237243209" lon="9.201054163436549"><ele>91.0</ele><time>2026-03-22T15:08:01Z</time></trkpt><trkpt lat="45.32514756349877" lon="9.201116196307494"><ele>91.0</ele><time>2026-03-22T15:08:02Z</time></trkpt><trkpt lat="45.32502131924858" lon="9.201194299237903"><ele>91.0</ele><time>2026-03-22T15:08:03Z</time></trkpt><trkpt lat="45.324888970615866" lon="9.201278854728391"><ele>91.0</ele><time>2026-03-22T15:08:04Z</time></trkpt><trkpt lat="45.32475088135395" lon="9.20137397585583"><ele>91.0</ele><time>2026-03-22T15:08:05Z</time></trkpt><trkpt lat="45.32460240014823" lon="9.201462263534145"><ele>91.0</ele><time>2026-03-22T15:08:06Z</time></trkpt><trkpt lat="45.324445613098305" lon="9.20154020164372"><ele>91.0</ele><time>2026-03-22T15:08:07Z</time></trkpt><trkpt lat="45.32428754964543" lon="9.201618463594613"><ele>91.0</ele><time>2026-03-22T15:08:08Z</time></trkpt><trkpt lat="45.32413176662585" lon="9.201683227888743"><ele>91.0</ele><time>2026-03-22T15:08:09Z</time></trkpt><trkpt lat="45.32398613687638" lon="9.201775912848815"><ele>90.66666666666666</ele><time>2026-03-22T15:08:10Z</time></trkpt><trkpt lat="45.32382972735606" lon="9.20182752325859"><ele>90.33333333333333</ele><time>2026-03-22T15:08:11Z</time></trkpt><trkpt lat="45.323672821299084" lon="9.201904567883817"><ele>90.0</ele><time>2026-03-22T15:08:12Z</time></trkpt><trkpt lat="45.32351351885311" lon="9.201982789181418"><ele>90.0</ele><time>2026-03-22T15:08:13Z</time></trkpt><trkpt lat="45.32335049401622" lon="9.202062838264748"><ele>90.0</ele><time>2026-03-22T15:08:14Z</time></trkpt><trkpt lat="45.32318573464015" lon="9.202143739044878"><ele>90.0</ele><time>2026-03-22T15:08:15Z</time></trkpt><trkpt lat="45.32301848506506" lon="9.202225732689918"><ele>90.0</ele><time>2026-03-22T15:08:16Z</time></trkpt><trkpt lat="45.32284845827714" lon="9.202309057979384"><ele>90.0</ele><time>2026-03-22T15:08:17Z</time></trkpt><trkpt lat="45.32267918980431" lon="9.202392011627111"><ele>90.0</ele><time>2026-03-22T15:08:18Z</time></trkpt><trkpt lat="45.32250859690674" lon="9.202475614341314"><ele>90.33333333333333</ele><time>2026-03-22T15:08:19Z</time></trkpt><trkpt lat="45.322339783998274" lon="9.202575371735687"><ele>90.66666666666666</ele><time>2026-03-22T15:08:20Z</time></trkpt><trkpt lat="45.322162950045225" lon="9.202655229172466"><ele>91.0</ele><time>2026-03-22T15:08:21Z</time></trkpt><trkpt lat="45.32198631283863" lon="9.202740550054793"><ele>91.0</ele><time>2026-03-22T15:08:22Z</time></trkpt><trkpt lat="45.321810435554916" lon="9.202827667822302"><ele>91.0</ele><time>2026-03-22T15:08:23Z</time></trkpt><trkpt lat="45.321634502393465" lon="9.202912601643227"><ele>91.0</ele><time>2026-03-22T15:08:24Z</time></trkpt><trkpt lat="45.321460957978644" lon="9.202997548309439"><ele>91.0</ele><time>2026-03-22T15:08:25Z</time></trkpt><trkpt lat="45.32128588072844" lon="9.203082781231704"><ele>91.0</ele><time>2026-03-22T15:08:26Z</time></trkpt><trkpt lat="45.32111247427468" lon="9.203163399688787"><ele>91.0</ele><time>2026-03-22T15:08:27Z</time></trkpt><trkpt lat="45.32094034434157" lon="9.203242176658197"><ele>91.0</ele><time>2026-03-22T15:08:28Z</time></trkpt><trkpt lat="45.32077005544821" lon="9.203322733013145"><ele>91.0</ele><time>2026-03-22T15:08:29Z</time></trkpt><trkpt lat="45.32060031780007" lon="9.203407249604004"><ele>91.0</ele><time>2026-03-22T15:08:30Z</time></trkpt><trkpt lat="45.32043064547697" lon="9.20349048497641"><ele>91.0</ele><time>2026-03-22T15:08:31Z</time></trkpt><trkpt lat="45.320262959950895" lon="9.203568717514745"><ele>91.0</ele><time>2026-03-22T15:08:32Z</time></trkpt><trkpt lat="45.32009583697644" lon="9.203654379357298"><ele>91.0</ele><time>2026-03-22T15:08:33Z</time></trkpt><trkpt lat="45.31993023842943" lon="9.20373545377768"><ele>91.0</ele><time>2026-03-22T15:08:34Z</time></trkpt><trkpt lat="45.31976421773133" lon="9.20381270620548"><ele>91.0</ele><time>2026-03-22T15:08:35Z</time></trkpt><trkpt lat="45.319600213874715" lon="9.203890815389274"><ele>91.0</ele><time>2026-03-22T15:08:36Z</time></trkpt><trkpt lat="45.319439051533934" lon="9.203969060337327"><ele>90.0</ele><time>2026-03-22T15:08:37Z</time></trkpt><trkpt lat="45.31927914311966" lon="9.204047657141231"><ele>89.0</ele><time>2026-03-22T15:08:38Z</time></trkpt><trkpt lat="45.3191210913492" lon="9.20412660075605"><ele>88.0</ele><time>2026-03-22T15:08:39Z</time></trkpt><trkpt lat="45.31896344976756" lon="9.204203037520118"><ele>87.33333333333333</ele><time>2026-03-22T15:08:40Z</time></trkpt><trkpt lat="45.318805615904346" lon="9.204279270312403"><ele>86.66666666666667</ele><time>2026-03-22T15:08:41Z</time></trkpt><trkpt lat="45.31864752014414" lon="9.20435365817245"><ele>86.0</ele><time>2026-03-22T15:08:42Z</time></trkpt><trkpt lat="45.31849105405488" lon="9.204434033036446"><ele>86.0</ele><time>2026-03-22T15:08:43Z</time></trkpt><trkpt lat="45.31833648226815" lon="9.20451149636932"><ele>86.0</ele><time>2026-03-22T15:08:44Z</time></trkpt><trkpt lat="45.31818300746121" lon="9.20458891531769"><ele>86.0</ele><time>2026-03-22T15:08:45Z</time></trkpt><trkpt lat="45.31803099974515" lon="9.20466244933001"><ele>86.33333333333334</ele><time>2026-03-22T15:08:46Z</time></trkpt><trkpt lat="45.31788125979303" lon="9.20473705276123"><ele>86.66666666666667</ele><time>2026-03-22T15:08:47Z</time></trkpt><trkpt lat="45.317730340855185" lon="9.204811762170584"><ele>87.0</ele><time>2026-03-22T15:08:48Z</time></trkpt><trkpt lat="45.31758014224299" lon="9.204878707695896"><ele>87.66666666666667</ele><time>2026-03-22T15:08:49Z</time></trkpt><trkpt lat="45.317431328332155" lon="9.204947431625463"><ele>88.33333333333334</ele><time>2026-03-22T15:08:50Z</time></trkpt><trkpt lat="45.317281961117516" lon="9.205011587951596"><ele>89.0</ele><time>2026-03-22T15:08:51Z</time></trkpt><trkpt lat="45.3171324543159" lon="9.205071452426814"><ele>89.33333333333334</ele><time>2026-03-22T15:08:52Z</time></trkpt><trkpt lat="45.3169787661647" lon="9.205125041116524"><ele>89.66666666666667</ele><time>2026-03-22T15:08:53Z</time></trkpt><trkpt lat="45.31682572786508" lon="9.20517940445544"><ele>90.0</ele><time>2026-03-22T15:08:54Z</time></trkpt><trkpt lat="45.31667158556338" lon="9.205234211899123"><ele>90.0</ele><time>2026-03-22T15:08:55Z</time></trkpt><trkpt lat="45.31651615231575" lon="9.20528445180344"><ele>90.0</ele><time>2026-03-22T15:08:56Z</time></trkpt><trkpt lat="45.31636375457571" lon="9.205334931932466"><ele>90.0</ele><time>2026-03-22T15:08:57Z</time></trkpt><trkpt lat="45.31620981098011" lon="9.205383958223562"><ele>90.0</ele><time>2026-03-22T15:08:58Z</time></trkpt><trkpt lat="45.31605533160865" lon="9.205430937212144"><ele>90.0</ele><time>2026-03-22T15:08:59Z</time></trkpt><trkpt lat="45.315906768973576" lon="9.205475257402567"><ele>90.0</ele><time>2026-03-22T15:09:00Z</time></trkpt><trkpt lat="45.315771203311655" lon="9.205515620279686"><ele>90.0</ele><time>2026-03-22T15:09:01Z</time></trkpt><trkpt lat="45.31564540913972" lon="9.205556804444994"><ele>90.2</ele><time>2026-03-22T15:09:02Z</time></trkpt><trkpt lat="45.3155274649401" lon="9.205591773190818"><ele>90.4</ele><time>2026-03-22T15:09:03Z</time></trkpt><trkpt lat="45.31541751794232" lon="9.205623999690415"><ele>90.6</ele><time>2026-03-22T15:09:04Z</time></trkpt><trkpt lat="45.3153137226724" lon="9.205652801630276"><ele>90.8</ele><time>2026-03-22T15:09:05Z</time></trkpt><trkpt lat="45.31521953242612" lon="9.205673584476838"><ele>91.0</ele><time>2026-03-22T15:09:06Z</time></trkpt><trkpt lat="45.31513127326992" lon="9.205689677784768"><ele>91.0</ele><time>2026-03-22T15:09:07Z</time></trkpt><trkpt lat="45.31505270954236" lon="9.205696197012895"><ele>91.0</ele><time>2026-03-22T15:09:08Z</time></trkpt><trkpt lat="45.31497767173886" lon="9.205680694065803"><ele>91.0</ele><time>2026-03-22T15:09:09Z</time></trkpt><trkpt lat="45.31491253746742" lon="9.20565647282744"><ele>91.0</ele><time>2026-03-22T15:09:10Z</time></trkpt><trkpt lat="45.31484624683654" lon="9.205633234714446"><ele>91.0</ele><time>2026-03-22T15:09:11Z</time></trkpt><trkpt lat="45.31477742607382" lon="9.205644580674067"><ele>91.0</ele><time>2026-03-22T15:09:12Z</time></trkpt><trkpt lat="45.31471678554098" lon="9.20568706029023"><ele>91.0</ele><time>2026-03-22T15:09:13Z</time></trkpt><trkpt lat="45.3146610802725" lon="9.205749572970637"><ele>90.4</ele><time>2026-03-22T15:09:14Z</time></trkpt><trkpt lat="45.314604181426255" lon="9.20582472750278"><ele>89.8</ele><time>2026-03-22T15:09:15Z</time></trkpt><trkpt lat="45.31453565537551" lon="9.205880279095576"><ele>89.2</ele><time>2026-03-22T15:09:16Z</time></trkpt><trkpt lat="45.31445678572373" lon="9.205923895800495"><ele>88.60000000000001</ele><time>2026-03-22T15:09:17Z</time></trkpt><trkpt lat="45.31435906339765" lon="9.20597160963348"><ele>88.0</ele><time>2026-03-22T15:09:18Z</time></trkpt><trkpt lat="45.31421724255262" lon="9.206002138353117"><ele>88.0</ele><time>2026-03-22T15:09:19Z</time></trkpt><trkpt lat="45.314065555154365" lon="9.206050387964297"><ele>88.0</ele><time>2026-03-22T15:09:20Z</time></trkpt><trkpt lat="45.3139031006717" lon="9.206101263237578"><ele>88.0</ele><time>2026-03-22T15:09:21Z</time></trkpt><trkpt lat="45.31373820769208" lon="9.206154116280233"><ele>87.66666666666666</ele><time>2026-03-22T15:09:22Z</time></trkpt><trkpt lat="45.313575135356636" lon="9.20622697666359"><ele>87.33333333333333</ele><time>2026-03-22T15:09:23Z</time></trkpt><trkpt lat="45.31341300759626" lon="9.206259984101479"><ele>87.0</ele><time>2026-03-22T15:09:24Z</time></trkpt><trkpt lat="45.3132618808233" lon="9.206309088701575"><ele>87.0</ele><time>2026-03-22T15:09:25Z</time></trkpt><trkpt lat="45.31311439030531" lon="9.206357373269087"><ele>87.0</ele><time>2026-03-22T15:09:26Z</time></trkpt><trkpt lat="45.31296385363428" lon="9.206406748937628"><ele>87.0</ele><time>2026-03-22T15:09:27Z</time></trkpt><trkpt lat="45.312812845624755" lon="9.206456404389066"><ele>87.25</ele><time>2026-03-22T15:09:28Z</time></trkpt><trkpt lat="45.3126705686838" lon="9.206503273264625"><ele>87.5</ele><time>2026-03-22T15:09:29Z</time></trkpt><trkpt lat="45.312527065230476" lon="9.206550723187021"><ele>87.75</ele><time>2026-03-22T15:09:30Z</time></trkpt><trkpt lat="45.31238934351089" lon="9.206593361537148"><ele>88.0</ele><time>2026-03-22T15:09:31Z</time></trkpt><trkpt lat="45.312263843506244" lon="9.206655808257523"><ele>88.25</ele><time>2026-03-22T15:09:32Z</time></trkpt><trkpt lat="45.31213567314372" lon="9.206682990098967"><ele>88.5</ele><time>2026-03-22T15:09:33Z</time></trkpt><trkpt lat="45.31201653432037" lon="9.206688465273706"><ele>88.75</ele><time>2026-03-22T15:09:34Z</time></trkpt><trkpt lat="45.311901195961106" lon="9.206674134527608"><ele>89.0</ele><time>2026-03-22T15:09:35Z</time></trkpt><trkpt lat="45.3117935307749" lon="9.206658637814662"><ele>89.0</ele><time>2026-03-22T15:09:36Z</time></trkpt><trkpt lat="45.31169491805473" lon="9.206641996650358"><ele>89.0</ele><time>2026-03-22T15:09:37Z</time></trkpt><trkpt lat="45.311597438413294" lon="9.206632968629554"><ele>89.0</ele><time>2026-03-22T15:09:38Z</time></trkpt><trkpt lat="45.31149854138637" lon="9.206633204324222"><ele>89.0</ele><time>2026-03-22T15:09:39Z</time></trkpt><trkpt lat="45.311397482284555" lon="9.206656836468598"><ele>89.0</ele><time>2026-03-22T15:09:40Z</time></trkpt><trkpt lat="45.311301592995555" lon="9.206718804467522"><ele>89.25</ele><time>2026-03-22T15:09:41Z</time></trkpt><trkpt lat="45.311210480471345" lon="9.206814799090992"><ele>89.5</ele><time>2026-03-22T15:09:42Z</time></trkpt><trkpt lat="45.31111644858592" lon="9.206906081458605"><ele>89.75</ele><time>2026-03-22T15:09:43Z</time></trkpt><trkpt lat="45.311016783897976" lon="9.206983295552917"><ele>90.0</ele><time>2026-03-22T15:09:44Z</time></trkpt><trkpt lat="45.310908798846256" lon="9.207051366070267"><ele>90.0</ele><time>2026-03-22T15:09:45Z</time></trkpt><trkpt lat="45.310795173686856" lon="9.207104102712115"><ele>90.0</ele><time>2026-03-22T15:09:46Z</time></trkpt><trkpt lat="45.31068370111436" lon="9.20714791336002"><ele>90.0</ele><time>2026-03-22T15:09:47Z</time></trkpt><trkpt lat="45.3105767544684" lon="9.207183148814792"><ele>90.0</ele><time>2026-03-22T15:09:48Z</time></trkpt><trkpt lat="45.31046721781714" lon="9.207215646590871"><ele>89.75</ele><time>2026-03-22T15:09:49Z</time></trkpt><trkpt lat="45.3103567976541" lon="9.207253736468349"><ele>89.5</ele><time>2026-03-22T15:09:50Z</time></trkpt><trkpt lat="45.31024389375174" lon="9.20729158863625"><ele>89.25</ele><time>2026-03-22T15:09:51Z</time></trkpt><trkpt lat="45.31012895899448" lon="9.207321614225052"><ele>89.0</ele><time>2026-03-22T15:09:52Z</time></trkpt><trkpt lat="45.31001652550616" lon="9.207353433642021"><ele>89.0</ele><time>2026-03-22T15:09:53Z</time></trkpt><trkpt lat="45.30990321266568" lon="9.20739093856466"><ele>89.0</ele><time>2026-03-22T15:09:54Z</time></trkpt><trkpt lat="45.30979188979324" lon="9.207427979421494"><ele>89.0</ele><time>2026-03-22T15:09:55Z</time></trkpt><trkpt lat="45.3096767286077" lon="9.207460859479422"><ele>89.0</ele><time>2026-03-22T15:09:56Z</time></trkpt><trkpt lat="45.309561834547495" lon="9.207492263996865"><ele>88.75</ele><time>2026-03-22T15:09:57Z</time></trkpt><trkpt lat="45.30944615389591" lon="9.207524166919685"><ele>88.5</ele><time>2026-03-22T15:09:58Z</time></trkpt><trkpt lat="45.309327445691586" lon="9.207558932233429"><ele>88.25</ele><time>2026-03-22T15:09:59Z</time></trkpt><trkpt lat="45.30920812199478" lon="9.207596517533293"><ele>88.0</ele><time>2026-03-22T15:10:00Z</time></trkpt><trkpt lat="45.309084684810735" lon="9.20763658298168"><ele>88.0</ele><time>2026-03-22T15:10:01Z</time></trkpt><trkpt lat="45.30896040416473" lon="9.207682489768242"><ele>88.0</ele><time>2026-03-22T15:10:02Z</time></trkpt><trkpt lat="45.30883170347698" lon="9.207735078071478"><ele>88.0</ele><time>2026-03-22T15:10:03Z</time></trkpt><trkpt lat="45.30870016318778" lon="9.207800257343866"><ele>88.0</ele><time>2026-03-22T15:10:04Z</time></trkpt><trkpt lat="45.30856565605045" lon="9.207871231075284"><ele>87.75</ele><time>2026-03-22T15:10:05Z</time></trkpt><trkpt lat="45.30843061924465" lon="9.20793756979622"><ele>87.5</ele><time>2026-03-22T15:10:06Z</time></trkpt><trkpt lat="45.30830389673831" lon="9.20802881903246"><ele>87.25</ele><time>2026-03-22T15:10:07Z</time></trkpt><trkpt lat="45.30818490407932" lon="9.208108013443976"><ele>87.0</ele><time>2026-03-22T15:10:08Z</time></trkpt><trkpt lat="45.30807809589507" lon="9.208182538372307"><ele>87.0</ele><time>2026-03-22T15:10:09Z</time></trkpt><trkpt lat="45.307978316002156" lon="9.208249755081862"><ele>87.0</ele><time>2026-03-22T15:10:10Z</time></trkpt><trkpt lat="45.307883567929046" lon="9.20831406240466"><ele>87.0</ele><time>2026-03-22T15:10:11Z</time></trkpt><trkpt lat="45.30779159559479" lon="9.20837354116151"><ele>87.0</ele><time>2026-03-22T15:10:12Z</time></trkpt><trkpt lat="45.30770821828199" lon="9.208424699503011"><ele>87.0</ele><time>2026-03-22T15:10:13Z</time></trkpt><trkpt lat="45.307629591355116" lon="9.208474231850483"><ele>87.0</ele><time>2026-03-22T15:10:14Z</time></trkpt><trkpt lat="45.307555895142364" lon="9.208520010906554"><ele>87.0</ele><time>2026-03-22T15:10:15Z</time></trkpt><trkpt lat="45.30749049708275" lon="9.208562659139744"><ele>87.0</ele><time>2026-03-22T15:10:16Z</time></trkpt><trkpt lat="45.30742024550583" lon="9.208606371220421"><ele>87.0</ele><time>2026-03-22T15:10:17Z</time></trkpt><trkpt lat="45.30734408278195" lon="9.208629487032628"><ele>87.0</ele><time>2026-03-22T15:10:18Z</time></trkpt><trkpt lat="45.30728108188634" lon="9.208668442955794"><ele>87.0</ele><time>2026-03-22T15:10:19Z</time></trkpt><trkpt lat="45.30729670336745" lon="9.208897912476845"><ele>87.33333333333333</ele><time>2026-03-22T15:10:20Z</time></trkpt><trkpt lat="45.30730763486034" lon="9.209073077484785"><ele>87.66666666666666</ele><time>2026-03-22T15:10:21Z</time></trkpt><trkpt lat="45.30729742698372" lon="9.2092942787259"><ele>88.0</ele><time>2026-03-22T15:10:22Z</time></trkpt><trkpt lat="45.30726680074254" lon="9.209532495556616"><ele>88.0</ele><time>2026-03-22T15:10:23Z</time></trkpt><trkpt lat="45.30722671851271" lon="9.209799820850545"><ele>88.0</ele><time>2026-03-22T15:10:24Z</time></trkpt><trkpt lat="45.307180660579405" lon="9.21007405503009"><ele>88.0</ele><time>2026-03-22T15:10:25Z</time></trkpt><trkpt lat="45.3071365902264" lon="9.21034438414731"><ele>88.0</ele><time>2026-03-22T15:10:26Z</time></trkpt><trkpt lat="45.30709600605534" lon="9.210603836862662"><ele>88.0</ele><time>2026-03-22T15:10:27Z</time></trkpt><trkpt lat="45.307053642044615" lon="9.210852638091348"><ele>88.0</ele><time>2026-03-22T15:10:28Z</time></trkpt><trkpt lat="45.307013903941694" lon="9.211094018888012"><ele>87.66666666666666</ele><time>2026-03-22T15:10:29Z</time></trkpt><trkpt lat="45.30697601543542" lon="9.211333971366658"><ele>87.33333333333333</ele><time>2026-03-22T15:10:30Z</time></trkpt><trkpt lat="45.306937205761876" lon="9.21156946519404"><ele>87.0</ele><time>2026-03-22T15:10:31Z</time></trkpt><trkpt lat="45.30689367304296" lon="9.211800743687807"><ele>87.0</ele><time>2026-03-22T15:10:32Z</time></trkpt><trkpt lat="45.30683854666375" lon="9.21202707010457"><ele>87.0</ele><time>2026-03-22T15:10:33Z</time></trkpt><trkpt lat="45.306770519892076" lon="9.212251391488895"><ele>87.0</ele><time>2026-03-22T15:10:34Z</time></trkpt><trkpt lat="45.306689179116205" lon="9.212478540351913"><ele>87.0</ele><time>2026-03-22T15:10:35Z</time></trkpt><trkpt lat="45.30658476085811" lon="9.21270224162739"><ele>87.0</ele><time>2026-03-22T15:10:36Z</time></trkpt><trkpt lat="45.306471234942016" lon="9.212900310920965"><ele>87.0</ele><time>2026-03-22T15:10:37Z</time></trkpt><trkpt lat="45.306349722139316" lon="9.213092562416517"><ele>87.33333333333333</ele><time>2026-03-22T15:10:38Z</time></trkpt><trkpt lat="45.30621984860288" lon="9.213284125942709"><ele>87.66666666666666</ele><time>2026-03-22T15:10:39Z</time></trkpt><trkpt lat="45.30608513399065" lon="9.213473358403705"><ele>88.0</ele><time>2026-03-22T15:10:40Z</time></trkpt><trkpt lat="45.305948690297356" lon="9.213663953880321"><ele>88.0</ele><time>2026-03-22T15:10:41Z</time></trkpt><trkpt lat="45.305809785462245" lon="9.213855652837545"><ele>88.0</ele><time>2026-03-22T15:10:42Z</time></trkpt><trkpt lat="45.30566784258785" lon="9.214042675761528"><ele>88.0</ele><time>2026-03-22T15:10:43Z</time></trkpt><trkpt lat="45.30552443594311" lon="9.21423294231504"><ele>87.66666666666666</ele><time>2026-03-22T15:10:44Z</time></trkpt><trkpt lat="45.305379299667806" lon="9.214420990131089"><ele>87.33333333333333</ele><time>2026-03-22T15:10:45Z</time></trkpt><trkpt lat="45.30523146774228" lon="9.214609105183605"><ele>87.0</ele><time>2026-03-22T15:10:46Z</time></trkpt><trkpt lat="45.305069776675055" lon="9.214782609376774"><ele>87.0</ele><time>2026-03-22T15:10:47Z</time></trkpt><trkpt lat="45.30491874637313" lon="9.214974460714659"><ele>87.0</ele><time>2026-03-22T15:10:48Z</time></trkpt><trkpt lat="45.304769340746944" lon="9.215164248292213"><ele>87.0</ele><time>2026-03-22T15:10:49Z</time></trkpt><trkpt lat="45.30462146759881" lon="9.215354173357326"><ele>87.0</ele><time>2026-03-22T15:10:50Z</time></trkpt><trkpt lat="45.30447403280526" lon="9.21554356949834"><ele>87.0</ele><time>2026-03-22T15:10:51Z</time></trkpt><trkpt lat="45.30432951902249" lon="9.215729627661492"><ele>87.0</ele><time>2026-03-22T15:10:52Z</time></trkpt><trkpt lat="45.304186228584285" lon="9.2159153276213"><ele>87.33333333333333</ele><time>2026-03-22T15:10:53Z</time></trkpt><trkpt lat="45.30404652089186" lon="9.216101551717374"><ele>87.66666666666666</ele><time>2026-03-22T15:10:54Z</time></trkpt><trkpt lat="45.303912246108474" lon="9.216289846663084"><ele>88.0</ele><time>2026-03-22T15:10:55Z</time></trkpt><trkpt lat="45.303782227007325" lon="9.216479363644012"><ele>87.33333333333333</ele><time>2026-03-22T15:10:56Z</time></trkpt><trkpt lat="45.30365306604619" lon="9.216665035687921"><ele>86.66666666666667</ele><time>2026-03-22T15:10:57Z</time></trkpt><trkpt lat="45.30352307617961" lon="9.21684404230618"><ele>86.0</ele><time>2026-03-22T15:10:58Z</time></trkpt><trkpt lat="45.30339354823901" lon="9.217020584996334"><ele>86.0</ele><time>2026-03-22T15:10:59Z</time></trkpt><trkpt lat="45.30326763438357" lon="9.217196908437058"><ele>86.0</ele><time>2026-03-22T15:11:00Z</time></trkpt><trkpt lat="45.30314789765823" lon="9.217376533128157"><ele>86.0</ele><time>2026-03-22T15:11:01Z</time></trkpt><trkpt lat="45.3030389018263" lon="9.217581463765361"><ele>86.0</ele><time>2026-03-22T15:11:02Z</time></trkpt><trkpt lat="45.30294682049638" lon="9.217809105531565"><ele>86.0</ele><time>2026-03-22T15:11:03Z</time></trkpt><trkpt lat="45.3028563716364" lon="9.218051903745426"><ele>86.0</ele><time>2026-03-22T15:11:04Z</time></trkpt><trkpt lat="45.30276944370368" lon="9.218296184569649"><ele>86.0</ele><time>2026-03-22T15:11:05Z</time></trkpt><trkpt lat="45.302683336207494" lon="9.21853969059311"><ele>86.0</ele><time>2026-03-22T15:11:06Z</time></trkpt><trkpt lat="45.3025999749466" lon="9.218780968345795"><ele>86.0</ele><time>2026-03-22T15:11:07Z</time></trkpt><trkpt lat="45.302517046397774" lon="9.219023413403761"><ele>86.33333333333334</ele><time>2026-03-22T15:11:08Z</time></trkpt><trkpt lat="45.30243468506719" lon="9.219263805094307"><ele>86.66666666666667</ele><time>2026-03-22T15:11:09Z</time></trkpt><trkpt lat="45.30235235637386" lon="9.21950407508852"><ele>87.0</ele><time>2026-03-22T15:11:10Z</time></trkpt><trkpt lat="45.30227141628356" lon="9.219745388183213"><ele>86.66666666666667</ele><time>2026-03-22T15:11:11Z</time></trkpt><trkpt lat="45.302199002178625" lon="9.219964648972317"><ele>86.33333333333334</ele><time>2026-03-22T15:11:12Z</time></trkpt><trkpt lat="45.30213242069141" lon="9.220175669068482"><ele>86.0</ele><time>2026-03-22T15:11:13Z</time></trkpt><trkpt lat="45.30208425903183" lon="9.220375398383004"><ele>86.0</ele><time>2026-03-22T15:11:14Z</time></trkpt><trkpt lat="45.30204932935696" lon="9.220584175753064"><ele>86.0</ele><time>2026-03-22T15:11:15Z</time></trkpt><trkpt lat="45.30204986435247" lon="9.220808644207636"><ele>86.0</ele><time>2026-03-22T15:11:16Z</time></trkpt><trkpt lat="45.302050144716226" lon="9.221031639819138"><ele>86.25</ele><time>2026-03-22T15:11:17Z</time></trkpt><trkpt lat="45.30204949544665" lon="9.221224201056836"><ele>86.5</ele><time>2026-03-22T15:11:18Z</time></trkpt><trkpt lat="45.30204527442339" lon="9.22139044727154"><ele>86.75</ele><time>2026-03-22T15:11:19Z</time></trkpt><trkpt lat="45.30199844393001" lon="9.221526481793896"><ele>87.0</ele><time>2026-03-22T15:11:20Z</time></trkpt><trkpt lat="45.301930816101475" lon="9.221643410585761"><ele>86.75</ele><time>2026-03-22T15:11:21Z</time></trkpt><trkpt lat="45.30182168301767" lon="9.221708849330687"><ele>86.5</ele><time>2026-03-22T15:11:22Z</time></trkpt><trkpt lat="45.30167645672459" lon="9.221779651456224"><ele>86.25</ele><time>2026-03-22T15:11:23Z</time></trkpt><trkpt lat="45.30151114779066" lon="9.221862865556751"><ele>86.0</ele><time>2026-03-22T15:11:24Z</time></trkpt><trkpt lat="45.30135448457372" lon="9.222003779774774"><ele>86.0</ele><time>2026-03-22T15:11:25Z</time></trkpt><trkpt lat="45.30117447468631" lon="9.222134469010433"><ele>86.0</ele><time>2026-03-22T15:11:26Z</time></trkpt><trkpt lat="45.30102358717397" lon="9.22227278748272"><ele>86.0</ele><time>2026-03-22T15:11:27Z</time></trkpt><trkpt lat="45.30088606492718" lon="9.222410817408656"><ele>86.33333333333334</ele><time>2026-03-22T15:11:28Z</time></trkpt><trkpt lat="45.300749527685156" lon="9.222567582937128"><ele>86.66666666666667</ele><time>2026-03-22T15:11:29Z</time></trkpt><trkpt lat="45.30059450747589" lon="9.222758385015029"><ele>87.0</ele><time>2026-03-22T15:11:30Z</time></trkpt><trkpt lat="45.30045571775116" lon="9.222932298957755"><ele>86.33333333333333</ele><time>2026-03-22T15:11:31Z</time></trkpt><trkpt lat="45.30033209485884" lon="9.22308720770779"><ele>85.66666666666666</ele><time>2026-03-22T15:11:32Z</time></trkpt><trkpt lat="45.30021429809145" lon="9.223229666116765"><ele>85.0</ele><time>2026-03-22T15:11:33Z</time></trkpt><trkpt lat="45.30009818624596" lon="9.22336935186056"><ele>85.0</ele><time>2026-03-22T15:11:34Z</time></trkpt><trkpt lat="45.29998649093484" lon="9.223511080767405"><ele>85.0</ele><time>2026-03-22T15:11:35Z</time></trkpt><trkpt lat="45.29988038281731" lon="9.223667087009154"><ele>85.0</ele><time>2026-03-22T15:11:36Z</time></trkpt><trkpt lat="45.29978522434476" lon="9.223826293573046"><ele>85.0</ele><time>2026-03-22T15:11:37Z</time></trkpt><trkpt lat="45.299695355322754" lon="9.223981736597043"><ele>85.5</ele><time>2026-03-22T15:11:38Z</time></trkpt><trkpt lat="45.29960687922464" lon="9.224128408002366"><ele>86.0</ele><time>2026-03-22T15:11:39Z</time></trkpt><trkpt lat="45.29951193880905" lon="9.224272643855166"><ele>86.5</ele><time>2026-03-22T15:11:40Z</time></trkpt><trkpt lat="45.299410531349594" lon="9.224419487219505"><ele>87.0</ele><time>2026-03-22T15:11:41Z</time></trkpt><trkpt lat="45.299306892889895" lon="9.224568751869292"><ele>87.0</ele><time>2026-03-22T15:11:42Z</time></trkpt><trkpt lat="45.299201119415095" lon="9.22472269898516"><ele>87.0</ele><time>2026-03-22T15:11:43Z</time></trkpt><trkpt lat="45.299098937927326" lon="9.224882603710242"><ele>87.0</ele><time>2026-03-22T15:11:44Z</time></trkpt><trkpt lat="45.2990020636416" lon="9.225049074539504"><ele>86.75</ele><time>2026-03-22T15:11:45Z</time></trkpt><trkpt lat="45.298916590558164" lon="9.225202556451443"><ele>86.5</ele><time>2026-03-22T15:11:46Z</time></trkpt><trkpt lat="45.29883896204758" lon="9.225350058329958"><ele>86.25</ele><time>2026-03-22T15:11:47Z</time></trkpt><trkpt lat="45.29876151063216" lon="9.225476514316547"><ele>86.0</ele><time>2026-03-22T15:11:48Z</time></trkpt><trkpt lat="45.29867771659659" lon="9.225580412984487"><ele>86.5</ele><time>2026-03-22T15:11:49Z</time></trkpt><trkpt lat="45.298577256229024" lon="9.225674390655165"><ele>87.0</ele><time>2026-03-22T15:11:50Z</time></trkpt><trkpt lat="45.298439174835735" lon="9.22572677736473"><ele>87.5</ele><time>2026-03-22T15:11:51Z</time></trkpt><trkpt lat="45.298323995308" lon="9.225769815324089"><ele>88.0</ele><time>2026-03-22T15:11:52Z</time></trkpt><trkpt lat="45.2982255187166" lon="9.225816256258963"><ele>88.0</ele><time>2026-03-22T15:11:53Z</time></trkpt><trkpt lat="45.29814339187837" lon="9.225884593715648"><ele>88.0</ele><time>2026-03-22T15:11:54Z</time></trkpt><trkpt lat="45.298086367782396" lon="9.226016611888184"><ele>88.0</ele><time>2026-03-22T15:11:55Z</time></trkpt><trkpt lat="45.29802273905457" lon="9.226172886045115"><ele>88.0</ele><time>2026-03-22T15:11:56Z</time></trkpt><trkpt lat="45.297976159948234" lon="9.22629837666557"><ele>88.0</ele><time>2026-03-22T15:11:57Z</time></trkpt><trkpt lat="45.297921033592836" lon="9.22639709787649"><ele>88.25</ele><time>2026-03-22T15:11:58Z</time></trkpt><trkpt lat="45.29779695829771" lon="9.226410705948362"><ele>88.5</ele><time>2026-03-22T15:11:59Z</time></trkpt><trkpt lat="45.29765633845006" lon="9.226438015361277"><ele>88.75</ele><time>2026-03-22T15:12:00Z</time></trkpt><trkpt lat="45.2975172845801" lon="9.22646502050635"><ele>89.0</ele><time>2026-03-22T15:12:01Z</time></trkpt><trkpt lat="45.29738431299526" lon="9.226493790229105"><ele>89.0</ele><time>2026-03-22T15:12:02Z</time></trkpt><trkpt lat="45.29726307118179" lon="9.226520331166617"><ele>89.0</ele><time>2026-03-22T15:12:03Z</time></trkpt><trkpt lat="45.29714067232295" lon="9.226548946738074"><ele>89.0</ele><time>2026-03-22T15:12:04Z</time></trkpt><trkpt lat="45.29702498272621" lon="9.226585462662326"><ele>89.0</ele><time>2026-03-22T15:12:05Z</time></trkpt><trkpt lat="45.29688529834732" lon="9.226640896663898"><ele>88.80000000000001</ele><time>2026-03-22T15:12:06Z</time></trkpt><trkpt lat="45.296776724937075" lon="9.226704287202846"><ele>88.60000000000001</ele><time>2026-03-22T15:12:07Z</time></trkpt><trkpt lat="45.29668190350657" lon="9.226782154685019"><ele>88.4</ele><time>2026-03-22T15:12:08Z</time></trkpt><trkpt lat="45.29661503027053" lon="9.22688740360588"><ele>88.2</ele><time>2026-03-22T15:12:09Z</time></trkpt><trkpt lat="45.2966083589835" lon="9.227049801857953"><ele>88.0</ele><time>2026-03-22T15:12:10Z</time></trkpt><trkpt lat="45.2966081867575" lon="9.227208229860127"><ele>88.25</ele><time>2026-03-22T15:12:11Z</time></trkpt><trkpt lat="45.29663672468983" lon="9.227411185258942"><ele>88.5</ele><time>2026-03-22T15:12:12Z</time></trkpt><trkpt lat="45.296681714701236" lon="9.22764727226279"><ele>88.75</ele><time>2026-03-22T15:12:13Z</time></trkpt><trkpt lat="45.296709190403455" lon="9.227829634273252"><ele>89.0</ele><time>2026-03-22T15:12:14Z</time></trkpt><trkpt lat="45.29670693256917" lon="9.227999382659506"><ele>88.0</ele><time>2026-03-22T15:12:15Z</time></trkpt><trkpt lat="45.29669216630723" lon="9.228167511811767"><ele>87.0</ele><time>2026-03-22T15:12:16Z</time></trkpt><trkpt lat="45.2966522723353" lon="9.228359467347095"><ele>86.0</ele><time>2026-03-22T15:12:17Z</time></trkpt><trkpt lat="45.29658974628924" lon="9.228522993747214"><ele>85.0</ele><time>2026-03-22T15:12:18Z</time></trkpt><trkpt lat="45.29653641724258" lon="9.228676213737632"><ele>85.0</ele><time>2026-03-22T15:12:19Z</time></trkpt><trkpt lat="45.2965055341821" lon="9.228819403238084"><ele>85.0</ele><time>2026-03-22T15:12:20Z</time></trkpt><trkpt lat="45.29649606299204" lon="9.228943681448243"><ele>85.0</ele><time>2026-03-22T15:12:21Z</time></trkpt><trkpt lat="45.296506395985695" lon="9.229032641900591"><ele>85.0</ele><time>2026-03-22T15:12:22Z</time></trkpt><trkpt lat="45.29648777704766" lon="9.229185138548692"><ele>85.0</ele><time>2026-03-22T15:12:24Z</time></trkpt><trkpt lat="45.29648368622238" lon="9.229290444864121"><ele>85.0</ele><time>2026-03-22T15:12:25Z</time></trkpt><trkpt lat="45.29648894746667" lon="9.229440093810691"><ele>85.0</ele><time>2026-03-22T15:12:26Z</time></trkpt><trkpt lat="45.296495500531" lon="9.22961748768535"><ele>85.0</ele><time>2026-03-22T15:12:27Z</time></trkpt><trkpt lat="45.29649949217474" lon="9.229806630249563"><ele>85.0</ele><time>2026-03-22T15:12:28Z</time></trkpt><trkpt lat="45.29650549807432" lon="9.230003958758308"><ele>85.0</ele><time>2026-03-22T15:12:29Z</time></trkpt><trkpt lat="45.296510513111144" lon="9.230223280319235"><ele>85.25</ele><time>2026-03-22T15:12:30Z</time></trkpt><trkpt lat="45.2965106359875" lon="9.230413779871798"><ele>85.5</ele><time>2026-03-22T15:12:31Z</time></trkpt><trkpt lat="45.296509787608" lon="9.230587398868355"><ele>85.75</ele><time>2026-03-22T15:12:32Z</time></trkpt><trkpt lat="45.29651043127485" lon="9.230750279525921"><ele>86.0</ele><time>2026-03-22T15:12:33Z</time></trkpt><trkpt lat="45.29649639228171" lon="9.230891520400975"><ele>86.0</ele><time>2026-03-22T15:12:34Z</time></trkpt><trkpt lat="45.29646169849654" lon="9.231013742589063"><ele>86.0</ele><time>2026-03-22T15:12:35Z</time></trkpt><trkpt lat="45.29637663034675" lon="9.231079311294545"><ele>86.0</ele><time>2026-03-22T15:12:36Z</time></trkpt><trkpt lat="45.29628291902707" lon="9.231136775290208"><ele>86.0</ele><time>2026-03-22T15:12:37Z</time></trkpt><trkpt lat="45.29620225023187" lon="9.231182087729616"><ele>86.0</ele><time>2026-03-22T15:12:38Z</time></trkpt><trkpt lat="45.29610463829505" lon="9.231235285453499"><ele>86.0</ele><time>2026-03-22T15:12:40Z</time></trkpt><trkpt lat="45.29618935560357" lon="9.231564443583459"><ele>86.0</ele><time>2026-03-22T15:12:42Z</time></trkpt><trkpt lat="45.296247885885116" lon="9.231769264339267"><ele>86.0</ele><time>2026-03-22T15:12:43Z</time></trkpt><trkpt lat="45.296319678053" lon="9.231985571619598"><ele>86.0</ele><time>2026-03-22T15:12:44Z</time></trkpt><trkpt lat="45.29639284892741" lon="9.232170569360646"><ele>86.0</ele><time>2026-03-22T15:12:45Z</time></trkpt><trkpt lat="45.296447984284484" lon="9.232338528039834"><ele>86.0</ele><time>2026-03-22T15:12:46Z</time></trkpt><trkpt lat="45.29650120651001" lon="9.232490789485007"><ele>86.0</ele><time>2026-03-22T15:12:47Z</time></trkpt><trkpt lat="45.29654661755531" lon="9.232630939601625"><ele>86.0</ele><time>2026-03-22T15:12:48Z</time></trkpt><trkpt lat="45.29659283493947" lon="9.232769530386395"><ele>86.0</ele><time>2026-03-22T15:12:49Z</time></trkpt><trkpt lat="45.29663842527354" lon="9.232911752579616"><ele>86.0</ele><time>2026-03-22T15:12:50Z</time></trkpt><trkpt lat="45.29670015411688" lon="9.233098004310936"><ele>86.0</ele><time>2026-03-22T15:12:51Z</time></trkpt><trkpt lat="45.29675648843963" lon="9.233256602951943"><ele>86.19999999999999</ele><time>2026-03-22T15:12:52Z</time></trkpt><trkpt lat="45.29680337875596" lon="9.233408761097374"><ele>86.39999999999999</ele><time>2026-03-22T15:12:53Z</time></trkpt><trkpt lat="45.29685117212896" lon="9.233551620499119"><ele>86.6</ele><time>2026-03-22T15:12:54Z</time></trkpt><trkpt lat="45.296893495380374" lon="9.233681886233175"><ele>86.8</ele><time>2026-03-22T15:12:55Z</time></trkpt><trkpt lat="45.29693128180092" lon="9.233809406511954"><ele>87.0</ele><time>2026-03-22T15:12:56Z</time></trkpt><trkpt lat="45.29696328458039" lon="9.233907366271737"><ele>87.0</ele><time>2026-03-22T15:12:57Z</time></trkpt><trkpt lat="45.29699392859983" lon="9.233992509390855"><ele>87.0</ele><time>2026-03-22T15:12:59Z</time></trkpt><trkpt lat="45.29702357773447" lon="9.234096975802318"><ele>87.0</ele><time>2026-03-22T15:13:07Z</time></trkpt><trkpt lat="45.29714831653866" lon="9.234032029103684"><ele>87.0</ele><time>2026-03-22T15:13:08Z</time></trkpt><trkpt lat="45.29723080206768" lon="9.233965596011563"><ele>87.0</ele><time>2026-03-22T15:13:09Z</time></trkpt><trkpt lat="45.29736396857832" lon="9.233867608107854"><ele>87.0</ele><time>2026-03-22T15:13:10Z</time></trkpt><trkpt lat="45.297530339171644" lon="9.233761981817933"><ele>87.0</ele><time>2026-03-22T15:13:11Z</time></trkpt><trkpt lat="45.29771204319418" lon="9.233642572323708"><ele>87.0</ele><time>2026-03-22T15:13:12Z</time></trkpt><trkpt lat="45.297889815289174" lon="9.233528290990408"><ele>87.0</ele><time>2026-03-22T15:13:13Z</time></trkpt><trkpt lat="45.29806796976963" lon="9.233432269122689"><ele>87.0</ele><time>2026-03-22T15:13:14Z</time></trkpt><trkpt lat="45.298227213060166" lon="9.233356078323203"><ele>87.0</ele><time>2026-03-22T15:13:15Z</time></trkpt><trkpt lat="45.29837794756067" lon="9.23329076267102"><ele>86.66666666666667</ele><time>2026-03-22T15:13:16Z</time></trkpt><trkpt lat="45.298548259630884" lon="9.233217796769535"><ele>86.33333333333334</ele><time>2026-03-22T15:13:17Z</time></trkpt><trkpt lat="45.298727938887346" lon="9.23314329314672"><ele>86.0</ele><time>2026-03-22T15:13:18Z</time></trkpt><trkpt lat="45.298910622545314" lon="9.23306208453582"><ele>86.0</ele><time>2026-03-22T15:13:19Z</time></trkpt><trkpt lat="45.29908481100696" lon="9.23298712356301"><ele>86.0</ele><time>2026-03-22T15:13:20Z</time></trkpt><trkpt lat="45.299251474204965" lon="9.23291178428854"><ele>86.0</ele><time>2026-03-22T15:13:21Z</time></trkpt><trkpt lat="45.299411715616316" lon="9.232835783139091"><ele>86.0</ele><time>2026-03-22T15:13:22Z</time></trkpt><trkpt lat="45.29957387651192" lon="9.232763719707416"><ele>86.0</ele><time>2026-03-22T15:13:23Z</time></trkpt><trkpt lat="45.29973068392484" lon="9.232693956990603"><ele>86.0</ele><time>2026-03-22T15:13:24Z</time></trkpt><trkpt lat="45.29988230915701" lon="9.232630190502332"><ele>86.0</ele><time>2026-03-22T15:13:25Z</time></trkpt><trkpt lat="45.30001994167225" lon="9.232570423648292"><ele>86.0</ele><time>2026-03-22T15:13:26Z</time></trkpt><trkpt lat="45.30014911453643" lon="9.232514414381498"><ele>86.0</ele><time>2026-03-22T15:13:27Z</time></trkpt><trkpt lat="45.30027859234351" lon="9.23246216125487"><ele>86.0</ele><time>2026-03-22T15:13:28Z</time></trkpt><trkpt lat="45.3004015606491" lon="9.23241066737303"><ele>86.0</ele><time>2026-03-22T15:13:29Z</time></trkpt><trkpt lat="45.300531952555325" lon="9.232353173270733"><ele>86.0</ele><time>2026-03-22T15:13:30Z</time></trkpt><trkpt lat="45.30066318220687" lon="9.232295802936019"><ele>86.0</ele><time>2026-03-22T15:13:31Z</time></trkpt><trkpt lat="45.300788348782035" lon="9.232241959416509"><ele>86.0</ele><time>2026-03-22T15:13:32Z</time></trkpt><trkpt lat="45.30090043918108" lon="9.232200464889122"><ele>86.0</ele><time>2026-03-22T15:13:33Z</time></trkpt><trkpt lat="45.301005013977274" lon="9.232155032198143"><ele>86.0</ele><time>2026-03-22T15:13:34Z</time></trkpt><trkpt lat="45.301113145238375" lon="9.232105508655415"><ele>86.0</ele><time>2026-03-22T15:13:35Z</time></trkpt><trkpt lat="45.301226855305" lon="9.23206056980235"><ele>86.0</ele><time>2026-03-22T15:13:36Z</time></trkpt><trkpt lat="45.30133796661013" lon="9.232012385152219"><ele>86.0</ele><time>2026-03-22T15:13:37Z</time></trkpt><trkpt lat="45.30145271159413" lon="9.23196487915981"><ele>86.0</ele><time>2026-03-22T15:13:38Z</time></trkpt><trkpt lat="45.301576041539995" lon="9.231912279482463"><ele>86.0</ele><time>2026-03-22T15:13:39Z</time></trkpt><trkpt lat="45.30171972360368" lon="9.231846833397588"><ele>86.0</ele><time>2026-03-22T15:13:40Z</time></trkpt><trkpt lat="45.301889913253945" lon="9.231770630414985"><ele>86.0</ele><time>2026-03-22T15:13:41Z</time></trkpt><trkpt lat="45.3020649427489" lon="9.231693060142565"><ele>86.0</ele><time>2026-03-22T15:13:42Z</time></trkpt><trkpt lat="45.302217681375474" lon="9.231623961925198"><ele>86.0</ele><time>2026-03-22T15:13:43Z</time></trkpt><trkpt lat="45.30235847186039" lon="9.231561705448977"><ele>85.75</ele><time>2026-03-22T15:13:44Z</time></trkpt><trkpt lat="45.3024919929212" lon="9.231502739424897"><ele>85.5</ele><time>2026-03-22T15:13:45Z</time></trkpt><trkpt lat="45.30262482980293" lon="9.231446553488864"><ele>85.25</ele><time>2026-03-22T15:13:46Z</time></trkpt><trkpt lat="45.30275489823867" lon="9.231395949730029"><ele>85.0</ele><time>2026-03-22T15:13:47Z</time></trkpt><trkpt lat="45.302884628294805" lon="9.231354779198844"><ele>84.75</ele><time>2026-03-22T15:13:48Z</time></trkpt><trkpt lat="45.30301692417975" lon="9.231336294395978"><ele>84.5</ele><time>2026-03-22T15:13:49Z</time></trkpt><trkpt lat="45.30315293796917" lon="9.231341203783325"><ele>84.25</ele><time>2026-03-22T15:13:50Z</time></trkpt><trkpt lat="45.303291883135884" lon="9.231344245843683"><ele>84.0</ele><time>2026-03-22T15:13:51Z</time></trkpt><trkpt lat="45.30342799323987" lon="9.231337988890187"><ele>84.75</ele><time>2026-03-22T15:13:52Z</time></trkpt><trkpt lat="45.30355833209228" lon="9.231334702522059"><ele>85.5</ele><time>2026-03-22T15:13:53Z</time></trkpt><trkpt lat="45.30368903607604" lon="9.231330944766837"><ele>86.25</ele><time>2026-03-22T15:13:54Z</time></trkpt><trkpt lat="45.30381763598812" lon="9.231323760851897"><ele>87.0</ele><time>2026-03-22T15:13:55Z</time></trkpt><trkpt lat="45.3039388224726" lon="9.231327870537495"><ele>87.0</ele><time>2026-03-22T15:13:56Z</time></trkpt><trkpt lat="45.30404248157257" lon="9.231331641439116"><ele>87.0</ele><time>2026-03-22T15:13:57Z</time></trkpt><trkpt lat="45.30413871817357" lon="9.231326247937465"><ele>87.0</ele><time>2026-03-22T15:13:58Z</time></trkpt><trkpt lat="45.30423581234299" lon="9.23132101876012"><ele>87.0</ele><time>2026-03-22T15:13:59Z</time></trkpt><trkpt lat="45.304348863286435" lon="9.231322878943024"><ele>87.0</ele><time>2026-03-22T15:14:00Z</time></trkpt><trkpt lat="45.30448147532978" lon="9.231322852124602"><ele>87.0</ele><time>2026-03-22T15:14:01Z</time></trkpt><trkpt lat="45.3046394307939" lon="9.231319745403603"><ele>87.0</ele><time>2026-03-22T15:14:02Z</time></trkpt><trkpt lat="45.30478923906206" lon="9.231319444974476"><ele>87.0</ele><time>2026-03-22T15:14:03Z</time></trkpt><trkpt lat="45.30494221702383" lon="9.231325263298212"><ele>86.33333333333333</ele><time>2026-03-22T15:14:04Z</time></trkpt><trkpt lat="45.30509920560131" lon="9.231329006811096"><ele>85.66666666666666</ele><time>2026-03-22T15:14:05Z</time></trkpt><trkpt lat="45.305251734333424" lon="9.231332672753878"><ele>85.0</ele><time>2026-03-22T15:14:06Z</time></trkpt><trkpt lat="45.30540031488339" lon="9.231337668639762"><ele>85.0</ele><time>2026-03-22T15:14:07Z</time></trkpt><trkpt lat="45.305548985765355" lon="9.231339547034853"><ele>85.0</ele><time>2026-03-22T15:14:08Z</time></trkpt><trkpt lat="45.30569551593738" lon="9.231333199230495"><ele>85.0</ele><time>2026-03-22T15:14:09Z</time></trkpt><trkpt lat="45.305842162573754" lon="9.231314387034741"><ele>85.0</ele><time>2026-03-22T15:14:10Z</time></trkpt><trkpt lat="45.30598945377296" lon="9.231301010528846"><ele>85.0</ele><time>2026-03-22T15:14:11Z</time></trkpt><trkpt lat="45.30613384830059" lon="9.231287060897923"><ele>85.0</ele><time>2026-03-22T15:14:12Z</time></trkpt><trkpt lat="45.306276349346184" lon="9.231272739073955"><ele>85.0</ele><time>2026-03-22T15:14:13Z</time></trkpt><trkpt lat="45.30641847547624" lon="9.231258146598515"><ele>85.0</ele><time>2026-03-22T15:14:14Z</time></trkpt><trkpt lat="45.30657093231757" lon="9.231243907757353"><ele>85.25</ele><time>2026-03-22T15:14:15Z</time></trkpt><trkpt lat="45.30671224328731" lon="9.23122981994353"><ele>85.5</ele><time>2026-03-22T15:14:16Z</time></trkpt><trkpt lat="45.30684099965769" lon="9.231216997172718"><ele>85.75</ele><time>2026-03-22T15:14:17Z</time></trkpt><trkpt lat="45.306954352984626" lon="9.231204983729244"><ele>86.0</ele><time>2026-03-22T15:14:18Z</time></trkpt><trkpt lat="45.30704942905821" lon="9.231198925203579"><ele>86.0</ele><time>2026-03-22T15:14:19Z</time></trkpt><trkpt lat="45.30714263468656" lon="9.23121666795433"><ele>86.0</ele><time>2026-03-22T15:14:20Z</time></trkpt><trkpt lat="45.30722945818363" lon="9.231279969238807"><ele>86.0</ele><time>2026-03-22T15:14:21Z</time></trkpt><trkpt lat="45.30731029161587" lon="9.231384536789419"><ele>86.0</ele><time>2026-03-22T15:14:22Z</time></trkpt><trkpt lat="45.30738858246942" lon="9.23152134814939"><ele>86.0</ele><time>2026-03-22T15:14:23Z</time></trkpt><trkpt lat="45.30747635186939" lon="9.231677764135245"><ele>85.5</ele><time>2026-03-22T15:14:24Z</time></trkpt><trkpt lat="45.30756450013287" lon="9.23183043771086"><ele>85.0</ele><time>2026-03-22T15:14:25Z</time></trkpt><trkpt lat="45.307660641452074" lon="9.231991307906322"><ele>84.5</ele><time>2026-03-22T15:14:26Z</time></trkpt><trkpt lat="45.307750778232" lon="9.232140202138526"><ele>84.0</ele><time>2026-03-22T15:14:27Z</time></trkpt><trkpt lat="45.3078367647063" lon="9.232287682837773"><ele>84.0</ele><time>2026-03-22T15:14:28Z</time></trkpt><trkpt lat="45.30792042437262" lon="9.232429209687924"><ele>84.0</ele><time>2026-03-22T15:14:29Z</time></trkpt><trkpt lat="45.30800242469313" lon="9.232563559806891"><ele>84.0</ele><time>2026-03-22T15:14:30Z</time></trkpt><trkpt lat="45.30807663973804" lon="9.232693325538836"><ele>84.0</ele><time>2026-03-22T15:14:31Z</time></trkpt><trkpt lat="45.308153971795235" lon="9.232824050466206"><ele>84.0</ele><time>2026-03-22T15:14:32Z</time></trkpt><trkpt lat="45.30823074218902" lon="9.232954307879076"><ele>84.0</ele><time>2026-03-22T15:14:33Z</time></trkpt><trkpt lat="45.30830684008139" lon="9.233088154245214"><ele>84.0</ele><time>2026-03-22T15:14:34Z</time></trkpt><trkpt lat="45.30839136847788" lon="9.2332335964199"><ele>84.0</ele><time>2026-03-22T15:14:35Z</time></trkpt><trkpt lat="45.30846782505483" lon="9.233370667046046"><ele>84.16666666666667</ele><time>2026-03-22T15:14:36Z</time></trkpt><trkpt lat="45.3085377725906" lon="9.23348887613228"><ele>84.33333333333333</ele><time>2026-03-22T15:14:37Z</time></trkpt><trkpt lat="45.30859648275694" lon="9.23358907676384"><ele>84.5</ele><time>2026-03-22T15:14:38Z</time></trkpt><trkpt lat="45.308638681115184" lon="9.233676611007317"><ele>84.66666666666666</ele><time>2026-03-22T15:14:39Z</time></trkpt><trkpt lat="45.308650682251994" lon="9.233766328634848"><ele>84.83333333333333</ele><time>2026-03-22T15:14:40Z</time></trkpt><trkpt lat="45.308637907095196" lon="9.23385729301947"><ele>85.0</ele><time>2026-03-22T15:14:41Z</time></trkpt><trkpt lat="45.308594478426464" lon="9.23395012103706"><ele>85.5</ele><time>2026-03-22T15:14:42Z</time></trkpt><trkpt lat="45.308518727745536" lon="9.234049469623832"><ele>86.0</ele><time>2026-03-22T15:14:43Z</time></trkpt><trkpt lat="45.30842330816355" lon="9.234174281135395"><ele>86.5</ele><time>2026-03-22T15:14:44Z</time></trkpt><trkpt lat="45.308313411114604" lon="9.234283242861052"><ele>87.0</ele><time>2026-03-22T15:14:45Z</time></trkpt><trkpt lat="45.308215393873645" lon="9.234393174406646"><ele>87.0</ele><time>2026-03-22T15:14:46Z</time></trkpt><trkpt lat="45.308139681133206" lon="9.23449628775312"><ele>87.0</ele><time>2026-03-22T15:14:47Z</time></trkpt><trkpt lat="45.30808783340466" lon="9.234565391542263"><ele>87.0</ele><time>2026-03-22T15:14:48Z</time></trkpt><trkpt lat="45.308062785864436" lon="9.23466266717945"><ele>87.0</ele><time>2026-03-22T15:14:49Z</time></trkpt><trkpt lat="45.30807669444083" lon="9.234792409605216"><ele>87.0</ele><time>2026-03-22T15:14:50Z</time></trkpt><trkpt lat="45.308124313893394" lon="9.234941742515778"><ele>87.0</ele><time>2026-03-22T15:14:51Z</time></trkpt><trkpt lat="45.30820666683318" lon="9.235097737994282"><ele>87.0</ele><time>2026-03-22T15:14:52Z</time></trkpt><trkpt lat="45.30828256338931" lon="9.235235221207907"><ele>87.0</ele><time>2026-03-22T15:14:53Z</time></trkpt><trkpt lat="45.30835297601471" lon="9.235354838539676"><ele>87.0</ele><time>2026-03-22T15:14:54Z</time></trkpt><trkpt lat="45.308419828973975" lon="9.235476169947988"><ele>87.0</ele><time>2026-03-22T15:14:55Z</time></trkpt><trkpt lat="45.308478112956806" lon="9.235602817242897"><ele>87.0</ele><time>2026-03-22T15:14:56Z</time></trkpt><trkpt lat="45.30855250496604" lon="9.235737393037995"><ele>87.0</ele><time>2026-03-22T15:14:57Z</time></trkpt><trkpt lat="45.30861066626026" lon="9.23589397000294"><ele>87.0</ele><time>2026-03-22T15:14:58Z</time></trkpt><trkpt lat="45.308660032309426" lon="9.236063341354257"><ele>87.0</ele><time>2026-03-22T15:14:59Z</time></trkpt><trkpt lat="45.308711043606046" lon="9.23624408374496"><ele>87.0</ele><time>2026-03-22T15:15:00Z</time></trkpt><trkpt lat="45.30875440350866" lon="9.236424040644536"><ele>87.0</ele><time>2026-03-22T15:15:01Z</time></trkpt><trkpt lat="45.308792952264696" lon="9.236570555338071"><ele>87.0</ele><time>2026-03-22T15:15:02Z</time></trkpt><trkpt lat="45.308815695664535" lon="9.236683683610174"><ele>87.0</ele><time>2026-03-22T15:15:03Z</time></trkpt><trkpt lat="45.308821562970834" lon="9.236784564310108"><ele>87.0</ele><time>2026-03-22T15:15:04Z</time></trkpt><trkpt lat="45.308803910321835" lon="9.236877315574702"><ele>87.0</ele><time>2026-03-22T15:15:05Z</time></trkpt><trkpt lat="45.30874201673291" lon="9.236920237816388"><ele>87.0</ele><time>2026-03-22T15:15:06Z</time></trkpt><trkpt lat="45.30866292176624" lon="9.23693406517587"><ele>87.0</ele><time>2026-03-22T15:15:07Z</time></trkpt><trkpt lat="45.308547318215986" lon="9.236942969267348"><ele>87.0</ele><time>2026-03-22T15:15:08Z</time></trkpt><trkpt lat="45.30841857890258" lon="9.23695403083956"><ele>87.0</ele><time>2026-03-22T15:15:09Z</time></trkpt><trkpt lat="45.30827403667442" lon="9.236999236827799"><ele>87.0</ele><time>2026-03-22T15:15:10Z</time></trkpt><trkpt lat="45.30812338268931" lon="9.237079149817196"><ele>87.0</ele><time>2026-03-22T15:15:11Z</time></trkpt><trkpt lat="45.30799575234831" lon="9.23714984736151"><ele>87.0</ele><time>2026-03-22T15:15:12Z</time></trkpt><trkpt lat="45.30787970275926" lon="9.237217781690662"><ele>86.75</ele><time>2026-03-22T15:15:13Z</time></trkpt><trkpt lat="45.30776766578543" lon="9.237289279618121"><ele>86.5</ele><time>2026-03-22T15:15:14Z</time></trkpt><trkpt lat="45.30765203795472" lon="9.237365287835837"><ele>86.25</ele><time>2026-03-22T15:15:15Z</time></trkpt><trkpt lat="45.30753426486341" lon="9.237442706198363"><ele>86.0</ele><time>2026-03-22T15:15:16Z</time></trkpt><trkpt lat="45.30741537203747" lon="9.237520860636543"><ele>86.0</ele><time>2026-03-22T15:15:17Z</time></trkpt><trkpt lat="45.30729227538213" lon="9.23759910726674"><ele>86.0</ele><time>2026-03-22T15:15:18Z</time></trkpt><trkpt lat="45.30716414006138" lon="9.237694123518285"><ele>86.0</ele><time>2026-03-22T15:15:19Z</time></trkpt><trkpt lat="45.30701100786503" lon="9.2377940655305"><ele>86.0</ele><time>2026-03-22T15:15:20Z</time></trkpt><trkpt lat="45.306857050266714" lon="9.237894404835794"><ele>85.66666666666667</ele><time>2026-03-22T15:15:21Z</time></trkpt><trkpt lat="45.30671477469439" lon="9.238004488822854"><ele>85.33333333333333</ele><time>2026-03-22T15:15:22Z</time></trkpt><trkpt lat="45.306557659021315" lon="9.238146021433186"><ele>85.0</ele><time>2026-03-22T15:15:23Z</time></trkpt><trkpt lat="45.30639554237512" lon="9.23828710446906"><ele>84.66666666666666</ele><time>2026-03-22T15:15:24Z</time></trkpt><trkpt lat="45.30622612153796" lon="9.23843667831358"><ele>84.33333333333333</ele><time>2026-03-22T15:15:25Z</time></trkpt><trkpt lat="45.30605706511374" lon="9.238548115582178"><ele>84.0</ele><time>2026-03-22T15:15:26Z</time></trkpt><trkpt lat="45.30593243360766" lon="9.238651718098343"><ele>84.0</ele><time>2026-03-22T15:15:27Z</time></trkpt><trkpt lat="45.30584763352661" lon="9.238758242756223"><ele>84.0</ele><time>2026-03-22T15:15:28Z</time></trkpt><trkpt lat="45.305772024978076" lon="9.238827338093603"><ele>84.0</ele><time>2026-03-22T15:15:29Z</time></trkpt><trkpt lat="45.30570628040941" lon="9.238896921058812"><ele>84.0</ele><time>2026-03-22T15:15:30Z</time></trkpt><trkpt lat="45.30568517346174" lon="9.239028338665463"><ele>84.0</ele><time>2026-03-22T15:15:31Z</time></trkpt><trkpt lat="45.30572888129095" lon="9.239197575939132"><ele>84.66666666666667</ele><time>2026-03-22T15:15:32Z</time></trkpt><trkpt lat="45.3057815576204" lon="9.239392827924886"><ele>85.33333333333334</ele><time>2026-03-22T15:15:33Z</time></trkpt><trkpt lat="45.3058268387337" lon="9.239607965774503"><ele>86.0</ele><time>2026-03-22T15:15:34Z</time></trkpt><trkpt lat="45.30589297566319" lon="9.239842646937731"><ele>86.33333333333334</ele><time>2026-03-22T15:15:35Z</time></trkpt><trkpt lat="45.30596271655175" lon="9.240075485960462"><ele>86.66666666666667</ele><time>2026-03-22T15:15:36Z</time></trkpt><trkpt lat="45.306014908639504" lon="9.240333623303867"><ele>87.0</ele><time>2026-03-22T15:15:37Z</time></trkpt><trkpt lat="45.30603549781098" lon="9.240592961431389"><ele>86.66666666666667</ele><time>2026-03-22T15:15:38Z</time></trkpt><trkpt lat="45.30609832081637" lon="9.24085285593774"><ele>86.33333333333334</ele><time>2026-03-22T15:15:39Z</time></trkpt><trkpt lat="45.306181966828575" lon="9.241102386082831"><ele>86.0</ele><time>2026-03-22T15:15:40Z</time></trkpt><trkpt lat="45.306272396010776" lon="9.241342195775285"><ele>86.0</ele><time>2026-03-22T15:15:41Z</time></trkpt><trkpt lat="45.30633968171936" lon="9.24159113573345"><ele>86.0</ele><time>2026-03-22T15:15:42Z</time></trkpt><trkpt lat="45.30638553512138" lon="9.241847299086077"><ele>86.0</ele><time>2026-03-22T15:15:43Z</time></trkpt><trkpt lat="45.30645384417884" lon="9.242097743089467"><ele>85.66666666666667</ele><time>2026-03-22T15:15:44Z</time></trkpt><trkpt lat="45.30653247224486" lon="9.242334741195128"><ele>85.33333333333333</ele><time>2026-03-22T15:15:45Z</time></trkpt><trkpt lat="45.30661351931599" lon="9.24254976852884"><ele>85.0</ele><time>2026-03-22T15:15:46Z</time></trkpt><trkpt lat="45.30663417184666" lon="9.242773001298616"><ele>85.0</ele><time>2026-03-22T15:15:47Z</time></trkpt><trkpt lat="45.306631263029736" lon="9.243001020480984"><ele>85.0</ele><time>2026-03-22T15:15:48Z</time></trkpt><trkpt lat="45.30660669134817" lon="9.243245773096348"><ele>85.0</ele><time>2026-03-22T15:15:49Z</time></trkpt><trkpt lat="45.30659381480048" lon="9.243479888973118"><ele>84.75</ele><time>2026-03-22T15:15:50Z</time></trkpt><trkpt lat="45.30656951319773" lon="9.243681591142446"><ele>84.5</ele><time>2026-03-22T15:15:51Z</time></trkpt><trkpt lat="45.30654067422151" lon="9.243866204860248"><ele>84.25</ele><time>2026-03-22T15:15:52Z</time></trkpt><trkpt lat="45.30654961070041" lon="9.244063532917947"><ele>84.0</ele><time>2026-03-22T15:15:53Z</time></trkpt><trkpt lat="45.30659704750319" lon="9.24426320633357"><ele>84.0</ele><time>2026-03-22T15:15:54Z</time></trkpt><trkpt lat="45.3066652916385" lon="9.244475338827101"><ele>84.0</ele><time>2026-03-22T15:15:55Z</time></trkpt><trkpt lat="45.30674800239724" lon="9.244690335575726"><ele>84.0</ele><time>2026-03-22T15:15:56Z</time></trkpt><trkpt lat="45.30683578200806" lon="9.244892184520877"><ele>84.33333333333333</ele><time>2026-03-22T15:15:57Z</time></trkpt><trkpt lat="45.30693247456517" lon="9.2451044301595"><ele>84.66666666666666</ele><time>2026-03-22T15:15:58Z</time></trkpt><trkpt lat="45.30703522565043" lon="9.245290128775324"><ele>85.0</ele><time>2026-03-22T15:15:59Z</time></trkpt><trkpt lat="45.307120105634745" lon="9.245499616902281"><ele>85.0</ele><time>2026-03-22T15:16:00Z</time></trkpt><trkpt lat="45.30720268068298" lon="9.245713171692614"><ele>85.0</ele><time>2026-03-22T15:16:01Z</time></trkpt><trkpt lat="45.30728316973793" lon="9.245928259440062"><ele>85.0</ele><time>2026-03-22T15:16:02Z</time></trkpt><trkpt lat="45.307362413559865" lon="9.24614471959697"><ele>85.0</ele><time>2026-03-22T15:16:03Z</time></trkpt><trkpt lat="45.30744414496994" lon="9.24636862271672"><ele>85.0</ele><time>2026-03-22T15:16:04Z</time></trkpt><trkpt lat="45.307532614905305" lon="9.246600409969382"><ele>85.0</ele><time>2026-03-22T15:16:05Z</time></trkpt><trkpt lat="45.30762056296873" lon="9.246827922922959"><ele>85.0</ele><time>2026-03-22T15:16:06Z</time></trkpt><trkpt lat="45.30770883476764" lon="9.247053138183295"><ele>85.0</ele><time>2026-03-22T15:16:07Z</time></trkpt><trkpt lat="45.30779444248238" lon="9.247281095701473"><ele>85.0</ele><time>2026-03-22T15:16:08Z</time></trkpt><trkpt lat="45.307879973598055" lon="9.247515321738415"><ele>85.0</ele><time>2026-03-22T15:16:09Z</time></trkpt><trkpt lat="45.307968104290445" lon="9.247745474034005"><ele>85.0</ele><time>2026-03-22T15:16:10Z</time></trkpt><trkpt lat="45.30805639041217" lon="9.247970098709954"><ele>85.0</ele><time>2026-03-22T15:16:11Z</time></trkpt><trkpt lat="45.308143731307275" lon="9.24818719150403"><ele>85.25</ele><time>2026-03-22T15:16:12Z</time></trkpt><trkpt lat="45.30822654712603" lon="9.248381465356308"><ele>85.5</ele><time>2026-03-22T15:16:13Z</time></trkpt><trkpt lat="45.30830745564074" lon="9.248558353592973"><ele>85.75</ele><time>2026-03-22T15:16:14Z</time></trkpt><trkpt lat="45.308385388016966" lon="9.248715875755696"><ele>86.0</ele><time>2026-03-22T15:16:15Z</time></trkpt><trkpt lat="45.30845126701926" lon="9.248850980003786"><ele>85.83333333333334</ele><time>2026-03-22T15:16:16Z</time></trkpt><trkpt lat="45.30850435749577" lon="9.248959492964854"><ele>85.66666666666667</ele><time>2026-03-22T15:16:17Z</time></trkpt><trkpt lat="45.30854779661562" lon="9.249049822939206"><ele>85.5</ele><time>2026-03-22T15:16:18Z</time></trkpt><trkpt lat="45.30857912124283" lon="9.249134115446596"><ele>85.33333333333333</ele><time>2026-03-22T15:16:19Z</time></trkpt><trkpt lat="45.308584729581696" lon="9.249227379218901"><ele>85.16666666666666</ele><time>2026-03-22T15:16:20Z</time></trkpt><trkpt lat="45.30856269371475" lon="9.249323449214419"><ele>85.0</ele><time>2026-03-22T15:16:21Z</time></trkpt><trkpt lat="45.30849341837207" lon="9.249380851363938"><ele>85.0</ele><time>2026-03-22T15:16:22Z</time></trkpt><trkpt lat="45.30841581842107" lon="9.249452824749243"><ele>85.0</ele><time>2026-03-22T15:16:23Z</time></trkpt><trkpt lat="45.308321828066546" lon="9.249534811453028"><ele>85.0</ele><time>2026-03-22T15:16:24Z</time></trkpt><trkpt lat="45.30820681086935" lon="9.249631323263243"><ele>85.0</ele><time>2026-03-22T15:16:25Z</time></trkpt><trkpt lat="45.30809000396832" lon="9.249729275183748"><ele>84.75</ele><time>2026-03-22T15:16:26Z</time></trkpt><trkpt lat="45.30796742860029" lon="9.249836998245236"><ele>84.5</ele><time>2026-03-22T15:16:27Z</time></trkpt><trkpt lat="45.30783992238315" lon="9.249949724558926"><ele>84.25</ele><time>2026-03-22T15:16:28Z</time></trkpt><trkpt lat="45.307716742561865" lon="9.250058625924583"><ele>84.0</ele><time>2026-03-22T15:16:29Z</time></trkpt><trkpt lat="45.30759148306459" lon="9.250167424076357"><ele>84.0</ele><time>2026-03-22T15:16:30Z</time></trkpt><trkpt lat="45.307464824603805" lon="9.25027695058708"><ele>84.0</ele><time>2026-03-22T15:16:31Z</time></trkpt><trkpt lat="45.30733989376903" lon="9.25038498188839"><ele>84.0</ele><time>2026-03-22T15:16:32Z</time></trkpt><trkpt lat="45.30721518184177" lon="9.250499127516433"><ele>84.0</ele><time>2026-03-22T15:16:33Z</time></trkpt><trkpt lat="45.307087225269" lon="9.250611533872297"><ele>84.66666666666667</ele><time>2026-03-22T15:16:34Z</time></trkpt><trkpt lat="45.30695912500447" lon="9.250724066466288"><ele>85.33333333333334</ele><time>2026-03-22T15:16:35Z</time></trkpt><trkpt lat="45.306831496562985" lon="9.250836184587943"><ele>86.0</ele><time>2026-03-22T15:16:36Z</time></trkpt><trkpt lat="45.30669913828016" lon="9.250952457742592"><ele>86.0</ele><time>2026-03-22T15:16:37Z</time></trkpt><trkpt lat="45.30657237492615" lon="9.251063464518156"><ele>86.0</ele><time>2026-03-22T15:16:38Z</time></trkpt><trkpt lat="45.30645918175548" lon="9.25116172112816"><ele>86.0</ele><time>2026-03-22T15:16:39Z</time></trkpt><trkpt lat="45.306362518366726" lon="9.251245629115063"><ele>86.0</ele><time>2026-03-22T15:16:40Z</time></trkpt><trkpt lat="45.30627170617622" lon="9.25132445796885"><ele>86.0</ele><time>2026-03-22T15:16:41Z</time></trkpt><trkpt lat="45.306198109378016" lon="9.251416329439166"><ele>86.0</ele><time>2026-03-22T15:16:42Z</time></trkpt><trkpt lat="45.306128718561396" lon="9.251466173654286"><ele>86.0</ele><time>2026-03-22T15:16:43Z</time></trkpt><trkpt lat="45.30604378096925" lon="9.251522639827726"><ele>86.0</ele><time>2026-03-22T15:16:45Z</time></trkpt><trkpt lat="45.30596579020309" lon="9.25153733629619"><ele>86.0</ele><time>2026-03-22T15:16:49Z</time></trkpt><trkpt lat="45.30598976906667" lon="9.25173418349505"><ele>86.0</ele><time>2026-03-22T15:16:53Z</time></trkpt><trkpt lat="45.305976705152865" lon="9.251637340856359"><ele>86.0</ele><time>2026-03-22T15:17:10Z</time></trkpt><trkpt lat="45.30593606533223" lon="9.251552275105107"><ele>86.0</ele><time>2026-03-22T15:17:11Z</time></trkpt><trkpt lat="45.305894553112594" lon="9.251465385035983"><ele>86.0</ele><time>2026-03-22T15:17:12Z</time></trkpt><trkpt lat="45.30576052158556" lon="9.25113014666255"><ele>85.75</ele><time>2026-03-22T15:17:14Z</time></trkpt><trkpt lat="45.30568347426857" lon="9.250974525991168"><ele>85.5</ele><time>2026-03-22T15:17:15Z</time></trkpt><trkpt lat="45.30561095024611" lon="9.250828369974586"><ele>85.25</ele><time>2026-03-22T15:17:16Z</time></trkpt><trkpt lat="45.305540275605" lon="9.250679172546965"><ele>85.0</ele><time>2026-03-22T15:17:17Z</time></trkpt><trkpt lat="45.305466661069225" lon="9.250523960276375"><ele>85.0</ele><time>2026-03-22T15:17:18Z</time></trkpt><trkpt lat="45.30539572285111" lon="9.250370536272317"><ele>85.0</ele><time>2026-03-22T15:17:19Z</time></trkpt><trkpt lat="45.30532277821943" lon="9.250210902128151"><ele>85.0</ele><time>2026-03-22T15:17:20Z</time></trkpt><trkpt lat="45.30524829786994" lon="9.250053956497366"><ele>85.0</ele><time>2026-03-22T15:17:21Z</time></trkpt><trkpt lat="45.3051742440022" lon="9.24989788044472"><ele>84.75</ele><time>2026-03-22T15:17:22Z</time></trkpt><trkpt lat="45.305100558149704" lon="9.249745462491386"><ele>84.5</ele><time>2026-03-22T15:17:23Z</time></trkpt><trkpt lat="45.30502440335088" lon="9.24959447804275"><ele>84.25</ele><time>2026-03-22T15:17:24Z</time></trkpt><trkpt lat="45.30494760121744" lon="9.24944196225773"><ele>84.0</ele><time>2026-03-22T15:17:25Z</time></trkpt><trkpt lat="45.30487027666816" lon="9.249295178657682"><ele>84.0</ele><time>2026-03-22T15:17:26Z</time></trkpt><trkpt lat="45.304783472174854" lon="9.249159872650223"><ele>84.0</ele><time>2026-03-22T15:17:27Z</time></trkpt><trkpt lat="45.304688892217044" lon="9.249036888707897"><ele>84.0</ele><time>2026-03-22T15:17:28Z</time></trkpt><trkpt lat="45.30458648576904" lon="9.248925342245458"><ele>84.0</ele><time>2026-03-22T15:17:29Z</time></trkpt><trkpt lat="45.30447525589365" lon="9.248820226438006"><ele>84.25</ele><time>2026-03-22T15:17:30Z</time></trkpt><trkpt lat="45.30436181542124" lon="9.248724562281065"><ele>84.5</ele><time>2026-03-22T15:17:31Z</time></trkpt><trkpt lat="45.304245832846895" lon="9.248633083767354"><ele>84.75</ele><time>2026-03-22T15:17:32Z</time></trkpt><trkpt lat="45.3041270979115" lon="9.248545504719015"><ele>85.0</ele><time>2026-03-22T15:17:33Z</time></trkpt><trkpt lat="45.3040112678569" lon="9.248458284085133"><ele>85.0</ele><time>2026-03-22T15:17:34Z</time></trkpt><trkpt lat="45.303903417012506" lon="9.248370423188232"><ele>85.0</ele><time>2026-03-22T15:17:35Z</time></trkpt><trkpt lat="45.303794614873695" lon="9.248289772531225"><ele>85.0</ele><time>2026-03-22T15:17:36Z</time></trkpt><trkpt lat="45.303688650680186" lon="9.248203914642694"><ele>85.0</ele><time>2026-03-22T15:17:37Z</time></trkpt><trkpt lat="45.303580425165805" lon="9.248122940312825"><ele>85.0</ele><time>2026-03-22T15:17:38Z</time></trkpt><trkpt lat="45.30347043799339" lon="9.248061116758036"><ele>85.0</ele><time>2026-03-22T15:17:39Z</time></trkpt><trkpt lat="45.30335079402795" lon="9.248019934697439"><ele>85.0</ele><time>2026-03-22T15:17:40Z</time></trkpt><trkpt lat="45.30322716398577" lon="9.247996353268402"><ele>85.0</ele><time>2026-03-22T15:17:41Z</time></trkpt><trkpt lat="45.303109004709036" lon="9.248003915529203"><ele>85.0</ele><time>2026-03-22T15:17:42Z</time></trkpt><trkpt lat="45.302993243141714" lon="9.248016695469687"><ele>85.0</ele><time>2026-03-22T15:17:43Z</time></trkpt><trkpt lat="45.30289126300786" lon="9.24808791265532"><ele>85.0</ele><time>2026-03-22T15:17:44Z</time></trkpt><trkpt lat="45.30279898542463" lon="9.248170923412403"><ele>85.0</ele><time>2026-03-22T15:17:45Z</time></trkpt><trkpt lat="45.302704138658925" lon="9.248252621309296"><ele>85.0</ele><time>2026-03-22T15:17:46Z</time></trkpt><trkpt lat="45.30261051491763" lon="9.248336705720495"><ele>85.0</ele><time>2026-03-22T15:17:47Z</time></trkpt><trkpt lat="45.30251330513615" lon="9.248424010816324"><ele>85.0</ele><time>2026-03-22T15:17:48Z</time></trkpt><trkpt lat="45.30241029904835" lon="9.248515413588539"><ele>85.0</ele><time>2026-03-22T15:17:49Z</time></trkpt><trkpt lat="45.30229983943691" lon="9.24861219816889"><ele>85.0</ele><time>2026-03-22T15:17:50Z</time></trkpt><trkpt lat="45.30218633842864" lon="9.248711647842432"><ele>85.0</ele><time>2026-03-22T15:17:51Z</time></trkpt><trkpt lat="45.30207322487357" lon="9.248810757835647"><ele>85.0</ele><time>2026-03-22T15:17:52Z</time></trkpt><trkpt lat="45.30196183705893" lon="9.248926549251628"><ele>85.0</ele><time>2026-03-22T15:17:53Z</time></trkpt><trkpt lat="45.3018480906436" lon="9.249035242292278"><ele>85.0</ele><time>2026-03-22T15:17:54Z</time></trkpt><trkpt lat="45.301746516326524" lon="9.249153536137971"><ele>85.0</ele><time>2026-03-22T15:17:55Z</time></trkpt><trkpt lat="45.30166431763959" lon="9.249293460488833"><ele>85.0</ele><time>2026-03-22T15:17:56Z</time></trkpt><trkpt lat="45.30160223868295" lon="9.24944261658812"><ele>85.0</ele><time>2026-03-22T15:17:57Z</time></trkpt><trkpt lat="45.301556935250545" lon="9.249593374603814"><ele>85.0</ele><time>2026-03-22T15:17:58Z</time></trkpt><trkpt lat="45.301511685194995" lon="9.249735230965344"><ele>85.0</ele><time>2026-03-22T15:17:59Z</time></trkpt><trkpt lat="45.301464418602606" lon="9.249851629849275"><ele>85.0</ele><time>2026-03-22T15:18:00Z</time></trkpt><trkpt lat="45.30138913387287" lon="9.249926458391034"><ele>85.0</ele><time>2026-03-22T15:18:01Z</time></trkpt><trkpt lat="45.30132935297766" lon="9.250030836425651"><ele>85.0</ele><time>2026-03-22T15:18:02Z</time></trkpt><trkpt lat="45.30125946992199" lon="9.250123928648081"><ele>84.75</ele><time>2026-03-22T15:18:03Z</time></trkpt><trkpt lat="45.30123995299407" lon="9.250275560772296"><ele>84.5</ele><time>2026-03-22T15:18:04Z</time></trkpt><trkpt lat="45.30127515884776" lon="9.250437336734205"><ele>84.25</ele><time>2026-03-22T15:18:05Z</time></trkpt><trkpt lat="45.30127302645859" lon="9.250605034111942"><ele>84.0</ele><time>2026-03-22T15:18:06Z</time></trkpt><trkpt lat="45.30124218865491" lon="9.250805501966399"><ele>83.66666666666667</ele><time>2026-03-22T15:18:07Z</time></trkpt><trkpt lat="45.30117989931313" lon="9.251036490088275"><ele>83.33333333333334</ele><time>2026-03-22T15:18:08Z</time></trkpt><trkpt lat="45.30109483412064" lon="9.25129360052713"><ele>83.0</ele><time>2026-03-22T15:18:09Z</time></trkpt><trkpt lat="45.300998536963746" lon="9.251570617639716"><ele>83.0</ele><time>2026-03-22T15:18:10Z</time></trkpt><trkpt lat="45.300885503571905" lon="9.251856032017377"><ele>83.0</ele><time>2026-03-22T15:18:11Z</time></trkpt><trkpt lat="45.3007553554898" lon="9.252129329735"><ele>83.0</ele><time>2026-03-22T15:18:12Z</time></trkpt><trkpt lat="45.3005984978791" lon="9.252360826461434"><ele>83.0</ele><time>2026-03-22T15:18:13Z</time></trkpt><trkpt lat="45.3004655536046" lon="9.252584898945754"><ele>83.0</ele><time>2026-03-22T15:18:14Z</time></trkpt><trkpt lat="45.30034345417593" lon="9.252790528663766"><ele>82.66666666666667</ele><time>2026-03-22T15:18:15Z</time></trkpt><trkpt lat="45.30022676274501" lon="9.252985014502658"><ele>82.33333333333333</ele><time>2026-03-22T15:18:16Z</time></trkpt><trkpt lat="45.300117888812814" lon="9.253164621018865"><ele>82.0</ele><time>2026-03-22T15:18:17Z</time></trkpt><trkpt lat="45.30001392001541" lon="9.253328400682198"><ele>82.0</ele><time>2026-03-22T15:18:18Z</time></trkpt><trkpt lat="45.29991158488117" lon="9.253474664490351"><ele>82.0</ele><time>2026-03-22T15:18:19Z</time></trkpt><trkpt lat="45.29981713151319" lon="9.253603549848519"><ele>82.0</ele><time>2026-03-22T15:18:20Z</time></trkpt><trkpt lat="45.2997253888193" lon="9.253723283078541"><ele>82.0</ele><time>2026-03-22T15:18:21Z</time></trkpt><trkpt lat="45.299638220300984" lon="9.253832566708"><ele>82.0</ele><time>2026-03-22T15:18:22Z</time></trkpt><trkpt lat="45.29955614828833" lon="9.253929756482481"><ele>82.0</ele><time>2026-03-22T15:18:23Z</time></trkpt><trkpt lat="45.299483649704655" lon="9.254013895518929"><ele>82.0</ele><time>2026-03-22T15:18:24Z</time></trkpt><trkpt lat="45.29942744879672" lon="9.254089828114248"><ele>82.0</ele><time>2026-03-22T15:18:25Z</time></trkpt><trkpt lat="45.29935585793702" lon="9.254121536926538"><ele>82.0</ele><time>2026-03-22T15:18:26Z</time></trkpt><trkpt lat="45.299278388125295" lon="9.254104922050713"><ele>82.0</ele><time>2026-03-22T15:18:27Z</time></trkpt><trkpt lat="45.2992024097401" lon="9.254113190851202"><ele>82.0</ele><time>2026-03-22T15:18:28Z</time></trkpt><trkpt lat="45.299117859762205" lon="9.254193932309814"><ele>82.0</ele><time>2026-03-22T15:18:29Z</time></trkpt><trkpt lat="45.2990747823325" lon="9.254326479357273"><ele>82.0</ele><time>2026-03-22T15:18:30Z</time></trkpt><trkpt lat="45.29909288347274" lon="9.254471435304588"><ele>82.0</ele><time>2026-03-22T15:18:31Z</time></trkpt><trkpt lat="45.29917791641467" lon="9.25456594946012"><ele>82.0</ele><time>2026-03-22T15:18:32Z</time></trkpt><trkpt lat="45.299279394952" lon="9.254632019050876"><ele>82.0</ele><time>2026-03-22T15:18:33Z</time></trkpt><trkpt lat="45.29938691372584" lon="9.254688080830984"><ele>82.0</ele><time>2026-03-22T15:18:34Z</time></trkpt><trkpt lat="45.29948261150896" lon="9.254798881716196"><ele>82.0</ele><time>2026-03-22T15:18:35Z</time></trkpt><trkpt lat="45.29957445596024" lon="9.254940891877432"><ele>82.0</ele><time>2026-03-22T15:18:36Z</time></trkpt><trkpt lat="45.29966545176554" lon="9.255084643195564"><ele>82.25</ele><time>2026-03-22T15:18:37Z</time></trkpt><trkpt lat="45.29976397141135" lon="9.255237807299661"><ele>82.5</ele><time>2026-03-22T15:18:38Z</time></trkpt><trkpt lat="45.29985426814597" lon="9.2553935176456"><ele>82.75</ele><time>2026-03-22T15:18:39Z</time></trkpt><trkpt lat="45.299946409187235" lon="9.255550261311608"><ele>83.0</ele><time>2026-03-22T15:18:40Z</time></trkpt><trkpt lat="45.30004316560289" lon="9.255705437736465"><ele>83.25</ele><time>2026-03-22T15:18:41Z</time></trkpt><trkpt lat="45.30013792517959" lon="9.255862481505405"><ele>83.5</ele><time>2026-03-22T15:18:42Z</time></trkpt><trkpt lat="45.300233244492404" lon="9.256027139799002"><ele>83.75</ele><time>2026-03-22T15:18:43Z</time></trkpt><trkpt lat="45.300329561767946" lon="9.256195508784986"><ele>84.0</ele><time>2026-03-22T15:18:44Z</time></trkpt><trkpt lat="45.30043194955544" lon="9.256363675228314"><ele>84.0</ele><time>2026-03-22T15:18:45Z</time></trkpt><trkpt lat="45.30053678682677" lon="9.256533318187834"><ele>84.0</ele><time>2026-03-22T15:18:46Z</time></trkpt><trkpt lat="45.30064006215415" lon="9.256707594375438"><ele>84.0</ele><time>2026-03-22T15:18:47Z</time></trkpt><trkpt lat="45.30074069092338" lon="9.256883712845546"><ele>84.0</ele><time>2026-03-22T15:18:48Z</time></trkpt><trkpt lat="45.30084370326989" lon="9.257060942267467"><ele>84.0</ele><time>2026-03-22T15:18:49Z</time></trkpt><trkpt lat="45.30094627236731" lon="9.257239090537139"><ele>84.0</ele><time>2026-03-22T15:18:50Z</time></trkpt><trkpt lat="45.3010476636894" lon="9.257416481369448"><ele>84.0</ele><time>2026-03-22T15:18:51Z</time></trkpt><trkpt lat="45.301150021248965" lon="9.25759412467837"><ele>84.0</ele><time>2026-03-22T15:18:52Z</time></trkpt><trkpt lat="45.301252093032545" lon="9.25777197493947"><ele>84.0</ele><time>2026-03-22T15:18:53Z</time></trkpt><trkpt lat="45.30135559863659" lon="9.257948807261462"><ele>84.0</ele><time>2026-03-22T15:18:54Z</time></trkpt><trkpt lat="45.30145973544814" lon="9.25812960495814"><ele>84.0</ele><time>2026-03-22T15:18:55Z</time></trkpt><trkpt lat="45.30156516823231" lon="9.258311760391242"><ele>84.0</ele><time>2026-03-22T15:18:56Z</time></trkpt><trkpt lat="45.30167280035778" lon="9.258489325126135"><ele>84.0</ele><time>2026-03-22T15:18:57Z</time></trkpt><trkpt lat="45.301781512115724" lon="9.258665929028107"><ele>84.0</ele><time>2026-03-22T15:18:58Z</time></trkpt><trkpt lat="45.30188701320873" lon="9.258844829683726"><ele>84.0</ele><time>2026-03-22T15:18:59Z</time></trkpt><trkpt lat="45.30198878700628" lon="9.259024618391875"><ele>83.66666666666667</ele><time>2026-03-22T15:19:00Z</time></trkpt><trkpt lat="45.302091188994275" lon="9.259204407090001"><ele>83.33333333333334</ele><time>2026-03-22T15:19:01Z</time></trkpt><trkpt lat="45.302195871995046" lon="9.25938121625481"><ele>83.0</ele><time>2026-03-22T15:19:02Z</time></trkpt><trkpt lat="45.30230076519192" lon="9.259558753501338"><ele>83.66666666666667</ele><time>2026-03-22T15:19:03Z</time></trkpt><trkpt lat="45.30240946668436" lon="9.259733649260506"><ele>84.33333333333333</ele><time>2026-03-22T15:19:04Z</time></trkpt><trkpt lat="45.30251096142745" lon="9.259913357995428"><ele>85.0</ele><time>2026-03-22T15:19:05Z</time></trkpt><trkpt lat="45.30261418182561" lon="9.26008990132132"><ele>85.0</ele><time>2026-03-22T15:19:06Z</time></trkpt><trkpt lat="45.30271756502999" lon="9.260265111701434"><ele>85.0</ele><time>2026-03-22T15:19:07Z</time></trkpt><trkpt lat="45.30282140210498" lon="9.260439336720587"><ele>85.0</ele><time>2026-03-22T15:19:08Z</time></trkpt><trkpt lat="45.30292552510024" lon="9.26061362182139"><ele>85.0</ele><time>2026-03-22T15:19:09Z</time></trkpt><trkpt lat="45.30303121405863" lon="9.26078950402624"><ele>85.0</ele><time>2026-03-22T15:19:10Z</time></trkpt><trkpt lat="45.30313446477967" lon="9.260964804860189"><ele>85.0</ele><time>2026-03-22T15:19:11Z</time></trkpt><trkpt lat="45.30323705019954" lon="9.261138664500596"><ele>85.0</ele><time>2026-03-22T15:19:12Z</time></trkpt><trkpt lat="45.30333825281539" lon="9.261310240691403"><ele>85.0</ele><time>2026-03-22T15:19:13Z</time></trkpt><trkpt lat="45.30343978236853" lon="9.261484462034725"><ele>85.0</ele><time>2026-03-22T15:19:14Z</time></trkpt><trkpt lat="45.303541891485345" lon="9.261653821733661"><ele>84.66666666666666</ele><time>2026-03-22T15:19:15Z</time></trkpt><trkpt lat="45.303644472307" lon="9.261823384609336"><ele>84.33333333333333</ele><time>2026-03-22T15:19:16Z</time></trkpt><trkpt lat="45.303744710640196" lon="9.261998070973677"><ele>84.0</ele><time>2026-03-22T15:19:17Z</time></trkpt><trkpt lat="45.30384734843026" lon="9.26217496569516"><ele>82.66666666666667</ele><time>2026-03-22T15:19:18Z</time></trkpt><trkpt lat="45.30395206839603" lon="9.262346689371094"><ele>81.33333333333334</ele><time>2026-03-22T15:19:19Z</time></trkpt><trkpt lat="45.304056635707944" lon="9.262521143506662"><ele>80.0</ele><time>2026-03-22T15:19:20Z</time></trkpt><trkpt lat="45.304160607521744" lon="9.262693003535144"><ele>80.0</ele><time>2026-03-22T15:19:21Z</time></trkpt><trkpt lat="45.30426488122774" lon="9.262867137755057"><ele>80.0</ele><time>2026-03-22T15:19:22Z</time></trkpt><trkpt lat="45.30436814499533" lon="9.263044044923818"><ele>80.0</ele><time>2026-03-22T15:19:23Z</time></trkpt><trkpt lat="45.304472876886464" lon="9.263218175030138"><ele>80.66666666666667</ele><time>2026-03-22T15:19:24Z</time></trkpt><trkpt lat="45.304575945284604" lon="9.263391808692955"><ele>81.33333333333333</ele><time>2026-03-22T15:19:25Z</time></trkpt><trkpt lat="45.30467811939937" lon="9.263566836423097"><ele>82.0</ele><time>2026-03-22T15:19:26Z</time></trkpt><trkpt lat="45.3047773277599" lon="9.263741971439709"><ele>82.0</ele><time>2026-03-22T15:19:27Z</time></trkpt><trkpt lat="45.3048770512463" lon="9.26391834673607"><ele>82.0</ele><time>2026-03-22T15:19:28Z</time></trkpt><trkpt lat="45.30497551566432" lon="9.264089964781247"><ele>82.0</ele><time>2026-03-22T15:19:29Z</time></trkpt><trkpt lat="45.30508038933785" lon="9.26426155616224"><ele>82.66666666666666</ele><time>2026-03-22T15:19:30Z</time></trkpt><trkpt lat="45.30518263874858" lon="9.264431239286106"><ele>83.33333333333333</ele><time>2026-03-22T15:19:31Z</time></trkpt><trkpt lat="45.30528392794404" lon="9.26460296992573"><ele>84.0</ele><time>2026-03-22T15:19:32Z</time></trkpt><trkpt lat="45.30538578997716" lon="9.264776149601774"><ele>84.33333333333333</ele><time>2026-03-22T15:19:33Z</time></trkpt><trkpt lat="45.30548693996555" lon="9.264946343897781"><ele>84.66666666666666</ele><time>2026-03-22T15:19:34Z</time></trkpt><trkpt lat="45.305588212607844" lon="9.265116811677778"><ele>85.0</ele><time>2026-03-22T15:19:35Z</time></trkpt><trkpt lat="45.305686318041595" lon="9.265284624614662"><ele>85.0</ele><time>2026-03-22T15:19:36Z</time></trkpt><trkpt lat="45.30578773606902" lon="9.265449571220149"><ele>85.0</ele><time>2026-03-22T15:19:37Z</time></trkpt><trkpt lat="45.305885059644744" lon="9.26561715499127"><ele>85.0</ele><time>2026-03-22T15:19:38Z</time></trkpt><trkpt lat="45.30598518592316" lon="9.265783642422308"><ele>85.0</ele><time>2026-03-22T15:19:39Z</time></trkpt><trkpt lat="45.306084607426044" lon="9.26595700886032"><ele>85.0</ele><time>2026-03-22T15:19:40Z</time></trkpt><trkpt lat="45.30618126843156" lon="9.266120406218683"><ele>85.0</ele><time>2026-03-22T15:19:41Z</time></trkpt><trkpt lat="45.30628036024359" lon="9.266287652580665"><ele>85.33333333333333</ele><time>2026-03-22T15:19:42Z</time></trkpt><trkpt lat="45.306383401304664" lon="9.266452687056734"><ele>85.66666666666667</ele><time>2026-03-22T15:19:43Z</time></trkpt><trkpt lat="45.306486320863506" lon="9.26661356252133"><ele>86.0</ele><time>2026-03-22T15:19:44Z</time></trkpt><trkpt lat="45.30658124486017" lon="9.26678478297395"><ele>86.0</ele><time>2026-03-22T15:19:45Z</time></trkpt><trkpt lat="45.30668077455136" lon="9.266956821660898"><ele>86.0</ele><time>2026-03-22T15:19:46Z</time></trkpt><trkpt lat="45.30678074240866" lon="9.267124137945265"><ele>86.0</ele><time>2026-03-22T15:19:47Z</time></trkpt><trkpt lat="45.306880212943874" lon="9.267294590025545"><ele>86.0</ele><time>2026-03-22T15:19:48Z</time></trkpt><trkpt lat="45.30698065783823" lon="9.267466291594133"><ele>86.0</ele><time>2026-03-22T15:19:49Z</time></trkpt><trkpt lat="45.30707815367734" lon="9.267630796665372"><ele>86.0</ele><time>2026-03-22T15:19:50Z</time></trkpt><trkpt lat="45.30716738962566" lon="9.267784334803844"><ele>86.0</ele><time>2026-03-22T15:19:51Z</time></trkpt><trkpt lat="45.30724829395189" lon="9.267930981374194"><ele>86.0</ele><time>2026-03-22T15:19:52Z</time></trkpt><trkpt lat="45.3073210831158" lon="9.268062578376652"><ele>86.0</ele><time>2026-03-22T15:19:53Z</time></trkpt><trkpt lat="45.307382107068705" lon="9.268185949282385"><ele>86.0</ele><time>2026-03-22T15:19:54Z</time></trkpt><trkpt lat="45.307434468859135" lon="9.268317611717022"><ele>86.0</ele><time>2026-03-22T15:19:55Z</time></trkpt><trkpt lat="45.307467932628164" lon="9.268444431090623"><ele>86.0</ele><time>2026-03-22T15:19:56Z</time></trkpt><trkpt lat="45.30750860442698" lon="9.268579553878718"><ele>86.0</ele><time>2026-03-22T15:19:57Z</time></trkpt><trkpt lat="45.307579053394804" lon="9.268691855123008"><ele>86.0</ele><time>2026-03-22T15:19:58Z</time></trkpt><trkpt lat="45.30767313439272" lon="9.268789476440633"><ele>86.0</ele><time>2026-03-22T15:19:59Z</time></trkpt><trkpt lat="45.30777067581097" lon="9.268877386587356"><ele>86.0</ele><time>2026-03-22T15:20:00Z</time></trkpt><trkpt lat="45.30785907888932" lon="9.268980693395859"><ele>86.25</ele><time>2026-03-22T15:20:01Z</time></trkpt><trkpt lat="45.30794195362113" lon="9.269109810186572"><ele>86.5</ele><time>2026-03-22T15:20:02Z</time></trkpt><trkpt lat="45.308023846660575" lon="9.269245614165797"><ele>86.75</ele><time>2026-03-22T15:20:03Z</time></trkpt><trkpt lat="45.30810497381803" lon="9.269387601585123"><ele>87.0</ele><time>2026-03-22T15:20:04Z</time></trkpt><trkpt lat="45.308186656110095" lon="9.26953082896871"><ele>87.0</ele><time>2026-03-22T15:20:05Z</time></trkpt><trkpt lat="45.30826751675735" lon="9.26967264398241"><ele>87.0</ele><time>2026-03-22T15:20:06Z</time></trkpt><trkpt lat="45.30834993603057" lon="9.269814148418149"><ele>87.0</ele><time>2026-03-22T15:20:07Z</time></trkpt><trkpt lat="45.30842876093848" lon="9.269958259127451"><ele>87.0</ele><time>2026-03-22T15:20:08Z</time></trkpt><trkpt lat="45.30851105915976" lon="9.270100775612729"><ele>87.0</ele><time>2026-03-22T15:20:09Z</time></trkpt><trkpt lat="45.30859251073837" lon="9.270241685790642"><ele>87.0</ele><time>2026-03-22T15:20:10Z</time></trkpt><trkpt lat="45.308672768613356" lon="9.270381106372744"><ele>87.0</ele><time>2026-03-22T15:20:11Z</time></trkpt><trkpt lat="45.30875528107712" lon="9.27052151088825"><ele>87.0</ele><time>2026-03-22T15:20:12Z</time></trkpt><trkpt lat="45.3088398727956" lon="9.27066802344703"><ele>86.8</ele><time>2026-03-22T15:20:13Z</time></trkpt><trkpt lat="45.30891716391339" lon="9.27080648494461"><ele>86.6</ele><time>2026-03-22T15:20:14Z</time></trkpt><trkpt lat="45.308988327242325" lon="9.270931528611975"><ele>86.39999999999999</ele><time>2026-03-22T15:20:15Z</time></trkpt><trkpt lat="45.30904935981225" lon="9.271052003172613"><ele>86.19999999999999</ele><time>2026-03-22T15:20:16Z</time></trkpt><trkpt lat="45.30910158798853" lon="9.271175081329822"><ele>86.0</ele><time>2026-03-22T15:20:17Z</time></trkpt><trkpt lat="45.309129033334756" lon="9.271293760276476"><ele>86.0</ele><time>2026-03-22T15:20:18Z</time></trkpt><trkpt lat="45.30912989438108" lon="9.271423623282432"><ele>86.0</ele><time>2026-03-22T15:20:19Z</time></trkpt><trkpt lat="45.30909993925109" lon="9.27155537347667"><ele>86.0</ele><time>2026-03-22T15:20:20Z</time></trkpt><trkpt lat="45.309066782283026" lon="9.27167607342301"><ele>86.0</ele><time>2026-03-22T15:20:21Z</time></trkpt><trkpt lat="45.30916251929827" lon="9.271841241681132"><ele>86.0</ele><time>2026-03-22T15:20:22Z</time></trkpt><trkpt lat="45.30921699797188" lon="9.271957185329478"><ele>86.0</ele><time>2026-03-22T15:20:23Z</time></trkpt><trkpt lat="45.30928628561593" lon="9.272075064336416"><ele>86.0</ele><time>2026-03-22T15:20:24Z</time></trkpt><trkpt lat="45.30935355750375" lon="9.27220272613325"><ele>86.0</ele><time>2026-03-22T15:20:25Z</time></trkpt><trkpt lat="45.3094184969155" lon="9.272333087740964"><ele>86.0</ele><time>2026-03-22T15:20:26Z</time></trkpt><trkpt lat="45.30948897747682" lon="9.272453411163802"><ele>86.0</ele><time>2026-03-22T15:20:27Z</time></trkpt><trkpt lat="45.30957251188929" lon="9.272566332365766"><ele>86.0</ele><time>2026-03-22T15:20:28Z</time></trkpt><trkpt lat="45.3096687803217" lon="9.272669707770754"><ele>86.0</ele><time>2026-03-22T15:20:29Z</time></trkpt><trkpt lat="45.30977564469082" lon="9.27275688950378"><ele>86.0</ele><time>2026-03-22T15:20:30Z</time></trkpt><trkpt lat="45.30988953265347" lon="9.27282757772973"><ele>86.0</ele><time>2026-03-22T15:20:31Z</time></trkpt><trkpt lat="45.31000984008717" lon="9.272881130875762"><ele>86.0</ele><time>2026-03-22T15:20:32Z</time></trkpt><trkpt lat="45.310138890878406" lon="9.272910399227964"><ele>86.0</ele><time>2026-03-22T15:20:33Z</time></trkpt><trkpt lat="45.31026981860207" lon="9.272926692829873"><ele>86.0</ele><time>2026-03-22T15:20:34Z</time></trkpt><trkpt lat="45.310405706853174" lon="9.27293117831533"><ele>86.0</ele><time>2026-03-22T15:20:35Z</time></trkpt><trkpt lat="45.310554138408776" lon="9.27290885647831"><ele>86.0</ele><time>2026-03-22T15:20:36Z</time></trkpt><trkpt lat="45.31070646827531" lon="9.27285194815158"><ele>86.0</ele><time>2026-03-22T15:20:37Z</time></trkpt><trkpt lat="45.310869807605634" lon="9.272750337609835"><ele>86.0</ele><time>2026-03-22T15:20:38Z</time></trkpt><trkpt lat="45.311039771029115" lon="9.27262072396428"><ele>86.0</ele><time>2026-03-22T15:20:39Z</time></trkpt><trkpt lat="45.31121814022109" lon="9.272496147232893"><ele>86.0</ele><time>2026-03-22T15:20:40Z</time></trkpt><trkpt lat="45.311417357529734" lon="9.272378010288598"><ele>86.0</ele><time>2026-03-22T15:20:41Z</time></trkpt><trkpt lat="45.311618524559314" lon="9.272249668811593"><ele>86.5</ele><time>2026-03-22T15:20:42Z</time></trkpt><trkpt lat="45.31182429570283" lon="9.2720963226556"><ele>87.0</ele><time>2026-03-22T15:20:43Z</time></trkpt><trkpt lat="45.31203841656445" lon="9.271932688365032"><ele>88.0</ele><time>2026-03-22T15:20:44Z</time></trkpt><trkpt lat="45.31224372709633" lon="9.271781002487486"><ele>89.0</ele><time>2026-03-22T15:20:45Z</time></trkpt><trkpt lat="45.31244385425675" lon="9.271637391535318"><ele>89.0</ele><time>2026-03-22T15:20:46Z</time></trkpt><trkpt lat="45.312640628873396" lon="9.271492788782902"><ele>89.0</ele><time>2026-03-22T15:20:47Z</time></trkpt><trkpt lat="45.3128368326293" lon="9.271342086455098"><ele>89.0</ele><time>2026-03-22T15:20:48Z</time></trkpt><trkpt lat="45.31303290225421" lon="9.271182618081177"><ele>88.5</ele><time>2026-03-22T15:20:49Z</time></trkpt><trkpt lat="45.313236820776204" lon="9.271017325763669"><ele>88.0</ele><time>2026-03-22T15:20:50Z</time></trkpt><trkpt lat="45.31344193753302" lon="9.27085547990642"><ele>88.0</ele><time>2026-03-22T15:20:51Z</time></trkpt><trkpt lat="45.31364169004053" lon="9.270700993817385"><ele>88.0</ele><time>2026-03-22T15:20:52Z</time></trkpt><trkpt lat="45.313835394198485" lon="9.270550230308155"><ele>88.0</ele><time>2026-03-22T15:20:53Z</time></trkpt><trkpt lat="45.314023752992625" lon="9.270412000460242"><ele>88.0</ele><time>2026-03-22T15:20:54Z</time></trkpt><trkpt lat="45.31419873795861" lon="9.270304732858422"><ele>88.0</ele><time>2026-03-22T15:20:55Z</time></trkpt><trkpt lat="45.3143675492452" lon="9.270238447613536"><ele>88.0</ele><time>2026-03-22T15:20:56Z</time></trkpt><trkpt lat="45.31453254130906" lon="9.270208847303921"><ele>88.0</ele><time>2026-03-22T15:20:57Z</time></trkpt><trkpt lat="45.314703696829454" lon="9.270221300806725"><ele>88.0</ele><time>2026-03-22T15:20:58Z</time></trkpt><trkpt lat="45.31488703043888" lon="9.270257525391457"><ele>88.0</ele><time>2026-03-22T15:20:59Z</time></trkpt><trkpt lat="45.315072326428506" lon="9.270328825572"><ele>87.66666666666666</ele><time>2026-03-22T15:21:00Z</time></trkpt><trkpt lat="45.31524458177266" lon="9.270398701494596"><ele>87.33333333333333</ele><time>2026-03-22T15:21:01Z</time></trkpt><trkpt lat="45.31540299389947" lon="9.2704532221666"><ele>87.0</ele><time>2026-03-22T15:21:02Z</time></trkpt><trkpt lat="45.31555686773942" lon="9.270501808599747"><ele>87.0</ele><time>2026-03-22T15:21:03Z</time></trkpt><trkpt lat="45.31569371211404" lon="9.27055015339366"><ele>87.0</ele><time>2026-03-22T15:21:04Z</time></trkpt><trkpt lat="45.31582390137099" lon="9.270605651520318"><ele>87.0</ele><time>2026-03-22T15:21:05Z</time></trkpt><trkpt lat="45.31595626858938" lon="9.270679983630037"><ele>87.0</ele><time>2026-03-22T15:21:06Z</time></trkpt><trkpt lat="45.31607902808237" lon="9.270790745475558"><ele>87.0</ele><time>2026-03-22T15:21:07Z</time></trkpt><trkpt lat="45.316191081267675" lon="9.270942380916738"><ele>87.0</ele><time>2026-03-22T15:21:08Z</time></trkpt><trkpt lat="45.31630410918525" lon="9.271114590832003"><ele>87.0</ele><time>2026-03-22T15:21:09Z</time></trkpt><trkpt lat="45.316428419775676" lon="9.271299188136615"><ele>87.33333333333333</ele><time>2026-03-22T15:21:10Z</time></trkpt><trkpt lat="45.31656415977988" lon="9.27148730960977"><ele>87.66666666666666</ele><time>2026-03-22T15:21:11Z</time></trkpt><trkpt lat="45.316699999030966" lon="9.271679646533656"><ele>88.0</ele><time>2026-03-22T15:21:12Z</time></trkpt><trkpt lat="45.3168341079022" lon="9.271865596753559"><ele>88.0</ele><time>2026-03-22T15:21:13Z</time></trkpt><trkpt lat="45.316975621565405" lon="9.27205830327202"><ele>88.0</ele><time>2026-03-22T15:21:14Z</time></trkpt><trkpt lat="45.31710515897514" lon="9.27224507206972"><ele>88.0</ele><time>2026-03-22T15:21:15Z</time></trkpt><trkpt lat="45.31723340797096" lon="9.27243351497468"><ele>87.33333333333333</ele><time>2026-03-22T15:21:16Z</time></trkpt><trkpt lat="45.317363323612646" lon="9.27262210354221"><ele>86.66666666666667</ele><time>2026-03-22T15:21:17Z</time></trkpt><trkpt lat="45.3174955977632" lon="9.272807533560659"><ele>86.0</ele><time>2026-03-22T15:21:18Z</time></trkpt><trkpt lat="45.31762779565377" lon="9.272992551957108"><ele>87.0</ele><time>2026-03-22T15:21:19Z</time></trkpt><trkpt lat="45.317757582111305" lon="9.273180501231703"><ele>88.0</ele><time>2026-03-22T15:21:20Z</time></trkpt><trkpt lat="45.31789078218675" lon="9.273366634597974"><ele>89.0</ele><time>2026-03-22T15:21:21Z</time></trkpt><trkpt lat="45.31802272507975" lon="9.2735515184263"><ele>89.0</ele><time>2026-03-22T15:21:22Z</time></trkpt><trkpt lat="45.31815072505302" lon="9.273737424616428"><ele>89.0</ele><time>2026-03-22T15:21:23Z</time></trkpt><trkpt lat="45.31827586921532" lon="9.27392159017724"><ele>89.0</ele><time>2026-03-22T15:21:24Z</time></trkpt><trkpt lat="45.31840241009244" lon="9.274105625477986"><ele>89.0</ele><time>2026-03-22T15:21:25Z</time></trkpt><trkpt lat="45.31852886469617" lon="9.274286567871316"><ele>89.0</ele><time>2026-03-22T15:21:26Z</time></trkpt><trkpt lat="45.3186525400354" lon="9.27446442588935"><ele>89.0</ele><time>2026-03-22T15:21:27Z</time></trkpt><trkpt lat="45.31877538959149" lon="9.274639225084858"><ele>89.33333333333334</ele><time>2026-03-22T15:21:28Z</time></trkpt><trkpt lat="45.318895085447565" lon="9.274812162184555"><ele>89.66666666666667</ele><time>2026-03-22T15:21:29Z</time></trkpt><trkpt lat="45.319011262111246" lon="9.274982906297113"><ele>90.0</ele><time>2026-03-22T15:21:30Z</time></trkpt><trkpt lat="45.31913072682016" lon="9.275151115549855"><ele>89.33333333333333</ele><time>2026-03-22T15:21:31Z</time></trkpt><trkpt lat="45.31924897404341" lon="9.275317755329748"><ele>88.66666666666666</ele><time>2026-03-22T15:21:32Z</time></trkpt><trkpt lat="45.31936543052955" lon="9.275485471755301"><ele>88.0</ele><time>2026-03-22T15:21:33Z</time></trkpt><trkpt lat="45.31948062625732" lon="9.27564940334211"><ele>88.0</ele><time>2026-03-22T15:21:34Z</time></trkpt><trkpt lat="45.319596130031606" lon="9.275810541061238"><ele>88.0</ele><time>2026-03-22T15:21:35Z</time></trkpt><trkpt lat="45.319707860447075" lon="9.275969888847607"><ele>88.0</ele><time>2026-03-22T15:21:36Z</time></trkpt><trkpt lat="45.319811417014364" lon="9.276119612499688"><ele>88.25</ele><time>2026-03-22T15:21:37Z</time></trkpt><trkpt lat="45.31990849608407" lon="9.27625233143646"><ele>88.5</ele><time>2026-03-22T15:21:38Z</time></trkpt><trkpt lat="45.320004127480146" lon="9.276375990250404"><ele>88.75</ele><time>2026-03-22T15:21:39Z</time></trkpt><trkpt lat="45.32010060805857" lon="9.276508560911081"><ele>89.0</ele><time>2026-03-22T15:21:40Z</time></trkpt><trkpt lat="45.320191107277644" lon="9.276641906701997"><ele>89.5</ele><time>2026-03-22T15:21:41Z</time></trkpt><trkpt lat="45.32028799791603" lon="9.276768118346109"><ele>90.0</ele><time>2026-03-22T15:21:42Z</time></trkpt><trkpt lat="45.320380150450134" lon="9.276893746027563"><ele>90.5</ele><time>2026-03-22T15:21:43Z</time></trkpt><trkpt lat="45.32046561056432" lon="9.277017578585935"><ele>91.0</ele><time>2026-03-22T15:21:44Z</time></trkpt><trkpt lat="45.32055023182864" lon="9.27713456423317"><ele>90.4</ele><time>2026-03-22T15:21:45Z</time></trkpt><trkpt lat="45.32063054412918" lon="9.277251407345787"><ele>89.8</ele><time>2026-03-22T15:21:46Z</time></trkpt><trkpt lat="45.32071292216172" lon="9.277366840168778"><ele>89.2</ele><time>2026-03-22T15:21:47Z</time></trkpt><trkpt lat="45.320797669835585" lon="9.277478862653359"><ele>88.60000000000001</ele><time>2026-03-22T15:21:48Z</time></trkpt><trkpt lat="45.32087049541713" lon="9.27758117449474"><ele>88.0</ele><time>2026-03-22T15:21:49Z</time></trkpt><trkpt lat="45.320939364493185" lon="9.277681062662028"><ele>87.83333333333333</ele><time>2026-03-22T15:21:50Z</time></trkpt><trkpt lat="45.32100016555017" lon="9.277772860094927"><ele>87.66666666666666</ele><time>2026-03-22T15:21:51Z</time></trkpt><trkpt lat="45.32105119874702" lon="9.277862018166758"><ele>87.5</ele><time>2026-03-22T15:21:52Z</time></trkpt><trkpt lat="45.321088365540284" lon="9.277954573544132"><ele>87.33333333333333</ele><time>2026-03-22T15:21:53Z</time></trkpt><trkpt lat="45.32110757094443" lon="9.278056679795968"><ele>87.16666666666667</ele><time>2026-03-22T15:21:54Z</time></trkpt><trkpt lat="45.3211317939308" lon="9.278170709971972"><ele>87.0</ele><time>2026-03-22T15:21:55Z</time></trkpt><trkpt lat="45.3211715145461" lon="9.278280467309726"><ele>87.0</ele><time>2026-03-22T15:21:56Z</time></trkpt><trkpt lat="45.32124548826711" lon="9.278360147024921"><ele>87.0</ele><time>2026-03-22T15:21:57Z</time></trkpt><trkpt lat="45.3213464310725" lon="9.278408390999905"><ele>87.0</ele><time>2026-03-22T15:21:58Z</time></trkpt><trkpt lat="45.32144969086143" lon="9.278467664202358"><ele>87.0</ele><time>2026-03-22T15:21:59Z</time></trkpt><trkpt lat="45.32154195245573" lon="9.278563032302548"><ele>87.0</ele><time>2026-03-22T15:22:00Z</time></trkpt><trkpt lat="45.32163349782287" lon="9.278673460434865"><ele>87.0</ele><time>2026-03-22T15:22:01Z</time></trkpt><trkpt lat="45.32171789192625" lon="9.27879342506516"><ele>87.0</ele><time>2026-03-22T15:22:02Z</time></trkpt><trkpt lat="45.32180947101476" lon="9.278924730840185"><ele>87.0</ele><time>2026-03-22T15:22:03Z</time></trkpt><trkpt lat="45.32190213482809" lon="9.279056869796253"><ele>87.0</ele><time>2026-03-22T15:22:04Z</time></trkpt><trkpt lat="45.32199537121632" lon="9.279186477162073"><ele>87.0</ele><time>2026-03-22T15:22:05Z</time></trkpt><trkpt lat="45.32208914952074" lon="9.279316278029896"><ele>87.0</ele><time>2026-03-22T15:22:06Z</time></trkpt><trkpt lat="45.32217970873947" lon="9.279446722674688"><ele>87.0</ele><time>2026-03-22T15:22:07Z</time></trkpt><trkpt lat="45.32227169740223" lon="9.279578016150687"><ele>87.0</ele><time>2026-03-22T15:22:08Z</time></trkpt><trkpt lat="45.322365103366295" lon="9.27971112281502"><ele>87.0</ele><time>2026-03-22T15:22:09Z</time></trkpt><trkpt lat="45.32246046711377" lon="9.279844679236165"><ele>87.0</ele><time>2026-03-22T15:22:10Z</time></trkpt><trkpt lat="45.32255981948749" lon="9.279977672593988"><ele>87.0</ele><time>2026-03-22T15:22:11Z</time></trkpt><trkpt lat="45.32265752280526" lon="9.280111525126308"><ele>87.0</ele><time>2026-03-22T15:22:12Z</time></trkpt><trkpt lat="45.32276101718049" lon="9.280251473380913"><ele>87.0</ele><time>2026-03-22T15:22:13Z</time></trkpt><trkpt lat="45.32286060570783" lon="9.280392335118561"><ele>87.0</ele><time>2026-03-22T15:22:14Z</time></trkpt><trkpt lat="45.322961942070336" lon="9.280531584655103"><ele>87.0</ele><time>2026-03-22T15:22:15Z</time></trkpt><trkpt lat="45.32306247200713" lon="9.280671104119524"><ele>87.0</ele><time>2026-03-22T15:22:16Z</time></trkpt><trkpt lat="45.323160874119594" lon="9.280810081004544"><ele>87.25</ele><time>2026-03-22T15:22:17Z</time></trkpt><trkpt lat="45.3232555078198" lon="9.280942949386851"><ele>87.5</ele><time>2026-03-22T15:22:18Z</time></trkpt><trkpt lat="45.32334564755189" lon="9.28107144012383"><ele>87.75</ele><time>2026-03-22T15:22:19Z</time></trkpt><trkpt lat="45.32343603222963" lon="9.281197568856786"><ele>88.0</ele><time>2026-03-22T15:22:20Z</time></trkpt><trkpt lat="45.32352757580525" lon="9.281317000020843"><ele>88.0</ele><time>2026-03-22T15:22:21Z</time></trkpt><trkpt lat="45.32361318510237" lon="9.281431622244488"><ele>88.0</ele><time>2026-03-22T15:22:22Z</time></trkpt><trkpt lat="45.32369780687418" lon="9.28154356895605"><ele>88.0</ele><time>2026-03-22T15:22:23Z</time></trkpt><trkpt lat="45.32377734640333" lon="9.281650223220423"><ele>88.0</ele><time>2026-03-22T15:22:24Z</time></trkpt><trkpt lat="45.323855777544374" lon="9.281754726450531"><ele>88.2</ele><time>2026-03-22T15:22:25Z</time></trkpt><trkpt lat="45.323932358383985" lon="9.281856597518777"><ele>88.4</ele><time>2026-03-22T15:22:26Z</time></trkpt><trkpt lat="45.32400522086368" lon="9.281956325018294"><ele>88.60000000000001</ele><time>2026-03-22T15:22:27Z</time></trkpt><trkpt lat="45.324071416439885" lon="9.28204915214641"><ele>88.80000000000001</ele><time>2026-03-22T15:22:28Z</time></trkpt><trkpt lat="45.3241331952237" lon="9.282133921639629"><ele>89.0</ele><time>2026-03-22T15:22:29Z</time></trkpt><trkpt lat="45.32419872132825" lon="9.282226017036349"><ele>88.80000000000001</ele><time>2026-03-22T15:22:30Z</time></trkpt><trkpt lat="45.324267019382106" lon="9.282319944781095"><ele>88.60000000000001</ele><time>2026-03-22T15:22:31Z</time></trkpt><trkpt lat="45.32433340867262" lon="9.282413750710885"><ele>88.4</ele><time>2026-03-22T15:22:32Z</time></trkpt><trkpt lat="45.32440154277878" lon="9.28250481288174"><ele>88.2</ele><time>2026-03-22T15:22:33Z</time></trkpt><trkpt lat="45.32446806816728" lon="9.28259465848414"><ele>88.0</ele><time>2026-03-22T15:22:34Z</time></trkpt><trkpt lat="45.32453044009682" lon="9.282681580916181"><ele>88.0</ele><time>2026-03-22T15:22:35Z</time></trkpt><trkpt lat="45.3245871517671" lon="9.282770229705063"><ele>88.0</ele><time>2026-03-22T15:22:36Z</time></trkpt><trkpt lat="45.32463346391294" lon="9.2828461277014"><ele>88.0</ele><time>2026-03-22T15:22:37Z</time></trkpt><trkpt lat="45.324672053163674" lon="9.282919448045718"><ele>88.0</ele><time>2026-03-22T15:22:38Z</time></trkpt><trkpt lat="45.32471709861622" lon="9.283060864440598"><ele>88.0</ele><time>2026-03-22T15:22:40Z</time></trkpt><trkpt lat="45.32473696860752" lon="9.283146187967839"><ele>88.0</ele><time>2026-03-22T15:22:41Z</time></trkpt><trkpt lat="45.32475074950516" lon="9.283238646430538"><ele>87.80000000000001</ele><time>2026-03-22T15:22:42Z</time></trkpt><trkpt lat="45.32478694983966" lon="9.283321559920951"><ele>87.6</ele><time>2026-03-22T15:22:43Z</time></trkpt><trkpt lat="45.32490590666184" lon="9.283390456833683"><ele>87.4</ele><time>2026-03-22T15:22:45Z</time></trkpt><trkpt lat="45.3249774954249" lon="9.28336343768753"><ele>87.19999999999999</ele><time>2026-03-22T15:22:46Z</time></trkpt><trkpt lat="45.32505094734256" lon="9.283333004617134"><ele>87.0</ele><time>2026-03-22T15:22:47Z</time></trkpt><trkpt lat="45.32507933769686" lon="9.283145479116373"><ele>87.66666666666667</ele><time>2026-03-22T15:22:48Z</time></trkpt><trkpt lat="45.325138325859584" lon="9.282969117285438"><ele>88.33333333333334</ele><time>2026-03-22T15:22:49Z</time></trkpt><trkpt lat="45.32522985190497" lon="9.282794235925717"><ele>89.0</ele><time>2026-03-22T15:22:50Z</time></trkpt><trkpt lat="45.325332589760905" lon="9.282616267543155"><ele>89.0</ele><time>2026-03-22T15:22:51Z</time></trkpt><trkpt lat="45.32541963119621" lon="9.282454845555085"><ele>89.0</ele><time>2026-03-22T15:22:52Z</time></trkpt><trkpt lat="45.32550234581215" lon="9.282312399358261"><ele>89.0</ele><time>2026-03-22T15:22:53Z</time></trkpt><trkpt lat="45.325585581659006" lon="9.282182713718765"><ele>89.0</ele><time>2026-03-22T15:22:54Z</time></trkpt><trkpt lat="45.32566951352792" lon="9.282050389330754"><ele>89.0</ele><time>2026-03-22T15:22:55Z</time></trkpt><trkpt lat="45.325754911752924" lon="9.28191395306878"><ele>89.0</ele><time>2026-03-22T15:22:56Z</time></trkpt><trkpt lat="45.325846392906115" lon="9.281788482265473"><ele>89.0</ele><time>2026-03-22T15:22:57Z</time></trkpt><trkpt lat="45.325946697498786" lon="9.28167551150343"><ele>89.0</ele><time>2026-03-22T15:22:58Z</time></trkpt><trkpt lat="45.326056572812426" lon="9.28156942216092"><ele>89.0</ele><time>2026-03-22T15:22:59Z</time></trkpt><trkpt lat="45.326179530718065" lon="9.281464030986035"><ele>89.0</ele><time>2026-03-22T15:23:00Z</time></trkpt><trkpt lat="45.32631184250901" lon="9.28133178558839"><ele>89.0</ele><time>2026-03-22T15:23:01Z</time></trkpt><trkpt lat="45.326440888739775" lon="9.281207641630541"><ele>89.33333333333334</ele><time>2026-03-22T15:23:02Z</time></trkpt><trkpt lat="45.32657344412283" lon="9.28108856935938"><ele>89.66666666666667</ele><time>2026-03-22T15:23:03Z</time></trkpt><trkpt lat="45.32670328940573" lon="9.280970485877527"><ele>90.0</ele><time>2026-03-22T15:23:04Z</time></trkpt><trkpt lat="45.32683165024783" lon="9.280856157056226"><ele>90.0</ele><time>2026-03-22T15:23:05Z</time></trkpt><trkpt lat="45.32695693604642" lon="9.280742070129572"><ele>90.0</ele><time>2026-03-22T15:23:06Z</time></trkpt><trkpt lat="45.32707637056685" lon="9.280631781100718"><ele>90.0</ele><time>2026-03-22T15:23:07Z</time></trkpt><trkpt lat="45.327192850431544" lon="9.280521440808268"><ele>90.0</ele><time>2026-03-22T15:23:08Z</time></trkpt><trkpt lat="45.32730721178701" lon="9.280410625204237"><ele>90.0</ele><time>2026-03-22T15:23:09Z</time></trkpt><trkpt lat="45.327422466561735" lon="9.280299971518582"><ele>90.0</ele><time>2026-03-22T15:23:10Z</time></trkpt><trkpt lat="45.32753950794042" lon="9.280193795960237"><ele>90.0</ele><time>2026-03-22T15:23:11Z</time></trkpt><trkpt lat="45.32765387419101" lon="9.280082442408617"><ele>90.0</ele><time>2026-03-22T15:23:12Z</time></trkpt><trkpt lat="45.327768228009916" lon="9.27996878788483"><ele>90.0</ele><time>2026-03-22T15:23:13Z</time></trkpt><trkpt lat="45.3278837436474" lon="9.279856177639456"><ele>90.0</ele><time>2026-03-22T15:23:14Z</time></trkpt><trkpt lat="45.32799925853357" lon="9.279743196358156"><ele>90.0</ele><time>2026-03-22T15:23:15Z</time></trkpt><trkpt lat="45.32811905418711" lon="9.27963415235088"><ele>90.0</ele><time>2026-03-22T15:23:16Z</time></trkpt><trkpt lat="45.32823785584542" lon="9.279523249913401"><ele>89.25</ele><time>2026-03-22T15:23:17Z</time></trkpt><trkpt lat="45.32835926638052" lon="9.27941121968211"><ele>88.5</ele><time>2026-03-22T15:23:18Z</time></trkpt><trkpt lat="45.32848144567596" lon="9.279300927454456"><ele>87.75</ele><time>2026-03-22T15:23:19Z</time></trkpt><trkpt lat="45.32860369534266" lon="9.279188805906639"><ele>87.0</ele><time>2026-03-22T15:23:20Z</time></trkpt><trkpt lat="45.328725630698614" lon="9.279076917125806"><ele>87.0</ele><time>2026-03-22T15:23:21Z</time></trkpt><trkpt lat="45.32884720372329" lon="9.278965987490759"><ele>87.0</ele><time>2026-03-22T15:23:22Z</time></trkpt><trkpt lat="45.3289691744213" lon="9.278854680856767"><ele>87.0</ele><time>2026-03-22T15:23:23Z</time></trkpt><trkpt lat="45.3290904927397" lon="9.27874197070988"><ele>87.0</ele><time>2026-03-22T15:23:24Z</time></trkpt><trkpt lat="45.329209200438456" lon="9.278627745045828"><ele>87.0</ele><time>2026-03-22T15:23:25Z</time></trkpt><trkpt lat="45.32932870280441" lon="9.27851562704735"><ele>87.0</ele><time>2026-03-22T15:23:26Z</time></trkpt><trkpt lat="45.32944572065432" lon="9.278401951353265"><ele>87.0</ele><time>2026-03-22T15:23:27Z</time></trkpt><trkpt lat="45.32956102555629" lon="9.278287744264107"><ele>87.0</ele><time>2026-03-22T15:23:28Z</time></trkpt><trkpt lat="45.329679304472535" lon="9.278175309113406"><ele>87.25</ele><time>2026-03-22T15:23:29Z</time></trkpt><trkpt lat="45.329799429594885" lon="9.278068233225396"><ele>87.5</ele><time>2026-03-22T15:23:30Z</time></trkpt><trkpt lat="45.329920605964205" lon="9.27796165440901"><ele>87.75</ele><time>2026-03-22T15:23:31Z</time></trkpt><trkpt lat="45.33004111081634" lon="9.277854489007924"><ele>88.0</ele><time>2026-03-22T15:23:32Z</time></trkpt><trkpt lat="45.3301610981314" lon="9.277746097391468"><ele>88.0</ele><time>2026-03-22T15:23:33Z</time></trkpt><trkpt lat="45.330274819686146" lon="9.27764138756181"><ele>88.0</ele><time>2026-03-22T15:23:34Z</time></trkpt><trkpt lat="45.330381823338186" lon="9.277544516225197"><ele>88.0</ele><time>2026-03-22T15:23:35Z</time></trkpt><trkpt lat="45.33048939171537" lon="9.277448528026339"><ele>88.0</ele><time>2026-03-22T15:23:36Z</time></trkpt><trkpt lat="45.33059155151648" lon="9.277347227359675"><ele>88.5</ele><time>2026-03-22T15:23:37Z</time></trkpt><trkpt lat="45.33069351003975" lon="9.277237784690271"><ele>89.0</ele><time>2026-03-22T15:23:38Z</time></trkpt><trkpt lat="45.33080016487533" lon="9.277115140649464"><ele>89.5</ele><time>2026-03-22T15:23:39Z</time></trkpt><trkpt lat="45.330906400012054" lon="9.276987405064771"><ele>90.0</ele><time>2026-03-22T15:23:40Z</time></trkpt><trkpt lat="45.331018996786575" lon="9.276851997500485"><ele>90.0</ele><time>2026-03-22T15:23:41Z</time></trkpt><trkpt lat="45.331141491351154" lon="9.276707093331256"><ele>90.0</ele><time>2026-03-22T15:23:42Z</time></trkpt><trkpt lat="45.33126186823157" lon="9.276571101549083"><ele>90.0</ele><time>2026-03-22T15:23:43Z</time></trkpt><trkpt lat="45.33138278025173" lon="9.276431002357503"><ele>90.0</ele><time>2026-03-22T15:23:44Z</time></trkpt><trkpt lat="45.33149902972806" lon="9.276295198818508"><ele>90.0</ele><time>2026-03-22T15:23:45Z</time></trkpt><trkpt lat="45.33161447523691" lon="9.276164980956555"><ele>90.0</ele><time>2026-03-22T15:23:46Z</time></trkpt><trkpt lat="45.33172935785649" lon="9.27604162450377"><ele>90.0</ele><time>2026-03-22T15:23:47Z</time></trkpt><trkpt lat="45.33184343064503" lon="9.275918156689167"><ele>90.0</ele><time>2026-03-22T15:23:48Z</time></trkpt><trkpt lat="45.33195661991625" lon="9.27580136384204"><ele>90.0</ele><time>2026-03-22T15:23:49Z</time></trkpt><trkpt lat="45.332071134000444" lon="9.275690867411766"><ele>90.0</ele><time>2026-03-22T15:23:50Z</time></trkpt><trkpt lat="45.332182688540605" lon="9.275580780607314"><ele>90.0</ele><time>2026-03-22T15:23:51Z</time></trkpt><trkpt lat="45.33229591529924" lon="9.27547497190762"><ele>90.25</ele><time>2026-03-22T15:23:52Z</time></trkpt><trkpt lat="45.33241156474913" lon="9.275378451510175"><ele>90.5</ele><time>2026-03-22T15:23:53Z</time></trkpt><trkpt lat="45.332529945562115" lon="9.27529159897117"><ele>90.75</ele><time>2026-03-22T15:23:54Z</time></trkpt><trkpt lat="45.33264566530208" lon="9.275190627860898"><ele>91.0</ele><time>2026-03-22T15:23:55Z</time></trkpt><trkpt lat="45.33275734878572" lon="9.275083111472291"><ele>91.0</ele><time>2026-03-22T15:23:56Z</time></trkpt><trkpt lat="45.33287035679508" lon="9.274980853903665"><ele>91.0</ele><time>2026-03-22T15:23:57Z</time></trkpt><trkpt lat="45.332987154984835" lon="9.274872558679746"><ele>91.0</ele><time>2026-03-22T15:23:58Z</time></trkpt><trkpt lat="45.33309887116219" lon="9.27476386675673"><ele>91.0</ele><time>2026-03-22T15:23:59Z</time></trkpt><trkpt lat="45.33321993742945" lon="9.274654991245935"><ele>90.66666666666666</ele><time>2026-03-22T15:24:00Z</time></trkpt><trkpt lat="45.33334594537388" lon="9.274539774595969"><ele>90.33333333333333</ele><time>2026-03-22T15:24:01Z</time></trkpt><trkpt lat="45.33347806778013" lon="9.274417078807984"><ele>90.0</ele><time>2026-03-22T15:24:02Z</time></trkpt><trkpt lat="45.33361379081671" lon="9.274293282190595"><ele>90.0</ele><time>2026-03-22T15:24:03Z</time></trkpt><trkpt lat="45.333755613303694" lon="9.274166042698605"><ele>90.0</ele><time>2026-03-22T15:24:04Z</time></trkpt><trkpt lat="45.333899272077396" lon="9.274039267086781"><ele>90.0</ele><time>2026-03-22T15:24:05Z</time></trkpt><trkpt lat="45.334044603932306" lon="9.273906663298908"><ele>89.66666666666667</ele><time>2026-03-22T15:24:06Z</time></trkpt><trkpt lat="45.334188982509474" lon="9.27377654726693"><ele>89.33333333333334</ele><time>2026-03-22T15:24:07Z</time></trkpt><trkpt lat="45.3343242253" lon="9.273665682080605"><ele>89.0</ele><time>2026-03-22T15:24:08Z</time></trkpt><trkpt lat="45.33445593677632" lon="9.273559284747321"><ele>89.0</ele><time>2026-03-22T15:24:09Z</time></trkpt><trkpt lat="45.334584545795664" lon="9.273465383602796"><ele>89.0</ele><time>2026-03-22T15:24:10Z</time></trkpt><trkpt lat="45.33470238092038" lon="9.273386202032071"><ele>89.0</ele><time>2026-03-22T15:24:11Z</time></trkpt><trkpt lat="45.33481637608561" lon="9.273298112823165"><ele>89.0</ele><time>2026-03-22T15:24:12Z</time></trkpt><trkpt lat="45.334917217319074" lon="9.273228263101103"><ele>89.0</ele><time>2026-03-22T15:24:13Z</time></trkpt><trkpt lat="45.3350164291666" lon="9.273161402187396"><ele>89.0</ele><time>2026-03-22T15:24:14Z</time></trkpt><trkpt lat="45.33510949649405" lon="9.273100079318064"><ele>89.0</ele><time>2026-03-22T15:24:15Z</time></trkpt><trkpt lat="45.335181907637235" lon="9.273030553554374"><ele>89.0</ele><time>2026-03-22T15:24:16Z</time></trkpt><trkpt lat="45.335257770837984" lon="9.272968823044101"><ele>89.0</ele><time>2026-03-22T15:24:17Z</time></trkpt><trkpt lat="45.33533135150614" lon="9.272879518437676"><ele>89.0</ele><time>2026-03-22T15:24:18Z</time></trkpt><trkpt lat="45.335416609836805" lon="9.272804590204762"><ele>89.0</ele><time>2026-03-22T15:24:19Z</time></trkpt><trkpt lat="45.33551170581453" lon="9.272748161353876"><ele>89.0</ele><time>2026-03-22T15:24:20Z</time></trkpt><trkpt lat="45.33560954718856" lon="9.272683315232461"><ele>89.0</ele><time>2026-03-22T15:24:21Z</time></trkpt><trkpt lat="45.33570438795587" lon="9.272620811097985"><ele>89.0</ele><time>2026-03-22T15:24:22Z</time></trkpt><trkpt lat="45.33578896358101" lon="9.272572420136687"><ele>88.83333333333334</ele><time>2026-03-22T15:24:23Z</time></trkpt><trkpt lat="45.33586569980311" lon="9.272528578656894"><ele>88.66666666666667</ele><time>2026-03-22T15:24:24Z</time></trkpt><trkpt lat="45.335945641206834" lon="9.272510635676992"><ele>88.5</ele><time>2026-03-22T15:24:25Z</time></trkpt><trkpt lat="45.336025733151175" lon="9.272527535868141"><ele>88.33333333333333</ele><time>2026-03-22T15:24:26Z</time></trkpt><trkpt lat="45.33610576654943" lon="9.272519190437313"><ele>88.16666666666666</ele><time>2026-03-22T15:24:27Z</time></trkpt><trkpt lat="45.33617984750193" lon="9.272444505892338"><ele>88.0</ele><time>2026-03-22T15:24:28Z</time></trkpt><trkpt lat="45.33624412047801" lon="9.272336240933436"><ele>88.0</ele><time>2026-03-22T15:24:29Z</time></trkpt><trkpt lat="45.336329587325594" lon="9.27223604879148"><ele>88.0</ele><time>2026-03-22T15:24:30Z</time></trkpt><trkpt lat="45.33645508300525" lon="9.272160342111956"><ele>88.0</ele><time>2026-03-22T15:24:31Z</time></trkpt><trkpt lat="45.33658123962192" lon="9.27208758838188"><ele>88.0</ele><time>2026-03-22T15:24:32Z</time></trkpt><trkpt lat="45.33669737270904" lon="9.27201081372443"><ele>88.4</ele><time>2026-03-22T15:24:33Z</time></trkpt><trkpt lat="45.33679805187138" lon="9.271946432739684"><ele>88.80000000000001</ele><time>2026-03-22T15:24:34Z</time></trkpt><trkpt lat="45.336889047953505" lon="9.271888081017039"><ele>89.2</ele><time>2026-03-22T15:24:35Z</time></trkpt><trkpt lat="45.33697991565779" lon="9.271831085136514"><ele>89.6</ele><time>2026-03-22T15:24:36Z</time></trkpt><trkpt lat="45.33706078853687" lon="9.271776326288142"><ele>90.0</ele><time>2026-03-22T15:24:37Z</time></trkpt><trkpt lat="45.33713416379363" lon="9.27172126569543"><ele>90.0</ele><time>2026-03-22T15:24:38Z</time></trkpt><trkpt lat="45.337212844159744" lon="9.271695152873711"><ele>90.0</ele><time>2026-03-22T15:24:39Z</time></trkpt><trkpt lat="45.33728282996346" lon="9.271649963479588"><ele>90.0</ele><time>2026-03-22T15:24:40Z</time></trkpt><trkpt lat="45.33735123370707" lon="9.271605795622335"><ele>90.0</ele><time>2026-03-22T15:24:41Z</time></trkpt><trkpt lat="45.33742426906242" lon="9.27153543647579"><ele>90.0</ele><time>2026-03-22T15:24:42Z</time></trkpt><trkpt lat="45.337521189534456" lon="9.271474936328117"><ele>90.0</ele><time>2026-03-22T15:24:43Z</time></trkpt><trkpt lat="45.33764536480201" lon="9.271408593158911"><ele>90.0</ele><time>2026-03-22T15:24:44Z</time></trkpt><trkpt lat="45.33779954628645" lon="9.271310297787526"><ele>90.0</ele><time>2026-03-22T15:24:45Z</time></trkpt><trkpt lat="45.337937955442094" lon="9.271215889023397"><ele>90.0</ele><time>2026-03-22T15:24:46Z</time></trkpt><trkpt lat="45.33805577323152" lon="9.271140717938197"><ele>90.16666666666667</ele><time>2026-03-22T15:24:47Z</time></trkpt><trkpt lat="45.338159868237625" lon="9.271085006043174"><ele>90.33333333333333</ele><time>2026-03-22T15:24:48Z</time></trkpt><trkpt lat="45.338251656698695" lon="9.271039028561754"><ele>90.5</ele><time>2026-03-22T15:24:49Z</time></trkpt><trkpt lat="45.33834192022616" lon="9.271014645257347"><ele>90.66666666666666</ele><time>2026-03-22T15:24:50Z</time></trkpt><trkpt lat="45.33842104919166" lon="9.271002045743728"><ele>90.83333333333333</ele><time>2026-03-22T15:24:51Z</time></trkpt><trkpt lat="45.33848047989196" lon="9.270954552782197"><ele>91.0</ele><time>2026-03-22T15:24:52Z</time></trkpt><trkpt lat="45.338534501572894" lon="9.270855901365902"><ele>91.0</ele><time>2026-03-22T15:24:53Z</time></trkpt><trkpt lat="45.338608958170525" lon="9.27077473867964"><ele>91.0</ele><time>2026-03-22T15:24:54Z</time></trkpt><trkpt lat="45.33872382496118" lon="9.270695952498507"><ele>91.0</ele><time>2026-03-22T15:24:55Z</time></trkpt><trkpt lat="45.33887383480057" lon="9.270606893836517"><ele>91.0</ele><time>2026-03-22T15:24:56Z</time></trkpt><trkpt lat="45.33901737478963" lon="9.270524588310309"><ele>91.0</ele><time>2026-03-22T15:24:57Z</time></trkpt><trkpt lat="45.339129560590244" lon="9.270453875479975"><ele>91.0</ele><time>2026-03-22T15:24:58Z</time></trkpt><trkpt lat="45.339229453378955" lon="9.270385660695212"><ele>91.0</ele><time>2026-03-22T15:24:59Z</time></trkpt><trkpt lat="45.33935277803936" lon="9.270303076927657"><ele>91.0</ele><time>2026-03-22T15:25:00Z</time></trkpt><trkpt lat="45.33947991643086" lon="9.270215178557516"><ele>91.0</ele><time>2026-03-22T15:25:01Z</time></trkpt><trkpt lat="45.339598295403334" lon="9.270132773119615"><ele>91.0</ele><time>2026-03-22T15:25:02Z</time></trkpt><trkpt lat="45.33970057402289" lon="9.270062069719243"><ele>91.0</ele><time>2026-03-22T15:25:03Z</time></trkpt><trkpt lat="45.33980629040871" lon="9.26999199282431"><ele>91.0</ele><time>2026-03-22T15:25:04Z</time></trkpt><trkpt lat="45.33993166194468" lon="9.269912074055451"><ele>90.75</ele><time>2026-03-22T15:25:05Z</time></trkpt><trkpt lat="45.340041813765154" lon="9.269856216565056"><ele>90.5</ele><time>2026-03-22T15:25:06Z</time></trkpt><trkpt lat="45.34017205973675" lon="9.269816511757085"><ele>90.25</ele><time>2026-03-22T15:25:07Z</time></trkpt><trkpt lat="45.34031968350678" lon="9.269787380181192"><ele>90.0</ele><time>2026-03-22T15:25:08Z</time></trkpt><trkpt lat="45.34044312869322" lon="9.269765286006564"><ele>90.0</ele><time>2026-03-22T15:25:09Z</time></trkpt><trkpt lat="45.34054913504874" lon="9.26974394261472"><ele>90.0</ele><time>2026-03-22T15:25:10Z</time></trkpt><trkpt lat="45.34063901791245" lon="9.269726015366183"><ele>90.0</ele><time>2026-03-22T15:25:11Z</time></trkpt><trkpt lat="45.34072816107441" lon="9.269721052593715"><ele>90.0</ele><time>2026-03-22T15:25:13Z</time></trkpt><trkpt lat="45.340800772914484" lon="9.269722716224672"><ele>90.0</ele><time>2026-03-22T15:25:15Z</time></trkpt><trkpt lat="45.340815297211456" lon="9.269974183773659"><ele>90.0</ele><time>2026-03-22T15:25:17Z</time></trkpt><trkpt lat="45.34084939143491" lon="9.270105219698745"><ele>90.0</ele><time>2026-03-22T15:25:18Z</time></trkpt><trkpt lat="45.34086353151593" lon="9.270316404339608"><ele>90.0</ele><time>2026-03-22T15:25:19Z</time></trkpt><trkpt lat="45.340893206909115" lon="9.270522780374998"><ele>90.0</ele><time>2026-03-22T15:25:20Z</time></trkpt><trkpt lat="45.34091419360998" lon="9.27066888386215"><ele>90.0</ele><time>2026-03-22T15:25:21Z</time></trkpt><trkpt lat="45.34093294419965" lon="9.270799704489814"><ele>90.0</ele><time>2026-03-22T15:25:22Z</time></trkpt><trkpt lat="45.340949981092116" lon="9.270918568780374"><ele>90.0</ele><time>2026-03-22T15:25:23Z</time></trkpt><trkpt lat="45.34096934846418" lon="9.271027221843475"><ele>90.0</ele><time>2026-03-22T15:25:24Z</time></trkpt><trkpt lat="45.34102016299481" lon="9.271099859795628"><ele>90.0</ele><time>2026-03-22T15:25:25Z</time></trkpt><trkpt lat="45.341127754511504" lon="9.27115470798157"><ele>90.0</ele><time>2026-03-22T15:25:27Z</time></trkpt><trkpt lat="45.34125144708223" lon="9.271126746431143"><ele>90.0</ele><time>2026-03-22T15:25:29Z</time></trkpt><trkpt lat="45.341351463300356" lon="9.271114880655592"><ele>90.0</ele><time>2026-03-22T15:25:31Z</time></trkpt><trkpt lat="45.341421978344236" lon="9.271187684859948"><ele>90.0</ele><time>2026-03-22T15:25:33Z</time></trkpt><trkpt lat="45.341453962149316" lon="9.271292230090818"><ele>90.0</ele><time>2026-03-22T15:25:35Z</time></trkpt><trkpt lat="45.34143890341266" lon="9.271410743484738"><ele>90.0</ele><time>2026-03-22T15:25:38Z</time></trkpt><trkpt lat="45.34141258612419" lon="9.271496941178786"><ele>90.0</ele><time>2026-03-22T15:25:40Z</time></trkpt><trkpt lat="45.34138259367344" lon="9.271618509112141"><ele>90.2</ele><time>2026-03-22T15:25:42Z</time></trkpt><trkpt lat="45.341345493618704" lon="9.271725307330316"><ele>90.4</ele><time>2026-03-22T15:25:44Z</time></trkpt><trkpt lat="45.34129820702474" lon="9.271890760041305"><ele>90.6</ele><time>2026-03-22T15:25:46Z</time></trkpt><trkpt lat="45.34125095774146" lon="9.27205608268739"><ele>90.8</ele><time>2026-03-22T15:25:48Z</time></trkpt><trkpt lat="45.34123338589988" lon="9.272145572038285"><ele>91.0</ele><time>2026-03-22T15:25:49Z</time></trkpt><trkpt lat="45.341212244737605" lon="9.272230358949615"><ele>91.19999999999999</ele><time>2026-03-22T15:25:50Z</time></trkpt><trkpt lat="45.34116792747912" lon="9.272391166849166"><ele>91.39999999999999</ele><time>2026-03-22T15:25:52Z</time></trkpt><trkpt lat="45.341124745885175" lon="9.272554323617653"><ele>91.6</ele><time>2026-03-22T15:25:54Z</time></trkpt><trkpt lat="45.34108837276905" lon="9.27263193445039"><ele>91.8</ele><time>2026-03-22T15:25:55Z</time></trkpt><trkpt lat="45.34106426144573" lon="9.272717875971958"><ele>92.0</ele><time>2026-03-22T15:25:56Z</time></trkpt><trkpt lat="45.34101774697956" lon="9.272878394022941"><ele>92.0</ele><time>2026-03-22T15:25:58Z</time></trkpt><trkpt lat="45.34096719115461" lon="9.273018607748906"><ele>92.0</ele><time>2026-03-22T15:26:00Z</time></trkpt><trkpt lat="45.340927019096924" lon="9.273097145347466"><ele>92.0</ele><time>2026-03-22T15:26:02Z</time></trkpt><trkpt lat="45.34082044297252" lon="9.273043277889798"><ele>92.0</ele><time>2026-03-22T15:26:05Z</time></trkpt><trkpt lat="45.34071675458674" lon="9.27297985885618"><ele>92.0</ele><time>2026-03-22T15:26:07Z</time></trkpt><trkpt lat="45.34064384561711" lon="9.272950876313402"><ele>92.0</ele><time>2026-03-22T15:26:09Z</time></trkpt><trkpt lat="45.34056117285126" lon="9.272995438200944"><ele>92.0</ele><time>2026-03-22T15:28:45Z</time></trkpt><trkpt lat="45.34063446675239" lon="9.273039737523568"><ele>92.0</ele><time>2026-03-22T15:30:35Z</time></trkpt><trkpt lat="45.34071962819027" lon="9.273220757031137"><ele>92.0</ele><time>2026-03-22T15:30:44Z</time></trkpt><trkpt lat="45.34062258921767" lon="9.273020159732345"><ele>92.0</ele><time>2026-03-22T15:31:49Z</time></trkpt><trkpt lat="45.34067956860463" lon="9.273103080955938"><ele>92.0</ele><time>2026-03-22T15:32:02Z</time></trkpt></trkseg></trk></gpx>